<?xml version="1.0" encoding="UTF-8" standalone="no" ?>
<gpx xmlns="http://www.topografix.com/GPX/1/1" xmlns:xsi="http://www.w3.org/2001/XMLSchema-instance" xsi:schemaLocation="http://www.topografix.com/GPX/1/1 http://www.topografix.com/GPX/1/1/gpx.xsd" version="1.1" creator="VisuGPX - https://www.visugpx.com">
  <metadata>
    <name>3T_08_15-lafitte_matemale</name>
    <desc><![CDATA[Sur les traces des pionniers de l'aéropostaleben tandem solaire 
La première étape de Lafitte à Matemale ]]></desc>
  </metadata>
  <trk>
    <name><![CDATA[3T_08_15-lafitte_matemale_1]]></name>
    <trkseg>
      <trkpt lat="43.30351" lon="1.16926">
        <ele>270.2</ele>
        <time>2023-08-15T05:34:43Z</time>
      </trkpt>
      <trkpt lat="43.30347" lon="1.16938">
        <ele>270.2</ele>
        <time>2023-08-15T05:37:41Z</time>
      </trkpt>
      <trkpt lat="43.30357" lon="1.16947">
        <ele>269.2</ele>
        <time>2023-08-15T05:53:39Z</time>
      </trkpt>
      <trkpt lat="43.30367" lon="1.1693">
        <ele>269.9</ele>
        <time>2023-08-15T05:53:43Z</time>
      </trkpt>
      <trkpt lat="43.30372" lon="1.16921">
        <ele>270.3</ele>
        <time>2023-08-15T05:53:46Z</time>
      </trkpt>
      <trkpt lat="43.30382" lon="1.16903">
        <ele>269.8</ele>
        <time>2023-08-15T05:53:50Z</time>
      </trkpt>
      <trkpt lat="43.30387" lon="1.16893">
        <ele>270.3</ele>
        <time>2023-08-15T05:53:54Z</time>
      </trkpt>
      <trkpt lat="43.3039" lon="1.1689">
        <ele>270.7</ele>
        <time>2023-08-15T05:53:57Z</time>
      </trkpt>
      <trkpt lat="43.30402" lon="1.16898">
        <ele>269.6</ele>
        <time>2023-08-15T05:54:01Z</time>
      </trkpt>
      <trkpt lat="43.30414" lon="1.1691">
        <ele>269.6</ele>
        <time>2023-08-15T05:54:04Z</time>
      </trkpt>
      <trkpt lat="43.30431" lon="1.16924">
        <ele>270.5</ele>
        <time>2023-08-15T05:54:08Z</time>
      </trkpt>
      <trkpt lat="43.30448" lon="1.16935">
        <ele>270.4</ele>
        <time>2023-08-15T05:54:12Z</time>
      </trkpt>
      <trkpt lat="43.30463" lon="1.16947">
        <ele>270.4</ele>
        <time>2023-08-15T05:54:16Z</time>
      </trkpt>
      <trkpt lat="43.30475" lon="1.16956">
        <ele>269.8</ele>
        <time>2023-08-15T05:54:19Z</time>
      </trkpt>
      <trkpt lat="43.30486" lon="1.16967">
        <ele>270.3</ele>
        <time>2023-08-15T05:54:23Z</time>
      </trkpt>
      <trkpt lat="43.30497" lon="1.16976">
        <ele>270.4</ele>
        <time>2023-08-15T05:54:26Z</time>
      </trkpt>
      <trkpt lat="43.30512" lon="1.16987">
        <ele>269.4</ele>
        <time>2023-08-15T05:54:30Z</time>
      </trkpt>
      <trkpt lat="43.3052" lon="1.16994">
        <ele>269.6</ele>
        <time>2023-08-15T05:54:33Z</time>
      </trkpt>
      <trkpt lat="43.30533" lon="1.17005">
        <ele>270.1</ele>
        <time>2023-08-15T05:54:37Z</time>
      </trkpt>
      <trkpt lat="43.30553" lon="1.17021">
        <ele>270</ele>
        <time>2023-08-15T05:54:41Z</time>
      </trkpt>
      <trkpt lat="43.30562" lon="1.17028">
        <ele>270</ele>
        <time>2023-08-15T05:54:44Z</time>
      </trkpt>
      <trkpt lat="43.30576" lon="1.17041">
        <ele>270.1</ele>
        <time>2023-08-15T05:54:48Z</time>
      </trkpt>
      <trkpt lat="43.3059" lon="1.17052">
        <ele>270</ele>
        <time>2023-08-15T05:54:51Z</time>
      </trkpt>
      <trkpt lat="43.30606" lon="1.17064">
        <ele>269.6</ele>
        <time>2023-08-15T05:54:54Z</time>
      </trkpt>
      <trkpt lat="43.30628" lon="1.17076">
        <ele>269.8</ele>
        <time>2023-08-15T05:54:58Z</time>
      </trkpt>
      <trkpt lat="43.30652" lon="1.17086">
        <ele>270.1</ele>
        <time>2023-08-15T05:55:02Z</time>
      </trkpt>
      <trkpt lat="43.30677" lon="1.17098">
        <ele>270.9</ele>
        <time>2023-08-15T05:55:06Z</time>
      </trkpt>
      <trkpt lat="43.30696" lon="1.17109">
        <ele>271.8</ele>
        <time>2023-08-15T05:55:09Z</time>
      </trkpt>
      <trkpt lat="43.3072" lon="1.17124">
        <ele>273.4</ele>
        <time>2023-08-15T05:55:13Z</time>
      </trkpt>
      <trkpt lat="43.30735" lon="1.17133">
        <ele>274.6</ele>
        <time>2023-08-15T05:55:16Z</time>
      </trkpt>
      <trkpt lat="43.30747" lon="1.17144">
        <ele>275.5</ele>
        <time>2023-08-15T05:55:19Z</time>
      </trkpt>
      <trkpt lat="43.30762" lon="1.1717">
        <ele>275.9</ele>
        <time>2023-08-15T05:55:23Z</time>
      </trkpt>
      <trkpt lat="43.30781" lon="1.17203">
        <ele>276.4</ele>
        <time>2023-08-15T05:55:27Z</time>
      </trkpt>
      <trkpt lat="43.308" lon="1.17233">
        <ele>276.8</ele>
        <time>2023-08-15T05:55:31Z</time>
      </trkpt>
      <trkpt lat="43.30819" lon="1.17264">
        <ele>276.9</ele>
        <time>2023-08-15T05:55:35Z</time>
      </trkpt>
      <trkpt lat="43.30833" lon="1.17286">
        <ele>277.1</ele>
        <time>2023-08-15T05:55:38Z</time>
      </trkpt>
      <trkpt lat="43.30846" lon="1.17308">
        <ele>277.2</ele>
        <time>2023-08-15T05:55:41Z</time>
      </trkpt>
      <trkpt lat="43.30864" lon="1.17337">
        <ele>277.7</ele>
        <time>2023-08-15T05:55:45Z</time>
      </trkpt>
      <trkpt lat="43.30885" lon="1.17362">
        <ele>277.6</ele>
        <time>2023-08-15T05:55:49Z</time>
      </trkpt>
      <trkpt lat="43.30904" lon="1.1739">
        <ele>277.5</ele>
        <time>2023-08-15T05:55:53Z</time>
      </trkpt>
      <trkpt lat="43.30918" lon="1.17412">
        <ele>277.5</ele>
        <time>2023-08-15T05:55:56Z</time>
      </trkpt>
      <trkpt lat="43.30935" lon="1.17443">
        <ele>276.7</ele>
        <time>2023-08-15T05:56:00Z</time>
      </trkpt>
      <trkpt lat="43.30946" lon="1.17467">
        <ele>276.7</ele>
        <time>2023-08-15T05:56:03Z</time>
      </trkpt>
      <trkpt lat="43.30963" lon="1.175">
        <ele>276.6</ele>
        <time>2023-08-15T05:56:07Z</time>
      </trkpt>
      <trkpt lat="43.3098" lon="1.17532">
        <ele>275.2</ele>
        <time>2023-08-15T05:56:11Z</time>
      </trkpt>
      <trkpt lat="43.30997" lon="1.17564">
        <ele>275.9</ele>
        <time>2023-08-15T05:56:15Z</time>
      </trkpt>
      <trkpt lat="43.3101" lon="1.17587">
        <ele>275.8</ele>
        <time>2023-08-15T05:56:18Z</time>
      </trkpt>
      <trkpt lat="43.31026" lon="1.17617">
        <ele>275.1</ele>
        <time>2023-08-15T05:56:22Z</time>
      </trkpt>
      <trkpt lat="43.31045" lon="1.17647">
        <ele>275.7</ele>
        <time>2023-08-15T05:56:26Z</time>
      </trkpt>
      <trkpt lat="43.31059" lon="1.17668">
        <ele>276.1</ele>
        <time>2023-08-15T05:56:29Z</time>
      </trkpt>
      <trkpt lat="43.31075" lon="1.17699">
        <ele>276.3</ele>
        <time>2023-08-15T05:56:33Z</time>
      </trkpt>
      <trkpt lat="43.31095" lon="1.17729">
        <ele>276.2</ele>
        <time>2023-08-15T05:56:37Z</time>
      </trkpt>
      <trkpt lat="43.31109" lon="1.17751">
        <ele>276.1</ele>
        <time>2023-08-15T05:56:40Z</time>
      </trkpt>
      <trkpt lat="43.31128" lon="1.1778">
        <ele>275.5</ele>
        <time>2023-08-15T05:56:44Z</time>
      </trkpt>
      <trkpt lat="43.31142" lon="1.178">
        <ele>274.8</ele>
        <time>2023-08-15T05:56:47Z</time>
      </trkpt>
      <trkpt lat="43.31162" lon="1.17828">
        <ele>275.2</ele>
        <time>2023-08-15T05:56:51Z</time>
      </trkpt>
      <trkpt lat="43.31182" lon="1.17855">
        <ele>276.1</ele>
        <time>2023-08-15T05:56:55Z</time>
      </trkpt>
      <trkpt lat="43.31196" lon="1.17876">
        <ele>276.7</ele>
        <time>2023-08-15T05:56:58Z</time>
      </trkpt>
      <trkpt lat="43.31217" lon="1.17903">
        <ele>276.2</ele>
        <time>2023-08-15T05:57:02Z</time>
      </trkpt>
      <trkpt lat="43.31234" lon="1.17922">
        <ele>276.8</ele>
        <time>2023-08-15T05:57:05Z</time>
      </trkpt>
      <trkpt lat="43.31257" lon="1.17946">
        <ele>276.6</ele>
        <time>2023-08-15T05:57:09Z</time>
      </trkpt>
      <trkpt lat="43.31281" lon="1.17967">
        <ele>276</ele>
        <time>2023-08-15T05:57:13Z</time>
      </trkpt>
      <trkpt lat="43.31305" lon="1.17986">
        <ele>275.2</ele>
        <time>2023-08-15T05:57:17Z</time>
      </trkpt>
      <trkpt lat="43.31323" lon="1.18001">
        <ele>274.7</ele>
        <time>2023-08-15T05:57:20Z</time>
      </trkpt>
      <trkpt lat="43.31345" lon="1.18022">
        <ele>274.9</ele>
        <time>2023-08-15T05:57:24Z</time>
      </trkpt>
      <trkpt lat="43.31371" lon="1.18041">
        <ele>274.9</ele>
        <time>2023-08-15T05:57:28Z</time>
      </trkpt>
      <trkpt lat="43.31393" lon="1.18051">
        <ele>274.5</ele>
        <time>2023-08-15T05:57:31Z</time>
      </trkpt>
      <trkpt lat="43.31419" lon="1.18062">
        <ele>274.5</ele>
        <time>2023-08-15T05:57:35Z</time>
      </trkpt>
      <trkpt lat="43.31437" lon="1.18072">
        <ele>275.6</ele>
        <time>2023-08-15T05:57:39Z</time>
      </trkpt>
      <trkpt lat="43.31456" lon="1.18086">
        <ele>275.4</ele>
        <time>2023-08-15T05:57:43Z</time>
      </trkpt>
      <trkpt lat="43.3148" lon="1.18104">
        <ele>275.4</ele>
        <time>2023-08-15T05:57:47Z</time>
      </trkpt>
      <trkpt lat="43.315" lon="1.1812">
        <ele>274.5</ele>
        <time>2023-08-15T05:57:50Z</time>
      </trkpt>
      <trkpt lat="43.31522" lon="1.18139">
        <ele>275.1</ele>
        <time>2023-08-15T05:57:54Z</time>
      </trkpt>
      <trkpt lat="43.31539" lon="1.18156">
        <ele>275</ele>
        <time>2023-08-15T05:57:58Z</time>
      </trkpt>
      <trkpt lat="43.3155" lon="1.18168">
        <ele>274.7</ele>
        <time>2023-08-15T05:58:02Z</time>
      </trkpt>
      <trkpt lat="43.3156" lon="1.18179">
        <ele>274.7</ele>
        <time>2023-08-15T05:58:05Z</time>
      </trkpt>
      <trkpt lat="43.31571" lon="1.18192">
        <ele>275.2</ele>
        <time>2023-08-15T05:58:08Z</time>
      </trkpt>
      <trkpt lat="43.31589" lon="1.18209">
        <ele>275.8</ele>
        <time>2023-08-15T05:58:12Z</time>
      </trkpt>
      <trkpt lat="43.31601" lon="1.18221">
        <ele>275</ele>
        <time>2023-08-15T05:58:15Z</time>
      </trkpt>
      <trkpt lat="43.31613" lon="1.18233">
        <ele>275</ele>
        <time>2023-08-15T05:58:18Z</time>
      </trkpt>
      <trkpt lat="43.31626" lon="1.18246">
        <ele>274.6</ele>
        <time>2023-08-15T05:58:22Z</time>
      </trkpt>
      <trkpt lat="43.31647" lon="1.18236">
        <ele>274.3</ele>
        <time>2023-08-15T05:58:26Z</time>
      </trkpt>
      <trkpt lat="43.31669" lon="1.18217">
        <ele>273.4</ele>
        <time>2023-08-15T05:58:30Z</time>
      </trkpt>
      <trkpt lat="43.31699" lon="1.18205">
        <ele>273.2</ele>
        <time>2023-08-15T05:58:34Z</time>
      </trkpt>
      <trkpt lat="43.31721" lon="1.182">
        <ele>273.3</ele>
        <time>2023-08-15T05:58:37Z</time>
      </trkpt>
      <trkpt lat="43.31749" lon="1.18195">
        <ele>273.4</ele>
        <time>2023-08-15T05:58:41Z</time>
      </trkpt>
      <trkpt lat="43.31771" lon="1.18195">
        <ele>273.1</ele>
        <time>2023-08-15T05:58:44Z</time>
      </trkpt>
      <trkpt lat="43.31798" lon="1.18205">
        <ele>272.8</ele>
        <time>2023-08-15T05:58:48Z</time>
      </trkpt>
      <trkpt lat="43.31822" lon="1.18229">
        <ele>272.6</ele>
        <time>2023-08-15T05:58:52Z</time>
      </trkpt>
      <trkpt lat="43.31837" lon="1.18251">
        <ele>272.6</ele>
        <time>2023-08-15T05:58:55Z</time>
      </trkpt>
      <trkpt lat="43.31855" lon="1.18283">
        <ele>271.7</ele>
        <time>2023-08-15T05:58:59Z</time>
      </trkpt>
      <trkpt lat="43.31868" lon="1.18306">
        <ele>271.6</ele>
        <time>2023-08-15T05:59:02Z</time>
      </trkpt>
      <trkpt lat="43.31889" lon="1.18331">
        <ele>271.4</ele>
        <time>2023-08-15T05:59:06Z</time>
      </trkpt>
      <trkpt lat="43.31908" lon="1.18346">
        <ele>271.4</ele>
        <time>2023-08-15T05:59:09Z</time>
      </trkpt>
      <trkpt lat="43.31933" lon="1.18363">
        <ele>271.1</ele>
        <time>2023-08-15T05:59:13Z</time>
      </trkpt>
      <trkpt lat="43.31958" lon="1.18379">
        <ele>272</ele>
        <time>2023-08-15T05:59:17Z</time>
      </trkpt>
      <trkpt lat="43.31984" lon="1.18395">
        <ele>271.9</ele>
        <time>2023-08-15T05:59:21Z</time>
      </trkpt>
      <trkpt lat="43.3201" lon="1.18411">
        <ele>271.6</ele>
        <time>2023-08-15T05:59:25Z</time>
      </trkpt>
      <trkpt lat="43.32036" lon="1.18428">
        <ele>271.2</ele>
        <time>2023-08-15T05:59:29Z</time>
      </trkpt>
      <trkpt lat="43.32055" lon="1.18443">
        <ele>270.6</ele>
        <time>2023-08-15T05:59:32Z</time>
      </trkpt>
      <trkpt lat="43.32073" lon="1.18457">
        <ele>271.3</ele>
        <time>2023-08-15T05:59:35Z</time>
      </trkpt>
      <trkpt lat="43.32098" lon="1.18475">
        <ele>270.8</ele>
        <time>2023-08-15T05:59:39Z</time>
      </trkpt>
      <trkpt lat="43.32122" lon="1.18496">
        <ele>271.5</ele>
        <time>2023-08-15T05:59:43Z</time>
      </trkpt>
      <trkpt lat="43.3214" lon="1.18512">
        <ele>271.8</ele>
        <time>2023-08-15T05:59:46Z</time>
      </trkpt>
      <trkpt lat="43.32157" lon="1.18529">
        <ele>272</ele>
        <time>2023-08-15T05:59:49Z</time>
      </trkpt>
      <trkpt lat="43.3218" lon="1.18552">
        <ele>271.5</ele>
        <time>2023-08-15T05:59:53Z</time>
      </trkpt>
      <trkpt lat="43.32202" lon="1.18578">
        <ele>271.2</ele>
        <time>2023-08-15T05:59:57Z</time>
      </trkpt>
      <trkpt lat="43.32218" lon="1.18598">
        <ele>270.4</ele>
        <time>2023-08-15T06:00:00Z</time>
      </trkpt>
      <trkpt lat="43.32233" lon="1.18617">
        <ele>270.1</ele>
        <time>2023-08-15T06:00:03Z</time>
      </trkpt>
      <trkpt lat="43.32254" lon="1.18644">
        <ele>270.5</ele>
        <time>2023-08-15T06:00:07Z</time>
      </trkpt>
      <trkpt lat="43.3227" lon="1.18664">
        <ele>271.6</ele>
        <time>2023-08-15T06:00:10Z</time>
      </trkpt>
      <trkpt lat="43.3229" lon="1.18691">
        <ele>272</ele>
        <time>2023-08-15T06:00:14Z</time>
      </trkpt>
      <trkpt lat="43.3231" lon="1.18719">
        <ele>271.9</ele>
        <time>2023-08-15T06:00:18Z</time>
      </trkpt>
      <trkpt lat="43.32329" lon="1.18746">
        <ele>272.1</ele>
        <time>2023-08-15T06:00:22Z</time>
      </trkpt>
      <trkpt lat="43.32344" lon="1.18768">
        <ele>272.3</ele>
        <time>2023-08-15T06:00:25Z</time>
      </trkpt>
      <trkpt lat="43.32363" lon="1.18796">
        <ele>272.5</ele>
        <time>2023-08-15T06:00:29Z</time>
      </trkpt>
      <trkpt lat="43.32379" lon="1.18816">
        <ele>272</ele>
        <time>2023-08-15T06:00:32Z</time>
      </trkpt>
      <trkpt lat="43.32398" lon="1.18843">
        <ele>272.3</ele>
        <time>2023-08-15T06:00:36Z</time>
      </trkpt>
      <trkpt lat="43.32418" lon="1.18871">
        <ele>272.1</ele>
        <time>2023-08-15T06:00:40Z</time>
      </trkpt>
      <trkpt lat="43.32433" lon="1.18892">
        <ele>272.1</ele>
        <time>2023-08-15T06:00:43Z</time>
      </trkpt>
      <trkpt lat="43.32447" lon="1.18913">
        <ele>272.3</ele>
        <time>2023-08-15T06:00:46Z</time>
      </trkpt>
      <trkpt lat="43.32467" lon="1.1894">
        <ele>272.2</ele>
        <time>2023-08-15T06:00:50Z</time>
      </trkpt>
      <trkpt lat="43.32481" lon="1.18959">
        <ele>272</ele>
        <time>2023-08-15T06:00:53Z</time>
      </trkpt>
      <trkpt lat="43.32494" lon="1.18978">
        <ele>271.8</ele>
        <time>2023-08-15T06:00:57Z</time>
      </trkpt>
      <trkpt lat="43.32507" lon="1.18995">
        <ele>271.7</ele>
        <time>2023-08-15T06:01:01Z</time>
      </trkpt>
      <trkpt lat="43.32524" lon="1.19017">
        <ele>271.2</ele>
        <time>2023-08-15T06:01:05Z</time>
      </trkpt>
      <trkpt lat="43.32538" lon="1.19035">
        <ele>271.5</ele>
        <time>2023-08-15T06:01:08Z</time>
      </trkpt>
      <trkpt lat="43.32559" lon="1.19062">
        <ele>272</ele>
        <time>2023-08-15T06:01:12Z</time>
      </trkpt>
      <trkpt lat="43.32579" lon="1.19091">
        <ele>272</ele>
        <time>2023-08-15T06:01:16Z</time>
      </trkpt>
      <trkpt lat="43.32601" lon="1.19117">
        <ele>272.1</ele>
        <time>2023-08-15T06:01:20Z</time>
      </trkpt>
      <trkpt lat="43.32622" lon="1.19143">
        <ele>272</ele>
        <time>2023-08-15T06:01:24Z</time>
      </trkpt>
      <trkpt lat="43.32643" lon="1.19168">
        <ele>272.7</ele>
        <time>2023-08-15T06:01:28Z</time>
      </trkpt>
      <trkpt lat="43.32665" lon="1.19194">
        <ele>272.9</ele>
        <time>2023-08-15T06:01:32Z</time>
      </trkpt>
      <trkpt lat="43.32687" lon="1.19219">
        <ele>272.9</ele>
        <time>2023-08-15T06:01:36Z</time>
      </trkpt>
      <trkpt lat="43.32703" lon="1.19237">
        <ele>272</ele>
        <time>2023-08-15T06:01:39Z</time>
      </trkpt>
      <trkpt lat="43.32719" lon="1.19256">
        <ele>272.5</ele>
        <time>2023-08-15T06:01:42Z</time>
      </trkpt>
      <trkpt lat="43.3274" lon="1.19283">
        <ele>272.6</ele>
        <time>2023-08-15T06:01:46Z</time>
      </trkpt>
      <trkpt lat="43.3276" lon="1.1931">
        <ele>273.3</ele>
        <time>2023-08-15T06:01:50Z</time>
      </trkpt>
      <trkpt lat="43.32777" lon="1.19328">
        <ele>273.3</ele>
        <time>2023-08-15T06:01:53Z</time>
      </trkpt>
      <trkpt lat="43.328" lon="1.19352">
        <ele>273.2</ele>
        <time>2023-08-15T06:01:57Z</time>
      </trkpt>
      <trkpt lat="43.32818" lon="1.1937">
        <ele>273.4</ele>
        <time>2023-08-15T06:02:00Z</time>
      </trkpt>
      <trkpt lat="43.32841" lon="1.19393">
        <ele>273.1</ele>
        <time>2023-08-15T06:02:04Z</time>
      </trkpt>
      <trkpt lat="43.3286" lon="1.1942">
        <ele>273.1</ele>
        <time>2023-08-15T06:02:08Z</time>
      </trkpt>
      <trkpt lat="43.32883" lon="1.19443">
        <ele>272.4</ele>
        <time>2023-08-15T06:02:12Z</time>
      </trkpt>
      <trkpt lat="43.32905" lon="1.19467">
        <ele>272</ele>
        <time>2023-08-15T06:02:16Z</time>
      </trkpt>
      <trkpt lat="43.32921" lon="1.19485">
        <ele>272.3</ele>
        <time>2023-08-15T06:02:19Z</time>
      </trkpt>
      <trkpt lat="43.32944" lon="1.1951">
        <ele>272.5</ele>
        <time>2023-08-15T06:02:23Z</time>
      </trkpt>
      <trkpt lat="43.32968" lon="1.19534">
        <ele>272.2</ele>
        <time>2023-08-15T06:02:27Z</time>
      </trkpt>
      <trkpt lat="43.3299" lon="1.19557">
        <ele>272.6</ele>
        <time>2023-08-15T06:02:31Z</time>
      </trkpt>
      <trkpt lat="43.33011" lon="1.19582">
        <ele>272.3</ele>
        <time>2023-08-15T06:02:35Z</time>
      </trkpt>
      <trkpt lat="43.33033" lon="1.19606">
        <ele>272.1</ele>
        <time>2023-08-15T06:02:39Z</time>
      </trkpt>
      <trkpt lat="43.33048" lon="1.19625">
        <ele>272</ele>
        <time>2023-08-15T06:02:42Z</time>
      </trkpt>
      <trkpt lat="43.3307" lon="1.19651">
        <ele>271.1</ele>
        <time>2023-08-15T06:02:46Z</time>
      </trkpt>
      <trkpt lat="43.33085" lon="1.19672">
        <ele>271.4</ele>
        <time>2023-08-15T06:02:49Z</time>
      </trkpt>
      <trkpt lat="43.33104" lon="1.197">
        <ele>271.4</ele>
        <time>2023-08-15T06:02:53Z</time>
      </trkpt>
      <trkpt lat="43.33123" lon="1.19728">
        <ele>271.5</ele>
        <time>2023-08-15T06:02:57Z</time>
      </trkpt>
      <trkpt lat="43.33139" lon="1.19748">
        <ele>270.9</ele>
        <time>2023-08-15T06:03:00Z</time>
      </trkpt>
      <trkpt lat="43.33158" lon="1.19776">
        <ele>270.8</ele>
        <time>2023-08-15T06:03:04Z</time>
      </trkpt>
      <trkpt lat="43.33174" lon="1.19796">
        <ele>271.1</ele>
        <time>2023-08-15T06:03:07Z</time>
      </trkpt>
      <trkpt lat="43.33196" lon="1.1982">
        <ele>271.2</ele>
        <time>2023-08-15T06:03:11Z</time>
      </trkpt>
      <trkpt lat="43.33219" lon="1.19845">
        <ele>270.4</ele>
        <time>2023-08-15T06:03:15Z</time>
      </trkpt>
      <trkpt lat="43.33237" lon="1.19863">
        <ele>270.3</ele>
        <time>2023-08-15T06:03:18Z</time>
      </trkpt>
      <trkpt lat="43.33253" lon="1.19882">
        <ele>270.9</ele>
        <time>2023-08-15T06:03:21Z</time>
      </trkpt>
      <trkpt lat="43.33273" lon="1.19906">
        <ele>271.2</ele>
        <time>2023-08-15T06:03:25Z</time>
      </trkpt>
      <trkpt lat="43.33293" lon="1.19932">
        <ele>271.4</ele>
        <time>2023-08-15T06:03:29Z</time>
      </trkpt>
      <trkpt lat="43.33315" lon="1.19958">
        <ele>271</ele>
        <time>2023-08-15T06:03:33Z</time>
      </trkpt>
      <trkpt lat="43.33337" lon="1.19983">
        <ele>270.8</ele>
        <time>2023-08-15T06:03:37Z</time>
      </trkpt>
      <trkpt lat="43.3336" lon="1.20007">
        <ele>270.8</ele>
        <time>2023-08-15T06:03:41Z</time>
      </trkpt>
      <trkpt lat="43.33383" lon="1.20026">
        <ele>269.7</ele>
        <time>2023-08-15T06:03:45Z</time>
      </trkpt>
      <trkpt lat="43.33405" lon="1.20045">
        <ele>270.3</ele>
        <time>2023-08-15T06:03:49Z</time>
      </trkpt>
      <trkpt lat="43.33422" lon="1.20062">
        <ele>270.4</ele>
        <time>2023-08-15T06:03:53Z</time>
      </trkpt>
      <trkpt lat="43.33432" lon="1.2008">
        <ele>270.5</ele>
        <time>2023-08-15T06:03:57Z</time>
      </trkpt>
      <trkpt lat="43.33453" lon="1.2009">
        <ele>270.3</ele>
        <time>2023-08-15T06:04:01Z</time>
      </trkpt>
      <trkpt lat="43.33478" lon="1.20101">
        <ele>269.4</ele>
        <time>2023-08-15T06:04:05Z</time>
      </trkpt>
      <trkpt lat="43.33504" lon="1.2012">
        <ele>269.9</ele>
        <time>2023-08-15T06:04:09Z</time>
      </trkpt>
      <trkpt lat="43.3353" lon="1.20137">
        <ele>269.1</ele>
        <time>2023-08-15T06:04:13Z</time>
      </trkpt>
      <trkpt lat="43.33549" lon="1.20149">
        <ele>269.3</ele>
        <time>2023-08-15T06:04:16Z</time>
      </trkpt>
      <trkpt lat="43.33574" lon="1.20166">
        <ele>269.8</ele>
        <time>2023-08-15T06:04:20Z</time>
      </trkpt>
      <trkpt lat="43.33594" lon="1.20179">
        <ele>269.8</ele>
        <time>2023-08-15T06:04:23Z</time>
      </trkpt>
      <trkpt lat="43.33614" lon="1.20192">
        <ele>270</ele>
        <time>2023-08-15T06:04:26Z</time>
      </trkpt>
      <trkpt lat="43.3364" lon="1.20209">
        <ele>269.4</ele>
        <time>2023-08-15T06:04:30Z</time>
      </trkpt>
      <trkpt lat="43.33658" lon="1.20224">
        <ele>269.4</ele>
        <time>2023-08-15T06:04:33Z</time>
      </trkpt>
      <trkpt lat="43.3368" lon="1.20244">
        <ele>269.3</ele>
        <time>2023-08-15T06:04:37Z</time>
      </trkpt>
      <trkpt lat="43.33704" lon="1.20262">
        <ele>269.1</ele>
        <time>2023-08-15T06:04:41Z</time>
      </trkpt>
      <trkpt lat="43.33729" lon="1.20281">
        <ele>268.6</ele>
        <time>2023-08-15T06:04:45Z</time>
      </trkpt>
      <trkpt lat="43.33748" lon="1.20295">
        <ele>268.8</ele>
        <time>2023-08-15T06:04:48Z</time>
      </trkpt>
      <trkpt lat="43.33773" lon="1.20316">
        <ele>269</ele>
        <time>2023-08-15T06:04:52Z</time>
      </trkpt>
      <trkpt lat="43.33792" lon="1.20332">
        <ele>268.7</ele>
        <time>2023-08-15T06:04:55Z</time>
      </trkpt>
      <trkpt lat="43.33815" lon="1.20354">
        <ele>269</ele>
        <time>2023-08-15T06:04:59Z</time>
      </trkpt>
      <trkpt lat="43.33838" lon="1.20375">
        <ele>268.8</ele>
        <time>2023-08-15T06:05:03Z</time>
      </trkpt>
      <trkpt lat="43.33862" lon="1.20396">
        <ele>268.6</ele>
        <time>2023-08-15T06:05:07Z</time>
      </trkpt>
      <trkpt lat="43.33884" lon="1.20419">
        <ele>268.1</ele>
        <time>2023-08-15T06:05:11Z</time>
      </trkpt>
      <trkpt lat="43.33902" lon="1.20436">
        <ele>267.6</ele>
        <time>2023-08-15T06:05:14Z</time>
      </trkpt>
      <trkpt lat="43.33926" lon="1.20456">
        <ele>268.4</ele>
        <time>2023-08-15T06:05:18Z</time>
      </trkpt>
      <trkpt lat="43.3395" lon="1.20477">
        <ele>268.8</ele>
        <time>2023-08-15T06:05:22Z</time>
      </trkpt>
      <trkpt lat="43.33974" lon="1.20498">
        <ele>268.5</ele>
        <time>2023-08-15T06:05:26Z</time>
      </trkpt>
      <trkpt lat="43.34" lon="1.20517">
        <ele>268.7</ele>
        <time>2023-08-15T06:05:30Z</time>
      </trkpt>
      <trkpt lat="43.34018" lon="1.20531">
        <ele>268.4</ele>
        <time>2023-08-15T06:05:33Z</time>
      </trkpt>
      <trkpt lat="43.34042" lon="1.2055">
        <ele>268.3</ele>
        <time>2023-08-15T06:05:37Z</time>
      </trkpt>
      <trkpt lat="43.3406" lon="1.20565">
        <ele>267.9</ele>
        <time>2023-08-15T06:05:40Z</time>
      </trkpt>
      <trkpt lat="43.34085" lon="1.20585">
        <ele>267.6</ele>
        <time>2023-08-15T06:05:44Z</time>
      </trkpt>
      <trkpt lat="43.34109" lon="1.20604">
        <ele>267.7</ele>
        <time>2023-08-15T06:05:48Z</time>
      </trkpt>
      <trkpt lat="43.34133" lon="1.20624">
        <ele>267.4</ele>
        <time>2023-08-15T06:05:52Z</time>
      </trkpt>
      <trkpt lat="43.34157" lon="1.20644">
        <ele>267.5</ele>
        <time>2023-08-15T06:05:56Z</time>
      </trkpt>
      <trkpt lat="43.34175" lon="1.20659">
        <ele>268.2</ele>
        <time>2023-08-15T06:05:59Z</time>
      </trkpt>
      <trkpt lat="43.34199" lon="1.2068">
        <ele>268.3</ele>
        <time>2023-08-15T06:06:03Z</time>
      </trkpt>
      <trkpt lat="43.34224" lon="1.20701">
        <ele>267.6</ele>
        <time>2023-08-15T06:06:07Z</time>
      </trkpt>
      <trkpt lat="43.34243" lon="1.20717">
        <ele>267.6</ele>
        <time>2023-08-15T06:06:10Z</time>
      </trkpt>
      <trkpt lat="43.34266" lon="1.20738">
        <ele>267.7</ele>
        <time>2023-08-15T06:06:14Z</time>
      </trkpt>
      <trkpt lat="43.34284" lon="1.20754">
        <ele>267.2</ele>
        <time>2023-08-15T06:06:17Z</time>
      </trkpt>
      <trkpt lat="43.34308" lon="1.20775">
        <ele>267.3</ele>
        <time>2023-08-15T06:06:21Z</time>
      </trkpt>
      <trkpt lat="43.34326" lon="1.20791">
        <ele>267.2</ele>
        <time>2023-08-15T06:06:24Z</time>
      </trkpt>
      <trkpt lat="43.3435" lon="1.20812">
        <ele>267.9</ele>
        <time>2023-08-15T06:06:28Z</time>
      </trkpt>
      <trkpt lat="43.34367" lon="1.20827">
        <ele>267.4</ele>
        <time>2023-08-15T06:06:31Z</time>
      </trkpt>
      <trkpt lat="43.3439" lon="1.20849">
        <ele>267.1</ele>
        <time>2023-08-15T06:06:35Z</time>
      </trkpt>
      <trkpt lat="43.34408" lon="1.20865">
        <ele>266.9</ele>
        <time>2023-08-15T06:06:38Z</time>
      </trkpt>
      <trkpt lat="43.34433" lon="1.20887">
        <ele>266.9</ele>
        <time>2023-08-15T06:06:42Z</time>
      </trkpt>
      <trkpt lat="43.34455" lon="1.20908">
        <ele>266.5</ele>
        <time>2023-08-15T06:06:46Z</time>
      </trkpt>
      <trkpt lat="43.34473" lon="1.20924">
        <ele>266.6</ele>
        <time>2023-08-15T06:06:49Z</time>
      </trkpt>
      <trkpt lat="43.34496" lon="1.20945">
        <ele>266.4</ele>
        <time>2023-08-15T06:06:53Z</time>
      </trkpt>
      <trkpt lat="43.3452" lon="1.20966">
        <ele>266.5</ele>
        <time>2023-08-15T06:06:57Z</time>
      </trkpt>
      <trkpt lat="43.34545" lon="1.20987">
        <ele>266.4</ele>
        <time>2023-08-15T06:07:01Z</time>
      </trkpt>
      <trkpt lat="43.34562" lon="1.21003">
        <ele>266.1</ele>
        <time>2023-08-15T06:07:04Z</time>
      </trkpt>
      <trkpt lat="43.34585" lon="1.21024">
        <ele>265.5</ele>
        <time>2023-08-15T06:07:08Z</time>
      </trkpt>
      <trkpt lat="43.3461" lon="1.21045">
        <ele>265.4</ele>
        <time>2023-08-15T06:07:12Z</time>
      </trkpt>
      <trkpt lat="43.34626" lon="1.21061">
        <ele>265.5</ele>
        <time>2023-08-15T06:07:15Z</time>
      </trkpt>
      <trkpt lat="43.3465" lon="1.21083">
        <ele>265.2</ele>
        <time>2023-08-15T06:07:19Z</time>
      </trkpt>
      <trkpt lat="43.34674" lon="1.21104">
        <ele>265.1</ele>
        <time>2023-08-15T06:07:23Z</time>
      </trkpt>
      <trkpt lat="43.34699" lon="1.21126">
        <ele>265.2</ele>
        <time>2023-08-15T06:07:27Z</time>
      </trkpt>
      <trkpt lat="43.34722" lon="1.21147">
        <ele>264.7</ele>
        <time>2023-08-15T06:07:31Z</time>
      </trkpt>
      <trkpt lat="43.34741" lon="1.21163">
        <ele>265.2</ele>
        <time>2023-08-15T06:07:34Z</time>
      </trkpt>
      <trkpt lat="43.34765" lon="1.21184">
        <ele>264.8</ele>
        <time>2023-08-15T06:07:38Z</time>
      </trkpt>
      <trkpt lat="43.34782" lon="1.212">
        <ele>265</ele>
        <time>2023-08-15T06:07:41Z</time>
      </trkpt>
      <trkpt lat="43.34805" lon="1.21222">
        <ele>265.8</ele>
        <time>2023-08-15T06:07:45Z</time>
      </trkpt>
      <trkpt lat="43.3483" lon="1.21244">
        <ele>264.9</ele>
        <time>2023-08-15T06:07:49Z</time>
      </trkpt>
      <trkpt lat="43.34855" lon="1.21263">
        <ele>265.1</ele>
        <time>2023-08-15T06:07:53Z</time>
      </trkpt>
      <trkpt lat="43.3488" lon="1.21281">
        <ele>264.7</ele>
        <time>2023-08-15T06:07:57Z</time>
      </trkpt>
      <trkpt lat="43.34905" lon="1.21295">
        <ele>264.9</ele>
        <time>2023-08-15T06:08:01Z</time>
      </trkpt>
      <trkpt lat="43.34923" lon="1.21307">
        <ele>264.7</ele>
        <time>2023-08-15T06:08:04Z</time>
      </trkpt>
      <trkpt lat="43.34946" lon="1.21325">
        <ele>264.3</ele>
        <time>2023-08-15T06:08:08Z</time>
      </trkpt>
      <trkpt lat="43.34966" lon="1.21339">
        <ele>264.5</ele>
        <time>2023-08-15T06:08:11Z</time>
      </trkpt>
      <trkpt lat="43.34993" lon="1.21356">
        <ele>264.6</ele>
        <time>2023-08-15T06:08:15Z</time>
      </trkpt>
      <trkpt lat="43.3502" lon="1.2137">
        <ele>264.4</ele>
        <time>2023-08-15T06:08:19Z</time>
      </trkpt>
      <trkpt lat="43.35041" lon="1.21378">
        <ele>265</ele>
        <time>2023-08-15T06:08:22Z</time>
      </trkpt>
      <trkpt lat="43.35061" lon="1.21388">
        <ele>264.3</ele>
        <time>2023-08-15T06:08:25Z</time>
      </trkpt>
      <trkpt lat="43.35086" lon="1.214">
        <ele>263.9</ele>
        <time>2023-08-15T06:08:29Z</time>
      </trkpt>
      <trkpt lat="43.35107" lon="1.2141">
        <ele>264</ele>
        <time>2023-08-15T06:08:32Z</time>
      </trkpt>
      <trkpt lat="43.35133" lon="1.21425">
        <ele>263.7</ele>
        <time>2023-08-15T06:08:36Z</time>
      </trkpt>
      <trkpt lat="43.35159" lon="1.21443">
        <ele>263.6</ele>
        <time>2023-08-15T06:08:40Z</time>
      </trkpt>
      <trkpt lat="43.35177" lon="1.21458">
        <ele>264.1</ele>
        <time>2023-08-15T06:08:43Z</time>
      </trkpt>
      <trkpt lat="43.35194" lon="1.21476">
        <ele>263.6</ele>
        <time>2023-08-15T06:08:46Z</time>
      </trkpt>
      <trkpt lat="43.35215" lon="1.21501">
        <ele>263.6</ele>
        <time>2023-08-15T06:08:50Z</time>
      </trkpt>
      <trkpt lat="43.35231" lon="1.21521">
        <ele>263.6</ele>
        <time>2023-08-15T06:08:53Z</time>
      </trkpt>
      <trkpt lat="43.35252" lon="1.21549">
        <ele>263.3</ele>
        <time>2023-08-15T06:08:57Z</time>
      </trkpt>
      <trkpt lat="43.35273" lon="1.21575">
        <ele>263.2</ele>
        <time>2023-08-15T06:09:01Z</time>
      </trkpt>
      <trkpt lat="43.35288" lon="1.21595">
        <ele>263.4</ele>
        <time>2023-08-15T06:09:04Z</time>
      </trkpt>
      <trkpt lat="43.35303" lon="1.21615">
        <ele>263.5</ele>
        <time>2023-08-15T06:09:07Z</time>
      </trkpt>
      <trkpt lat="43.35318" lon="1.21635">
        <ele>263.5</ele>
        <time>2023-08-15T06:09:10Z</time>
      </trkpt>
      <trkpt lat="43.35338" lon="1.21662">
        <ele>263.6</ele>
        <time>2023-08-15T06:09:14Z</time>
      </trkpt>
      <trkpt lat="43.35354" lon="1.21683">
        <ele>263.6</ele>
        <time>2023-08-15T06:09:17Z</time>
      </trkpt>
      <trkpt lat="43.3537" lon="1.21703">
        <ele>263.8</ele>
        <time>2023-08-15T06:09:20Z</time>
      </trkpt>
      <trkpt lat="43.35389" lon="1.21729">
        <ele>263.6</ele>
        <time>2023-08-15T06:09:24Z</time>
      </trkpt>
      <trkpt lat="43.35409" lon="1.21756">
        <ele>263.7</ele>
        <time>2023-08-15T06:09:28Z</time>
      </trkpt>
      <trkpt lat="43.3543" lon="1.21782">
        <ele>263.8</ele>
        <time>2023-08-15T06:09:32Z</time>
      </trkpt>
      <trkpt lat="43.35447" lon="1.218">
        <ele>263.2</ele>
        <time>2023-08-15T06:09:35Z</time>
      </trkpt>
      <trkpt lat="43.35465" lon="1.21816">
        <ele>263.2</ele>
        <time>2023-08-15T06:09:38Z</time>
      </trkpt>
      <trkpt lat="43.3549" lon="1.21837">
        <ele>263.3</ele>
        <time>2023-08-15T06:09:42Z</time>
      </trkpt>
      <trkpt lat="43.35509" lon="1.21851">
        <ele>263.2</ele>
        <time>2023-08-15T06:09:45Z</time>
      </trkpt>
      <trkpt lat="43.35528" lon="1.21865">
        <ele>263.5</ele>
        <time>2023-08-15T06:09:48Z</time>
      </trkpt>
      <trkpt lat="43.35553" lon="1.21884">
        <ele>263.2</ele>
        <time>2023-08-15T06:09:52Z</time>
      </trkpt>
      <trkpt lat="43.35571" lon="1.21898">
        <ele>263.3</ele>
        <time>2023-08-15T06:09:55Z</time>
      </trkpt>
      <trkpt lat="43.35596" lon="1.21917">
        <ele>262.9</ele>
        <time>2023-08-15T06:09:59Z</time>
      </trkpt>
      <trkpt lat="43.35614" lon="1.21933">
        <ele>262.6</ele>
        <time>2023-08-15T06:10:02Z</time>
      </trkpt>
      <trkpt lat="43.35636" lon="1.21956">
        <ele>262.8</ele>
        <time>2023-08-15T06:10:06Z</time>
      </trkpt>
      <trkpt lat="43.35659" lon="1.21979">
        <ele>262.4</ele>
        <time>2023-08-15T06:10:10Z</time>
      </trkpt>
      <trkpt lat="43.35676" lon="1.21996">
        <ele>262.3</ele>
        <time>2023-08-15T06:10:13Z</time>
      </trkpt>
      <trkpt lat="43.35695" lon="1.22022">
        <ele>262.3</ele>
        <time>2023-08-15T06:10:17Z</time>
      </trkpt>
      <trkpt lat="43.35705" lon="1.22044">
        <ele>262.3</ele>
        <time>2023-08-15T06:10:20Z</time>
      </trkpt>
      <trkpt lat="43.35721" lon="1.22072">
        <ele>262.2</ele>
        <time>2023-08-15T06:10:24Z</time>
      </trkpt>
      <trkpt lat="43.3573" lon="1.22087">
        <ele>262.1</ele>
        <time>2023-08-15T06:10:27Z</time>
      </trkpt>
      <trkpt lat="43.35742" lon="1.22092">
        <ele>262.2</ele>
        <time>2023-08-15T06:10:30Z</time>
      </trkpt>
      <trkpt lat="43.35759" lon="1.22084">
        <ele>262.1</ele>
        <time>2023-08-15T06:10:34Z</time>
      </trkpt>
      <trkpt lat="43.35774" lon="1.22094">
        <ele>262</ele>
        <time>2023-08-15T06:10:38Z</time>
      </trkpt>
      <trkpt lat="43.35789" lon="1.22129">
        <ele>262</ele>
        <time>2023-08-15T06:10:42Z</time>
      </trkpt>
      <trkpt lat="43.35813" lon="1.22156">
        <ele>262.1</ele>
        <time>2023-08-15T06:10:46Z</time>
      </trkpt>
      <trkpt lat="43.35838" lon="1.22178">
        <ele>261.9</ele>
        <time>2023-08-15T06:10:50Z</time>
      </trkpt>
      <trkpt lat="43.35854" lon="1.22195">
        <ele>262</ele>
        <time>2023-08-15T06:10:53Z</time>
      </trkpt>
      <trkpt lat="43.35877" lon="1.22218">
        <ele>261.4</ele>
        <time>2023-08-15T06:10:57Z</time>
      </trkpt>
      <trkpt lat="43.35895" lon="1.22236">
        <ele>261.5</ele>
        <time>2023-08-15T06:11:00Z</time>
      </trkpt>
      <trkpt lat="43.35916" lon="1.2226">
        <ele>261.6</ele>
        <time>2023-08-15T06:11:04Z</time>
      </trkpt>
      <trkpt lat="43.35932" lon="1.22279">
        <ele>261.5</ele>
        <time>2023-08-15T06:11:07Z</time>
      </trkpt>
      <trkpt lat="43.35954" lon="1.22303">
        <ele>261.8</ele>
        <time>2023-08-15T06:11:11Z</time>
      </trkpt>
      <trkpt lat="43.35977" lon="1.22326">
        <ele>261.4</ele>
        <time>2023-08-15T06:11:15Z</time>
      </trkpt>
      <trkpt lat="43.35994" lon="1.22345">
        <ele>261.5</ele>
        <time>2023-08-15T06:11:18Z</time>
      </trkpt>
      <trkpt lat="43.36015" lon="1.22371">
        <ele>261.8</ele>
        <time>2023-08-15T06:11:22Z</time>
      </trkpt>
      <trkpt lat="43.3603" lon="1.22391">
        <ele>261.3</ele>
        <time>2023-08-15T06:11:25Z</time>
      </trkpt>
      <trkpt lat="43.36046" lon="1.22411">
        <ele>261.4</ele>
        <time>2023-08-15T06:11:28Z</time>
      </trkpt>
      <trkpt lat="43.36062" lon="1.2243">
        <ele>261</ele>
        <time>2023-08-15T06:11:31Z</time>
      </trkpt>
      <trkpt lat="43.36083" lon="1.22456">
        <ele>260.9</ele>
        <time>2023-08-15T06:11:35Z</time>
      </trkpt>
      <trkpt lat="43.36103" lon="1.22482">
        <ele>261.8</ele>
        <time>2023-08-15T06:11:39Z</time>
      </trkpt>
      <trkpt lat="43.36124" lon="1.22508">
        <ele>261.2</ele>
        <time>2023-08-15T06:11:43Z</time>
      </trkpt>
      <trkpt lat="43.36146" lon="1.22534">
        <ele>261.7</ele>
        <time>2023-08-15T06:11:47Z</time>
      </trkpt>
      <trkpt lat="43.36168" lon="1.2256">
        <ele>261.8</ele>
        <time>2023-08-15T06:11:51Z</time>
      </trkpt>
      <trkpt lat="43.36183" lon="1.22579">
        <ele>261.6</ele>
        <time>2023-08-15T06:11:54Z</time>
      </trkpt>
      <trkpt lat="43.36203" lon="1.22606">
        <ele>261.3</ele>
        <time>2023-08-15T06:11:58Z</time>
      </trkpt>
      <trkpt lat="43.36219" lon="1.22625">
        <ele>261.2</ele>
        <time>2023-08-15T06:12:01Z</time>
      </trkpt>
      <trkpt lat="43.3624" lon="1.22651">
        <ele>261.6</ele>
        <time>2023-08-15T06:12:05Z</time>
      </trkpt>
      <trkpt lat="43.36257" lon="1.22671">
        <ele>261.5</ele>
        <time>2023-08-15T06:12:08Z</time>
      </trkpt>
      <trkpt lat="43.36279" lon="1.22696">
        <ele>261</ele>
        <time>2023-08-15T06:12:12Z</time>
      </trkpt>
      <trkpt lat="43.36295" lon="1.22715">
        <ele>261.2</ele>
        <time>2023-08-15T06:12:15Z</time>
      </trkpt>
      <trkpt lat="43.36312" lon="1.22734">
        <ele>261.2</ele>
        <time>2023-08-15T06:12:18Z</time>
      </trkpt>
      <trkpt lat="43.36334" lon="1.22758">
        <ele>260.8</ele>
        <time>2023-08-15T06:12:22Z</time>
      </trkpt>
      <trkpt lat="43.3635" lon="1.22775">
        <ele>260.6</ele>
        <time>2023-08-15T06:12:25Z</time>
      </trkpt>
      <trkpt lat="43.36374" lon="1.22796">
        <ele>260.3</ele>
        <time>2023-08-15T06:12:29Z</time>
      </trkpt>
      <trkpt lat="43.36397" lon="1.22819">
        <ele>260.3</ele>
        <time>2023-08-15T06:12:33Z</time>
      </trkpt>
      <trkpt lat="43.36414" lon="1.22836">
        <ele>260.1</ele>
        <time>2023-08-15T06:12:36Z</time>
      </trkpt>
      <trkpt lat="43.36435" lon="1.22862">
        <ele>260.3</ele>
        <time>2023-08-15T06:12:40Z</time>
      </trkpt>
      <trkpt lat="43.3645" lon="1.22882">
        <ele>260.3</ele>
        <time>2023-08-15T06:12:43Z</time>
      </trkpt>
      <trkpt lat="43.36471" lon="1.2291">
        <ele>260.5</ele>
        <time>2023-08-15T06:12:47Z</time>
      </trkpt>
      <trkpt lat="43.36491" lon="1.22937">
        <ele>260.1</ele>
        <time>2023-08-15T06:12:51Z</time>
      </trkpt>
      <trkpt lat="43.36507" lon="1.22958">
        <ele>260</ele>
        <time>2023-08-15T06:12:54Z</time>
      </trkpt>
      <trkpt lat="43.36527" lon="1.22984">
        <ele>259.8</ele>
        <time>2023-08-15T06:12:58Z</time>
      </trkpt>
      <trkpt lat="43.36547" lon="1.2301">
        <ele>259.7</ele>
        <time>2023-08-15T06:13:02Z</time>
      </trkpt>
      <trkpt lat="43.36564" lon="1.23029">
        <ele>260</ele>
        <time>2023-08-15T06:13:05Z</time>
      </trkpt>
      <trkpt lat="43.36586" lon="1.23053">
        <ele>259.8</ele>
        <time>2023-08-15T06:13:09Z</time>
      </trkpt>
      <trkpt lat="43.3661" lon="1.23076">
        <ele>259.6</ele>
        <time>2023-08-15T06:13:13Z</time>
      </trkpt>
      <trkpt lat="43.36627" lon="1.23094">
        <ele>259.6</ele>
        <time>2023-08-15T06:13:16Z</time>
      </trkpt>
      <trkpt lat="43.36649" lon="1.23118">
        <ele>259.3</ele>
        <time>2023-08-15T06:13:20Z</time>
      </trkpt>
      <trkpt lat="43.36665" lon="1.23136">
        <ele>259.1</ele>
        <time>2023-08-15T06:13:23Z</time>
      </trkpt>
      <trkpt lat="43.36687" lon="1.23161">
        <ele>258.7</ele>
        <time>2023-08-15T06:13:27Z</time>
      </trkpt>
      <trkpt lat="43.36703" lon="1.23181">
        <ele>259.1</ele>
        <time>2023-08-15T06:13:30Z</time>
      </trkpt>
      <trkpt lat="43.36721" lon="1.2321">
        <ele>258.9</ele>
        <time>2023-08-15T06:13:34Z</time>
      </trkpt>
      <trkpt lat="43.36734" lon="1.23231">
        <ele>258.5</ele>
        <time>2023-08-15T06:13:37Z</time>
      </trkpt>
      <trkpt lat="43.36753" lon="1.2326">
        <ele>258.8</ele>
        <time>2023-08-15T06:13:41Z</time>
      </trkpt>
      <trkpt lat="43.36766" lon="1.23284">
        <ele>258.5</ele>
        <time>2023-08-15T06:13:44Z</time>
      </trkpt>
      <trkpt lat="43.36782" lon="1.23317">
        <ele>258.7</ele>
        <time>2023-08-15T06:13:48Z</time>
      </trkpt>
      <trkpt lat="43.3679" lon="1.23344">
        <ele>258.6</ele>
        <time>2023-08-15T06:13:51Z</time>
      </trkpt>
      <trkpt lat="43.36801" lon="1.23379">
        <ele>258.3</ele>
        <time>2023-08-15T06:13:55Z</time>
      </trkpt>
      <trkpt lat="43.36815" lon="1.23415">
        <ele>258.3</ele>
        <time>2023-08-15T06:13:59Z</time>
      </trkpt>
      <trkpt lat="43.3683" lon="1.23447">
        <ele>258.4</ele>
        <time>2023-08-15T06:14:03Z</time>
      </trkpt>
      <trkpt lat="43.36841" lon="1.2347">
        <ele>258.7</ele>
        <time>2023-08-15T06:14:06Z</time>
      </trkpt>
      <trkpt lat="43.36861" lon="1.23499">
        <ele>258.8</ele>
        <time>2023-08-15T06:14:10Z</time>
      </trkpt>
      <trkpt lat="43.36881" lon="1.23527">
        <ele>258.3</ele>
        <time>2023-08-15T06:14:14Z</time>
      </trkpt>
      <trkpt lat="43.36896" lon="1.23548">
        <ele>258.6</ele>
        <time>2023-08-15T06:14:17Z</time>
      </trkpt>
      <trkpt lat="43.36915" lon="1.23577">
        <ele>258</ele>
        <time>2023-08-15T06:14:21Z</time>
      </trkpt>
      <trkpt lat="43.36934" lon="1.23607">
        <ele>257.7</ele>
        <time>2023-08-15T06:14:25Z</time>
      </trkpt>
      <trkpt lat="43.36954" lon="1.23635">
        <ele>257.8</ele>
        <time>2023-08-15T06:14:29Z</time>
      </trkpt>
      <trkpt lat="43.36967" lon="1.23656">
        <ele>258</ele>
        <time>2023-08-15T06:14:32Z</time>
      </trkpt>
      <trkpt lat="43.36987" lon="1.23683">
        <ele>258</ele>
        <time>2023-08-15T06:14:36Z</time>
      </trkpt>
      <trkpt lat="43.37003" lon="1.23703">
        <ele>258</ele>
        <time>2023-08-15T06:14:39Z</time>
      </trkpt>
      <trkpt lat="43.37025" lon="1.23728">
        <ele>258.5</ele>
        <time>2023-08-15T06:14:43Z</time>
      </trkpt>
      <trkpt lat="43.37046" lon="1.23751">
        <ele>257.8</ele>
        <time>2023-08-15T06:14:47Z</time>
      </trkpt>
      <trkpt lat="43.37068" lon="1.23776">
        <ele>257.6</ele>
        <time>2023-08-15T06:14:51Z</time>
      </trkpt>
      <trkpt lat="43.37083" lon="1.23796">
        <ele>257.1</ele>
        <time>2023-08-15T06:14:54Z</time>
      </trkpt>
      <trkpt lat="43.37106" lon="1.23819">
        <ele>257.5</ele>
        <time>2023-08-15T06:14:58Z</time>
      </trkpt>
      <trkpt lat="43.37124" lon="1.23835">
        <ele>257.6</ele>
        <time>2023-08-15T06:15:01Z</time>
      </trkpt>
      <trkpt lat="43.37149" lon="1.23856">
        <ele>257.5</ele>
        <time>2023-08-15T06:15:05Z</time>
      </trkpt>
      <trkpt lat="43.37174" lon="1.23877">
        <ele>258.2</ele>
        <time>2023-08-15T06:15:09Z</time>
      </trkpt>
      <trkpt lat="43.37198" lon="1.23897">
        <ele>257.5</ele>
        <time>2023-08-15T06:15:13Z</time>
      </trkpt>
      <trkpt lat="43.37221" lon="1.23919">
        <ele>257.5</ele>
        <time>2023-08-15T06:15:17Z</time>
      </trkpt>
      <trkpt lat="43.37245" lon="1.2394">
        <ele>257.6</ele>
        <time>2023-08-15T06:15:21Z</time>
      </trkpt>
      <trkpt lat="43.3727" lon="1.23958">
        <ele>257.2</ele>
        <time>2023-08-15T06:15:25Z</time>
      </trkpt>
      <trkpt lat="43.37289" lon="1.2397">
        <ele>257.3</ele>
        <time>2023-08-15T06:15:28Z</time>
      </trkpt>
      <trkpt lat="43.37314" lon="1.23988">
        <ele>257.6</ele>
        <time>2023-08-15T06:15:32Z</time>
      </trkpt>
      <trkpt lat="43.37334" lon="1.24001">
        <ele>258</ele>
        <time>2023-08-15T06:15:35Z</time>
      </trkpt>
      <trkpt lat="43.37359" lon="1.24017">
        <ele>257.6</ele>
        <time>2023-08-15T06:15:39Z</time>
      </trkpt>
      <trkpt lat="43.37378" lon="1.2403">
        <ele>257.4</ele>
        <time>2023-08-15T06:15:42Z</time>
      </trkpt>
      <trkpt lat="43.37396" lon="1.24044">
        <ele>257.3</ele>
        <time>2023-08-15T06:15:45Z</time>
      </trkpt>
      <trkpt lat="43.37421" lon="1.24064">
        <ele>257.5</ele>
        <time>2023-08-15T06:15:49Z</time>
      </trkpt>
      <trkpt lat="43.37445" lon="1.24084">
        <ele>256.7</ele>
        <time>2023-08-15T06:15:53Z</time>
      </trkpt>
      <trkpt lat="43.37465" lon="1.24099">
        <ele>256.8</ele>
        <time>2023-08-15T06:15:56Z</time>
      </trkpt>
      <trkpt lat="43.37489" lon="1.24119">
        <ele>257.4</ele>
        <time>2023-08-15T06:16:00Z</time>
      </trkpt>
      <trkpt lat="43.37506" lon="1.24136">
        <ele>256.8</ele>
        <time>2023-08-15T06:16:03Z</time>
      </trkpt>
      <trkpt lat="43.37524" lon="1.2415">
        <ele>256.5</ele>
        <time>2023-08-15T06:16:06Z</time>
      </trkpt>
      <trkpt lat="43.37549" lon="1.24172">
        <ele>256.6</ele>
        <time>2023-08-15T06:16:10Z</time>
      </trkpt>
      <trkpt lat="43.37574" lon="1.2419">
        <ele>256.4</ele>
        <time>2023-08-15T06:16:14Z</time>
      </trkpt>
      <trkpt lat="43.37592" lon="1.24202">
        <ele>255.9</ele>
        <time>2023-08-15T06:16:17Z</time>
      </trkpt>
      <trkpt lat="43.37618" lon="1.24216">
        <ele>256.1</ele>
        <time>2023-08-15T06:16:21Z</time>
      </trkpt>
      <trkpt lat="43.37638" lon="1.24227">
        <ele>256.6</ele>
        <time>2023-08-15T06:16:24Z</time>
      </trkpt>
      <trkpt lat="43.37658" lon="1.24238">
        <ele>256.9</ele>
        <time>2023-08-15T06:16:27Z</time>
      </trkpt>
      <trkpt lat="43.37684" lon="1.24252">
        <ele>256.6</ele>
        <time>2023-08-15T06:16:31Z</time>
      </trkpt>
      <trkpt lat="43.37704" lon="1.24262">
        <ele>256.5</ele>
        <time>2023-08-15T06:16:34Z</time>
      </trkpt>
      <trkpt lat="43.37733" lon="1.24272">
        <ele>256.3</ele>
        <time>2023-08-15T06:16:38Z</time>
      </trkpt>
      <trkpt lat="43.37754" lon="1.2428">
        <ele>256.1</ele>
        <time>2023-08-15T06:16:41Z</time>
      </trkpt>
      <trkpt lat="43.3778" lon="1.24292">
        <ele>255.6</ele>
        <time>2023-08-15T06:16:45Z</time>
      </trkpt>
      <trkpt lat="43.37807" lon="1.24307">
        <ele>255.6</ele>
        <time>2023-08-15T06:16:49Z</time>
      </trkpt>
      <trkpt lat="43.37825" lon="1.24321">
        <ele>256</ele>
        <time>2023-08-15T06:16:52Z</time>
      </trkpt>
      <trkpt lat="43.37848" lon="1.24344">
        <ele>256.4</ele>
        <time>2023-08-15T06:16:56Z</time>
      </trkpt>
      <trkpt lat="43.37869" lon="1.2437">
        <ele>256.1</ele>
        <time>2023-08-15T06:17:00Z</time>
      </trkpt>
      <trkpt lat="43.37891" lon="1.24395">
        <ele>256</ele>
        <time>2023-08-15T06:17:04Z</time>
      </trkpt>
      <trkpt lat="43.37913" lon="1.24419">
        <ele>255.6</ele>
        <time>2023-08-15T06:17:08Z</time>
      </trkpt>
      <trkpt lat="43.37936" lon="1.24442">
        <ele>255.3</ele>
        <time>2023-08-15T06:17:12Z</time>
      </trkpt>
      <trkpt lat="43.37956" lon="1.24454">
        <ele>255.2</ele>
        <time>2023-08-15T06:17:15Z</time>
      </trkpt>
      <trkpt lat="43.37983" lon="1.24466">
        <ele>255.2</ele>
        <time>2023-08-15T06:17:19Z</time>
      </trkpt>
      <trkpt lat="43.38003" lon="1.24473">
        <ele>255.6</ele>
        <time>2023-08-15T06:17:22Z</time>
      </trkpt>
      <trkpt lat="43.38031" lon="1.24483">
        <ele>255.3</ele>
        <time>2023-08-15T06:17:26Z</time>
      </trkpt>
      <trkpt lat="43.38051" lon="1.24493">
        <ele>255.2</ele>
        <time>2023-08-15T06:17:29Z</time>
      </trkpt>
      <trkpt lat="43.38071" lon="1.24503">
        <ele>255</ele>
        <time>2023-08-15T06:17:32Z</time>
      </trkpt>
      <trkpt lat="43.38091" lon="1.24514">
        <ele>254.7</ele>
        <time>2023-08-15T06:17:35Z</time>
      </trkpt>
      <trkpt lat="43.3811" lon="1.24524">
        <ele>254.6</ele>
        <time>2023-08-15T06:17:38Z</time>
      </trkpt>
      <trkpt lat="43.38138" lon="1.24538">
        <ele>254</ele>
        <time>2023-08-15T06:17:42Z</time>
      </trkpt>
      <trkpt lat="43.38158" lon="1.24548">
        <ele>253.7</ele>
        <time>2023-08-15T06:17:45Z</time>
      </trkpt>
      <trkpt lat="43.38177" lon="1.24558">
        <ele>254.1</ele>
        <time>2023-08-15T06:17:48Z</time>
      </trkpt>
      <trkpt lat="43.38203" lon="1.24572">
        <ele>254.7</ele>
        <time>2023-08-15T06:17:52Z</time>
      </trkpt>
      <trkpt lat="43.3823" lon="1.24587">
        <ele>254.2</ele>
        <time>2023-08-15T06:17:56Z</time>
      </trkpt>
      <trkpt lat="43.38249" lon="1.24599">
        <ele>253.9</ele>
        <time>2023-08-15T06:17:59Z</time>
      </trkpt>
      <trkpt lat="43.38274" lon="1.24614">
        <ele>254</ele>
        <time>2023-08-15T06:18:03Z</time>
      </trkpt>
      <trkpt lat="43.38294" lon="1.24626">
        <ele>253.4</ele>
        <time>2023-08-15T06:18:06Z</time>
      </trkpt>
      <trkpt lat="43.38312" lon="1.24639">
        <ele>253.6</ele>
        <time>2023-08-15T06:18:09Z</time>
      </trkpt>
      <trkpt lat="43.38336" lon="1.2466">
        <ele>253.5</ele>
        <time>2023-08-15T06:18:13Z</time>
      </trkpt>
      <trkpt lat="43.3836" lon="1.24683">
        <ele>253.7</ele>
        <time>2023-08-15T06:18:17Z</time>
      </trkpt>
      <trkpt lat="43.38377" lon="1.24699">
        <ele>253.8</ele>
        <time>2023-08-15T06:18:20Z</time>
      </trkpt>
      <trkpt lat="43.384" lon="1.24721">
        <ele>253.6</ele>
        <time>2023-08-15T06:18:24Z</time>
      </trkpt>
      <trkpt lat="43.38424" lon="1.24742">
        <ele>253.3</ele>
        <time>2023-08-15T06:18:28Z</time>
      </trkpt>
      <trkpt lat="43.38449" lon="1.24761">
        <ele>253.5</ele>
        <time>2023-08-15T06:18:32Z</time>
      </trkpt>
      <trkpt lat="43.38467" lon="1.24776">
        <ele>253.3</ele>
        <time>2023-08-15T06:18:35Z</time>
      </trkpt>
      <trkpt lat="43.38485" lon="1.24792">
        <ele>252.9</ele>
        <time>2023-08-15T06:18:38Z</time>
      </trkpt>
      <trkpt lat="43.38509" lon="1.24812">
        <ele>252.6</ele>
        <time>2023-08-15T06:18:42Z</time>
      </trkpt>
      <trkpt lat="43.38534" lon="1.24832">
        <ele>252.6</ele>
        <time>2023-08-15T06:18:46Z</time>
      </trkpt>
      <trkpt lat="43.38558" lon="1.24852">
        <ele>253.1</ele>
        <time>2023-08-15T06:18:50Z</time>
      </trkpt>
      <trkpt lat="43.38582" lon="1.24872">
        <ele>252.5</ele>
        <time>2023-08-15T06:18:54Z</time>
      </trkpt>
      <trkpt lat="43.386" lon="1.24885">
        <ele>252.1</ele>
        <time>2023-08-15T06:18:57Z</time>
      </trkpt>
      <trkpt lat="43.38626" lon="1.24901">
        <ele>252.5</ele>
        <time>2023-08-15T06:19:01Z</time>
      </trkpt>
      <trkpt lat="43.38647" lon="1.2491">
        <ele>252.2</ele>
        <time>2023-08-15T06:19:04Z</time>
      </trkpt>
      <trkpt lat="43.38675" lon="1.24919">
        <ele>252.6</ele>
        <time>2023-08-15T06:19:08Z</time>
      </trkpt>
      <trkpt lat="43.38703" lon="1.24927">
        <ele>252.4</ele>
        <time>2023-08-15T06:19:12Z</time>
      </trkpt>
      <trkpt lat="43.38724" lon="1.2493">
        <ele>252.8</ele>
        <time>2023-08-15T06:19:15Z</time>
      </trkpt>
      <trkpt lat="43.38752" lon="1.24933">
        <ele>253.1</ele>
        <time>2023-08-15T06:19:19Z</time>
      </trkpt>
      <trkpt lat="43.38773" lon="1.24937">
        <ele>252.6</ele>
        <time>2023-08-15T06:19:22Z</time>
      </trkpt>
      <trkpt lat="43.38795" lon="1.24942">
        <ele>252.7</ele>
        <time>2023-08-15T06:19:25Z</time>
      </trkpt>
      <trkpt lat="43.38823" lon="1.24951">
        <ele>253.4</ele>
        <time>2023-08-15T06:19:29Z</time>
      </trkpt>
      <trkpt lat="43.38849" lon="1.24964">
        <ele>252.4</ele>
        <time>2023-08-15T06:19:33Z</time>
      </trkpt>
      <trkpt lat="43.3887" lon="1.24976">
        <ele>251.7</ele>
        <time>2023-08-15T06:19:36Z</time>
      </trkpt>
      <trkpt lat="43.38889" lon="1.24987">
        <ele>251</ele>
        <time>2023-08-15T06:19:39Z</time>
      </trkpt>
      <trkpt lat="43.38906" lon="1.24997">
        <ele>251.1</ele>
        <time>2023-08-15T06:19:42Z</time>
      </trkpt>
      <trkpt lat="43.38919" lon="1.25011">
        <ele>251.7</ele>
        <time>2023-08-15T06:19:45Z</time>
      </trkpt>
      <trkpt lat="43.3894" lon="1.25028">
        <ele>251.7</ele>
        <time>2023-08-15T06:19:49Z</time>
      </trkpt>
      <trkpt lat="43.38962" lon="1.25045">
        <ele>251.3</ele>
        <time>2023-08-15T06:19:53Z</time>
      </trkpt>
      <trkpt lat="43.3898" lon="1.25062">
        <ele>251.5</ele>
        <time>2023-08-15T06:19:57Z</time>
      </trkpt>
      <trkpt lat="43.38994" lon="1.25077">
        <ele>251.1</ele>
        <time>2023-08-15T06:20:00Z</time>
      </trkpt>
      <trkpt lat="43.39009" lon="1.25095">
        <ele>251.3</ele>
        <time>2023-08-15T06:20:03Z</time>
      </trkpt>
      <trkpt lat="43.3903" lon="1.25123">
        <ele>251.6</ele>
        <time>2023-08-15T06:20:07Z</time>
      </trkpt>
      <trkpt lat="43.3905" lon="1.25153">
        <ele>252.1</ele>
        <time>2023-08-15T06:20:11Z</time>
      </trkpt>
      <trkpt lat="43.39067" lon="1.25184">
        <ele>252.2</ele>
        <time>2023-08-15T06:20:15Z</time>
      </trkpt>
      <trkpt lat="43.39082" lon="1.25214">
        <ele>252.7</ele>
        <time>2023-08-15T06:20:19Z</time>
      </trkpt>
      <trkpt lat="43.3909" lon="1.25236">
        <ele>252.4</ele>
        <time>2023-08-15T06:20:22Z</time>
      </trkpt>
      <trkpt lat="43.391" lon="1.25268">
        <ele>252.4</ele>
        <time>2023-08-15T06:20:26Z</time>
      </trkpt>
      <trkpt lat="43.39111" lon="1.25306">
        <ele>252.1</ele>
        <time>2023-08-15T06:20:30Z</time>
      </trkpt>
      <trkpt lat="43.39121" lon="1.25343">
        <ele>252</ele>
        <time>2023-08-15T06:20:34Z</time>
      </trkpt>
      <trkpt lat="43.3913" lon="1.2537">
        <ele>251.6</ele>
        <time>2023-08-15T06:20:37Z</time>
      </trkpt>
      <trkpt lat="43.3914" lon="1.25406">
        <ele>251.7</ele>
        <time>2023-08-15T06:20:41Z</time>
      </trkpt>
      <trkpt lat="43.39147" lon="1.25429">
        <ele>251.9</ele>
        <time>2023-08-15T06:20:44Z</time>
      </trkpt>
      <trkpt lat="43.39153" lon="1.25447">
        <ele>252</ele>
        <time>2023-08-15T06:20:48Z</time>
      </trkpt>
      <trkpt lat="43.39158" lon="1.25465">
        <ele>251.8</ele>
        <time>2023-08-15T06:20:51Z</time>
      </trkpt>
      <trkpt lat="43.39169" lon="1.25491">
        <ele>250.6</ele>
        <time>2023-08-15T06:20:55Z</time>
      </trkpt>
      <trkpt lat="43.39178" lon="1.25512">
        <ele>250.6</ele>
        <time>2023-08-15T06:20:58Z</time>
      </trkpt>
      <trkpt lat="43.39188" lon="1.25542">
        <ele>250.6</ele>
        <time>2023-08-15T06:21:02Z</time>
      </trkpt>
      <trkpt lat="43.39199" lon="1.25571">
        <ele>250.6</ele>
        <time>2023-08-15T06:21:06Z</time>
      </trkpt>
      <trkpt lat="43.3921" lon="1.25601">
        <ele>250.6</ele>
        <time>2023-08-15T06:21:10Z</time>
      </trkpt>
      <trkpt lat="43.39222" lon="1.25631">
        <ele>250.6</ele>
        <time>2023-08-15T06:21:14Z</time>
      </trkpt>
      <trkpt lat="43.39237" lon="1.2566">
        <ele>250.6</ele>
        <time>2023-08-15T06:21:18Z</time>
      </trkpt>
      <trkpt lat="43.39247" lon="1.25682">
        <ele>250.6</ele>
        <time>2023-08-15T06:21:21Z</time>
      </trkpt>
      <trkpt lat="43.3926" lon="1.25714">
        <ele>250.6</ele>
        <time>2023-08-15T06:21:25Z</time>
      </trkpt>
      <trkpt lat="43.3927" lon="1.25739">
        <ele>250.6</ele>
        <time>2023-08-15T06:21:28Z</time>
      </trkpt>
      <trkpt lat="43.3928" lon="1.25764">
        <ele>250.6</ele>
        <time>2023-08-15T06:21:31Z</time>
      </trkpt>
      <trkpt lat="43.39297" lon="1.25796">
        <ele>250.6</ele>
        <time>2023-08-15T06:21:35Z</time>
      </trkpt>
      <trkpt lat="43.3931" lon="1.25818">
        <ele>250.6</ele>
        <time>2023-08-15T06:21:38Z</time>
      </trkpt>
      <trkpt lat="43.39327" lon="1.25847">
        <ele>250.6</ele>
        <time>2023-08-15T06:21:42Z</time>
      </trkpt>
      <trkpt lat="43.39339" lon="1.25868">
        <ele>250.6</ele>
        <time>2023-08-15T06:21:45Z</time>
      </trkpt>
      <trkpt lat="43.39355" lon="1.25892">
        <ele>250.6</ele>
        <time>2023-08-15T06:21:49Z</time>
      </trkpt>
      <trkpt lat="43.3937" lon="1.25911">
        <ele>250.6</ele>
        <time>2023-08-15T06:21:52Z</time>
      </trkpt>
      <trkpt lat="43.3939" lon="1.25934">
        <ele>250.6</ele>
        <time>2023-08-15T06:21:56Z</time>
      </trkpt>
      <trkpt lat="43.39405" lon="1.25952">
        <ele>250.6</ele>
        <time>2023-08-15T06:21:59Z</time>
      </trkpt>
      <trkpt lat="43.39419" lon="1.2597">
        <ele>250.6</ele>
        <time>2023-08-15T06:22:02Z</time>
      </trkpt>
      <trkpt lat="43.39434" lon="1.25991">
        <ele>250.6</ele>
        <time>2023-08-15T06:22:06Z</time>
      </trkpt>
      <trkpt lat="43.39438" lon="1.26011">
        <ele>250.6</ele>
        <time>2023-08-15T06:22:10Z</time>
      </trkpt>
      <trkpt lat="43.39434" lon="1.26025">
        <ele>249.4</ele>
        <time>2023-08-15T06:22:13Z</time>
      </trkpt>
      <trkpt lat="43.39427" lon="1.26043">
        <ele>249.4</ele>
        <time>2023-08-15T06:22:17Z</time>
      </trkpt>
      <trkpt lat="43.39435" lon="1.26053">
        <ele>249.4</ele>
        <time>2023-08-15T06:22:20Z</time>
      </trkpt>
      <trkpt lat="43.39448" lon="1.26043">
        <ele>249.4</ele>
        <time>2023-08-15T06:22:23Z</time>
      </trkpt>
      <trkpt lat="43.39466" lon="1.26029">
        <ele>249.4</ele>
        <time>2023-08-15T06:22:27Z</time>
      </trkpt>
      <trkpt lat="43.39482" lon="1.26028">
        <ele>249.4</ele>
        <time>2023-08-15T06:22:30Z</time>
      </trkpt>
      <trkpt lat="43.39498" lon="1.26035">
        <ele>249.4</ele>
        <time>2023-08-15T06:22:33Z</time>
      </trkpt>
      <trkpt lat="43.39516" lon="1.26045">
        <ele>249.4</ele>
        <time>2023-08-15T06:22:37Z</time>
      </trkpt>
      <trkpt lat="43.39525" lon="1.26052">
        <ele>249.4</ele>
        <time>2023-08-15T06:22:41Z</time>
      </trkpt>
      <trkpt lat="43.39533" lon="1.26057">
        <ele>249.8</ele>
        <time>2023-08-15T06:22:44Z</time>
      </trkpt>
      <trkpt lat="43.39545" lon="1.26065">
        <ele>249.8</ele>
        <time>2023-08-15T06:22:48Z</time>
      </trkpt>
      <trkpt lat="43.39558" lon="1.26075">
        <ele>249.8</ele>
        <time>2023-08-15T06:22:51Z</time>
      </trkpt>
      <trkpt lat="43.39578" lon="1.2609">
        <ele>249.8</ele>
        <time>2023-08-15T06:22:55Z</time>
      </trkpt>
      <trkpt lat="43.39592" lon="1.26101">
        <ele>249.8</ele>
        <time>2023-08-15T06:22:58Z</time>
      </trkpt>
      <trkpt lat="43.3961" lon="1.26115">
        <ele>249.8</ele>
        <time>2023-08-15T06:23:02Z</time>
      </trkpt>
      <trkpt lat="43.39623" lon="1.26124">
        <ele>249.8</ele>
        <time>2023-08-15T06:23:05Z</time>
      </trkpt>
      <trkpt lat="43.39632" lon="1.26135">
        <ele>249.8</ele>
        <time>2023-08-15T06:23:08Z</time>
      </trkpt>
      <trkpt lat="43.39641" lon="1.26152">
        <ele>248.4</ele>
        <time>2023-08-15T06:23:12Z</time>
      </trkpt>
      <trkpt lat="43.39651" lon="1.26151">
        <ele>248.6</ele>
        <time>2023-08-15T06:23:16Z</time>
      </trkpt>
      <trkpt lat="43.39655" lon="1.26136">
        <ele>248.6</ele>
        <time>2023-08-15T06:23:19Z</time>
      </trkpt>
      <trkpt lat="43.39657" lon="1.26114">
        <ele>248.6</ele>
        <time>2023-08-15T06:23:23Z</time>
      </trkpt>
      <trkpt lat="43.3966" lon="1.26087">
        <ele>248.6</ele>
        <time>2023-08-15T06:23:27Z</time>
      </trkpt>
      <trkpt lat="43.39661" lon="1.26065">
        <ele>248.6</ele>
        <time>2023-08-15T06:23:30Z</time>
      </trkpt>
      <trkpt lat="43.39663" lon="1.26045">
        <ele>248.6</ele>
        <time>2023-08-15T06:23:33Z</time>
      </trkpt>
      <trkpt lat="43.39669" lon="1.26021">
        <ele>248.6</ele>
        <time>2023-08-15T06:23:37Z</time>
      </trkpt>
      <trkpt lat="43.39675" lon="1.2599">
        <ele>248.6</ele>
        <time>2023-08-15T06:23:41Z</time>
      </trkpt>
      <trkpt lat="43.39675" lon="1.25956">
        <ele>248.6</ele>
        <time>2023-08-15T06:23:45Z</time>
      </trkpt>
      <trkpt lat="43.39675" lon="1.25925">
        <ele>248.6</ele>
        <time>2023-08-15T06:23:49Z</time>
      </trkpt>
      <trkpt lat="43.39675" lon="1.25892">
        <ele>248.6</ele>
        <time>2023-08-15T06:23:53Z</time>
      </trkpt>
      <trkpt lat="43.39672" lon="1.2586">
        <ele>248.6</ele>
        <time>2023-08-15T06:23:57Z</time>
      </trkpt>
      <trkpt lat="43.39673" lon="1.25835">
        <ele>248.6</ele>
        <time>2023-08-15T06:24:00Z</time>
      </trkpt>
      <trkpt lat="43.39673" lon="1.25808">
        <ele>248.6</ele>
        <time>2023-08-15T06:24:03Z</time>
      </trkpt>
      <trkpt lat="43.39668" lon="1.25773">
        <ele>248.6</ele>
        <time>2023-08-15T06:24:07Z</time>
      </trkpt>
      <trkpt lat="43.3966" lon="1.25748">
        <ele>248.6</ele>
        <time>2023-08-15T06:24:10Z</time>
      </trkpt>
      <trkpt lat="43.39645" lon="1.25718">
        <ele>248.6</ele>
        <time>2023-08-15T06:24:14Z</time>
      </trkpt>
      <trkpt lat="43.39637" lon="1.257">
        <ele>248.6</ele>
        <time>2023-08-15T06:24:17Z</time>
      </trkpt>
      <trkpt lat="43.39632" lon="1.25675">
        <ele>248.6</ele>
        <time>2023-08-15T06:24:21Z</time>
      </trkpt>
      <trkpt lat="43.39632" lon="1.2565">
        <ele>246.9</ele>
        <time>2023-08-15T06:24:24Z</time>
      </trkpt>
      <trkpt lat="43.39636" lon="1.25616">
        <ele>246.6</ele>
        <time>2023-08-15T06:24:28Z</time>
      </trkpt>
      <trkpt lat="43.39651" lon="1.2559">
        <ele>245.7</ele>
        <time>2023-08-15T06:24:32Z</time>
      </trkpt>
      <trkpt lat="43.3967" lon="1.2557">
        <ele>245.4</ele>
        <time>2023-08-15T06:24:36Z</time>
      </trkpt>
      <trkpt lat="43.3968" lon="1.25557">
        <ele>244.6</ele>
        <time>2023-08-15T06:24:39Z</time>
      </trkpt>
      <trkpt lat="43.39689" lon="1.2555">
        <ele>244.4</ele>
        <time>2023-08-15T06:24:42Z</time>
      </trkpt>
      <trkpt lat="43.39713" lon="1.25552">
        <ele>243</ele>
        <time>2023-08-15T06:24:46Z</time>
      </trkpt>
      <trkpt lat="43.39741" lon="1.2557">
        <ele>241.3</ele>
        <time>2023-08-15T06:24:50Z</time>
      </trkpt>
      <trkpt lat="43.39767" lon="1.25586">
        <ele>241.3</ele>
        <time>2023-08-15T06:24:54Z</time>
      </trkpt>
      <trkpt lat="43.39793" lon="1.25598">
        <ele>241.3</ele>
        <time>2023-08-15T06:24:58Z</time>
      </trkpt>
      <trkpt lat="43.39813" lon="1.25607">
        <ele>241.3</ele>
        <time>2023-08-15T06:25:01Z</time>
      </trkpt>
      <trkpt lat="43.39841" lon="1.25621">
        <ele>241.3</ele>
        <time>2023-08-15T06:25:05Z</time>
      </trkpt>
      <trkpt lat="43.39862" lon="1.2563">
        <ele>241.3</ele>
        <time>2023-08-15T06:25:08Z</time>
      </trkpt>
      <trkpt lat="43.39889" lon="1.25643">
        <ele>241.3</ele>
        <time>2023-08-15T06:25:12Z</time>
      </trkpt>
      <trkpt lat="43.39916" lon="1.25657">
        <ele>241.3</ele>
        <time>2023-08-15T06:25:16Z</time>
      </trkpt>
      <trkpt lat="43.39943" lon="1.2567">
        <ele>241.3</ele>
        <time>2023-08-15T06:25:20Z</time>
      </trkpt>
      <trkpt lat="43.39962" lon="1.2568">
        <ele>241.3</ele>
        <time>2023-08-15T06:25:23Z</time>
      </trkpt>
      <trkpt lat="43.39988" lon="1.25695">
        <ele>241.3</ele>
        <time>2023-08-15T06:25:27Z</time>
      </trkpt>
      <trkpt lat="43.40007" lon="1.25706">
        <ele>241.3</ele>
        <time>2023-08-15T06:25:30Z</time>
      </trkpt>
      <trkpt lat="43.40027" lon="1.25717">
        <ele>241.3</ele>
        <time>2023-08-15T06:25:33Z</time>
      </trkpt>
      <trkpt lat="43.40054" lon="1.25732">
        <ele>241.3</ele>
        <time>2023-08-15T06:25:37Z</time>
      </trkpt>
      <trkpt lat="43.40078" lon="1.25751">
        <ele>241.3</ele>
        <time>2023-08-15T06:25:41Z</time>
      </trkpt>
      <trkpt lat="43.40094" lon="1.25769">
        <ele>241.3</ele>
        <time>2023-08-15T06:25:45Z</time>
      </trkpt>
      <trkpt lat="43.40105" lon="1.25782">
        <ele>241.3</ele>
        <time>2023-08-15T06:25:49Z</time>
      </trkpt>
      <trkpt lat="43.40119" lon="1.25799">
        <ele>241.3</ele>
        <time>2023-08-15T06:25:52Z</time>
      </trkpt>
      <trkpt lat="43.4014" lon="1.25823">
        <ele>240.7</ele>
        <time>2023-08-15T06:25:56Z</time>
      </trkpt>
      <trkpt lat="43.40157" lon="1.25835">
        <ele>240.7</ele>
        <time>2023-08-15T06:25:59Z</time>
      </trkpt>
      <trkpt lat="43.40173" lon="1.25843">
        <ele>240.7</ele>
        <time>2023-08-15T06:26:02Z</time>
      </trkpt>
      <trkpt lat="43.40188" lon="1.25843">
        <ele>240.7</ele>
        <time>2023-08-15T06:26:05Z</time>
      </trkpt>
      <trkpt lat="43.40199" lon="1.2584">
        <ele>240.7</ele>
        <time>2023-08-15T06:26:09Z</time>
      </trkpt>
      <trkpt lat="43.40213" lon="1.2584">
        <ele>241</ele>
        <time>2023-08-15T06:26:12Z</time>
      </trkpt>
      <trkpt lat="43.40238" lon="1.25852">
        <ele>241</ele>
        <time>2023-08-15T06:26:16Z</time>
      </trkpt>
      <trkpt lat="43.40258" lon="1.25871">
        <ele>241</ele>
        <time>2023-08-15T06:26:19Z</time>
      </trkpt>
      <trkpt lat="43.40276" lon="1.25889">
        <ele>241</ele>
        <time>2023-08-15T06:26:22Z</time>
      </trkpt>
      <trkpt lat="43.40299" lon="1.2591">
        <ele>241</ele>
        <time>2023-08-15T06:26:26Z</time>
      </trkpt>
      <trkpt lat="43.40316" lon="1.25926">
        <ele>241</ele>
        <time>2023-08-15T06:26:29Z</time>
      </trkpt>
      <trkpt lat="43.4034" lon="1.25945">
        <ele>241.3</ele>
        <time>2023-08-15T06:26:33Z</time>
      </trkpt>
      <trkpt lat="43.40361" lon="1.2597">
        <ele>243.6</ele>
        <time>2023-08-15T06:26:37Z</time>
      </trkpt>
      <trkpt lat="43.40373" lon="1.26003">
        <ele>245.1</ele>
        <time>2023-08-15T06:26:41Z</time>
      </trkpt>
      <trkpt lat="43.40382" lon="1.26042">
        <ele>245.7</ele>
        <time>2023-08-15T06:26:45Z</time>
      </trkpt>
      <trkpt lat="43.40392" lon="1.2608">
        <ele>246.1</ele>
        <time>2023-08-15T06:26:49Z</time>
      </trkpt>
      <trkpt lat="43.40404" lon="1.26115">
        <ele>246.3</ele>
        <time>2023-08-15T06:26:53Z</time>
      </trkpt>
      <trkpt lat="43.40416" lon="1.26149">
        <ele>246.5</ele>
        <time>2023-08-15T06:26:57Z</time>
      </trkpt>
      <trkpt lat="43.40428" lon="1.26185">
        <ele>246.4</ele>
        <time>2023-08-15T06:27:01Z</time>
      </trkpt>
      <trkpt lat="43.40438" lon="1.26221">
        <ele>246.6</ele>
        <time>2023-08-15T06:27:05Z</time>
      </trkpt>
      <trkpt lat="43.40445" lon="1.26249">
        <ele>246.8</ele>
        <time>2023-08-15T06:27:08Z</time>
      </trkpt>
      <trkpt lat="43.40455" lon="1.26285">
        <ele>246.8</ele>
        <time>2023-08-15T06:27:12Z</time>
      </trkpt>
      <trkpt lat="43.40464" lon="1.26311">
        <ele>246.7</ele>
        <time>2023-08-15T06:27:15Z</time>
      </trkpt>
      <trkpt lat="43.40479" lon="1.26346">
        <ele>246.4</ele>
        <time>2023-08-15T06:27:19Z</time>
      </trkpt>
      <trkpt lat="43.40496" lon="1.26375">
        <ele>246.6</ele>
        <time>2023-08-15T06:27:23Z</time>
      </trkpt>
      <trkpt lat="43.40516" lon="1.26402">
        <ele>246.9</ele>
        <time>2023-08-15T06:27:27Z</time>
      </trkpt>
      <trkpt lat="43.40533" lon="1.26421">
        <ele>247</ele>
        <time>2023-08-15T06:27:30Z</time>
      </trkpt>
      <trkpt lat="43.40552" lon="1.26437">
        <ele>247</ele>
        <time>2023-08-15T06:27:33Z</time>
      </trkpt>
      <trkpt lat="43.4057" lon="1.26452">
        <ele>246.9</ele>
        <time>2023-08-15T06:27:36Z</time>
      </trkpt>
      <trkpt lat="43.40594" lon="1.26473">
        <ele>246.7</ele>
        <time>2023-08-15T06:27:40Z</time>
      </trkpt>
      <trkpt lat="43.40614" lon="1.26485">
        <ele>246.9</ele>
        <time>2023-08-15T06:27:43Z</time>
      </trkpt>
      <trkpt lat="43.40635" lon="1.26491">
        <ele>247.7</ele>
        <time>2023-08-15T06:27:46Z</time>
      </trkpt>
      <trkpt lat="43.40655" lon="1.26498">
        <ele>247.6</ele>
        <time>2023-08-15T06:27:49Z</time>
      </trkpt>
      <trkpt lat="43.40683" lon="1.26512">
        <ele>247.6</ele>
        <time>2023-08-15T06:27:53Z</time>
      </trkpt>
      <trkpt lat="43.40707" lon="1.2653">
        <ele>247.4</ele>
        <time>2023-08-15T06:27:57Z</time>
      </trkpt>
      <trkpt lat="43.4073" lon="1.26553">
        <ele>248</ele>
        <time>2023-08-15T06:28:01Z</time>
      </trkpt>
      <trkpt lat="43.40746" lon="1.26571">
        <ele>248</ele>
        <time>2023-08-15T06:28:04Z</time>
      </trkpt>
      <trkpt lat="43.40769" lon="1.26595">
        <ele>248.1</ele>
        <time>2023-08-15T06:28:08Z</time>
      </trkpt>
      <trkpt lat="43.40791" lon="1.26619">
        <ele>248.3</ele>
        <time>2023-08-15T06:28:12Z</time>
      </trkpt>
      <trkpt lat="43.40808" lon="1.26637">
        <ele>248</ele>
        <time>2023-08-15T06:28:15Z</time>
      </trkpt>
      <trkpt lat="43.4083" lon="1.26661">
        <ele>248</ele>
        <time>2023-08-15T06:28:19Z</time>
      </trkpt>
      <trkpt lat="43.40853" lon="1.26686">
        <ele>247.7</ele>
        <time>2023-08-15T06:28:23Z</time>
      </trkpt>
      <trkpt lat="43.40869" lon="1.26705">
        <ele>247.4</ele>
        <time>2023-08-15T06:28:26Z</time>
      </trkpt>
      <trkpt lat="43.40886" lon="1.26734">
        <ele>247.6</ele>
        <time>2023-08-15T06:28:30Z</time>
      </trkpt>
      <trkpt lat="43.409" lon="1.26755">
        <ele>247.7</ele>
        <time>2023-08-15T06:28:33Z</time>
      </trkpt>
      <trkpt lat="43.4092" lon="1.26783">
        <ele>247.5</ele>
        <time>2023-08-15T06:28:37Z</time>
      </trkpt>
      <trkpt lat="43.40936" lon="1.26803">
        <ele>247.5</ele>
        <time>2023-08-15T06:28:40Z</time>
      </trkpt>
      <trkpt lat="43.40954" lon="1.2682">
        <ele>247.5</ele>
        <time>2023-08-15T06:28:43Z</time>
      </trkpt>
      <trkpt lat="43.40977" lon="1.26841">
        <ele>247.3</ele>
        <time>2023-08-15T06:28:47Z</time>
      </trkpt>
      <trkpt lat="43.40995" lon="1.26857">
        <ele>247.3</ele>
        <time>2023-08-15T06:28:50Z</time>
      </trkpt>
      <trkpt lat="43.41013" lon="1.26872">
        <ele>247.3</ele>
        <time>2023-08-15T06:28:53Z</time>
      </trkpt>
      <trkpt lat="43.41032" lon="1.26887">
        <ele>246.9</ele>
        <time>2023-08-15T06:28:56Z</time>
      </trkpt>
      <trkpt lat="43.4105" lon="1.26902">
        <ele>247.3</ele>
        <time>2023-08-15T06:28:59Z</time>
      </trkpt>
      <trkpt lat="43.41075" lon="1.26921">
        <ele>247.2</ele>
        <time>2023-08-15T06:29:03Z</time>
      </trkpt>
      <trkpt lat="43.41093" lon="1.26935">
        <ele>247.2</ele>
        <time>2023-08-15T06:29:06Z</time>
      </trkpt>
      <trkpt lat="43.41117" lon="1.26956">
        <ele>247.2</ele>
        <time>2023-08-15T06:29:10Z</time>
      </trkpt>
      <trkpt lat="43.4114" lon="1.26979">
        <ele>247.2</ele>
        <time>2023-08-15T06:29:14Z</time>
      </trkpt>
      <trkpt lat="43.41157" lon="1.26995">
        <ele>247.2</ele>
        <time>2023-08-15T06:29:17Z</time>
      </trkpt>
      <trkpt lat="43.41181" lon="1.27019">
        <ele>246.9</ele>
        <time>2023-08-15T06:29:21Z</time>
      </trkpt>
      <trkpt lat="43.41197" lon="1.27037">
        <ele>247.3</ele>
        <time>2023-08-15T06:29:24Z</time>
      </trkpt>
      <trkpt lat="43.41214" lon="1.27055">
        <ele>246.8</ele>
        <time>2023-08-15T06:29:27Z</time>
      </trkpt>
      <trkpt lat="43.41231" lon="1.27073">
        <ele>246.7</ele>
        <time>2023-08-15T06:29:30Z</time>
      </trkpt>
      <trkpt lat="43.41253" lon="1.27095">
        <ele>246.6</ele>
        <time>2023-08-15T06:29:34Z</time>
      </trkpt>
      <trkpt lat="43.41276" lon="1.2712">
        <ele>246.5</ele>
        <time>2023-08-15T06:29:38Z</time>
      </trkpt>
      <trkpt lat="43.41293" lon="1.2714">
        <ele>246.5</ele>
        <time>2023-08-15T06:29:41Z</time>
      </trkpt>
      <trkpt lat="43.41313" lon="1.27167">
        <ele>246.1</ele>
        <time>2023-08-15T06:29:45Z</time>
      </trkpt>
      <trkpt lat="43.41327" lon="1.27188">
        <ele>246.2</ele>
        <time>2023-08-15T06:29:48Z</time>
      </trkpt>
      <trkpt lat="43.41345" lon="1.27216">
        <ele>246.1</ele>
        <time>2023-08-15T06:29:52Z</time>
      </trkpt>
      <trkpt lat="43.41364" lon="1.27245">
        <ele>246.1</ele>
        <time>2023-08-15T06:29:56Z</time>
      </trkpt>
      <trkpt lat="43.41379" lon="1.27266">
        <ele>245.9</ele>
        <time>2023-08-15T06:29:59Z</time>
      </trkpt>
      <trkpt lat="43.41398" lon="1.27294">
        <ele>245.8</ele>
        <time>2023-08-15T06:30:03Z</time>
      </trkpt>
      <trkpt lat="43.41412" lon="1.27315">
        <ele>245.8</ele>
        <time>2023-08-15T06:30:06Z</time>
      </trkpt>
      <trkpt lat="43.41432" lon="1.27343">
        <ele>245.9</ele>
        <time>2023-08-15T06:30:10Z</time>
      </trkpt>
      <trkpt lat="43.41447" lon="1.27364">
        <ele>245.9</ele>
        <time>2023-08-15T06:30:13Z</time>
      </trkpt>
      <trkpt lat="43.41468" lon="1.27392">
        <ele>245.9</ele>
        <time>2023-08-15T06:30:17Z</time>
      </trkpt>
      <trkpt lat="43.41487" lon="1.2742">
        <ele>245.7</ele>
        <time>2023-08-15T06:30:21Z</time>
      </trkpt>
      <trkpt lat="43.41507" lon="1.27447">
        <ele>245.7</ele>
        <time>2023-08-15T06:30:25Z</time>
      </trkpt>
      <trkpt lat="43.41522" lon="1.27468">
        <ele>245.7</ele>
        <time>2023-08-15T06:30:28Z</time>
      </trkpt>
      <trkpt lat="43.41542" lon="1.27495">
        <ele>245.9</ele>
        <time>2023-08-15T06:30:32Z</time>
      </trkpt>
      <trkpt lat="43.41563" lon="1.27523">
        <ele>245.9</ele>
        <time>2023-08-15T06:30:36Z</time>
      </trkpt>
      <trkpt lat="43.41579" lon="1.27544">
        <ele>246</ele>
        <time>2023-08-15T06:30:39Z</time>
      </trkpt>
      <trkpt lat="43.416" lon="1.2757">
        <ele>245.7</ele>
        <time>2023-08-15T06:30:43Z</time>
      </trkpt>
      <trkpt lat="43.41617" lon="1.27587">
        <ele>245.7</ele>
        <time>2023-08-15T06:30:46Z</time>
      </trkpt>
      <trkpt lat="43.41641" lon="1.27608">
        <ele>245.6</ele>
        <time>2023-08-15T06:30:50Z</time>
      </trkpt>
      <trkpt lat="43.41661" lon="1.27621">
        <ele>245.1</ele>
        <time>2023-08-15T06:30:53Z</time>
      </trkpt>
      <trkpt lat="43.41685" lon="1.27637">
        <ele>245.4</ele>
        <time>2023-08-15T06:30:57Z</time>
      </trkpt>
      <trkpt lat="43.41704" lon="1.27648">
        <ele>245.3</ele>
        <time>2023-08-15T06:31:00Z</time>
      </trkpt>
      <trkpt lat="43.41729" lon="1.27662">
        <ele>245.4</ele>
        <time>2023-08-15T06:31:04Z</time>
      </trkpt>
      <trkpt lat="43.41742" lon="1.2767">
        <ele>245.6</ele>
        <time>2023-08-15T06:31:07Z</time>
      </trkpt>
      <trkpt lat="43.41753" lon="1.27676">
        <ele>245.6</ele>
        <time>2023-08-15T06:31:11Z</time>
      </trkpt>
      <trkpt lat="43.41765" lon="1.2768">
        <ele>245.2</ele>
        <time>2023-08-15T06:31:14Z</time>
      </trkpt>
      <trkpt lat="43.41787" lon="1.27689">
        <ele>245.2</ele>
        <time>2023-08-15T06:31:18Z</time>
      </trkpt>
      <trkpt lat="43.41805" lon="1.27695">
        <ele>245.2</ele>
        <time>2023-08-15T06:31:21Z</time>
      </trkpt>
      <trkpt lat="43.41822" lon="1.277">
        <ele>245.2</ele>
        <time>2023-08-15T06:31:24Z</time>
      </trkpt>
      <trkpt lat="43.41845" lon="1.27708">
        <ele>245.2</ele>
        <time>2023-08-15T06:31:28Z</time>
      </trkpt>
      <trkpt lat="43.41862" lon="1.27715">
        <ele>245.2</ele>
        <time>2023-08-15T06:31:31Z</time>
      </trkpt>
      <trkpt lat="43.41875" lon="1.2772">
        <ele>245.2</ele>
        <time>2023-08-15T06:31:34Z</time>
      </trkpt>
      <trkpt lat="43.41893" lon="1.27725">
        <ele>245.2</ele>
        <time>2023-08-15T06:31:38Z</time>
      </trkpt>
      <trkpt lat="43.41919" lon="1.27733">
        <ele>245.2</ele>
        <time>2023-08-15T06:31:42Z</time>
      </trkpt>
      <trkpt lat="43.41942" lon="1.2774">
        <ele>245.2</ele>
        <time>2023-08-15T06:31:46Z</time>
      </trkpt>
      <trkpt lat="43.41956" lon="1.27744">
        <ele>245.2</ele>
        <time>2023-08-15T06:31:49Z</time>
      </trkpt>
      <trkpt lat="43.41969" lon="1.27749">
        <ele>245.2</ele>
        <time>2023-08-15T06:31:53Z</time>
      </trkpt>
      <trkpt lat="43.41978" lon="1.27754">
        <ele>244.8</ele>
        <time>2023-08-15T06:31:56Z</time>
      </trkpt>
      <trkpt lat="43.41997" lon="1.27759">
        <ele>244.9</ele>
        <time>2023-08-15T06:32:00Z</time>
      </trkpt>
      <trkpt lat="43.42017" lon="1.27764">
        <ele>244.9</ele>
        <time>2023-08-15T06:32:03Z</time>
      </trkpt>
      <trkpt lat="43.42038" lon="1.27771">
        <ele>244.9</ele>
        <time>2023-08-15T06:32:06Z</time>
      </trkpt>
      <trkpt lat="43.42068" lon="1.27779">
        <ele>244.9</ele>
        <time>2023-08-15T06:32:10Z</time>
      </trkpt>
      <trkpt lat="43.42095" lon="1.27786">
        <ele>244.9</ele>
        <time>2023-08-15T06:32:14Z</time>
      </trkpt>
      <trkpt lat="43.42113" lon="1.27791">
        <ele>244.9</ele>
        <time>2023-08-15T06:32:17Z</time>
      </trkpt>
      <trkpt lat="43.42131" lon="1.27797">
        <ele>244.9</ele>
        <time>2023-08-15T06:32:20Z</time>
      </trkpt>
      <trkpt lat="43.42158" lon="1.27805">
        <ele>244.9</ele>
        <time>2023-08-15T06:32:24Z</time>
      </trkpt>
      <trkpt lat="43.42178" lon="1.27812">
        <ele>244.9</ele>
        <time>2023-08-15T06:32:27Z</time>
      </trkpt>
      <trkpt lat="43.42203" lon="1.27823">
        <ele>244.9</ele>
        <time>2023-08-15T06:32:31Z</time>
      </trkpt>
      <trkpt lat="43.42227" lon="1.27833">
        <ele>244.9</ele>
        <time>2023-08-15T06:32:35Z</time>
      </trkpt>
      <trkpt lat="43.42243" lon="1.27838">
        <ele>244.9</ele>
        <time>2023-08-15T06:32:38Z</time>
      </trkpt>
      <trkpt lat="43.42257" lon="1.27843">
        <ele>244.9</ele>
        <time>2023-08-15T06:32:42Z</time>
      </trkpt>
      <trkpt lat="43.4228" lon="1.27854">
        <ele>244.1</ele>
        <time>2023-08-15T06:32:46Z</time>
      </trkpt>
      <trkpt lat="43.42305" lon="1.27869">
        <ele>244.1</ele>
        <time>2023-08-15T06:32:50Z</time>
      </trkpt>
      <trkpt lat="43.42329" lon="1.27886">
        <ele>244.1</ele>
        <time>2023-08-15T06:32:54Z</time>
      </trkpt>
      <trkpt lat="43.42348" lon="1.27897">
        <ele>244.1</ele>
        <time>2023-08-15T06:32:57Z</time>
      </trkpt>
      <trkpt lat="43.42366" lon="1.27909">
        <ele>244.1</ele>
        <time>2023-08-15T06:33:00Z</time>
      </trkpt>
      <trkpt lat="43.42385" lon="1.27921">
        <ele>244.1</ele>
        <time>2023-08-15T06:33:03Z</time>
      </trkpt>
      <trkpt lat="43.4241" lon="1.2794">
        <ele>244.1</ele>
        <time>2023-08-15T06:33:07Z</time>
      </trkpt>
      <trkpt lat="43.42427" lon="1.27957">
        <ele>244.1</ele>
        <time>2023-08-15T06:33:10Z</time>
      </trkpt>
      <trkpt lat="43.42449" lon="1.27978">
        <ele>244.1</ele>
        <time>2023-08-15T06:33:14Z</time>
      </trkpt>
      <trkpt lat="43.42474" lon="1.27995">
        <ele>244.1</ele>
        <time>2023-08-15T06:33:18Z</time>
      </trkpt>
      <trkpt lat="43.42493" lon="1.28009">
        <ele>244.1</ele>
        <time>2023-08-15T06:33:21Z</time>
      </trkpt>
      <trkpt lat="43.42512" lon="1.28022">
        <ele>244.1</ele>
        <time>2023-08-15T06:33:24Z</time>
      </trkpt>
      <trkpt lat="43.42535" lon="1.2804">
        <ele>244.1</ele>
        <time>2023-08-15T06:33:28Z</time>
      </trkpt>
      <trkpt lat="43.42554" lon="1.28052">
        <ele>244.1</ele>
        <time>2023-08-15T06:33:31Z</time>
      </trkpt>
      <trkpt lat="43.42579" lon="1.28067">
        <ele>244.1</ele>
        <time>2023-08-15T06:33:35Z</time>
      </trkpt>
      <trkpt lat="43.42598" lon="1.2808">
        <ele>244.1</ele>
        <time>2023-08-15T06:33:38Z</time>
      </trkpt>
      <trkpt lat="43.42626" lon="1.28097">
        <ele>244.1</ele>
        <time>2023-08-15T06:33:42Z</time>
      </trkpt>
      <trkpt lat="43.42645" lon="1.28109">
        <ele>244.1</ele>
        <time>2023-08-15T06:33:45Z</time>
      </trkpt>
      <trkpt lat="43.42671" lon="1.28123">
        <ele>244.1</ele>
        <time>2023-08-15T06:33:49Z</time>
      </trkpt>
      <trkpt lat="43.42692" lon="1.28131">
        <ele>244.1</ele>
        <time>2023-08-15T06:33:52Z</time>
      </trkpt>
      <trkpt lat="43.4272" lon="1.28141">
        <ele>244.1</ele>
        <time>2023-08-15T06:33:56Z</time>
      </trkpt>
      <trkpt lat="43.42748" lon="1.2815">
        <ele>244.1</ele>
        <time>2023-08-15T06:34:00Z</time>
      </trkpt>
      <trkpt lat="43.42768" lon="1.28158">
        <ele>244.1</ele>
        <time>2023-08-15T06:34:03Z</time>
      </trkpt>
      <trkpt lat="43.42795" lon="1.28169">
        <ele>244.1</ele>
        <time>2023-08-15T06:34:07Z</time>
      </trkpt>
      <trkpt lat="43.42822" lon="1.28182">
        <ele>244.1</ele>
        <time>2023-08-15T06:34:11Z</time>
      </trkpt>
      <trkpt lat="43.42842" lon="1.28192">
        <ele>244.1</ele>
        <time>2023-08-15T06:34:14Z</time>
      </trkpt>
      <trkpt lat="43.42868" lon="1.28206">
        <ele>244.1</ele>
        <time>2023-08-15T06:34:18Z</time>
      </trkpt>
      <trkpt lat="43.42888" lon="1.28216">
        <ele>244.1</ele>
        <time>2023-08-15T06:34:21Z</time>
      </trkpt>
      <trkpt lat="43.42915" lon="1.28229">
        <ele>244.1</ele>
        <time>2023-08-15T06:34:25Z</time>
      </trkpt>
      <trkpt lat="43.42934" lon="1.28241">
        <ele>244.1</ele>
        <time>2023-08-15T06:34:28Z</time>
      </trkpt>
      <trkpt lat="43.42954" lon="1.28253">
        <ele>244.1</ele>
        <time>2023-08-15T06:34:31Z</time>
      </trkpt>
      <trkpt lat="43.4298" lon="1.28267">
        <ele>244.1</ele>
        <time>2023-08-15T06:34:35Z</time>
      </trkpt>
      <trkpt lat="43.43006" lon="1.28282">
        <ele>244.1</ele>
        <time>2023-08-15T06:34:39Z</time>
      </trkpt>
      <trkpt lat="43.43033" lon="1.28297">
        <ele>244.1</ele>
        <time>2023-08-15T06:34:43Z</time>
      </trkpt>
      <trkpt lat="43.43053" lon="1.28308">
        <ele>244.1</ele>
        <time>2023-08-15T06:34:46Z</time>
      </trkpt>
      <trkpt lat="43.43079" lon="1.28323">
        <ele>244.1</ele>
        <time>2023-08-15T06:34:50Z</time>
      </trkpt>
      <trkpt lat="43.43105" lon="1.28337">
        <ele>244.1</ele>
        <time>2023-08-15T06:34:54Z</time>
      </trkpt>
      <trkpt lat="43.43125" lon="1.28348">
        <ele>244.1</ele>
        <time>2023-08-15T06:34:57Z</time>
      </trkpt>
      <trkpt lat="43.43144" lon="1.28359">
        <ele>244.1</ele>
        <time>2023-08-15T06:35:00Z</time>
      </trkpt>
      <trkpt lat="43.43171" lon="1.28374">
        <ele>244.1</ele>
        <time>2023-08-15T06:35:04Z</time>
      </trkpt>
      <trkpt lat="43.4319" lon="1.28385">
        <ele>244.1</ele>
        <time>2023-08-15T06:35:07Z</time>
      </trkpt>
      <trkpt lat="43.4321" lon="1.28397">
        <ele>244.1</ele>
        <time>2023-08-15T06:35:10Z</time>
      </trkpt>
      <trkpt lat="43.4323" lon="1.28408">
        <ele>243.7</ele>
        <time>2023-08-15T06:35:13Z</time>
      </trkpt>
      <trkpt lat="43.43256" lon="1.28423">
        <ele>243.5</ele>
        <time>2023-08-15T06:35:17Z</time>
      </trkpt>
      <trkpt lat="43.43282" lon="1.28439">
        <ele>243.5</ele>
        <time>2023-08-15T06:35:21Z</time>
      </trkpt>
      <trkpt lat="43.43308" lon="1.28454">
        <ele>243.9</ele>
        <time>2023-08-15T06:35:25Z</time>
      </trkpt>
      <trkpt lat="43.43334" lon="1.2847">
        <ele>243.8</ele>
        <time>2023-08-15T06:35:29Z</time>
      </trkpt>
      <trkpt lat="43.43353" lon="1.28482">
        <ele>243.6</ele>
        <time>2023-08-15T06:35:32Z</time>
      </trkpt>
      <trkpt lat="43.43378" lon="1.28499">
        <ele>243.6</ele>
        <time>2023-08-15T06:35:36Z</time>
      </trkpt>
      <trkpt lat="43.43397" lon="1.28511">
        <ele>243.6</ele>
        <time>2023-08-15T06:35:39Z</time>
      </trkpt>
      <trkpt lat="43.43423" lon="1.28527">
        <ele>243.7</ele>
        <time>2023-08-15T06:35:43Z</time>
      </trkpt>
      <trkpt lat="43.43443" lon="1.28539">
        <ele>243.6</ele>
        <time>2023-08-15T06:35:46Z</time>
      </trkpt>
      <trkpt lat="43.43462" lon="1.28552">
        <ele>243.7</ele>
        <time>2023-08-15T06:35:49Z</time>
      </trkpt>
      <trkpt lat="43.43487" lon="1.28569">
        <ele>243.6</ele>
        <time>2023-08-15T06:35:53Z</time>
      </trkpt>
      <trkpt lat="43.43508" lon="1.2858">
        <ele>243.7</ele>
        <time>2023-08-15T06:35:56Z</time>
      </trkpt>
      <trkpt lat="43.43534" lon="1.28595">
        <ele>244</ele>
        <time>2023-08-15T06:36:00Z</time>
      </trkpt>
      <trkpt lat="43.43553" lon="1.28609">
        <ele>243.9</ele>
        <time>2023-08-15T06:36:03Z</time>
      </trkpt>
      <trkpt lat="43.43572" lon="1.28622">
        <ele>243.9</ele>
        <time>2023-08-15T06:36:06Z</time>
      </trkpt>
      <trkpt lat="43.43596" lon="1.2864">
        <ele>243.5</ele>
        <time>2023-08-15T06:36:10Z</time>
      </trkpt>
      <trkpt lat="43.43622" lon="1.28656">
        <ele>243.1</ele>
        <time>2023-08-15T06:36:14Z</time>
      </trkpt>
      <trkpt lat="43.43648" lon="1.28672">
        <ele>242.9</ele>
        <time>2023-08-15T06:36:18Z</time>
      </trkpt>
      <trkpt lat="43.43668" lon="1.28684">
        <ele>242.9</ele>
        <time>2023-08-15T06:36:21Z</time>
      </trkpt>
      <trkpt lat="43.43694" lon="1.28699">
        <ele>242.9</ele>
        <time>2023-08-15T06:36:25Z</time>
      </trkpt>
      <trkpt lat="43.43713" lon="1.28711">
        <ele>242.5</ele>
        <time>2023-08-15T06:36:28Z</time>
      </trkpt>
      <trkpt lat="43.43732" lon="1.28723">
        <ele>242.1</ele>
        <time>2023-08-15T06:36:31Z</time>
      </trkpt>
      <trkpt lat="43.43759" lon="1.28739">
        <ele>242</ele>
        <time>2023-08-15T06:36:35Z</time>
      </trkpt>
      <trkpt lat="43.43785" lon="1.28757">
        <ele>242.1</ele>
        <time>2023-08-15T06:36:39Z</time>
      </trkpt>
      <trkpt lat="43.4381" lon="1.28775">
        <ele>242.2</ele>
        <time>2023-08-15T06:36:43Z</time>
      </trkpt>
      <trkpt lat="43.43828" lon="1.28789">
        <ele>242.2</ele>
        <time>2023-08-15T06:36:46Z</time>
      </trkpt>
      <trkpt lat="43.43852" lon="1.28809">
        <ele>241.7</ele>
        <time>2023-08-15T06:36:50Z</time>
      </trkpt>
      <trkpt lat="43.4387" lon="1.28825">
        <ele>241.6</ele>
        <time>2023-08-15T06:36:53Z</time>
      </trkpt>
      <trkpt lat="43.43893" lon="1.28845">
        <ele>241.4</ele>
        <time>2023-08-15T06:36:57Z</time>
      </trkpt>
      <trkpt lat="43.43917" lon="1.28866">
        <ele>241.3</ele>
        <time>2023-08-15T06:37:01Z</time>
      </trkpt>
      <trkpt lat="43.43934" lon="1.28884">
        <ele>241.2</ele>
        <time>2023-08-15T06:37:04Z</time>
      </trkpt>
      <trkpt lat="43.43955" lon="1.28911">
        <ele>241</ele>
        <time>2023-08-15T06:37:08Z</time>
      </trkpt>
      <trkpt lat="43.43974" lon="1.2894">
        <ele>241</ele>
        <time>2023-08-15T06:37:12Z</time>
      </trkpt>
      <trkpt lat="43.43988" lon="1.28961">
        <ele>241.2</ele>
        <time>2023-08-15T06:37:15Z</time>
      </trkpt>
      <trkpt lat="43.44008" lon="1.28988">
        <ele>241.2</ele>
        <time>2023-08-15T06:37:19Z</time>
      </trkpt>
      <trkpt lat="43.4403" lon="1.29015">
        <ele>241.5</ele>
        <time>2023-08-15T06:37:23Z</time>
      </trkpt>
      <trkpt lat="43.44055" lon="1.29036">
        <ele>241.3</ele>
        <time>2023-08-15T06:37:27Z</time>
      </trkpt>
      <trkpt lat="43.44071" lon="1.29049">
        <ele>241.2</ele>
        <time>2023-08-15T06:37:30Z</time>
      </trkpt>
      <trkpt lat="43.44083" lon="1.29058">
        <ele>241.5</ele>
        <time>2023-08-15T06:37:33Z</time>
      </trkpt>
      <trkpt lat="43.44094" lon="1.29067">
        <ele>241.4</ele>
        <time>2023-08-15T06:37:37Z</time>
      </trkpt>
      <trkpt lat="43.44108" lon="1.29078">
        <ele>241.2</ele>
        <time>2023-08-15T06:37:40Z</time>
      </trkpt>
      <trkpt lat="43.44128" lon="1.29094">
        <ele>241.1</ele>
        <time>2023-08-15T06:37:44Z</time>
      </trkpt>
      <trkpt lat="43.44142" lon="1.29106">
        <ele>241.4</ele>
        <time>2023-08-15T06:37:47Z</time>
      </trkpt>
      <trkpt lat="43.44162" lon="1.2912">
        <ele>241</ele>
        <time>2023-08-15T06:37:51Z</time>
      </trkpt>
      <trkpt lat="43.44181" lon="1.29136">
        <ele>241.1</ele>
        <time>2023-08-15T06:37:55Z</time>
      </trkpt>
      <trkpt lat="43.44199" lon="1.2915">
        <ele>241.2</ele>
        <time>2023-08-15T06:37:59Z</time>
      </trkpt>
      <trkpt lat="43.44217" lon="1.29165">
        <ele>241.3</ele>
        <time>2023-08-15T06:38:03Z</time>
      </trkpt>
      <trkpt lat="43.44233" lon="1.29185">
        <ele>240.9</ele>
        <time>2023-08-15T06:38:07Z</time>
      </trkpt>
      <trkpt lat="43.44247" lon="1.29197">
        <ele>240.8</ele>
        <time>2023-08-15T06:38:10Z</time>
      </trkpt>
      <trkpt lat="43.44263" lon="1.29206">
        <ele>240.9</ele>
        <time>2023-08-15T06:38:13Z</time>
      </trkpt>
      <trkpt lat="43.44285" lon="1.29222">
        <ele>240.4</ele>
        <time>2023-08-15T06:38:17Z</time>
      </trkpt>
      <trkpt lat="43.44304" lon="1.2924">
        <ele>240.3</ele>
        <time>2023-08-15T06:38:21Z</time>
      </trkpt>
      <trkpt lat="43.44315" lon="1.29251">
        <ele>240.3</ele>
        <time>2023-08-15T06:38:24Z</time>
      </trkpt>
      <trkpt lat="43.44327" lon="1.2927">
        <ele>238.6</ele>
        <time>2023-08-15T06:38:28Z</time>
      </trkpt>
      <trkpt lat="43.44336" lon="1.29287">
        <ele>238.7</ele>
        <time>2023-08-15T06:38:31Z</time>
      </trkpt>
      <trkpt lat="43.44353" lon="1.29309">
        <ele>238.7</ele>
        <time>2023-08-15T06:38:35Z</time>
      </trkpt>
      <trkpt lat="43.44373" lon="1.29334">
        <ele>238.7</ele>
        <time>2023-08-15T06:38:39Z</time>
      </trkpt>
      <trkpt lat="43.44387" lon="1.29351">
        <ele>238.7</ele>
        <time>2023-08-15T06:38:42Z</time>
      </trkpt>
      <trkpt lat="43.44408" lon="1.29376">
        <ele>238.7</ele>
        <time>2023-08-15T06:38:46Z</time>
      </trkpt>
      <trkpt lat="43.44424" lon="1.29395">
        <ele>238.7</ele>
        <time>2023-08-15T06:38:49Z</time>
      </trkpt>
      <trkpt lat="43.44443" lon="1.29415">
        <ele>238.7</ele>
        <time>2023-08-15T06:38:53Z</time>
      </trkpt>
      <trkpt lat="43.44458" lon="1.29431">
        <ele>238.7</ele>
        <time>2023-08-15T06:38:57Z</time>
      </trkpt>
      <trkpt lat="43.4447" lon="1.29443">
        <ele>238.7</ele>
        <time>2023-08-15T06:39:00Z</time>
      </trkpt>
      <trkpt lat="43.44488" lon="1.2946">
        <ele>238.7</ele>
        <time>2023-08-15T06:39:04Z</time>
      </trkpt>
      <trkpt lat="43.44513" lon="1.29478">
        <ele>238.7</ele>
        <time>2023-08-15T06:39:08Z</time>
      </trkpt>
      <trkpt lat="43.44531" lon="1.2949">
        <ele>238.7</ele>
        <time>2023-08-15T06:39:11Z</time>
      </trkpt>
      <trkpt lat="43.4455" lon="1.29501">
        <ele>238.7</ele>
        <time>2023-08-15T06:39:14Z</time>
      </trkpt>
      <trkpt lat="43.44575" lon="1.29514">
        <ele>238.7</ele>
        <time>2023-08-15T06:39:18Z</time>
      </trkpt>
      <trkpt lat="43.44602" lon="1.29527">
        <ele>236.9</ele>
        <time>2023-08-15T06:39:22Z</time>
      </trkpt>
      <trkpt lat="43.44621" lon="1.29534">
        <ele>236.1</ele>
        <time>2023-08-15T06:39:25Z</time>
      </trkpt>
      <trkpt lat="43.44648" lon="1.29549">
        <ele>234.7</ele>
        <time>2023-08-15T06:39:29Z</time>
      </trkpt>
      <trkpt lat="43.44669" lon="1.29562">
        <ele>233.9</ele>
        <time>2023-08-15T06:39:32Z</time>
      </trkpt>
      <trkpt lat="43.44695" lon="1.29581">
        <ele>233.3</ele>
        <time>2023-08-15T06:39:36Z</time>
      </trkpt>
      <trkpt lat="43.4472" lon="1.296">
        <ele>233.1</ele>
        <time>2023-08-15T06:39:40Z</time>
      </trkpt>
      <trkpt lat="43.44739" lon="1.29613">
        <ele>232.6</ele>
        <time>2023-08-15T06:39:43Z</time>
      </trkpt>
      <trkpt lat="43.44758" lon="1.29626">
        <ele>232.8</ele>
        <time>2023-08-15T06:39:46Z</time>
      </trkpt>
      <trkpt lat="43.44783" lon="1.29643">
        <ele>231.9</ele>
        <time>2023-08-15T06:39:50Z</time>
      </trkpt>
      <trkpt lat="43.44808" lon="1.29661">
        <ele>231.9</ele>
        <time>2023-08-15T06:39:54Z</time>
      </trkpt>
      <trkpt lat="43.44833" lon="1.29679">
        <ele>231.4</ele>
        <time>2023-08-15T06:39:58Z</time>
      </trkpt>
      <trkpt lat="43.44859" lon="1.29697">
        <ele>230.8</ele>
        <time>2023-08-15T06:40:02Z</time>
      </trkpt>
      <trkpt lat="43.44878" lon="1.29712">
        <ele>230.5</ele>
        <time>2023-08-15T06:40:05Z</time>
      </trkpt>
      <trkpt lat="43.449" lon="1.29734">
        <ele>229.8</ele>
        <time>2023-08-15T06:40:09Z</time>
      </trkpt>
      <trkpt lat="43.44917" lon="1.29753">
        <ele>229.7</ele>
        <time>2023-08-15T06:40:12Z</time>
      </trkpt>
      <trkpt lat="43.44939" lon="1.29779">
        <ele>230.1</ele>
        <time>2023-08-15T06:40:16Z</time>
      </trkpt>
      <trkpt lat="43.4496" lon="1.29804">
        <ele>229.4</ele>
        <time>2023-08-15T06:40:20Z</time>
      </trkpt>
      <trkpt lat="43.44976" lon="1.29822">
        <ele>228.7</ele>
        <time>2023-08-15T06:40:23Z</time>
      </trkpt>
      <trkpt lat="43.44993" lon="1.2984">
        <ele>229</ele>
        <time>2023-08-15T06:40:26Z</time>
      </trkpt>
      <trkpt lat="43.45016" lon="1.29863">
        <ele>229.1</ele>
        <time>2023-08-15T06:40:30Z</time>
      </trkpt>
      <trkpt lat="43.4504" lon="1.29881">
        <ele>229.4</ele>
        <time>2023-08-15T06:40:34Z</time>
      </trkpt>
      <trkpt lat="43.45058" lon="1.29895">
        <ele>229.2</ele>
        <time>2023-08-15T06:40:37Z</time>
      </trkpt>
      <trkpt lat="43.45077" lon="1.29909">
        <ele>228.7</ele>
        <time>2023-08-15T06:40:40Z</time>
      </trkpt>
      <trkpt lat="43.45097" lon="1.29923">
        <ele>228.6</ele>
        <time>2023-08-15T06:40:43Z</time>
      </trkpt>
      <trkpt lat="43.45121" lon="1.29942">
        <ele>228.7</ele>
        <time>2023-08-15T06:40:47Z</time>
      </trkpt>
      <trkpt lat="43.45139" lon="1.29958">
        <ele>228.8</ele>
        <time>2023-08-15T06:40:50Z</time>
      </trkpt>
      <trkpt lat="43.45163" lon="1.29979">
        <ele>228.9</ele>
        <time>2023-08-15T06:40:54Z</time>
      </trkpt>
      <trkpt lat="43.45187" lon="1.30003">
        <ele>228.4</ele>
        <time>2023-08-15T06:40:58Z</time>
      </trkpt>
      <trkpt lat="43.45208" lon="1.3003">
        <ele>228.8</ele>
        <time>2023-08-15T06:41:02Z</time>
      </trkpt>
      <trkpt lat="43.45222" lon="1.30052">
        <ele>228.8</ele>
        <time>2023-08-15T06:41:05Z</time>
      </trkpt>
      <trkpt lat="43.45238" lon="1.30083">
        <ele>228.5</ele>
        <time>2023-08-15T06:41:09Z</time>
      </trkpt>
      <trkpt lat="43.45255" lon="1.30114">
        <ele>228.4</ele>
        <time>2023-08-15T06:41:13Z</time>
      </trkpt>
      <trkpt lat="43.45273" lon="1.30145">
        <ele>228.4</ele>
        <time>2023-08-15T06:41:17Z</time>
      </trkpt>
      <trkpt lat="43.45293" lon="1.30173">
        <ele>228.3</ele>
        <time>2023-08-15T06:41:21Z</time>
      </trkpt>
      <trkpt lat="43.45314" lon="1.30199">
        <ele>228.2</ele>
        <time>2023-08-15T06:41:25Z</time>
      </trkpt>
      <trkpt lat="43.45335" lon="1.30224">
        <ele>227.7</ele>
        <time>2023-08-15T06:41:29Z</time>
      </trkpt>
      <trkpt lat="43.4535" lon="1.30244">
        <ele>227.8</ele>
        <time>2023-08-15T06:41:32Z</time>
      </trkpt>
      <trkpt lat="43.4537" lon="1.30271">
        <ele>227.9</ele>
        <time>2023-08-15T06:41:36Z</time>
      </trkpt>
      <trkpt lat="43.4539" lon="1.30299">
        <ele>227.4</ele>
        <time>2023-08-15T06:41:40Z</time>
      </trkpt>
      <trkpt lat="43.4541" lon="1.30327">
        <ele>227.4</ele>
        <time>2023-08-15T06:41:44Z</time>
      </trkpt>
      <trkpt lat="43.45425" lon="1.30347">
        <ele>227.4</ele>
        <time>2023-08-15T06:41:47Z</time>
      </trkpt>
      <trkpt lat="43.45446" lon="1.30374">
        <ele>227.5</ele>
        <time>2023-08-15T06:41:51Z</time>
      </trkpt>
      <trkpt lat="43.45462" lon="1.30393">
        <ele>227.6</ele>
        <time>2023-08-15T06:41:54Z</time>
      </trkpt>
      <trkpt lat="43.45484" lon="1.30419">
        <ele>227.7</ele>
        <time>2023-08-15T06:41:58Z</time>
      </trkpt>
      <trkpt lat="43.455" lon="1.30439">
        <ele>227.7</ele>
        <time>2023-08-15T06:42:01Z</time>
      </trkpt>
      <trkpt lat="43.45519" lon="1.3047">
        <ele>227.9</ele>
        <time>2023-08-15T06:42:05Z</time>
      </trkpt>
      <trkpt lat="43.45534" lon="1.30502">
        <ele>227.1</ele>
        <time>2023-08-15T06:42:09Z</time>
      </trkpt>
      <trkpt lat="43.45546" lon="1.30525">
        <ele>226.9</ele>
        <time>2023-08-15T06:42:12Z</time>
      </trkpt>
      <trkpt lat="43.45563" lon="1.30554">
        <ele>226.9</ele>
        <time>2023-08-15T06:42:16Z</time>
      </trkpt>
      <trkpt lat="43.45585" lon="1.3058">
        <ele>227</ele>
        <time>2023-08-15T06:42:20Z</time>
      </trkpt>
      <trkpt lat="43.45609" lon="1.306">
        <ele>227</ele>
        <time>2023-08-15T06:42:24Z</time>
      </trkpt>
      <trkpt lat="43.45628" lon="1.30614">
        <ele>227</ele>
        <time>2023-08-15T06:42:27Z</time>
      </trkpt>
      <trkpt lat="43.45654" lon="1.30629">
        <ele>226.8</ele>
        <time>2023-08-15T06:42:31Z</time>
      </trkpt>
      <trkpt lat="43.4568" lon="1.30644">
        <ele>227</ele>
        <time>2023-08-15T06:42:35Z</time>
      </trkpt>
      <trkpt lat="43.45706" lon="1.30658">
        <ele>226.8</ele>
        <time>2023-08-15T06:42:39Z</time>
      </trkpt>
      <trkpt lat="43.45733" lon="1.30672">
        <ele>227.1</ele>
        <time>2023-08-15T06:42:43Z</time>
      </trkpt>
      <trkpt lat="43.45753" lon="1.30683">
        <ele>226.9</ele>
        <time>2023-08-15T06:42:46Z</time>
      </trkpt>
      <trkpt lat="43.45779" lon="1.30697">
        <ele>226.9</ele>
        <time>2023-08-15T06:42:50Z</time>
      </trkpt>
      <trkpt lat="43.45806" lon="1.30712">
        <ele>227.2</ele>
        <time>2023-08-15T06:42:54Z</time>
      </trkpt>
      <trkpt lat="43.45832" lon="1.30726">
        <ele>227.8</ele>
        <time>2023-08-15T06:42:58Z</time>
      </trkpt>
      <trkpt lat="43.45858" lon="1.30739">
        <ele>227.8</ele>
        <time>2023-08-15T06:43:02Z</time>
      </trkpt>
      <trkpt lat="43.45884" lon="1.30755">
        <ele>227.4</ele>
        <time>2023-08-15T06:43:06Z</time>
      </trkpt>
      <trkpt lat="43.4591" lon="1.30774">
        <ele>227.4</ele>
        <time>2023-08-15T06:43:10Z</time>
      </trkpt>
      <trkpt lat="43.45931" lon="1.30799">
        <ele>227.6</ele>
        <time>2023-08-15T06:43:14Z</time>
      </trkpt>
      <trkpt lat="43.45949" lon="1.30829">
        <ele>227.7</ele>
        <time>2023-08-15T06:43:18Z</time>
      </trkpt>
      <trkpt lat="43.45965" lon="1.30861">
        <ele>228.2</ele>
        <time>2023-08-15T06:43:22Z</time>
      </trkpt>
      <trkpt lat="43.45976" lon="1.30896">
        <ele>229.1</ele>
        <time>2023-08-15T06:43:26Z</time>
      </trkpt>
      <trkpt lat="43.45981" lon="1.30924">
        <ele>230.2</ele>
        <time>2023-08-15T06:43:29Z</time>
      </trkpt>
      <trkpt lat="43.45984" lon="1.30964">
        <ele>231.5</ele>
        <time>2023-08-15T06:43:33Z</time>
      </trkpt>
      <trkpt lat="43.45984" lon="1.31003">
        <ele>231.5</ele>
        <time>2023-08-15T06:43:37Z</time>
      </trkpt>
      <trkpt lat="43.45985" lon="1.31032">
        <ele>232.2</ele>
        <time>2023-08-15T06:43:40Z</time>
      </trkpt>
      <trkpt lat="43.45985" lon="1.31072">
        <ele>231.3</ele>
        <time>2023-08-15T06:43:44Z</time>
      </trkpt>
      <trkpt lat="43.45986" lon="1.31113">
        <ele>230.3</ele>
        <time>2023-08-15T06:43:48Z</time>
      </trkpt>
      <trkpt lat="43.45986" lon="1.31143">
        <ele>229.1</ele>
        <time>2023-08-15T06:43:51Z</time>
      </trkpt>
      <trkpt lat="43.45987" lon="1.31171">
        <ele>228.1</ele>
        <time>2023-08-15T06:43:54Z</time>
      </trkpt>
      <trkpt lat="43.45987" lon="1.3121">
        <ele>226.9</ele>
        <time>2023-08-15T06:43:58Z</time>
      </trkpt>
      <trkpt lat="43.45989" lon="1.31253">
        <ele>226</ele>
        <time>2023-08-15T06:44:02Z</time>
      </trkpt>
      <trkpt lat="43.45994" lon="1.31294">
        <ele>225.4</ele>
        <time>2023-08-15T06:44:06Z</time>
      </trkpt>
      <trkpt lat="43.45996" lon="1.31333">
        <ele>225.4</ele>
        <time>2023-08-15T06:44:10Z</time>
      </trkpt>
      <trkpt lat="43.45995" lon="1.31363">
        <ele>225.5</ele>
        <time>2023-08-15T06:44:13Z</time>
      </trkpt>
      <trkpt lat="43.4599" lon="1.314">
        <ele>224.8</ele>
        <time>2023-08-15T06:44:17Z</time>
      </trkpt>
      <trkpt lat="43.45988" lon="1.31428">
        <ele>224.6</ele>
        <time>2023-08-15T06:44:20Z</time>
      </trkpt>
      <trkpt lat="43.45991" lon="1.31468">
        <ele>224.5</ele>
        <time>2023-08-15T06:44:24Z</time>
      </trkpt>
      <trkpt lat="43.46" lon="1.31504">
        <ele>224.4</ele>
        <time>2023-08-15T06:44:28Z</time>
      </trkpt>
      <trkpt lat="43.46014" lon="1.3154">
        <ele>224.2</ele>
        <time>2023-08-15T06:44:32Z</time>
      </trkpt>
      <trkpt lat="43.46034" lon="1.3157">
        <ele>223</ele>
        <time>2023-08-15T06:44:36Z</time>
      </trkpt>
      <trkpt lat="43.46053" lon="1.31592">
        <ele>222.7</ele>
        <time>2023-08-15T06:44:39Z</time>
      </trkpt>
      <trkpt lat="43.46072" lon="1.31612">
        <ele>222.3</ele>
        <time>2023-08-15T06:44:42Z</time>
      </trkpt>
      <trkpt lat="43.46092" lon="1.31644">
        <ele>222.2</ele>
        <time>2023-08-15T06:44:46Z</time>
      </trkpt>
      <trkpt lat="43.46103" lon="1.31668">
        <ele>222.1</ele>
        <time>2023-08-15T06:44:49Z</time>
      </trkpt>
      <trkpt lat="43.46113" lon="1.31692">
        <ele>222.2</ele>
        <time>2023-08-15T06:44:52Z</time>
      </trkpt>
      <trkpt lat="43.46126" lon="1.31728">
        <ele>222.5</ele>
        <time>2023-08-15T06:44:56Z</time>
      </trkpt>
      <trkpt lat="43.46139" lon="1.31763">
        <ele>222.6</ele>
        <time>2023-08-15T06:45:00Z</time>
      </trkpt>
      <trkpt lat="43.46146" lon="1.31786">
        <ele>222.2</ele>
        <time>2023-08-15T06:45:03Z</time>
      </trkpt>
      <trkpt lat="43.46151" lon="1.31803">
        <ele>222.7</ele>
        <time>2023-08-15T06:45:06Z</time>
      </trkpt>
      <trkpt lat="43.46156" lon="1.31823">
        <ele>222.3</ele>
        <time>2023-08-15T06:45:10Z</time>
      </trkpt>
      <trkpt lat="43.46159" lon="1.31843">
        <ele>221.7</ele>
        <time>2023-08-15T06:45:13Z</time>
      </trkpt>
      <trkpt lat="43.46163" lon="1.31871">
        <ele>222.1</ele>
        <time>2023-08-15T06:45:17Z</time>
      </trkpt>
      <trkpt lat="43.46166" lon="1.31893">
        <ele>221.8</ele>
        <time>2023-08-15T06:45:20Z</time>
      </trkpt>
      <trkpt lat="43.46171" lon="1.31922">
        <ele>222.1</ele>
        <time>2023-08-15T06:45:24Z</time>
      </trkpt>
      <trkpt lat="43.46177" lon="1.31944">
        <ele>221.7</ele>
        <time>2023-08-15T06:45:27Z</time>
      </trkpt>
      <trkpt lat="43.46183" lon="1.31963">
        <ele>221.7</ele>
        <time>2023-08-15T06:45:30Z</time>
      </trkpt>
      <trkpt lat="43.46188" lon="1.31982">
        <ele>221.7</ele>
        <time>2023-08-15T06:45:33Z</time>
      </trkpt>
      <trkpt lat="43.46197" lon="1.32012">
        <ele>221.8</ele>
        <time>2023-08-15T06:45:37Z</time>
      </trkpt>
      <trkpt lat="43.46206" lon="1.32044">
        <ele>221.7</ele>
        <time>2023-08-15T06:45:41Z</time>
      </trkpt>
      <trkpt lat="43.46213" lon="1.3207">
        <ele>222.1</ele>
        <time>2023-08-15T06:45:44Z</time>
      </trkpt>
      <trkpt lat="43.46221" lon="1.32101">
        <ele>222.6</ele>
        <time>2023-08-15T06:45:48Z</time>
      </trkpt>
      <trkpt lat="43.46228" lon="1.32128">
        <ele>222.4</ele>
        <time>2023-08-15T06:45:52Z</time>
      </trkpt>
      <trkpt lat="43.46234" lon="1.32142">
        <ele>222.6</ele>
        <time>2023-08-15T06:45:56Z</time>
      </trkpt>
      <trkpt lat="43.46246" lon="1.32147">
        <ele>222.6</ele>
        <time>2023-08-15T06:45:59Z</time>
      </trkpt>
      <trkpt lat="43.46261" lon="1.3215">
        <ele>222.8</ele>
        <time>2023-08-15T06:46:03Z</time>
      </trkpt>
      <trkpt lat="43.46267" lon="1.32162">
        <ele>222.5</ele>
        <time>2023-08-15T06:46:06Z</time>
      </trkpt>
      <trkpt lat="43.46258" lon="1.32191">
        <ele>221.5</ele>
        <time>2023-08-15T06:46:10Z</time>
      </trkpt>
      <trkpt lat="43.46248" lon="1.32218">
        <ele>219.4</ele>
        <time>2023-08-15T06:46:13Z</time>
      </trkpt>
      <trkpt lat="43.46237" lon="1.32251">
        <ele>219.4</ele>
        <time>2023-08-15T06:46:16Z</time>
      </trkpt>
      <trkpt lat="43.46223" lon="1.32282">
        <ele>219.4</ele>
        <time>2023-08-15T06:46:19Z</time>
      </trkpt>
      <trkpt lat="43.4621" lon="1.32316">
        <ele>219.4</ele>
        <time>2023-08-15T06:46:23Z</time>
      </trkpt>
      <trkpt lat="43.46202" lon="1.32336">
        <ele>220.3</ele>
        <time>2023-08-15T06:46:27Z</time>
      </trkpt>
      <trkpt lat="43.46198" lon="1.32347">
        <ele>220.3</ele>
        <time>2023-08-15T06:46:30Z</time>
      </trkpt>
      <trkpt lat="43.462" lon="1.32364">
        <ele>221.1</ele>
        <time>2023-08-15T06:46:33Z</time>
      </trkpt>
      <trkpt lat="43.46197" lon="1.32385">
        <ele>219.4</ele>
        <time>2023-08-15T06:46:37Z</time>
      </trkpt>
      <trkpt lat="43.46193" lon="1.32406">
        <ele>219.4</ele>
        <time>2023-08-15T06:46:40Z</time>
      </trkpt>
      <trkpt lat="43.46188" lon="1.32425">
        <ele>217.4</ele>
        <time>2023-08-15T06:46:44Z</time>
      </trkpt>
      <trkpt lat="43.46179" lon="1.32435">
        <ele>217.4</ele>
        <time>2023-08-15T06:46:47Z</time>
      </trkpt>
      <trkpt lat="43.46163" lon="1.32439">
        <ele>217.4</ele>
        <time>2023-08-15T06:46:50Z</time>
      </trkpt>
      <trkpt lat="43.46147" lon="1.32437">
        <ele>217.4</ele>
        <time>2023-08-15T06:46:53Z</time>
      </trkpt>
      <trkpt lat="43.46124" lon="1.32436">
        <ele>217.4</ele>
        <time>2023-08-15T06:46:57Z</time>
      </trkpt>
      <trkpt lat="43.46108" lon="1.3244">
        <ele>217.4</ele>
        <time>2023-08-15T06:47:00Z</time>
      </trkpt>
      <trkpt lat="43.46089" lon="1.32448">
        <ele>217.4</ele>
        <time>2023-08-15T06:47:04Z</time>
      </trkpt>
      <trkpt lat="43.4607" lon="1.32446">
        <ele>219.4</ele>
        <time>2023-08-15T06:47:08Z</time>
      </trkpt>
      <trkpt lat="43.46052" lon="1.32454">
        <ele>219.4</ele>
        <time>2023-08-15T06:47:12Z</time>
      </trkpt>
      <trkpt lat="43.46035" lon="1.32472">
        <ele>219.4</ele>
        <time>2023-08-15T06:47:16Z</time>
      </trkpt>
      <trkpt lat="43.46022" lon="1.32489">
        <ele>219.4</ele>
        <time>2023-08-15T06:47:19Z</time>
      </trkpt>
      <trkpt lat="43.46003" lon="1.32514">
        <ele>220.3</ele>
        <time>2023-08-15T06:47:23Z</time>
      </trkpt>
      <trkpt lat="43.45989" lon="1.3253">
        <ele>220.3</ele>
        <time>2023-08-15T06:47:26Z</time>
      </trkpt>
      <trkpt lat="43.45967" lon="1.32554">
        <ele>217.4</ele>
        <time>2023-08-15T06:47:30Z</time>
      </trkpt>
      <trkpt lat="43.4595" lon="1.32572">
        <ele>217.4</ele>
        <time>2023-08-15T06:47:33Z</time>
      </trkpt>
      <trkpt lat="43.45929" lon="1.32594">
        <ele>217.4</ele>
        <time>2023-08-15T06:47:37Z</time>
      </trkpt>
      <trkpt lat="43.45917" lon="1.32607">
        <ele>217.4</ele>
        <time>2023-08-15T06:47:40Z</time>
      </trkpt>
      <trkpt lat="43.45906" lon="1.3262">
        <ele>217.4</ele>
        <time>2023-08-15T06:47:44Z</time>
      </trkpt>
      <trkpt lat="43.45895" lon="1.32637">
        <ele>219.2</ele>
        <time>2023-08-15T06:47:47Z</time>
      </trkpt>
      <trkpt lat="43.45889" lon="1.3266">
        <ele>219.2</ele>
        <time>2023-08-15T06:47:50Z</time>
      </trkpt>
      <trkpt lat="43.45872" lon="1.32685">
        <ele>219.2</ele>
        <time>2023-08-15T06:47:54Z</time>
      </trkpt>
      <trkpt lat="43.45853" lon="1.32706">
        <ele>219.2</ele>
        <time>2023-08-15T06:47:58Z</time>
      </trkpt>
      <trkpt lat="43.45839" lon="1.32723">
        <ele>219.2</ele>
        <time>2023-08-15T06:48:01Z</time>
      </trkpt>
      <trkpt lat="43.45826" lon="1.32739">
        <ele>219.2</ele>
        <time>2023-08-15T06:48:04Z</time>
      </trkpt>
      <trkpt lat="43.45806" lon="1.32762">
        <ele>219.2</ele>
        <time>2023-08-15T06:48:08Z</time>
      </trkpt>
      <trkpt lat="43.4579" lon="1.32781">
        <ele>219.2</ele>
        <time>2023-08-15T06:48:11Z</time>
      </trkpt>
      <trkpt lat="43.4577" lon="1.32805">
        <ele>219.2</ele>
        <time>2023-08-15T06:48:15Z</time>
      </trkpt>
      <trkpt lat="43.45754" lon="1.32823">
        <ele>219.2</ele>
        <time>2023-08-15T06:48:19Z</time>
      </trkpt>
      <trkpt lat="43.45746" lon="1.32834">
        <ele>219.2</ele>
        <time>2023-08-15T06:48:22Z</time>
      </trkpt>
      <trkpt lat="43.45735" lon="1.32847">
        <ele>219.2</ele>
        <time>2023-08-15T06:48:25Z</time>
      </trkpt>
      <trkpt lat="43.45719" lon="1.32866">
        <ele>218.4</ele>
        <time>2023-08-15T06:48:29Z</time>
      </trkpt>
      <trkpt lat="43.45697" lon="1.32891">
        <ele>218.3</ele>
        <time>2023-08-15T06:48:33Z</time>
      </trkpt>
      <trkpt lat="43.45676" lon="1.32916">
        <ele>218.3</ele>
        <time>2023-08-15T06:48:37Z</time>
      </trkpt>
      <trkpt lat="43.45662" lon="1.32933">
        <ele>218.3</ele>
        <time>2023-08-15T06:48:40Z</time>
      </trkpt>
      <trkpt lat="43.45643" lon="1.32956">
        <ele>218.3</ele>
        <time>2023-08-15T06:48:44Z</time>
      </trkpt>
      <trkpt lat="43.45622" lon="1.32981">
        <ele>218.3</ele>
        <time>2023-08-15T06:48:48Z</time>
      </trkpt>
      <trkpt lat="43.45609" lon="1.33">
        <ele>218.3</ele>
        <time>2023-08-15T06:48:51Z</time>
      </trkpt>
      <trkpt lat="43.45596" lon="1.33025">
        <ele>218.3</ele>
        <time>2023-08-15T06:48:55Z</time>
      </trkpt>
      <trkpt lat="43.45588" lon="1.33038">
        <ele>218.3</ele>
        <time>2023-08-15T06:48:58Z</time>
      </trkpt>
      <trkpt lat="43.45576" lon="1.33049">
        <ele>218.3</ele>
        <time>2023-08-15T06:49:01Z</time>
      </trkpt>
      <trkpt lat="43.45566" lon="1.33061">
        <ele>219</ele>
        <time>2023-08-15T06:49:04Z</time>
      </trkpt>
      <trkpt lat="43.4557" lon="1.33088">
        <ele>219</ele>
        <time>2023-08-15T06:49:08Z</time>
      </trkpt>
      <trkpt lat="43.45584" lon="1.33108">
        <ele>218.6</ele>
        <time>2023-08-15T06:49:11Z</time>
      </trkpt>
      <trkpt lat="43.45603" lon="1.33139">
        <ele>218.6</ele>
        <time>2023-08-15T06:49:15Z</time>
      </trkpt>
      <trkpt lat="43.45618" lon="1.33159">
        <ele>218.6</ele>
        <time>2023-08-15T06:49:18Z</time>
      </trkpt>
      <trkpt lat="43.45636" lon="1.33186">
        <ele>218.6</ele>
        <time>2023-08-15T06:49:22Z</time>
      </trkpt>
      <trkpt lat="43.45654" lon="1.33213">
        <ele>218.6</ele>
        <time>2023-08-15T06:49:26Z</time>
      </trkpt>
      <trkpt lat="43.45675" lon="1.33234">
        <ele>218.6</ele>
        <time>2023-08-15T06:49:30Z</time>
      </trkpt>
      <trkpt lat="43.45692" lon="1.33249">
        <ele>218.6</ele>
        <time>2023-08-15T06:49:33Z</time>
      </trkpt>
      <trkpt lat="43.4571" lon="1.33274">
        <ele>218.6</ele>
        <time>2023-08-15T06:49:37Z</time>
      </trkpt>
      <trkpt lat="43.45724" lon="1.33294">
        <ele>218.6</ele>
        <time>2023-08-15T06:49:40Z</time>
      </trkpt>
      <trkpt lat="43.45743" lon="1.3332">
        <ele>218.6</ele>
        <time>2023-08-15T06:49:44Z</time>
      </trkpt>
      <trkpt lat="43.45757" lon="1.3334">
        <ele>218.6</ele>
        <time>2023-08-15T06:49:47Z</time>
      </trkpt>
      <trkpt lat="43.45772" lon="1.33357">
        <ele>218.6</ele>
        <time>2023-08-15T06:49:50Z</time>
      </trkpt>
      <trkpt lat="43.45793" lon="1.33381">
        <ele>218.6</ele>
        <time>2023-08-15T06:49:54Z</time>
      </trkpt>
      <trkpt lat="43.45812" lon="1.33406">
        <ele>218.6</ele>
        <time>2023-08-15T06:49:58Z</time>
      </trkpt>
      <trkpt lat="43.45831" lon="1.33431">
        <ele>218.6</ele>
        <time>2023-08-15T06:50:02Z</time>
      </trkpt>
      <trkpt lat="43.45849" lon="1.33456">
        <ele>218.6</ele>
        <time>2023-08-15T06:50:06Z</time>
      </trkpt>
      <trkpt lat="43.45872" lon="1.33476">
        <ele>218.6</ele>
        <time>2023-08-15T06:50:10Z</time>
      </trkpt>
      <trkpt lat="43.4589" lon="1.33483">
        <ele>218.6</ele>
        <time>2023-08-15T06:50:13Z</time>
      </trkpt>
      <trkpt lat="43.45912" lon="1.33496">
        <ele>218.6</ele>
        <time>2023-08-15T06:50:17Z</time>
      </trkpt>
      <trkpt lat="43.45925" lon="1.33516">
        <ele>218.6</ele>
        <time>2023-08-15T06:50:20Z</time>
      </trkpt>
      <trkpt lat="43.45936" lon="1.3354">
        <ele>218.6</ele>
        <time>2023-08-15T06:50:23Z</time>
      </trkpt>
      <trkpt lat="43.45946" lon="1.33576">
        <ele>218.6</ele>
        <time>2023-08-15T06:50:27Z</time>
      </trkpt>
      <trkpt lat="43.45956" lon="1.33599">
        <ele>218.6</ele>
        <time>2023-08-15T06:50:30Z</time>
      </trkpt>
      <trkpt lat="43.45973" lon="1.33626">
        <ele>218.6</ele>
        <time>2023-08-15T06:50:34Z</time>
      </trkpt>
      <trkpt lat="43.45988" lon="1.33645">
        <ele>218.6</ele>
        <time>2023-08-15T06:50:37Z</time>
      </trkpt>
      <trkpt lat="43.46008" lon="1.33669">
        <ele>218.6</ele>
        <time>2023-08-15T06:50:41Z</time>
      </trkpt>
      <trkpt lat="43.46028" lon="1.33695">
        <ele>218.6</ele>
        <time>2023-08-15T06:50:45Z</time>
      </trkpt>
      <trkpt lat="43.4605" lon="1.33723">
        <ele>218.6</ele>
        <time>2023-08-15T06:50:49Z</time>
      </trkpt>
      <trkpt lat="43.46067" lon="1.3375">
        <ele>218.6</ele>
        <time>2023-08-15T06:50:53Z</time>
      </trkpt>
      <trkpt lat="43.46071" lon="1.33773">
        <ele>218.6</ele>
        <time>2023-08-15T06:50:56Z</time>
      </trkpt>
      <trkpt lat="43.46064" lon="1.33798">
        <ele>218.6</ele>
        <time>2023-08-15T06:51:00Z</time>
      </trkpt>
      <trkpt lat="43.46072" lon="1.33823">
        <ele>218.6</ele>
        <time>2023-08-15T06:51:04Z</time>
      </trkpt>
      <trkpt lat="43.46073" lon="1.33845">
        <ele>220.6</ele>
        <time>2023-08-15T06:51:07Z</time>
      </trkpt>
      <trkpt lat="43.46068" lon="1.33874">
        <ele>222.4</ele>
        <time>2023-08-15T06:51:11Z</time>
      </trkpt>
      <trkpt lat="43.46062" lon="1.33904">
        <ele>223.5</ele>
        <time>2023-08-15T06:51:15Z</time>
      </trkpt>
      <trkpt lat="43.46055" lon="1.33935">
        <ele>224.8</ele>
        <time>2023-08-15T06:51:19Z</time>
      </trkpt>
      <trkpt lat="43.4605" lon="1.33959">
        <ele>226</ele>
        <time>2023-08-15T06:51:22Z</time>
      </trkpt>
      <trkpt lat="43.46045" lon="1.33983">
        <ele>228</ele>
        <time>2023-08-15T06:51:25Z</time>
      </trkpt>
      <trkpt lat="43.46039" lon="1.34014">
        <ele>229.2</ele>
        <time>2023-08-15T06:51:29Z</time>
      </trkpt>
      <trkpt lat="43.46032" lon="1.34045">
        <ele>230.9</ele>
        <time>2023-08-15T06:51:33Z</time>
      </trkpt>
      <trkpt lat="43.46026" lon="1.34067">
        <ele>232</ele>
        <time>2023-08-15T06:51:36Z</time>
      </trkpt>
      <trkpt lat="43.46022" lon="1.34089">
        <ele>233.4</ele>
        <time>2023-08-15T06:51:39Z</time>
      </trkpt>
      <trkpt lat="43.46017" lon="1.34119">
        <ele>235</ele>
        <time>2023-08-15T06:51:43Z</time>
      </trkpt>
      <trkpt lat="43.46014" lon="1.34142">
        <ele>236.3</ele>
        <time>2023-08-15T06:51:46Z</time>
      </trkpt>
      <trkpt lat="43.46012" lon="1.34166">
        <ele>237.5</ele>
        <time>2023-08-15T06:51:49Z</time>
      </trkpt>
      <trkpt lat="43.4601" lon="1.34191">
        <ele>238.7</ele>
        <time>2023-08-15T06:51:52Z</time>
      </trkpt>
      <trkpt lat="43.4601" lon="1.34226">
        <ele>240</ele>
        <time>2023-08-15T06:51:56Z</time>
      </trkpt>
      <trkpt lat="43.46014" lon="1.34263">
        <ele>241.5</ele>
        <time>2023-08-15T06:52:00Z</time>
      </trkpt>
      <trkpt lat="43.46021" lon="1.3429">
        <ele>242.3</ele>
        <time>2023-08-15T06:52:03Z</time>
      </trkpt>
      <trkpt lat="43.46034" lon="1.34326">
        <ele>243.2</ele>
        <time>2023-08-15T06:52:07Z</time>
      </trkpt>
      <trkpt lat="43.46047" lon="1.34356">
        <ele>243.5</ele>
        <time>2023-08-15T06:52:11Z</time>
      </trkpt>
      <trkpt lat="43.46056" lon="1.34377">
        <ele>242.9</ele>
        <time>2023-08-15T06:52:14Z</time>
      </trkpt>
      <trkpt lat="43.46064" lon="1.34406">
        <ele>243.2</ele>
        <time>2023-08-15T06:52:18Z</time>
      </trkpt>
      <trkpt lat="43.46072" lon="1.34434">
        <ele>241.6</ele>
        <time>2023-08-15T06:52:22Z</time>
      </trkpt>
      <trkpt lat="43.46086" lon="1.34453">
        <ele>242.6</ele>
        <time>2023-08-15T06:52:25Z</time>
      </trkpt>
      <trkpt lat="43.461" lon="1.34486">
        <ele>241.8</ele>
        <time>2023-08-15T06:52:29Z</time>
      </trkpt>
      <trkpt lat="43.46114" lon="1.34523">
        <ele>241.2</ele>
        <time>2023-08-15T06:52:33Z</time>
      </trkpt>
      <trkpt lat="43.46126" lon="1.3455">
        <ele>240.7</ele>
        <time>2023-08-15T06:52:36Z</time>
      </trkpt>
      <trkpt lat="43.46136" lon="1.34575">
        <ele>240.3</ele>
        <time>2023-08-15T06:52:39Z</time>
      </trkpt>
      <trkpt lat="43.46146" lon="1.34601">
        <ele>239.7</ele>
        <time>2023-08-15T06:52:42Z</time>
      </trkpt>
      <trkpt lat="43.46158" lon="1.34633">
        <ele>239.2</ele>
        <time>2023-08-15T06:52:46Z</time>
      </trkpt>
      <trkpt lat="43.4617" lon="1.34666">
        <ele>238.7</ele>
        <time>2023-08-15T06:52:50Z</time>
      </trkpt>
      <trkpt lat="43.46178" lon="1.34692">
        <ele>238</ele>
        <time>2023-08-15T06:52:53Z</time>
      </trkpt>
      <trkpt lat="43.46186" lon="1.34726">
        <ele>237.4</ele>
        <time>2023-08-15T06:52:57Z</time>
      </trkpt>
      <trkpt lat="43.4619" lon="1.3476">
        <ele>236.7</ele>
        <time>2023-08-15T06:53:01Z</time>
      </trkpt>
      <trkpt lat="43.46191" lon="1.34782">
        <ele>236.2</ele>
        <time>2023-08-15T06:53:04Z</time>
      </trkpt>
      <trkpt lat="43.46188" lon="1.34802">
        <ele>235.5</ele>
        <time>2023-08-15T06:53:07Z</time>
      </trkpt>
      <trkpt lat="43.46188" lon="1.34822">
        <ele>235.1</ele>
        <time>2023-08-15T06:53:11Z</time>
      </trkpt>
      <trkpt lat="43.46202" lon="1.34833">
        <ele>234.6</ele>
        <time>2023-08-15T06:53:15Z</time>
      </trkpt>
      <trkpt lat="43.46227" lon="1.34841">
        <ele>231.6</ele>
        <time>2023-08-15T06:53:19Z</time>
      </trkpt>
      <trkpt lat="43.4625" lon="1.34855">
        <ele>232.5</ele>
        <time>2023-08-15T06:53:22Z</time>
      </trkpt>
      <trkpt lat="43.46278" lon="1.34872">
        <ele>232.4</ele>
        <time>2023-08-15T06:53:26Z</time>
      </trkpt>
      <trkpt lat="43.46304" lon="1.34889">
        <ele>232</ele>
        <time>2023-08-15T06:53:30Z</time>
      </trkpt>
      <trkpt lat="43.46322" lon="1.34901">
        <ele>231.8</ele>
        <time>2023-08-15T06:53:33Z</time>
      </trkpt>
      <trkpt lat="43.46348" lon="1.34917">
        <ele>232</ele>
        <time>2023-08-15T06:53:37Z</time>
      </trkpt>
      <trkpt lat="43.46367" lon="1.34929">
        <ele>232</ele>
        <time>2023-08-15T06:53:40Z</time>
      </trkpt>
      <trkpt lat="43.46388" lon="1.34937">
        <ele>231.6</ele>
        <time>2023-08-15T06:53:43Z</time>
      </trkpt>
      <trkpt lat="43.46409" lon="1.34941">
        <ele>231.2</ele>
        <time>2023-08-15T06:53:46Z</time>
      </trkpt>
      <trkpt lat="43.46437" lon="1.34946">
        <ele>231.3</ele>
        <time>2023-08-15T06:53:50Z</time>
      </trkpt>
      <trkpt lat="43.46459" lon="1.3495">
        <ele>231.3</ele>
        <time>2023-08-15T06:53:53Z</time>
      </trkpt>
      <trkpt lat="43.46481" lon="1.34953">
        <ele>231.3</ele>
        <time>2023-08-15T06:53:56Z</time>
      </trkpt>
      <trkpt lat="43.46502" lon="1.34956">
        <ele>231.5</ele>
        <time>2023-08-15T06:53:59Z</time>
      </trkpt>
      <trkpt lat="43.46529" lon="1.34953">
        <ele>232</ele>
        <time>2023-08-15T06:54:03Z</time>
      </trkpt>
      <trkpt lat="43.46549" lon="1.34943">
        <ele>232.5</ele>
        <time>2023-08-15T06:54:06Z</time>
      </trkpt>
      <trkpt lat="43.46573" lon="1.34923">
        <ele>233.7</ele>
        <time>2023-08-15T06:54:10Z</time>
      </trkpt>
      <trkpt lat="43.46594" lon="1.34898">
        <ele>234.7</ele>
        <time>2023-08-15T06:54:14Z</time>
      </trkpt>
      <trkpt lat="43.46607" lon="1.34879">
        <ele>233.7</ele>
        <time>2023-08-15T06:54:17Z</time>
      </trkpt>
      <trkpt lat="43.46629" lon="1.34864">
        <ele>235.8</ele>
        <time>2023-08-15T06:54:21Z</time>
      </trkpt>
      <trkpt lat="43.46649" lon="1.34865">
        <ele>235.7</ele>
        <time>2023-08-15T06:54:24Z</time>
      </trkpt>
      <trkpt lat="43.4667" lon="1.34873">
        <ele>235.6</ele>
        <time>2023-08-15T06:54:27Z</time>
      </trkpt>
      <trkpt lat="43.467" lon="1.34887">
        <ele>235.4</ele>
        <time>2023-08-15T06:54:31Z</time>
      </trkpt>
      <trkpt lat="43.46721" lon="1.34898">
        <ele>235</ele>
        <time>2023-08-15T06:54:34Z</time>
      </trkpt>
      <trkpt lat="43.46747" lon="1.34913">
        <ele>233.7</ele>
        <time>2023-08-15T06:54:38Z</time>
      </trkpt>
      <trkpt lat="43.46773" lon="1.34928">
        <ele>232.6</ele>
        <time>2023-08-15T06:54:42Z</time>
      </trkpt>
      <trkpt lat="43.46794" lon="1.3494">
        <ele>232.1</ele>
        <time>2023-08-15T06:54:45Z</time>
      </trkpt>
      <trkpt lat="43.46822" lon="1.34958">
        <ele>232</ele>
        <time>2023-08-15T06:54:49Z</time>
      </trkpt>
      <trkpt lat="43.46844" lon="1.3497">
        <ele>231</ele>
        <time>2023-08-15T06:54:52Z</time>
      </trkpt>
      <trkpt lat="43.46873" lon="1.3499">
        <ele>230.5</ele>
        <time>2023-08-15T06:54:56Z</time>
      </trkpt>
      <trkpt lat="43.46893" lon="1.35005">
        <ele>231</ele>
        <time>2023-08-15T06:54:59Z</time>
      </trkpt>
      <trkpt lat="43.46918" lon="1.35026">
        <ele>230.4</ele>
        <time>2023-08-15T06:55:03Z</time>
      </trkpt>
      <trkpt lat="43.46941" lon="1.35044">
        <ele>229.3</ele>
        <time>2023-08-15T06:55:07Z</time>
      </trkpt>
      <trkpt lat="43.46964" lon="1.35063">
        <ele>229</ele>
        <time>2023-08-15T06:55:11Z</time>
      </trkpt>
      <trkpt lat="43.46983" lon="1.35079">
        <ele>228.9</ele>
        <time>2023-08-15T06:55:14Z</time>
      </trkpt>
      <trkpt lat="43.47002" lon="1.35094">
        <ele>229.1</ele>
        <time>2023-08-15T06:55:17Z</time>
      </trkpt>
      <trkpt lat="43.47027" lon="1.35113">
        <ele>229.2</ele>
        <time>2023-08-15T06:55:21Z</time>
      </trkpt>
      <trkpt lat="43.47046" lon="1.35129">
        <ele>228.6</ele>
        <time>2023-08-15T06:55:24Z</time>
      </trkpt>
      <trkpt lat="43.47064" lon="1.35144">
        <ele>227.8</ele>
        <time>2023-08-15T06:55:27Z</time>
      </trkpt>
      <trkpt lat="43.4709" lon="1.35163">
        <ele>227.2</ele>
        <time>2023-08-15T06:55:31Z</time>
      </trkpt>
      <trkpt lat="43.47114" lon="1.35183">
        <ele>226.8</ele>
        <time>2023-08-15T06:55:35Z</time>
      </trkpt>
      <trkpt lat="43.47138" lon="1.35199">
        <ele>227.3</ele>
        <time>2023-08-15T06:55:39Z</time>
      </trkpt>
      <trkpt lat="43.47166" lon="1.35207">
        <ele>226.9</ele>
        <time>2023-08-15T06:55:43Z</time>
      </trkpt>
      <trkpt lat="43.47187" lon="1.35208">
        <ele>227.7</ele>
        <time>2023-08-15T06:55:46Z</time>
      </trkpt>
      <trkpt lat="43.47218" lon="1.35209">
        <ele>227.4</ele>
        <time>2023-08-15T06:55:50Z</time>
      </trkpt>
      <trkpt lat="43.4724" lon="1.3521">
        <ele>226.8</ele>
        <time>2023-08-15T06:55:53Z</time>
      </trkpt>
      <trkpt lat="43.47269" lon="1.35212">
        <ele>226.5</ele>
        <time>2023-08-15T06:55:57Z</time>
      </trkpt>
      <trkpt lat="43.47298" lon="1.35217">
        <ele>225.4</ele>
        <time>2023-08-15T06:56:01Z</time>
      </trkpt>
      <trkpt lat="43.47329" lon="1.35221">
        <ele>224.2</ele>
        <time>2023-08-15T06:56:05Z</time>
      </trkpt>
      <trkpt lat="43.47361" lon="1.35217">
        <ele>223.4</ele>
        <time>2023-08-15T06:56:09Z</time>
      </trkpt>
      <trkpt lat="43.47383" lon="1.35214">
        <ele>222.7</ele>
        <time>2023-08-15T06:56:12Z</time>
      </trkpt>
      <trkpt lat="43.47411" lon="1.35215">
        <ele>222.2</ele>
        <time>2023-08-15T06:56:16Z</time>
      </trkpt>
      <trkpt lat="43.4743" lon="1.3522">
        <ele>222.2</ele>
        <time>2023-08-15T06:56:19Z</time>
      </trkpt>
      <trkpt lat="43.47451" lon="1.35234">
        <ele>222</ele>
        <time>2023-08-15T06:56:23Z</time>
      </trkpt>
      <trkpt lat="43.47467" lon="1.35245">
        <ele>221.1</ele>
        <time>2023-08-15T06:56:27Z</time>
      </trkpt>
      <trkpt lat="43.47489" lon="1.35257">
        <ele>219.8</ele>
        <time>2023-08-15T06:56:31Z</time>
      </trkpt>
      <trkpt lat="43.47518" lon="1.35258">
        <ele>219.1</ele>
        <time>2023-08-15T06:56:35Z</time>
      </trkpt>
      <trkpt lat="43.47546" lon="1.3525">
        <ele>218.9</ele>
        <time>2023-08-15T06:56:39Z</time>
      </trkpt>
      <trkpt lat="43.47566" lon="1.35243">
        <ele>218.8</ele>
        <time>2023-08-15T06:56:42Z</time>
      </trkpt>
      <trkpt lat="43.47585" lon="1.35237">
        <ele>218.8</ele>
        <time>2023-08-15T06:56:46Z</time>
      </trkpt>
      <trkpt lat="43.47599" lon="1.35232">
        <ele>219.2</ele>
        <time>2023-08-15T06:56:50Z</time>
      </trkpt>
      <trkpt lat="43.47622" lon="1.35225">
        <ele>219</ele>
        <time>2023-08-15T06:56:54Z</time>
      </trkpt>
      <trkpt lat="43.47639" lon="1.35218">
        <ele>217.2</ele>
        <time>2023-08-15T06:56:57Z</time>
      </trkpt>
      <trkpt lat="43.47656" lon="1.35207">
        <ele>217.2</ele>
        <time>2023-08-15T06:57:00Z</time>
      </trkpt>
      <trkpt lat="43.4767" lon="1.35192">
        <ele>217.2</ele>
        <time>2023-08-15T06:57:03Z</time>
      </trkpt>
      <trkpt lat="43.47689" lon="1.35169">
        <ele>217.2</ele>
        <time>2023-08-15T06:57:07Z</time>
      </trkpt>
      <trkpt lat="43.47706" lon="1.35138">
        <ele>217.2</ele>
        <time>2023-08-15T06:57:11Z</time>
      </trkpt>
      <trkpt lat="43.47716" lon="1.35115">
        <ele>217.2</ele>
        <time>2023-08-15T06:57:14Z</time>
      </trkpt>
      <trkpt lat="43.47723" lon="1.35096">
        <ele>217.2</ele>
        <time>2023-08-15T06:57:18Z</time>
      </trkpt>
      <trkpt lat="43.47733" lon="1.35073">
        <ele>217.2</ele>
        <time>2023-08-15T06:57:22Z</time>
      </trkpt>
      <trkpt lat="43.47744" lon="1.35054">
        <ele>217.2</ele>
        <time>2023-08-15T06:57:25Z</time>
      </trkpt>
      <trkpt lat="43.47759" lon="1.35027">
        <ele>217.2</ele>
        <time>2023-08-15T06:57:29Z</time>
      </trkpt>
      <trkpt lat="43.47771" lon="1.35006">
        <ele>217.2</ele>
        <time>2023-08-15T06:57:32Z</time>
      </trkpt>
      <trkpt lat="43.47786" lon="1.34977">
        <ele>217.2</ele>
        <time>2023-08-15T06:57:36Z</time>
      </trkpt>
      <trkpt lat="43.47798" lon="1.34954">
        <ele>217.2</ele>
        <time>2023-08-15T06:57:40Z</time>
      </trkpt>
      <trkpt lat="43.47805" lon="1.3493">
        <ele>217.2</ele>
        <time>2023-08-15T06:57:44Z</time>
      </trkpt>
      <trkpt lat="43.4781" lon="1.34897">
        <ele>215.9</ele>
        <time>2023-08-15T06:57:48Z</time>
      </trkpt>
      <trkpt lat="43.47816" lon="1.34861">
        <ele>215.9</ele>
        <time>2023-08-15T06:57:52Z</time>
      </trkpt>
      <trkpt lat="43.47828" lon="1.34826">
        <ele>215.9</ele>
        <time>2023-08-15T06:57:56Z</time>
      </trkpt>
      <trkpt lat="43.47836" lon="1.34808">
        <ele>215.9</ele>
        <time>2023-08-15T06:57:59Z</time>
      </trkpt>
      <trkpt lat="43.47855" lon="1.34803">
        <ele>215.9</ele>
        <time>2023-08-15T06:58:03Z</time>
      </trkpt>
      <trkpt lat="43.47876" lon="1.34824">
        <ele>215.9</ele>
        <time>2023-08-15T06:58:07Z</time>
      </trkpt>
      <trkpt lat="43.47895" lon="1.34841">
        <ele>215.9</ele>
        <time>2023-08-15T06:58:11Z</time>
      </trkpt>
      <trkpt lat="43.47908" lon="1.34852">
        <ele>215.9</ele>
        <time>2023-08-15T06:58:14Z</time>
      </trkpt>
      <trkpt lat="43.47921" lon="1.3485">
        <ele>215.9</ele>
        <time>2023-08-15T06:58:18Z</time>
      </trkpt>
      <trkpt lat="43.47929" lon="1.34829">
        <ele>215.9</ele>
        <time>2023-08-15T06:58:21Z</time>
      </trkpt>
      <trkpt lat="43.47936" lon="1.34807">
        <ele>214.1</ele>
        <time>2023-08-15T06:58:24Z</time>
      </trkpt>
      <trkpt lat="43.47942" lon="1.34788">
        <ele>214.1</ele>
        <time>2023-08-15T06:58:27Z</time>
      </trkpt>
      <trkpt lat="43.47951" lon="1.34775">
        <ele>214.1</ele>
        <time>2023-08-15T06:58:31Z</time>
      </trkpt>
      <trkpt lat="43.47963" lon="1.34777">
        <ele>214.2</ele>
        <time>2023-08-15T06:58:34Z</time>
      </trkpt>
      <trkpt lat="43.47988" lon="1.34786">
        <ele>214.2</ele>
        <time>2023-08-15T06:58:38Z</time>
      </trkpt>
      <trkpt lat="43.48007" lon="1.34794">
        <ele>214.2</ele>
        <time>2023-08-15T06:58:41Z</time>
      </trkpt>
      <trkpt lat="43.48027" lon="1.34802">
        <ele>214.2</ele>
        <time>2023-08-15T06:58:44Z</time>
      </trkpt>
      <trkpt lat="43.48055" lon="1.34815">
        <ele>214.2</ele>
        <time>2023-08-15T06:58:48Z</time>
      </trkpt>
      <trkpt lat="43.48075" lon="1.34824">
        <ele>214.2</ele>
        <time>2023-08-15T06:58:51Z</time>
      </trkpt>
      <trkpt lat="43.48093" lon="1.34836">
        <ele>214.2</ele>
        <time>2023-08-15T06:58:54Z</time>
      </trkpt>
      <trkpt lat="43.48115" lon="1.34854">
        <ele>214.2</ele>
        <time>2023-08-15T06:58:58Z</time>
      </trkpt>
      <trkpt lat="43.48133" lon="1.34875">
        <ele>214.2</ele>
        <time>2023-08-15T06:59:02Z</time>
      </trkpt>
      <trkpt lat="43.48151" lon="1.34895">
        <ele>214.2</ele>
        <time>2023-08-15T06:59:06Z</time>
      </trkpt>
      <trkpt lat="43.48165" lon="1.34911">
        <ele>214.2</ele>
        <time>2023-08-15T06:59:09Z</time>
      </trkpt>
      <trkpt lat="43.48185" lon="1.34932">
        <ele>214.2</ele>
        <time>2023-08-15T06:59:13Z</time>
      </trkpt>
      <trkpt lat="43.48205" lon="1.34952">
        <ele>214.2</ele>
        <time>2023-08-15T06:59:17Z</time>
      </trkpt>
      <trkpt lat="43.48226" lon="1.34969">
        <ele>214.2</ele>
        <time>2023-08-15T06:59:21Z</time>
      </trkpt>
      <trkpt lat="43.48241" lon="1.34985">
        <ele>214.2</ele>
        <time>2023-08-15T06:59:24Z</time>
      </trkpt>
      <trkpt lat="43.48255" lon="1.35002">
        <ele>214.2</ele>
        <time>2023-08-15T06:59:27Z</time>
      </trkpt>
      <trkpt lat="43.48268" lon="1.35014">
        <ele>214.2</ele>
        <time>2023-08-15T06:59:30Z</time>
      </trkpt>
      <trkpt lat="43.48283" lon="1.35033">
        <ele>214.2</ele>
        <time>2023-08-15T06:59:34Z</time>
      </trkpt>
      <trkpt lat="43.48298" lon="1.35047">
        <ele>214.2</ele>
        <time>2023-08-15T06:59:37Z</time>
      </trkpt>
      <trkpt lat="43.48324" lon="1.3506">
        <ele>214.2</ele>
        <time>2023-08-15T06:59:41Z</time>
      </trkpt>
      <trkpt lat="43.4835" lon="1.35073">
        <ele>214.2</ele>
        <time>2023-08-15T06:59:45Z</time>
      </trkpt>
      <trkpt lat="43.48376" lon="1.35084">
        <ele>214.2</ele>
        <time>2023-08-15T06:59:49Z</time>
      </trkpt>
      <trkpt lat="43.48403" lon="1.35097">
        <ele>214.2</ele>
        <time>2023-08-15T06:59:53Z</time>
      </trkpt>
      <trkpt lat="43.48431" lon="1.35111">
        <ele>214.2</ele>
        <time>2023-08-15T06:59:57Z</time>
      </trkpt>
      <trkpt lat="43.48459" lon="1.35124">
        <ele>214.2</ele>
        <time>2023-08-15T07:00:01Z</time>
      </trkpt>
      <trkpt lat="43.48478" lon="1.35135">
        <ele>214.2</ele>
        <time>2023-08-15T07:00:04Z</time>
      </trkpt>
      <trkpt lat="43.48504" lon="1.35151">
        <ele>214.2</ele>
        <time>2023-08-15T07:00:08Z</time>
      </trkpt>
      <trkpt lat="43.4853" lon="1.35167">
        <ele>214.2</ele>
        <time>2023-08-15T07:00:12Z</time>
      </trkpt>
      <trkpt lat="43.48551" lon="1.35175">
        <ele>214.2</ele>
        <time>2023-08-15T07:00:15Z</time>
      </trkpt>
      <trkpt lat="43.48579" lon="1.3518">
        <ele>214.2</ele>
        <time>2023-08-15T07:00:19Z</time>
      </trkpt>
      <trkpt lat="43.486" lon="1.35182">
        <ele>214.2</ele>
        <time>2023-08-15T07:00:22Z</time>
      </trkpt>
      <trkpt lat="43.48622" lon="1.35182">
        <ele>214.2</ele>
        <time>2023-08-15T07:00:25Z</time>
      </trkpt>
      <trkpt lat="43.4865" lon="1.35182">
        <ele>214.2</ele>
        <time>2023-08-15T07:00:29Z</time>
      </trkpt>
      <trkpt lat="43.48672" lon="1.35183">
        <ele>214.2</ele>
        <time>2023-08-15T07:00:32Z</time>
      </trkpt>
      <trkpt lat="43.487" lon="1.35183">
        <ele>214.2</ele>
        <time>2023-08-15T07:00:36Z</time>
      </trkpt>
      <trkpt lat="43.48721" lon="1.35183">
        <ele>214.2</ele>
        <time>2023-08-15T07:00:39Z</time>
      </trkpt>
      <trkpt lat="43.48742" lon="1.35184">
        <ele>214.2</ele>
        <time>2023-08-15T07:00:42Z</time>
      </trkpt>
      <trkpt lat="43.48763" lon="1.35183">
        <ele>214.2</ele>
        <time>2023-08-15T07:00:45Z</time>
      </trkpt>
      <trkpt lat="43.48792" lon="1.35182">
        <ele>214.2</ele>
        <time>2023-08-15T07:00:49Z</time>
      </trkpt>
      <trkpt lat="43.48819" lon="1.35183">
        <ele>214.2</ele>
        <time>2023-08-15T07:00:53Z</time>
      </trkpt>
      <trkpt lat="43.48847" lon="1.35185">
        <ele>214.2</ele>
        <time>2023-08-15T07:00:57Z</time>
      </trkpt>
      <trkpt lat="43.48868" lon="1.35188">
        <ele>214.2</ele>
        <time>2023-08-15T07:01:00Z</time>
      </trkpt>
      <trkpt lat="43.48897" lon="1.35193">
        <ele>215.1</ele>
        <time>2023-08-15T07:01:04Z</time>
      </trkpt>
      <trkpt lat="43.48919" lon="1.35196">
        <ele>214.8</ele>
        <time>2023-08-15T07:01:07Z</time>
      </trkpt>
      <trkpt lat="43.48946" lon="1.35198">
        <ele>214.3</ele>
        <time>2023-08-15T07:01:11Z</time>
      </trkpt>
      <trkpt lat="43.48974" lon="1.35202">
        <ele>214.3</ele>
        <time>2023-08-15T07:01:15Z</time>
      </trkpt>
      <trkpt lat="43.48995" lon="1.35204">
        <ele>214.1</ele>
        <time>2023-08-15T07:01:18Z</time>
      </trkpt>
      <trkpt lat="43.49017" lon="1.35208">
        <ele>214.1</ele>
        <time>2023-08-15T07:01:21Z</time>
      </trkpt>
      <trkpt lat="43.49038" lon="1.35211">
        <ele>213.7</ele>
        <time>2023-08-15T07:01:24Z</time>
      </trkpt>
      <trkpt lat="43.49066" lon="1.35216">
        <ele>214.1</ele>
        <time>2023-08-15T07:01:28Z</time>
      </trkpt>
      <trkpt lat="43.49087" lon="1.35221">
        <ele>213.7</ele>
        <time>2023-08-15T07:01:31Z</time>
      </trkpt>
      <trkpt lat="43.49108" lon="1.35228">
        <ele>214</ele>
        <time>2023-08-15T07:01:34Z</time>
      </trkpt>
      <trkpt lat="43.49135" lon="1.35241">
        <ele>214</ele>
        <time>2023-08-15T07:01:38Z</time>
      </trkpt>
      <trkpt lat="43.49161" lon="1.35259">
        <ele>214.3</ele>
        <time>2023-08-15T07:01:42Z</time>
      </trkpt>
      <trkpt lat="43.49186" lon="1.35277">
        <ele>213.8</ele>
        <time>2023-08-15T07:01:46Z</time>
      </trkpt>
      <trkpt lat="43.49211" lon="1.35295">
        <ele>216.7</ele>
        <time>2023-08-15T07:01:50Z</time>
      </trkpt>
      <trkpt lat="43.4923" lon="1.35309">
        <ele>213.7</ele>
        <time>2023-08-15T07:01:53Z</time>
      </trkpt>
      <trkpt lat="43.49248" lon="1.35323">
        <ele>213.7</ele>
        <time>2023-08-15T07:01:56Z</time>
      </trkpt>
      <trkpt lat="43.49266" lon="1.35337">
        <ele>213.8</ele>
        <time>2023-08-15T07:01:59Z</time>
      </trkpt>
      <trkpt lat="43.4929" lon="1.35359">
        <ele>213.4</ele>
        <time>2023-08-15T07:02:03Z</time>
      </trkpt>
      <trkpt lat="43.49311" lon="1.35386">
        <ele>213.5</ele>
        <time>2023-08-15T07:02:07Z</time>
      </trkpt>
      <trkpt lat="43.4933" lon="1.35415">
        <ele>214</ele>
        <time>2023-08-15T07:02:11Z</time>
      </trkpt>
      <trkpt lat="43.49345" lon="1.35436">
        <ele>214.1</ele>
        <time>2023-08-15T07:02:14Z</time>
      </trkpt>
      <trkpt lat="43.49365" lon="1.35464">
        <ele>214.1</ele>
        <time>2023-08-15T07:02:18Z</time>
      </trkpt>
      <trkpt lat="43.49384" lon="1.35493">
        <ele>213.8</ele>
        <time>2023-08-15T07:02:22Z</time>
      </trkpt>
      <trkpt lat="43.49402" lon="1.35521">
        <ele>213.4</ele>
        <time>2023-08-15T07:02:26Z</time>
      </trkpt>
      <trkpt lat="43.49415" lon="1.35545">
        <ele>213</ele>
        <time>2023-08-15T07:02:29Z</time>
      </trkpt>
      <trkpt lat="43.49427" lon="1.35568">
        <ele>213.1</ele>
        <time>2023-08-15T07:02:32Z</time>
      </trkpt>
      <trkpt lat="43.49443" lon="1.356">
        <ele>213</ele>
        <time>2023-08-15T07:02:36Z</time>
      </trkpt>
      <trkpt lat="43.49456" lon="1.35624">
        <ele>213.1</ele>
        <time>2023-08-15T07:02:39Z</time>
      </trkpt>
      <trkpt lat="43.49468" lon="1.35648">
        <ele>213.2</ele>
        <time>2023-08-15T07:02:42Z</time>
      </trkpt>
      <trkpt lat="43.49485" lon="1.35681">
        <ele>213.2</ele>
        <time>2023-08-15T07:02:46Z</time>
      </trkpt>
      <trkpt lat="43.49497" lon="1.35705">
        <ele>213.2</ele>
        <time>2023-08-15T07:02:49Z</time>
      </trkpt>
      <trkpt lat="43.49507" lon="1.35729">
        <ele>212.7</ele>
        <time>2023-08-15T07:02:52Z</time>
      </trkpt>
      <trkpt lat="43.49517" lon="1.35755">
        <ele>213.3</ele>
        <time>2023-08-15T07:02:55Z</time>
      </trkpt>
      <trkpt lat="43.49527" lon="1.35792">
        <ele>213.4</ele>
        <time>2023-08-15T07:02:59Z</time>
      </trkpt>
      <trkpt lat="43.49536" lon="1.35829">
        <ele>213.5</ele>
        <time>2023-08-15T07:03:03Z</time>
      </trkpt>
      <trkpt lat="43.4955" lon="1.35864">
        <ele>214.2</ele>
        <time>2023-08-15T07:03:07Z</time>
      </trkpt>
      <trkpt lat="43.49561" lon="1.35887">
        <ele>213.7</ele>
        <time>2023-08-15T07:03:11Z</time>
      </trkpt>
      <trkpt lat="43.49568" lon="1.35899">
        <ele>213.5</ele>
        <time>2023-08-15T07:03:14Z</time>
      </trkpt>
      <trkpt lat="43.4958" lon="1.35923">
        <ele>213.3</ele>
        <time>2023-08-15T07:03:18Z</time>
      </trkpt>
      <trkpt lat="43.49593" lon="1.35947">
        <ele>213</ele>
        <time>2023-08-15T07:03:22Z</time>
      </trkpt>
      <trkpt lat="43.49607" lon="1.35971">
        <ele>212.6</ele>
        <time>2023-08-15T07:03:25Z</time>
      </trkpt>
      <trkpt lat="43.49627" lon="1.36001">
        <ele>212.7</ele>
        <time>2023-08-15T07:03:29Z</time>
      </trkpt>
      <trkpt lat="43.49642" lon="1.36021">
        <ele>212.9</ele>
        <time>2023-08-15T07:03:32Z</time>
      </trkpt>
      <trkpt lat="43.49662" lon="1.36048">
        <ele>212.6</ele>
        <time>2023-08-15T07:03:36Z</time>
      </trkpt>
      <trkpt lat="43.49678" lon="1.36068">
        <ele>212.9</ele>
        <time>2023-08-15T07:03:39Z</time>
      </trkpt>
      <trkpt lat="43.497" lon="1.36095">
        <ele>212.8</ele>
        <time>2023-08-15T07:03:43Z</time>
      </trkpt>
      <trkpt lat="43.49719" lon="1.36124">
        <ele>212.4</ele>
        <time>2023-08-15T07:03:47Z</time>
      </trkpt>
      <trkpt lat="43.49735" lon="1.36155">
        <ele>212.1</ele>
        <time>2023-08-15T07:03:51Z</time>
      </trkpt>
      <trkpt lat="43.4975" lon="1.36187">
        <ele>211.9</ele>
        <time>2023-08-15T07:03:55Z</time>
      </trkpt>
      <trkpt lat="43.49764" lon="1.36221">
        <ele>212.1</ele>
        <time>2023-08-15T07:03:59Z</time>
      </trkpt>
      <trkpt lat="43.49776" lon="1.36245">
        <ele>212.1</ele>
        <time>2023-08-15T07:04:02Z</time>
      </trkpt>
      <trkpt lat="43.49788" lon="1.3627">
        <ele>212.3</ele>
        <time>2023-08-15T07:04:05Z</time>
      </trkpt>
      <trkpt lat="43.49803" lon="1.36303">
        <ele>211.4</ele>
        <time>2023-08-15T07:04:09Z</time>
      </trkpt>
      <trkpt lat="43.49814" lon="1.36328">
        <ele>211.2</ele>
        <time>2023-08-15T07:04:12Z</time>
      </trkpt>
      <trkpt lat="43.4983" lon="1.36361">
        <ele>210.8</ele>
        <time>2023-08-15T07:04:16Z</time>
      </trkpt>
      <trkpt lat="43.49846" lon="1.36393">
        <ele>210.4</ele>
        <time>2023-08-15T07:04:20Z</time>
      </trkpt>
      <trkpt lat="43.49857" lon="1.36418">
        <ele>210.4</ele>
        <time>2023-08-15T07:04:23Z</time>
      </trkpt>
      <trkpt lat="43.49869" lon="1.36442">
        <ele>210.8</ele>
        <time>2023-08-15T07:04:26Z</time>
      </trkpt>
      <trkpt lat="43.49884" lon="1.36475">
        <ele>210.7</ele>
        <time>2023-08-15T07:04:30Z</time>
      </trkpt>
      <trkpt lat="43.499" lon="1.36506">
        <ele>210.8</ele>
        <time>2023-08-15T07:04:34Z</time>
      </trkpt>
      <trkpt lat="43.4991" lon="1.36526">
        <ele>210.7</ele>
        <time>2023-08-15T07:04:37Z</time>
      </trkpt>
      <trkpt lat="43.49915" lon="1.36542">
        <ele>210.6</ele>
        <time>2023-08-15T07:04:40Z</time>
      </trkpt>
      <trkpt lat="43.49912" lon="1.36558">
        <ele>210.3</ele>
        <time>2023-08-15T07:04:43Z</time>
      </trkpt>
      <trkpt lat="43.49898" lon="1.36581">
        <ele>208.5</ele>
        <time>2023-08-15T07:04:47Z</time>
      </trkpt>
      <trkpt lat="43.49884" lon="1.36605">
        <ele>208.5</ele>
        <time>2023-08-15T07:04:51Z</time>
      </trkpt>
      <trkpt lat="43.49868" lon="1.36636">
        <ele>208.5</ele>
        <time>2023-08-15T07:04:55Z</time>
      </trkpt>
      <trkpt lat="43.49855" lon="1.3666">
        <ele>208.5</ele>
        <time>2023-08-15T07:04:58Z</time>
      </trkpt>
      <trkpt lat="43.49839" lon="1.36688">
        <ele>208.5</ele>
        <time>2023-08-15T07:05:02Z</time>
      </trkpt>
      <trkpt lat="43.49829" lon="1.36708">
        <ele>208.5</ele>
        <time>2023-08-15T07:05:05Z</time>
      </trkpt>
      <trkpt lat="43.49813" lon="1.36735">
        <ele>208.5</ele>
        <time>2023-08-15T07:05:09Z</time>
      </trkpt>
      <trkpt lat="43.498" lon="1.36757">
        <ele>210.2</ele>
        <time>2023-08-15T07:05:12Z</time>
      </trkpt>
      <trkpt lat="43.49789" lon="1.36781">
        <ele>208.5</ele>
        <time>2023-08-15T07:05:15Z</time>
      </trkpt>
      <trkpt lat="43.49774" lon="1.36812">
        <ele>208.5</ele>
        <time>2023-08-15T07:05:19Z</time>
      </trkpt>
      <trkpt lat="43.49764" lon="1.36845">
        <ele>208.5</ele>
        <time>2023-08-15T07:05:23Z</time>
      </trkpt>
      <trkpt lat="43.49759" lon="1.36868">
        <ele>208.5</ele>
        <time>2023-08-15T07:05:26Z</time>
      </trkpt>
      <trkpt lat="43.4975" lon="1.36892">
        <ele>208.5</ele>
        <time>2023-08-15T07:05:30Z</time>
      </trkpt>
      <trkpt lat="43.49737" lon="1.36924">
        <ele>208.5</ele>
        <time>2023-08-15T07:05:34Z</time>
      </trkpt>
      <trkpt lat="43.49726" lon="1.36946">
        <ele>206.5</ele>
        <time>2023-08-15T07:05:37Z</time>
      </trkpt>
      <trkpt lat="43.49713" lon="1.36978">
        <ele>206.5</ele>
        <time>2023-08-15T07:05:41Z</time>
      </trkpt>
      <trkpt lat="43.497" lon="1.3701">
        <ele>206.5</ele>
        <time>2023-08-15T07:05:45Z</time>
      </trkpt>
      <trkpt lat="43.49686" lon="1.3704">
        <ele>206.5</ele>
        <time>2023-08-15T07:05:49Z</time>
      </trkpt>
      <trkpt lat="43.49674" lon="1.37062">
        <ele>206.5</ele>
        <time>2023-08-15T07:05:52Z</time>
      </trkpt>
      <trkpt lat="43.4966" lon="1.37094">
        <ele>206.5</ele>
        <time>2023-08-15T07:05:56Z</time>
      </trkpt>
      <trkpt lat="43.49646" lon="1.37126">
        <ele>206.5</ele>
        <time>2023-08-15T07:06:00Z</time>
      </trkpt>
      <trkpt lat="43.49633" lon="1.37157">
        <ele>206.5</ele>
        <time>2023-08-15T07:06:04Z</time>
      </trkpt>
      <trkpt lat="43.49623" lon="1.37185">
        <ele>206.5</ele>
        <time>2023-08-15T07:06:08Z</time>
      </trkpt>
      <trkpt lat="43.49614" lon="1.37209">
        <ele>206.5</ele>
        <time>2023-08-15T07:06:11Z</time>
      </trkpt>
      <trkpt lat="43.49602" lon="1.37244">
        <ele>208.5</ele>
        <time>2023-08-15T07:06:15Z</time>
      </trkpt>
      <trkpt lat="43.49589" lon="1.37273">
        <ele>208.5</ele>
        <time>2023-08-15T07:06:19Z</time>
      </trkpt>
      <trkpt lat="43.49575" lon="1.37302">
        <ele>208.5</ele>
        <time>2023-08-15T07:06:23Z</time>
      </trkpt>
      <trkpt lat="43.49564" lon="1.37322">
        <ele>208.5</ele>
        <time>2023-08-15T07:06:26Z</time>
      </trkpt>
      <trkpt lat="43.4955" lon="1.37346">
        <ele>208.5</ele>
        <time>2023-08-15T07:06:30Z</time>
      </trkpt>
      <trkpt lat="43.49536" lon="1.37357">
        <ele>208.5</ele>
        <time>2023-08-15T07:06:33Z</time>
      </trkpt>
      <trkpt lat="43.49524" lon="1.37384">
        <ele>208.5</ele>
        <time>2023-08-15T07:06:37Z</time>
      </trkpt>
      <trkpt lat="43.49508" lon="1.37419">
        <ele>208.5</ele>
        <time>2023-08-15T07:06:41Z</time>
      </trkpt>
      <trkpt lat="43.49492" lon="1.3745">
        <ele>209.3</ele>
        <time>2023-08-15T07:06:45Z</time>
      </trkpt>
      <trkpt lat="43.49483" lon="1.37472">
        <ele>209.5</ele>
        <time>2023-08-15T07:06:48Z</time>
      </trkpt>
      <trkpt lat="43.49477" lon="1.37491">
        <ele>209.6</ele>
        <time>2023-08-15T07:06:51Z</time>
      </trkpt>
      <trkpt lat="43.49471" lon="1.3751">
        <ele>209.8</ele>
        <time>2023-08-15T07:06:55Z</time>
      </trkpt>
      <trkpt lat="43.49464" lon="1.37543">
        <ele>209.9</ele>
        <time>2023-08-15T07:06:59Z</time>
      </trkpt>
      <trkpt lat="43.49457" lon="1.37578">
        <ele>209.5</ele>
        <time>2023-08-15T07:07:03Z</time>
      </trkpt>
      <trkpt lat="43.49446" lon="1.37613">
        <ele>209.8</ele>
        <time>2023-08-15T07:07:07Z</time>
      </trkpt>
      <trkpt lat="43.49435" lon="1.37637">
        <ele>209.8</ele>
        <time>2023-08-15T07:07:10Z</time>
      </trkpt>
      <trkpt lat="43.4942" lon="1.37666">
        <ele>209.7</ele>
        <time>2023-08-15T07:07:14Z</time>
      </trkpt>
      <trkpt lat="43.49405" lon="1.37694">
        <ele>209.6</ele>
        <time>2023-08-15T07:07:18Z</time>
      </trkpt>
      <trkpt lat="43.49392" lon="1.37712">
        <ele>209.4</ele>
        <time>2023-08-15T07:07:21Z</time>
      </trkpt>
      <trkpt lat="43.49375" lon="1.3774">
        <ele>209.1</ele>
        <time>2023-08-15T07:07:25Z</time>
      </trkpt>
      <trkpt lat="43.49361" lon="1.37761">
        <ele>209.6</ele>
        <time>2023-08-15T07:07:28Z</time>
      </trkpt>
      <trkpt lat="43.49342" lon="1.37788">
        <ele>209.4</ele>
        <time>2023-08-15T07:07:32Z</time>
      </trkpt>
      <trkpt lat="43.49328" lon="1.37807">
        <ele>209.3</ele>
        <time>2023-08-15T07:07:35Z</time>
      </trkpt>
      <trkpt lat="43.4931" lon="1.37833">
        <ele>209.2</ele>
        <time>2023-08-15T07:07:39Z</time>
      </trkpt>
      <trkpt lat="43.4929" lon="1.37856">
        <ele>209.3</ele>
        <time>2023-08-15T07:07:43Z</time>
      </trkpt>
      <trkpt lat="43.49272" lon="1.37882">
        <ele>209.4</ele>
        <time>2023-08-15T07:07:47Z</time>
      </trkpt>
      <trkpt lat="43.49253" lon="1.37909">
        <ele>209.4</ele>
        <time>2023-08-15T07:07:51Z</time>
      </trkpt>
      <trkpt lat="43.4924" lon="1.37928">
        <ele>209.6</ele>
        <time>2023-08-15T07:07:54Z</time>
      </trkpt>
      <trkpt lat="43.49231" lon="1.37941">
        <ele>209.6</ele>
        <time>2023-08-15T07:07:57Z</time>
      </trkpt>
      <trkpt lat="43.49221" lon="1.37952">
        <ele>209.5</ele>
        <time>2023-08-15T07:08:01Z</time>
      </trkpt>
      <trkpt lat="43.49208" lon="1.37962">
        <ele>211.1</ele>
        <time>2023-08-15T07:08:04Z</time>
      </trkpt>
      <trkpt lat="43.49201" lon="1.37986">
        <ele>211.2</ele>
        <time>2023-08-15T07:08:08Z</time>
      </trkpt>
      <trkpt lat="43.49191" lon="1.38012">
        <ele>211.2</ele>
        <time>2023-08-15T07:08:11Z</time>
      </trkpt>
      <trkpt lat="43.4918" lon="1.38048">
        <ele>211.2</ele>
        <time>2023-08-15T07:08:15Z</time>
      </trkpt>
      <trkpt lat="43.4917" lon="1.38083">
        <ele>211.2</ele>
        <time>2023-08-15T07:08:19Z</time>
      </trkpt>
      <trkpt lat="43.49162" lon="1.38107">
        <ele>211.2</ele>
        <time>2023-08-15T07:08:22Z</time>
      </trkpt>
      <trkpt lat="43.49156" lon="1.38132">
        <ele>211.2</ele>
        <time>2023-08-15T07:08:25Z</time>
      </trkpt>
      <trkpt lat="43.49149" lon="1.38166">
        <ele>211.2</ele>
        <time>2023-08-15T07:08:29Z</time>
      </trkpt>
      <trkpt lat="43.49142" lon="1.38193">
        <ele>211.2</ele>
        <time>2023-08-15T07:08:32Z</time>
      </trkpt>
      <trkpt lat="43.49128" lon="1.38225">
        <ele>211.2</ele>
        <time>2023-08-15T07:08:36Z</time>
      </trkpt>
      <trkpt lat="43.49116" lon="1.38249">
        <ele>211.2</ele>
        <time>2023-08-15T07:08:39Z</time>
      </trkpt>
      <trkpt lat="43.49099" lon="1.38281">
        <ele>211.2</ele>
        <time>2023-08-15T07:08:43Z</time>
      </trkpt>
      <trkpt lat="43.49086" lon="1.38304">
        <ele>211.2</ele>
        <time>2023-08-15T07:08:46Z</time>
      </trkpt>
      <trkpt lat="43.49074" lon="1.38328">
        <ele>211.2</ele>
        <time>2023-08-15T07:08:50Z</time>
      </trkpt>
      <trkpt lat="43.49065" lon="1.38342">
        <ele>211.2</ele>
        <time>2023-08-15T07:08:54Z</time>
      </trkpt>
      <trkpt lat="43.49054" lon="1.38364">
        <ele>210.4</ele>
        <time>2023-08-15T07:08:57Z</time>
      </trkpt>
      <trkpt lat="43.49039" lon="1.38398">
        <ele>210.4</ele>
        <time>2023-08-15T07:09:01Z</time>
      </trkpt>
      <trkpt lat="43.49023" lon="1.38436">
        <ele>210.4</ele>
        <time>2023-08-15T07:09:05Z</time>
      </trkpt>
      <trkpt lat="43.49008" lon="1.38472">
        <ele>210.4</ele>
        <time>2023-08-15T07:09:09Z</time>
      </trkpt>
      <trkpt lat="43.48994" lon="1.38505">
        <ele>210.4</ele>
        <time>2023-08-15T07:09:13Z</time>
      </trkpt>
      <trkpt lat="43.4898" lon="1.38538">
        <ele>210.4</ele>
        <time>2023-08-15T07:09:17Z</time>
      </trkpt>
      <trkpt lat="43.48965" lon="1.38572">
        <ele>210.4</ele>
        <time>2023-08-15T07:09:21Z</time>
      </trkpt>
      <trkpt lat="43.48954" lon="1.38596">
        <ele>210.4</ele>
        <time>2023-08-15T07:09:24Z</time>
      </trkpt>
      <trkpt lat="43.4894" lon="1.38629">
        <ele>210.4</ele>
        <time>2023-08-15T07:09:28Z</time>
      </trkpt>
      <trkpt lat="43.48929" lon="1.38654">
        <ele>210.4</ele>
        <time>2023-08-15T07:09:31Z</time>
      </trkpt>
      <trkpt lat="43.48914" lon="1.38688">
        <ele>210.4</ele>
        <time>2023-08-15T07:09:35Z</time>
      </trkpt>
      <trkpt lat="43.48904" lon="1.38714">
        <ele>210.4</ele>
        <time>2023-08-15T07:09:38Z</time>
      </trkpt>
      <trkpt lat="43.48894" lon="1.38739">
        <ele>210.4</ele>
        <time>2023-08-15T07:09:41Z</time>
      </trkpt>
      <trkpt lat="43.48885" lon="1.38765">
        <ele>210.4</ele>
        <time>2023-08-15T07:09:44Z</time>
      </trkpt>
      <trkpt lat="43.48872" lon="1.388">
        <ele>210.4</ele>
        <time>2023-08-15T07:09:48Z</time>
      </trkpt>
      <trkpt lat="43.48861" lon="1.38835">
        <ele>210.4</ele>
        <time>2023-08-15T07:09:52Z</time>
      </trkpt>
      <trkpt lat="43.48852" lon="1.38862">
        <ele>210.4</ele>
        <time>2023-08-15T07:09:55Z</time>
      </trkpt>
      <trkpt lat="43.48843" lon="1.38889">
        <ele>210.4</ele>
        <time>2023-08-15T07:09:58Z</time>
      </trkpt>
      <trkpt lat="43.48832" lon="1.38926">
        <ele>210.4</ele>
        <time>2023-08-15T07:10:02Z</time>
      </trkpt>
      <trkpt lat="43.48821" lon="1.38962">
        <ele>210.4</ele>
        <time>2023-08-15T07:10:06Z</time>
      </trkpt>
      <trkpt lat="43.48811" lon="1.38995">
        <ele>210.4</ele>
        <time>2023-08-15T07:10:10Z</time>
      </trkpt>
      <trkpt lat="43.488" lon="1.39027">
        <ele>210.4</ele>
        <time>2023-08-15T07:10:14Z</time>
      </trkpt>
      <trkpt lat="43.48788" lon="1.39065">
        <ele>210.4</ele>
        <time>2023-08-15T07:10:18Z</time>
      </trkpt>
      <trkpt lat="43.48779" lon="1.39093">
        <ele>210.4</ele>
        <time>2023-08-15T07:10:21Z</time>
      </trkpt>
      <trkpt lat="43.48768" lon="1.39127">
        <ele>210.4</ele>
        <time>2023-08-15T07:10:25Z</time>
      </trkpt>
      <trkpt lat="43.48756" lon="1.39163">
        <ele>210.4</ele>
        <time>2023-08-15T07:10:29Z</time>
      </trkpt>
      <trkpt lat="43.48746" lon="1.39197">
        <ele>210.4</ele>
        <time>2023-08-15T07:10:33Z</time>
      </trkpt>
      <trkpt lat="43.48739" lon="1.39216">
        <ele>210.4</ele>
        <time>2023-08-15T07:10:37Z</time>
      </trkpt>
      <trkpt lat="43.4873" lon="1.39225">
        <ele>210.4</ele>
        <time>2023-08-15T07:10:40Z</time>
      </trkpt>
      <trkpt lat="43.48725" lon="1.3923">
        <ele>209.5</ele>
        <time>2023-08-15T07:10:43Z</time>
      </trkpt>
      <trkpt lat="43.48721" lon="1.39247">
        <ele>208.5</ele>
        <time>2023-08-15T07:10:47Z</time>
      </trkpt>
      <trkpt lat="43.48723" lon="1.39258">
        <ele>208.4</ele>
        <time>2023-08-15T07:10:51Z</time>
      </trkpt>
      <trkpt lat="43.48726" lon="1.39281">
        <ele>208.2</ele>
        <time>2023-08-15T07:10:55Z</time>
      </trkpt>
      <trkpt lat="43.4873" lon="1.3931">
        <ele>208.4</ele>
        <time>2023-08-15T07:10:58Z</time>
      </trkpt>
      <trkpt lat="43.48735" lon="1.39343">
        <ele>207.7</ele>
        <time>2023-08-15T07:11:02Z</time>
      </trkpt>
      <trkpt lat="43.48738" lon="1.39376">
        <ele>207.9</ele>
        <time>2023-08-15T07:11:06Z</time>
      </trkpt>
      <trkpt lat="43.48741" lon="1.39405">
        <ele>207.9</ele>
        <time>2023-08-15T07:11:09Z</time>
      </trkpt>
      <trkpt lat="43.48744" lon="1.39435">
        <ele>209.5</ele>
        <time>2023-08-15T07:11:12Z</time>
      </trkpt>
      <trkpt lat="43.48747" lon="1.3947">
        <ele>208.6</ele>
        <time>2023-08-15T07:11:16Z</time>
      </trkpt>
      <trkpt lat="43.48749" lon="1.39504">
        <ele>208.4</ele>
        <time>2023-08-15T07:11:20Z</time>
      </trkpt>
      <trkpt lat="43.48753" lon="1.39531">
        <ele>208.4</ele>
        <time>2023-08-15T07:11:24Z</time>
      </trkpt>
      <trkpt lat="43.48755" lon="1.39544">
        <ele>208.6</ele>
        <time>2023-08-15T07:11:28Z</time>
      </trkpt>
      <trkpt lat="43.48761" lon="1.39564">
        <ele>208.5</ele>
        <time>2023-08-15T07:11:31Z</time>
      </trkpt>
      <trkpt lat="43.4877" lon="1.39596">
        <ele>206.7</ele>
        <time>2023-08-15T07:11:35Z</time>
      </trkpt>
      <trkpt lat="43.48778" lon="1.39622">
        <ele>206.7</ele>
        <time>2023-08-15T07:11:38Z</time>
      </trkpt>
      <trkpt lat="43.48788" lon="1.39655">
        <ele>206.7</ele>
        <time>2023-08-15T07:11:42Z</time>
      </trkpt>
      <trkpt lat="43.48799" lon="1.3969">
        <ele>206.7</ele>
        <time>2023-08-15T07:11:46Z</time>
      </trkpt>
      <trkpt lat="43.48811" lon="1.39724">
        <ele>206.7</ele>
        <time>2023-08-15T07:11:50Z</time>
      </trkpt>
      <trkpt lat="43.48823" lon="1.39758">
        <ele>206.7</ele>
        <time>2023-08-15T07:11:54Z</time>
      </trkpt>
      <trkpt lat="43.4883" lon="1.39794">
        <ele>206.7</ele>
        <time>2023-08-15T07:11:58Z</time>
      </trkpt>
      <trkpt lat="43.48829" lon="1.3982">
        <ele>206.7</ele>
        <time>2023-08-15T07:12:01Z</time>
      </trkpt>
      <trkpt lat="43.4882" lon="1.39845">
        <ele>206.7</ele>
        <time>2023-08-15T07:12:05Z</time>
      </trkpt>
      <trkpt lat="43.48808" lon="1.39869">
        <ele>206.7</ele>
        <time>2023-08-15T07:12:09Z</time>
      </trkpt>
      <trkpt lat="43.48817" lon="1.39897">
        <ele>206.7</ele>
        <time>2023-08-15T07:12:13Z</time>
      </trkpt>
      <trkpt lat="43.48838" lon="1.39925">
        <ele>206.7</ele>
        <time>2023-08-15T07:12:17Z</time>
      </trkpt>
      <trkpt lat="43.48851" lon="1.39961">
        <ele>206.7</ele>
        <time>2023-08-15T07:12:21Z</time>
      </trkpt>
      <trkpt lat="43.48866" lon="1.39981">
        <ele>206.7</ele>
        <time>2023-08-15T07:12:24Z</time>
      </trkpt>
      <trkpt lat="43.48891" lon="1.40003">
        <ele>206.7</ele>
        <time>2023-08-15T07:12:28Z</time>
      </trkpt>
      <trkpt lat="43.48913" lon="1.40025">
        <ele>206.7</ele>
        <time>2023-08-15T07:12:32Z</time>
      </trkpt>
      <trkpt lat="43.48931" lon="1.40041">
        <ele>206.7</ele>
        <time>2023-08-15T07:12:35Z</time>
      </trkpt>
      <trkpt lat="43.48954" lon="1.40064">
        <ele>206.7</ele>
        <time>2023-08-15T07:12:39Z</time>
      </trkpt>
      <trkpt lat="43.48978" lon="1.40087">
        <ele>206.7</ele>
        <time>2023-08-15T07:12:43Z</time>
      </trkpt>
      <trkpt lat="43.48995" lon="1.40105">
        <ele>206.7</ele>
        <time>2023-08-15T07:12:46Z</time>
      </trkpt>
      <trkpt lat="43.49016" lon="1.40131">
        <ele>206.7</ele>
        <time>2023-08-15T07:12:50Z</time>
      </trkpt>
      <trkpt lat="43.4903" lon="1.40152">
        <ele>206.7</ele>
        <time>2023-08-15T07:12:53Z</time>
      </trkpt>
      <trkpt lat="43.49045" lon="1.40172">
        <ele>206.7</ele>
        <time>2023-08-15T07:12:56Z</time>
      </trkpt>
      <trkpt lat="43.49065" lon="1.40199">
        <ele>206.7</ele>
        <time>2023-08-15T07:13:00Z</time>
      </trkpt>
      <trkpt lat="43.49081" lon="1.40219">
        <ele>206.7</ele>
        <time>2023-08-15T07:13:03Z</time>
      </trkpt>
      <trkpt lat="43.49095" lon="1.4024">
        <ele>206.7</ele>
        <time>2023-08-15T07:13:06Z</time>
      </trkpt>
      <trkpt lat="43.49115" lon="1.40268">
        <ele>206.7</ele>
        <time>2023-08-15T07:13:10Z</time>
      </trkpt>
      <trkpt lat="43.49135" lon="1.40295">
        <ele>206.7</ele>
        <time>2023-08-15T07:13:14Z</time>
      </trkpt>
      <trkpt lat="43.49155" lon="1.40319">
        <ele>206.7</ele>
        <time>2023-08-15T07:13:18Z</time>
      </trkpt>
      <trkpt lat="43.49168" lon="1.40336">
        <ele>206.7</ele>
        <time>2023-08-15T07:13:21Z</time>
      </trkpt>
      <trkpt lat="43.49183" lon="1.4036">
        <ele>206.7</ele>
        <time>2023-08-15T07:13:25Z</time>
      </trkpt>
      <trkpt lat="43.49192" lon="1.40387">
        <ele>206.7</ele>
        <time>2023-08-15T07:13:29Z</time>
      </trkpt>
      <trkpt lat="43.49212" lon="1.40406">
        <ele>206.7</ele>
        <time>2023-08-15T07:13:33Z</time>
      </trkpt>
      <trkpt lat="43.49226" lon="1.40428">
        <ele>206.7</ele>
        <time>2023-08-15T07:13:36Z</time>
      </trkpt>
      <trkpt lat="43.49239" lon="1.40452">
        <ele>206.7</ele>
        <time>2023-08-15T07:13:39Z</time>
      </trkpt>
      <trkpt lat="43.49256" lon="1.40485">
        <ele>206.7</ele>
        <time>2023-08-15T07:13:43Z</time>
      </trkpt>
      <trkpt lat="43.49272" lon="1.40518">
        <ele>206.7</ele>
        <time>2023-08-15T07:13:47Z</time>
      </trkpt>
      <trkpt lat="43.49289" lon="1.40549">
        <ele>206.7</ele>
        <time>2023-08-15T07:13:51Z</time>
      </trkpt>
      <trkpt lat="43.49302" lon="1.40572">
        <ele>206.7</ele>
        <time>2023-08-15T07:13:54Z</time>
      </trkpt>
      <trkpt lat="43.4932" lon="1.40602">
        <ele>206.7</ele>
        <time>2023-08-15T07:13:58Z</time>
      </trkpt>
      <trkpt lat="43.4934" lon="1.40629">
        <ele>206.7</ele>
        <time>2023-08-15T07:14:02Z</time>
      </trkpt>
      <trkpt lat="43.49357" lon="1.40646">
        <ele>206.6</ele>
        <time>2023-08-15T07:14:05Z</time>
      </trkpt>
      <trkpt lat="43.49382" lon="1.40661">
        <ele>206.1</ele>
        <time>2023-08-15T07:14:09Z</time>
      </trkpt>
      <trkpt lat="43.49403" lon="1.40668">
        <ele>206</ele>
        <time>2023-08-15T07:14:12Z</time>
      </trkpt>
      <trkpt lat="43.49432" lon="1.40674">
        <ele>206.7</ele>
        <time>2023-08-15T07:14:16Z</time>
      </trkpt>
      <trkpt lat="43.49461" lon="1.40676">
        <ele>206.4</ele>
        <time>2023-08-15T07:14:20Z</time>
      </trkpt>
      <trkpt lat="43.4949" lon="1.40676">
        <ele>206.3</ele>
        <time>2023-08-15T07:14:24Z</time>
      </trkpt>
      <trkpt lat="43.49517" lon="1.40673">
        <ele>206.3</ele>
        <time>2023-08-15T07:14:28Z</time>
      </trkpt>
      <trkpt lat="43.49545" lon="1.40664">
        <ele>206</ele>
        <time>2023-08-15T07:14:32Z</time>
      </trkpt>
      <trkpt lat="43.49571" lon="1.40649">
        <ele>205.8</ele>
        <time>2023-08-15T07:14:36Z</time>
      </trkpt>
      <trkpt lat="43.49597" lon="1.40633">
        <ele>205</ele>
        <time>2023-08-15T07:14:40Z</time>
      </trkpt>
      <trkpt lat="43.49623" lon="1.40619">
        <ele>205.7</ele>
        <time>2023-08-15T07:14:44Z</time>
      </trkpt>
      <trkpt lat="43.49649" lon="1.40604">
        <ele>205.8</ele>
        <time>2023-08-15T07:14:48Z</time>
      </trkpt>
      <trkpt lat="43.49676" lon="1.40592">
        <ele>206.1</ele>
        <time>2023-08-15T07:14:52Z</time>
      </trkpt>
      <trkpt lat="43.49696" lon="1.40585">
        <ele>205.7</ele>
        <time>2023-08-15T07:14:55Z</time>
      </trkpt>
      <trkpt lat="43.49717" lon="1.40582">
        <ele>206.1</ele>
        <time>2023-08-15T07:14:58Z</time>
      </trkpt>
      <trkpt lat="43.49746" lon="1.40585">
        <ele>207.1</ele>
        <time>2023-08-15T07:15:02Z</time>
      </trkpt>
      <trkpt lat="43.49774" lon="1.40594">
        <ele>207.6</ele>
        <time>2023-08-15T07:15:06Z</time>
      </trkpt>
      <trkpt lat="43.49802" lon="1.40608">
        <ele>207.6</ele>
        <time>2023-08-15T07:15:10Z</time>
      </trkpt>
      <trkpt lat="43.49821" lon="1.40622">
        <ele>208.3</ele>
        <time>2023-08-15T07:15:13Z</time>
      </trkpt>
      <trkpt lat="43.49844" lon="1.40646">
        <ele>209.3</ele>
        <time>2023-08-15T07:15:17Z</time>
      </trkpt>
      <trkpt lat="43.49858" lon="1.40666">
        <ele>209.9</ele>
        <time>2023-08-15T07:15:20Z</time>
      </trkpt>
      <trkpt lat="43.49876" lon="1.40696">
        <ele>210</ele>
        <time>2023-08-15T07:15:24Z</time>
      </trkpt>
      <trkpt lat="43.49895" lon="1.40725">
        <ele>210.1</ele>
        <time>2023-08-15T07:15:28Z</time>
      </trkpt>
      <trkpt lat="43.49914" lon="1.40754">
        <ele>210.1</ele>
        <time>2023-08-15T07:15:32Z</time>
      </trkpt>
      <trkpt lat="43.49928" lon="1.40776">
        <ele>210.3</ele>
        <time>2023-08-15T07:15:35Z</time>
      </trkpt>
      <trkpt lat="43.49947" lon="1.40806">
        <ele>209.4</ele>
        <time>2023-08-15T07:15:39Z</time>
      </trkpt>
      <trkpt lat="43.4996" lon="1.40828">
        <ele>209.1</ele>
        <time>2023-08-15T07:15:42Z</time>
      </trkpt>
      <trkpt lat="43.49979" lon="1.40858">
        <ele>209.2</ele>
        <time>2023-08-15T07:15:46Z</time>
      </trkpt>
      <trkpt lat="43.49993" lon="1.40881">
        <ele>208.7</ele>
        <time>2023-08-15T07:15:49Z</time>
      </trkpt>
      <trkpt lat="43.50011" lon="1.40912">
        <ele>207.3</ele>
        <time>2023-08-15T07:15:53Z</time>
      </trkpt>
      <trkpt lat="43.50026" lon="1.40943">
        <ele>207.8</ele>
        <time>2023-08-15T07:15:57Z</time>
      </trkpt>
      <trkpt lat="43.50028" lon="1.40968">
        <ele>207.4</ele>
        <time>2023-08-15T07:16:01Z</time>
      </trkpt>
      <trkpt lat="43.50023" lon="1.40986">
        <ele>207.5</ele>
        <time>2023-08-15T07:16:04Z</time>
      </trkpt>
      <trkpt lat="43.50035" lon="1.41007">
        <ele>206.6</ele>
        <time>2023-08-15T07:16:08Z</time>
      </trkpt>
      <trkpt lat="43.50057" lon="1.41013">
        <ele>206.6</ele>
        <time>2023-08-15T07:16:12Z</time>
      </trkpt>
      <trkpt lat="43.50076" lon="1.41027">
        <ele>206.6</ele>
        <time>2023-08-15T07:16:15Z</time>
      </trkpt>
      <trkpt lat="43.50104" lon="1.41042">
        <ele>206.6</ele>
        <time>2023-08-15T07:16:19Z</time>
      </trkpt>
      <trkpt lat="43.50124" lon="1.41054">
        <ele>206.6</ele>
        <time>2023-08-15T07:16:22Z</time>
      </trkpt>
      <trkpt lat="43.50148" lon="1.41067">
        <ele>206.6</ele>
        <time>2023-08-15T07:16:26Z</time>
      </trkpt>
      <trkpt lat="43.50172" lon="1.41081">
        <ele>206.6</ele>
        <time>2023-08-15T07:16:30Z</time>
      </trkpt>
      <trkpt lat="43.50189" lon="1.41092">
        <ele>206.6</ele>
        <time>2023-08-15T07:16:33Z</time>
      </trkpt>
      <trkpt lat="43.50204" lon="1.41104">
        <ele>206.6</ele>
        <time>2023-08-15T07:16:36Z</time>
      </trkpt>
      <trkpt lat="43.50225" lon="1.41115">
        <ele>206.6</ele>
        <time>2023-08-15T07:16:40Z</time>
      </trkpt>
      <trkpt lat="43.50239" lon="1.41121">
        <ele>206.6</ele>
        <time>2023-08-15T07:16:43Z</time>
      </trkpt>
      <trkpt lat="43.5025" lon="1.41126">
        <ele>206.6</ele>
        <time>2023-08-15T07:16:47Z</time>
      </trkpt>
      <trkpt lat="43.50258" lon="1.41129">
        <ele>204.6</ele>
        <time>2023-08-15T07:16:51Z</time>
      </trkpt>
      <trkpt lat="43.50263" lon="1.41132">
        <ele>204.6</ele>
        <time>2023-08-15T07:17:09Z</time>
      </trkpt>
      <trkpt lat="43.50267" lon="1.41134">
        <ele>204</ele>
        <time>2023-08-15T07:17:12Z</time>
      </trkpt>
      <trkpt lat="43.50278" lon="1.41141">
        <ele>204</ele>
        <time>2023-08-15T07:17:15Z</time>
      </trkpt>
      <trkpt lat="43.50304" lon="1.41154">
        <ele>204</ele>
        <time>2023-08-15T07:17:19Z</time>
      </trkpt>
      <trkpt lat="43.50332" lon="1.41168">
        <ele>204</ele>
        <time>2023-08-15T07:17:23Z</time>
      </trkpt>
      <trkpt lat="43.50358" lon="1.4118">
        <ele>204</ele>
        <time>2023-08-15T07:17:27Z</time>
      </trkpt>
      <trkpt lat="43.50385" lon="1.41192">
        <ele>204</ele>
        <time>2023-08-15T07:17:31Z</time>
      </trkpt>
      <trkpt lat="43.50413" lon="1.41206">
        <ele>204</ele>
        <time>2023-08-15T07:17:35Z</time>
      </trkpt>
      <trkpt lat="43.5044" lon="1.41219">
        <ele>204</ele>
        <time>2023-08-15T07:17:39Z</time>
      </trkpt>
      <trkpt lat="43.50466" lon="1.41231">
        <ele>204</ele>
        <time>2023-08-15T07:17:43Z</time>
      </trkpt>
      <trkpt lat="43.50493" lon="1.41243">
        <ele>204</ele>
        <time>2023-08-15T07:17:47Z</time>
      </trkpt>
      <trkpt lat="43.50514" lon="1.41253">
        <ele>204</ele>
        <time>2023-08-15T07:17:50Z</time>
      </trkpt>
      <trkpt lat="43.50539" lon="1.41264">
        <ele>204</ele>
        <time>2023-08-15T07:17:54Z</time>
      </trkpt>
      <trkpt lat="43.50564" lon="1.41277">
        <ele>204</ele>
        <time>2023-08-15T07:17:58Z</time>
      </trkpt>
      <trkpt lat="43.50593" lon="1.41292">
        <ele>204</ele>
        <time>2023-08-15T07:18:02Z</time>
      </trkpt>
      <trkpt lat="43.50619" lon="1.41304">
        <ele>204</ele>
        <time>2023-08-15T07:18:06Z</time>
      </trkpt>
      <trkpt lat="43.50639" lon="1.41313">
        <ele>204</ele>
        <time>2023-08-15T07:18:09Z</time>
      </trkpt>
      <trkpt lat="43.5066" lon="1.41323">
        <ele>204</ele>
        <time>2023-08-15T07:18:12Z</time>
      </trkpt>
      <trkpt lat="43.50678" lon="1.41337">
        <ele>204</ele>
        <time>2023-08-15T07:18:15Z</time>
      </trkpt>
      <trkpt lat="43.50698" lon="1.41363">
        <ele>204</ele>
        <time>2023-08-15T07:18:19Z</time>
      </trkpt>
      <trkpt lat="43.5071" lon="1.41388">
        <ele>204</ele>
        <time>2023-08-15T07:18:22Z</time>
      </trkpt>
      <trkpt lat="43.5072" lon="1.41414">
        <ele>204</ele>
        <time>2023-08-15T07:18:25Z</time>
      </trkpt>
      <trkpt lat="43.50737" lon="1.41447">
        <ele>204</ele>
        <time>2023-08-15T07:18:29Z</time>
      </trkpt>
      <trkpt lat="43.50761" lon="1.41468">
        <ele>204</ele>
        <time>2023-08-15T07:18:33Z</time>
      </trkpt>
      <trkpt lat="43.50782" lon="1.41475">
        <ele>204</ele>
        <time>2023-08-15T07:18:36Z</time>
      </trkpt>
      <trkpt lat="43.50803" lon="1.41481">
        <ele>204</ele>
        <time>2023-08-15T07:18:39Z</time>
      </trkpt>
      <trkpt lat="43.50823" lon="1.41486">
        <ele>204</ele>
        <time>2023-08-15T07:18:42Z</time>
      </trkpt>
      <trkpt lat="43.50851" lon="1.41494">
        <ele>204</ele>
        <time>2023-08-15T07:18:46Z</time>
      </trkpt>
      <trkpt lat="43.50878" lon="1.41504">
        <ele>204</ele>
        <time>2023-08-15T07:18:50Z</time>
      </trkpt>
      <trkpt lat="43.50906" lon="1.41513">
        <ele>204</ele>
        <time>2023-08-15T07:18:54Z</time>
      </trkpt>
      <trkpt lat="43.50926" lon="1.41519">
        <ele>204</ele>
        <time>2023-08-15T07:18:57Z</time>
      </trkpt>
      <trkpt lat="43.50954" lon="1.41526">
        <ele>204</ele>
        <time>2023-08-15T07:19:01Z</time>
      </trkpt>
      <trkpt lat="43.50982" lon="1.41534">
        <ele>204</ele>
        <time>2023-08-15T07:19:05Z</time>
      </trkpt>
      <trkpt lat="43.51003" lon="1.4154">
        <ele>204</ele>
        <time>2023-08-15T07:19:08Z</time>
      </trkpt>
      <trkpt lat="43.51024" lon="1.41545">
        <ele>204</ele>
        <time>2023-08-15T07:19:11Z</time>
      </trkpt>
      <trkpt lat="43.51051" lon="1.41553">
        <ele>204</ele>
        <time>2023-08-15T07:19:15Z</time>
      </trkpt>
      <trkpt lat="43.51079" lon="1.41562">
        <ele>204</ele>
        <time>2023-08-15T07:19:19Z</time>
      </trkpt>
      <trkpt lat="43.51107" lon="1.41571">
        <ele>204</ele>
        <time>2023-08-15T07:19:23Z</time>
      </trkpt>
      <trkpt lat="43.51135" lon="1.4158">
        <ele>204</ele>
        <time>2023-08-15T07:19:27Z</time>
      </trkpt>
      <trkpt lat="43.51156" lon="1.41587">
        <ele>204</ele>
        <time>2023-08-15T07:19:30Z</time>
      </trkpt>
      <trkpt lat="43.51183" lon="1.41595">
        <ele>204</ele>
        <time>2023-08-15T07:19:34Z</time>
      </trkpt>
      <trkpt lat="43.51204" lon="1.41601">
        <ele>204</ele>
        <time>2023-08-15T07:19:37Z</time>
      </trkpt>
      <trkpt lat="43.51232" lon="1.41609">
        <ele>204</ele>
        <time>2023-08-15T07:19:41Z</time>
      </trkpt>
      <trkpt lat="43.5126" lon="1.41616">
        <ele>202.4</ele>
        <time>2023-08-15T07:19:45Z</time>
      </trkpt>
      <trkpt lat="43.51288" lon="1.41625">
        <ele>202.8</ele>
        <time>2023-08-15T07:19:49Z</time>
      </trkpt>
      <trkpt lat="43.51308" lon="1.41632">
        <ele>202.7</ele>
        <time>2023-08-15T07:19:52Z</time>
      </trkpt>
      <trkpt lat="43.51335" lon="1.41641">
        <ele>202.8</ele>
        <time>2023-08-15T07:19:56Z</time>
      </trkpt>
      <trkpt lat="43.51363" lon="1.41649">
        <ele>202.6</ele>
        <time>2023-08-15T07:20:00Z</time>
      </trkpt>
      <trkpt lat="43.51384" lon="1.41655">
        <ele>202.6</ele>
        <time>2023-08-15T07:20:03Z</time>
      </trkpt>
      <trkpt lat="43.51405" lon="1.41662">
        <ele>202.5</ele>
        <time>2023-08-15T07:20:06Z</time>
      </trkpt>
      <trkpt lat="43.51433" lon="1.4167">
        <ele>202.2</ele>
        <time>2023-08-15T07:20:10Z</time>
      </trkpt>
      <trkpt lat="43.51453" lon="1.41676">
        <ele>201.6</ele>
        <time>2023-08-15T07:20:13Z</time>
      </trkpt>
      <trkpt lat="43.51481" lon="1.41685">
        <ele>201.9</ele>
        <time>2023-08-15T07:20:17Z</time>
      </trkpt>
      <trkpt lat="43.51508" lon="1.41694">
        <ele>201.9</ele>
        <time>2023-08-15T07:20:21Z</time>
      </trkpt>
      <trkpt lat="43.51529" lon="1.417">
        <ele>202.6</ele>
        <time>2023-08-15T07:20:24Z</time>
      </trkpt>
      <trkpt lat="43.51556" lon="1.41707">
        <ele>202.3</ele>
        <time>2023-08-15T07:20:28Z</time>
      </trkpt>
      <trkpt lat="43.51577" lon="1.41713">
        <ele>203.4</ele>
        <time>2023-08-15T07:20:31Z</time>
      </trkpt>
      <trkpt lat="43.51599" lon="1.41719">
        <ele>203.7</ele>
        <time>2023-08-15T07:20:34Z</time>
      </trkpt>
      <trkpt lat="43.51627" lon="1.41731">
        <ele>202.5</ele>
        <time>2023-08-15T07:20:38Z</time>
      </trkpt>
      <trkpt lat="43.51647" lon="1.41742">
        <ele>201.7</ele>
        <time>2023-08-15T07:20:41Z</time>
      </trkpt>
      <trkpt lat="43.51673" lon="1.41755">
        <ele>201.8</ele>
        <time>2023-08-15T07:20:45Z</time>
      </trkpt>
      <trkpt lat="43.517" lon="1.41769">
        <ele>201.9</ele>
        <time>2023-08-15T07:20:49Z</time>
      </trkpt>
      <trkpt lat="43.5172" lon="1.41779">
        <ele>202.1</ele>
        <time>2023-08-15T07:20:52Z</time>
      </trkpt>
      <trkpt lat="43.51746" lon="1.41793">
        <ele>202</ele>
        <time>2023-08-15T07:20:56Z</time>
      </trkpt>
      <trkpt lat="43.51766" lon="1.41803">
        <ele>202</ele>
        <time>2023-08-15T07:20:59Z</time>
      </trkpt>
      <trkpt lat="43.51786" lon="1.41813">
        <ele>201.9</ele>
        <time>2023-08-15T07:21:02Z</time>
      </trkpt>
      <trkpt lat="43.51813" lon="1.41827">
        <ele>201.8</ele>
        <time>2023-08-15T07:21:06Z</time>
      </trkpt>
      <trkpt lat="43.51833" lon="1.41838">
        <ele>200.8</ele>
        <time>2023-08-15T07:21:09Z</time>
      </trkpt>
      <trkpt lat="43.51857" lon="1.41855">
        <ele>201.3</ele>
        <time>2023-08-15T07:21:13Z</time>
      </trkpt>
      <trkpt lat="43.51876" lon="1.41869">
        <ele>202.4</ele>
        <time>2023-08-15T07:21:16Z</time>
      </trkpt>
      <trkpt lat="43.51901" lon="1.4189">
        <ele>201.9</ele>
        <time>2023-08-15T07:21:20Z</time>
      </trkpt>
      <trkpt lat="43.51924" lon="1.41913">
        <ele>202.5</ele>
        <time>2023-08-15T07:21:24Z</time>
      </trkpt>
      <trkpt lat="43.5194" lon="1.41931">
        <ele>202.8</ele>
        <time>2023-08-15T07:21:27Z</time>
      </trkpt>
      <trkpt lat="43.51961" lon="1.41957">
        <ele>203.4</ele>
        <time>2023-08-15T07:21:31Z</time>
      </trkpt>
      <trkpt lat="43.51983" lon="1.41981">
        <ele>203.3</ele>
        <time>2023-08-15T07:21:35Z</time>
      </trkpt>
      <trkpt lat="43.52001" lon="1.41998">
        <ele>201.8</ele>
        <time>2023-08-15T07:21:38Z</time>
      </trkpt>
      <trkpt lat="43.52019" lon="1.42017">
        <ele>201.3</ele>
        <time>2023-08-15T07:21:41Z</time>
      </trkpt>
      <trkpt lat="43.52043" lon="1.42043">
        <ele>200.9</ele>
        <time>2023-08-15T07:21:45Z</time>
      </trkpt>
      <trkpt lat="43.52066" lon="1.42067">
        <ele>200.5</ele>
        <time>2023-08-15T07:21:49Z</time>
      </trkpt>
      <trkpt lat="43.52083" lon="1.42085">
        <ele>200.9</ele>
        <time>2023-08-15T07:21:52Z</time>
      </trkpt>
      <trkpt lat="43.521" lon="1.42102">
        <ele>200.8</ele>
        <time>2023-08-15T07:21:55Z</time>
      </trkpt>
      <trkpt lat="43.52122" lon="1.42127">
        <ele>200.6</ele>
        <time>2023-08-15T07:21:59Z</time>
      </trkpt>
      <trkpt lat="43.52138" lon="1.42147">
        <ele>200.4</ele>
        <time>2023-08-15T07:22:02Z</time>
      </trkpt>
      <trkpt lat="43.52152" lon="1.42168">
        <ele>200.1</ele>
        <time>2023-08-15T07:22:05Z</time>
      </trkpt>
      <trkpt lat="43.52171" lon="1.42196">
        <ele>199.9</ele>
        <time>2023-08-15T07:22:09Z</time>
      </trkpt>
      <trkpt lat="43.52191" lon="1.42223">
        <ele>198.6</ele>
        <time>2023-08-15T07:22:13Z</time>
      </trkpt>
      <trkpt lat="43.52207" lon="1.42243">
        <ele>199.5</ele>
        <time>2023-08-15T07:22:16Z</time>
      </trkpt>
      <trkpt lat="43.52227" lon="1.42271">
        <ele>198.4</ele>
        <time>2023-08-15T07:22:20Z</time>
      </trkpt>
      <trkpt lat="43.52242" lon="1.42292">
        <ele>199.1</ele>
        <time>2023-08-15T07:22:23Z</time>
      </trkpt>
      <trkpt lat="43.52261" lon="1.4232">
        <ele>198.7</ele>
        <time>2023-08-15T07:22:27Z</time>
      </trkpt>
      <trkpt lat="43.52276" lon="1.42341">
        <ele>199.1</ele>
        <time>2023-08-15T07:22:30Z</time>
      </trkpt>
      <trkpt lat="43.52295" lon="1.42368">
        <ele>199.3</ele>
        <time>2023-08-15T07:22:34Z</time>
      </trkpt>
      <trkpt lat="43.52315" lon="1.42396">
        <ele>198.8</ele>
        <time>2023-08-15T07:22:38Z</time>
      </trkpt>
      <trkpt lat="43.52331" lon="1.42417">
        <ele>197.9</ele>
        <time>2023-08-15T07:22:41Z</time>
      </trkpt>
      <trkpt lat="43.52352" lon="1.42443">
        <ele>198.3</ele>
        <time>2023-08-15T07:22:45Z</time>
      </trkpt>
      <trkpt lat="43.52367" lon="1.42464">
        <ele>198.6</ele>
        <time>2023-08-15T07:22:48Z</time>
      </trkpt>
      <trkpt lat="43.52386" lon="1.42493">
        <ele>198.3</ele>
        <time>2023-08-15T07:22:52Z</time>
      </trkpt>
      <trkpt lat="43.52407" lon="1.42519">
        <ele>199</ele>
        <time>2023-08-15T07:22:56Z</time>
      </trkpt>
      <trkpt lat="43.52428" lon="1.42547">
        <ele>199.1</ele>
        <time>2023-08-15T07:23:00Z</time>
      </trkpt>
      <trkpt lat="43.52443" lon="1.42568">
        <ele>198.9</ele>
        <time>2023-08-15T07:23:03Z</time>
      </trkpt>
      <trkpt lat="43.52463" lon="1.42595">
        <ele>198.4</ele>
        <time>2023-08-15T07:23:07Z</time>
      </trkpt>
      <trkpt lat="43.52483" lon="1.42622">
        <ele>197.9</ele>
        <time>2023-08-15T07:23:11Z</time>
      </trkpt>
      <trkpt lat="43.52499" lon="1.42643">
        <ele>198.4</ele>
        <time>2023-08-15T07:23:14Z</time>
      </trkpt>
      <trkpt lat="43.52519" lon="1.4267">
        <ele>199.4</ele>
        <time>2023-08-15T07:23:18Z</time>
      </trkpt>
      <trkpt lat="43.52534" lon="1.4269">
        <ele>199.9</ele>
        <time>2023-08-15T07:23:21Z</time>
      </trkpt>
      <trkpt lat="43.52553" lon="1.42718">
        <ele>200.4</ele>
        <time>2023-08-15T07:23:25Z</time>
      </trkpt>
      <trkpt lat="43.52573" lon="1.42745">
        <ele>201.7</ele>
        <time>2023-08-15T07:23:29Z</time>
      </trkpt>
      <trkpt lat="43.52593" lon="1.42772">
        <ele>202.7</ele>
        <time>2023-08-15T07:23:33Z</time>
      </trkpt>
      <trkpt lat="43.52613" lon="1.42801">
        <ele>203</ele>
        <time>2023-08-15T07:23:37Z</time>
      </trkpt>
      <trkpt lat="43.52628" lon="1.42821">
        <ele>202.9</ele>
        <time>2023-08-15T07:23:40Z</time>
      </trkpt>
      <trkpt lat="43.52653" lon="1.42838">
        <ele>204.1</ele>
        <time>2023-08-15T07:23:44Z</time>
      </trkpt>
      <trkpt lat="43.52681" lon="1.42845">
        <ele>203.8</ele>
        <time>2023-08-15T07:23:48Z</time>
      </trkpt>
      <trkpt lat="43.52711" lon="1.42852">
        <ele>203.6</ele>
        <time>2023-08-15T07:23:52Z</time>
      </trkpt>
      <trkpt lat="43.52742" lon="1.42862">
        <ele>201.9</ele>
        <time>2023-08-15T07:23:56Z</time>
      </trkpt>
      <trkpt lat="43.52766" lon="1.4287">
        <ele>201.8</ele>
        <time>2023-08-15T07:23:59Z</time>
      </trkpt>
      <trkpt lat="43.52797" lon="1.42879">
        <ele>201.4</ele>
        <time>2023-08-15T07:24:03Z</time>
      </trkpt>
      <trkpt lat="43.5282" lon="1.42885">
        <ele>200.7</ele>
        <time>2023-08-15T07:24:06Z</time>
      </trkpt>
      <trkpt lat="43.52847" lon="1.42893">
        <ele>200.1</ele>
        <time>2023-08-15T07:24:10Z</time>
      </trkpt>
      <trkpt lat="43.52867" lon="1.42899">
        <ele>200.4</ele>
        <time>2023-08-15T07:24:13Z</time>
      </trkpt>
      <trkpt lat="43.52894" lon="1.42905">
        <ele>200.7</ele>
        <time>2023-08-15T07:24:17Z</time>
      </trkpt>
      <trkpt lat="43.52915" lon="1.42909">
        <ele>201.9</ele>
        <time>2023-08-15T07:24:20Z</time>
      </trkpt>
      <trkpt lat="43.52944" lon="1.42914">
        <ele>201.6</ele>
        <time>2023-08-15T07:24:24Z</time>
      </trkpt>
      <trkpt lat="43.52973" lon="1.42918">
        <ele>202</ele>
        <time>2023-08-15T07:24:28Z</time>
      </trkpt>
      <trkpt lat="43.52994" lon="1.42923">
        <ele>202.1</ele>
        <time>2023-08-15T07:24:31Z</time>
      </trkpt>
      <trkpt lat="43.53014" lon="1.42933">
        <ele>201.5</ele>
        <time>2023-08-15T07:24:34Z</time>
      </trkpt>
      <trkpt lat="43.53039" lon="1.42951">
        <ele>200.8</ele>
        <time>2023-08-15T07:24:38Z</time>
      </trkpt>
      <trkpt lat="43.53065" lon="1.42968">
        <ele>201.3</ele>
        <time>2023-08-15T07:24:42Z</time>
      </trkpt>
      <trkpt lat="43.53088" lon="1.42985">
        <ele>203.4</ele>
        <time>2023-08-15T07:24:46Z</time>
      </trkpt>
      <trkpt lat="43.53104" lon="1.42997">
        <ele>205.2</ele>
        <time>2023-08-15T07:24:49Z</time>
      </trkpt>
      <trkpt lat="43.53126" lon="1.4301">
        <ele>207</ele>
        <time>2023-08-15T07:24:53Z</time>
      </trkpt>
      <trkpt lat="43.53144" lon="1.43018">
        <ele>208.4</ele>
        <time>2023-08-15T07:24:56Z</time>
      </trkpt>
      <trkpt lat="43.53164" lon="1.43025">
        <ele>209.4</ele>
        <time>2023-08-15T07:24:59Z</time>
      </trkpt>
      <trkpt lat="43.5319" lon="1.43034">
        <ele>210.3</ele>
        <time>2023-08-15T07:25:03Z</time>
      </trkpt>
      <trkpt lat="43.5321" lon="1.43041">
        <ele>211</ele>
        <time>2023-08-15T07:25:06Z</time>
      </trkpt>
      <trkpt lat="43.53231" lon="1.4305">
        <ele>211.5</ele>
        <time>2023-08-15T07:25:09Z</time>
      </trkpt>
      <trkpt lat="43.53259" lon="1.43062">
        <ele>212.6</ele>
        <time>2023-08-15T07:25:13Z</time>
      </trkpt>
      <trkpt lat="43.53288" lon="1.43078">
        <ele>212.4</ele>
        <time>2023-08-15T07:25:17Z</time>
      </trkpt>
      <trkpt lat="43.53315" lon="1.43096">
        <ele>212.5</ele>
        <time>2023-08-15T07:25:21Z</time>
      </trkpt>
      <trkpt lat="43.53339" lon="1.43115">
        <ele>212.3</ele>
        <time>2023-08-15T07:25:25Z</time>
      </trkpt>
      <trkpt lat="43.53356" lon="1.43128">
        <ele>212.2</ele>
        <time>2023-08-15T07:25:28Z</time>
      </trkpt>
      <trkpt lat="43.5338" lon="1.43148">
        <ele>212.2</ele>
        <time>2023-08-15T07:25:32Z</time>
      </trkpt>
      <trkpt lat="43.53405" lon="1.43168">
        <ele>212.5</ele>
        <time>2023-08-15T07:25:36Z</time>
      </trkpt>
      <trkpt lat="43.53424" lon="1.43181">
        <ele>213</ele>
        <time>2023-08-15T07:25:39Z</time>
      </trkpt>
      <trkpt lat="43.53444" lon="1.43194">
        <ele>213</ele>
        <time>2023-08-15T07:25:42Z</time>
      </trkpt>
      <trkpt lat="43.5347" lon="1.4321">
        <ele>213</ele>
        <time>2023-08-15T07:25:46Z</time>
      </trkpt>
      <trkpt lat="43.53499" lon="1.43218">
        <ele>212.2</ele>
        <time>2023-08-15T07:25:50Z</time>
      </trkpt>
      <trkpt lat="43.53527" lon="1.43222">
        <ele>211.5</ele>
        <time>2023-08-15T07:25:54Z</time>
      </trkpt>
      <trkpt lat="43.53557" lon="1.43231">
        <ele>210.8</ele>
        <time>2023-08-15T07:25:58Z</time>
      </trkpt>
      <trkpt lat="43.53584" lon="1.43249">
        <ele>209.5</ele>
        <time>2023-08-15T07:26:02Z</time>
      </trkpt>
      <trkpt lat="43.53604" lon="1.43264">
        <ele>209.1</ele>
        <time>2023-08-15T07:26:05Z</time>
      </trkpt>
      <trkpt lat="43.5363" lon="1.43279">
        <ele>208.9</ele>
        <time>2023-08-15T07:26:09Z</time>
      </trkpt>
      <trkpt lat="43.5365" lon="1.43287">
        <ele>208.5</ele>
        <time>2023-08-15T07:26:12Z</time>
      </trkpt>
      <trkpt lat="43.53671" lon="1.43291">
        <ele>208.4</ele>
        <time>2023-08-15T07:26:15Z</time>
      </trkpt>
      <trkpt lat="43.53698" lon="1.43294">
        <ele>208.5</ele>
        <time>2023-08-15T07:26:19Z</time>
      </trkpt>
      <trkpt lat="43.53726" lon="1.43298">
        <ele>208.6</ele>
        <time>2023-08-15T07:26:23Z</time>
      </trkpt>
      <trkpt lat="43.53754" lon="1.43306">
        <ele>207.9</ele>
        <time>2023-08-15T07:26:27Z</time>
      </trkpt>
      <trkpt lat="43.53774" lon="1.43314">
        <ele>207.1</ele>
        <time>2023-08-15T07:26:30Z</time>
      </trkpt>
      <trkpt lat="43.53801" lon="1.43326">
        <ele>206.5</ele>
        <time>2023-08-15T07:26:34Z</time>
      </trkpt>
      <trkpt lat="43.53829" lon="1.43341">
        <ele>206.3</ele>
        <time>2023-08-15T07:26:38Z</time>
      </trkpt>
      <trkpt lat="43.53855" lon="1.43358">
        <ele>205.1</ele>
        <time>2023-08-15T07:26:42Z</time>
      </trkpt>
      <trkpt lat="43.53884" lon="1.43375">
        <ele>204.7</ele>
        <time>2023-08-15T07:26:46Z</time>
      </trkpt>
      <trkpt lat="43.53914" lon="1.43393">
        <ele>203.5</ele>
        <time>2023-08-15T07:26:50Z</time>
      </trkpt>
      <trkpt lat="43.53933" lon="1.43407">
        <ele>202.7</ele>
        <time>2023-08-15T07:26:53Z</time>
      </trkpt>
      <trkpt lat="43.53958" lon="1.43423">
        <ele>201.6</ele>
        <time>2023-08-15T07:26:57Z</time>
      </trkpt>
      <trkpt lat="43.53984" lon="1.43441">
        <ele>200</ele>
        <time>2023-08-15T07:27:01Z</time>
      </trkpt>
      <trkpt lat="43.54003" lon="1.43458">
        <ele>199.9</ele>
        <time>2023-08-15T07:27:04Z</time>
      </trkpt>
      <trkpt lat="43.54027" lon="1.43484">
        <ele>199</ele>
        <time>2023-08-15T07:27:08Z</time>
      </trkpt>
      <trkpt lat="43.54053" lon="1.43505">
        <ele>198.2</ele>
        <time>2023-08-15T07:27:12Z</time>
      </trkpt>
      <trkpt lat="43.54074" lon="1.43519">
        <ele>198.3</ele>
        <time>2023-08-15T07:27:15Z</time>
      </trkpt>
      <trkpt lat="43.54103" lon="1.43537">
        <ele>198.1</ele>
        <time>2023-08-15T07:27:19Z</time>
      </trkpt>
      <trkpt lat="43.54125" lon="1.43551">
        <ele>197.7</ele>
        <time>2023-08-15T07:27:22Z</time>
      </trkpt>
      <trkpt lat="43.54153" lon="1.43571">
        <ele>197.2</ele>
        <time>2023-08-15T07:27:26Z</time>
      </trkpt>
      <trkpt lat="43.5417" lon="1.43587">
        <ele>196.7</ele>
        <time>2023-08-15T07:27:29Z</time>
      </trkpt>
      <trkpt lat="43.54193" lon="1.43607">
        <ele>196.9</ele>
        <time>2023-08-15T07:27:33Z</time>
      </trkpt>
      <trkpt lat="43.54212" lon="1.43623">
        <ele>197.2</ele>
        <time>2023-08-15T07:27:36Z</time>
      </trkpt>
      <trkpt lat="43.54236" lon="1.43645">
        <ele>197.3</ele>
        <time>2023-08-15T07:27:40Z</time>
      </trkpt>
      <trkpt lat="43.54258" lon="1.43667">
        <ele>197.9</ele>
        <time>2023-08-15T07:27:44Z</time>
      </trkpt>
      <trkpt lat="43.54274" lon="1.43685">
        <ele>198.1</ele>
        <time>2023-08-15T07:27:47Z</time>
      </trkpt>
      <trkpt lat="43.54293" lon="1.43712">
        <ele>198.6</ele>
        <time>2023-08-15T07:27:51Z</time>
      </trkpt>
      <trkpt lat="43.5431" lon="1.43744">
        <ele>198.5</ele>
        <time>2023-08-15T07:27:55Z</time>
      </trkpt>
      <trkpt lat="43.54321" lon="1.43768">
        <ele>198.1</ele>
        <time>2023-08-15T07:27:58Z</time>
      </trkpt>
      <trkpt lat="43.54336" lon="1.43801">
        <ele>198.5</ele>
        <time>2023-08-15T07:28:02Z</time>
      </trkpt>
      <trkpt lat="43.5435" lon="1.43835">
        <ele>198.7</ele>
        <time>2023-08-15T07:28:06Z</time>
      </trkpt>
      <trkpt lat="43.54368" lon="1.43855">
        <ele>198.4</ele>
        <time>2023-08-15T07:28:09Z</time>
      </trkpt>
      <trkpt lat="43.54396" lon="1.43868">
        <ele>198.7</ele>
        <time>2023-08-15T07:28:13Z</time>
      </trkpt>
      <trkpt lat="43.54416" lon="1.43877">
        <ele>198.3</ele>
        <time>2023-08-15T07:28:16Z</time>
      </trkpt>
      <trkpt lat="43.54443" lon="1.43892">
        <ele>198.4</ele>
        <time>2023-08-15T07:28:20Z</time>
      </trkpt>
      <trkpt lat="43.54462" lon="1.43905">
        <ele>198</ele>
        <time>2023-08-15T07:28:23Z</time>
      </trkpt>
      <trkpt lat="43.54488" lon="1.4392">
        <ele>197.4</ele>
        <time>2023-08-15T07:28:27Z</time>
      </trkpt>
      <trkpt lat="43.54508" lon="1.43926">
        <ele>197.5</ele>
        <time>2023-08-15T07:28:30Z</time>
      </trkpt>
      <trkpt lat="43.54537" lon="1.4392">
        <ele>198.1</ele>
        <time>2023-08-15T07:28:34Z</time>
      </trkpt>
      <trkpt lat="43.54566" lon="1.43914">
        <ele>197.9</ele>
        <time>2023-08-15T07:28:38Z</time>
      </trkpt>
      <trkpt lat="43.54586" lon="1.43916">
        <ele>198.3</ele>
        <time>2023-08-15T07:28:41Z</time>
      </trkpt>
      <trkpt lat="43.54613" lon="1.43923">
        <ele>198.4</ele>
        <time>2023-08-15T07:28:45Z</time>
      </trkpt>
      <trkpt lat="43.54642" lon="1.43931">
        <ele>198.2</ele>
        <time>2023-08-15T07:28:49Z</time>
      </trkpt>
      <trkpt lat="43.54663" lon="1.43935">
        <ele>198.3</ele>
        <time>2023-08-15T07:28:52Z</time>
      </trkpt>
      <trkpt lat="43.54691" lon="1.43934">
        <ele>198.8</ele>
        <time>2023-08-15T07:28:56Z</time>
      </trkpt>
      <trkpt lat="43.54714" lon="1.43932">
        <ele>199.1</ele>
        <time>2023-08-15T07:28:59Z</time>
      </trkpt>
      <trkpt lat="43.54743" lon="1.4393">
        <ele>198.9</ele>
        <time>2023-08-15T07:29:03Z</time>
      </trkpt>
      <trkpt lat="43.54772" lon="1.4393">
        <ele>198.8</ele>
        <time>2023-08-15T07:29:07Z</time>
      </trkpt>
      <trkpt lat="43.54801" lon="1.43928">
        <ele>198.7</ele>
        <time>2023-08-15T07:29:11Z</time>
      </trkpt>
      <trkpt lat="43.5483" lon="1.43929">
        <ele>198.3</ele>
        <time>2023-08-15T07:29:15Z</time>
      </trkpt>
      <trkpt lat="43.54856" lon="1.43933">
        <ele>198.4</ele>
        <time>2023-08-15T07:29:19Z</time>
      </trkpt>
      <trkpt lat="43.54883" lon="1.43937">
        <ele>198.9</ele>
        <time>2023-08-15T07:29:23Z</time>
      </trkpt>
      <trkpt lat="43.54903" lon="1.43941">
        <ele>198.9</ele>
        <time>2023-08-15T07:29:26Z</time>
      </trkpt>
      <trkpt lat="43.54922" lon="1.43951">
        <ele>199.1</ele>
        <time>2023-08-15T07:29:29Z</time>
      </trkpt>
      <trkpt lat="43.54947" lon="1.43968">
        <ele>199.6</ele>
        <time>2023-08-15T07:29:33Z</time>
      </trkpt>
      <trkpt lat="43.54966" lon="1.43975">
        <ele>200.1</ele>
        <time>2023-08-15T07:29:36Z</time>
      </trkpt>
      <trkpt lat="43.54993" lon="1.4398">
        <ele>201.4</ele>
        <time>2023-08-15T07:29:40Z</time>
      </trkpt>
      <trkpt lat="43.55011" lon="1.43986">
        <ele>201.5</ele>
        <time>2023-08-15T07:29:43Z</time>
      </trkpt>
      <trkpt lat="43.55035" lon="1.43999">
        <ele>202</ele>
        <time>2023-08-15T07:29:47Z</time>
      </trkpt>
      <trkpt lat="43.55054" lon="1.44009">
        <ele>201.8</ele>
        <time>2023-08-15T07:29:50Z</time>
      </trkpt>
      <trkpt lat="43.55072" lon="1.44019">
        <ele>202.1</ele>
        <time>2023-08-15T07:29:53Z</time>
      </trkpt>
      <trkpt lat="43.55094" lon="1.44033">
        <ele>202.6</ele>
        <time>2023-08-15T07:29:57Z</time>
      </trkpt>
      <trkpt lat="43.55118" lon="1.44045">
        <ele>204.5</ele>
        <time>2023-08-15T07:30:01Z</time>
      </trkpt>
      <trkpt lat="43.55144" lon="1.44055">
        <ele>205.3</ele>
        <time>2023-08-15T07:30:05Z</time>
      </trkpt>
      <trkpt lat="43.55163" lon="1.4406">
        <ele>206.6</ele>
        <time>2023-08-15T07:30:08Z</time>
      </trkpt>
      <trkpt lat="43.55191" lon="1.44065">
        <ele>206.9</ele>
        <time>2023-08-15T07:30:12Z</time>
      </trkpt>
      <trkpt lat="43.5521" lon="1.44067">
        <ele>207.4</ele>
        <time>2023-08-15T07:30:15Z</time>
      </trkpt>
      <trkpt lat="43.55236" lon="1.44073">
        <ele>207.5</ele>
        <time>2023-08-15T07:30:19Z</time>
      </trkpt>
      <trkpt lat="43.55256" lon="1.44079">
        <ele>208</ele>
        <time>2023-08-15T07:30:22Z</time>
      </trkpt>
      <trkpt lat="43.55275" lon="1.44083">
        <ele>208.3</ele>
        <time>2023-08-15T07:30:25Z</time>
      </trkpt>
      <trkpt lat="43.55301" lon="1.44087">
        <ele>209.9</ele>
        <time>2023-08-15T07:30:29Z</time>
      </trkpt>
      <trkpt lat="43.5532" lon="1.4409">
        <ele>210.6</ele>
        <time>2023-08-15T07:30:32Z</time>
      </trkpt>
      <trkpt lat="43.55347" lon="1.44096">
        <ele>210.7</ele>
        <time>2023-08-15T07:30:36Z</time>
      </trkpt>
      <trkpt lat="43.55375" lon="1.44101">
        <ele>210.5</ele>
        <time>2023-08-15T07:30:40Z</time>
      </trkpt>
      <trkpt lat="43.55398" lon="1.44102">
        <ele>210</ele>
        <time>2023-08-15T07:30:43Z</time>
      </trkpt>
      <trkpt lat="43.55428" lon="1.44103">
        <ele>208.4</ele>
        <time>2023-08-15T07:30:47Z</time>
      </trkpt>
      <trkpt lat="43.5545" lon="1.44101">
        <ele>206.6</ele>
        <time>2023-08-15T07:30:50Z</time>
      </trkpt>
      <trkpt lat="43.5548" lon="1.44099">
        <ele>205</ele>
        <time>2023-08-15T07:30:54Z</time>
      </trkpt>
      <trkpt lat="43.55503" lon="1.441">
        <ele>204.2</ele>
        <time>2023-08-15T07:30:57Z</time>
      </trkpt>
      <trkpt lat="43.55533" lon="1.44102">
        <ele>204</ele>
        <time>2023-08-15T07:31:01Z</time>
      </trkpt>
      <trkpt lat="43.55563" lon="1.44103">
        <ele>202.7</ele>
        <time>2023-08-15T07:31:05Z</time>
      </trkpt>
      <trkpt lat="43.5559" lon="1.44108">
        <ele>203.3</ele>
        <time>2023-08-15T07:31:09Z</time>
      </trkpt>
      <trkpt lat="43.5561" lon="1.44112">
        <ele>203.7</ele>
        <time>2023-08-15T07:31:12Z</time>
      </trkpt>
      <trkpt lat="43.55639" lon="1.44118">
        <ele>204.6</ele>
        <time>2023-08-15T07:31:16Z</time>
      </trkpt>
      <trkpt lat="43.55667" lon="1.44122">
        <ele>204.9</ele>
        <time>2023-08-15T07:31:20Z</time>
      </trkpt>
      <trkpt lat="43.55687" lon="1.44125">
        <ele>206.1</ele>
        <time>2023-08-15T07:31:23Z</time>
      </trkpt>
      <trkpt lat="43.55715" lon="1.44127">
        <ele>206.8</ele>
        <time>2023-08-15T07:31:27Z</time>
      </trkpt>
      <trkpt lat="43.55743" lon="1.44128">
        <ele>207.6</ele>
        <time>2023-08-15T07:31:31Z</time>
      </trkpt>
      <trkpt lat="43.55764" lon="1.44121">
        <ele>207.5</ele>
        <time>2023-08-15T07:31:34Z</time>
      </trkpt>
      <trkpt lat="43.55786" lon="1.44109">
        <ele>207.5</ele>
        <time>2023-08-15T07:31:37Z</time>
      </trkpt>
      <trkpt lat="43.55805" lon="1.44091">
        <ele>207.5</ele>
        <time>2023-08-15T07:31:40Z</time>
      </trkpt>
      <trkpt lat="43.55822" lon="1.44071">
        <ele>206.4</ele>
        <time>2023-08-15T07:31:43Z</time>
      </trkpt>
      <trkpt lat="43.55847" lon="1.44044">
        <ele>205.1</ele>
        <time>2023-08-15T07:31:47Z</time>
      </trkpt>
      <trkpt lat="43.55874" lon="1.44023">
        <ele>203.2</ele>
        <time>2023-08-15T07:31:51Z</time>
      </trkpt>
      <trkpt lat="43.55902" lon="1.44007">
        <ele>201.3</ele>
        <time>2023-08-15T07:31:55Z</time>
      </trkpt>
      <trkpt lat="43.55923" lon="1.43997">
        <ele>201.1</ele>
        <time>2023-08-15T07:31:58Z</time>
      </trkpt>
      <trkpt lat="43.5595" lon="1.43991">
        <ele>201.1</ele>
        <time>2023-08-15T07:32:02Z</time>
      </trkpt>
      <trkpt lat="43.55971" lon="1.43993">
        <ele>201.2</ele>
        <time>2023-08-15T07:32:05Z</time>
      </trkpt>
      <trkpt lat="43.56002" lon="1.43996">
        <ele>200.8</ele>
        <time>2023-08-15T07:32:09Z</time>
      </trkpt>
      <trkpt lat="43.56036" lon="1.43998">
        <ele>199.2</ele>
        <time>2023-08-15T07:32:13Z</time>
      </trkpt>
      <trkpt lat="43.56071" lon="1.43993">
        <ele>197.5</ele>
        <time>2023-08-15T07:32:17Z</time>
      </trkpt>
      <trkpt lat="43.56096" lon="1.43987">
        <ele>197.4</ele>
        <time>2023-08-15T07:32:20Z</time>
      </trkpt>
      <trkpt lat="43.5612" lon="1.4398">
        <ele>196.5</ele>
        <time>2023-08-15T07:32:23Z</time>
      </trkpt>
      <trkpt lat="43.5615" lon="1.43971">
        <ele>197.1</ele>
        <time>2023-08-15T07:32:27Z</time>
      </trkpt>
      <trkpt lat="43.56176" lon="1.43962">
        <ele>197.8</ele>
        <time>2023-08-15T07:32:31Z</time>
      </trkpt>
      <trkpt lat="43.56197" lon="1.43957">
        <ele>198.4</ele>
        <time>2023-08-15T07:32:34Z</time>
      </trkpt>
      <trkpt lat="43.56226" lon="1.43951">
        <ele>199.1</ele>
        <time>2023-08-15T07:32:38Z</time>
      </trkpt>
      <trkpt lat="43.56255" lon="1.43946">
        <ele>199.5</ele>
        <time>2023-08-15T07:32:42Z</time>
      </trkpt>
      <trkpt lat="43.56276" lon="1.43942">
        <ele>199.2</ele>
        <time>2023-08-15T07:32:45Z</time>
      </trkpt>
      <trkpt lat="43.56304" lon="1.4394">
        <ele>199</ele>
        <time>2023-08-15T07:32:49Z</time>
      </trkpt>
      <trkpt lat="43.56333" lon="1.43937">
        <ele>198.6</ele>
        <time>2023-08-15T07:32:53Z</time>
      </trkpt>
      <trkpt lat="43.56354" lon="1.43937">
        <ele>198.5</ele>
        <time>2023-08-15T07:32:56Z</time>
      </trkpt>
      <trkpt lat="43.5638" lon="1.43944">
        <ele>199.1</ele>
        <time>2023-08-15T07:33:00Z</time>
      </trkpt>
      <trkpt lat="43.564" lon="1.43953">
        <ele>199.5</ele>
        <time>2023-08-15T07:33:03Z</time>
      </trkpt>
      <trkpt lat="43.56421" lon="1.43962">
        <ele>199.9</ele>
        <time>2023-08-15T07:33:06Z</time>
      </trkpt>
      <trkpt lat="43.56449" lon="1.43972">
        <ele>200.5</ele>
        <time>2023-08-15T07:33:10Z</time>
      </trkpt>
      <trkpt lat="43.56468" lon="1.43979">
        <ele>200.4</ele>
        <time>2023-08-15T07:33:13Z</time>
      </trkpt>
      <trkpt lat="43.56497" lon="1.43982">
        <ele>199.7</ele>
        <time>2023-08-15T07:33:17Z</time>
      </trkpt>
      <trkpt lat="43.5652" lon="1.43982">
        <ele>198.9</ele>
        <time>2023-08-15T07:33:20Z</time>
      </trkpt>
      <trkpt lat="43.56542" lon="1.43983">
        <ele>197.9</ele>
        <time>2023-08-15T07:33:23Z</time>
      </trkpt>
      <trkpt lat="43.56568" lon="1.43985">
        <ele>198.3</ele>
        <time>2023-08-15T07:33:27Z</time>
      </trkpt>
      <trkpt lat="43.56597" lon="1.43986">
        <ele>198.2</ele>
        <time>2023-08-15T07:33:31Z</time>
      </trkpt>
      <trkpt lat="43.56625" lon="1.43987">
        <ele>198.7</ele>
        <time>2023-08-15T07:33:35Z</time>
      </trkpt>
      <trkpt lat="43.56647" lon="1.43987">
        <ele>198.7</ele>
        <time>2023-08-15T07:33:38Z</time>
      </trkpt>
      <trkpt lat="43.56675" lon="1.43987">
        <ele>199.1</ele>
        <time>2023-08-15T07:33:42Z</time>
      </trkpt>
      <trkpt lat="43.56704" lon="1.43986">
        <ele>198.8</ele>
        <time>2023-08-15T07:33:46Z</time>
      </trkpt>
      <trkpt lat="43.56726" lon="1.43982">
        <ele>198.4</ele>
        <time>2023-08-15T07:33:49Z</time>
      </trkpt>
      <trkpt lat="43.56757" lon="1.43976">
        <ele>198.3</ele>
        <time>2023-08-15T07:33:53Z</time>
      </trkpt>
      <trkpt lat="43.5678" lon="1.43971">
        <ele>197.6</ele>
        <time>2023-08-15T07:33:56Z</time>
      </trkpt>
      <trkpt lat="43.56812" lon="1.43966">
        <ele>197.3</ele>
        <time>2023-08-15T07:34:00Z</time>
      </trkpt>
      <trkpt lat="43.56842" lon="1.43962">
        <ele>197.1</ele>
        <time>2023-08-15T07:34:04Z</time>
      </trkpt>
      <trkpt lat="43.5687" lon="1.43957">
        <ele>197.4</ele>
        <time>2023-08-15T07:34:08Z</time>
      </trkpt>
      <trkpt lat="43.56897" lon="1.4395">
        <ele>196.3</ele>
        <time>2023-08-15T07:34:12Z</time>
      </trkpt>
      <trkpt lat="43.56918" lon="1.43946">
        <ele>196</ele>
        <time>2023-08-15T07:34:15Z</time>
      </trkpt>
      <trkpt lat="43.56947" lon="1.43943">
        <ele>195.7</ele>
        <time>2023-08-15T07:34:19Z</time>
      </trkpt>
      <trkpt lat="43.56975" lon="1.43937">
        <ele>195.4</ele>
        <time>2023-08-15T07:34:23Z</time>
      </trkpt>
      <trkpt lat="43.57001" lon="1.43931">
        <ele>195.2</ele>
        <time>2023-08-15T07:34:27Z</time>
      </trkpt>
      <trkpt lat="43.57029" lon="1.43924">
        <ele>195</ele>
        <time>2023-08-15T07:34:31Z</time>
      </trkpt>
      <trkpt lat="43.57051" lon="1.43919">
        <ele>195</ele>
        <time>2023-08-15T07:34:34Z</time>
      </trkpt>
      <trkpt lat="43.57079" lon="1.43914">
        <ele>194.8</ele>
        <time>2023-08-15T07:34:38Z</time>
      </trkpt>
      <trkpt lat="43.57108" lon="1.43908">
        <ele>194.2</ele>
        <time>2023-08-15T07:34:42Z</time>
      </trkpt>
      <trkpt lat="43.57129" lon="1.43905">
        <ele>193.9</ele>
        <time>2023-08-15T07:34:45Z</time>
      </trkpt>
      <trkpt lat="43.57156" lon="1.43898">
        <ele>194.7</ele>
        <time>2023-08-15T07:34:49Z</time>
      </trkpt>
      <trkpt lat="43.57177" lon="1.43887">
        <ele>194.8</ele>
        <time>2023-08-15T07:34:52Z</time>
      </trkpt>
      <trkpt lat="43.57203" lon="1.43866">
        <ele>194.9</ele>
        <time>2023-08-15T07:34:56Z</time>
      </trkpt>
      <trkpt lat="43.5722" lon="1.43848">
        <ele>194.5</ele>
        <time>2023-08-15T07:34:59Z</time>
      </trkpt>
      <trkpt lat="43.5724" lon="1.43828">
        <ele>193.3</ele>
        <time>2023-08-15T07:35:02Z</time>
      </trkpt>
      <trkpt lat="43.57267" lon="1.43801">
        <ele>192.4</ele>
        <time>2023-08-15T07:35:06Z</time>
      </trkpt>
      <trkpt lat="43.57293" lon="1.43774">
        <ele>192.6</ele>
        <time>2023-08-15T07:35:10Z</time>
      </trkpt>
      <trkpt lat="43.5731" lon="1.43756">
        <ele>192</ele>
        <time>2023-08-15T07:35:13Z</time>
      </trkpt>
      <trkpt lat="43.57332" lon="1.43734">
        <ele>192.4</ele>
        <time>2023-08-15T07:35:17Z</time>
      </trkpt>
      <trkpt lat="43.57348" lon="1.4372">
        <ele>193.8</ele>
        <time>2023-08-15T07:35:20Z</time>
      </trkpt>
      <trkpt lat="43.5736" lon="1.43711">
        <ele>194.5</ele>
        <time>2023-08-15T07:35:23Z</time>
      </trkpt>
      <trkpt lat="43.57359" lon="1.43712">
        <ele>195.7</ele>
        <time>2023-08-15T07:35:57Z</time>
      </trkpt>
      <trkpt lat="43.57357" lon="1.43714">
        <ele>195.6</ele>
        <time>2023-08-15T07:36:00Z</time>
      </trkpt>
      <trkpt lat="43.57353" lon="1.43717">
        <ele>195.7</ele>
        <time>2023-08-15T07:36:03Z</time>
      </trkpt>
      <trkpt lat="43.57351" lon="1.4372">
        <ele>194.9</ele>
        <time>2023-08-15T07:36:07Z</time>
      </trkpt>
      <trkpt lat="43.57349" lon="1.43722">
        <ele>194.8</ele>
        <time>2023-08-15T07:36:10Z</time>
      </trkpt>
      <trkpt lat="43.57347" lon="1.43724">
        <ele>194</ele>
        <time>2023-08-15T07:36:14Z</time>
      </trkpt>
      <trkpt lat="43.57343" lon="1.43728">
        <ele>193.7</ele>
        <time>2023-08-15T07:36:17Z</time>
      </trkpt>
      <trkpt lat="43.57339" lon="1.43731">
        <ele>193.4</ele>
        <time>2023-08-15T07:36:20Z</time>
      </trkpt>
      <trkpt lat="43.57335" lon="1.43735">
        <ele>193.8</ele>
        <time>2023-08-15T07:36:24Z</time>
      </trkpt>
      <trkpt lat="43.57331" lon="1.43739">
        <ele>193.3</ele>
        <time>2023-08-15T07:36:28Z</time>
      </trkpt>
      <trkpt lat="43.5733" lon="1.43741">
        <ele>193.6</ele>
        <time>2023-08-15T07:36:31Z</time>
      </trkpt>
      <trkpt lat="43.57328" lon="1.43742">
        <ele>193.6</ele>
        <time>2023-08-15T07:36:35Z</time>
      </trkpt>
      <trkpt lat="43.57329" lon="1.43741">
        <ele>192.3</ele>
        <time>2023-08-15T07:36:49Z</time>
      </trkpt>
      <trkpt lat="43.57328" lon="1.43742">
        <ele>192.6</ele>
        <time>2023-08-15T07:36:52Z</time>
      </trkpt>
      <trkpt lat="43.57324" lon="1.43745">
        <ele>192.7</ele>
        <time>2023-08-15T07:36:56Z</time>
      </trkpt>
      <trkpt lat="43.57322" lon="1.43747">
        <ele>193</ele>
        <time>2023-08-15T07:36:59Z</time>
      </trkpt>
      <trkpt lat="43.5732" lon="1.43749">
        <ele>193</ele>
        <time>2023-08-15T07:37:02Z</time>
      </trkpt>
      <trkpt lat="43.57315" lon="1.43754">
        <ele>192.6</ele>
        <time>2023-08-15T07:37:05Z</time>
      </trkpt>
      <trkpt lat="43.57308" lon="1.43763">
        <ele>192.1</ele>
        <time>2023-08-15T07:37:46Z</time>
      </trkpt>
      <trkpt lat="43.57313" lon="1.43758">
        <ele>192.1</ele>
        <time>2023-08-15T07:37:49Z</time>
      </trkpt>
      <trkpt lat="43.57324" lon="1.43745">
        <ele>192.5</ele>
        <time>2023-08-15T07:37:52Z</time>
      </trkpt>
      <trkpt lat="43.57344" lon="1.43727">
        <ele>193.7</ele>
        <time>2023-08-15T07:37:56Z</time>
      </trkpt>
      <trkpt lat="43.57359" lon="1.43713">
        <ele>194.7</ele>
        <time>2023-08-15T07:37:59Z</time>
      </trkpt>
      <trkpt lat="43.57379" lon="1.43697">
        <ele>196.6</ele>
        <time>2023-08-15T07:38:03Z</time>
      </trkpt>
      <trkpt lat="43.57404" lon="1.43695">
        <ele>197.7</ele>
        <time>2023-08-15T07:38:07Z</time>
      </trkpt>
      <trkpt lat="43.57428" lon="1.43707">
        <ele>198.9</ele>
        <time>2023-08-15T07:38:11Z</time>
      </trkpt>
      <trkpt lat="43.57453" lon="1.43725">
        <ele>199.9</ele>
        <time>2023-08-15T07:38:15Z</time>
      </trkpt>
      <trkpt lat="43.5747" lon="1.43737">
        <ele>199.9</ele>
        <time>2023-08-15T07:38:18Z</time>
      </trkpt>
      <trkpt lat="43.57492" lon="1.43747">
        <ele>199.2</ele>
        <time>2023-08-15T07:38:22Z</time>
      </trkpt>
      <trkpt lat="43.57509" lon="1.43743">
        <ele>198.3</ele>
        <time>2023-08-15T07:38:25Z</time>
      </trkpt>
      <trkpt lat="43.57528" lon="1.43713">
        <ele>197.5</ele>
        <time>2023-08-15T07:38:29Z</time>
      </trkpt>
      <trkpt lat="43.5754" lon="1.43672">
        <ele>195.7</ele>
        <time>2023-08-15T07:38:33Z</time>
      </trkpt>
      <trkpt lat="43.57552" lon="1.43646">
        <ele>195.7</ele>
        <time>2023-08-15T07:38:36Z</time>
      </trkpt>
      <trkpt lat="43.57575" lon="1.43627">
        <ele>194.9</ele>
        <time>2023-08-15T07:38:40Z</time>
      </trkpt>
      <trkpt lat="43.57603" lon="1.43624">
        <ele>195</ele>
        <time>2023-08-15T07:38:44Z</time>
      </trkpt>
      <trkpt lat="43.57625" lon="1.43625">
        <ele>195.3</ele>
        <time>2023-08-15T07:38:47Z</time>
      </trkpt>
      <trkpt lat="43.57652" lon="1.43628">
        <ele>195.2</ele>
        <time>2023-08-15T07:38:51Z</time>
      </trkpt>
      <trkpt lat="43.57672" lon="1.43633">
        <ele>196</ele>
        <time>2023-08-15T07:38:54Z</time>
      </trkpt>
      <trkpt lat="43.57687" lon="1.43636">
        <ele>195.9</ele>
        <time>2023-08-15T07:38:57Z</time>
      </trkpt>
      <trkpt lat="43.57702" lon="1.43643">
        <ele>196</ele>
        <time>2023-08-15T07:39:01Z</time>
      </trkpt>
      <trkpt lat="43.57724" lon="1.43651">
        <ele>195.4</ele>
        <time>2023-08-15T07:39:05Z</time>
      </trkpt>
      <trkpt lat="43.57734" lon="1.43663">
        <ele>194.9</ele>
        <time>2023-08-15T07:39:09Z</time>
      </trkpt>
      <trkpt lat="43.57733" lon="1.43698">
        <ele>194.6</ele>
        <time>2023-08-15T07:39:13Z</time>
      </trkpt>
      <trkpt lat="43.57731" lon="1.43732">
        <ele>194.2</ele>
        <time>2023-08-15T07:39:17Z</time>
      </trkpt>
      <trkpt lat="43.57731" lon="1.43754">
        <ele>194</ele>
        <time>2023-08-15T07:39:20Z</time>
      </trkpt>
      <trkpt lat="43.5773" lon="1.43794">
        <ele>193.3</ele>
        <time>2023-08-15T07:39:24Z</time>
      </trkpt>
      <trkpt lat="43.5773" lon="1.43825">
        <ele>191.6</ele>
        <time>2023-08-15T07:39:27Z</time>
      </trkpt>
      <trkpt lat="43.5773" lon="1.43863">
        <ele>191.6</ele>
        <time>2023-08-15T07:39:31Z</time>
      </trkpt>
      <trkpt lat="43.57729" lon="1.43892">
        <ele>191.6</ele>
        <time>2023-08-15T07:39:34Z</time>
      </trkpt>
      <trkpt lat="43.57728" lon="1.43921">
        <ele>191.6</ele>
        <time>2023-08-15T07:39:37Z</time>
      </trkpt>
      <trkpt lat="43.57723" lon="1.43959">
        <ele>191.6</ele>
        <time>2023-08-15T07:39:41Z</time>
      </trkpt>
      <trkpt lat="43.5772" lon="1.43989">
        <ele>191.6</ele>
        <time>2023-08-15T07:39:44Z</time>
      </trkpt>
      <trkpt lat="43.57718" lon="1.44013">
        <ele>191.6</ele>
        <time>2023-08-15T07:39:47Z</time>
      </trkpt>
      <trkpt lat="43.57718" lon="1.44047">
        <ele>191.6</ele>
        <time>2023-08-15T07:39:51Z</time>
      </trkpt>
      <trkpt lat="43.57719" lon="1.44077">
        <ele>191.6</ele>
        <time>2023-08-15T07:39:55Z</time>
      </trkpt>
      <trkpt lat="43.57716" lon="1.441">
        <ele>191.6</ele>
        <time>2023-08-15T07:39:58Z</time>
      </trkpt>
      <trkpt lat="43.57711" lon="1.44135">
        <ele>191.6</ele>
        <time>2023-08-15T07:40:02Z</time>
      </trkpt>
      <trkpt lat="43.57702" lon="1.44163">
        <ele>191.6</ele>
        <time>2023-08-15T07:40:05Z</time>
      </trkpt>
      <trkpt lat="43.57693" lon="1.44194">
        <ele>191.6</ele>
        <time>2023-08-15T07:40:09Z</time>
      </trkpt>
      <trkpt lat="43.57685" lon="1.44207">
        <ele>191.6</ele>
        <time>2023-08-15T07:40:12Z</time>
      </trkpt>
      <trkpt lat="43.57677" lon="1.44223">
        <ele>191.6</ele>
        <time>2023-08-15T07:40:16Z</time>
      </trkpt>
      <trkpt lat="43.5769" lon="1.44236">
        <ele>191.3</ele>
        <time>2023-08-15T07:40:19Z</time>
      </trkpt>
      <trkpt lat="43.57712" lon="1.44249">
        <ele>193.5</ele>
        <time>2023-08-15T07:40:23Z</time>
      </trkpt>
      <trkpt lat="43.57731" lon="1.44261">
        <ele>193.5</ele>
        <time>2023-08-15T07:40:26Z</time>
      </trkpt>
      <trkpt lat="43.57755" lon="1.44276">
        <ele>193.5</ele>
        <time>2023-08-15T07:40:30Z</time>
      </trkpt>
      <trkpt lat="43.57768" lon="1.44288">
        <ele>193.5</ele>
        <time>2023-08-15T07:40:34Z</time>
      </trkpt>
      <trkpt lat="43.57776" lon="1.44305">
        <ele>193.5</ele>
        <time>2023-08-15T07:40:38Z</time>
      </trkpt>
      <trkpt lat="43.57799" lon="1.44321">
        <ele>192.9</ele>
        <time>2023-08-15T07:40:42Z</time>
      </trkpt>
      <trkpt lat="43.57823" lon="1.44333">
        <ele>193.1</ele>
        <time>2023-08-15T07:40:46Z</time>
      </trkpt>
      <trkpt lat="43.57834" lon="1.44347">
        <ele>193.1</ele>
        <time>2023-08-15T07:40:49Z</time>
      </trkpt>
      <trkpt lat="43.57848" lon="1.44373">
        <ele>193.1</ele>
        <time>2023-08-15T07:40:53Z</time>
      </trkpt>
      <trkpt lat="43.5786" lon="1.44397">
        <ele>193.1</ele>
        <time>2023-08-15T07:40:56Z</time>
      </trkpt>
      <trkpt lat="43.57877" lon="1.4443">
        <ele>193.1</ele>
        <time>2023-08-15T07:41:00Z</time>
      </trkpt>
      <trkpt lat="43.57894" lon="1.4446">
        <ele>193.1</ele>
        <time>2023-08-15T07:41:04Z</time>
      </trkpt>
      <trkpt lat="43.57906" lon="1.4448">
        <ele>193.1</ele>
        <time>2023-08-15T07:41:07Z</time>
      </trkpt>
      <trkpt lat="43.57921" lon="1.44502">
        <ele>193.1</ele>
        <time>2023-08-15T07:41:11Z</time>
      </trkpt>
      <trkpt lat="43.57933" lon="1.44521">
        <ele>193.1</ele>
        <time>2023-08-15T07:41:14Z</time>
      </trkpt>
      <trkpt lat="43.57946" lon="1.44542">
        <ele>193.1</ele>
        <time>2023-08-15T07:41:17Z</time>
      </trkpt>
      <trkpt lat="43.5796" lon="1.44567">
        <ele>193.1</ele>
        <time>2023-08-15T07:41:21Z</time>
      </trkpt>
      <trkpt lat="43.57967" lon="1.44577">
        <ele>193.1</ele>
        <time>2023-08-15T07:41:24Z</time>
      </trkpt>
      <trkpt lat="43.57969" lon="1.44582">
        <ele>193.1</ele>
        <time>2023-08-15T07:41:34Z</time>
      </trkpt>
      <trkpt lat="43.57972" lon="1.44588">
        <ele>193.1</ele>
        <time>2023-08-15T07:41:38Z</time>
      </trkpt>
      <trkpt lat="43.57972" lon="1.44593">
        <ele>193.1</ele>
        <time>2023-08-15T07:41:41Z</time>
      </trkpt>
      <trkpt lat="43.57965" lon="1.44601">
        <ele>195.9</ele>
        <time>2023-08-15T07:41:44Z</time>
      </trkpt>
      <trkpt lat="43.57942" lon="1.44623">
        <ele>193.1</ele>
        <time>2023-08-15T07:41:48Z</time>
      </trkpt>
      <trkpt lat="43.57917" lon="1.44644">
        <ele>193.1</ele>
        <time>2023-08-15T07:41:52Z</time>
      </trkpt>
      <trkpt lat="43.57901" lon="1.44657">
        <ele>193.1</ele>
        <time>2023-08-15T07:41:55Z</time>
      </trkpt>
      <trkpt lat="43.57895" lon="1.44669">
        <ele>195.9</ele>
        <time>2023-08-15T07:41:59Z</time>
      </trkpt>
      <trkpt lat="43.57906" lon="1.44699">
        <ele>193.1</ele>
        <time>2023-08-15T07:42:03Z</time>
      </trkpt>
      <trkpt lat="43.57919" lon="1.44723">
        <ele>193.1</ele>
        <time>2023-08-15T07:42:06Z</time>
      </trkpt>
      <trkpt lat="43.57934" lon="1.44753">
        <ele>195.6</ele>
        <time>2023-08-15T07:42:10Z</time>
      </trkpt>
      <trkpt lat="43.57951" lon="1.44781">
        <ele>195.6</ele>
        <time>2023-08-15T07:42:14Z</time>
      </trkpt>
      <trkpt lat="43.57967" lon="1.44811">
        <ele>195.6</ele>
        <time>2023-08-15T07:42:18Z</time>
      </trkpt>
      <trkpt lat="43.57976" lon="1.44833">
        <ele>195.6</ele>
        <time>2023-08-15T07:42:21Z</time>
      </trkpt>
      <trkpt lat="43.57989" lon="1.4486">
        <ele>195.6</ele>
        <time>2023-08-15T07:42:25Z</time>
      </trkpt>
      <trkpt lat="43.58001" lon="1.44884">
        <ele>194</ele>
        <time>2023-08-15T07:42:29Z</time>
      </trkpt>
      <trkpt lat="43.58008" lon="1.44901">
        <ele>195.6</ele>
        <time>2023-08-15T07:42:32Z</time>
      </trkpt>
      <trkpt lat="43.58012" lon="1.44915">
        <ele>193.1</ele>
        <time>2023-08-15T07:42:36Z</time>
      </trkpt>
      <trkpt lat="43.58014" lon="1.4492">
        <ele>194.8</ele>
        <time>2023-08-15T07:43:39Z</time>
      </trkpt>
      <trkpt lat="43.58019" lon="1.44929">
        <ele>194.8</ele>
        <time>2023-08-15T07:43:43Z</time>
      </trkpt>
      <trkpt lat="43.58025" lon="1.44941">
        <ele>194.8</ele>
        <time>2023-08-15T07:43:46Z</time>
      </trkpt>
      <trkpt lat="43.58024" lon="1.44952">
        <ele>194.8</ele>
        <time>2023-08-15T07:43:52Z</time>
      </trkpt>
      <trkpt lat="43.5802" lon="1.44962">
        <ele>194.8</ele>
        <time>2023-08-15T07:43:56Z</time>
      </trkpt>
      <trkpt lat="43.58003" lon="1.44967">
        <ele>194.8</ele>
        <time>2023-08-15T07:43:59Z</time>
      </trkpt>
      <trkpt lat="43.57975" lon="1.44974">
        <ele>193</ele>
        <time>2023-08-15T07:44:03Z</time>
      </trkpt>
      <trkpt lat="43.57943" lon="1.44986">
        <ele>191.4</ele>
        <time>2023-08-15T07:44:07Z</time>
      </trkpt>
      <trkpt lat="43.57912" lon="1.44998">
        <ele>191.3</ele>
        <time>2023-08-15T07:44:11Z</time>
      </trkpt>
      <trkpt lat="43.57893" lon="1.45005">
        <ele>192.7</ele>
        <time>2023-08-15T07:44:14Z</time>
      </trkpt>
      <trkpt lat="43.57874" lon="1.45012">
        <ele>194.8</ele>
        <time>2023-08-15T07:44:17Z</time>
      </trkpt>
      <trkpt lat="43.57849" lon="1.45021">
        <ele>194.8</ele>
        <time>2023-08-15T07:44:21Z</time>
      </trkpt>
      <trkpt lat="43.57826" lon="1.45027">
        <ele>194.8</ele>
        <time>2023-08-15T07:44:25Z</time>
      </trkpt>
      <trkpt lat="43.57806" lon="1.45032">
        <ele>194.8</ele>
        <time>2023-08-15T07:44:29Z</time>
      </trkpt>
      <trkpt lat="43.57796" lon="1.45054">
        <ele>194.8</ele>
        <time>2023-08-15T07:44:33Z</time>
      </trkpt>
      <trkpt lat="43.5779" lon="1.45077">
        <ele>194.8</ele>
        <time>2023-08-15T07:44:36Z</time>
      </trkpt>
      <trkpt lat="43.57784" lon="1.45102">
        <ele>194.8</ele>
        <time>2023-08-15T07:44:39Z</time>
      </trkpt>
      <trkpt lat="43.57775" lon="1.45136">
        <ele>194.8</ele>
        <time>2023-08-15T07:44:43Z</time>
      </trkpt>
      <trkpt lat="43.5777" lon="1.45154">
        <ele>194.8</ele>
        <time>2023-08-15T07:44:46Z</time>
      </trkpt>
      <trkpt lat="43.57766" lon="1.45167">
        <ele>194.8</ele>
        <time>2023-08-15T07:44:49Z</time>
      </trkpt>
      <trkpt lat="43.57762" lon="1.45178">
        <ele>195.1</ele>
        <time>2023-08-15T07:44:53Z</time>
      </trkpt>
      <trkpt lat="43.5776" lon="1.45184">
        <ele>195.1</ele>
        <time>2023-08-15T07:44:57Z</time>
      </trkpt>
      <trkpt lat="43.57755" lon="1.45194">
        <ele>195.1</ele>
        <time>2023-08-15T07:45:00Z</time>
      </trkpt>
      <trkpt lat="43.57746" lon="1.45221">
        <ele>195.1</ele>
        <time>2023-08-15T07:45:04Z</time>
      </trkpt>
      <trkpt lat="43.57736" lon="1.45248">
        <ele>195.1</ele>
        <time>2023-08-15T07:45:07Z</time>
      </trkpt>
      <trkpt lat="43.57722" lon="1.45288">
        <ele>195.1</ele>
        <time>2023-08-15T07:45:11Z</time>
      </trkpt>
      <trkpt lat="43.57712" lon="1.45315">
        <ele>195.1</ele>
        <time>2023-08-15T07:45:14Z</time>
      </trkpt>
      <trkpt lat="43.57701" lon="1.45347">
        <ele>195.1</ele>
        <time>2023-08-15T07:45:18Z</time>
      </trkpt>
      <trkpt lat="43.57692" lon="1.45375">
        <ele>195.1</ele>
        <time>2023-08-15T07:45:22Z</time>
      </trkpt>
      <trkpt lat="43.57694" lon="1.454">
        <ele>195.1</ele>
        <time>2023-08-15T07:45:25Z</time>
      </trkpt>
      <trkpt lat="43.57693" lon="1.45434">
        <ele>195.1</ele>
        <time>2023-08-15T07:45:29Z</time>
      </trkpt>
      <trkpt lat="43.57681" lon="1.45455">
        <ele>195.1</ele>
        <time>2023-08-15T07:45:32Z</time>
      </trkpt>
      <trkpt lat="43.57663" lon="1.45471">
        <ele>195.1</ele>
        <time>2023-08-15T07:45:35Z</time>
      </trkpt>
      <trkpt lat="43.57639" lon="1.45489">
        <ele>195.1</ele>
        <time>2023-08-15T07:45:39Z</time>
      </trkpt>
      <trkpt lat="43.57616" lon="1.45508">
        <ele>195.1</ele>
        <time>2023-08-15T07:45:43Z</time>
      </trkpt>
      <trkpt lat="43.57594" lon="1.45532">
        <ele>195.1</ele>
        <time>2023-08-15T07:45:47Z</time>
      </trkpt>
      <trkpt lat="43.57577" lon="1.45549">
        <ele>195.1</ele>
        <time>2023-08-15T07:45:50Z</time>
      </trkpt>
      <trkpt lat="43.57556" lon="1.4557">
        <ele>195.1</ele>
        <time>2023-08-15T07:45:54Z</time>
      </trkpt>
      <trkpt lat="43.57541" lon="1.45587">
        <ele>195.1</ele>
        <time>2023-08-15T07:45:57Z</time>
      </trkpt>
      <trkpt lat="43.5753" lon="1.45598">
        <ele>195.1</ele>
        <time>2023-08-15T07:46:00Z</time>
      </trkpt>
      <trkpt lat="43.57516" lon="1.4561">
        <ele>195.1</ele>
        <time>2023-08-15T07:46:04Z</time>
      </trkpt>
      <trkpt lat="43.575" lon="1.45626">
        <ele>195.4</ele>
        <time>2023-08-15T07:46:07Z</time>
      </trkpt>
      <trkpt lat="43.57484" lon="1.45644">
        <ele>195.4</ele>
        <time>2023-08-15T07:46:10Z</time>
      </trkpt>
      <trkpt lat="43.57473" lon="1.45664">
        <ele>195.4</ele>
        <time>2023-08-15T07:46:13Z</time>
      </trkpt>
      <trkpt lat="43.57461" lon="1.45694">
        <ele>195.4</ele>
        <time>2023-08-15T07:46:17Z</time>
      </trkpt>
      <trkpt lat="43.57453" lon="1.45714">
        <ele>195.4</ele>
        <time>2023-08-15T07:46:20Z</time>
      </trkpt>
      <trkpt lat="43.57443" lon="1.45743">
        <ele>195.4</ele>
        <time>2023-08-15T07:46:24Z</time>
      </trkpt>
      <trkpt lat="43.57432" lon="1.45772">
        <ele>195.4</ele>
        <time>2023-08-15T07:46:28Z</time>
      </trkpt>
      <trkpt lat="43.57424" lon="1.45794">
        <ele>195.4</ele>
        <time>2023-08-15T07:46:31Z</time>
      </trkpt>
      <trkpt lat="43.57413" lon="1.45819">
        <ele>195.4</ele>
        <time>2023-08-15T07:46:35Z</time>
      </trkpt>
      <trkpt lat="43.57408" lon="1.45831">
        <ele>195.4</ele>
        <time>2023-08-15T07:46:38Z</time>
      </trkpt>
      <trkpt lat="43.57394" lon="1.45853">
        <ele>195.4</ele>
        <time>2023-08-15T07:46:42Z</time>
      </trkpt>
      <trkpt lat="43.5738" lon="1.45873">
        <ele>197.5</ele>
        <time>2023-08-15T07:46:45Z</time>
      </trkpt>
      <trkpt lat="43.57359" lon="1.45901">
        <ele>197.5</ele>
        <time>2023-08-15T07:46:49Z</time>
      </trkpt>
      <trkpt lat="43.57341" lon="1.45929">
        <ele>197.5</ele>
        <time>2023-08-15T07:46:53Z</time>
      </trkpt>
      <trkpt lat="43.57324" lon="1.45958">
        <ele>197.5</ele>
        <time>2023-08-15T07:46:57Z</time>
      </trkpt>
      <trkpt lat="43.57313" lon="1.45978">
        <ele>197.5</ele>
        <time>2023-08-15T07:47:00Z</time>
      </trkpt>
      <trkpt lat="43.57299" lon="1.46004">
        <ele>197.5</ele>
        <time>2023-08-15T07:47:04Z</time>
      </trkpt>
      <trkpt lat="43.5729" lon="1.4602">
        <ele>197.5</ele>
        <time>2023-08-15T07:47:07Z</time>
      </trkpt>
      <trkpt lat="43.57284" lon="1.4603">
        <ele>197.5</ele>
        <time>2023-08-15T07:47:11Z</time>
      </trkpt>
      <trkpt lat="43.57276" lon="1.46042">
        <ele>197.5</ele>
        <time>2023-08-15T07:47:14Z</time>
      </trkpt>
      <trkpt lat="43.57262" lon="1.46061">
        <ele>197.5</ele>
        <time>2023-08-15T07:47:18Z</time>
      </trkpt>
      <trkpt lat="43.57248" lon="1.46086">
        <ele>197.5</ele>
        <time>2023-08-15T07:47:21Z</time>
      </trkpt>
      <trkpt lat="43.57238" lon="1.46102">
        <ele>197.5</ele>
        <time>2023-08-15T07:47:24Z</time>
      </trkpt>
      <trkpt lat="43.57233" lon="1.4612">
        <ele>197.5</ele>
        <time>2023-08-15T07:47:27Z</time>
      </trkpt>
      <trkpt lat="43.57237" lon="1.46157">
        <ele>197.5</ele>
        <time>2023-08-15T07:47:31Z</time>
      </trkpt>
      <trkpt lat="43.57242" lon="1.46188">
        <ele>197.5</ele>
        <time>2023-08-15T07:47:34Z</time>
      </trkpt>
      <trkpt lat="43.57246" lon="1.46217">
        <ele>197.5</ele>
        <time>2023-08-15T07:47:37Z</time>
      </trkpt>
      <trkpt lat="43.57249" lon="1.46245">
        <ele>197.5</ele>
        <time>2023-08-15T07:47:40Z</time>
      </trkpt>
      <trkpt lat="43.57255" lon="1.46278">
        <ele>195.7</ele>
        <time>2023-08-15T07:47:44Z</time>
      </trkpt>
      <trkpt lat="43.57274" lon="1.463">
        <ele>195.4</ele>
        <time>2023-08-15T07:47:48Z</time>
      </trkpt>
      <trkpt lat="43.573" lon="1.46326">
        <ele>195.4</ele>
        <time>2023-08-15T07:47:52Z</time>
      </trkpt>
      <trkpt lat="43.57317" lon="1.46344">
        <ele>195.4</ele>
        <time>2023-08-15T07:47:55Z</time>
      </trkpt>
      <trkpt lat="43.57339" lon="1.46368">
        <ele>195.4</ele>
        <time>2023-08-15T07:47:59Z</time>
      </trkpt>
      <trkpt lat="43.5735" lon="1.4638">
        <ele>195.4</ele>
        <time>2023-08-15T07:48:02Z</time>
      </trkpt>
      <trkpt lat="43.57354" lon="1.46395">
        <ele>195.4</ele>
        <time>2023-08-15T07:48:06Z</time>
      </trkpt>
      <trkpt lat="43.5735" lon="1.4642">
        <ele>195.1</ele>
        <time>2023-08-15T07:48:09Z</time>
      </trkpt>
      <trkpt lat="43.57346" lon="1.46451">
        <ele>195.1</ele>
        <time>2023-08-15T07:48:13Z</time>
      </trkpt>
      <trkpt lat="43.57351" lon="1.46472">
        <ele>195.1</ele>
        <time>2023-08-15T07:48:16Z</time>
      </trkpt>
      <trkpt lat="43.57365" lon="1.46487">
        <ele>195.1</ele>
        <time>2023-08-15T07:48:19Z</time>
      </trkpt>
      <trkpt lat="43.57377" lon="1.46509">
        <ele>195.1</ele>
        <time>2023-08-15T07:48:23Z</time>
      </trkpt>
      <trkpt lat="43.5738" lon="1.46531">
        <ele>195.1</ele>
        <time>2023-08-15T07:48:27Z</time>
      </trkpt>
      <trkpt lat="43.57394" lon="1.46552">
        <ele>195.6</ele>
        <time>2023-08-15T07:48:31Z</time>
      </trkpt>
      <trkpt lat="43.57406" lon="1.46574">
        <ele>197.5</ele>
        <time>2023-08-15T07:48:34Z</time>
      </trkpt>
      <trkpt lat="43.5742" lon="1.46606">
        <ele>196.9</ele>
        <time>2023-08-15T07:48:38Z</time>
      </trkpt>
      <trkpt lat="43.57435" lon="1.46639">
        <ele>198.5</ele>
        <time>2023-08-15T07:48:42Z</time>
      </trkpt>
      <trkpt lat="43.57449" lon="1.4667">
        <ele>199.6</ele>
        <time>2023-08-15T07:48:46Z</time>
      </trkpt>
      <trkpt lat="43.57457" lon="1.46694">
        <ele>200.2</ele>
        <time>2023-08-15T07:48:49Z</time>
      </trkpt>
      <trkpt lat="43.57474" lon="1.46721">
        <ele>202.6</ele>
        <time>2023-08-15T07:48:53Z</time>
      </trkpt>
      <trkpt lat="43.57496" lon="1.46738">
        <ele>202.6</ele>
        <time>2023-08-15T07:48:57Z</time>
      </trkpt>
      <trkpt lat="43.57512" lon="1.46746">
        <ele>202.6</ele>
        <time>2023-08-15T07:49:00Z</time>
      </trkpt>
      <trkpt lat="43.57533" lon="1.46762">
        <ele>204.4</ele>
        <time>2023-08-15T07:49:04Z</time>
      </trkpt>
      <trkpt lat="43.5755" lon="1.46776">
        <ele>204.5</ele>
        <time>2023-08-15T07:49:07Z</time>
      </trkpt>
      <trkpt lat="43.5757" lon="1.46792">
        <ele>204.3</ele>
        <time>2023-08-15T07:49:11Z</time>
      </trkpt>
      <trkpt lat="43.57582" lon="1.4681">
        <ele>203.5</ele>
        <time>2023-08-15T07:49:14Z</time>
      </trkpt>
      <trkpt lat="43.57587" lon="1.46844">
        <ele>202.5</ele>
        <time>2023-08-15T07:49:18Z</time>
      </trkpt>
      <trkpt lat="43.57593" lon="1.46875">
        <ele>201.3</ele>
        <time>2023-08-15T07:49:22Z</time>
      </trkpt>
      <trkpt lat="43.57605" lon="1.46896">
        <ele>200.4</ele>
        <time>2023-08-15T07:49:25Z</time>
      </trkpt>
      <trkpt lat="43.57625" lon="1.46925">
        <ele>199.7</ele>
        <time>2023-08-15T07:49:29Z</time>
      </trkpt>
      <trkpt lat="43.57639" lon="1.46945">
        <ele>198.8</ele>
        <time>2023-08-15T07:49:32Z</time>
      </trkpt>
      <trkpt lat="43.5765" lon="1.46962">
        <ele>198.7</ele>
        <time>2023-08-15T07:49:36Z</time>
      </trkpt>
      <trkpt lat="43.57655" lon="1.46969">
        <ele>198.9</ele>
        <time>2023-08-15T07:49:40Z</time>
      </trkpt>
      <trkpt lat="43.5766" lon="1.46976">
        <ele>199.6</ele>
        <time>2023-08-15T07:49:44Z</time>
      </trkpt>
      <trkpt lat="43.5767" lon="1.4699">
        <ele>199.6</ele>
        <time>2023-08-15T07:49:48Z</time>
      </trkpt>
      <trkpt lat="43.57669" lon="1.47007">
        <ele>199.7</ele>
        <time>2023-08-15T07:49:51Z</time>
      </trkpt>
      <trkpt lat="43.57652" lon="1.47037">
        <ele>199.7</ele>
        <time>2023-08-15T07:49:55Z</time>
      </trkpt>
      <trkpt lat="43.57632" lon="1.47071">
        <ele>199.7</ele>
        <time>2023-08-15T07:49:59Z</time>
      </trkpt>
      <trkpt lat="43.57615" lon="1.47102">
        <ele>199.7</ele>
        <time>2023-08-15T07:50:03Z</time>
      </trkpt>
      <trkpt lat="43.576" lon="1.47129">
        <ele>199.7</ele>
        <time>2023-08-15T07:50:07Z</time>
      </trkpt>
      <trkpt lat="43.57588" lon="1.47149">
        <ele>199.7</ele>
        <time>2023-08-15T07:50:10Z</time>
      </trkpt>
      <trkpt lat="43.5757" lon="1.47176">
        <ele>199.7</ele>
        <time>2023-08-15T07:50:14Z</time>
      </trkpt>
      <trkpt lat="43.57556" lon="1.47196">
        <ele>199.7</ele>
        <time>2023-08-15T07:50:17Z</time>
      </trkpt>
      <trkpt lat="43.57539" lon="1.47221">
        <ele>199.7</ele>
        <time>2023-08-15T07:50:21Z</time>
      </trkpt>
      <trkpt lat="43.57529" lon="1.47238">
        <ele>199.7</ele>
        <time>2023-08-15T07:50:25Z</time>
      </trkpt>
      <trkpt lat="43.57526" lon="1.47243">
        <ele>199.7</ele>
        <time>2023-08-15T07:50:29Z</time>
      </trkpt>
      <trkpt lat="43.57526" lon="1.47252">
        <ele>200</ele>
        <time>2023-08-15T07:50:32Z</time>
      </trkpt>
      <trkpt lat="43.57535" lon="1.47265">
        <ele>200.1</ele>
        <time>2023-08-15T07:50:35Z</time>
      </trkpt>
      <trkpt lat="43.57552" lon="1.47284">
        <ele>200.1</ele>
        <time>2023-08-15T07:50:39Z</time>
      </trkpt>
      <trkpt lat="43.57566" lon="1.47297">
        <ele>200.1</ele>
        <time>2023-08-15T07:50:42Z</time>
      </trkpt>
      <trkpt lat="43.5758" lon="1.47315">
        <ele>200.1</ele>
        <time>2023-08-15T07:50:46Z</time>
      </trkpt>
      <trkpt lat="43.57589" lon="1.47323">
        <ele>200.1</ele>
        <time>2023-08-15T07:50:50Z</time>
      </trkpt>
      <trkpt lat="43.57594" lon="1.47327">
        <ele>200.1</ele>
        <time>2023-08-15T07:50:53Z</time>
      </trkpt>
      <trkpt lat="43.57595" lon="1.47329">
        <ele>200</ele>
        <time>2023-08-15T07:50:57Z</time>
      </trkpt>
      <trkpt lat="43.57593" lon="1.47332">
        <ele>200</ele>
        <time>2023-08-15T07:51:00Z</time>
      </trkpt>
      <trkpt lat="43.57591" lon="1.47336">
        <ele>200.3</ele>
        <time>2023-08-15T07:51:03Z</time>
      </trkpt>
      <trkpt lat="43.57589" lon="1.47341">
        <ele>200.3</ele>
        <time>2023-08-15T07:51:06Z</time>
      </trkpt>
      <trkpt lat="43.57583" lon="1.47352">
        <ele>200.1</ele>
        <time>2023-08-15T07:51:09Z</time>
      </trkpt>
      <trkpt lat="43.57571" lon="1.47369">
        <ele>200.1</ele>
        <time>2023-08-15T07:51:13Z</time>
      </trkpt>
      <trkpt lat="43.5756" lon="1.47383">
        <ele>200.1</ele>
        <time>2023-08-15T07:51:16Z</time>
      </trkpt>
      <trkpt lat="43.57544" lon="1.47401">
        <ele>200.1</ele>
        <time>2023-08-15T07:51:20Z</time>
      </trkpt>
      <trkpt lat="43.5753" lon="1.47416">
        <ele>200.1</ele>
        <time>2023-08-15T07:51:23Z</time>
      </trkpt>
      <trkpt lat="43.57512" lon="1.47439">
        <ele>200.1</ele>
        <time>2023-08-15T07:51:27Z</time>
      </trkpt>
      <trkpt lat="43.5749" lon="1.47463">
        <ele>200.1</ele>
        <time>2023-08-15T07:51:31Z</time>
      </trkpt>
      <trkpt lat="43.57472" lon="1.47485">
        <ele>200.1</ele>
        <time>2023-08-15T07:51:35Z</time>
      </trkpt>
      <trkpt lat="43.57456" lon="1.47508">
        <ele>200.1</ele>
        <time>2023-08-15T07:51:39Z</time>
      </trkpt>
      <trkpt lat="43.57445" lon="1.47524">
        <ele>200.1</ele>
        <time>2023-08-15T07:51:42Z</time>
      </trkpt>
      <trkpt lat="43.57429" lon="1.47543">
        <ele>200.1</ele>
        <time>2023-08-15T07:51:46Z</time>
      </trkpt>
      <trkpt lat="43.57421" lon="1.47554">
        <ele>200.1</ele>
        <time>2023-08-15T07:51:49Z</time>
      </trkpt>
      <trkpt lat="43.57412" lon="1.47564">
        <ele>200.1</ele>
        <time>2023-08-15T07:51:53Z</time>
      </trkpt>
      <trkpt lat="43.57408" lon="1.47568">
        <ele>199.3</ele>
        <time>2023-08-15T07:51:57Z</time>
      </trkpt>
      <trkpt lat="43.57405" lon="1.47572">
        <ele>199.2</ele>
        <time>2023-08-15T07:52:00Z</time>
      </trkpt>
      <trkpt lat="43.57398" lon="1.4758">
        <ele>199.2</ele>
        <time>2023-08-15T07:52:04Z</time>
      </trkpt>
      <trkpt lat="43.57384" lon="1.47598">
        <ele>199.2</ele>
        <time>2023-08-15T07:52:08Z</time>
      </trkpt>
      <trkpt lat="43.5737" lon="1.47614">
        <ele>199.2</ele>
        <time>2023-08-15T07:52:11Z</time>
      </trkpt>
      <trkpt lat="43.57357" lon="1.4763">
        <ele>199.2</ele>
        <time>2023-08-15T07:52:14Z</time>
      </trkpt>
      <trkpt lat="43.57345" lon="1.47645">
        <ele>199.2</ele>
        <time>2023-08-15T07:52:17Z</time>
      </trkpt>
      <trkpt lat="43.57329" lon="1.47662">
        <ele>199.2</ele>
        <time>2023-08-15T07:52:21Z</time>
      </trkpt>
      <trkpt lat="43.57319" lon="1.47675">
        <ele>199.2</ele>
        <time>2023-08-15T07:52:24Z</time>
      </trkpt>
      <trkpt lat="43.5731" lon="1.47686">
        <ele>199.2</ele>
        <time>2023-08-15T07:52:27Z</time>
      </trkpt>
      <trkpt lat="43.57293" lon="1.47702">
        <ele>199.2</ele>
        <time>2023-08-15T07:52:31Z</time>
      </trkpt>
      <trkpt lat="43.57284" lon="1.47708">
        <ele>198.8</ele>
        <time>2023-08-15T07:52:34Z</time>
      </trkpt>
      <trkpt lat="43.57278" lon="1.47709">
        <ele>198.8</ele>
        <time>2023-08-15T07:52:38Z</time>
      </trkpt>
      <trkpt lat="43.57284" lon="1.47706">
        <ele>198.7</ele>
        <time>2023-08-15T08:01:00Z</time>
      </trkpt>
      <trkpt lat="43.57284" lon="1.47704">
        <ele>198.7</ele>
        <time>2023-08-15T08:01:03Z</time>
      </trkpt>
      <trkpt lat="43.57285" lon="1.47701">
        <ele>198.8</ele>
        <time>2023-08-15T08:43:09Z</time>
      </trkpt>
      <trkpt lat="43.57285" lon="1.477">
        <ele>198.6</ele>
        <time>2023-08-15T08:43:12Z</time>
      </trkpt>
      <trkpt lat="43.57288" lon="1.47699">
        <ele>198.8</ele>
        <time>2023-08-15T08:43:15Z</time>
      </trkpt>
      <trkpt lat="43.57291" lon="1.47696">
        <ele>198.8</ele>
        <time>2023-08-15T08:43:19Z</time>
      </trkpt>
      <trkpt lat="43.57294" lon="1.47693">
        <ele>200.8</ele>
        <time>2023-08-15T08:43:22Z</time>
      </trkpt>
      <trkpt lat="43.57296" lon="1.4769">
        <ele>199.8</ele>
        <time>2023-08-15T08:43:26Z</time>
      </trkpt>
      <trkpt lat="43.57299" lon="1.47686">
        <ele>204.9</ele>
        <time>2023-08-15T08:43:29Z</time>
      </trkpt>
      <trkpt lat="43.57302" lon="1.47683">
        <ele>198.8</ele>
        <time>2023-08-15T08:43:32Z</time>
      </trkpt>
      <trkpt lat="43.57305" lon="1.4768">
        <ele>197.8</ele>
        <time>2023-08-15T08:43:35Z</time>
      </trkpt>
      <trkpt lat="43.57306" lon="1.47679">
        <ele>198.3</ele>
        <time>2023-08-15T08:43:38Z</time>
      </trkpt>
      <trkpt lat="43.57312" lon="1.47679">
        <ele>202.1</ele>
        <time>2023-08-15T08:46:13Z</time>
      </trkpt>
      <trkpt lat="43.57309" lon="1.4768">
        <ele>198.8</ele>
        <time>2023-08-15T08:46:17Z</time>
      </trkpt>
      <trkpt lat="43.57303" lon="1.47687">
        <ele>194.2</ele>
        <time>2023-08-15T08:46:20Z</time>
      </trkpt>
      <trkpt lat="43.57297" lon="1.47697">
        <ele>198.8</ele>
        <time>2023-08-15T08:46:24Z</time>
      </trkpt>
      <trkpt lat="43.57292" lon="1.47704">
        <ele>189.9</ele>
        <time>2023-08-15T08:46:27Z</time>
      </trkpt>
      <trkpt lat="43.57287" lon="1.47713">
        <ele>193.7</ele>
        <time>2023-08-15T08:46:30Z</time>
      </trkpt>
      <trkpt lat="43.57279" lon="1.47724">
        <ele>196.2</ele>
        <time>2023-08-15T08:46:34Z</time>
      </trkpt>
      <trkpt lat="43.57268" lon="1.47738">
        <ele>198.8</ele>
        <time>2023-08-15T08:46:39Z</time>
      </trkpt>
      <trkpt lat="43.57263" lon="1.47746">
        <ele>198.8</ele>
        <time>2023-08-15T08:46:42Z</time>
      </trkpt>
      <trkpt lat="43.57263" lon="1.47749">
        <ele>209.2</ele>
        <time>2023-08-15T08:46:45Z</time>
      </trkpt>
      <trkpt lat="43.57301" lon="1.47699">
        <ele>198.8</ele>
        <time>2023-08-15T08:47:00Z</time>
      </trkpt>
      <trkpt lat="43.57337" lon="1.47672">
        <ele>202</ele>
        <time>2023-08-15T08:47:08Z</time>
      </trkpt>
      <trkpt lat="43.57348" lon="1.47662">
        <ele>195.2</ele>
        <time>2023-08-15T08:47:12Z</time>
      </trkpt>
      <trkpt lat="43.57341" lon="1.47661">
        <ele>195.3</ele>
        <time>2023-08-15T08:47:15Z</time>
      </trkpt>
      <trkpt lat="43.57325" lon="1.47675">
        <ele>198.8</ele>
        <time>2023-08-15T08:47:19Z</time>
      </trkpt>
      <trkpt lat="43.5731" lon="1.4769">
        <ele>198.8</ele>
        <time>2023-08-15T08:47:23Z</time>
      </trkpt>
      <trkpt lat="43.573" lon="1.477">
        <ele>198.8</ele>
        <time>2023-08-15T08:47:26Z</time>
      </trkpt>
      <trkpt lat="43.57289" lon="1.47711">
        <ele>201.8</ele>
        <time>2023-08-15T08:47:29Z</time>
      </trkpt>
      <trkpt lat="43.57275" lon="1.47727">
        <ele>193.7</ele>
        <time>2023-08-15T08:47:33Z</time>
      </trkpt>
      <trkpt lat="43.57273" lon="1.47735">
        <ele>200.6</ele>
        <time>2023-08-15T08:47:36Z</time>
      </trkpt>
      <trkpt lat="43.57278" lon="1.47739">
        <ele>198.8</ele>
        <time>2023-08-15T08:47:40Z</time>
      </trkpt>
      <trkpt lat="43.57289" lon="1.47733">
        <ele>187.5</ele>
        <time>2023-08-15T08:47:44Z</time>
      </trkpt>
      <trkpt lat="43.57298" lon="1.47726">
        <ele>196.9</ele>
        <time>2023-08-15T08:47:48Z</time>
      </trkpt>
      <trkpt lat="43.57305" lon="1.47718">
        <ele>193.6</ele>
        <time>2023-08-15T08:47:51Z</time>
      </trkpt>
      <trkpt lat="43.57314" lon="1.47709">
        <ele>195.3</ele>
        <time>2023-08-15T08:47:54Z</time>
      </trkpt>
      <trkpt lat="43.57326" lon="1.4769">
        <ele>195.1</ele>
        <time>2023-08-15T08:47:58Z</time>
      </trkpt>
      <trkpt lat="43.57338" lon="1.47672">
        <ele>188</ele>
        <time>2023-08-15T08:48:01Z</time>
      </trkpt>
      <trkpt lat="43.57347" lon="1.47657">
        <ele>214.5</ele>
        <time>2023-08-15T08:48:04Z</time>
      </trkpt>
      <trkpt lat="43.57361" lon="1.47637">
        <ele>195</ele>
        <time>2023-08-15T08:48:08Z</time>
      </trkpt>
      <trkpt lat="43.57374" lon="1.47632">
        <ele>208.1</ele>
        <time>2023-08-15T08:48:12Z</time>
      </trkpt>
      <trkpt lat="43.57384" lon="1.47623">
        <ele>186.8</ele>
        <time>2023-08-15T08:48:16Z</time>
      </trkpt>
      <trkpt lat="43.57377" lon="1.47614">
        <ele>194.8</ele>
        <time>2023-08-15T08:48:21Z</time>
      </trkpt>
      <trkpt lat="43.57363" lon="1.47622">
        <ele>190.3</ele>
        <time>2023-08-15T08:48:24Z</time>
      </trkpt>
      <trkpt lat="43.5735" lon="1.47635">
        <ele>183.5</ele>
        <time>2023-08-15T08:48:27Z</time>
      </trkpt>
      <trkpt lat="43.5734" lon="1.47647">
        <ele>184.6</ele>
        <time>2023-08-15T08:48:31Z</time>
      </trkpt>
      <trkpt lat="43.57323" lon="1.47672">
        <ele>183.5</ele>
        <time>2023-08-15T08:48:34Z</time>
      </trkpt>
      <trkpt lat="43.57314" lon="1.47682">
        <ele>185.6</ele>
        <time>2023-08-15T08:48:37Z</time>
      </trkpt>
      <trkpt lat="43.57304" lon="1.47693">
        <ele>198.8</ele>
        <time>2023-08-15T08:48:40Z</time>
      </trkpt>
      <trkpt lat="43.57294" lon="1.47704">
        <ele>198.8</ele>
        <time>2023-08-15T08:48:44Z</time>
      </trkpt>
      <trkpt lat="43.57284" lon="1.47717">
        <ele>193.8</ele>
        <time>2023-08-15T08:48:48Z</time>
      </trkpt>
      <trkpt lat="43.57277" lon="1.47726">
        <ele>200.7</ele>
        <time>2023-08-15T08:48:51Z</time>
      </trkpt>
      <trkpt lat="43.57268" lon="1.47733">
        <ele>206.8</ele>
        <time>2023-08-15T08:48:54Z</time>
      </trkpt>
      <trkpt lat="43.57259" lon="1.4775">
        <ele>200.9</ele>
        <time>2023-08-15T08:48:58Z</time>
      </trkpt>
      <trkpt lat="43.57265" lon="1.47757">
        <ele>198.8</ele>
        <time>2023-08-15T08:49:01Z</time>
      </trkpt>
      <trkpt lat="43.57274" lon="1.47745">
        <ele>198.8</ele>
        <time>2023-08-15T08:49:05Z</time>
      </trkpt>
      <trkpt lat="43.57281" lon="1.47733">
        <ele>194.2</ele>
        <time>2023-08-15T08:49:09Z</time>
      </trkpt>
      <trkpt lat="43.57288" lon="1.47724">
        <ele>198.8</ele>
        <time>2023-08-15T08:49:12Z</time>
      </trkpt>
      <trkpt lat="43.57297" lon="1.4771">
        <ele>195.4</ele>
        <time>2023-08-15T08:49:16Z</time>
      </trkpt>
      <trkpt lat="43.57305" lon="1.47699">
        <ele>193</ele>
        <time>2023-08-15T08:49:19Z</time>
      </trkpt>
      <trkpt lat="43.5731" lon="1.47691">
        <ele>191.6</ele>
        <time>2023-08-15T08:49:22Z</time>
      </trkpt>
      <trkpt lat="43.57318" lon="1.47681">
        <ele>185.6</ele>
        <time>2023-08-15T08:49:26Z</time>
      </trkpt>
      <trkpt lat="43.57325" lon="1.47673">
        <ele>198.8</ele>
        <time>2023-08-15T08:49:29Z</time>
      </trkpt>
      <trkpt lat="43.57335" lon="1.47662">
        <ele>188.5</ele>
        <time>2023-08-15T08:49:33Z</time>
      </trkpt>
      <trkpt lat="43.57348" lon="1.47657">
        <ele>202.6</ele>
        <time>2023-08-15T08:49:37Z</time>
      </trkpt>
      <trkpt lat="43.57358" lon="1.47645">
        <ele>192.3</ele>
        <time>2023-08-15T08:49:41Z</time>
      </trkpt>
      <trkpt lat="43.57354" lon="1.47637">
        <ele>196.5</ele>
        <time>2023-08-15T08:49:44Z</time>
      </trkpt>
      <trkpt lat="43.57347" lon="1.47637">
        <ele>203.9</ele>
        <time>2023-08-15T08:49:48Z</time>
      </trkpt>
      <trkpt lat="43.57341" lon="1.47644">
        <ele>191.4</ele>
        <time>2023-08-15T08:49:51Z</time>
      </trkpt>
      <trkpt lat="43.57335" lon="1.47654">
        <ele>198.8</ele>
        <time>2023-08-15T08:49:55Z</time>
      </trkpt>
      <trkpt lat="43.5733" lon="1.47661">
        <ele>201.4</ele>
        <time>2023-08-15T08:49:58Z</time>
      </trkpt>
      <trkpt lat="43.57325" lon="1.47669">
        <ele>194.7</ele>
        <time>2023-08-15T08:50:01Z</time>
      </trkpt>
      <trkpt lat="43.57318" lon="1.47677">
        <ele>195.1</ele>
        <time>2023-08-15T08:50:04Z</time>
      </trkpt>
      <trkpt lat="43.5731" lon="1.47687">
        <ele>196.3</ele>
        <time>2023-08-15T08:50:08Z</time>
      </trkpt>
      <trkpt lat="43.57301" lon="1.47697">
        <ele>191.7</ele>
        <time>2023-08-15T08:50:12Z</time>
      </trkpt>
      <trkpt lat="43.57295" lon="1.47706">
        <ele>196.5</ele>
        <time>2023-08-15T08:50:15Z</time>
      </trkpt>
      <trkpt lat="43.57288" lon="1.47714">
        <ele>196.7</ele>
        <time>2023-08-15T08:50:18Z</time>
      </trkpt>
      <trkpt lat="43.57277" lon="1.47728">
        <ele>198.8</ele>
        <time>2023-08-15T08:50:22Z</time>
      </trkpt>
      <trkpt lat="43.57269" lon="1.47738">
        <ele>199.9</ele>
        <time>2023-08-15T08:50:26Z</time>
      </trkpt>
      <trkpt lat="43.57271" lon="1.47751">
        <ele>196.7</ele>
        <time>2023-08-15T08:50:32Z</time>
      </trkpt>
      <trkpt lat="43.5728" lon="1.47736">
        <ele>189.3</ele>
        <time>2023-08-15T08:50:38Z</time>
      </trkpt>
      <trkpt lat="43.57284" lon="1.47726">
        <ele>188.3</ele>
        <time>2023-08-15T08:50:42Z</time>
      </trkpt>
      <trkpt lat="43.57286" lon="1.47721">
        <ele>181.5</ele>
        <time>2023-08-15T08:50:46Z</time>
      </trkpt>
      <trkpt lat="43.57291" lon="1.47711">
        <ele>198.8</ele>
        <time>2023-08-15T08:50:49Z</time>
      </trkpt>
      <trkpt lat="43.57295" lon="1.47705">
        <ele>222.2</ele>
        <time>2023-08-15T08:50:55Z</time>
      </trkpt>
      <trkpt lat="43.57291" lon="1.47703">
        <ele>198.8</ele>
        <time>2023-08-15T08:51:05Z</time>
      </trkpt>
      <trkpt lat="43.5729" lon="1.47703">
        <ele>198.8</ele>
        <time>2023-08-15T08:51:08Z</time>
      </trkpt>
      <trkpt lat="43.57289" lon="1.477">
        <ele>198.8</ele>
        <time>2023-08-15T08:52:05Z</time>
      </trkpt>
      <trkpt lat="43.57283" lon="1.47702">
        <ele>200.7</ele>
        <time>2023-08-15T08:52:09Z</time>
      </trkpt>
      <trkpt lat="43.57279" lon="1.47704">
        <ele>201.6</ele>
        <time>2023-08-15T08:52:12Z</time>
      </trkpt>
      <trkpt lat="43.57278" lon="1.47703">
        <ele>198.8</ele>
        <time>2023-08-15T08:52:16Z</time>
      </trkpt>
      <trkpt lat="43.57278" lon="1.47703">
        <ele>203.5</ele>
        <time>2023-08-15T08:52:20Z</time>
      </trkpt>
      <trkpt lat="43.57283" lon="1.47704">
        <ele>198.8</ele>
        <time>2023-08-15T09:12:49Z</time>
      </trkpt>
      <trkpt lat="43.57281" lon="1.47706">
        <ele>198.8</ele>
        <time>2023-08-15T09:34:07Z</time>
      </trkpt>
      <trkpt lat="43.57274" lon="1.47719">
        <ele>198.8</ele>
        <time>2023-08-15T09:34:11Z</time>
      </trkpt>
      <trkpt lat="43.57264" lon="1.47734">
        <ele>198.8</ele>
        <time>2023-08-15T09:34:14Z</time>
      </trkpt>
      <trkpt lat="43.57257" lon="1.47752">
        <ele>199.5</ele>
        <time>2023-08-15T09:34:17Z</time>
      </trkpt>
      <trkpt lat="43.57259" lon="1.47763">
        <ele>198.8</ele>
        <time>2023-08-15T09:34:20Z</time>
      </trkpt>
      <trkpt lat="43.57269" lon="1.47756">
        <ele>198.8</ele>
        <time>2023-08-15T09:34:23Z</time>
      </trkpt>
      <trkpt lat="43.57276" lon="1.47743">
        <ele>198.8</ele>
        <time>2023-08-15T09:34:26Z</time>
      </trkpt>
      <trkpt lat="43.57289" lon="1.47733">
        <ele>198.8</ele>
        <time>2023-08-15T09:34:29Z</time>
      </trkpt>
      <trkpt lat="43.57303" lon="1.47722">
        <ele>198.8</ele>
        <time>2023-08-15T09:34:33Z</time>
      </trkpt>
      <trkpt lat="43.57315" lon="1.47704">
        <ele>198.8</ele>
        <time>2023-08-15T09:34:36Z</time>
      </trkpt>
      <trkpt lat="43.5732" lon="1.47684">
        <ele>198.8</ele>
        <time>2023-08-15T09:34:40Z</time>
      </trkpt>
      <trkpt lat="43.57309" lon="1.47679">
        <ele>198.8</ele>
        <time>2023-08-15T09:34:44Z</time>
      </trkpt>
      <trkpt lat="43.57301" lon="1.4769">
        <ele>198.8</ele>
        <time>2023-08-15T09:34:47Z</time>
      </trkpt>
      <trkpt lat="43.57295" lon="1.477">
        <ele>199.5</ele>
        <time>2023-08-15T09:34:50Z</time>
      </trkpt>
      <trkpt lat="43.57285" lon="1.47708">
        <ele>198.8</ele>
        <time>2023-08-15T09:34:54Z</time>
      </trkpt>
      <trkpt lat="43.5728" lon="1.4771">
        <ele>198.8</ele>
        <time>2023-08-15T09:34:57Z</time>
      </trkpt>
      <trkpt lat="43.57277" lon="1.4771">
        <ele>198.8</ele>
        <time>2023-08-15T09:35:01Z</time>
      </trkpt>
      <trkpt lat="43.57277" lon="1.47712">
        <ele>198.8</ele>
        <time>2023-08-15T09:35:29Z</time>
      </trkpt>
      <trkpt lat="43.57273" lon="1.4772">
        <ele>198.8</ele>
        <time>2023-08-15T09:35:32Z</time>
      </trkpt>
      <trkpt lat="43.57268" lon="1.47733">
        <ele>198.8</ele>
        <time>2023-08-15T09:35:36Z</time>
      </trkpt>
      <trkpt lat="43.57261" lon="1.47747">
        <ele>198.8</ele>
        <time>2023-08-15T09:35:39Z</time>
      </trkpt>
      <trkpt lat="43.57256" lon="1.47755">
        <ele>198.8</ele>
        <time>2023-08-15T09:35:43Z</time>
      </trkpt>
      <trkpt lat="43.57254" lon="1.4776">
        <ele>198.8</ele>
        <time>2023-08-15T09:35:46Z</time>
      </trkpt>
      <trkpt lat="43.57249" lon="1.47759">
        <ele>198.8</ele>
        <time>2023-08-15T09:35:50Z</time>
      </trkpt>
      <trkpt lat="43.57247" lon="1.47759">
        <ele>198.8</ele>
        <time>2023-08-15T09:35:53Z</time>
      </trkpt>
      <trkpt lat="43.57247" lon="1.47758">
        <ele>198.8</ele>
        <time>2023-08-15T09:35:56Z</time>
      </trkpt>
      <trkpt lat="43.57245" lon="1.47764">
        <ele>197.7</ele>
        <time>2023-08-15T09:36:24Z</time>
      </trkpt>
      <trkpt lat="43.5724" lon="1.47778">
        <ele>198.8</ele>
        <time>2023-08-15T09:36:28Z</time>
      </trkpt>
      <trkpt lat="43.57235" lon="1.47786">
        <ele>198.7</ele>
        <time>2023-08-15T09:36:32Z</time>
      </trkpt>
      <trkpt lat="43.57232" lon="1.47789">
        <ele>198.7</ele>
        <time>2023-08-15T09:36:35Z</time>
      </trkpt>
      <trkpt lat="43.57228" lon="1.47792">
        <ele>198.7</ele>
        <time>2023-08-15T09:36:38Z</time>
      </trkpt>
      <trkpt lat="43.57224" lon="1.47795">
        <ele>198.7</ele>
        <time>2023-08-15T09:36:42Z</time>
      </trkpt>
      <trkpt lat="43.57222" lon="1.47798">
        <ele>198.7</ele>
        <time>2023-08-15T09:36:45Z</time>
      </trkpt>
      <trkpt lat="43.57217" lon="1.478">
        <ele>198.8</ele>
        <time>2023-08-15T09:37:54Z</time>
      </trkpt>
      <trkpt lat="43.57208" lon="1.47805">
        <ele>198.5</ele>
        <time>2023-08-15T09:37:58Z</time>
      </trkpt>
      <trkpt lat="43.57198" lon="1.47811">
        <ele>197</ele>
        <time>2023-08-15T09:38:02Z</time>
      </trkpt>
      <trkpt lat="43.5719" lon="1.47815">
        <ele>197.1</ele>
        <time>2023-08-15T09:38:06Z</time>
      </trkpt>
      <trkpt lat="43.57184" lon="1.4782">
        <ele>197.1</ele>
        <time>2023-08-15T09:38:09Z</time>
      </trkpt>
      <trkpt lat="43.57181" lon="1.47816">
        <ele>197.3</ele>
        <time>2023-08-15T09:38:12Z</time>
      </trkpt>
      <trkpt lat="43.57178" lon="1.47809">
        <ele>196.7</ele>
        <time>2023-08-15T09:38:16Z</time>
      </trkpt>
      <trkpt lat="43.5717" lon="1.47793">
        <ele>196.7</ele>
        <time>2023-08-15T09:38:19Z</time>
      </trkpt>
      <trkpt lat="43.57159" lon="1.47777">
        <ele>197.8</ele>
        <time>2023-08-15T09:38:23Z</time>
      </trkpt>
      <trkpt lat="43.57153" lon="1.47761">
        <ele>196.7</ele>
        <time>2023-08-15T09:38:26Z</time>
      </trkpt>
      <trkpt lat="43.57152" lon="1.47743">
        <ele>196.7</ele>
        <time>2023-08-15T09:38:29Z</time>
      </trkpt>
      <trkpt lat="43.57146" lon="1.47724">
        <ele>197.8</ele>
        <time>2023-08-15T09:38:34Z</time>
      </trkpt>
      <trkpt lat="43.57134" lon="1.4772">
        <ele>197.8</ele>
        <time>2023-08-15T09:38:37Z</time>
      </trkpt>
      <trkpt lat="43.57121" lon="1.47739">
        <ele>197.8</ele>
        <time>2023-08-15T09:38:41Z</time>
      </trkpt>
      <trkpt lat="43.57108" lon="1.4776">
        <ele>197.8</ele>
        <time>2023-08-15T09:38:45Z</time>
      </trkpt>
      <trkpt lat="43.57087" lon="1.47791">
        <ele>197.8</ele>
        <time>2023-08-15T09:38:49Z</time>
      </trkpt>
      <trkpt lat="43.57067" lon="1.47822">
        <ele>197.8</ele>
        <time>2023-08-15T09:38:53Z</time>
      </trkpt>
      <trkpt lat="43.57054" lon="1.47841">
        <ele>197.8</ele>
        <time>2023-08-15T09:38:56Z</time>
      </trkpt>
      <trkpt lat="43.57036" lon="1.47868">
        <ele>197.8</ele>
        <time>2023-08-15T09:39:00Z</time>
      </trkpt>
      <trkpt lat="43.57022" lon="1.47887">
        <ele>197.8</ele>
        <time>2023-08-15T09:39:03Z</time>
      </trkpt>
      <trkpt lat="43.57003" lon="1.47911">
        <ele>197.8</ele>
        <time>2023-08-15T09:39:07Z</time>
      </trkpt>
      <trkpt lat="43.56984" lon="1.47935">
        <ele>197.8</ele>
        <time>2023-08-15T09:39:11Z</time>
      </trkpt>
      <trkpt lat="43.56964" lon="1.47951">
        <ele>197.8</ele>
        <time>2023-08-15T09:39:15Z</time>
      </trkpt>
      <trkpt lat="43.56949" lon="1.47972">
        <ele>197.8</ele>
        <time>2023-08-15T09:39:19Z</time>
      </trkpt>
      <trkpt lat="43.56943" lon="1.47996">
        <ele>197.8</ele>
        <time>2023-08-15T09:39:22Z</time>
      </trkpt>
      <trkpt lat="43.56927" lon="1.48021">
        <ele>197.8</ele>
        <time>2023-08-15T09:39:26Z</time>
      </trkpt>
      <trkpt lat="43.56907" lon="1.48047">
        <ele>197.8</ele>
        <time>2023-08-15T09:39:30Z</time>
      </trkpt>
      <trkpt lat="43.56893" lon="1.48067">
        <ele>197.8</ele>
        <time>2023-08-15T09:39:33Z</time>
      </trkpt>
      <trkpt lat="43.56874" lon="1.48093">
        <ele>197.8</ele>
        <time>2023-08-15T09:39:37Z</time>
      </trkpt>
      <trkpt lat="43.56856" lon="1.48117">
        <ele>197.8</ele>
        <time>2023-08-15T09:39:41Z</time>
      </trkpt>
      <trkpt lat="43.56841" lon="1.48133">
        <ele>197.8</ele>
        <time>2023-08-15T09:39:44Z</time>
      </trkpt>
      <trkpt lat="43.56828" lon="1.48149">
        <ele>197.8</ele>
        <time>2023-08-15T09:39:47Z</time>
      </trkpt>
      <trkpt lat="43.5681" lon="1.4817">
        <ele>197.8</ele>
        <time>2023-08-15T09:39:51Z</time>
      </trkpt>
      <trkpt lat="43.56793" lon="1.4819">
        <ele>197.8</ele>
        <time>2023-08-15T09:39:55Z</time>
      </trkpt>
      <trkpt lat="43.56777" lon="1.4821">
        <ele>197.8</ele>
        <time>2023-08-15T09:39:59Z</time>
      </trkpt>
      <trkpt lat="43.56762" lon="1.48229">
        <ele>197.8</ele>
        <time>2023-08-15T09:40:03Z</time>
      </trkpt>
      <trkpt lat="43.5675" lon="1.48244">
        <ele>197.8</ele>
        <time>2023-08-15T09:40:06Z</time>
      </trkpt>
      <trkpt lat="43.56738" lon="1.48263">
        <ele>197.8</ele>
        <time>2023-08-15T09:40:10Z</time>
      </trkpt>
      <trkpt lat="43.56726" lon="1.4828">
        <ele>197.8</ele>
        <time>2023-08-15T09:40:14Z</time>
      </trkpt>
      <trkpt lat="43.56711" lon="1.483">
        <ele>197.8</ele>
        <time>2023-08-15T09:40:19Z</time>
      </trkpt>
      <trkpt lat="43.56693" lon="1.48321">
        <ele>197.8</ele>
        <time>2023-08-15T09:40:22Z</time>
      </trkpt>
      <trkpt lat="43.5668" lon="1.48337">
        <ele>197.8</ele>
        <time>2023-08-15T09:40:25Z</time>
      </trkpt>
      <trkpt lat="43.56667" lon="1.48352">
        <ele>197.8</ele>
        <time>2023-08-15T09:40:28Z</time>
      </trkpt>
      <trkpt lat="43.56655" lon="1.48366">
        <ele>197.8</ele>
        <time>2023-08-15T09:40:31Z</time>
      </trkpt>
      <trkpt lat="43.56643" lon="1.4838">
        <ele>197.8</ele>
        <time>2023-08-15T09:40:34Z</time>
      </trkpt>
      <trkpt lat="43.56628" lon="1.48399">
        <ele>197.8</ele>
        <time>2023-08-15T09:40:38Z</time>
      </trkpt>
      <trkpt lat="43.56616" lon="1.48413">
        <ele>197.8</ele>
        <time>2023-08-15T09:40:41Z</time>
      </trkpt>
      <trkpt lat="43.56601" lon="1.48432">
        <ele>197.8</ele>
        <time>2023-08-15T09:40:45Z</time>
      </trkpt>
      <trkpt lat="43.56587" lon="1.4845">
        <ele>197.8</ele>
        <time>2023-08-15T09:40:49Z</time>
      </trkpt>
      <trkpt lat="43.56573" lon="1.48468">
        <ele>197.8</ele>
        <time>2023-08-15T09:40:53Z</time>
      </trkpt>
      <trkpt lat="43.5656" lon="1.48486">
        <ele>197.8</ele>
        <time>2023-08-15T09:40:57Z</time>
      </trkpt>
      <trkpt lat="43.56546" lon="1.48503">
        <ele>197.8</ele>
        <time>2023-08-15T09:41:01Z</time>
      </trkpt>
      <trkpt lat="43.5653" lon="1.48522">
        <ele>197.8</ele>
        <time>2023-08-15T09:41:05Z</time>
      </trkpt>
      <trkpt lat="43.56519" lon="1.48535">
        <ele>197.4</ele>
        <time>2023-08-15T09:41:08Z</time>
      </trkpt>
      <trkpt lat="43.56509" lon="1.48549">
        <ele>197.6</ele>
        <time>2023-08-15T09:41:11Z</time>
      </trkpt>
      <trkpt lat="43.56497" lon="1.48562">
        <ele>197.4</ele>
        <time>2023-08-15T09:41:15Z</time>
      </trkpt>
      <trkpt lat="43.56485" lon="1.48579">
        <ele>197.1</ele>
        <time>2023-08-15T09:41:19Z</time>
      </trkpt>
      <trkpt lat="43.5647" lon="1.48596">
        <ele>197.2</ele>
        <time>2023-08-15T09:41:23Z</time>
      </trkpt>
      <trkpt lat="43.56461" lon="1.48607">
        <ele>197.5</ele>
        <time>2023-08-15T09:41:26Z</time>
      </trkpt>
      <trkpt lat="43.56446" lon="1.48626">
        <ele>197.6</ele>
        <time>2023-08-15T09:41:30Z</time>
      </trkpt>
      <trkpt lat="43.56437" lon="1.48637">
        <ele>197.5</ele>
        <time>2023-08-15T09:41:33Z</time>
      </trkpt>
      <trkpt lat="43.56423" lon="1.48655">
        <ele>197.4</ele>
        <time>2023-08-15T09:41:37Z</time>
      </trkpt>
      <trkpt lat="43.56412" lon="1.48668">
        <ele>197.1</ele>
        <time>2023-08-15T09:41:40Z</time>
      </trkpt>
      <trkpt lat="43.564" lon="1.48683">
        <ele>196.9</ele>
        <time>2023-08-15T09:41:43Z</time>
      </trkpt>
      <trkpt lat="43.56384" lon="1.48703">
        <ele>197.3</ele>
        <time>2023-08-15T09:41:48Z</time>
      </trkpt>
      <trkpt lat="43.56366" lon="1.48723">
        <ele>197</ele>
        <time>2023-08-15T09:41:51Z</time>
      </trkpt>
      <trkpt lat="43.56356" lon="1.48735">
        <ele>196.6</ele>
        <time>2023-08-15T09:41:54Z</time>
      </trkpt>
      <trkpt lat="43.56344" lon="1.4875">
        <ele>197</ele>
        <time>2023-08-15T09:41:58Z</time>
      </trkpt>
      <trkpt lat="43.56334" lon="1.48764">
        <ele>197.4</ele>
        <time>2023-08-15T09:42:01Z</time>
      </trkpt>
      <trkpt lat="43.56325" lon="1.48776">
        <ele>197.1</ele>
        <time>2023-08-15T09:42:05Z</time>
      </trkpt>
      <trkpt lat="43.56313" lon="1.48794">
        <ele>196.4</ele>
        <time>2023-08-15T09:42:08Z</time>
      </trkpt>
      <trkpt lat="43.56305" lon="1.48805">
        <ele>196.4</ele>
        <time>2023-08-15T09:42:11Z</time>
      </trkpt>
      <trkpt lat="43.56292" lon="1.48822">
        <ele>196.3</ele>
        <time>2023-08-15T09:42:15Z</time>
      </trkpt>
      <trkpt lat="43.5628" lon="1.48838">
        <ele>196.4</ele>
        <time>2023-08-15T09:42:19Z</time>
      </trkpt>
      <trkpt lat="43.56271" lon="1.48851">
        <ele>196.5</ele>
        <time>2023-08-15T09:42:22Z</time>
      </trkpt>
      <trkpt lat="43.56258" lon="1.48869">
        <ele>196.3</ele>
        <time>2023-08-15T09:42:26Z</time>
      </trkpt>
      <trkpt lat="43.56247" lon="1.48883">
        <ele>196.5</ele>
        <time>2023-08-15T09:42:29Z</time>
      </trkpt>
      <trkpt lat="43.56239" lon="1.48894">
        <ele>196.5</ele>
        <time>2023-08-15T09:42:32Z</time>
      </trkpt>
      <trkpt lat="43.56227" lon="1.48909">
        <ele>196.7</ele>
        <time>2023-08-15T09:42:36Z</time>
      </trkpt>
      <trkpt lat="43.56218" lon="1.4892">
        <ele>196.8</ele>
        <time>2023-08-15T09:42:39Z</time>
      </trkpt>
      <trkpt lat="43.56207" lon="1.48936">
        <ele>196.6</ele>
        <time>2023-08-15T09:42:43Z</time>
      </trkpt>
      <trkpt lat="43.56197" lon="1.48947">
        <ele>196.5</ele>
        <time>2023-08-15T09:42:47Z</time>
      </trkpt>
      <trkpt lat="43.56188" lon="1.48959">
        <ele>196.7</ele>
        <time>2023-08-15T09:42:51Z</time>
      </trkpt>
      <trkpt lat="43.56178" lon="1.48974">
        <ele>196.5</ele>
        <time>2023-08-15T09:42:55Z</time>
      </trkpt>
      <trkpt lat="43.5617" lon="1.48987">
        <ele>196.8</ele>
        <time>2023-08-15T09:42:58Z</time>
      </trkpt>
      <trkpt lat="43.56162" lon="1.49002">
        <ele>196.8</ele>
        <time>2023-08-15T09:43:02Z</time>
      </trkpt>
      <trkpt lat="43.56155" lon="1.49022">
        <ele>196.9</ele>
        <time>2023-08-15T09:43:06Z</time>
      </trkpt>
      <trkpt lat="43.56152" lon="1.49047">
        <ele>197</ele>
        <time>2023-08-15T09:43:11Z</time>
      </trkpt>
      <trkpt lat="43.56151" lon="1.49073">
        <ele>197.1</ele>
        <time>2023-08-15T09:43:14Z</time>
      </trkpt>
      <trkpt lat="43.56151" lon="1.49092">
        <ele>197.1</ele>
        <time>2023-08-15T09:43:17Z</time>
      </trkpt>
      <trkpt lat="43.56152" lon="1.49117">
        <ele>197.1</ele>
        <time>2023-08-15T09:43:21Z</time>
      </trkpt>
      <trkpt lat="43.56152" lon="1.49143">
        <ele>197.2</ele>
        <time>2023-08-15T09:43:26Z</time>
      </trkpt>
      <trkpt lat="43.56153" lon="1.49169">
        <ele>197</ele>
        <time>2023-08-15T09:43:29Z</time>
      </trkpt>
      <trkpt lat="43.56154" lon="1.49195">
        <ele>196.9</ele>
        <time>2023-08-15T09:43:33Z</time>
      </trkpt>
      <trkpt lat="43.56164" lon="1.49219">
        <ele>196.5</ele>
        <time>2023-08-15T09:43:37Z</time>
      </trkpt>
      <trkpt lat="43.56175" lon="1.49234">
        <ele>196.6</ele>
        <time>2023-08-15T09:43:40Z</time>
      </trkpt>
      <trkpt lat="43.56188" lon="1.49253">
        <ele>196.4</ele>
        <time>2023-08-15T09:43:44Z</time>
      </trkpt>
      <trkpt lat="43.56196" lon="1.49265">
        <ele>196.4</ele>
        <time>2023-08-15T09:43:47Z</time>
      </trkpt>
      <trkpt lat="43.5621" lon="1.49273">
        <ele>196.4</ele>
        <time>2023-08-15T09:43:50Z</time>
      </trkpt>
      <trkpt lat="43.56229" lon="1.4927">
        <ele>196.3</ele>
        <time>2023-08-15T09:43:54Z</time>
      </trkpt>
      <trkpt lat="43.56248" lon="1.49267">
        <ele>196.8</ele>
        <time>2023-08-15T09:43:58Z</time>
      </trkpt>
      <trkpt lat="43.56262" lon="1.49266">
        <ele>197.3</ele>
        <time>2023-08-15T09:44:01Z</time>
      </trkpt>
      <trkpt lat="43.56273" lon="1.49266">
        <ele>197.5</ele>
        <time>2023-08-15T09:44:04Z</time>
      </trkpt>
      <trkpt lat="43.56293" lon="1.49263">
        <ele>197.8</ele>
        <time>2023-08-15T09:44:08Z</time>
      </trkpt>
      <trkpt lat="43.56309" lon="1.49249">
        <ele>197.6</ele>
        <time>2023-08-15T09:44:11Z</time>
      </trkpt>
      <trkpt lat="43.56321" lon="1.49233">
        <ele>197.3</ele>
        <time>2023-08-15T09:44:14Z</time>
      </trkpt>
      <trkpt lat="43.56332" lon="1.49218">
        <ele>197.4</ele>
        <time>2023-08-15T09:44:17Z</time>
      </trkpt>
      <trkpt lat="43.56346" lon="1.492">
        <ele>197.9</ele>
        <time>2023-08-15T09:44:22Z</time>
      </trkpt>
      <trkpt lat="43.56362" lon="1.49178">
        <ele>197.7</ele>
        <time>2023-08-15T09:44:25Z</time>
      </trkpt>
      <trkpt lat="43.56373" lon="1.49163">
        <ele>197.5</ele>
        <time>2023-08-15T09:44:28Z</time>
      </trkpt>
      <trkpt lat="43.56388" lon="1.49143">
        <ele>197.5</ele>
        <time>2023-08-15T09:44:32Z</time>
      </trkpt>
      <trkpt lat="43.56401" lon="1.49143">
        <ele>197.8</ele>
        <time>2023-08-15T09:44:36Z</time>
      </trkpt>
      <trkpt lat="43.56408" lon="1.49167">
        <ele>198</ele>
        <time>2023-08-15T09:44:40Z</time>
      </trkpt>
      <trkpt lat="43.56413" lon="1.49197">
        <ele>198</ele>
        <time>2023-08-15T09:44:44Z</time>
      </trkpt>
      <trkpt lat="43.56416" lon="1.49222">
        <ele>198</ele>
        <time>2023-08-15T09:44:47Z</time>
      </trkpt>
      <trkpt lat="43.5642" lon="1.49246">
        <ele>197.8</ele>
        <time>2023-08-15T09:44:50Z</time>
      </trkpt>
      <trkpt lat="43.56424" lon="1.49279">
        <ele>197.4</ele>
        <time>2023-08-15T09:44:54Z</time>
      </trkpt>
      <trkpt lat="43.56426" lon="1.49302">
        <ele>197.4</ele>
        <time>2023-08-15T09:44:57Z</time>
      </trkpt>
      <trkpt lat="43.56424" lon="1.49326">
        <ele>198.4</ele>
        <time>2023-08-15T09:45:00Z</time>
      </trkpt>
      <trkpt lat="43.56416" lon="1.49361">
        <ele>198.6</ele>
        <time>2023-08-15T09:45:04Z</time>
      </trkpt>
      <trkpt lat="43.56409" lon="1.49393">
        <ele>198.6</ele>
        <time>2023-08-15T09:45:07Z</time>
      </trkpt>
      <trkpt lat="43.564" lon="1.49432">
        <ele>199.4</ele>
        <time>2023-08-15T09:45:11Z</time>
      </trkpt>
      <trkpt lat="43.56395" lon="1.49454">
        <ele>199.7</ele>
        <time>2023-08-15T09:45:15Z</time>
      </trkpt>
      <trkpt lat="43.56389" lon="1.49485">
        <ele>199.4</ele>
        <time>2023-08-15T09:45:18Z</time>
      </trkpt>
      <trkpt lat="43.56381" lon="1.49517">
        <ele>198.4</ele>
        <time>2023-08-15T09:45:23Z</time>
      </trkpt>
      <trkpt lat="43.56376" lon="1.4955">
        <ele>198.9</ele>
        <time>2023-08-15T09:45:26Z</time>
      </trkpt>
      <trkpt lat="43.56369" lon="1.49571">
        <ele>198.7</ele>
        <time>2023-08-15T09:45:29Z</time>
      </trkpt>
      <trkpt lat="43.56352" lon="1.4959">
        <ele>198.8</ele>
        <time>2023-08-15T09:45:33Z</time>
      </trkpt>
      <trkpt lat="43.56336" lon="1.49597">
        <ele>198.8</ele>
        <time>2023-08-15T09:45:37Z</time>
      </trkpt>
      <trkpt lat="43.56313" lon="1.49598">
        <ele>199</ele>
        <time>2023-08-15T09:45:40Z</time>
      </trkpt>
      <trkpt lat="43.56295" lon="1.49598">
        <ele>199.4</ele>
        <time>2023-08-15T09:45:43Z</time>
      </trkpt>
      <trkpt lat="43.56279" lon="1.49599">
        <ele>199.1</ele>
        <time>2023-08-15T09:45:46Z</time>
      </trkpt>
      <trkpt lat="43.56262" lon="1.496">
        <ele>199.1</ele>
        <time>2023-08-15T09:45:50Z</time>
      </trkpt>
      <trkpt lat="43.56238" lon="1.49603">
        <ele>199.2</ele>
        <time>2023-08-15T09:45:53Z</time>
      </trkpt>
      <trkpt lat="43.5621" lon="1.49606">
        <ele>198.8</ele>
        <time>2023-08-15T09:45:57Z</time>
      </trkpt>
      <trkpt lat="43.56191" lon="1.49608">
        <ele>198.3</ele>
        <time>2023-08-15T09:46:00Z</time>
      </trkpt>
      <trkpt lat="43.56173" lon="1.49609">
        <ele>198.4</ele>
        <time>2023-08-15T09:46:04Z</time>
      </trkpt>
      <trkpt lat="43.56149" lon="1.49609">
        <ele>198.4</ele>
        <time>2023-08-15T09:46:07Z</time>
      </trkpt>
      <trkpt lat="43.5613" lon="1.49608">
        <ele>197.6</ele>
        <time>2023-08-15T09:46:10Z</time>
      </trkpt>
      <trkpt lat="43.56106" lon="1.4961">
        <ele>197.9</ele>
        <time>2023-08-15T09:46:14Z</time>
      </trkpt>
      <trkpt lat="43.56087" lon="1.4961">
        <ele>198.4</ele>
        <time>2023-08-15T09:46:17Z</time>
      </trkpt>
      <trkpt lat="43.56069" lon="1.49609">
        <ele>198.4</ele>
        <time>2023-08-15T09:46:20Z</time>
      </trkpt>
      <trkpt lat="43.56046" lon="1.49608">
        <ele>197.6</ele>
        <time>2023-08-15T09:46:24Z</time>
      </trkpt>
      <trkpt lat="43.56021" lon="1.49606">
        <ele>197.2</ele>
        <time>2023-08-15T09:46:29Z</time>
      </trkpt>
      <trkpt lat="43.55996" lon="1.49605">
        <ele>197.3</ele>
        <time>2023-08-15T09:46:32Z</time>
      </trkpt>
      <trkpt lat="43.5597" lon="1.49604">
        <ele>197.4</ele>
        <time>2023-08-15T09:46:36Z</time>
      </trkpt>
      <trkpt lat="43.55943" lon="1.49604">
        <ele>197.1</ele>
        <time>2023-08-15T09:46:40Z</time>
      </trkpt>
      <trkpt lat="43.55925" lon="1.49604">
        <ele>197.4</ele>
        <time>2023-08-15T09:46:43Z</time>
      </trkpt>
      <trkpt lat="43.55911" lon="1.49602">
        <ele>198.5</ele>
        <time>2023-08-15T09:46:47Z</time>
      </trkpt>
      <trkpt lat="43.55907" lon="1.49597">
        <ele>197.9</ele>
        <time>2023-08-15T09:46:50Z</time>
      </trkpt>
      <trkpt lat="43.55902" lon="1.49587">
        <ele>198</ele>
        <time>2023-08-15T09:46:53Z</time>
      </trkpt>
      <trkpt lat="43.55892" lon="1.49573">
        <ele>198.1</ele>
        <time>2023-08-15T09:46:57Z</time>
      </trkpt>
      <trkpt lat="43.5588" lon="1.49554">
        <ele>198.1</ele>
        <time>2023-08-15T09:47:00Z</time>
      </trkpt>
      <trkpt lat="43.55862" lon="1.49533">
        <ele>197.9</ele>
        <time>2023-08-15T09:47:04Z</time>
      </trkpt>
      <trkpt lat="43.55846" lon="1.49514">
        <ele>198.2</ele>
        <time>2023-08-15T09:47:07Z</time>
      </trkpt>
      <trkpt lat="43.55827" lon="1.49494">
        <ele>197.2</ele>
        <time>2023-08-15T09:47:10Z</time>
      </trkpt>
      <trkpt lat="43.55806" lon="1.49487">
        <ele>195.3</ele>
        <time>2023-08-15T09:47:13Z</time>
      </trkpt>
      <trkpt lat="43.55786" lon="1.4949">
        <ele>197.7</ele>
        <time>2023-08-15T09:47:17Z</time>
      </trkpt>
      <trkpt lat="43.55761" lon="1.49495">
        <ele>198</ele>
        <time>2023-08-15T09:47:20Z</time>
      </trkpt>
      <trkpt lat="43.55742" lon="1.49505">
        <ele>198</ele>
        <time>2023-08-15T09:47:24Z</time>
      </trkpt>
      <trkpt lat="43.55718" lon="1.49519">
        <ele>198</ele>
        <time>2023-08-15T09:47:27Z</time>
      </trkpt>
      <trkpt lat="43.55699" lon="1.49529">
        <ele>197.8</ele>
        <time>2023-08-15T09:47:30Z</time>
      </trkpt>
      <trkpt lat="43.5568" lon="1.49539">
        <ele>197.6</ele>
        <time>2023-08-15T09:47:34Z</time>
      </trkpt>
      <trkpt lat="43.55657" lon="1.49556">
        <ele>197.4</ele>
        <time>2023-08-15T09:47:37Z</time>
      </trkpt>
      <trkpt lat="43.55647" lon="1.49581">
        <ele>197</ele>
        <time>2023-08-15T09:47:41Z</time>
      </trkpt>
      <trkpt lat="43.55652" lon="1.49618">
        <ele>195.3</ele>
        <time>2023-08-15T09:47:44Z</time>
      </trkpt>
      <trkpt lat="43.55648" lon="1.49638">
        <ele>195.3</ele>
        <time>2023-08-15T09:47:48Z</time>
      </trkpt>
      <trkpt lat="43.55636" lon="1.49649">
        <ele>195.3</ele>
        <time>2023-08-15T09:47:52Z</time>
      </trkpt>
      <trkpt lat="43.55612" lon="1.49658">
        <ele>195.3</ele>
        <time>2023-08-15T09:47:55Z</time>
      </trkpt>
      <trkpt lat="43.55591" lon="1.4966">
        <ele>195.3</ele>
        <time>2023-08-15T09:47:58Z</time>
      </trkpt>
      <trkpt lat="43.55571" lon="1.49661">
        <ele>195.3</ele>
        <time>2023-08-15T09:48:01Z</time>
      </trkpt>
      <trkpt lat="43.55547" lon="1.4966">
        <ele>195.3</ele>
        <time>2023-08-15T09:48:05Z</time>
      </trkpt>
      <trkpt lat="43.55532" lon="1.4966">
        <ele>195.3</ele>
        <time>2023-08-15T09:48:08Z</time>
      </trkpt>
      <trkpt lat="43.55511" lon="1.49659">
        <ele>195.3</ele>
        <time>2023-08-15T09:48:11Z</time>
      </trkpt>
      <trkpt lat="43.5548" lon="1.49657">
        <ele>195.3</ele>
        <time>2023-08-15T09:48:16Z</time>
      </trkpt>
      <trkpt lat="43.55453" lon="1.49655">
        <ele>195.3</ele>
        <time>2023-08-15T09:48:19Z</time>
      </trkpt>
      <trkpt lat="43.55435" lon="1.49656">
        <ele>195.3</ele>
        <time>2023-08-15T09:48:22Z</time>
      </trkpt>
      <trkpt lat="43.55409" lon="1.49659">
        <ele>195.3</ele>
        <time>2023-08-15T09:48:26Z</time>
      </trkpt>
      <trkpt lat="43.55382" lon="1.49665">
        <ele>195.3</ele>
        <time>2023-08-15T09:48:30Z</time>
      </trkpt>
      <trkpt lat="43.55363" lon="1.49671">
        <ele>195.3</ele>
        <time>2023-08-15T09:48:33Z</time>
      </trkpt>
      <trkpt lat="43.55338" lon="1.49677">
        <ele>195.3</ele>
        <time>2023-08-15T09:48:37Z</time>
      </trkpt>
      <trkpt lat="43.55317" lon="1.4968">
        <ele>195.3</ele>
        <time>2023-08-15T09:48:40Z</time>
      </trkpt>
      <trkpt lat="43.5529" lon="1.49686">
        <ele>195.3</ele>
        <time>2023-08-15T09:48:44Z</time>
      </trkpt>
      <trkpt lat="43.55271" lon="1.49693">
        <ele>195.3</ele>
        <time>2023-08-15T09:48:47Z</time>
      </trkpt>
      <trkpt lat="43.55246" lon="1.49705">
        <ele>195.3</ele>
        <time>2023-08-15T09:48:51Z</time>
      </trkpt>
      <trkpt lat="43.5522" lon="1.49717">
        <ele>194.9</ele>
        <time>2023-08-15T09:48:55Z</time>
      </trkpt>
      <trkpt lat="43.55195" lon="1.49727">
        <ele>195</ele>
        <time>2023-08-15T09:48:59Z</time>
      </trkpt>
      <trkpt lat="43.5517" lon="1.49738">
        <ele>195.5</ele>
        <time>2023-08-15T09:49:03Z</time>
      </trkpt>
      <trkpt lat="43.55145" lon="1.49748">
        <ele>195.4</ele>
        <time>2023-08-15T09:49:07Z</time>
      </trkpt>
      <trkpt lat="43.55126" lon="1.49756">
        <ele>194.8</ele>
        <time>2023-08-15T09:49:10Z</time>
      </trkpt>
      <trkpt lat="43.55107" lon="1.49765">
        <ele>194.7</ele>
        <time>2023-08-15T09:49:13Z</time>
      </trkpt>
      <trkpt lat="43.55089" lon="1.49776">
        <ele>194.8</ele>
        <time>2023-08-15T09:49:16Z</time>
      </trkpt>
      <trkpt lat="43.55071" lon="1.49787">
        <ele>195</ele>
        <time>2023-08-15T09:49:20Z</time>
      </trkpt>
      <trkpt lat="43.55047" lon="1.49804">
        <ele>195.2</ele>
        <time>2023-08-15T09:49:24Z</time>
      </trkpt>
      <trkpt lat="43.55024" lon="1.4982">
        <ele>195.3</ele>
        <time>2023-08-15T09:49:27Z</time>
      </trkpt>
      <trkpt lat="43.55006" lon="1.49832">
        <ele>195.8</ele>
        <time>2023-08-15T09:49:30Z</time>
      </trkpt>
      <trkpt lat="43.54982" lon="1.49849">
        <ele>195.6</ele>
        <time>2023-08-15T09:49:34Z</time>
      </trkpt>
      <trkpt lat="43.54965" lon="1.49863">
        <ele>195.6</ele>
        <time>2023-08-15T09:49:38Z</time>
      </trkpt>
      <trkpt lat="43.54944" lon="1.49883">
        <ele>195.2</ele>
        <time>2023-08-15T09:49:41Z</time>
      </trkpt>
      <trkpt lat="43.54927" lon="1.49899">
        <ele>195.1</ele>
        <time>2023-08-15T09:49:44Z</time>
      </trkpt>
      <trkpt lat="43.54906" lon="1.4992">
        <ele>194.8</ele>
        <time>2023-08-15T09:49:48Z</time>
      </trkpt>
      <trkpt lat="43.54885" lon="1.49941">
        <ele>195</ele>
        <time>2023-08-15T09:49:52Z</time>
      </trkpt>
      <trkpt lat="43.54868" lon="1.49956">
        <ele>194.8</ele>
        <time>2023-08-15T09:49:55Z</time>
      </trkpt>
      <trkpt lat="43.54847" lon="1.49978">
        <ele>195</ele>
        <time>2023-08-15T09:49:59Z</time>
      </trkpt>
      <trkpt lat="43.54831" lon="1.49994">
        <ele>195.2</ele>
        <time>2023-08-15T09:50:03Z</time>
      </trkpt>
      <trkpt lat="43.54809" lon="1.50015">
        <ele>195.5</ele>
        <time>2023-08-15T09:50:06Z</time>
      </trkpt>
      <trkpt lat="43.54792" lon="1.50029">
        <ele>195.2</ele>
        <time>2023-08-15T09:50:09Z</time>
      </trkpt>
      <trkpt lat="43.54776" lon="1.50044">
        <ele>195.1</ele>
        <time>2023-08-15T09:50:13Z</time>
      </trkpt>
      <trkpt lat="43.54755" lon="1.50065">
        <ele>195.1</ele>
        <time>2023-08-15T09:50:16Z</time>
      </trkpt>
      <trkpt lat="43.54738" lon="1.50081">
        <ele>195.1</ele>
        <time>2023-08-15T09:50:19Z</time>
      </trkpt>
      <trkpt lat="43.54722" lon="1.50097">
        <ele>195.2</ele>
        <time>2023-08-15T09:50:22Z</time>
      </trkpt>
      <trkpt lat="43.54706" lon="1.50113">
        <ele>195.6</ele>
        <time>2023-08-15T09:50:25Z</time>
      </trkpt>
      <trkpt lat="43.5469" lon="1.50129">
        <ele>195.3</ele>
        <time>2023-08-15T09:50:29Z</time>
      </trkpt>
      <trkpt lat="43.54668" lon="1.5015">
        <ele>195.2</ele>
        <time>2023-08-15T09:50:32Z</time>
      </trkpt>
      <trkpt lat="43.54651" lon="1.50166">
        <ele>195.3</ele>
        <time>2023-08-15T09:50:35Z</time>
      </trkpt>
      <trkpt lat="43.5463" lon="1.50186">
        <ele>194.8</ele>
        <time>2023-08-15T09:50:39Z</time>
      </trkpt>
      <trkpt lat="43.54608" lon="1.50208">
        <ele>195.6</ele>
        <time>2023-08-15T09:50:43Z</time>
      </trkpt>
      <trkpt lat="43.54587" lon="1.50229">
        <ele>195.1</ele>
        <time>2023-08-15T09:50:47Z</time>
      </trkpt>
      <trkpt lat="43.54571" lon="1.50245">
        <ele>195</ele>
        <time>2023-08-15T09:50:51Z</time>
      </trkpt>
      <trkpt lat="43.5455" lon="1.50266">
        <ele>195</ele>
        <time>2023-08-15T09:50:54Z</time>
      </trkpt>
      <trkpt lat="43.54528" lon="1.50287">
        <ele>194.9</ele>
        <time>2023-08-15T09:50:59Z</time>
      </trkpt>
      <trkpt lat="43.54506" lon="1.50307">
        <ele>195.2</ele>
        <time>2023-08-15T09:51:03Z</time>
      </trkpt>
      <trkpt lat="43.54486" lon="1.5033">
        <ele>196</ele>
        <time>2023-08-15T09:51:06Z</time>
      </trkpt>
      <trkpt lat="43.54473" lon="1.50346">
        <ele>196.2</ele>
        <time>2023-08-15T09:51:09Z</time>
      </trkpt>
      <trkpt lat="43.54458" lon="1.50357">
        <ele>196.6</ele>
        <time>2023-08-15T09:51:13Z</time>
      </trkpt>
      <trkpt lat="43.5444" lon="1.5036">
        <ele>195.5</ele>
        <time>2023-08-15T09:51:16Z</time>
      </trkpt>
      <trkpt lat="43.5443" lon="1.50371">
        <ele>195.5</ele>
        <time>2023-08-15T09:51:20Z</time>
      </trkpt>
      <trkpt lat="43.54414" lon="1.50394">
        <ele>195.5</ele>
        <time>2023-08-15T09:51:23Z</time>
      </trkpt>
      <trkpt lat="43.54397" lon="1.50412">
        <ele>194.2</ele>
        <time>2023-08-15T09:51:26Z</time>
      </trkpt>
      <trkpt lat="43.54377" lon="1.50431">
        <ele>194.2</ele>
        <time>2023-08-15T09:51:29Z</time>
      </trkpt>
      <trkpt lat="43.54353" lon="1.50453">
        <ele>194.2</ele>
        <time>2023-08-15T09:51:33Z</time>
      </trkpt>
      <trkpt lat="43.54333" lon="1.50473">
        <ele>194.2</ele>
        <time>2023-08-15T09:51:38Z</time>
      </trkpt>
      <trkpt lat="43.54311" lon="1.50494">
        <ele>194.2</ele>
        <time>2023-08-15T09:51:41Z</time>
      </trkpt>
      <trkpt lat="43.54294" lon="1.5051">
        <ele>194.2</ele>
        <time>2023-08-15T09:51:44Z</time>
      </trkpt>
      <trkpt lat="43.54273" lon="1.5053">
        <ele>194.2</ele>
        <time>2023-08-15T09:51:48Z</time>
      </trkpt>
      <trkpt lat="43.54257" lon="1.50545">
        <ele>194.2</ele>
        <time>2023-08-15T09:51:52Z</time>
      </trkpt>
      <trkpt lat="43.54235" lon="1.50566">
        <ele>194.2</ele>
        <time>2023-08-15T09:51:55Z</time>
      </trkpt>
      <trkpt lat="43.54219" lon="1.50582">
        <ele>194.2</ele>
        <time>2023-08-15T09:51:58Z</time>
      </trkpt>
      <trkpt lat="43.54198" lon="1.50604">
        <ele>194.2</ele>
        <time>2023-08-15T09:52:02Z</time>
      </trkpt>
      <trkpt lat="43.54183" lon="1.5062">
        <ele>194.2</ele>
        <time>2023-08-15T09:52:05Z</time>
      </trkpt>
      <trkpt lat="43.54167" lon="1.50636">
        <ele>194.2</ele>
        <time>2023-08-15T09:52:09Z</time>
      </trkpt>
      <trkpt lat="43.54146" lon="1.50658">
        <ele>194.2</ele>
        <time>2023-08-15T09:52:12Z</time>
      </trkpt>
      <trkpt lat="43.5413" lon="1.50675">
        <ele>194.2</ele>
        <time>2023-08-15T09:52:15Z</time>
      </trkpt>
      <trkpt lat="43.54109" lon="1.50697">
        <ele>194.2</ele>
        <time>2023-08-15T09:52:19Z</time>
      </trkpt>
      <trkpt lat="43.54088" lon="1.50719">
        <ele>194.2</ele>
        <time>2023-08-15T09:52:23Z</time>
      </trkpt>
      <trkpt lat="43.54066" lon="1.5074">
        <ele>194.2</ele>
        <time>2023-08-15T09:52:27Z</time>
      </trkpt>
      <trkpt lat="43.54045" lon="1.50761">
        <ele>194.2</ele>
        <time>2023-08-15T09:52:31Z</time>
      </trkpt>
      <trkpt lat="43.54028" lon="1.50777">
        <ele>194.2</ele>
        <time>2023-08-15T09:52:34Z</time>
      </trkpt>
      <trkpt lat="43.54007" lon="1.50799">
        <ele>194.2</ele>
        <time>2023-08-15T09:52:38Z</time>
      </trkpt>
      <trkpt lat="43.53985" lon="1.50819">
        <ele>194.2</ele>
        <time>2023-08-15T09:52:42Z</time>
      </trkpt>
      <trkpt lat="43.53963" lon="1.50841">
        <ele>194.2</ele>
        <time>2023-08-15T09:52:46Z</time>
      </trkpt>
      <trkpt lat="43.53947" lon="1.50857">
        <ele>194.2</ele>
        <time>2023-08-15T09:52:50Z</time>
      </trkpt>
      <trkpt lat="43.53927" lon="1.50879">
        <ele>194.2</ele>
        <time>2023-08-15T09:52:53Z</time>
      </trkpt>
      <trkpt lat="43.53912" lon="1.50897">
        <ele>194.2</ele>
        <time>2023-08-15T09:52:57Z</time>
      </trkpt>
      <trkpt lat="43.539" lon="1.50918">
        <ele>194.2</ele>
        <time>2023-08-15T09:53:00Z</time>
      </trkpt>
      <trkpt lat="43.53886" lon="1.50948">
        <ele>194.2</ele>
        <time>2023-08-15T09:53:03Z</time>
      </trkpt>
      <trkpt lat="43.53877" lon="1.50972">
        <ele>196</ele>
        <time>2023-08-15T09:53:06Z</time>
      </trkpt>
      <trkpt lat="43.53861" lon="1.51002">
        <ele>197.2</ele>
        <time>2023-08-15T09:53:10Z</time>
      </trkpt>
      <trkpt lat="43.53841" lon="1.51014">
        <ele>197.3</ele>
        <time>2023-08-15T09:53:14Z</time>
      </trkpt>
      <trkpt lat="43.53826" lon="1.51016">
        <ele>196</ele>
        <time>2023-08-15T09:53:18Z</time>
      </trkpt>
      <trkpt lat="43.53812" lon="1.51036">
        <ele>195.9</ele>
        <time>2023-08-15T09:53:21Z</time>
      </trkpt>
      <trkpt lat="43.538" lon="1.51062">
        <ele>197.2</ele>
        <time>2023-08-15T09:53:25Z</time>
      </trkpt>
      <trkpt lat="43.53775" lon="1.51077">
        <ele>196.5</ele>
        <time>2023-08-15T09:53:29Z</time>
      </trkpt>
      <trkpt lat="43.53755" lon="1.51083">
        <ele>194.2</ele>
        <time>2023-08-15T09:53:32Z</time>
      </trkpt>
      <trkpt lat="43.53729" lon="1.51092">
        <ele>194.2</ele>
        <time>2023-08-15T09:53:36Z</time>
      </trkpt>
      <trkpt lat="43.53704" lon="1.51101">
        <ele>194.2</ele>
        <time>2023-08-15T09:53:41Z</time>
      </trkpt>
      <trkpt lat="43.53681" lon="1.51113">
        <ele>194.2</ele>
        <time>2023-08-15T09:53:45Z</time>
      </trkpt>
      <trkpt lat="43.53657" lon="1.51131">
        <ele>194.2</ele>
        <time>2023-08-15T09:53:48Z</time>
      </trkpt>
      <trkpt lat="43.53634" lon="1.51154">
        <ele>194.1</ele>
        <time>2023-08-15T09:53:53Z</time>
      </trkpt>
      <trkpt lat="43.53613" lon="1.51175">
        <ele>194.9</ele>
        <time>2023-08-15T09:53:56Z</time>
      </trkpt>
      <trkpt lat="43.53592" lon="1.51195">
        <ele>193.7</ele>
        <time>2023-08-15T09:54:00Z</time>
      </trkpt>
      <trkpt lat="43.53576" lon="1.51211">
        <ele>193.1</ele>
        <time>2023-08-15T09:54:04Z</time>
      </trkpt>
      <trkpt lat="43.53555" lon="1.51231">
        <ele>193.6</ele>
        <time>2023-08-15T09:54:08Z</time>
      </trkpt>
      <trkpt lat="43.53538" lon="1.51247">
        <ele>193</ele>
        <time>2023-08-15T09:54:11Z</time>
      </trkpt>
      <trkpt lat="43.53517" lon="1.51267">
        <ele>192.5</ele>
        <time>2023-08-15T09:54:14Z</time>
      </trkpt>
      <trkpt lat="43.53501" lon="1.51284">
        <ele>193.6</ele>
        <time>2023-08-15T09:54:17Z</time>
      </trkpt>
      <trkpt lat="43.53479" lon="1.51305">
        <ele>193.6</ele>
        <time>2023-08-15T09:54:21Z</time>
      </trkpt>
      <trkpt lat="43.53457" lon="1.51327">
        <ele>192.2</ele>
        <time>2023-08-15T09:54:26Z</time>
      </trkpt>
      <trkpt lat="43.53436" lon="1.51349">
        <ele>193.5</ele>
        <time>2023-08-15T09:54:29Z</time>
      </trkpt>
      <trkpt lat="43.53421" lon="1.51366">
        <ele>192.8</ele>
        <time>2023-08-15T09:54:33Z</time>
      </trkpt>
      <trkpt lat="43.53405" lon="1.51383">
        <ele>193.2</ele>
        <time>2023-08-15T09:54:36Z</time>
      </trkpt>
      <trkpt lat="43.53385" lon="1.51406">
        <ele>192.1</ele>
        <time>2023-08-15T09:54:39Z</time>
      </trkpt>
      <trkpt lat="43.5337" lon="1.51424">
        <ele>193</ele>
        <time>2023-08-15T09:54:43Z</time>
      </trkpt>
      <trkpt lat="43.5335" lon="1.51448">
        <ele>193.4</ele>
        <time>2023-08-15T09:54:46Z</time>
      </trkpt>
      <trkpt lat="43.53336" lon="1.51467">
        <ele>193</ele>
        <time>2023-08-15T09:54:50Z</time>
      </trkpt>
      <trkpt lat="43.53318" lon="1.51493">
        <ele>191.2</ele>
        <time>2023-08-15T09:54:53Z</time>
      </trkpt>
      <trkpt lat="43.53303" lon="1.51512">
        <ele>194</ele>
        <time>2023-08-15T09:54:57Z</time>
      </trkpt>
      <trkpt lat="43.53285" lon="1.51539">
        <ele>193.9</ele>
        <time>2023-08-15T09:55:01Z</time>
      </trkpt>
      <trkpt lat="43.53267" lon="1.51566">
        <ele>193.4</ele>
        <time>2023-08-15T09:55:05Z</time>
      </trkpt>
      <trkpt lat="43.53254" lon="1.51587">
        <ele>193.4</ele>
        <time>2023-08-15T09:55:08Z</time>
      </trkpt>
      <trkpt lat="43.53238" lon="1.51616">
        <ele>194.2</ele>
        <time>2023-08-15T09:55:11Z</time>
      </trkpt>
      <trkpt lat="43.53225" lon="1.51638">
        <ele>194.2</ele>
        <time>2023-08-15T09:55:14Z</time>
      </trkpt>
      <trkpt lat="43.53213" lon="1.5166">
        <ele>193.1</ele>
        <time>2023-08-15T09:55:18Z</time>
      </trkpt>
      <trkpt lat="43.53198" lon="1.51689">
        <ele>192.8</ele>
        <time>2023-08-15T09:55:22Z</time>
      </trkpt>
      <trkpt lat="43.53183" lon="1.51718">
        <ele>194.2</ele>
        <time>2023-08-15T09:55:25Z</time>
      </trkpt>
      <trkpt lat="43.53171" lon="1.5174">
        <ele>194.2</ele>
        <time>2023-08-15T09:55:29Z</time>
      </trkpt>
      <trkpt lat="43.53155" lon="1.5177">
        <ele>193.3</ele>
        <time>2023-08-15T09:55:32Z</time>
      </trkpt>
      <trkpt lat="43.53143" lon="1.51792">
        <ele>193.4</ele>
        <time>2023-08-15T09:55:35Z</time>
      </trkpt>
      <trkpt lat="43.53128" lon="1.51822">
        <ele>192.8</ele>
        <time>2023-08-15T09:55:39Z</time>
      </trkpt>
      <trkpt lat="43.53117" lon="1.51844">
        <ele>192.4</ele>
        <time>2023-08-15T09:55:43Z</time>
      </trkpt>
      <trkpt lat="43.53106" lon="1.51866">
        <ele>194</ele>
        <time>2023-08-15T09:55:46Z</time>
      </trkpt>
      <trkpt lat="43.53091" lon="1.51896">
        <ele>193.2</ele>
        <time>2023-08-15T09:55:49Z</time>
      </trkpt>
      <trkpt lat="43.53079" lon="1.51918">
        <ele>194.7</ele>
        <time>2023-08-15T09:55:53Z</time>
      </trkpt>
      <trkpt lat="43.53063" lon="1.51947">
        <ele>193.9</ele>
        <time>2023-08-15T09:55:56Z</time>
      </trkpt>
      <trkpt lat="43.53052" lon="1.51968">
        <ele>193.8</ele>
        <time>2023-08-15T09:56:00Z</time>
      </trkpt>
      <trkpt lat="43.53037" lon="1.51998">
        <ele>195.1</ele>
        <time>2023-08-15T09:56:04Z</time>
      </trkpt>
      <trkpt lat="43.53026" lon="1.52019">
        <ele>195</ele>
        <time>2023-08-15T09:56:07Z</time>
      </trkpt>
      <trkpt lat="43.53008" lon="1.52032">
        <ele>195.1</ele>
        <time>2023-08-15T09:56:11Z</time>
      </trkpt>
      <trkpt lat="43.52991" lon="1.52046">
        <ele>194.4</ele>
        <time>2023-08-15T09:56:14Z</time>
      </trkpt>
      <trkpt lat="43.52988" lon="1.52079">
        <ele>195</ele>
        <time>2023-08-15T09:56:19Z</time>
      </trkpt>
      <trkpt lat="43.52985" lon="1.52103">
        <ele>195</ele>
        <time>2023-08-15T09:56:22Z</time>
      </trkpt>
      <trkpt lat="43.52966" lon="1.52127">
        <ele>195.2</ele>
        <time>2023-08-15T09:56:25Z</time>
      </trkpt>
      <trkpt lat="43.52942" lon="1.52147">
        <ele>195.4</ele>
        <time>2023-08-15T09:56:29Z</time>
      </trkpt>
      <trkpt lat="43.52918" lon="1.52158">
        <ele>196</ele>
        <time>2023-08-15T09:56:33Z</time>
      </trkpt>
      <trkpt lat="43.52899" lon="1.52161">
        <ele>195.2</ele>
        <time>2023-08-15T09:56:37Z</time>
      </trkpt>
      <trkpt lat="43.5287" lon="1.52159">
        <ele>196.5</ele>
        <time>2023-08-15T09:56:41Z</time>
      </trkpt>
      <trkpt lat="43.5285" lon="1.52154">
        <ele>196.7</ele>
        <time>2023-08-15T09:56:44Z</time>
      </trkpt>
      <trkpt lat="43.52825" lon="1.52145">
        <ele>197.1</ele>
        <time>2023-08-15T09:56:47Z</time>
      </trkpt>
      <trkpt lat="43.52806" lon="1.52139">
        <ele>197.1</ele>
        <time>2023-08-15T09:56:51Z</time>
      </trkpt>
      <trkpt lat="43.52781" lon="1.52132">
        <ele>197.7</ele>
        <time>2023-08-15T09:56:54Z</time>
      </trkpt>
      <trkpt lat="43.52754" lon="1.52127">
        <ele>197.8</ele>
        <time>2023-08-15T09:56:59Z</time>
      </trkpt>
      <trkpt lat="43.52734" lon="1.52128">
        <ele>198.2</ele>
        <time>2023-08-15T09:57:02Z</time>
      </trkpt>
      <trkpt lat="43.52715" lon="1.52128">
        <ele>197.2</ele>
        <time>2023-08-15T09:57:05Z</time>
      </trkpt>
      <trkpt lat="43.52697" lon="1.52129">
        <ele>197</ele>
        <time>2023-08-15T09:57:08Z</time>
      </trkpt>
      <trkpt lat="43.52677" lon="1.52134">
        <ele>197.8</ele>
        <time>2023-08-15T09:57:11Z</time>
      </trkpt>
      <trkpt lat="43.5265" lon="1.52145">
        <ele>198</ele>
        <time>2023-08-15T09:57:14Z</time>
      </trkpt>
      <trkpt lat="43.52632" lon="1.52157">
        <ele>197.4</ele>
        <time>2023-08-15T09:57:18Z</time>
      </trkpt>
      <trkpt lat="43.52614" lon="1.52171">
        <ele>197.5</ele>
        <time>2023-08-15T09:57:21Z</time>
      </trkpt>
      <trkpt lat="43.52592" lon="1.52191">
        <ele>197.1</ele>
        <time>2023-08-15T09:57:24Z</time>
      </trkpt>
      <trkpt lat="43.5257" lon="1.52212">
        <ele>196.6</ele>
        <time>2023-08-15T09:57:28Z</time>
      </trkpt>
      <trkpt lat="43.52549" lon="1.52234">
        <ele>195.7</ele>
        <time>2023-08-15T09:57:32Z</time>
      </trkpt>
      <trkpt lat="43.52528" lon="1.52257">
        <ele>194.1</ele>
        <time>2023-08-15T09:57:36Z</time>
      </trkpt>
      <trkpt lat="43.52512" lon="1.52275">
        <ele>194.9</ele>
        <time>2023-08-15T09:57:39Z</time>
      </trkpt>
      <trkpt lat="43.52497" lon="1.52292">
        <ele>195.4</ele>
        <time>2023-08-15T09:57:43Z</time>
      </trkpt>
      <trkpt lat="43.52477" lon="1.52314">
        <ele>194.8</ele>
        <time>2023-08-15T09:57:46Z</time>
      </trkpt>
      <trkpt lat="43.52462" lon="1.52333">
        <ele>194.9</ele>
        <time>2023-08-15T09:57:50Z</time>
      </trkpt>
      <trkpt lat="43.52441" lon="1.52356">
        <ele>195.3</ele>
        <time>2023-08-15T09:57:53Z</time>
      </trkpt>
      <trkpt lat="43.52426" lon="1.52373">
        <ele>195.6</ele>
        <time>2023-08-15T09:57:56Z</time>
      </trkpt>
      <trkpt lat="43.52411" lon="1.52391">
        <ele>195</ele>
        <time>2023-08-15T09:58:00Z</time>
      </trkpt>
      <trkpt lat="43.5239" lon="1.52414">
        <ele>193.6</ele>
        <time>2023-08-15T09:58:04Z</time>
      </trkpt>
      <trkpt lat="43.5237" lon="1.52438">
        <ele>194.5</ele>
        <time>2023-08-15T09:58:07Z</time>
      </trkpt>
      <trkpt lat="43.52355" lon="1.52455">
        <ele>195</ele>
        <time>2023-08-15T09:58:10Z</time>
      </trkpt>
      <trkpt lat="43.52335" lon="1.52477">
        <ele>195</ele>
        <time>2023-08-15T09:58:14Z</time>
      </trkpt>
      <trkpt lat="43.5232" lon="1.52494">
        <ele>195.4</ele>
        <time>2023-08-15T09:58:17Z</time>
      </trkpt>
      <trkpt lat="43.52299" lon="1.52517">
        <ele>194.3</ele>
        <time>2023-08-15T09:58:21Z</time>
      </trkpt>
      <trkpt lat="43.52283" lon="1.52536">
        <ele>194.7</ele>
        <time>2023-08-15T09:58:25Z</time>
      </trkpt>
      <trkpt lat="43.52267" lon="1.52552">
        <ele>195.5</ele>
        <time>2023-08-15T09:58:28Z</time>
      </trkpt>
      <trkpt lat="43.52251" lon="1.5257">
        <ele>194.1</ele>
        <time>2023-08-15T09:58:31Z</time>
      </trkpt>
      <trkpt lat="43.52231" lon="1.52592">
        <ele>193.6</ele>
        <time>2023-08-15T09:58:34Z</time>
      </trkpt>
      <trkpt lat="43.52215" lon="1.52609">
        <ele>194.5</ele>
        <time>2023-08-15T09:58:37Z</time>
      </trkpt>
      <trkpt lat="43.52194" lon="1.52632">
        <ele>194.6</ele>
        <time>2023-08-15T09:58:42Z</time>
      </trkpt>
      <trkpt lat="43.52174" lon="1.52656">
        <ele>195</ele>
        <time>2023-08-15T09:58:46Z</time>
      </trkpt>
      <trkpt lat="43.52153" lon="1.52679">
        <ele>194.7</ele>
        <time>2023-08-15T09:58:49Z</time>
      </trkpt>
      <trkpt lat="43.52138" lon="1.52696">
        <ele>195.1</ele>
        <time>2023-08-15T09:58:52Z</time>
      </trkpt>
      <trkpt lat="43.52123" lon="1.52713">
        <ele>193.9</ele>
        <time>2023-08-15T09:58:56Z</time>
      </trkpt>
      <trkpt lat="43.52102" lon="1.52737">
        <ele>193.5</ele>
        <time>2023-08-15T09:59:00Z</time>
      </trkpt>
      <trkpt lat="43.52081" lon="1.52759">
        <ele>194.3</ele>
        <time>2023-08-15T09:59:04Z</time>
      </trkpt>
      <trkpt lat="43.52061" lon="1.52783">
        <ele>194.8</ele>
        <time>2023-08-15T09:59:08Z</time>
      </trkpt>
      <trkpt lat="43.52041" lon="1.52806">
        <ele>194.9</ele>
        <time>2023-08-15T09:59:12Z</time>
      </trkpt>
      <trkpt lat="43.52021" lon="1.52829">
        <ele>194.3</ele>
        <time>2023-08-15T09:59:15Z</time>
      </trkpt>
      <trkpt lat="43.52006" lon="1.52846">
        <ele>194.4</ele>
        <time>2023-08-15T09:59:19Z</time>
      </trkpt>
      <trkpt lat="43.51984" lon="1.52869">
        <ele>194</ele>
        <time>2023-08-15T09:59:22Z</time>
      </trkpt>
      <trkpt lat="43.51969" lon="1.52886">
        <ele>193.5</ele>
        <time>2023-08-15T09:59:26Z</time>
      </trkpt>
      <trkpt lat="43.51948" lon="1.52909">
        <ele>194.5</ele>
        <time>2023-08-15T09:59:29Z</time>
      </trkpt>
      <trkpt lat="43.51932" lon="1.52926">
        <ele>194.5</ele>
        <time>2023-08-15T09:59:33Z</time>
      </trkpt>
      <trkpt lat="43.51911" lon="1.52949">
        <ele>195.8</ele>
        <time>2023-08-15T09:59:36Z</time>
      </trkpt>
      <trkpt lat="43.51895" lon="1.52966">
        <ele>195.4</ele>
        <time>2023-08-15T09:59:40Z</time>
      </trkpt>
      <trkpt lat="43.5188" lon="1.52983">
        <ele>195</ele>
        <time>2023-08-15T09:59:43Z</time>
      </trkpt>
      <trkpt lat="43.5186" lon="1.53007">
        <ele>195.1</ele>
        <time>2023-08-15T09:59:46Z</time>
      </trkpt>
      <trkpt lat="43.51845" lon="1.53024">
        <ele>195.1</ele>
        <time>2023-08-15T09:59:50Z</time>
      </trkpt>
      <trkpt lat="43.51825" lon="1.53047">
        <ele>194.3</ele>
        <time>2023-08-15T09:59:53Z</time>
      </trkpt>
      <trkpt lat="43.51809" lon="1.53064">
        <ele>194.1</ele>
        <time>2023-08-15T09:59:56Z</time>
      </trkpt>
      <trkpt lat="43.51788" lon="1.53088">
        <ele>194.2</ele>
        <time>2023-08-15T10:00:00Z</time>
      </trkpt>
      <trkpt lat="43.51772" lon="1.53104">
        <ele>195.6</ele>
        <time>2023-08-15T10:00:03Z</time>
      </trkpt>
      <trkpt lat="43.51757" lon="1.53122">
        <ele>194.6</ele>
        <time>2023-08-15T10:00:07Z</time>
      </trkpt>
      <trkpt lat="43.51737" lon="1.53144">
        <ele>195</ele>
        <time>2023-08-15T10:00:11Z</time>
      </trkpt>
      <trkpt lat="43.51716" lon="1.53167">
        <ele>194.9</ele>
        <time>2023-08-15T10:00:15Z</time>
      </trkpt>
      <trkpt lat="43.51701" lon="1.53184">
        <ele>195.2</ele>
        <time>2023-08-15T10:00:18Z</time>
      </trkpt>
      <trkpt lat="43.51681" lon="1.53208">
        <ele>195</ele>
        <time>2023-08-15T10:00:21Z</time>
      </trkpt>
      <trkpt lat="43.51662" lon="1.53233">
        <ele>195.1</ele>
        <time>2023-08-15T10:00:26Z</time>
      </trkpt>
      <trkpt lat="43.51644" lon="1.53259">
        <ele>195.1</ele>
        <time>2023-08-15T10:00:29Z</time>
      </trkpt>
      <trkpt lat="43.51632" lon="1.53279">
        <ele>195</ele>
        <time>2023-08-15T10:00:33Z</time>
      </trkpt>
      <trkpt lat="43.51622" lon="1.53302">
        <ele>194.9</ele>
        <time>2023-08-15T10:00:36Z</time>
      </trkpt>
      <trkpt lat="43.5161" lon="1.53334">
        <ele>195.3</ele>
        <time>2023-08-15T10:00:39Z</time>
      </trkpt>
      <trkpt lat="43.51599" lon="1.53368">
        <ele>195.3</ele>
        <time>2023-08-15T10:00:43Z</time>
      </trkpt>
      <trkpt lat="43.5159" lon="1.53391">
        <ele>195.4</ele>
        <time>2023-08-15T10:00:46Z</time>
      </trkpt>
      <trkpt lat="43.51581" lon="1.53414">
        <ele>194.8</ele>
        <time>2023-08-15T10:00:50Z</time>
      </trkpt>
      <trkpt lat="43.51572" lon="1.53434">
        <ele>195.4</ele>
        <time>2023-08-15T10:00:53Z</time>
      </trkpt>
      <trkpt lat="43.51559" lon="1.53454">
        <ele>195.5</ele>
        <time>2023-08-15T10:00:56Z</time>
      </trkpt>
      <trkpt lat="43.51547" lon="1.53463">
        <ele>195.9</ele>
        <time>2023-08-15T10:01:00Z</time>
      </trkpt>
      <trkpt lat="43.51531" lon="1.53475">
        <ele>195.5</ele>
        <time>2023-08-15T10:01:04Z</time>
      </trkpt>
      <trkpt lat="43.51526" lon="1.53503">
        <ele>195.9</ele>
        <time>2023-08-15T10:01:08Z</time>
      </trkpt>
      <trkpt lat="43.51539" lon="1.53531">
        <ele>196</ele>
        <time>2023-08-15T10:01:12Z</time>
      </trkpt>
      <trkpt lat="43.51552" lon="1.53548">
        <ele>196.5</ele>
        <time>2023-08-15T10:01:15Z</time>
      </trkpt>
      <trkpt lat="43.51562" lon="1.53569">
        <ele>196.3</ele>
        <time>2023-08-15T10:01:18Z</time>
      </trkpt>
      <trkpt lat="43.51574" lon="1.53596">
        <ele>196.2</ele>
        <time>2023-08-15T10:01:21Z</time>
      </trkpt>
      <trkpt lat="43.51589" lon="1.53631">
        <ele>196.7</ele>
        <time>2023-08-15T10:01:25Z</time>
      </trkpt>
      <trkpt lat="43.51598" lon="1.53657">
        <ele>196.2</ele>
        <time>2023-08-15T10:01:28Z</time>
      </trkpt>
      <trkpt lat="43.51607" lon="1.53681">
        <ele>195.9</ele>
        <time>2023-08-15T10:01:32Z</time>
      </trkpt>
      <trkpt lat="43.51615" lon="1.53705">
        <ele>195.7</ele>
        <time>2023-08-15T10:01:35Z</time>
      </trkpt>
      <trkpt lat="43.51626" lon="1.53737">
        <ele>196.4</ele>
        <time>2023-08-15T10:01:38Z</time>
      </trkpt>
      <trkpt lat="43.51639" lon="1.53769">
        <ele>196.9</ele>
        <time>2023-08-15T10:01:42Z</time>
      </trkpt>
      <trkpt lat="43.51651" lon="1.53791">
        <ele>197.2</ele>
        <time>2023-08-15T10:01:46Z</time>
      </trkpt>
      <trkpt lat="43.51673" lon="1.53814">
        <ele>197.7</ele>
        <time>2023-08-15T10:01:50Z</time>
      </trkpt>
      <trkpt lat="43.51691" lon="1.53826">
        <ele>197.9</ele>
        <time>2023-08-15T10:01:53Z</time>
      </trkpt>
      <trkpt lat="43.51709" lon="1.53836">
        <ele>198</ele>
        <time>2023-08-15T10:01:56Z</time>
      </trkpt>
      <trkpt lat="43.51734" lon="1.53849">
        <ele>199</ele>
        <time>2023-08-15T10:01:59Z</time>
      </trkpt>
      <trkpt lat="43.51758" lon="1.53864">
        <ele>199.2</ele>
        <time>2023-08-15T10:02:04Z</time>
      </trkpt>
      <trkpt lat="43.51773" lon="1.53881">
        <ele>200.4</ele>
        <time>2023-08-15T10:02:07Z</time>
      </trkpt>
      <trkpt lat="43.51778" lon="1.53905">
        <ele>201</ele>
        <time>2023-08-15T10:02:10Z</time>
      </trkpt>
      <trkpt lat="43.51785" lon="1.53925">
        <ele>201.7</ele>
        <time>2023-08-15T10:02:13Z</time>
      </trkpt>
      <trkpt lat="43.51804" lon="1.53942">
        <ele>202.2</ele>
        <time>2023-08-15T10:02:16Z</time>
      </trkpt>
      <trkpt lat="43.51816" lon="1.53974">
        <ele>204.1</ele>
        <time>2023-08-15T10:02:20Z</time>
      </trkpt>
      <trkpt lat="43.51824" lon="1.53999">
        <ele>205.4</ele>
        <time>2023-08-15T10:02:24Z</time>
      </trkpt>
      <trkpt lat="43.51835" lon="1.5403">
        <ele>207</ele>
        <time>2023-08-15T10:02:27Z</time>
      </trkpt>
      <trkpt lat="43.51843" lon="1.54052">
        <ele>208.3</ele>
        <time>2023-08-15T10:02:31Z</time>
      </trkpt>
      <trkpt lat="43.51853" lon="1.54083">
        <ele>209.4</ele>
        <time>2023-08-15T10:02:35Z</time>
      </trkpt>
      <trkpt lat="43.51864" lon="1.54118">
        <ele>210.2</ele>
        <time>2023-08-15T10:02:38Z</time>
      </trkpt>
      <trkpt lat="43.51875" lon="1.54146">
        <ele>210.5</ele>
        <time>2023-08-15T10:02:42Z</time>
      </trkpt>
      <trkpt lat="43.51884" lon="1.54173">
        <ele>210.4</ele>
        <time>2023-08-15T10:02:45Z</time>
      </trkpt>
      <trkpt lat="43.51893" lon="1.54206">
        <ele>210.2</ele>
        <time>2023-08-15T10:02:48Z</time>
      </trkpt>
      <trkpt lat="43.51899" lon="1.54232">
        <ele>209.8</ele>
        <time>2023-08-15T10:02:52Z</time>
      </trkpt>
      <trkpt lat="43.51907" lon="1.54267">
        <ele>208.5</ele>
        <time>2023-08-15T10:02:56Z</time>
      </trkpt>
      <trkpt lat="43.51912" lon="1.543">
        <ele>206.7</ele>
        <time>2023-08-15T10:03:00Z</time>
      </trkpt>
      <trkpt lat="43.51913" lon="1.5432">
        <ele>205.7</ele>
        <time>2023-08-15T10:03:03Z</time>
      </trkpt>
      <trkpt lat="43.51908" lon="1.54338">
        <ele>205.4</ele>
        <time>2023-08-15T10:03:07Z</time>
      </trkpt>
      <trkpt lat="43.51913" lon="1.54352">
        <ele>204.9</ele>
        <time>2023-08-15T10:03:10Z</time>
      </trkpt>
      <trkpt lat="43.51927" lon="1.54361">
        <ele>204.5</ele>
        <time>2023-08-15T10:03:13Z</time>
      </trkpt>
      <trkpt lat="43.51937" lon="1.54371">
        <ele>204.3</ele>
        <time>2023-08-15T10:03:17Z</time>
      </trkpt>
      <trkpt lat="43.51949" lon="1.54378">
        <ele>203.8</ele>
        <time>2023-08-15T10:03:20Z</time>
      </trkpt>
      <trkpt lat="43.51969" lon="1.54383">
        <ele>202.9</ele>
        <time>2023-08-15T10:03:24Z</time>
      </trkpt>
      <trkpt lat="43.51991" lon="1.54381">
        <ele>203</ele>
        <time>2023-08-15T10:03:27Z</time>
      </trkpt>
      <trkpt lat="43.52007" lon="1.54381">
        <ele>202.8</ele>
        <time>2023-08-15T10:03:31Z</time>
      </trkpt>
      <trkpt lat="43.52024" lon="1.54387">
        <ele>202.5</ele>
        <time>2023-08-15T10:03:35Z</time>
      </trkpt>
      <trkpt lat="43.52032" lon="1.54395">
        <ele>203</ele>
        <time>2023-08-15T10:03:38Z</time>
      </trkpt>
      <trkpt lat="43.52035" lon="1.54405">
        <ele>203.2</ele>
        <time>2023-08-15T10:03:41Z</time>
      </trkpt>
      <trkpt lat="43.52037" lon="1.54413">
        <ele>203.5</ele>
        <time>2023-08-15T10:03:44Z</time>
      </trkpt>
      <trkpt lat="43.52038" lon="1.54417">
        <ele>204</ele>
        <time>2023-08-15T10:03:48Z</time>
      </trkpt>
      <trkpt lat="43.52038" lon="1.5442">
        <ele>204.2</ele>
        <time>2023-08-15T10:03:53Z</time>
      </trkpt>
      <trkpt lat="43.52038" lon="1.54425">
        <ele>204</ele>
        <time>2023-08-15T10:03:56Z</time>
      </trkpt>
      <trkpt lat="43.52038" lon="1.54426">
        <ele>203.9</ele>
        <time>2023-08-15T10:04:14Z</time>
      </trkpt>
      <trkpt lat="43.52035" lon="1.54438">
        <ele>204.1</ele>
        <time>2023-08-15T10:04:18Z</time>
      </trkpt>
      <trkpt lat="43.52024" lon="1.5445">
        <ele>204</ele>
        <time>2023-08-15T10:04:21Z</time>
      </trkpt>
      <trkpt lat="43.52004" lon="1.54467">
        <ele>203.5</ele>
        <time>2023-08-15T10:04:24Z</time>
      </trkpt>
      <trkpt lat="43.51984" lon="1.54482">
        <ele>203.3</ele>
        <time>2023-08-15T10:04:28Z</time>
      </trkpt>
      <trkpt lat="43.5197" lon="1.54493">
        <ele>203.2</ele>
        <time>2023-08-15T10:04:32Z</time>
      </trkpt>
      <trkpt lat="43.51946" lon="1.54512">
        <ele>203.4</ele>
        <time>2023-08-15T10:04:36Z</time>
      </trkpt>
      <trkpt lat="43.51923" lon="1.54529">
        <ele>203.3</ele>
        <time>2023-08-15T10:04:40Z</time>
      </trkpt>
      <trkpt lat="43.51902" lon="1.54547">
        <ele>203.6</ele>
        <time>2023-08-15T10:04:44Z</time>
      </trkpt>
      <trkpt lat="43.51881" lon="1.54565">
        <ele>203.7</ele>
        <time>2023-08-15T10:04:48Z</time>
      </trkpt>
      <trkpt lat="43.51867" lon="1.54578">
        <ele>204.1</ele>
        <time>2023-08-15T10:04:51Z</time>
      </trkpt>
      <trkpt lat="43.51846" lon="1.54594">
        <ele>204.1</ele>
        <time>2023-08-15T10:04:55Z</time>
      </trkpt>
      <trkpt lat="43.51826" lon="1.5461">
        <ele>204.1</ele>
        <time>2023-08-15T10:04:59Z</time>
      </trkpt>
      <trkpt lat="43.51812" lon="1.54623">
        <ele>204.6</ele>
        <time>2023-08-15T10:05:02Z</time>
      </trkpt>
      <trkpt lat="43.51802" lon="1.54637">
        <ele>204.6</ele>
        <time>2023-08-15T10:05:05Z</time>
      </trkpt>
      <trkpt lat="43.51789" lon="1.54657">
        <ele>204.5</ele>
        <time>2023-08-15T10:05:08Z</time>
      </trkpt>
      <trkpt lat="43.51789" lon="1.5468">
        <ele>205.3</ele>
        <time>2023-08-15T10:05:12Z</time>
      </trkpt>
      <trkpt lat="43.51791" lon="1.54711">
        <ele>205.1</ele>
        <time>2023-08-15T10:05:16Z</time>
      </trkpt>
      <trkpt lat="43.51787" lon="1.54741">
        <ele>206.4</ele>
        <time>2023-08-15T10:05:20Z</time>
      </trkpt>
      <trkpt lat="43.51775" lon="1.54769">
        <ele>206.3</ele>
        <time>2023-08-15T10:05:24Z</time>
      </trkpt>
      <trkpt lat="43.51764" lon="1.548">
        <ele>206.7</ele>
        <time>2023-08-15T10:05:28Z</time>
      </trkpt>
      <trkpt lat="43.51752" lon="1.54834">
        <ele>208</ele>
        <time>2023-08-15T10:05:32Z</time>
      </trkpt>
      <trkpt lat="43.51741" lon="1.54863">
        <ele>207.8</ele>
        <time>2023-08-15T10:05:36Z</time>
      </trkpt>
      <trkpt lat="43.51729" lon="1.54886">
        <ele>208.4</ele>
        <time>2023-08-15T10:05:40Z</time>
      </trkpt>
      <trkpt lat="43.51721" lon="1.54901">
        <ele>208.5</ele>
        <time>2023-08-15T10:05:43Z</time>
      </trkpt>
      <trkpt lat="43.51714" lon="1.54911">
        <ele>208.6</ele>
        <time>2023-08-15T10:05:47Z</time>
      </trkpt>
      <trkpt lat="43.5171" lon="1.54917">
        <ele>208.5</ele>
        <time>2023-08-15T10:05:52Z</time>
      </trkpt>
      <trkpt lat="43.51708" lon="1.5492">
        <ele>208.6</ele>
        <time>2023-08-15T10:05:56Z</time>
      </trkpt>
      <trkpt lat="43.51707" lon="1.54922">
        <ele>210</ele>
        <time>2023-08-15T10:06:26Z</time>
      </trkpt>
      <trkpt lat="43.51705" lon="1.54926">
        <ele>208.6</ele>
        <time>2023-08-15T10:06:29Z</time>
      </trkpt>
      <trkpt lat="43.51702" lon="1.54932">
        <ele>209.2</ele>
        <time>2023-08-15T10:06:33Z</time>
      </trkpt>
      <trkpt lat="43.51697" lon="1.54939">
        <ele>213.2</ele>
        <time>2023-08-15T10:09:41Z</time>
      </trkpt>
      <trkpt lat="43.51695" lon="1.54942">
        <ele>213.2</ele>
        <time>2023-08-15T10:09:45Z</time>
      </trkpt>
      <trkpt lat="43.51692" lon="1.54952">
        <ele>214.3</ele>
        <time>2023-08-15T10:09:48Z</time>
      </trkpt>
      <trkpt lat="43.51685" lon="1.54964">
        <ele>213.3</ele>
        <time>2023-08-15T10:09:51Z</time>
      </trkpt>
      <trkpt lat="43.51675" lon="1.54982">
        <ele>213.3</ele>
        <time>2023-08-15T10:09:54Z</time>
      </trkpt>
      <trkpt lat="43.51666" lon="1.54995">
        <ele>213.3</ele>
        <time>2023-08-15T10:09:58Z</time>
      </trkpt>
      <trkpt lat="43.51652" lon="1.55022">
        <ele>213.3</ele>
        <time>2023-08-15T10:10:02Z</time>
      </trkpt>
      <trkpt lat="43.51642" lon="1.55047">
        <ele>213.3</ele>
        <time>2023-08-15T10:10:05Z</time>
      </trkpt>
      <trkpt lat="43.51635" lon="1.55076">
        <ele>213.6</ele>
        <time>2023-08-15T10:10:08Z</time>
      </trkpt>
      <trkpt lat="43.51624" lon="1.55113">
        <ele>217.3</ele>
        <time>2023-08-15T10:10:12Z</time>
      </trkpt>
      <trkpt lat="43.51614" lon="1.55145">
        <ele>218.5</ele>
        <time>2023-08-15T10:10:16Z</time>
      </trkpt>
      <trkpt lat="43.51608" lon="1.55159">
        <ele>219.1</ele>
        <time>2023-08-15T10:10:19Z</time>
      </trkpt>
      <trkpt lat="43.51601" lon="1.55162">
        <ele>219.1</ele>
        <time>2023-08-15T10:10:23Z</time>
      </trkpt>
      <trkpt lat="43.51597" lon="1.55157">
        <ele>219.5</ele>
        <time>2023-08-15T10:10:26Z</time>
      </trkpt>
      <trkpt lat="43.51598" lon="1.55158">
        <ele>219.6</ele>
        <time>2023-08-15T10:10:30Z</time>
      </trkpt>
      <trkpt lat="43.516" lon="1.5516">
        <ele>219.3</ele>
        <time>2023-08-15T10:10:33Z</time>
      </trkpt>
      <trkpt lat="43.51602" lon="1.55162">
        <ele>218.9</ele>
        <time>2023-08-15T10:10:37Z</time>
      </trkpt>
      <trkpt lat="43.51603" lon="1.55162">
        <ele>219.3</ele>
        <time>2023-08-15T10:10:40Z</time>
      </trkpt>
      <trkpt lat="43.51601" lon="1.55166">
        <ele>219.3</ele>
        <time>2023-08-15T10:10:44Z</time>
      </trkpt>
      <trkpt lat="43.51599" lon="1.55181">
        <ele>219.9</ele>
        <time>2023-08-15T10:10:48Z</time>
      </trkpt>
      <trkpt lat="43.51592" lon="1.55203">
        <ele>220</ele>
        <time>2023-08-15T10:10:51Z</time>
      </trkpt>
      <trkpt lat="43.51584" lon="1.55227">
        <ele>222.4</ele>
        <time>2023-08-15T10:10:54Z</time>
      </trkpt>
      <trkpt lat="43.51572" lon="1.5526">
        <ele>222.4</ele>
        <time>2023-08-15T10:10:58Z</time>
      </trkpt>
      <trkpt lat="43.51564" lon="1.55286">
        <ele>222.4</ele>
        <time>2023-08-15T10:11:01Z</time>
      </trkpt>
      <trkpt lat="43.51554" lon="1.55317">
        <ele>222.4</ele>
        <time>2023-08-15T10:11:05Z</time>
      </trkpt>
      <trkpt lat="43.51542" lon="1.5535">
        <ele>222.4</ele>
        <time>2023-08-15T10:11:09Z</time>
      </trkpt>
      <trkpt lat="43.5153" lon="1.55376">
        <ele>222.4</ele>
        <time>2023-08-15T10:11:12Z</time>
      </trkpt>
      <trkpt lat="43.51514" lon="1.55407">
        <ele>222.3</ele>
        <time>2023-08-15T10:11:16Z</time>
      </trkpt>
      <trkpt lat="43.51499" lon="1.55435">
        <ele>222.4</ele>
        <time>2023-08-15T10:11:20Z</time>
      </trkpt>
      <trkpt lat="43.51483" lon="1.55463">
        <ele>224.9</ele>
        <time>2023-08-15T10:11:24Z</time>
      </trkpt>
      <trkpt lat="43.51465" lon="1.55492">
        <ele>222.4</ele>
        <time>2023-08-15T10:11:28Z</time>
      </trkpt>
      <trkpt lat="43.51453" lon="1.55513">
        <ele>224.6</ele>
        <time>2023-08-15T10:11:31Z</time>
      </trkpt>
      <trkpt lat="43.5144" lon="1.55535">
        <ele>224.6</ele>
        <time>2023-08-15T10:11:34Z</time>
      </trkpt>
      <trkpt lat="43.51423" lon="1.55561">
        <ele>224.4</ele>
        <time>2023-08-15T10:11:38Z</time>
      </trkpt>
      <trkpt lat="43.51406" lon="1.55589">
        <ele>225</ele>
        <time>2023-08-15T10:11:42Z</time>
      </trkpt>
      <trkpt lat="43.51393" lon="1.5561">
        <ele>225.2</ele>
        <time>2023-08-15T10:11:45Z</time>
      </trkpt>
      <trkpt lat="43.5138" lon="1.5563">
        <ele>225.6</ele>
        <time>2023-08-15T10:11:48Z</time>
      </trkpt>
      <trkpt lat="43.51366" lon="1.55654">
        <ele>224.8</ele>
        <time>2023-08-15T10:11:52Z</time>
      </trkpt>
      <trkpt lat="43.51359" lon="1.55666">
        <ele>225</ele>
        <time>2023-08-15T10:11:55Z</time>
      </trkpt>
      <trkpt lat="43.51352" lon="1.55679">
        <ele>224.8</ele>
        <time>2023-08-15T10:11:59Z</time>
      </trkpt>
      <trkpt lat="43.51348" lon="1.55684">
        <ele>224.6</ele>
        <time>2023-08-15T10:12:02Z</time>
      </trkpt>
      <trkpt lat="43.51347" lon="1.55687">
        <ele>226.4</ele>
        <time>2023-08-15T10:12:33Z</time>
      </trkpt>
      <trkpt lat="43.51344" lon="1.55691">
        <ele>227.3</ele>
        <time>2023-08-15T10:12:37Z</time>
      </trkpt>
      <trkpt lat="43.5133" lon="1.55692">
        <ele>226.3</ele>
        <time>2023-08-15T10:12:41Z</time>
      </trkpt>
      <trkpt lat="43.51318" lon="1.5568">
        <ele>227.3</ele>
        <time>2023-08-15T10:12:44Z</time>
      </trkpt>
      <trkpt lat="43.51302" lon="1.55664">
        <ele>225.2</ele>
        <time>2023-08-15T10:12:47Z</time>
      </trkpt>
      <trkpt lat="43.51279" lon="1.55646">
        <ele>225.2</ele>
        <time>2023-08-15T10:12:51Z</time>
      </trkpt>
      <trkpt lat="43.51263" lon="1.55634">
        <ele>225.2</ele>
        <time>2023-08-15T10:12:54Z</time>
      </trkpt>
      <trkpt lat="43.51248" lon="1.55622">
        <ele>225.2</ele>
        <time>2023-08-15T10:12:57Z</time>
      </trkpt>
      <trkpt lat="43.51227" lon="1.55601">
        <ele>225.2</ele>
        <time>2023-08-15T10:13:01Z</time>
      </trkpt>
      <trkpt lat="43.51201" lon="1.55583">
        <ele>225.2</ele>
        <time>2023-08-15T10:13:05Z</time>
      </trkpt>
      <trkpt lat="43.51175" lon="1.5557">
        <ele>225.2</ele>
        <time>2023-08-15T10:13:08Z</time>
      </trkpt>
      <trkpt lat="43.51157" lon="1.5556">
        <ele>225.2</ele>
        <time>2023-08-15T10:13:12Z</time>
      </trkpt>
      <trkpt lat="43.51139" lon="1.55549">
        <ele>225.2</ele>
        <time>2023-08-15T10:13:15Z</time>
      </trkpt>
      <trkpt lat="43.51115" lon="1.55535">
        <ele>222.4</ele>
        <time>2023-08-15T10:13:18Z</time>
      </trkpt>
      <trkpt lat="43.51097" lon="1.55525">
        <ele>221.4</ele>
        <time>2023-08-15T10:13:22Z</time>
      </trkpt>
      <trkpt lat="43.51079" lon="1.55515">
        <ele>219.8</ele>
        <time>2023-08-15T10:13:25Z</time>
      </trkpt>
      <trkpt lat="43.51053" lon="1.55503">
        <ele>219</ele>
        <time>2023-08-15T10:13:29Z</time>
      </trkpt>
      <trkpt lat="43.51031" lon="1.5549">
        <ele>217.7</ele>
        <time>2023-08-15T10:13:33Z</time>
      </trkpt>
      <trkpt lat="43.51022" lon="1.55485">
        <ele>217.5</ele>
        <time>2023-08-15T10:13:36Z</time>
      </trkpt>
      <trkpt lat="43.51019" lon="1.55483">
        <ele>217.6</ele>
        <time>2023-08-15T10:13:39Z</time>
      </trkpt>
      <trkpt lat="43.51016" lon="1.55481">
        <ele>218</ele>
        <time>2023-08-15T10:14:21Z</time>
      </trkpt>
      <trkpt lat="43.51006" lon="1.55478">
        <ele>218</ele>
        <time>2023-08-15T10:14:24Z</time>
      </trkpt>
      <trkpt lat="43.50995" lon="1.55491">
        <ele>217.5</ele>
        <time>2023-08-15T10:14:28Z</time>
      </trkpt>
      <trkpt lat="43.50981" lon="1.55527">
        <ele>217.9</ele>
        <time>2023-08-15T10:14:32Z</time>
      </trkpt>
      <trkpt lat="43.50964" lon="1.55563">
        <ele>217.5</ele>
        <time>2023-08-15T10:14:36Z</time>
      </trkpt>
      <trkpt lat="43.50947" lon="1.55588">
        <ele>215.2</ele>
        <time>2023-08-15T10:14:39Z</time>
      </trkpt>
      <trkpt lat="43.50933" lon="1.55605">
        <ele>216.5</ele>
        <time>2023-08-15T10:14:43Z</time>
      </trkpt>
      <trkpt lat="43.50912" lon="1.55625">
        <ele>216</ele>
        <time>2023-08-15T10:14:47Z</time>
      </trkpt>
      <trkpt lat="43.50888" lon="1.55644">
        <ele>216</ele>
        <time>2023-08-15T10:14:51Z</time>
      </trkpt>
      <trkpt lat="43.50864" lon="1.55661">
        <ele>215.6</ele>
        <time>2023-08-15T10:14:55Z</time>
      </trkpt>
      <trkpt lat="43.50846" lon="1.55672">
        <ele>215.1</ele>
        <time>2023-08-15T10:14:58Z</time>
      </trkpt>
      <trkpt lat="43.50821" lon="1.55681">
        <ele>215.7</ele>
        <time>2023-08-15T10:15:02Z</time>
      </trkpt>
      <trkpt lat="43.50795" lon="1.55687">
        <ele>215.1</ele>
        <time>2023-08-15T10:15:05Z</time>
      </trkpt>
      <trkpt lat="43.50776" lon="1.55692">
        <ele>215.3</ele>
        <time>2023-08-15T10:15:09Z</time>
      </trkpt>
      <trkpt lat="43.5075" lon="1.55698">
        <ele>214.8</ele>
        <time>2023-08-15T10:15:13Z</time>
      </trkpt>
      <trkpt lat="43.50724" lon="1.55705">
        <ele>216.2</ele>
        <time>2023-08-15T10:15:16Z</time>
      </trkpt>
      <trkpt lat="43.50698" lon="1.55713">
        <ele>215.9</ele>
        <time>2023-08-15T10:15:21Z</time>
      </trkpt>
      <trkpt lat="43.50679" lon="1.55718">
        <ele>215.3</ele>
        <time>2023-08-15T10:15:24Z</time>
      </trkpt>
      <trkpt lat="43.5066" lon="1.55723">
        <ele>215.2</ele>
        <time>2023-08-15T10:15:27Z</time>
      </trkpt>
      <trkpt lat="43.5064" lon="1.55727">
        <ele>215.2</ele>
        <time>2023-08-15T10:15:30Z</time>
      </trkpt>
      <trkpt lat="43.50614" lon="1.55733">
        <ele>215.7</ele>
        <time>2023-08-15T10:15:34Z</time>
      </trkpt>
      <trkpt lat="43.5059" lon="1.5574">
        <ele>216.2</ele>
        <time>2023-08-15T10:15:38Z</time>
      </trkpt>
      <trkpt lat="43.50575" lon="1.55738">
        <ele>216.7</ele>
        <time>2023-08-15T10:15:41Z</time>
      </trkpt>
      <trkpt lat="43.50553" lon="1.55746">
        <ele>217.1</ele>
        <time>2023-08-15T10:15:44Z</time>
      </trkpt>
      <trkpt lat="43.50536" lon="1.55754">
        <ele>217.4</ele>
        <time>2023-08-15T10:15:48Z</time>
      </trkpt>
      <trkpt lat="43.50515" lon="1.55756">
        <ele>216.9</ele>
        <time>2023-08-15T10:15:51Z</time>
      </trkpt>
      <trkpt lat="43.50489" lon="1.55762">
        <ele>217.1</ele>
        <time>2023-08-15T10:15:55Z</time>
      </trkpt>
      <trkpt lat="43.50471" lon="1.55767">
        <ele>217.7</ele>
        <time>2023-08-15T10:15:58Z</time>
      </trkpt>
      <trkpt lat="43.50446" lon="1.55773">
        <ele>218</ele>
        <time>2023-08-15T10:16:02Z</time>
      </trkpt>
      <trkpt lat="43.50418" lon="1.5578">
        <ele>217.9</ele>
        <time>2023-08-15T10:16:06Z</time>
      </trkpt>
      <trkpt lat="43.50392" lon="1.55786">
        <ele>217.5</ele>
        <time>2023-08-15T10:16:10Z</time>
      </trkpt>
      <trkpt lat="43.50372" lon="1.55792">
        <ele>218.4</ele>
        <time>2023-08-15T10:16:13Z</time>
      </trkpt>
      <trkpt lat="43.50346" lon="1.55798">
        <ele>219</ele>
        <time>2023-08-15T10:16:17Z</time>
      </trkpt>
      <trkpt lat="43.50326" lon="1.55802">
        <ele>219</ele>
        <time>2023-08-15T10:16:20Z</time>
      </trkpt>
      <trkpt lat="43.50301" lon="1.55809">
        <ele>219.4</ele>
        <time>2023-08-15T10:16:24Z</time>
      </trkpt>
      <trkpt lat="43.50281" lon="1.55813">
        <ele>220</ele>
        <time>2023-08-15T10:16:27Z</time>
      </trkpt>
      <trkpt lat="43.50254" lon="1.55819">
        <ele>220.1</ele>
        <time>2023-08-15T10:16:31Z</time>
      </trkpt>
      <trkpt lat="43.50228" lon="1.55824">
        <ele>219.8</ele>
        <time>2023-08-15T10:16:35Z</time>
      </trkpt>
      <trkpt lat="43.50202" lon="1.55829">
        <ele>220.2</ele>
        <time>2023-08-15T10:16:39Z</time>
      </trkpt>
      <trkpt lat="43.50182" lon="1.55834">
        <ele>220.3</ele>
        <time>2023-08-15T10:16:42Z</time>
      </trkpt>
      <trkpt lat="43.50157" lon="1.5584">
        <ele>220.9</ele>
        <time>2023-08-15T10:16:46Z</time>
      </trkpt>
      <trkpt lat="43.50132" lon="1.5585">
        <ele>220</ele>
        <time>2023-08-15T10:16:50Z</time>
      </trkpt>
      <trkpt lat="43.50107" lon="1.55864">
        <ele>219.3</ele>
        <time>2023-08-15T10:16:54Z</time>
      </trkpt>
      <trkpt lat="43.50082" lon="1.5588">
        <ele>219.8</ele>
        <time>2023-08-15T10:16:57Z</time>
      </trkpt>
      <trkpt lat="43.50063" lon="1.55891">
        <ele>220.6</ele>
        <time>2023-08-15T10:17:01Z</time>
      </trkpt>
      <trkpt lat="43.50045" lon="1.55901">
        <ele>220.8</ele>
        <time>2023-08-15T10:17:04Z</time>
      </trkpt>
      <trkpt lat="43.50021" lon="1.55916">
        <ele>220.9</ele>
        <time>2023-08-15T10:17:08Z</time>
      </trkpt>
      <trkpt lat="43.50003" lon="1.55927">
        <ele>220.7</ele>
        <time>2023-08-15T10:17:11Z</time>
      </trkpt>
      <trkpt lat="43.49979" lon="1.55941">
        <ele>220.1</ele>
        <time>2023-08-15T10:17:15Z</time>
      </trkpt>
      <trkpt lat="43.49954" lon="1.55956">
        <ele>220.3</ele>
        <time>2023-08-15T10:17:19Z</time>
      </trkpt>
      <trkpt lat="43.49936" lon="1.55967">
        <ele>220.7</ele>
        <time>2023-08-15T10:17:22Z</time>
      </trkpt>
      <trkpt lat="43.49911" lon="1.55981">
        <ele>220.2</ele>
        <time>2023-08-15T10:17:25Z</time>
      </trkpt>
      <trkpt lat="43.49894" lon="1.55992">
        <ele>220.9</ele>
        <time>2023-08-15T10:17:29Z</time>
      </trkpt>
      <trkpt lat="43.4987" lon="1.56006">
        <ele>220.6</ele>
        <time>2023-08-15T10:17:33Z</time>
      </trkpt>
      <trkpt lat="43.49851" lon="1.56018">
        <ele>220.5</ele>
        <time>2023-08-15T10:17:36Z</time>
      </trkpt>
      <trkpt lat="43.49833" lon="1.56029">
        <ele>219.8</ele>
        <time>2023-08-15T10:17:39Z</time>
      </trkpt>
      <trkpt lat="43.49815" lon="1.5604">
        <ele>219.4</ele>
        <time>2023-08-15T10:17:42Z</time>
      </trkpt>
      <trkpt lat="43.49791" lon="1.56055">
        <ele>218.9</ele>
        <time>2023-08-15T10:17:46Z</time>
      </trkpt>
      <trkpt lat="43.49766" lon="1.56069">
        <ele>219.2</ele>
        <time>2023-08-15T10:17:50Z</time>
      </trkpt>
      <trkpt lat="43.49742" lon="1.56083">
        <ele>219.4</ele>
        <time>2023-08-15T10:17:54Z</time>
      </trkpt>
      <trkpt lat="43.49718" lon="1.56097">
        <ele>219.2</ele>
        <time>2023-08-15T10:17:58Z</time>
      </trkpt>
      <trkpt lat="43.49693" lon="1.56111">
        <ele>220.5</ele>
        <time>2023-08-15T10:18:02Z</time>
      </trkpt>
      <trkpt lat="43.49669" lon="1.56126">
        <ele>220.9</ele>
        <time>2023-08-15T10:18:06Z</time>
      </trkpt>
      <trkpt lat="43.49645" lon="1.56141">
        <ele>219.4</ele>
        <time>2023-08-15T10:18:10Z</time>
      </trkpt>
      <trkpt lat="43.49621" lon="1.56155">
        <ele>219.3</ele>
        <time>2023-08-15T10:18:13Z</time>
      </trkpt>
      <trkpt lat="43.49603" lon="1.56166">
        <ele>220</ele>
        <time>2023-08-15T10:18:17Z</time>
      </trkpt>
      <trkpt lat="43.49584" lon="1.56177">
        <ele>220</ele>
        <time>2023-08-15T10:18:20Z</time>
      </trkpt>
      <trkpt lat="43.4956" lon="1.56191">
        <ele>219.8</ele>
        <time>2023-08-15T10:18:23Z</time>
      </trkpt>
      <trkpt lat="43.49541" lon="1.56202">
        <ele>220</ele>
        <time>2023-08-15T10:18:27Z</time>
      </trkpt>
      <trkpt lat="43.49517" lon="1.56217">
        <ele>220.2</ele>
        <time>2023-08-15T10:18:31Z</time>
      </trkpt>
      <trkpt lat="43.49494" lon="1.56232">
        <ele>220.8</ele>
        <time>2023-08-15T10:18:34Z</time>
      </trkpt>
      <trkpt lat="43.49476" lon="1.56243">
        <ele>220.7</ele>
        <time>2023-08-15T10:18:38Z</time>
      </trkpt>
      <trkpt lat="43.49457" lon="1.56253">
        <ele>220.7</ele>
        <time>2023-08-15T10:18:41Z</time>
      </trkpt>
      <trkpt lat="43.49433" lon="1.56267">
        <ele>220</ele>
        <time>2023-08-15T10:18:45Z</time>
      </trkpt>
      <trkpt lat="43.49414" lon="1.56277">
        <ele>219.4</ele>
        <time>2023-08-15T10:18:48Z</time>
      </trkpt>
      <trkpt lat="43.4939" lon="1.56292">
        <ele>219.4</ele>
        <time>2023-08-15T10:18:52Z</time>
      </trkpt>
      <trkpt lat="43.49366" lon="1.56307">
        <ele>220</ele>
        <time>2023-08-15T10:18:56Z</time>
      </trkpt>
      <trkpt lat="43.49342" lon="1.56323">
        <ele>219.8</ele>
        <time>2023-08-15T10:19:00Z</time>
      </trkpt>
      <trkpt lat="43.49319" lon="1.56342">
        <ele>219.2</ele>
        <time>2023-08-15T10:19:04Z</time>
      </trkpt>
      <trkpt lat="43.49298" lon="1.56364">
        <ele>220.1</ele>
        <time>2023-08-15T10:19:08Z</time>
      </trkpt>
      <trkpt lat="43.49282" lon="1.5638">
        <ele>220.3</ele>
        <time>2023-08-15T10:19:11Z</time>
      </trkpt>
      <trkpt lat="43.4926" lon="1.56401">
        <ele>219.2</ele>
        <time>2023-08-15T10:19:14Z</time>
      </trkpt>
      <trkpt lat="43.49244" lon="1.56417">
        <ele>218.7</ele>
        <time>2023-08-15T10:19:18Z</time>
      </trkpt>
      <trkpt lat="43.49228" lon="1.56433">
        <ele>219.5</ele>
        <time>2023-08-15T10:19:21Z</time>
      </trkpt>
      <trkpt lat="43.49207" lon="1.56455">
        <ele>219.7</ele>
        <time>2023-08-15T10:19:25Z</time>
      </trkpt>
      <trkpt lat="43.49191" lon="1.56471">
        <ele>220.6</ele>
        <time>2023-08-15T10:19:28Z</time>
      </trkpt>
      <trkpt lat="43.49169" lon="1.56492">
        <ele>220</ele>
        <time>2023-08-15T10:19:32Z</time>
      </trkpt>
      <trkpt lat="43.49154" lon="1.5651">
        <ele>219.5</ele>
        <time>2023-08-15T10:19:35Z</time>
      </trkpt>
      <trkpt lat="43.49136" lon="1.56537">
        <ele>219.6</ele>
        <time>2023-08-15T10:19:39Z</time>
      </trkpt>
      <trkpt lat="43.49122" lon="1.56557">
        <ele>219.6</ele>
        <time>2023-08-15T10:19:42Z</time>
      </trkpt>
      <trkpt lat="43.4911" lon="1.56578">
        <ele>219.1</ele>
        <time>2023-08-15T10:19:45Z</time>
      </trkpt>
      <trkpt lat="43.49093" lon="1.56607">
        <ele>218.4</ele>
        <time>2023-08-15T10:19:49Z</time>
      </trkpt>
      <trkpt lat="43.4908" lon="1.56629">
        <ele>218.2</ele>
        <time>2023-08-15T10:19:52Z</time>
      </trkpt>
      <trkpt lat="43.49067" lon="1.56651">
        <ele>217.6</ele>
        <time>2023-08-15T10:19:55Z</time>
      </trkpt>
      <trkpt lat="43.49051" lon="1.5668">
        <ele>216.3</ele>
        <time>2023-08-15T10:19:59Z</time>
      </trkpt>
      <trkpt lat="43.49037" lon="1.56711">
        <ele>215.7</ele>
        <time>2023-08-15T10:20:03Z</time>
      </trkpt>
      <trkpt lat="43.49027" lon="1.56734">
        <ele>215.2</ele>
        <time>2023-08-15T10:20:06Z</time>
      </trkpt>
      <trkpt lat="43.49014" lon="1.56765">
        <ele>214.8</ele>
        <time>2023-08-15T10:20:10Z</time>
      </trkpt>
      <trkpt lat="43.49004" lon="1.56787">
        <ele>214.6</ele>
        <time>2023-08-15T10:20:13Z</time>
      </trkpt>
      <trkpt lat="43.48994" lon="1.5681">
        <ele>213.9</ele>
        <time>2023-08-15T10:20:16Z</time>
      </trkpt>
      <trkpt lat="43.48983" lon="1.56833">
        <ele>213.2</ele>
        <time>2023-08-15T10:20:19Z</time>
      </trkpt>
      <trkpt lat="43.48963" lon="1.56856">
        <ele>213.4</ele>
        <time>2023-08-15T10:20:23Z</time>
      </trkpt>
      <trkpt lat="43.48942" lon="1.56868">
        <ele>213.1</ele>
        <time>2023-08-15T10:20:27Z</time>
      </trkpt>
      <trkpt lat="43.48929" lon="1.56877">
        <ele>213.3</ele>
        <time>2023-08-15T10:20:30Z</time>
      </trkpt>
      <trkpt lat="43.48906" lon="1.56889">
        <ele>214.5</ele>
        <time>2023-08-15T10:20:34Z</time>
      </trkpt>
      <trkpt lat="43.48881" lon="1.56901">
        <ele>215.3</ele>
        <time>2023-08-15T10:20:38Z</time>
      </trkpt>
      <trkpt lat="43.4886" lon="1.56911">
        <ele>215.7</ele>
        <time>2023-08-15T10:20:41Z</time>
      </trkpt>
      <trkpt lat="43.48843" lon="1.5692">
        <ele>216.2</ele>
        <time>2023-08-15T10:20:45Z</time>
      </trkpt>
      <trkpt lat="43.48826" lon="1.56926">
        <ele>216.6</ele>
        <time>2023-08-15T10:20:48Z</time>
      </trkpt>
      <trkpt lat="43.48805" lon="1.5693">
        <ele>217.1</ele>
        <time>2023-08-15T10:20:51Z</time>
      </trkpt>
      <trkpt lat="43.48781" lon="1.56935">
        <ele>218.2</ele>
        <time>2023-08-15T10:20:55Z</time>
      </trkpt>
      <trkpt lat="43.48755" lon="1.56942">
        <ele>218.3</ele>
        <time>2023-08-15T10:20:59Z</time>
      </trkpt>
      <trkpt lat="43.48726" lon="1.56949">
        <ele>218.7</ele>
        <time>2023-08-15T10:21:03Z</time>
      </trkpt>
      <trkpt lat="43.48706" lon="1.56954">
        <ele>219.6</ele>
        <time>2023-08-15T10:21:06Z</time>
      </trkpt>
      <trkpt lat="43.48688" lon="1.56959">
        <ele>220.4</ele>
        <time>2023-08-15T10:21:09Z</time>
      </trkpt>
      <trkpt lat="43.48663" lon="1.56966">
        <ele>220.1</ele>
        <time>2023-08-15T10:21:13Z</time>
      </trkpt>
      <trkpt lat="43.48637" lon="1.56974">
        <ele>221.6</ele>
        <time>2023-08-15T10:21:17Z</time>
      </trkpt>
      <trkpt lat="43.48617" lon="1.56979">
        <ele>221.6</ele>
        <time>2023-08-15T10:21:20Z</time>
      </trkpt>
      <trkpt lat="43.48591" lon="1.56985">
        <ele>222.9</ele>
        <time>2023-08-15T10:21:24Z</time>
      </trkpt>
      <trkpt lat="43.48572" lon="1.5699">
        <ele>222.7</ele>
        <time>2023-08-15T10:21:27Z</time>
      </trkpt>
      <trkpt lat="43.48546" lon="1.56997">
        <ele>223.8</ele>
        <time>2023-08-15T10:21:31Z</time>
      </trkpt>
      <trkpt lat="43.48526" lon="1.57004">
        <ele>224.4</ele>
        <time>2023-08-15T10:21:34Z</time>
      </trkpt>
      <trkpt lat="43.485" lon="1.57016">
        <ele>223.9</ele>
        <time>2023-08-15T10:21:37Z</time>
      </trkpt>
      <trkpt lat="43.48481" lon="1.57028">
        <ele>223.7</ele>
        <time>2023-08-15T10:21:41Z</time>
      </trkpt>
      <trkpt lat="43.48457" lon="1.57042">
        <ele>223.1</ele>
        <time>2023-08-15T10:21:45Z</time>
      </trkpt>
      <trkpt lat="43.48439" lon="1.57051">
        <ele>222.6</ele>
        <time>2023-08-15T10:21:48Z</time>
      </trkpt>
      <trkpt lat="43.48414" lon="1.57065">
        <ele>222.2</ele>
        <time>2023-08-15T10:21:52Z</time>
      </trkpt>
      <trkpt lat="43.48396" lon="1.57075">
        <ele>222.6</ele>
        <time>2023-08-15T10:21:55Z</time>
      </trkpt>
      <trkpt lat="43.48378" lon="1.57085">
        <ele>222.2</ele>
        <time>2023-08-15T10:21:58Z</time>
      </trkpt>
      <trkpt lat="43.48354" lon="1.57099">
        <ele>221</ele>
        <time>2023-08-15T10:22:02Z</time>
      </trkpt>
      <trkpt lat="43.48335" lon="1.57109">
        <ele>221.5</ele>
        <time>2023-08-15T10:22:05Z</time>
      </trkpt>
      <trkpt lat="43.4831" lon="1.57123">
        <ele>221.8</ele>
        <time>2023-08-15T10:22:08Z</time>
      </trkpt>
      <trkpt lat="43.48291" lon="1.57132">
        <ele>221.3</ele>
        <time>2023-08-15T10:22:12Z</time>
      </trkpt>
      <trkpt lat="43.48267" lon="1.57146">
        <ele>221</ele>
        <time>2023-08-15T10:22:16Z</time>
      </trkpt>
      <trkpt lat="43.48242" lon="1.57159">
        <ele>220.5</ele>
        <time>2023-08-15T10:22:20Z</time>
      </trkpt>
      <trkpt lat="43.48223" lon="1.5717">
        <ele>220.5</ele>
        <time>2023-08-15T10:22:23Z</time>
      </trkpt>
      <trkpt lat="43.48199" lon="1.57185">
        <ele>220.7</ele>
        <time>2023-08-15T10:22:27Z</time>
      </trkpt>
      <trkpt lat="43.48177" lon="1.57202">
        <ele>220.1</ele>
        <time>2023-08-15T10:22:31Z</time>
      </trkpt>
      <trkpt lat="43.48161" lon="1.57219">
        <ele>220</ele>
        <time>2023-08-15T10:22:34Z</time>
      </trkpt>
      <trkpt lat="43.48141" lon="1.57245">
        <ele>220.8</ele>
        <time>2023-08-15T10:22:38Z</time>
      </trkpt>
      <trkpt lat="43.48126" lon="1.57264">
        <ele>220.7</ele>
        <time>2023-08-15T10:22:41Z</time>
      </trkpt>
      <trkpt lat="43.48112" lon="1.57283">
        <ele>220.6</ele>
        <time>2023-08-15T10:22:44Z</time>
      </trkpt>
      <trkpt lat="43.48094" lon="1.57309">
        <ele>220.1</ele>
        <time>2023-08-15T10:22:48Z</time>
      </trkpt>
      <trkpt lat="43.4808" lon="1.57328">
        <ele>219</ele>
        <time>2023-08-15T10:22:51Z</time>
      </trkpt>
      <trkpt lat="43.4806" lon="1.57354">
        <ele>220.2</ele>
        <time>2023-08-15T10:22:55Z</time>
      </trkpt>
      <trkpt lat="43.48041" lon="1.57378">
        <ele>219.5</ele>
        <time>2023-08-15T10:22:59Z</time>
      </trkpt>
      <trkpt lat="43.48026" lon="1.57397">
        <ele>219.5</ele>
        <time>2023-08-15T10:23:02Z</time>
      </trkpt>
      <trkpt lat="43.48008" lon="1.57424">
        <ele>219.3</ele>
        <time>2023-08-15T10:23:06Z</time>
      </trkpt>
      <trkpt lat="43.47989" lon="1.5745">
        <ele>219.2</ele>
        <time>2023-08-15T10:23:10Z</time>
      </trkpt>
      <trkpt lat="43.47972" lon="1.57477">
        <ele>218.7</ele>
        <time>2023-08-15T10:23:14Z</time>
      </trkpt>
      <trkpt lat="43.47954" lon="1.57504">
        <ele>218.5</ele>
        <time>2023-08-15T10:23:18Z</time>
      </trkpt>
      <trkpt lat="43.47935" lon="1.57528">
        <ele>217.9</ele>
        <time>2023-08-15T10:23:22Z</time>
      </trkpt>
      <trkpt lat="43.47915" lon="1.57553">
        <ele>217.2</ele>
        <time>2023-08-15T10:23:26Z</time>
      </trkpt>
      <trkpt lat="43.47895" lon="1.57578">
        <ele>216.9</ele>
        <time>2023-08-15T10:23:30Z</time>
      </trkpt>
      <trkpt lat="43.47881" lon="1.57597">
        <ele>216.7</ele>
        <time>2023-08-15T10:23:33Z</time>
      </trkpt>
      <trkpt lat="43.47862" lon="1.57623">
        <ele>216.7</ele>
        <time>2023-08-15T10:23:36Z</time>
      </trkpt>
      <trkpt lat="43.47848" lon="1.57642">
        <ele>215.9</ele>
        <time>2023-08-15T10:23:40Z</time>
      </trkpt>
      <trkpt lat="43.47834" lon="1.57662">
        <ele>215.1</ele>
        <time>2023-08-15T10:23:43Z</time>
      </trkpt>
      <trkpt lat="43.47815" lon="1.57688">
        <ele>214.1</ele>
        <time>2023-08-15T10:23:47Z</time>
      </trkpt>
      <trkpt lat="43.47801" lon="1.57707">
        <ele>213.5</ele>
        <time>2023-08-15T10:23:50Z</time>
      </trkpt>
      <trkpt lat="43.47787" lon="1.57725">
        <ele>212.9</ele>
        <time>2023-08-15T10:23:53Z</time>
      </trkpt>
      <trkpt lat="43.47768" lon="1.5775">
        <ele>212.5</ele>
        <time>2023-08-15T10:23:57Z</time>
      </trkpt>
      <trkpt lat="43.47748" lon="1.57773">
        <ele>211.8</ele>
        <time>2023-08-15T10:24:01Z</time>
      </trkpt>
      <trkpt lat="43.47734" lon="1.57791">
        <ele>211.2</ele>
        <time>2023-08-15T10:24:04Z</time>
      </trkpt>
      <trkpt lat="43.47719" lon="1.57809">
        <ele>211.9</ele>
        <time>2023-08-15T10:24:07Z</time>
      </trkpt>
      <trkpt lat="43.47699" lon="1.57834">
        <ele>212.3</ele>
        <time>2023-08-15T10:24:10Z</time>
      </trkpt>
      <trkpt lat="43.47685" lon="1.57851">
        <ele>212.5</ele>
        <time>2023-08-15T10:24:14Z</time>
      </trkpt>
      <trkpt lat="43.47669" lon="1.57869">
        <ele>213.1</ele>
        <time>2023-08-15T10:24:17Z</time>
      </trkpt>
      <trkpt lat="43.4765" lon="1.57893">
        <ele>213.7</ele>
        <time>2023-08-15T10:24:21Z</time>
      </trkpt>
      <trkpt lat="43.47634" lon="1.57911">
        <ele>213.7</ele>
        <time>2023-08-15T10:24:24Z</time>
      </trkpt>
      <trkpt lat="43.4762" lon="1.5793">
        <ele>214.2</ele>
        <time>2023-08-15T10:24:27Z</time>
      </trkpt>
      <trkpt lat="43.47605" lon="1.57948">
        <ele>214.6</ele>
        <time>2023-08-15T10:24:30Z</time>
      </trkpt>
      <trkpt lat="43.47586" lon="1.57973">
        <ele>214.8</ele>
        <time>2023-08-15T10:24:33Z</time>
      </trkpt>
      <trkpt lat="43.47571" lon="1.57991">
        <ele>215.8</ele>
        <time>2023-08-15T10:24:37Z</time>
      </trkpt>
      <trkpt lat="43.47556" lon="1.58009">
        <ele>216.5</ele>
        <time>2023-08-15T10:24:40Z</time>
      </trkpt>
      <trkpt lat="43.47535" lon="1.58033">
        <ele>217.8</ele>
        <time>2023-08-15T10:24:44Z</time>
      </trkpt>
      <trkpt lat="43.4752" lon="1.58052">
        <ele>218.2</ele>
        <time>2023-08-15T10:24:47Z</time>
      </trkpt>
      <trkpt lat="43.475" lon="1.58075">
        <ele>218.2</ele>
        <time>2023-08-15T10:24:51Z</time>
      </trkpt>
      <trkpt lat="43.47485" lon="1.58093">
        <ele>219.3</ele>
        <time>2023-08-15T10:24:54Z</time>
      </trkpt>
      <trkpt lat="43.47466" lon="1.58116">
        <ele>220.5</ele>
        <time>2023-08-15T10:24:58Z</time>
      </trkpt>
      <trkpt lat="43.47451" lon="1.58134">
        <ele>220.8</ele>
        <time>2023-08-15T10:25:01Z</time>
      </trkpt>
      <trkpt lat="43.47431" lon="1.58158">
        <ele>221.5</ele>
        <time>2023-08-15T10:25:05Z</time>
      </trkpt>
      <trkpt lat="43.47413" lon="1.58183">
        <ele>222</ele>
        <time>2023-08-15T10:25:09Z</time>
      </trkpt>
      <trkpt lat="43.47395" lon="1.58213">
        <ele>221.9</ele>
        <time>2023-08-15T10:25:13Z</time>
      </trkpt>
      <trkpt lat="43.47378" lon="1.58241">
        <ele>222.1</ele>
        <time>2023-08-15T10:25:17Z</time>
      </trkpt>
      <trkpt lat="43.47366" lon="1.58264">
        <ele>222.1</ele>
        <time>2023-08-15T10:25:20Z</time>
      </trkpt>
      <trkpt lat="43.47349" lon="1.58291">
        <ele>221.5</ele>
        <time>2023-08-15T10:25:24Z</time>
      </trkpt>
      <trkpt lat="43.47332" lon="1.58319">
        <ele>220.4</ele>
        <time>2023-08-15T10:25:28Z</time>
      </trkpt>
      <trkpt lat="43.47319" lon="1.5834">
        <ele>220.4</ele>
        <time>2023-08-15T10:25:31Z</time>
      </trkpt>
      <trkpt lat="43.47301" lon="1.58366">
        <ele>219.6</ele>
        <time>2023-08-15T10:25:35Z</time>
      </trkpt>
      <trkpt lat="43.47286" lon="1.58384">
        <ele>218.9</ele>
        <time>2023-08-15T10:25:38Z</time>
      </trkpt>
      <trkpt lat="43.47271" lon="1.58402">
        <ele>218.9</ele>
        <time>2023-08-15T10:25:41Z</time>
      </trkpt>
      <trkpt lat="43.47251" lon="1.58424">
        <ele>218</ele>
        <time>2023-08-15T10:25:45Z</time>
      </trkpt>
      <trkpt lat="43.47229" lon="1.58447">
        <ele>218</ele>
        <time>2023-08-15T10:25:49Z</time>
      </trkpt>
      <trkpt lat="43.47213" lon="1.58464">
        <ele>217.6</ele>
        <time>2023-08-15T10:25:52Z</time>
      </trkpt>
      <trkpt lat="43.47192" lon="1.58486">
        <ele>217.1</ele>
        <time>2023-08-15T10:25:56Z</time>
      </trkpt>
      <trkpt lat="43.47176" lon="1.58502">
        <ele>216.9</ele>
        <time>2023-08-15T10:25:59Z</time>
      </trkpt>
      <trkpt lat="43.47159" lon="1.58518">
        <ele>216.3</ele>
        <time>2023-08-15T10:26:02Z</time>
      </trkpt>
      <trkpt lat="43.47138" lon="1.58537">
        <ele>215.9</ele>
        <time>2023-08-15T10:26:06Z</time>
      </trkpt>
      <trkpt lat="43.47122" lon="1.58552">
        <ele>215.8</ele>
        <time>2023-08-15T10:26:09Z</time>
      </trkpt>
      <trkpt lat="43.47107" lon="1.58568">
        <ele>214.3</ele>
        <time>2023-08-15T10:26:12Z</time>
      </trkpt>
      <trkpt lat="43.47086" lon="1.58593">
        <ele>214.3</ele>
        <time>2023-08-15T10:26:16Z</time>
      </trkpt>
      <trkpt lat="43.4707" lon="1.58609">
        <ele>214.1</ele>
        <time>2023-08-15T10:26:19Z</time>
      </trkpt>
      <trkpt lat="43.47048" lon="1.58623">
        <ele>213</ele>
        <time>2023-08-15T10:26:23Z</time>
      </trkpt>
      <trkpt lat="43.47043" lon="1.58627">
        <ele>213</ele>
        <time>2023-08-15T10:26:26Z</time>
      </trkpt>
      <trkpt lat="43.47046" lon="1.58636">
        <ele>212.9</ele>
        <time>2023-08-15T10:26:29Z</time>
      </trkpt>
      <trkpt lat="43.47051" lon="1.58638">
        <ele>212.8</ele>
        <time>2023-08-15T10:26:33Z</time>
      </trkpt>
      <trkpt lat="43.4705" lon="1.58636">
        <ele>212.7</ele>
        <time>2023-08-15T10:32:04Z</time>
      </trkpt>
      <trkpt lat="43.47049" lon="1.58635">
        <ele>212.8</ele>
        <time>2023-08-15T10:32:10Z</time>
      </trkpt>
      <trkpt lat="43.47049" lon="1.58639">
        <ele>212.8</ele>
        <time>2023-08-15T10:32:13Z</time>
      </trkpt>
      <trkpt lat="43.47046" lon="1.58641">
        <ele>212.4</ele>
        <time>2023-08-15T10:32:16Z</time>
      </trkpt>
      <trkpt lat="43.47037" lon="1.5865">
        <ele>212</ele>
        <time>2023-08-15T10:32:20Z</time>
      </trkpt>
      <trkpt lat="43.47029" lon="1.58656">
        <ele>212.8</ele>
        <time>2023-08-15T10:32:23Z</time>
      </trkpt>
      <trkpt lat="43.47021" lon="1.58667">
        <ele>212.8</ele>
        <time>2023-08-15T10:32:27Z</time>
      </trkpt>
      <trkpt lat="43.47011" lon="1.58677">
        <ele>212.8</ele>
        <time>2023-08-15T10:32:30Z</time>
      </trkpt>
      <trkpt lat="43.47" lon="1.58688">
        <ele>211.5</ele>
        <time>2023-08-15T10:32:33Z</time>
      </trkpt>
      <trkpt lat="43.46983" lon="1.58708">
        <ele>211.4</ele>
        <time>2023-08-15T10:32:37Z</time>
      </trkpt>
      <trkpt lat="43.46975" lon="1.58719">
        <ele>211.9</ele>
        <time>2023-08-15T10:32:40Z</time>
      </trkpt>
      <trkpt lat="43.46964" lon="1.58734">
        <ele>212</ele>
        <time>2023-08-15T10:32:44Z</time>
      </trkpt>
      <trkpt lat="43.46957" lon="1.58744">
        <ele>212.3</ele>
        <time>2023-08-15T10:32:47Z</time>
      </trkpt>
      <trkpt lat="43.46952" lon="1.58754">
        <ele>213.3</ele>
        <time>2023-08-15T10:32:50Z</time>
      </trkpt>
      <trkpt lat="43.46953" lon="1.58761">
        <ele>213.1</ele>
        <time>2023-08-15T10:32:53Z</time>
      </trkpt>
      <trkpt lat="43.46955" lon="1.58763">
        <ele>212.6</ele>
        <time>2023-08-15T10:32:57Z</time>
      </trkpt>
      <trkpt lat="43.46955" lon="1.58759">
        <ele>212.8</ele>
        <time>2023-08-15T10:33:00Z</time>
      </trkpt>
      <trkpt lat="43.46953" lon="1.58755">
        <ele>211.9</ele>
        <time>2023-08-15T10:33:05Z</time>
      </trkpt>
      <trkpt lat="43.46956" lon="1.58752">
        <ele>211.6</ele>
        <time>2023-08-15T10:33:08Z</time>
      </trkpt>
      <trkpt lat="43.46962" lon="1.58739">
        <ele>211.6</ele>
        <time>2023-08-15T10:33:12Z</time>
      </trkpt>
      <trkpt lat="43.46969" lon="1.58727">
        <ele>211.5</ele>
        <time>2023-08-15T10:33:15Z</time>
      </trkpt>
      <trkpt lat="43.46981" lon="1.58713">
        <ele>212.1</ele>
        <time>2023-08-15T10:33:19Z</time>
      </trkpt>
      <trkpt lat="43.4699" lon="1.58702">
        <ele>211.8</ele>
        <time>2023-08-15T10:33:22Z</time>
      </trkpt>
      <trkpt lat="43.47003" lon="1.58687">
        <ele>212.1</ele>
        <time>2023-08-15T10:33:26Z</time>
      </trkpt>
      <trkpt lat="43.47015" lon="1.58672">
        <ele>211.2</ele>
        <time>2023-08-15T10:33:30Z</time>
      </trkpt>
      <trkpt lat="43.47026" lon="1.58661">
        <ele>211.1</ele>
        <time>2023-08-15T10:33:33Z</time>
      </trkpt>
      <trkpt lat="43.47042" lon="1.58644">
        <ele>211.3</ele>
        <time>2023-08-15T10:33:37Z</time>
      </trkpt>
      <trkpt lat="43.47051" lon="1.58633">
        <ele>211.5</ele>
        <time>2023-08-15T10:33:41Z</time>
      </trkpt>
      <trkpt lat="43.47051" lon="1.58625">
        <ele>212</ele>
        <time>2023-08-15T10:33:45Z</time>
      </trkpt>
      <trkpt lat="43.47043" lon="1.5862">
        <ele>211.4</ele>
        <time>2023-08-15T10:33:48Z</time>
      </trkpt>
      <trkpt lat="43.47026" lon="1.58625">
        <ele>212.2</ele>
        <time>2023-08-15T10:33:52Z</time>
      </trkpt>
      <trkpt lat="43.47012" lon="1.5863">
        <ele>211.3</ele>
        <time>2023-08-15T10:33:55Z</time>
      </trkpt>
      <trkpt lat="43.4699" lon="1.58642">
        <ele>211.4</ele>
        <time>2023-08-15T10:33:59Z</time>
      </trkpt>
      <trkpt lat="43.46973" lon="1.58654">
        <ele>210.9</ele>
        <time>2023-08-15T10:34:02Z</time>
      </trkpt>
      <trkpt lat="43.46948" lon="1.58672">
        <ele>211.1</ele>
        <time>2023-08-15T10:34:06Z</time>
      </trkpt>
      <trkpt lat="43.46922" lon="1.58691">
        <ele>210.8</ele>
        <time>2023-08-15T10:34:10Z</time>
      </trkpt>
      <trkpt lat="43.46905" lon="1.58704">
        <ele>211.6</ele>
        <time>2023-08-15T10:34:13Z</time>
      </trkpt>
      <trkpt lat="43.46883" lon="1.5872">
        <ele>211</ele>
        <time>2023-08-15T10:34:17Z</time>
      </trkpt>
      <trkpt lat="43.46866" lon="1.58732">
        <ele>211.3</ele>
        <time>2023-08-15T10:34:20Z</time>
      </trkpt>
      <trkpt lat="43.46842" lon="1.58751">
        <ele>210.6</ele>
        <time>2023-08-15T10:34:24Z</time>
      </trkpt>
      <trkpt lat="43.46819" lon="1.58767">
        <ele>209.7</ele>
        <time>2023-08-15T10:34:28Z</time>
      </trkpt>
      <trkpt lat="43.46796" lon="1.58784">
        <ele>210.1</ele>
        <time>2023-08-15T10:34:32Z</time>
      </trkpt>
      <trkpt lat="43.46773" lon="1.58804">
        <ele>210.1</ele>
        <time>2023-08-15T10:34:36Z</time>
      </trkpt>
      <trkpt lat="43.46754" lon="1.58831">
        <ele>210.6</ele>
        <time>2023-08-15T10:34:40Z</time>
      </trkpt>
      <trkpt lat="43.46741" lon="1.58851">
        <ele>210.7</ele>
        <time>2023-08-15T10:34:43Z</time>
      </trkpt>
      <trkpt lat="43.46722" lon="1.58876">
        <ele>209.4</ele>
        <time>2023-08-15T10:34:47Z</time>
      </trkpt>
      <trkpt lat="43.46709" lon="1.58896">
        <ele>209.9</ele>
        <time>2023-08-15T10:34:50Z</time>
      </trkpt>
      <trkpt lat="43.4669" lon="1.58921">
        <ele>209.4</ele>
        <time>2023-08-15T10:34:54Z</time>
      </trkpt>
      <trkpt lat="43.4667" lon="1.58948">
        <ele>208.5</ele>
        <time>2023-08-15T10:34:58Z</time>
      </trkpt>
      <trkpt lat="43.46652" lon="1.58973">
        <ele>207.5</ele>
        <time>2023-08-15T10:35:02Z</time>
      </trkpt>
      <trkpt lat="43.46638" lon="1.58993">
        <ele>208.7</ele>
        <time>2023-08-15T10:35:05Z</time>
      </trkpt>
      <trkpt lat="43.46624" lon="1.59013">
        <ele>209.1</ele>
        <time>2023-08-15T10:35:08Z</time>
      </trkpt>
      <trkpt lat="43.4661" lon="1.59032">
        <ele>208.6</ele>
        <time>2023-08-15T10:35:11Z</time>
      </trkpt>
      <trkpt lat="43.46591" lon="1.59058">
        <ele>208.6</ele>
        <time>2023-08-15T10:35:15Z</time>
      </trkpt>
      <trkpt lat="43.46572" lon="1.59083">
        <ele>208.4</ele>
        <time>2023-08-15T10:35:19Z</time>
      </trkpt>
      <trkpt lat="43.46554" lon="1.59109">
        <ele>208.7</ele>
        <time>2023-08-15T10:35:23Z</time>
      </trkpt>
      <trkpt lat="43.46536" lon="1.59136">
        <ele>209.3</ele>
        <time>2023-08-15T10:35:27Z</time>
      </trkpt>
      <trkpt lat="43.46518" lon="1.59163">
        <ele>209.5</ele>
        <time>2023-08-15T10:35:31Z</time>
      </trkpt>
      <trkpt lat="43.465" lon="1.5919">
        <ele>208.8</ele>
        <time>2023-08-15T10:35:35Z</time>
      </trkpt>
      <trkpt lat="43.46487" lon="1.5921">
        <ele>208.6</ele>
        <time>2023-08-15T10:35:38Z</time>
      </trkpt>
      <trkpt lat="43.46474" lon="1.5923">
        <ele>208.3</ele>
        <time>2023-08-15T10:35:41Z</time>
      </trkpt>
      <trkpt lat="43.46456" lon="1.59256">
        <ele>208.4</ele>
        <time>2023-08-15T10:35:45Z</time>
      </trkpt>
      <trkpt lat="43.46442" lon="1.59276">
        <ele>208.8</ele>
        <time>2023-08-15T10:35:48Z</time>
      </trkpt>
      <trkpt lat="43.46428" lon="1.59295">
        <ele>209</ele>
        <time>2023-08-15T10:35:51Z</time>
      </trkpt>
      <trkpt lat="43.4641" lon="1.59321">
        <ele>208.8</ele>
        <time>2023-08-15T10:35:55Z</time>
      </trkpt>
      <trkpt lat="43.46397" lon="1.59341">
        <ele>209.1</ele>
        <time>2023-08-15T10:35:58Z</time>
      </trkpt>
      <trkpt lat="43.46383" lon="1.59361">
        <ele>209.1</ele>
        <time>2023-08-15T10:36:01Z</time>
      </trkpt>
      <trkpt lat="43.46364" lon="1.59386">
        <ele>209.4</ele>
        <time>2023-08-15T10:36:05Z</time>
      </trkpt>
      <trkpt lat="43.46339" lon="1.59399">
        <ele>207.6</ele>
        <time>2023-08-15T10:36:09Z</time>
      </trkpt>
      <trkpt lat="43.46318" lon="1.59399">
        <ele>207.3</ele>
        <time>2023-08-15T10:36:12Z</time>
      </trkpt>
      <trkpt lat="43.46298" lon="1.59387">
        <ele>206.7</ele>
        <time>2023-08-15T10:36:15Z</time>
      </trkpt>
      <trkpt lat="43.46277" lon="1.59368">
        <ele>207.8</ele>
        <time>2023-08-15T10:36:19Z</time>
      </trkpt>
      <trkpt lat="43.46254" lon="1.59351">
        <ele>207.5</ele>
        <time>2023-08-15T10:36:23Z</time>
      </trkpt>
      <trkpt lat="43.46231" lon="1.59333">
        <ele>207.6</ele>
        <time>2023-08-15T10:36:27Z</time>
      </trkpt>
      <trkpt lat="43.46213" lon="1.5932">
        <ele>208.5</ele>
        <time>2023-08-15T10:36:30Z</time>
      </trkpt>
      <trkpt lat="43.46195" lon="1.59308">
        <ele>208.1</ele>
        <time>2023-08-15T10:36:33Z</time>
      </trkpt>
      <trkpt lat="43.46172" lon="1.59292">
        <ele>207.6</ele>
        <time>2023-08-15T10:36:37Z</time>
      </trkpt>
      <trkpt lat="43.46154" lon="1.5928">
        <ele>207.5</ele>
        <time>2023-08-15T10:36:40Z</time>
      </trkpt>
      <trkpt lat="43.4613" lon="1.59263">
        <ele>208.3</ele>
        <time>2023-08-15T10:36:44Z</time>
      </trkpt>
      <trkpt lat="43.46107" lon="1.59246">
        <ele>208.3</ele>
        <time>2023-08-15T10:36:48Z</time>
      </trkpt>
      <trkpt lat="43.46089" lon="1.59233">
        <ele>208.3</ele>
        <time>2023-08-15T10:36:51Z</time>
      </trkpt>
      <trkpt lat="43.46066" lon="1.59216">
        <ele>208.8</ele>
        <time>2023-08-15T10:36:55Z</time>
      </trkpt>
      <trkpt lat="43.4605" lon="1.592">
        <ele>208.6</ele>
        <time>2023-08-15T10:36:58Z</time>
      </trkpt>
      <trkpt lat="43.46036" lon="1.59177">
        <ele>209.5</ele>
        <time>2023-08-15T10:37:02Z</time>
      </trkpt>
      <trkpt lat="43.46028" lon="1.59163">
        <ele>209</ele>
        <time>2023-08-15T10:37:05Z</time>
      </trkpt>
      <trkpt lat="43.46017" lon="1.59161">
        <ele>208.9</ele>
        <time>2023-08-15T10:37:08Z</time>
      </trkpt>
      <trkpt lat="43.45999" lon="1.59183">
        <ele>208.5</ele>
        <time>2023-08-15T10:37:12Z</time>
      </trkpt>
      <trkpt lat="43.45989" lon="1.59214">
        <ele>208.4</ele>
        <time>2023-08-15T10:37:16Z</time>
      </trkpt>
      <trkpt lat="43.45972" lon="1.59232">
        <ele>208</ele>
        <time>2023-08-15T10:37:19Z</time>
      </trkpt>
      <trkpt lat="43.45948" lon="1.59252">
        <ele>208.1</ele>
        <time>2023-08-15T10:37:23Z</time>
      </trkpt>
      <trkpt lat="43.45925" lon="1.59271">
        <ele>207.5</ele>
        <time>2023-08-15T10:37:27Z</time>
      </trkpt>
      <trkpt lat="43.45905" lon="1.5929">
        <ele>207.8</ele>
        <time>2023-08-15T10:37:31Z</time>
      </trkpt>
      <trkpt lat="43.45891" lon="1.59303">
        <ele>207.6</ele>
        <time>2023-08-15T10:37:34Z</time>
      </trkpt>
      <trkpt lat="43.45869" lon="1.59324">
        <ele>208</ele>
        <time>2023-08-15T10:37:38Z</time>
      </trkpt>
      <trkpt lat="43.45848" lon="1.59341">
        <ele>207.7</ele>
        <time>2023-08-15T10:37:41Z</time>
      </trkpt>
      <trkpt lat="43.45825" lon="1.59361">
        <ele>207.6</ele>
        <time>2023-08-15T10:37:45Z</time>
      </trkpt>
      <trkpt lat="43.45805" lon="1.59379">
        <ele>207.7</ele>
        <time>2023-08-15T10:37:49Z</time>
      </trkpt>
      <trkpt lat="43.45788" lon="1.59394">
        <ele>208.2</ele>
        <time>2023-08-15T10:37:52Z</time>
      </trkpt>
      <trkpt lat="43.45765" lon="1.59414">
        <ele>208.4</ele>
        <time>2023-08-15T10:37:56Z</time>
      </trkpt>
      <trkpt lat="43.45744" lon="1.59434">
        <ele>209.2</ele>
        <time>2023-08-15T10:38:00Z</time>
      </trkpt>
      <trkpt lat="43.45723" lon="1.59455">
        <ele>209.4</ele>
        <time>2023-08-15T10:38:04Z</time>
      </trkpt>
      <trkpt lat="43.45701" lon="1.59476">
        <ele>211</ele>
        <time>2023-08-15T10:38:08Z</time>
      </trkpt>
      <trkpt lat="43.45678" lon="1.59496">
        <ele>211.5</ele>
        <time>2023-08-15T10:38:12Z</time>
      </trkpt>
      <trkpt lat="43.45657" lon="1.59516">
        <ele>212</ele>
        <time>2023-08-15T10:38:16Z</time>
      </trkpt>
      <trkpt lat="43.45635" lon="1.59536">
        <ele>212.9</ele>
        <time>2023-08-15T10:38:20Z</time>
      </trkpt>
      <trkpt lat="43.45613" lon="1.59556">
        <ele>213.2</ele>
        <time>2023-08-15T10:38:24Z</time>
      </trkpt>
      <trkpt lat="43.4559" lon="1.59574">
        <ele>214.1</ele>
        <time>2023-08-15T10:38:28Z</time>
      </trkpt>
      <trkpt lat="43.45566" lon="1.59587">
        <ele>214.2</ele>
        <time>2023-08-15T10:38:32Z</time>
      </trkpt>
      <trkpt lat="43.45547" lon="1.59594">
        <ele>215.5</ele>
        <time>2023-08-15T10:38:35Z</time>
      </trkpt>
      <trkpt lat="43.45527" lon="1.596">
        <ele>216.7</ele>
        <time>2023-08-15T10:38:38Z</time>
      </trkpt>
      <trkpt lat="43.455" lon="1.59603">
        <ele>217.4</ele>
        <time>2023-08-15T10:38:42Z</time>
      </trkpt>
      <trkpt lat="43.45481" lon="1.59603">
        <ele>217.7</ele>
        <time>2023-08-15T10:38:45Z</time>
      </trkpt>
      <trkpt lat="43.45461" lon="1.59599">
        <ele>217.8</ele>
        <time>2023-08-15T10:38:48Z</time>
      </trkpt>
      <trkpt lat="43.45435" lon="1.5959">
        <ele>218.3</ele>
        <time>2023-08-15T10:38:52Z</time>
      </trkpt>
      <trkpt lat="43.45416" lon="1.5958">
        <ele>218.3</ele>
        <time>2023-08-15T10:38:55Z</time>
      </trkpt>
      <trkpt lat="43.45392" lon="1.59564">
        <ele>217.8</ele>
        <time>2023-08-15T10:38:59Z</time>
      </trkpt>
      <trkpt lat="43.45369" lon="1.59544">
        <ele>217.6</ele>
        <time>2023-08-15T10:39:03Z</time>
      </trkpt>
      <trkpt lat="43.45348" lon="1.5952">
        <ele>217.6</ele>
        <time>2023-08-15T10:39:07Z</time>
      </trkpt>
      <trkpt lat="43.45334" lon="1.595">
        <ele>217.7</ele>
        <time>2023-08-15T10:39:10Z</time>
      </trkpt>
      <trkpt lat="43.45319" lon="1.59469">
        <ele>216.8</ele>
        <time>2023-08-15T10:39:14Z</time>
      </trkpt>
      <trkpt lat="43.4531" lon="1.59445">
        <ele>216</ele>
        <time>2023-08-15T10:39:17Z</time>
      </trkpt>
      <trkpt lat="43.45299" lon="1.59412">
        <ele>216</ele>
        <time>2023-08-15T10:39:21Z</time>
      </trkpt>
      <trkpt lat="43.45289" lon="1.59379">
        <ele>215.1</ele>
        <time>2023-08-15T10:39:25Z</time>
      </trkpt>
      <trkpt lat="43.45277" lon="1.59346">
        <ele>214.3</ele>
        <time>2023-08-15T10:39:29Z</time>
      </trkpt>
      <trkpt lat="43.45267" lon="1.59321">
        <ele>213.9</ele>
        <time>2023-08-15T10:39:32Z</time>
      </trkpt>
      <trkpt lat="43.45253" lon="1.59289">
        <ele>214</ele>
        <time>2023-08-15T10:39:36Z</time>
      </trkpt>
      <trkpt lat="43.45237" lon="1.5926">
        <ele>212.5</ele>
        <time>2023-08-15T10:39:40Z</time>
      </trkpt>
      <trkpt lat="43.4522" lon="1.59232">
        <ele>212.3</ele>
        <time>2023-08-15T10:39:44Z</time>
      </trkpt>
      <trkpt lat="43.45203" lon="1.59207">
        <ele>212.4</ele>
        <time>2023-08-15T10:39:48Z</time>
      </trkpt>
      <trkpt lat="43.45186" lon="1.59183">
        <ele>212.5</ele>
        <time>2023-08-15T10:39:52Z</time>
      </trkpt>
      <trkpt lat="43.45168" lon="1.59157">
        <ele>213.2</ele>
        <time>2023-08-15T10:39:56Z</time>
      </trkpt>
      <trkpt lat="43.45148" lon="1.59132">
        <ele>212.9</ele>
        <time>2023-08-15T10:40:00Z</time>
      </trkpt>
      <trkpt lat="43.45127" lon="1.59112">
        <ele>214.9</ele>
        <time>2023-08-15T10:40:04Z</time>
      </trkpt>
      <trkpt lat="43.4511" lon="1.59092">
        <ele>214.8</ele>
        <time>2023-08-15T10:40:08Z</time>
      </trkpt>
      <trkpt lat="43.45099" lon="1.59068">
        <ele>214.2</ele>
        <time>2023-08-15T10:40:12Z</time>
      </trkpt>
      <trkpt lat="43.45096" lon="1.59046">
        <ele>214.6</ele>
        <time>2023-08-15T10:40:15Z</time>
      </trkpt>
      <trkpt lat="43.45083" lon="1.59032">
        <ele>215.2</ele>
        <time>2023-08-15T10:40:18Z</time>
      </trkpt>
      <trkpt lat="43.45061" lon="1.59037">
        <ele>215.3</ele>
        <time>2023-08-15T10:40:22Z</time>
      </trkpt>
      <trkpt lat="43.4505" lon="1.59058">
        <ele>215.9</ele>
        <time>2023-08-15T10:40:25Z</time>
      </trkpt>
      <trkpt lat="43.4504" lon="1.59092">
        <ele>215.6</ele>
        <time>2023-08-15T10:40:29Z</time>
      </trkpt>
      <trkpt lat="43.45029" lon="1.59116">
        <ele>216</ele>
        <time>2023-08-15T10:40:32Z</time>
      </trkpt>
      <trkpt lat="43.45013" lon="1.59146">
        <ele>214.4</ele>
        <time>2023-08-15T10:40:36Z</time>
      </trkpt>
      <trkpt lat="43.45003" lon="1.59169">
        <ele>214.7</ele>
        <time>2023-08-15T10:40:39Z</time>
      </trkpt>
      <trkpt lat="43.44988" lon="1.59199">
        <ele>213.9</ele>
        <time>2023-08-15T10:40:43Z</time>
      </trkpt>
      <trkpt lat="43.44977" lon="1.59222">
        <ele>214.4</ele>
        <time>2023-08-15T10:40:46Z</time>
      </trkpt>
      <trkpt lat="43.4496" lon="1.59251">
        <ele>214.9</ele>
        <time>2023-08-15T10:40:50Z</time>
      </trkpt>
      <trkpt lat="43.44949" lon="1.59273">
        <ele>214.6</ele>
        <time>2023-08-15T10:40:53Z</time>
      </trkpt>
      <trkpt lat="43.44934" lon="1.59303">
        <ele>214.8</ele>
        <time>2023-08-15T10:40:57Z</time>
      </trkpt>
      <trkpt lat="43.4492" lon="1.59333">
        <ele>214.5</ele>
        <time>2023-08-15T10:41:01Z</time>
      </trkpt>
      <trkpt lat="43.44905" lon="1.59363">
        <ele>214.5</ele>
        <time>2023-08-15T10:41:05Z</time>
      </trkpt>
      <trkpt lat="43.44889" lon="1.59393">
        <ele>215.2</ele>
        <time>2023-08-15T10:41:09Z</time>
      </trkpt>
      <trkpt lat="43.44872" lon="1.59422">
        <ele>215.2</ele>
        <time>2023-08-15T10:41:13Z</time>
      </trkpt>
      <trkpt lat="43.44856" lon="1.5945">
        <ele>216.1</ele>
        <time>2023-08-15T10:41:17Z</time>
      </trkpt>
      <trkpt lat="43.44844" lon="1.59472">
        <ele>216.5</ele>
        <time>2023-08-15T10:41:20Z</time>
      </trkpt>
      <trkpt lat="43.44832" lon="1.59494">
        <ele>216.7</ele>
        <time>2023-08-15T10:41:23Z</time>
      </trkpt>
      <trkpt lat="43.44817" lon="1.59523">
        <ele>216.3</ele>
        <time>2023-08-15T10:41:26Z</time>
      </trkpt>
      <trkpt lat="43.44806" lon="1.59544">
        <ele>216.2</ele>
        <time>2023-08-15T10:41:30Z</time>
      </trkpt>
      <trkpt lat="43.44792" lon="1.59576">
        <ele>215.5</ele>
        <time>2023-08-15T10:41:34Z</time>
      </trkpt>
      <trkpt lat="43.44782" lon="1.5961">
        <ele>215.2</ele>
        <time>2023-08-15T10:41:38Z</time>
      </trkpt>
      <trkpt lat="43.44773" lon="1.59646">
        <ele>215</ele>
        <time>2023-08-15T10:41:42Z</time>
      </trkpt>
      <trkpt lat="43.44765" lon="1.59672">
        <ele>216.8</ele>
        <time>2023-08-15T10:41:45Z</time>
      </trkpt>
      <trkpt lat="43.44745" lon="1.59694">
        <ele>216.2</ele>
        <time>2023-08-15T10:41:49Z</time>
      </trkpt>
      <trkpt lat="43.44724" lon="1.59717">
        <ele>215.6</ele>
        <time>2023-08-15T10:41:53Z</time>
      </trkpt>
      <trkpt lat="43.44707" lon="1.59745">
        <ele>214.6</ele>
        <time>2023-08-15T10:41:57Z</time>
      </trkpt>
      <trkpt lat="43.44696" lon="1.59767">
        <ele>214.5</ele>
        <time>2023-08-15T10:42:00Z</time>
      </trkpt>
      <trkpt lat="43.44684" lon="1.59799">
        <ele>215.4</ele>
        <time>2023-08-15T10:42:04Z</time>
      </trkpt>
      <trkpt lat="43.44677" lon="1.59825">
        <ele>215.5</ele>
        <time>2023-08-15T10:42:07Z</time>
      </trkpt>
      <trkpt lat="43.44664" lon="1.59856">
        <ele>215</ele>
        <time>2023-08-15T10:42:11Z</time>
      </trkpt>
      <trkpt lat="43.44643" lon="1.59879">
        <ele>214.4</ele>
        <time>2023-08-15T10:42:15Z</time>
      </trkpt>
      <trkpt lat="43.44627" lon="1.59894">
        <ele>213.9</ele>
        <time>2023-08-15T10:42:18Z</time>
      </trkpt>
      <trkpt lat="43.44605" lon="1.59915">
        <ele>214.4</ele>
        <time>2023-08-15T10:42:22Z</time>
      </trkpt>
      <trkpt lat="43.44583" lon="1.59937">
        <ele>214.6</ele>
        <time>2023-08-15T10:42:26Z</time>
      </trkpt>
      <trkpt lat="43.44564" lon="1.5996">
        <ele>214.5</ele>
        <time>2023-08-15T10:42:30Z</time>
      </trkpt>
      <trkpt lat="43.44548" lon="1.59978">
        <ele>214.3</ele>
        <time>2023-08-15T10:42:33Z</time>
      </trkpt>
      <trkpt lat="43.44528" lon="1.60001">
        <ele>215.1</ele>
        <time>2023-08-15T10:42:37Z</time>
      </trkpt>
      <trkpt lat="43.44506" lon="1.60021">
        <ele>216</ele>
        <time>2023-08-15T10:42:41Z</time>
      </trkpt>
      <trkpt lat="43.44483" lon="1.60036">
        <ele>216.8</ele>
        <time>2023-08-15T10:42:45Z</time>
      </trkpt>
      <trkpt lat="43.44457" lon="1.60051">
        <ele>216.8</ele>
        <time>2023-08-15T10:42:49Z</time>
      </trkpt>
      <trkpt lat="43.44438" lon="1.60062">
        <ele>216.2</ele>
        <time>2023-08-15T10:42:52Z</time>
      </trkpt>
      <trkpt lat="43.44414" lon="1.60075">
        <ele>216.2</ele>
        <time>2023-08-15T10:42:56Z</time>
      </trkpt>
      <trkpt lat="43.44395" lon="1.60079">
        <ele>215.7</ele>
        <time>2023-08-15T10:42:59Z</time>
      </trkpt>
      <trkpt lat="43.44371" lon="1.60067">
        <ele>215.9</ele>
        <time>2023-08-15T10:43:03Z</time>
      </trkpt>
      <trkpt lat="43.44354" lon="1.60053">
        <ele>216</ele>
        <time>2023-08-15T10:43:06Z</time>
      </trkpt>
      <trkpt lat="43.44336" lon="1.60039">
        <ele>216.1</ele>
        <time>2023-08-15T10:43:09Z</time>
      </trkpt>
      <trkpt lat="43.44313" lon="1.60019">
        <ele>215.9</ele>
        <time>2023-08-15T10:43:13Z</time>
      </trkpt>
      <trkpt lat="43.44295" lon="1.60005">
        <ele>215.4</ele>
        <time>2023-08-15T10:43:16Z</time>
      </trkpt>
      <trkpt lat="43.44276" lon="1.59996">
        <ele>215.5</ele>
        <time>2023-08-15T10:43:19Z</time>
      </trkpt>
      <trkpt lat="43.44249" lon="1.59991">
        <ele>215.7</ele>
        <time>2023-08-15T10:43:23Z</time>
      </trkpt>
      <trkpt lat="43.4423" lon="1.59986">
        <ele>215.6</ele>
        <time>2023-08-15T10:43:26Z</time>
      </trkpt>
      <trkpt lat="43.44212" lon="1.5998">
        <ele>215.7</ele>
        <time>2023-08-15T10:43:29Z</time>
      </trkpt>
      <trkpt lat="43.44188" lon="1.59971">
        <ele>215.8</ele>
        <time>2023-08-15T10:43:33Z</time>
      </trkpt>
      <trkpt lat="43.4417" lon="1.59964">
        <ele>216.4</ele>
        <time>2023-08-15T10:43:36Z</time>
      </trkpt>
      <trkpt lat="43.44145" lon="1.59954">
        <ele>217.5</ele>
        <time>2023-08-15T10:43:40Z</time>
      </trkpt>
      <trkpt lat="43.4412" lon="1.59944">
        <ele>218.1</ele>
        <time>2023-08-15T10:43:44Z</time>
      </trkpt>
      <trkpt lat="43.44101" lon="1.59936">
        <ele>218.2</ele>
        <time>2023-08-15T10:43:47Z</time>
      </trkpt>
      <trkpt lat="43.44075" lon="1.59924">
        <ele>219.2</ele>
        <time>2023-08-15T10:43:51Z</time>
      </trkpt>
      <trkpt lat="43.44051" lon="1.59911">
        <ele>220.5</ele>
        <time>2023-08-15T10:43:55Z</time>
      </trkpt>
      <trkpt lat="43.44028" lon="1.5989">
        <ele>221.1</ele>
        <time>2023-08-15T10:43:59Z</time>
      </trkpt>
      <trkpt lat="43.44006" lon="1.59869">
        <ele>221.8</ele>
        <time>2023-08-15T10:44:03Z</time>
      </trkpt>
      <trkpt lat="43.43983" lon="1.59849">
        <ele>221.4</ele>
        <time>2023-08-15T10:44:07Z</time>
      </trkpt>
      <trkpt lat="43.43966" lon="1.59837">
        <ele>221.4</ele>
        <time>2023-08-15T10:44:10Z</time>
      </trkpt>
      <trkpt lat="43.43943" lon="1.59827">
        <ele>221.9</ele>
        <time>2023-08-15T10:44:14Z</time>
      </trkpt>
      <trkpt lat="43.43919" lon="1.59819">
        <ele>221.2</ele>
        <time>2023-08-15T10:44:18Z</time>
      </trkpt>
      <trkpt lat="43.43895" lon="1.59809">
        <ele>220.3</ele>
        <time>2023-08-15T10:44:22Z</time>
      </trkpt>
      <trkpt lat="43.43878" lon="1.59802">
        <ele>219.9</ele>
        <time>2023-08-15T10:44:25Z</time>
      </trkpt>
      <trkpt lat="43.43855" lon="1.59793">
        <ele>219.6</ele>
        <time>2023-08-15T10:44:29Z</time>
      </trkpt>
      <trkpt lat="43.4383" lon="1.59781">
        <ele>219</ele>
        <time>2023-08-15T10:44:33Z</time>
      </trkpt>
      <trkpt lat="43.43808" lon="1.59771">
        <ele>219.7</ele>
        <time>2023-08-15T10:44:37Z</time>
      </trkpt>
      <trkpt lat="43.43794" lon="1.59765">
        <ele>219.2</ele>
        <time>2023-08-15T10:44:41Z</time>
      </trkpt>
      <trkpt lat="43.43769" lon="1.59759">
        <ele>218.8</ele>
        <time>2023-08-15T10:44:45Z</time>
      </trkpt>
      <trkpt lat="43.4375" lon="1.59762">
        <ele>218.8</ele>
        <time>2023-08-15T10:44:48Z</time>
      </trkpt>
      <trkpt lat="43.43726" lon="1.59771">
        <ele>218.8</ele>
        <time>2023-08-15T10:44:52Z</time>
      </trkpt>
      <trkpt lat="43.4371" lon="1.59786">
        <ele>218.8</ele>
        <time>2023-08-15T10:44:55Z</time>
      </trkpt>
      <trkpt lat="43.43696" lon="1.59807">
        <ele>218.8</ele>
        <time>2023-08-15T10:44:58Z</time>
      </trkpt>
      <trkpt lat="43.43677" lon="1.59835">
        <ele>218.8</ele>
        <time>2023-08-15T10:45:02Z</time>
      </trkpt>
      <trkpt lat="43.43666" lon="1.59852">
        <ele>218.8</ele>
        <time>2023-08-15T10:45:05Z</time>
      </trkpt>
      <trkpt lat="43.43659" lon="1.59856">
        <ele>218.8</ele>
        <time>2023-08-15T10:45:09Z</time>
      </trkpt>
      <trkpt lat="43.43658" lon="1.59846">
        <ele>220.2</ele>
        <time>2023-08-15T10:45:12Z</time>
      </trkpt>
      <trkpt lat="43.43666" lon="1.5983">
        <ele>222.2</ele>
        <time>2023-08-15T10:45:15Z</time>
      </trkpt>
      <trkpt lat="43.43671" lon="1.5982">
        <ele>222.2</ele>
        <time>2023-08-15T10:45:19Z</time>
      </trkpt>
      <trkpt lat="43.43672" lon="1.59809">
        <ele>222.2</ele>
        <time>2023-08-15T10:45:22Z</time>
      </trkpt>
      <trkpt lat="43.43669" lon="1.59799">
        <ele>222.2</ele>
        <time>2023-08-15T10:45:26Z</time>
      </trkpt>
      <trkpt lat="43.43663" lon="1.59797">
        <ele>222.2</ele>
        <time>2023-08-15T10:45:30Z</time>
      </trkpt>
      <trkpt lat="43.43667" lon="1.59794">
        <ele>222.6</ele>
        <time>2023-08-15T10:52:31Z</time>
      </trkpt>
      <trkpt lat="43.43662" lon="1.598">
        <ele>222.6</ele>
        <time>2023-08-15T11:15:41Z</time>
      </trkpt>
      <trkpt lat="43.4366" lon="1.59808">
        <ele>222.6</ele>
        <time>2023-08-15T11:15:44Z</time>
      </trkpt>
      <trkpt lat="43.43662" lon="1.59821">
        <ele>222.2</ele>
        <time>2023-08-15T11:15:47Z</time>
      </trkpt>
      <trkpt lat="43.43663" lon="1.59833">
        <ele>222.2</ele>
        <time>2023-08-15T11:15:50Z</time>
      </trkpt>
      <trkpt lat="43.43662" lon="1.59855">
        <ele>222.2</ele>
        <time>2023-08-15T11:15:54Z</time>
      </trkpt>
      <trkpt lat="43.43663" lon="1.59863">
        <ele>222.2</ele>
        <time>2023-08-15T11:15:57Z</time>
      </trkpt>
      <trkpt lat="43.4366" lon="1.59879">
        <ele>222.2</ele>
        <time>2023-08-15T11:16:01Z</time>
      </trkpt>
      <trkpt lat="43.4365" lon="1.59897">
        <ele>222.2</ele>
        <time>2023-08-15T11:16:05Z</time>
      </trkpt>
      <trkpt lat="43.43638" lon="1.59914">
        <ele>222.2</ele>
        <time>2023-08-15T11:16:08Z</time>
      </trkpt>
      <trkpt lat="43.43628" lon="1.59923">
        <ele>222.2</ele>
        <time>2023-08-15T11:16:12Z</time>
      </trkpt>
      <trkpt lat="43.43614" lon="1.5994">
        <ele>222.2</ele>
        <time>2023-08-15T11:16:16Z</time>
      </trkpt>
      <trkpt lat="43.43608" lon="1.59975">
        <ele>222.2</ele>
        <time>2023-08-15T11:16:20Z</time>
      </trkpt>
      <trkpt lat="43.43593" lon="1.60009">
        <ele>222.2</ele>
        <time>2023-08-15T11:16:24Z</time>
      </trkpt>
      <trkpt lat="43.43581" lon="1.60035">
        <ele>222.2</ele>
        <time>2023-08-15T11:16:27Z</time>
      </trkpt>
      <trkpt lat="43.43571" lon="1.60061">
        <ele>222.2</ele>
        <time>2023-08-15T11:16:30Z</time>
      </trkpt>
      <trkpt lat="43.43563" lon="1.60083">
        <ele>222.6</ele>
        <time>2023-08-15T11:16:33Z</time>
      </trkpt>
      <trkpt lat="43.4355" lon="1.60112">
        <ele>222.2</ele>
        <time>2023-08-15T11:16:37Z</time>
      </trkpt>
      <trkpt lat="43.43539" lon="1.60136">
        <ele>222.2</ele>
        <time>2023-08-15T11:16:40Z</time>
      </trkpt>
      <trkpt lat="43.43528" lon="1.60161">
        <ele>224.5</ele>
        <time>2023-08-15T11:16:43Z</time>
      </trkpt>
      <trkpt lat="43.43517" lon="1.60194">
        <ele>222.2</ele>
        <time>2023-08-15T11:16:47Z</time>
      </trkpt>
      <trkpt lat="43.43503" lon="1.60234">
        <ele>222.6</ele>
        <time>2023-08-15T11:16:52Z</time>
      </trkpt>
      <trkpt lat="43.43494" lon="1.6026">
        <ele>224.3</ele>
        <time>2023-08-15T11:16:55Z</time>
      </trkpt>
      <trkpt lat="43.43483" lon="1.60293">
        <ele>224.7</ele>
        <time>2023-08-15T11:16:59Z</time>
      </trkpt>
      <trkpt lat="43.43474" lon="1.60319">
        <ele>224.5</ele>
        <time>2023-08-15T11:17:02Z</time>
      </trkpt>
      <trkpt lat="43.43462" lon="1.60351">
        <ele>224.5</ele>
        <time>2023-08-15T11:17:06Z</time>
      </trkpt>
      <trkpt lat="43.43453" lon="1.60374">
        <ele>224.8</ele>
        <time>2023-08-15T11:17:09Z</time>
      </trkpt>
      <trkpt lat="43.43445" lon="1.60397">
        <ele>225.1</ele>
        <time>2023-08-15T11:17:12Z</time>
      </trkpt>
      <trkpt lat="43.43436" lon="1.60422">
        <ele>225.5</ele>
        <time>2023-08-15T11:17:15Z</time>
      </trkpt>
      <trkpt lat="43.43425" lon="1.60454">
        <ele>225.7</ele>
        <time>2023-08-15T11:17:19Z</time>
      </trkpt>
      <trkpt lat="43.43416" lon="1.60479">
        <ele>225.8</ele>
        <time>2023-08-15T11:17:22Z</time>
      </trkpt>
      <trkpt lat="43.43404" lon="1.60511">
        <ele>225.8</ele>
        <time>2023-08-15T11:17:26Z</time>
      </trkpt>
      <trkpt lat="43.43393" lon="1.60542">
        <ele>226.4</ele>
        <time>2023-08-15T11:17:30Z</time>
      </trkpt>
      <trkpt lat="43.43382" lon="1.60573">
        <ele>227.1</ele>
        <time>2023-08-15T11:17:34Z</time>
      </trkpt>
      <trkpt lat="43.43373" lon="1.60598">
        <ele>227.7</ele>
        <time>2023-08-15T11:17:37Z</time>
      </trkpt>
      <trkpt lat="43.43362" lon="1.60631">
        <ele>228.6</ele>
        <time>2023-08-15T11:17:41Z</time>
      </trkpt>
      <trkpt lat="43.4335" lon="1.60663">
        <ele>228.9</ele>
        <time>2023-08-15T11:17:45Z</time>
      </trkpt>
      <trkpt lat="43.43341" lon="1.60688">
        <ele>229.7</ele>
        <time>2023-08-15T11:17:48Z</time>
      </trkpt>
      <trkpt lat="43.43329" lon="1.60712">
        <ele>229.5</ele>
        <time>2023-08-15T11:17:51Z</time>
      </trkpt>
      <trkpt lat="43.43317" lon="1.60735">
        <ele>228.1</ele>
        <time>2023-08-15T11:17:54Z</time>
      </trkpt>
      <trkpt lat="43.43305" lon="1.60757">
        <ele>228.2</ele>
        <time>2023-08-15T11:17:57Z</time>
      </trkpt>
      <trkpt lat="43.43289" lon="1.60785">
        <ele>228.4</ele>
        <time>2023-08-15T11:18:01Z</time>
      </trkpt>
      <trkpt lat="43.43277" lon="1.60806">
        <ele>227.8</ele>
        <time>2023-08-15T11:18:04Z</time>
      </trkpt>
      <trkpt lat="43.4326" lon="1.60834">
        <ele>227.1</ele>
        <time>2023-08-15T11:18:08Z</time>
      </trkpt>
      <trkpt lat="43.43248" lon="1.60856">
        <ele>227.4</ele>
        <time>2023-08-15T11:18:11Z</time>
      </trkpt>
      <trkpt lat="43.43236" lon="1.60879">
        <ele>226.7</ele>
        <time>2023-08-15T11:18:14Z</time>
      </trkpt>
      <trkpt lat="43.4322" lon="1.6091">
        <ele>225.1</ele>
        <time>2023-08-15T11:18:18Z</time>
      </trkpt>
      <trkpt lat="43.43209" lon="1.60932">
        <ele>224.8</ele>
        <time>2023-08-15T11:18:21Z</time>
      </trkpt>
      <trkpt lat="43.43196" lon="1.60963">
        <ele>224.8</ele>
        <time>2023-08-15T11:18:25Z</time>
      </trkpt>
      <trkpt lat="43.43183" lon="1.60995">
        <ele>224.1</ele>
        <time>2023-08-15T11:18:29Z</time>
      </trkpt>
      <trkpt lat="43.43171" lon="1.61027">
        <ele>222.7</ele>
        <time>2023-08-15T11:18:33Z</time>
      </trkpt>
      <trkpt lat="43.43159" lon="1.61061">
        <ele>222.6</ele>
        <time>2023-08-15T11:18:37Z</time>
      </trkpt>
      <trkpt lat="43.43147" lon="1.61093">
        <ele>222.4</ele>
        <time>2023-08-15T11:18:41Z</time>
      </trkpt>
      <trkpt lat="43.43137" lon="1.61117">
        <ele>222.2</ele>
        <time>2023-08-15T11:18:44Z</time>
      </trkpt>
      <trkpt lat="43.43128" lon="1.61139">
        <ele>221.4</ele>
        <time>2023-08-15T11:18:47Z</time>
      </trkpt>
      <trkpt lat="43.43116" lon="1.6117">
        <ele>221</ele>
        <time>2023-08-15T11:18:51Z</time>
      </trkpt>
      <trkpt lat="43.43107" lon="1.61193">
        <ele>220.7</ele>
        <time>2023-08-15T11:18:54Z</time>
      </trkpt>
      <trkpt lat="43.43093" lon="1.61225">
        <ele>220.1</ele>
        <time>2023-08-15T11:18:58Z</time>
      </trkpt>
      <trkpt lat="43.43077" lon="1.61252">
        <ele>219.4</ele>
        <time>2023-08-15T11:19:02Z</time>
      </trkpt>
      <trkpt lat="43.43062" lon="1.61272">
        <ele>219.4</ele>
        <time>2023-08-15T11:19:05Z</time>
      </trkpt>
      <trkpt lat="43.43047" lon="1.61291">
        <ele>219.3</ele>
        <time>2023-08-15T11:19:08Z</time>
      </trkpt>
      <trkpt lat="43.43025" lon="1.61316">
        <ele>218.9</ele>
        <time>2023-08-15T11:19:12Z</time>
      </trkpt>
      <trkpt lat="43.43009" lon="1.61333">
        <ele>218.6</ele>
        <time>2023-08-15T11:19:15Z</time>
      </trkpt>
      <trkpt lat="43.42994" lon="1.61349">
        <ele>218.4</ele>
        <time>2023-08-15T11:19:18Z</time>
      </trkpt>
      <trkpt lat="43.42974" lon="1.61371">
        <ele>218.3</ele>
        <time>2023-08-15T11:19:22Z</time>
      </trkpt>
      <trkpt lat="43.42955" lon="1.61396">
        <ele>218</ele>
        <time>2023-08-15T11:19:26Z</time>
      </trkpt>
      <trkpt lat="43.42937" lon="1.61421">
        <ele>218.5</ele>
        <time>2023-08-15T11:19:30Z</time>
      </trkpt>
      <trkpt lat="43.42921" lon="1.61451">
        <ele>219</ele>
        <time>2023-08-15T11:19:34Z</time>
      </trkpt>
      <trkpt lat="43.4291" lon="1.61474">
        <ele>218.8</ele>
        <time>2023-08-15T11:19:37Z</time>
      </trkpt>
      <trkpt lat="43.42898" lon="1.61497">
        <ele>219.3</ele>
        <time>2023-08-15T11:19:40Z</time>
      </trkpt>
      <trkpt lat="43.42884" lon="1.61527">
        <ele>219.4</ele>
        <time>2023-08-15T11:19:44Z</time>
      </trkpt>
      <trkpt lat="43.42873" lon="1.61549">
        <ele>219.6</ele>
        <time>2023-08-15T11:19:47Z</time>
      </trkpt>
      <trkpt lat="43.42858" lon="1.61579">
        <ele>220.2</ele>
        <time>2023-08-15T11:19:51Z</time>
      </trkpt>
      <trkpt lat="43.42842" lon="1.61609">
        <ele>220.5</ele>
        <time>2023-08-15T11:19:55Z</time>
      </trkpt>
      <trkpt lat="43.42827" lon="1.6164">
        <ele>220.1</ele>
        <time>2023-08-15T11:19:59Z</time>
      </trkpt>
      <trkpt lat="43.42816" lon="1.61664">
        <ele>220</ele>
        <time>2023-08-15T11:20:02Z</time>
      </trkpt>
      <trkpt lat="43.42805" lon="1.61687">
        <ele>219.7</ele>
        <time>2023-08-15T11:20:05Z</time>
      </trkpt>
      <trkpt lat="43.42791" lon="1.61716">
        <ele>219.8</ele>
        <time>2023-08-15T11:20:09Z</time>
      </trkpt>
      <trkpt lat="43.42781" lon="1.61738">
        <ele>220.5</ele>
        <time>2023-08-15T11:20:12Z</time>
      </trkpt>
      <trkpt lat="43.42766" lon="1.61768">
        <ele>221.1</ele>
        <time>2023-08-15T11:20:16Z</time>
      </trkpt>
      <trkpt lat="43.42751" lon="1.61799">
        <ele>221.1</ele>
        <time>2023-08-15T11:20:20Z</time>
      </trkpt>
      <trkpt lat="43.42736" lon="1.6183">
        <ele>221.8</ele>
        <time>2023-08-15T11:20:24Z</time>
      </trkpt>
      <trkpt lat="43.42722" lon="1.61861">
        <ele>222.3</ele>
        <time>2023-08-15T11:20:28Z</time>
      </trkpt>
      <trkpt lat="43.42709" lon="1.61892">
        <ele>222.5</ele>
        <time>2023-08-15T11:20:32Z</time>
      </trkpt>
      <trkpt lat="43.42701" lon="1.61916">
        <ele>222.9</ele>
        <time>2023-08-15T11:20:35Z</time>
      </trkpt>
      <trkpt lat="43.42693" lon="1.61951">
        <ele>223.6</ele>
        <time>2023-08-15T11:20:39Z</time>
      </trkpt>
      <trkpt lat="43.42687" lon="1.61987">
        <ele>224.2</ele>
        <time>2023-08-15T11:20:43Z</time>
      </trkpt>
      <trkpt lat="43.42679" lon="1.62021">
        <ele>224.5</ele>
        <time>2023-08-15T11:20:47Z</time>
      </trkpt>
      <trkpt lat="43.42673" lon="1.62047">
        <ele>224.7</ele>
        <time>2023-08-15T11:20:50Z</time>
      </trkpt>
      <trkpt lat="43.42664" lon="1.62082">
        <ele>225.2</ele>
        <time>2023-08-15T11:20:54Z</time>
      </trkpt>
      <trkpt lat="43.42655" lon="1.62116">
        <ele>225.6</ele>
        <time>2023-08-15T11:20:58Z</time>
      </trkpt>
      <trkpt lat="43.42647" lon="1.6215">
        <ele>226</ele>
        <time>2023-08-15T11:21:02Z</time>
      </trkpt>
      <trkpt lat="43.42642" lon="1.62178">
        <ele>225.6</ele>
        <time>2023-08-15T11:21:05Z</time>
      </trkpt>
      <trkpt lat="43.42632" lon="1.62212">
        <ele>224.7</ele>
        <time>2023-08-15T11:21:09Z</time>
      </trkpt>
      <trkpt lat="43.42618" lon="1.62243">
        <ele>224.1</ele>
        <time>2023-08-15T11:21:13Z</time>
      </trkpt>
      <trkpt lat="43.42604" lon="1.62274">
        <ele>224.2</ele>
        <time>2023-08-15T11:21:17Z</time>
      </trkpt>
      <trkpt lat="43.42593" lon="1.62297">
        <ele>223.1</ele>
        <time>2023-08-15T11:21:20Z</time>
      </trkpt>
      <trkpt lat="43.42579" lon="1.62327">
        <ele>222</ele>
        <time>2023-08-15T11:21:24Z</time>
      </trkpt>
      <trkpt lat="43.42565" lon="1.62357">
        <ele>222</ele>
        <time>2023-08-15T11:21:28Z</time>
      </trkpt>
      <trkpt lat="43.4255" lon="1.62389">
        <ele>221.1</ele>
        <time>2023-08-15T11:21:32Z</time>
      </trkpt>
      <trkpt lat="43.42536" lon="1.6242">
        <ele>221.2</ele>
        <time>2023-08-15T11:21:36Z</time>
      </trkpt>
      <trkpt lat="43.42523" lon="1.62451">
        <ele>221.4</ele>
        <time>2023-08-15T11:21:40Z</time>
      </trkpt>
      <trkpt lat="43.42513" lon="1.62473">
        <ele>221.5</ele>
        <time>2023-08-15T11:21:43Z</time>
      </trkpt>
      <trkpt lat="43.42499" lon="1.62505">
        <ele>221.2</ele>
        <time>2023-08-15T11:21:47Z</time>
      </trkpt>
      <trkpt lat="43.42485" lon="1.62535">
        <ele>220.3</ele>
        <time>2023-08-15T11:21:51Z</time>
      </trkpt>
      <trkpt lat="43.42472" lon="1.62566">
        <ele>220.2</ele>
        <time>2023-08-15T11:21:55Z</time>
      </trkpt>
      <trkpt lat="43.42459" lon="1.62599">
        <ele>220.7</ele>
        <time>2023-08-15T11:21:59Z</time>
      </trkpt>
      <trkpt lat="43.42449" lon="1.62622">
        <ele>220.5</ele>
        <time>2023-08-15T11:22:02Z</time>
      </trkpt>
      <trkpt lat="43.42438" lon="1.62647">
        <ele>219.9</ele>
        <time>2023-08-15T11:22:05Z</time>
      </trkpt>
      <trkpt lat="43.42428" lon="1.6267">
        <ele>220.3</ele>
        <time>2023-08-15T11:22:08Z</time>
      </trkpt>
      <trkpt lat="43.42416" lon="1.62701">
        <ele>220.1</ele>
        <time>2023-08-15T11:22:12Z</time>
      </trkpt>
      <trkpt lat="43.42406" lon="1.62725">
        <ele>220.4</ele>
        <time>2023-08-15T11:22:15Z</time>
      </trkpt>
      <trkpt lat="43.42396" lon="1.62747">
        <ele>219.8</ele>
        <time>2023-08-15T11:22:18Z</time>
      </trkpt>
      <trkpt lat="43.42378" lon="1.62787">
        <ele>219.9</ele>
        <time>2023-08-15T11:22:23Z</time>
      </trkpt>
      <trkpt lat="43.42368" lon="1.62811">
        <ele>220.1</ele>
        <time>2023-08-15T11:22:26Z</time>
      </trkpt>
      <trkpt lat="43.42356" lon="1.62842">
        <ele>218.9</ele>
        <time>2023-08-15T11:22:30Z</time>
      </trkpt>
      <trkpt lat="43.42343" lon="1.62872">
        <ele>219</ele>
        <time>2023-08-15T11:22:34Z</time>
      </trkpt>
      <trkpt lat="43.42331" lon="1.62896">
        <ele>219.6</ele>
        <time>2023-08-15T11:22:37Z</time>
      </trkpt>
      <trkpt lat="43.42316" lon="1.62926">
        <ele>219.5</ele>
        <time>2023-08-15T11:22:41Z</time>
      </trkpt>
      <trkpt lat="43.42305" lon="1.62949">
        <ele>220.2</ele>
        <time>2023-08-15T11:22:44Z</time>
      </trkpt>
      <trkpt lat="43.42293" lon="1.62981">
        <ele>220</ele>
        <time>2023-08-15T11:22:48Z</time>
      </trkpt>
      <trkpt lat="43.42284" lon="1.63005">
        <ele>220.3</ele>
        <time>2023-08-15T11:22:51Z</time>
      </trkpt>
      <trkpt lat="43.42271" lon="1.63036">
        <ele>220.6</ele>
        <time>2023-08-15T11:22:55Z</time>
      </trkpt>
      <trkpt lat="43.42261" lon="1.63061">
        <ele>220.9</ele>
        <time>2023-08-15T11:22:58Z</time>
      </trkpt>
      <trkpt lat="43.42247" lon="1.63092">
        <ele>221.2</ele>
        <time>2023-08-15T11:23:02Z</time>
      </trkpt>
      <trkpt lat="43.42233" lon="1.63122">
        <ele>221.2</ele>
        <time>2023-08-15T11:23:06Z</time>
      </trkpt>
      <trkpt lat="43.42222" lon="1.63146">
        <ele>220.9</ele>
        <time>2023-08-15T11:23:09Z</time>
      </trkpt>
      <trkpt lat="43.42208" lon="1.63177">
        <ele>221.3</ele>
        <time>2023-08-15T11:23:13Z</time>
      </trkpt>
      <trkpt lat="43.42195" lon="1.63208">
        <ele>221.6</ele>
        <time>2023-08-15T11:23:17Z</time>
      </trkpt>
      <trkpt lat="43.42185" lon="1.63231">
        <ele>222.1</ele>
        <time>2023-08-15T11:23:20Z</time>
      </trkpt>
      <trkpt lat="43.42172" lon="1.63262">
        <ele>222.5</ele>
        <time>2023-08-15T11:23:24Z</time>
      </trkpt>
      <trkpt lat="43.42162" lon="1.63286">
        <ele>223.3</ele>
        <time>2023-08-15T11:23:27Z</time>
      </trkpt>
      <trkpt lat="43.42148" lon="1.63316">
        <ele>223.7</ele>
        <time>2023-08-15T11:23:31Z</time>
      </trkpt>
      <trkpt lat="43.42137" lon="1.6334">
        <ele>224.4</ele>
        <time>2023-08-15T11:23:34Z</time>
      </trkpt>
      <trkpt lat="43.4212" lon="1.63367">
        <ele>224.1</ele>
        <time>2023-08-15T11:23:38Z</time>
      </trkpt>
      <trkpt lat="43.42102" lon="1.63394">
        <ele>223.9</ele>
        <time>2023-08-15T11:23:42Z</time>
      </trkpt>
      <trkpt lat="43.42088" lon="1.63413">
        <ele>224.1</ele>
        <time>2023-08-15T11:23:45Z</time>
      </trkpt>
      <trkpt lat="43.4207" lon="1.63439">
        <ele>223.5</ele>
        <time>2023-08-15T11:23:49Z</time>
      </trkpt>
      <trkpt lat="43.42056" lon="1.63459">
        <ele>222.1</ele>
        <time>2023-08-15T11:23:52Z</time>
      </trkpt>
      <trkpt lat="43.42039" lon="1.63485">
        <ele>221.3</ele>
        <time>2023-08-15T11:23:56Z</time>
      </trkpt>
      <trkpt lat="43.42025" lon="1.63505">
        <ele>220.2</ele>
        <time>2023-08-15T11:23:59Z</time>
      </trkpt>
      <trkpt lat="43.42006" lon="1.63533">
        <ele>220.6</ele>
        <time>2023-08-15T11:24:03Z</time>
      </trkpt>
      <trkpt lat="43.41988" lon="1.6356">
        <ele>220.6</ele>
        <time>2023-08-15T11:24:07Z</time>
      </trkpt>
      <trkpt lat="43.41975" lon="1.63579">
        <ele>220.4</ele>
        <time>2023-08-15T11:24:10Z</time>
      </trkpt>
      <trkpt lat="43.41957" lon="1.63605">
        <ele>220.9</ele>
        <time>2023-08-15T11:24:14Z</time>
      </trkpt>
      <trkpt lat="43.41938" lon="1.63632">
        <ele>220.9</ele>
        <time>2023-08-15T11:24:18Z</time>
      </trkpt>
      <trkpt lat="43.4192" lon="1.6366">
        <ele>220.4</ele>
        <time>2023-08-15T11:24:22Z</time>
      </trkpt>
      <trkpt lat="43.41907" lon="1.6368">
        <ele>220.2</ele>
        <time>2023-08-15T11:24:25Z</time>
      </trkpt>
      <trkpt lat="43.41889" lon="1.63706">
        <ele>219.9</ele>
        <time>2023-08-15T11:24:29Z</time>
      </trkpt>
      <trkpt lat="43.41876" lon="1.63725">
        <ele>219.7</ele>
        <time>2023-08-15T11:24:32Z</time>
      </trkpt>
      <trkpt lat="43.41862" lon="1.63746">
        <ele>220.5</ele>
        <time>2023-08-15T11:24:35Z</time>
      </trkpt>
      <trkpt lat="43.41844" lon="1.63771">
        <ele>220.1</ele>
        <time>2023-08-15T11:24:39Z</time>
      </trkpt>
      <trkpt lat="43.4183" lon="1.63792">
        <ele>219.8</ele>
        <time>2023-08-15T11:24:42Z</time>
      </trkpt>
      <trkpt lat="43.41812" lon="1.63819">
        <ele>219.7</ele>
        <time>2023-08-15T11:24:46Z</time>
      </trkpt>
      <trkpt lat="43.41794" lon="1.63846">
        <ele>219.3</ele>
        <time>2023-08-15T11:24:50Z</time>
      </trkpt>
      <trkpt lat="43.41776" lon="1.63872">
        <ele>219.3</ele>
        <time>2023-08-15T11:24:54Z</time>
      </trkpt>
      <trkpt lat="43.41762" lon="1.63892">
        <ele>219.4</ele>
        <time>2023-08-15T11:24:57Z</time>
      </trkpt>
      <trkpt lat="43.41742" lon="1.63916">
        <ele>219.6</ele>
        <time>2023-08-15T11:25:01Z</time>
      </trkpt>
      <trkpt lat="43.41727" lon="1.63934">
        <ele>219.7</ele>
        <time>2023-08-15T11:25:04Z</time>
      </trkpt>
      <trkpt lat="43.41714" lon="1.63954">
        <ele>220.3</ele>
        <time>2023-08-15T11:25:07Z</time>
      </trkpt>
      <trkpt lat="43.41696" lon="1.6398">
        <ele>220.6</ele>
        <time>2023-08-15T11:25:11Z</time>
      </trkpt>
      <trkpt lat="43.41683" lon="1.64">
        <ele>220.1</ele>
        <time>2023-08-15T11:25:14Z</time>
      </trkpt>
      <trkpt lat="43.41665" lon="1.64028">
        <ele>220.1</ele>
        <time>2023-08-15T11:25:18Z</time>
      </trkpt>
      <trkpt lat="43.41653" lon="1.6405">
        <ele>219.4</ele>
        <time>2023-08-15T11:25:21Z</time>
      </trkpt>
      <trkpt lat="43.41636" lon="1.64078">
        <ele>219.4</ele>
        <time>2023-08-15T11:25:25Z</time>
      </trkpt>
      <trkpt lat="43.41623" lon="1.64097">
        <ele>218.7</ele>
        <time>2023-08-15T11:25:28Z</time>
      </trkpt>
      <trkpt lat="43.41605" lon="1.64122">
        <ele>219.2</ele>
        <time>2023-08-15T11:25:32Z</time>
      </trkpt>
      <trkpt lat="43.41587" lon="1.64148">
        <ele>219.1</ele>
        <time>2023-08-15T11:25:36Z</time>
      </trkpt>
      <trkpt lat="43.41569" lon="1.64176">
        <ele>219.1</ele>
        <time>2023-08-15T11:25:40Z</time>
      </trkpt>
      <trkpt lat="43.4155" lon="1.64203">
        <ele>219.4</ele>
        <time>2023-08-15T11:25:44Z</time>
      </trkpt>
      <trkpt lat="43.41536" lon="1.64223">
        <ele>220.6</ele>
        <time>2023-08-15T11:25:47Z</time>
      </trkpt>
      <trkpt lat="43.41522" lon="1.64243">
        <ele>220.3</ele>
        <time>2023-08-15T11:25:50Z</time>
      </trkpt>
      <trkpt lat="43.41504" lon="1.64269">
        <ele>219.7</ele>
        <time>2023-08-15T11:25:54Z</time>
      </trkpt>
      <trkpt lat="43.41486" lon="1.64295">
        <ele>219.2</ele>
        <time>2023-08-15T11:25:58Z</time>
      </trkpt>
      <trkpt lat="43.41473" lon="1.64314">
        <ele>219.3</ele>
        <time>2023-08-15T11:26:01Z</time>
      </trkpt>
      <trkpt lat="43.4146" lon="1.64333">
        <ele>220.4</ele>
        <time>2023-08-15T11:26:04Z</time>
      </trkpt>
      <trkpt lat="43.41442" lon="1.64358">
        <ele>220.2</ele>
        <time>2023-08-15T11:26:08Z</time>
      </trkpt>
      <trkpt lat="43.41422" lon="1.64384">
        <ele>220.2</ele>
        <time>2023-08-15T11:26:12Z</time>
      </trkpt>
      <trkpt lat="43.41402" lon="1.64409">
        <ele>220.7</ele>
        <time>2023-08-15T11:26:16Z</time>
      </trkpt>
      <trkpt lat="43.41388" lon="1.64429">
        <ele>221.2</ele>
        <time>2023-08-15T11:26:19Z</time>
      </trkpt>
      <trkpt lat="43.41368" lon="1.64453">
        <ele>220.2</ele>
        <time>2023-08-15T11:26:23Z</time>
      </trkpt>
      <trkpt lat="43.41349" lon="1.64478">
        <ele>220.8</ele>
        <time>2023-08-15T11:26:27Z</time>
      </trkpt>
      <trkpt lat="43.41334" lon="1.64496">
        <ele>220.3</ele>
        <time>2023-08-15T11:26:30Z</time>
      </trkpt>
      <trkpt lat="43.41315" lon="1.64521">
        <ele>221.5</ele>
        <time>2023-08-15T11:26:34Z</time>
      </trkpt>
      <trkpt lat="43.41295" lon="1.64545">
        <ele>221.3</ele>
        <time>2023-08-15T11:26:38Z</time>
      </trkpt>
      <trkpt lat="43.41276" lon="1.6457">
        <ele>221.3</ele>
        <time>2023-08-15T11:26:42Z</time>
      </trkpt>
      <trkpt lat="43.41256" lon="1.64595">
        <ele>221.2</ele>
        <time>2023-08-15T11:26:46Z</time>
      </trkpt>
      <trkpt lat="43.41238" lon="1.6462">
        <ele>221.4</ele>
        <time>2023-08-15T11:26:50Z</time>
      </trkpt>
      <trkpt lat="43.41218" lon="1.64645">
        <ele>221.6</ele>
        <time>2023-08-15T11:26:54Z</time>
      </trkpt>
      <trkpt lat="43.41198" lon="1.6467">
        <ele>221.1</ele>
        <time>2023-08-15T11:26:58Z</time>
      </trkpt>
      <trkpt lat="43.41182" lon="1.64688">
        <ele>221</ele>
        <time>2023-08-15T11:27:01Z</time>
      </trkpt>
      <trkpt lat="43.41166" lon="1.64706">
        <ele>221</ele>
        <time>2023-08-15T11:27:04Z</time>
      </trkpt>
      <trkpt lat="43.41147" lon="1.64731">
        <ele>221.5</ele>
        <time>2023-08-15T11:27:08Z</time>
      </trkpt>
      <trkpt lat="43.41128" lon="1.64758">
        <ele>222.5</ele>
        <time>2023-08-15T11:27:12Z</time>
      </trkpt>
      <trkpt lat="43.41115" lon="1.64779">
        <ele>222.5</ele>
        <time>2023-08-15T11:27:15Z</time>
      </trkpt>
      <trkpt lat="43.411" lon="1.64807">
        <ele>222.6</ele>
        <time>2023-08-15T11:27:19Z</time>
      </trkpt>
      <trkpt lat="43.41085" lon="1.64838">
        <ele>221.1</ele>
        <time>2023-08-15T11:27:23Z</time>
      </trkpt>
      <trkpt lat="43.41075" lon="1.64863">
        <ele>221.5</ele>
        <time>2023-08-15T11:27:26Z</time>
      </trkpt>
      <trkpt lat="43.41064" lon="1.64894">
        <ele>221</ele>
        <time>2023-08-15T11:27:30Z</time>
      </trkpt>
      <trkpt lat="43.41053" lon="1.64926">
        <ele>221.4</ele>
        <time>2023-08-15T11:27:34Z</time>
      </trkpt>
      <trkpt lat="43.41044" lon="1.6495">
        <ele>221.7</ele>
        <time>2023-08-15T11:27:37Z</time>
      </trkpt>
      <trkpt lat="43.41035" lon="1.64974">
        <ele>221.4</ele>
        <time>2023-08-15T11:27:40Z</time>
      </trkpt>
      <trkpt lat="43.41024" lon="1.65006">
        <ele>221.5</ele>
        <time>2023-08-15T11:27:44Z</time>
      </trkpt>
      <trkpt lat="43.41011" lon="1.65038">
        <ele>222</ele>
        <time>2023-08-15T11:27:48Z</time>
      </trkpt>
      <trkpt lat="43.41002" lon="1.65062">
        <ele>221.6</ele>
        <time>2023-08-15T11:27:51Z</time>
      </trkpt>
      <trkpt lat="43.40991" lon="1.65095">
        <ele>221.6</ele>
        <time>2023-08-15T11:27:55Z</time>
      </trkpt>
      <trkpt lat="43.40981" lon="1.6512">
        <ele>221.7</ele>
        <time>2023-08-15T11:27:58Z</time>
      </trkpt>
      <trkpt lat="43.40969" lon="1.65152">
        <ele>220.3</ele>
        <time>2023-08-15T11:28:02Z</time>
      </trkpt>
      <trkpt lat="43.40956" lon="1.65184">
        <ele>220.2</ele>
        <time>2023-08-15T11:28:06Z</time>
      </trkpt>
      <trkpt lat="43.40944" lon="1.65218">
        <ele>220.4</ele>
        <time>2023-08-15T11:28:10Z</time>
      </trkpt>
      <trkpt lat="43.40935" lon="1.65243">
        <ele>220.8</ele>
        <time>2023-08-15T11:28:13Z</time>
      </trkpt>
      <trkpt lat="43.40923" lon="1.65275">
        <ele>221.3</ele>
        <time>2023-08-15T11:28:17Z</time>
      </trkpt>
      <trkpt lat="43.40911" lon="1.65307">
        <ele>221</ele>
        <time>2023-08-15T11:28:21Z</time>
      </trkpt>
      <trkpt lat="43.40904" lon="1.65331">
        <ele>221.4</ele>
        <time>2023-08-15T11:28:24Z</time>
      </trkpt>
      <trkpt lat="43.40891" lon="1.65362">
        <ele>220.9</ele>
        <time>2023-08-15T11:28:28Z</time>
      </trkpt>
      <trkpt lat="43.4088" lon="1.65394">
        <ele>221.7</ele>
        <time>2023-08-15T11:28:32Z</time>
      </trkpt>
      <trkpt lat="43.40867" lon="1.65428">
        <ele>221.7</ele>
        <time>2023-08-15T11:28:36Z</time>
      </trkpt>
      <trkpt lat="43.40857" lon="1.65453">
        <ele>222.3</ele>
        <time>2023-08-15T11:28:39Z</time>
      </trkpt>
      <trkpt lat="43.40844" lon="1.65486">
        <ele>221.3</ele>
        <time>2023-08-15T11:28:43Z</time>
      </trkpt>
      <trkpt lat="43.40836" lon="1.6551">
        <ele>221.4</ele>
        <time>2023-08-15T11:28:46Z</time>
      </trkpt>
      <trkpt lat="43.40824" lon="1.6554">
        <ele>221.4</ele>
        <time>2023-08-15T11:28:50Z</time>
      </trkpt>
      <trkpt lat="43.40812" lon="1.65574">
        <ele>220.2</ele>
        <time>2023-08-15T11:28:54Z</time>
      </trkpt>
      <trkpt lat="43.408" lon="1.65606">
        <ele>221.3</ele>
        <time>2023-08-15T11:28:58Z</time>
      </trkpt>
      <trkpt lat="43.4079" lon="1.6563">
        <ele>221.6</ele>
        <time>2023-08-15T11:29:01Z</time>
      </trkpt>
      <trkpt lat="43.40782" lon="1.65655">
        <ele>220.9</ele>
        <time>2023-08-15T11:29:04Z</time>
      </trkpt>
      <trkpt lat="43.40773" lon="1.65679">
        <ele>220.9</ele>
        <time>2023-08-15T11:29:07Z</time>
      </trkpt>
      <trkpt lat="43.40761" lon="1.6571">
        <ele>221.6</ele>
        <time>2023-08-15T11:29:11Z</time>
      </trkpt>
      <trkpt lat="43.40752" lon="1.65733">
        <ele>221.8</ele>
        <time>2023-08-15T11:29:14Z</time>
      </trkpt>
      <trkpt lat="43.40742" lon="1.65758">
        <ele>221.8</ele>
        <time>2023-08-15T11:29:17Z</time>
      </trkpt>
      <trkpt lat="43.4073" lon="1.65791">
        <ele>221.8</ele>
        <time>2023-08-15T11:29:21Z</time>
      </trkpt>
      <trkpt lat="43.40717" lon="1.65825">
        <ele>221.7</ele>
        <time>2023-08-15T11:29:25Z</time>
      </trkpt>
      <trkpt lat="43.40708" lon="1.6585">
        <ele>222.1</ele>
        <time>2023-08-15T11:29:28Z</time>
      </trkpt>
      <trkpt lat="43.40697" lon="1.65881">
        <ele>221.9</ele>
        <time>2023-08-15T11:29:32Z</time>
      </trkpt>
      <trkpt lat="43.40686" lon="1.65912">
        <ele>221.9</ele>
        <time>2023-08-15T11:29:36Z</time>
      </trkpt>
      <trkpt lat="43.40677" lon="1.65937">
        <ele>221.9</ele>
        <time>2023-08-15T11:29:39Z</time>
      </trkpt>
      <trkpt lat="43.40665" lon="1.65968">
        <ele>221.7</ele>
        <time>2023-08-15T11:29:43Z</time>
      </trkpt>
      <trkpt lat="43.40656" lon="1.65992">
        <ele>221.6</ele>
        <time>2023-08-15T11:29:46Z</time>
      </trkpt>
      <trkpt lat="43.40644" lon="1.66024">
        <ele>221</ele>
        <time>2023-08-15T11:29:50Z</time>
      </trkpt>
      <trkpt lat="43.40636" lon="1.66046">
        <ele>220.8</ele>
        <time>2023-08-15T11:29:53Z</time>
      </trkpt>
      <trkpt lat="43.40628" lon="1.6607">
        <ele>221.4</ele>
        <time>2023-08-15T11:29:56Z</time>
      </trkpt>
      <trkpt lat="43.40615" lon="1.66102">
        <ele>221.4</ele>
        <time>2023-08-15T11:30:00Z</time>
      </trkpt>
      <trkpt lat="43.40605" lon="1.66127">
        <ele>221.6</ele>
        <time>2023-08-15T11:30:03Z</time>
      </trkpt>
      <trkpt lat="43.40592" lon="1.66158">
        <ele>221.1</ele>
        <time>2023-08-15T11:30:07Z</time>
      </trkpt>
      <trkpt lat="43.40579" lon="1.66191">
        <ele>221</ele>
        <time>2023-08-15T11:30:11Z</time>
      </trkpt>
      <trkpt lat="43.4057" lon="1.66215">
        <ele>221.2</ele>
        <time>2023-08-15T11:30:14Z</time>
      </trkpt>
      <trkpt lat="43.40558" lon="1.66246">
        <ele>221.1</ele>
        <time>2023-08-15T11:30:18Z</time>
      </trkpt>
      <trkpt lat="43.40546" lon="1.66279">
        <ele>221.5</ele>
        <time>2023-08-15T11:30:22Z</time>
      </trkpt>
      <trkpt lat="43.40535" lon="1.66309">
        <ele>221.3</ele>
        <time>2023-08-15T11:30:26Z</time>
      </trkpt>
      <trkpt lat="43.40524" lon="1.66339">
        <ele>221.1</ele>
        <time>2023-08-15T11:30:30Z</time>
      </trkpt>
      <trkpt lat="43.40513" lon="1.66371">
        <ele>221.5</ele>
        <time>2023-08-15T11:30:34Z</time>
      </trkpt>
      <trkpt lat="43.40504" lon="1.66395">
        <ele>221.7</ele>
        <time>2023-08-15T11:30:37Z</time>
      </trkpt>
      <trkpt lat="43.40492" lon="1.66428">
        <ele>221.9</ele>
        <time>2023-08-15T11:30:41Z</time>
      </trkpt>
      <trkpt lat="43.40479" lon="1.66461">
        <ele>222.2</ele>
        <time>2023-08-15T11:30:45Z</time>
      </trkpt>
      <trkpt lat="43.40469" lon="1.66485">
        <ele>222.2</ele>
        <time>2023-08-15T11:30:48Z</time>
      </trkpt>
      <trkpt lat="43.40457" lon="1.66518">
        <ele>222.5</ele>
        <time>2023-08-15T11:30:52Z</time>
      </trkpt>
      <trkpt lat="43.40448" lon="1.66543">
        <ele>222.5</ele>
        <time>2023-08-15T11:30:55Z</time>
      </trkpt>
      <trkpt lat="43.40436" lon="1.66575">
        <ele>222.9</ele>
        <time>2023-08-15T11:30:59Z</time>
      </trkpt>
      <trkpt lat="43.40427" lon="1.66601">
        <ele>223.2</ele>
        <time>2023-08-15T11:31:02Z</time>
      </trkpt>
      <trkpt lat="43.40413" lon="1.66634">
        <ele>222.9</ele>
        <time>2023-08-15T11:31:06Z</time>
      </trkpt>
      <trkpt lat="43.40399" lon="1.66665">
        <ele>222.6</ele>
        <time>2023-08-15T11:31:10Z</time>
      </trkpt>
      <trkpt lat="43.40387" lon="1.66689">
        <ele>222.7</ele>
        <time>2023-08-15T11:31:13Z</time>
      </trkpt>
      <trkpt lat="43.40371" lon="1.66719">
        <ele>223.1</ele>
        <time>2023-08-15T11:31:17Z</time>
      </trkpt>
      <trkpt lat="43.4036" lon="1.66743">
        <ele>223.1</ele>
        <time>2023-08-15T11:31:20Z</time>
      </trkpt>
      <trkpt lat="43.40345" lon="1.66773">
        <ele>223.3</ele>
        <time>2023-08-15T11:31:24Z</time>
      </trkpt>
      <trkpt lat="43.40334" lon="1.66796">
        <ele>223</ele>
        <time>2023-08-15T11:31:27Z</time>
      </trkpt>
      <trkpt lat="43.40321" lon="1.66818">
        <ele>222.9</ele>
        <time>2023-08-15T11:31:30Z</time>
      </trkpt>
      <trkpt lat="43.40306" lon="1.66848">
        <ele>223.2</ele>
        <time>2023-08-15T11:31:34Z</time>
      </trkpt>
      <trkpt lat="43.40295" lon="1.66871">
        <ele>223</ele>
        <time>2023-08-15T11:31:37Z</time>
      </trkpt>
      <trkpt lat="43.40281" lon="1.669">
        <ele>224.4</ele>
        <time>2023-08-15T11:31:41Z</time>
      </trkpt>
      <trkpt lat="43.40269" lon="1.66922">
        <ele>224.5</ele>
        <time>2023-08-15T11:31:44Z</time>
      </trkpt>
      <trkpt lat="43.40254" lon="1.6695">
        <ele>224.1</ele>
        <time>2023-08-15T11:31:48Z</time>
      </trkpt>
      <trkpt lat="43.40239" lon="1.66978">
        <ele>224.3</ele>
        <time>2023-08-15T11:31:52Z</time>
      </trkpt>
      <trkpt lat="43.40224" lon="1.67008">
        <ele>225.5</ele>
        <time>2023-08-15T11:31:56Z</time>
      </trkpt>
      <trkpt lat="43.40212" lon="1.67029">
        <ele>225.4</ele>
        <time>2023-08-15T11:31:59Z</time>
      </trkpt>
      <trkpt lat="43.40197" lon="1.67059">
        <ele>225.4</ele>
        <time>2023-08-15T11:32:03Z</time>
      </trkpt>
      <trkpt lat="43.40186" lon="1.67082">
        <ele>225.4</ele>
        <time>2023-08-15T11:32:06Z</time>
      </trkpt>
      <trkpt lat="43.40171" lon="1.67116">
        <ele>225</ele>
        <time>2023-08-15T11:32:10Z</time>
      </trkpt>
      <trkpt lat="43.4016" lon="1.67137">
        <ele>225.5</ele>
        <time>2023-08-15T11:32:13Z</time>
      </trkpt>
      <trkpt lat="43.40145" lon="1.67167">
        <ele>226.8</ele>
        <time>2023-08-15T11:32:17Z</time>
      </trkpt>
      <trkpt lat="43.40133" lon="1.6719">
        <ele>226.8</ele>
        <time>2023-08-15T11:32:20Z</time>
      </trkpt>
      <trkpt lat="43.40122" lon="1.67212">
        <ele>227.1</ele>
        <time>2023-08-15T11:32:23Z</time>
      </trkpt>
      <trkpt lat="43.40108" lon="1.67242">
        <ele>226.6</ele>
        <time>2023-08-15T11:32:27Z</time>
      </trkpt>
      <trkpt lat="43.40097" lon="1.67265">
        <ele>226.5</ele>
        <time>2023-08-15T11:32:30Z</time>
      </trkpt>
      <trkpt lat="43.40083" lon="1.67296">
        <ele>226.9</ele>
        <time>2023-08-15T11:32:34Z</time>
      </trkpt>
      <trkpt lat="43.40072" lon="1.6732">
        <ele>228.5</ele>
        <time>2023-08-15T11:32:37Z</time>
      </trkpt>
      <trkpt lat="43.40058" lon="1.6735">
        <ele>228.1</ele>
        <time>2023-08-15T11:32:41Z</time>
      </trkpt>
      <trkpt lat="43.40045" lon="1.67381">
        <ele>228.9</ele>
        <time>2023-08-15T11:32:45Z</time>
      </trkpt>
      <trkpt lat="43.40031" lon="1.67412">
        <ele>229.6</ele>
        <time>2023-08-15T11:32:49Z</time>
      </trkpt>
      <trkpt lat="43.40017" lon="1.67443">
        <ele>229</ele>
        <time>2023-08-15T11:32:53Z</time>
      </trkpt>
      <trkpt lat="43.40003" lon="1.67476">
        <ele>229.2</ele>
        <time>2023-08-15T11:32:57Z</time>
      </trkpt>
      <trkpt lat="43.39994" lon="1.675">
        <ele>229.4</ele>
        <time>2023-08-15T11:33:00Z</time>
      </trkpt>
      <trkpt lat="43.39985" lon="1.67524">
        <ele>230.1</ele>
        <time>2023-08-15T11:33:03Z</time>
      </trkpt>
      <trkpt lat="43.39968" lon="1.67562">
        <ele>229.8</ele>
        <time>2023-08-15T11:33:08Z</time>
      </trkpt>
      <trkpt lat="43.3996" lon="1.6758">
        <ele>229.5</ele>
        <time>2023-08-15T11:33:12Z</time>
      </trkpt>
      <trkpt lat="43.3995" lon="1.67602">
        <ele>229.5</ele>
        <time>2023-08-15T11:33:16Z</time>
      </trkpt>
      <trkpt lat="43.39937" lon="1.67628">
        <ele>230.8</ele>
        <time>2023-08-15T11:33:20Z</time>
      </trkpt>
      <trkpt lat="43.39927" lon="1.67649">
        <ele>229.6</ele>
        <time>2023-08-15T11:33:23Z</time>
      </trkpt>
      <trkpt lat="43.39915" lon="1.67673">
        <ele>230.3</ele>
        <time>2023-08-15T11:33:26Z</time>
      </trkpt>
      <trkpt lat="43.39901" lon="1.67697">
        <ele>229.6</ele>
        <time>2023-08-15T11:33:29Z</time>
      </trkpt>
      <trkpt lat="43.39886" lon="1.67725">
        <ele>228.8</ele>
        <time>2023-08-15T11:33:33Z</time>
      </trkpt>
      <trkpt lat="43.39871" lon="1.67752">
        <ele>228.5</ele>
        <time>2023-08-15T11:33:37Z</time>
      </trkpt>
      <trkpt lat="43.39858" lon="1.67775">
        <ele>227.5</ele>
        <time>2023-08-15T11:33:40Z</time>
      </trkpt>
      <trkpt lat="43.39841" lon="1.67806">
        <ele>228.1</ele>
        <time>2023-08-15T11:33:44Z</time>
      </trkpt>
      <trkpt lat="43.39829" lon="1.67826">
        <ele>228</ele>
        <time>2023-08-15T11:33:47Z</time>
      </trkpt>
      <trkpt lat="43.39817" lon="1.67847">
        <ele>227.7</ele>
        <time>2023-08-15T11:33:50Z</time>
      </trkpt>
      <trkpt lat="43.39802" lon="1.67876">
        <ele>227.2</ele>
        <time>2023-08-15T11:33:54Z</time>
      </trkpt>
      <trkpt lat="43.39791" lon="1.67897">
        <ele>227.6</ele>
        <time>2023-08-15T11:33:57Z</time>
      </trkpt>
      <trkpt lat="43.39779" lon="1.67918">
        <ele>227.7</ele>
        <time>2023-08-15T11:34:00Z</time>
      </trkpt>
      <trkpt lat="43.39767" lon="1.6794">
        <ele>226.9</ele>
        <time>2023-08-15T11:34:03Z</time>
      </trkpt>
      <trkpt lat="43.39755" lon="1.67962">
        <ele>226.7</ele>
        <time>2023-08-15T11:34:06Z</time>
      </trkpt>
      <trkpt lat="43.39739" lon="1.67991">
        <ele>226.4</ele>
        <time>2023-08-15T11:34:10Z</time>
      </trkpt>
      <trkpt lat="43.39723" lon="1.6802">
        <ele>227.8</ele>
        <time>2023-08-15T11:34:14Z</time>
      </trkpt>
      <trkpt lat="43.39711" lon="1.68042">
        <ele>227</ele>
        <time>2023-08-15T11:34:17Z</time>
      </trkpt>
      <trkpt lat="43.39698" lon="1.68064">
        <ele>227</ele>
        <time>2023-08-15T11:34:20Z</time>
      </trkpt>
      <trkpt lat="43.39682" lon="1.68093">
        <ele>227.5</ele>
        <time>2023-08-15T11:34:24Z</time>
      </trkpt>
      <trkpt lat="43.39666" lon="1.68123">
        <ele>227.7</ele>
        <time>2023-08-15T11:34:28Z</time>
      </trkpt>
      <trkpt lat="43.3965" lon="1.68153">
        <ele>227.6</ele>
        <time>2023-08-15T11:34:32Z</time>
      </trkpt>
      <trkpt lat="43.39633" lon="1.68182">
        <ele>227.3</ele>
        <time>2023-08-15T11:34:36Z</time>
      </trkpt>
      <trkpt lat="43.3962" lon="1.68203">
        <ele>227.3</ele>
        <time>2023-08-15T11:34:39Z</time>
      </trkpt>
      <trkpt lat="43.39603" lon="1.68232">
        <ele>227.2</ele>
        <time>2023-08-15T11:34:43Z</time>
      </trkpt>
      <trkpt lat="43.39592" lon="1.68254">
        <ele>226.7</ele>
        <time>2023-08-15T11:34:46Z</time>
      </trkpt>
      <trkpt lat="43.39581" lon="1.68275">
        <ele>226.9</ele>
        <time>2023-08-15T11:34:49Z</time>
      </trkpt>
      <trkpt lat="43.39565" lon="1.68304">
        <ele>226.9</ele>
        <time>2023-08-15T11:34:53Z</time>
      </trkpt>
      <trkpt lat="43.39554" lon="1.68327">
        <ele>226.8</ele>
        <time>2023-08-15T11:34:56Z</time>
      </trkpt>
      <trkpt lat="43.39538" lon="1.68356">
        <ele>226.1</ele>
        <time>2023-08-15T11:35:00Z</time>
      </trkpt>
      <trkpt lat="43.39526" lon="1.68378">
        <ele>226.2</ele>
        <time>2023-08-15T11:35:03Z</time>
      </trkpt>
      <trkpt lat="43.39509" lon="1.68407">
        <ele>226.7</ele>
        <time>2023-08-15T11:35:07Z</time>
      </trkpt>
      <trkpt lat="43.39491" lon="1.68433">
        <ele>226.6</ele>
        <time>2023-08-15T11:35:11Z</time>
      </trkpt>
      <trkpt lat="43.39473" lon="1.68462">
        <ele>226.3</ele>
        <time>2023-08-15T11:35:15Z</time>
      </trkpt>
      <trkpt lat="43.3946" lon="1.68482">
        <ele>226.4</ele>
        <time>2023-08-15T11:35:18Z</time>
      </trkpt>
      <trkpt lat="43.39442" lon="1.68507">
        <ele>226.9</ele>
        <time>2023-08-15T11:35:22Z</time>
      </trkpt>
      <trkpt lat="43.3942" lon="1.68525">
        <ele>226.9</ele>
        <time>2023-08-15T11:35:26Z</time>
      </trkpt>
      <trkpt lat="43.39402" lon="1.68534">
        <ele>225.5</ele>
        <time>2023-08-15T11:35:29Z</time>
      </trkpt>
      <trkpt lat="43.39377" lon="1.68541">
        <ele>226.4</ele>
        <time>2023-08-15T11:35:33Z</time>
      </trkpt>
      <trkpt lat="43.3935" lon="1.6854">
        <ele>226.3</ele>
        <time>2023-08-15T11:35:37Z</time>
      </trkpt>
      <trkpt lat="43.39323" lon="1.6853">
        <ele>226.7</ele>
        <time>2023-08-15T11:35:41Z</time>
      </trkpt>
      <trkpt lat="43.39298" lon="1.68519">
        <ele>227.1</ele>
        <time>2023-08-15T11:35:45Z</time>
      </trkpt>
      <trkpt lat="43.39278" lon="1.68509">
        <ele>227.1</ele>
        <time>2023-08-15T11:35:49Z</time>
      </trkpt>
      <trkpt lat="43.39264" lon="1.68501">
        <ele>227</ele>
        <time>2023-08-15T11:35:52Z</time>
      </trkpt>
      <trkpt lat="43.39249" lon="1.68494">
        <ele>227.2</ele>
        <time>2023-08-15T11:35:55Z</time>
      </trkpt>
      <trkpt lat="43.39225" lon="1.68483">
        <ele>227.8</ele>
        <time>2023-08-15T11:35:59Z</time>
      </trkpt>
      <trkpt lat="43.39209" lon="1.68476">
        <ele>227.4</ele>
        <time>2023-08-15T11:36:02Z</time>
      </trkpt>
      <trkpt lat="43.3919" lon="1.68468">
        <ele>227.1</ele>
        <time>2023-08-15T11:36:06Z</time>
      </trkpt>
      <trkpt lat="43.39174" lon="1.68464">
        <ele>227.5</ele>
        <time>2023-08-15T11:36:09Z</time>
      </trkpt>
      <trkpt lat="43.39152" lon="1.68455">
        <ele>226.8</ele>
        <time>2023-08-15T11:36:13Z</time>
      </trkpt>
      <trkpt lat="43.39135" lon="1.68447">
        <ele>226.8</ele>
        <time>2023-08-15T11:36:16Z</time>
      </trkpt>
      <trkpt lat="43.39113" lon="1.68436">
        <ele>227.2</ele>
        <time>2023-08-15T11:36:20Z</time>
      </trkpt>
      <trkpt lat="43.39098" lon="1.68427">
        <ele>227.1</ele>
        <time>2023-08-15T11:36:23Z</time>
      </trkpt>
      <trkpt lat="43.39082" lon="1.68413">
        <ele>227.6</ele>
        <time>2023-08-15T11:36:27Z</time>
      </trkpt>
      <trkpt lat="43.3907" lon="1.68411">
        <ele>227.5</ele>
        <time>2023-08-15T11:36:31Z</time>
      </trkpt>
      <trkpt lat="43.39066" lon="1.68434">
        <ele>228.6</ele>
        <time>2023-08-15T11:36:35Z</time>
      </trkpt>
      <trkpt lat="43.39061" lon="1.68468">
        <ele>228.4</ele>
        <time>2023-08-15T11:36:39Z</time>
      </trkpt>
      <trkpt lat="43.39056" lon="1.68502">
        <ele>228.4</ele>
        <time>2023-08-15T11:36:42Z</time>
      </trkpt>
      <trkpt lat="43.3905" lon="1.68542">
        <ele>228.4</ele>
        <time>2023-08-15T11:36:46Z</time>
      </trkpt>
      <trkpt lat="43.39044" lon="1.68574">
        <ele>228.4</ele>
        <time>2023-08-15T11:36:50Z</time>
      </trkpt>
      <trkpt lat="43.39041" lon="1.686">
        <ele>228.4</ele>
        <time>2023-08-15T11:36:53Z</time>
      </trkpt>
      <trkpt lat="43.39037" lon="1.68627">
        <ele>228.4</ele>
        <time>2023-08-15T11:36:56Z</time>
      </trkpt>
      <trkpt lat="43.39032" lon="1.68662">
        <ele>228.4</ele>
        <time>2023-08-15T11:37:00Z</time>
      </trkpt>
      <trkpt lat="43.39028" lon="1.68689">
        <ele>228.4</ele>
        <time>2023-08-15T11:37:03Z</time>
      </trkpt>
      <trkpt lat="43.39022" lon="1.68725">
        <ele>228.4</ele>
        <time>2023-08-15T11:37:07Z</time>
      </trkpt>
      <trkpt lat="43.39016" lon="1.6876">
        <ele>228.4</ele>
        <time>2023-08-15T11:37:11Z</time>
      </trkpt>
      <trkpt lat="43.3901" lon="1.68795">
        <ele>228.4</ele>
        <time>2023-08-15T11:37:15Z</time>
      </trkpt>
      <trkpt lat="43.3901" lon="1.68831">
        <ele>228.4</ele>
        <time>2023-08-15T11:37:19Z</time>
      </trkpt>
      <trkpt lat="43.39015" lon="1.68867">
        <ele>228.4</ele>
        <time>2023-08-15T11:37:23Z</time>
      </trkpt>
      <trkpt lat="43.39021" lon="1.68893">
        <ele>228.4</ele>
        <time>2023-08-15T11:37:26Z</time>
      </trkpt>
      <trkpt lat="43.39029" lon="1.68928">
        <ele>228.4</ele>
        <time>2023-08-15T11:37:30Z</time>
      </trkpt>
      <trkpt lat="43.39045" lon="1.6896">
        <ele>228.4</ele>
        <time>2023-08-15T11:37:34Z</time>
      </trkpt>
      <trkpt lat="43.39058" lon="1.68981">
        <ele>228.4</ele>
        <time>2023-08-15T11:37:37Z</time>
      </trkpt>
      <trkpt lat="43.39072" lon="1.69">
        <ele>228.4</ele>
        <time>2023-08-15T11:37:40Z</time>
      </trkpt>
      <trkpt lat="43.39086" lon="1.69019">
        <ele>228.4</ele>
        <time>2023-08-15T11:37:43Z</time>
      </trkpt>
      <trkpt lat="43.39104" lon="1.69046">
        <ele>228.4</ele>
        <time>2023-08-15T11:37:47Z</time>
      </trkpt>
      <trkpt lat="43.39117" lon="1.69067">
        <ele>228.4</ele>
        <time>2023-08-15T11:37:50Z</time>
      </trkpt>
      <trkpt lat="43.39132" lon="1.69091">
        <ele>228.4</ele>
        <time>2023-08-15T11:37:54Z</time>
      </trkpt>
      <trkpt lat="43.39139" lon="1.69105">
        <ele>228.4</ele>
        <time>2023-08-15T11:37:57Z</time>
      </trkpt>
      <trkpt lat="43.3913" lon="1.69123">
        <ele>228.4</ele>
        <time>2023-08-15T11:38:01Z</time>
      </trkpt>
      <trkpt lat="43.39111" lon="1.69145">
        <ele>228.7</ele>
        <time>2023-08-15T11:38:05Z</time>
      </trkpt>
      <trkpt lat="43.3909" lon="1.69176">
        <ele>228.7</ele>
        <time>2023-08-15T11:38:09Z</time>
      </trkpt>
      <trkpt lat="43.39075" lon="1.69196">
        <ele>228.7</ele>
        <time>2023-08-15T11:38:12Z</time>
      </trkpt>
      <trkpt lat="43.39057" lon="1.69222">
        <ele>228.7</ele>
        <time>2023-08-15T11:38:16Z</time>
      </trkpt>
      <trkpt lat="43.3904" lon="1.69248">
        <ele>228.7</ele>
        <time>2023-08-15T11:38:20Z</time>
      </trkpt>
      <trkpt lat="43.39023" lon="1.69275">
        <ele>228.7</ele>
        <time>2023-08-15T11:38:24Z</time>
      </trkpt>
      <trkpt lat="43.39004" lon="1.693">
        <ele>228.7</ele>
        <time>2023-08-15T11:38:28Z</time>
      </trkpt>
      <trkpt lat="43.38985" lon="1.69326">
        <ele>228.7</ele>
        <time>2023-08-15T11:38:32Z</time>
      </trkpt>
      <trkpt lat="43.38966" lon="1.69352">
        <ele>228.7</ele>
        <time>2023-08-15T11:38:36Z</time>
      </trkpt>
      <trkpt lat="43.38952" lon="1.69372">
        <ele>228.7</ele>
        <time>2023-08-15T11:38:39Z</time>
      </trkpt>
      <trkpt lat="43.38934" lon="1.69397">
        <ele>228.7</ele>
        <time>2023-08-15T11:38:43Z</time>
      </trkpt>
      <trkpt lat="43.38915" lon="1.69421">
        <ele>228.7</ele>
        <time>2023-08-15T11:38:47Z</time>
      </trkpt>
      <trkpt lat="43.38895" lon="1.69445">
        <ele>228.7</ele>
        <time>2023-08-15T11:38:51Z</time>
      </trkpt>
      <trkpt lat="43.38876" lon="1.6947">
        <ele>228.7</ele>
        <time>2023-08-15T11:38:55Z</time>
      </trkpt>
      <trkpt lat="43.38856" lon="1.69496">
        <ele>228.7</ele>
        <time>2023-08-15T11:38:59Z</time>
      </trkpt>
      <trkpt lat="43.38837" lon="1.69521">
        <ele>228.7</ele>
        <time>2023-08-15T11:39:03Z</time>
      </trkpt>
      <trkpt lat="43.38818" lon="1.69546">
        <ele>228.7</ele>
        <time>2023-08-15T11:39:07Z</time>
      </trkpt>
      <trkpt lat="43.38804" lon="1.69564">
        <ele>228.7</ele>
        <time>2023-08-15T11:39:10Z</time>
      </trkpt>
      <trkpt lat="43.38785" lon="1.69589">
        <ele>228.7</ele>
        <time>2023-08-15T11:39:14Z</time>
      </trkpt>
      <trkpt lat="43.3877" lon="1.69609">
        <ele>228.7</ele>
        <time>2023-08-15T11:39:17Z</time>
      </trkpt>
      <trkpt lat="43.3875" lon="1.69634">
        <ele>228.7</ele>
        <time>2023-08-15T11:39:21Z</time>
      </trkpt>
      <trkpt lat="43.38732" lon="1.69659">
        <ele>230.4</ele>
        <time>2023-08-15T11:39:25Z</time>
      </trkpt>
      <trkpt lat="43.38712" lon="1.69684">
        <ele>230.9</ele>
        <time>2023-08-15T11:39:29Z</time>
      </trkpt>
      <trkpt lat="43.38699" lon="1.69705">
        <ele>230.4</ele>
        <time>2023-08-15T11:39:32Z</time>
      </trkpt>
      <trkpt lat="43.38681" lon="1.69731">
        <ele>230.8</ele>
        <time>2023-08-15T11:39:36Z</time>
      </trkpt>
      <trkpt lat="43.38667" lon="1.69752">
        <ele>230.9</ele>
        <time>2023-08-15T11:39:39Z</time>
      </trkpt>
      <trkpt lat="43.38649" lon="1.69777">
        <ele>230.7</ele>
        <time>2023-08-15T11:39:43Z</time>
      </trkpt>
      <trkpt lat="43.38631" lon="1.69802">
        <ele>230.6</ele>
        <time>2023-08-15T11:39:47Z</time>
      </trkpt>
      <trkpt lat="43.38614" lon="1.69828">
        <ele>230.7</ele>
        <time>2023-08-15T11:39:51Z</time>
      </trkpt>
      <trkpt lat="43.38596" lon="1.69853">
        <ele>230.9</ele>
        <time>2023-08-15T11:39:55Z</time>
      </trkpt>
      <trkpt lat="43.38583" lon="1.69873">
        <ele>231.1</ele>
        <time>2023-08-15T11:39:58Z</time>
      </trkpt>
      <trkpt lat="43.38565" lon="1.699">
        <ele>230.9</ele>
        <time>2023-08-15T11:40:02Z</time>
      </trkpt>
      <trkpt lat="43.38551" lon="1.6992">
        <ele>232</ele>
        <time>2023-08-15T11:40:05Z</time>
      </trkpt>
      <trkpt lat="43.38538" lon="1.69941">
        <ele>231.7</ele>
        <time>2023-08-15T11:40:08Z</time>
      </trkpt>
      <trkpt lat="43.38523" lon="1.69971">
        <ele>231.5</ele>
        <time>2023-08-15T11:40:12Z</time>
      </trkpt>
      <trkpt lat="43.38509" lon="1.70002">
        <ele>232.9</ele>
        <time>2023-08-15T11:40:16Z</time>
      </trkpt>
      <trkpt lat="43.38499" lon="1.70025">
        <ele>233.1</ele>
        <time>2023-08-15T11:40:19Z</time>
      </trkpt>
      <trkpt lat="43.38487" lon="1.70058">
        <ele>233.2</ele>
        <time>2023-08-15T11:40:23Z</time>
      </trkpt>
      <trkpt lat="43.38474" lon="1.70091">
        <ele>233.8</ele>
        <time>2023-08-15T11:40:27Z</time>
      </trkpt>
      <trkpt lat="43.38461" lon="1.70123">
        <ele>233.6</ele>
        <time>2023-08-15T11:40:31Z</time>
      </trkpt>
      <trkpt lat="43.38448" lon="1.70155">
        <ele>233.2</ele>
        <time>2023-08-15T11:40:35Z</time>
      </trkpt>
      <trkpt lat="43.38438" lon="1.70179">
        <ele>233.2</ele>
        <time>2023-08-15T11:40:38Z</time>
      </trkpt>
      <trkpt lat="43.38428" lon="1.70204">
        <ele>233.1</ele>
        <time>2023-08-15T11:40:41Z</time>
      </trkpt>
      <trkpt lat="43.38414" lon="1.70235">
        <ele>233</ele>
        <time>2023-08-15T11:40:45Z</time>
      </trkpt>
      <trkpt lat="43.38401" lon="1.70267">
        <ele>232.7</ele>
        <time>2023-08-15T11:40:49Z</time>
      </trkpt>
      <trkpt lat="43.38389" lon="1.70299">
        <ele>232.7</ele>
        <time>2023-08-15T11:40:53Z</time>
      </trkpt>
      <trkpt lat="43.38377" lon="1.7033">
        <ele>232.2</ele>
        <time>2023-08-15T11:40:57Z</time>
      </trkpt>
      <trkpt lat="43.38368" lon="1.70354">
        <ele>232.2</ele>
        <time>2023-08-15T11:41:00Z</time>
      </trkpt>
      <trkpt lat="43.38355" lon="1.70385">
        <ele>231.5</ele>
        <time>2023-08-15T11:41:04Z</time>
      </trkpt>
      <trkpt lat="43.38342" lon="1.70416">
        <ele>231.9</ele>
        <time>2023-08-15T11:41:08Z</time>
      </trkpt>
      <trkpt lat="43.38326" lon="1.70445">
        <ele>233</ele>
        <time>2023-08-15T11:41:12Z</time>
      </trkpt>
      <trkpt lat="43.38306" lon="1.70469">
        <ele>233.1</ele>
        <time>2023-08-15T11:41:16Z</time>
      </trkpt>
      <trkpt lat="43.38291" lon="1.70486">
        <ele>233.3</ele>
        <time>2023-08-15T11:41:19Z</time>
      </trkpt>
      <trkpt lat="43.38271" lon="1.70509">
        <ele>233.2</ele>
        <time>2023-08-15T11:41:23Z</time>
      </trkpt>
      <trkpt lat="43.38256" lon="1.70527">
        <ele>233.3</ele>
        <time>2023-08-15T11:41:26Z</time>
      </trkpt>
      <trkpt lat="43.38235" lon="1.7055">
        <ele>234.2</ele>
        <time>2023-08-15T11:41:30Z</time>
      </trkpt>
      <trkpt lat="43.3822" lon="1.70567">
        <ele>234</ele>
        <time>2023-08-15T11:41:33Z</time>
      </trkpt>
      <trkpt lat="43.38199" lon="1.70589">
        <ele>234.2</ele>
        <time>2023-08-15T11:41:37Z</time>
      </trkpt>
      <trkpt lat="43.38177" lon="1.7061">
        <ele>233.8</ele>
        <time>2023-08-15T11:41:41Z</time>
      </trkpt>
      <trkpt lat="43.38155" lon="1.70631">
        <ele>233</ele>
        <time>2023-08-15T11:41:45Z</time>
      </trkpt>
      <trkpt lat="43.38139" lon="1.70645">
        <ele>232.3</ele>
        <time>2023-08-15T11:41:48Z</time>
      </trkpt>
      <trkpt lat="43.38122" lon="1.70659">
        <ele>231.8</ele>
        <time>2023-08-15T11:41:51Z</time>
      </trkpt>
      <trkpt lat="43.381" lon="1.70678">
        <ele>231.6</ele>
        <time>2023-08-15T11:41:55Z</time>
      </trkpt>
      <trkpt lat="43.38078" lon="1.70698">
        <ele>232.3</ele>
        <time>2023-08-15T11:41:59Z</time>
      </trkpt>
      <trkpt lat="43.38054" lon="1.70717">
        <ele>231.1</ele>
        <time>2023-08-15T11:42:03Z</time>
      </trkpt>
      <trkpt lat="43.38039" lon="1.70733">
        <ele>231.1</ele>
        <time>2023-08-15T11:42:06Z</time>
      </trkpt>
      <trkpt lat="43.38023" lon="1.7075">
        <ele>231.2</ele>
        <time>2023-08-15T11:42:09Z</time>
      </trkpt>
      <trkpt lat="43.38007" lon="1.70767">
        <ele>231.3</ele>
        <time>2023-08-15T11:42:12Z</time>
      </trkpt>
      <trkpt lat="43.37986" lon="1.70792">
        <ele>230.1</ele>
        <time>2023-08-15T11:42:16Z</time>
      </trkpt>
      <trkpt lat="43.37966" lon="1.70815">
        <ele>229.8</ele>
        <time>2023-08-15T11:42:20Z</time>
      </trkpt>
      <trkpt lat="43.37951" lon="1.7083">
        <ele>230</ele>
        <time>2023-08-15T11:42:23Z</time>
      </trkpt>
      <trkpt lat="43.37932" lon="1.70852">
        <ele>230.1</ele>
        <time>2023-08-15T11:42:27Z</time>
      </trkpt>
      <trkpt lat="43.37915" lon="1.70869">
        <ele>230</ele>
        <time>2023-08-15T11:42:30Z</time>
      </trkpt>
      <trkpt lat="43.37895" lon="1.70891">
        <ele>230.2</ele>
        <time>2023-08-15T11:42:34Z</time>
      </trkpt>
      <trkpt lat="43.37873" lon="1.70915">
        <ele>230.2</ele>
        <time>2023-08-15T11:42:38Z</time>
      </trkpt>
      <trkpt lat="43.37857" lon="1.70932">
        <ele>230.1</ele>
        <time>2023-08-15T11:42:41Z</time>
      </trkpt>
      <trkpt lat="43.37836" lon="1.70957">
        <ele>229.7</ele>
        <time>2023-08-15T11:42:45Z</time>
      </trkpt>
      <trkpt lat="43.37815" lon="1.7098">
        <ele>229.8</ele>
        <time>2023-08-15T11:42:49Z</time>
      </trkpt>
      <trkpt lat="43.37794" lon="1.71002">
        <ele>229.5</ele>
        <time>2023-08-15T11:42:53Z</time>
      </trkpt>
      <trkpt lat="43.37775" lon="1.71024">
        <ele>229.3</ele>
        <time>2023-08-15T11:42:57Z</time>
      </trkpt>
      <trkpt lat="43.37755" lon="1.71048">
        <ele>229</ele>
        <time>2023-08-15T11:43:01Z</time>
      </trkpt>
      <trkpt lat="43.37734" lon="1.71069">
        <ele>229</ele>
        <time>2023-08-15T11:43:05Z</time>
      </trkpt>
      <trkpt lat="43.37713" lon="1.71091">
        <ele>228.1</ele>
        <time>2023-08-15T11:43:09Z</time>
      </trkpt>
      <trkpt lat="43.37693" lon="1.71113">
        <ele>227.9</ele>
        <time>2023-08-15T11:43:13Z</time>
      </trkpt>
      <trkpt lat="43.37673" lon="1.71137">
        <ele>227.8</ele>
        <time>2023-08-15T11:43:17Z</time>
      </trkpt>
      <trkpt lat="43.37653" lon="1.7116">
        <ele>228.2</ele>
        <time>2023-08-15T11:43:21Z</time>
      </trkpt>
      <trkpt lat="43.37631" lon="1.71184">
        <ele>228.6</ele>
        <time>2023-08-15T11:43:25Z</time>
      </trkpt>
      <trkpt lat="43.37615" lon="1.71201">
        <ele>229</ele>
        <time>2023-08-15T11:43:28Z</time>
      </trkpt>
      <trkpt lat="43.37594" lon="1.71224">
        <ele>229.5</ele>
        <time>2023-08-15T11:43:32Z</time>
      </trkpt>
      <trkpt lat="43.37573" lon="1.71246">
        <ele>230.5</ele>
        <time>2023-08-15T11:43:36Z</time>
      </trkpt>
      <trkpt lat="43.37552" lon="1.71267">
        <ele>230.4</ele>
        <time>2023-08-15T11:43:40Z</time>
      </trkpt>
      <trkpt lat="43.37536" lon="1.71283">
        <ele>230.1</ele>
        <time>2023-08-15T11:43:43Z</time>
      </trkpt>
      <trkpt lat="43.37515" lon="1.71305">
        <ele>230.7</ele>
        <time>2023-08-15T11:43:47Z</time>
      </trkpt>
      <trkpt lat="43.37499" lon="1.71319">
        <ele>230.6</ele>
        <time>2023-08-15T11:43:50Z</time>
      </trkpt>
      <trkpt lat="43.37483" lon="1.71335">
        <ele>230.5</ele>
        <time>2023-08-15T11:43:53Z</time>
      </trkpt>
      <trkpt lat="43.37463" lon="1.71355">
        <ele>230.1</ele>
        <time>2023-08-15T11:43:57Z</time>
      </trkpt>
      <trkpt lat="43.37448" lon="1.7137">
        <ele>230.1</ele>
        <time>2023-08-15T11:44:00Z</time>
      </trkpt>
      <trkpt lat="43.37429" lon="1.71388">
        <ele>230</ele>
        <time>2023-08-15T11:44:04Z</time>
      </trkpt>
      <trkpt lat="43.37413" lon="1.71404">
        <ele>230.3</ele>
        <time>2023-08-15T11:44:07Z</time>
      </trkpt>
      <trkpt lat="43.37388" lon="1.7143">
        <ele>230.2</ele>
        <time>2023-08-15T11:44:11Z</time>
      </trkpt>
      <trkpt lat="43.37372" lon="1.71446">
        <ele>229.5</ele>
        <time>2023-08-15T11:44:14Z</time>
      </trkpt>
      <trkpt lat="43.37352" lon="1.71466">
        <ele>229.4</ele>
        <time>2023-08-15T11:44:18Z</time>
      </trkpt>
      <trkpt lat="43.37337" lon="1.71483">
        <ele>229.5</ele>
        <time>2023-08-15T11:44:21Z</time>
      </trkpt>
      <trkpt lat="43.37314" lon="1.71504">
        <ele>229.1</ele>
        <time>2023-08-15T11:44:25Z</time>
      </trkpt>
      <trkpt lat="43.37293" lon="1.71524">
        <ele>230.3</ele>
        <time>2023-08-15T11:44:29Z</time>
      </trkpt>
      <trkpt lat="43.37277" lon="1.7154">
        <ele>231</ele>
        <time>2023-08-15T11:44:32Z</time>
      </trkpt>
      <trkpt lat="43.37256" lon="1.71561">
        <ele>231.7</ele>
        <time>2023-08-15T11:44:36Z</time>
      </trkpt>
      <trkpt lat="43.37234" lon="1.71582">
        <ele>230.9</ele>
        <time>2023-08-15T11:44:40Z</time>
      </trkpt>
      <trkpt lat="43.37219" lon="1.71596">
        <ele>231.8</ele>
        <time>2023-08-15T11:44:43Z</time>
      </trkpt>
      <trkpt lat="43.37202" lon="1.71613">
        <ele>231.8</ele>
        <time>2023-08-15T11:44:46Z</time>
      </trkpt>
      <trkpt lat="43.37181" lon="1.71635">
        <ele>231.9</ele>
        <time>2023-08-15T11:44:50Z</time>
      </trkpt>
      <trkpt lat="43.37159" lon="1.71657">
        <ele>232</ele>
        <time>2023-08-15T11:44:54Z</time>
      </trkpt>
      <trkpt lat="43.37136" lon="1.71679">
        <ele>232.5</ele>
        <time>2023-08-15T11:44:58Z</time>
      </trkpt>
      <trkpt lat="43.37115" lon="1.71703">
        <ele>233.2</ele>
        <time>2023-08-15T11:45:02Z</time>
      </trkpt>
      <trkpt lat="43.37094" lon="1.71726">
        <ele>233.5</ele>
        <time>2023-08-15T11:45:06Z</time>
      </trkpt>
      <trkpt lat="43.37079" lon="1.71744">
        <ele>233.4</ele>
        <time>2023-08-15T11:45:09Z</time>
      </trkpt>
      <trkpt lat="43.37061" lon="1.71769">
        <ele>234.6</ele>
        <time>2023-08-15T11:45:13Z</time>
      </trkpt>
      <trkpt lat="43.37043" lon="1.71794">
        <ele>234.7</ele>
        <time>2023-08-15T11:45:17Z</time>
      </trkpt>
      <trkpt lat="43.37024" lon="1.7182">
        <ele>234.8</ele>
        <time>2023-08-15T11:45:21Z</time>
      </trkpt>
      <trkpt lat="43.37005" lon="1.71845">
        <ele>235</ele>
        <time>2023-08-15T11:45:25Z</time>
      </trkpt>
      <trkpt lat="43.36985" lon="1.71868">
        <ele>235.2</ele>
        <time>2023-08-15T11:45:29Z</time>
      </trkpt>
      <trkpt lat="43.36967" lon="1.71894">
        <ele>234.9</ele>
        <time>2023-08-15T11:45:33Z</time>
      </trkpt>
      <trkpt lat="43.36952" lon="1.71913">
        <ele>234.4</ele>
        <time>2023-08-15T11:45:36Z</time>
      </trkpt>
      <trkpt lat="43.36932" lon="1.71937">
        <ele>234.5</ele>
        <time>2023-08-15T11:45:40Z</time>
      </trkpt>
      <trkpt lat="43.36918" lon="1.71954">
        <ele>235.7</ele>
        <time>2023-08-15T11:45:43Z</time>
      </trkpt>
      <trkpt lat="43.36904" lon="1.71974">
        <ele>236.1</ele>
        <time>2023-08-15T11:45:46Z</time>
      </trkpt>
      <trkpt lat="43.36885" lon="1.72001">
        <ele>236.8</ele>
        <time>2023-08-15T11:45:50Z</time>
      </trkpt>
      <trkpt lat="43.36866" lon="1.72028">
        <ele>237.1</ele>
        <time>2023-08-15T11:45:54Z</time>
      </trkpt>
      <trkpt lat="43.36852" lon="1.72046">
        <ele>237.1</ele>
        <time>2023-08-15T11:45:57Z</time>
      </trkpt>
      <trkpt lat="43.36833" lon="1.72071">
        <ele>236.2</ele>
        <time>2023-08-15T11:46:01Z</time>
      </trkpt>
      <trkpt lat="43.36818" lon="1.7209">
        <ele>235.9</ele>
        <time>2023-08-15T11:46:04Z</time>
      </trkpt>
      <trkpt lat="43.36796" lon="1.72109">
        <ele>234.6</ele>
        <time>2023-08-15T11:46:08Z</time>
      </trkpt>
      <trkpt lat="43.36771" lon="1.72122">
        <ele>235.5</ele>
        <time>2023-08-15T11:46:12Z</time>
      </trkpt>
      <trkpt lat="43.36745" lon="1.72133">
        <ele>236.1</ele>
        <time>2023-08-15T11:46:16Z</time>
      </trkpt>
      <trkpt lat="43.3672" lon="1.72144">
        <ele>235.9</ele>
        <time>2023-08-15T11:46:20Z</time>
      </trkpt>
      <trkpt lat="43.36695" lon="1.72154">
        <ele>235.9</ele>
        <time>2023-08-15T11:46:24Z</time>
      </trkpt>
      <trkpt lat="43.36677" lon="1.72163">
        <ele>236.2</ele>
        <time>2023-08-15T11:46:27Z</time>
      </trkpt>
      <trkpt lat="43.36651" lon="1.72175">
        <ele>235.7</ele>
        <time>2023-08-15T11:46:31Z</time>
      </trkpt>
      <trkpt lat="43.36632" lon="1.72184">
        <ele>235.1</ele>
        <time>2023-08-15T11:46:34Z</time>
      </trkpt>
      <trkpt lat="43.36606" lon="1.72196">
        <ele>235.5</ele>
        <time>2023-08-15T11:46:38Z</time>
      </trkpt>
      <trkpt lat="43.36582" lon="1.72208">
        <ele>236.3</ele>
        <time>2023-08-15T11:46:42Z</time>
      </trkpt>
      <trkpt lat="43.36557" lon="1.72219">
        <ele>236.7</ele>
        <time>2023-08-15T11:46:46Z</time>
      </trkpt>
      <trkpt lat="43.36538" lon="1.72228">
        <ele>238.1</ele>
        <time>2023-08-15T11:46:49Z</time>
      </trkpt>
      <trkpt lat="43.36519" lon="1.72235">
        <ele>237.4</ele>
        <time>2023-08-15T11:46:52Z</time>
      </trkpt>
      <trkpt lat="43.36501" lon="1.72244">
        <ele>236.4</ele>
        <time>2023-08-15T11:46:55Z</time>
      </trkpt>
      <trkpt lat="43.36476" lon="1.72256">
        <ele>235.6</ele>
        <time>2023-08-15T11:46:59Z</time>
      </trkpt>
      <trkpt lat="43.3645" lon="1.72269">
        <ele>235.4</ele>
        <time>2023-08-15T11:47:03Z</time>
      </trkpt>
      <trkpt lat="43.36431" lon="1.72277">
        <ele>235.1</ele>
        <time>2023-08-15T11:47:06Z</time>
      </trkpt>
      <trkpt lat="43.36412" lon="1.72284">
        <ele>237.3</ele>
        <time>2023-08-15T11:47:09Z</time>
      </trkpt>
      <trkpt lat="43.36387" lon="1.72295">
        <ele>237.5</ele>
        <time>2023-08-15T11:47:13Z</time>
      </trkpt>
      <trkpt lat="43.36367" lon="1.72304">
        <ele>236.7</ele>
        <time>2023-08-15T11:47:16Z</time>
      </trkpt>
      <trkpt lat="43.36343" lon="1.72316">
        <ele>237.1</ele>
        <time>2023-08-15T11:47:20Z</time>
      </trkpt>
      <trkpt lat="43.36323" lon="1.72326">
        <ele>235.9</ele>
        <time>2023-08-15T11:47:23Z</time>
      </trkpt>
      <trkpt lat="43.36305" lon="1.72335">
        <ele>234.7</ele>
        <time>2023-08-15T11:47:26Z</time>
      </trkpt>
      <trkpt lat="43.36287" lon="1.72344">
        <ele>235.6</ele>
        <time>2023-08-15T11:47:29Z</time>
      </trkpt>
      <trkpt lat="43.36262" lon="1.72355">
        <ele>235.2</ele>
        <time>2023-08-15T11:47:33Z</time>
      </trkpt>
      <trkpt lat="43.36236" lon="1.72368">
        <ele>235.2</ele>
        <time>2023-08-15T11:47:37Z</time>
      </trkpt>
      <trkpt lat="43.36218" lon="1.72379">
        <ele>235.5</ele>
        <time>2023-08-15T11:47:40Z</time>
      </trkpt>
      <trkpt lat="43.36197" lon="1.72401">
        <ele>234.7</ele>
        <time>2023-08-15T11:47:44Z</time>
      </trkpt>
      <trkpt lat="43.36183" lon="1.72422">
        <ele>234.1</ele>
        <time>2023-08-15T11:47:47Z</time>
      </trkpt>
      <trkpt lat="43.36167" lon="1.72452">
        <ele>233.6</ele>
        <time>2023-08-15T11:47:51Z</time>
      </trkpt>
      <trkpt lat="43.36156" lon="1.72475">
        <ele>233.8</ele>
        <time>2023-08-15T11:47:54Z</time>
      </trkpt>
      <trkpt lat="43.36144" lon="1.72497">
        <ele>235.4</ele>
        <time>2023-08-15T11:47:57Z</time>
      </trkpt>
      <trkpt lat="43.36128" lon="1.72526">
        <ele>235.6</ele>
        <time>2023-08-15T11:48:01Z</time>
      </trkpt>
      <trkpt lat="43.36116" lon="1.72547">
        <ele>234.9</ele>
        <time>2023-08-15T11:48:04Z</time>
      </trkpt>
      <trkpt lat="43.36105" lon="1.72569">
        <ele>236.1</ele>
        <time>2023-08-15T11:48:07Z</time>
      </trkpt>
      <trkpt lat="43.3609" lon="1.72598">
        <ele>234.6</ele>
        <time>2023-08-15T11:48:11Z</time>
      </trkpt>
      <trkpt lat="43.36078" lon="1.7262">
        <ele>235.6</ele>
        <time>2023-08-15T11:48:14Z</time>
      </trkpt>
      <trkpt lat="43.36063" lon="1.72648">
        <ele>236</ele>
        <time>2023-08-15T11:48:18Z</time>
      </trkpt>
      <trkpt lat="43.3605" lon="1.72671">
        <ele>236.1</ele>
        <time>2023-08-15T11:48:21Z</time>
      </trkpt>
      <trkpt lat="43.36034" lon="1.727">
        <ele>236.4</ele>
        <time>2023-08-15T11:48:25Z</time>
      </trkpt>
      <trkpt lat="43.36023" lon="1.72721">
        <ele>236.8</ele>
        <time>2023-08-15T11:48:28Z</time>
      </trkpt>
      <trkpt lat="43.36007" lon="1.72751">
        <ele>236.9</ele>
        <time>2023-08-15T11:48:32Z</time>
      </trkpt>
      <trkpt lat="43.35991" lon="1.72781">
        <ele>238.8</ele>
        <time>2023-08-15T11:48:36Z</time>
      </trkpt>
      <trkpt lat="43.35979" lon="1.72803">
        <ele>239.5</ele>
        <time>2023-08-15T11:48:39Z</time>
      </trkpt>
      <trkpt lat="43.35963" lon="1.72831">
        <ele>239.1</ele>
        <time>2023-08-15T11:48:43Z</time>
      </trkpt>
      <trkpt lat="43.35951" lon="1.72853">
        <ele>239.1</ele>
        <time>2023-08-15T11:48:46Z</time>
      </trkpt>
      <trkpt lat="43.35939" lon="1.72875">
        <ele>239.5</ele>
        <time>2023-08-15T11:48:49Z</time>
      </trkpt>
      <trkpt lat="43.35923" lon="1.72903">
        <ele>239.9</ele>
        <time>2023-08-15T11:48:53Z</time>
      </trkpt>
      <trkpt lat="43.35907" lon="1.72932">
        <ele>240.5</ele>
        <time>2023-08-15T11:48:57Z</time>
      </trkpt>
      <trkpt lat="43.35893" lon="1.72962">
        <ele>240.9</ele>
        <time>2023-08-15T11:49:01Z</time>
      </trkpt>
      <trkpt lat="43.35876" lon="1.72991">
        <ele>241.9</ele>
        <time>2023-08-15T11:49:05Z</time>
      </trkpt>
      <trkpt lat="43.35861" lon="1.73019">
        <ele>241.2</ele>
        <time>2023-08-15T11:49:09Z</time>
      </trkpt>
      <trkpt lat="43.3585" lon="1.73041">
        <ele>240.1</ele>
        <time>2023-08-15T11:49:12Z</time>
      </trkpt>
      <trkpt lat="43.35838" lon="1.73062">
        <ele>241</ele>
        <time>2023-08-15T11:49:15Z</time>
      </trkpt>
      <trkpt lat="43.35822" lon="1.73091">
        <ele>239.9</ele>
        <time>2023-08-15T11:49:19Z</time>
      </trkpt>
      <trkpt lat="43.3581" lon="1.73113">
        <ele>239.8</ele>
        <time>2023-08-15T11:49:22Z</time>
      </trkpt>
      <trkpt lat="43.35795" lon="1.73143">
        <ele>240.1</ele>
        <time>2023-08-15T11:49:26Z</time>
      </trkpt>
      <trkpt lat="43.35783" lon="1.73165">
        <ele>240.2</ele>
        <time>2023-08-15T11:49:29Z</time>
      </trkpt>
      <trkpt lat="43.35768" lon="1.73193">
        <ele>240.8</ele>
        <time>2023-08-15T11:49:33Z</time>
      </trkpt>
      <trkpt lat="43.35756" lon="1.73215">
        <ele>240.7</ele>
        <time>2023-08-15T11:49:36Z</time>
      </trkpt>
      <trkpt lat="43.35739" lon="1.73244">
        <ele>239.3</ele>
        <time>2023-08-15T11:49:40Z</time>
      </trkpt>
      <trkpt lat="43.35722" lon="1.73273">
        <ele>239.7</ele>
        <time>2023-08-15T11:49:44Z</time>
      </trkpt>
      <trkpt lat="43.35706" lon="1.733">
        <ele>238</ele>
        <time>2023-08-15T11:49:48Z</time>
      </trkpt>
      <trkpt lat="43.35691" lon="1.73329">
        <ele>237.1</ele>
        <time>2023-08-15T11:49:52Z</time>
      </trkpt>
      <trkpt lat="43.35675" lon="1.73359">
        <ele>236</ele>
        <time>2023-08-15T11:49:56Z</time>
      </trkpt>
      <trkpt lat="43.35659" lon="1.73391">
        <ele>235.3</ele>
        <time>2023-08-15T11:50:00Z</time>
      </trkpt>
      <trkpt lat="43.35647" lon="1.73413">
        <ele>237.1</ele>
        <time>2023-08-15T11:50:03Z</time>
      </trkpt>
      <trkpt lat="43.3563" lon="1.73441">
        <ele>237.4</ele>
        <time>2023-08-15T11:50:07Z</time>
      </trkpt>
      <trkpt lat="43.35615" lon="1.7347">
        <ele>236</ele>
        <time>2023-08-15T11:50:11Z</time>
      </trkpt>
      <trkpt lat="43.35603" lon="1.73491">
        <ele>236.6</ele>
        <time>2023-08-15T11:50:14Z</time>
      </trkpt>
      <trkpt lat="43.35587" lon="1.73522">
        <ele>236.8</ele>
        <time>2023-08-15T11:50:18Z</time>
      </trkpt>
      <trkpt lat="43.35575" lon="1.73543">
        <ele>237.9</ele>
        <time>2023-08-15T11:50:21Z</time>
      </trkpt>
      <trkpt lat="43.3556" lon="1.73571">
        <ele>237.8</ele>
        <time>2023-08-15T11:50:25Z</time>
      </trkpt>
      <trkpt lat="43.35549" lon="1.73592">
        <ele>238.3</ele>
        <time>2023-08-15T11:50:28Z</time>
      </trkpt>
      <trkpt lat="43.35533" lon="1.73621">
        <ele>240.3</ele>
        <time>2023-08-15T11:50:32Z</time>
      </trkpt>
      <trkpt lat="43.35517" lon="1.73648">
        <ele>240.2</ele>
        <time>2023-08-15T11:50:36Z</time>
      </trkpt>
      <trkpt lat="43.35505" lon="1.7367">
        <ele>241.1</ele>
        <time>2023-08-15T11:50:39Z</time>
      </trkpt>
      <trkpt lat="43.35489" lon="1.73699">
        <ele>240.3</ele>
        <time>2023-08-15T11:50:43Z</time>
      </trkpt>
      <trkpt lat="43.35471" lon="1.73726">
        <ele>242.1</ele>
        <time>2023-08-15T11:50:47Z</time>
      </trkpt>
      <trkpt lat="43.35453" lon="1.73754">
        <ele>241.6</ele>
        <time>2023-08-15T11:50:51Z</time>
      </trkpt>
      <trkpt lat="43.35436" lon="1.7378">
        <ele>241.8</ele>
        <time>2023-08-15T11:50:55Z</time>
      </trkpt>
      <trkpt lat="43.35418" lon="1.73806">
        <ele>243.5</ele>
        <time>2023-08-15T11:50:59Z</time>
      </trkpt>
      <trkpt lat="43.35401" lon="1.73834">
        <ele>243.3</ele>
        <time>2023-08-15T11:51:03Z</time>
      </trkpt>
      <trkpt lat="43.35383" lon="1.73861">
        <ele>243.5</ele>
        <time>2023-08-15T11:51:07Z</time>
      </trkpt>
      <trkpt lat="43.35365" lon="1.73888">
        <ele>243.8</ele>
        <time>2023-08-15T11:51:11Z</time>
      </trkpt>
      <trkpt lat="43.35347" lon="1.73915">
        <ele>244</ele>
        <time>2023-08-15T11:51:15Z</time>
      </trkpt>
      <trkpt lat="43.35333" lon="1.73934">
        <ele>244.4</ele>
        <time>2023-08-15T11:51:18Z</time>
      </trkpt>
      <trkpt lat="43.35316" lon="1.73961">
        <ele>244</ele>
        <time>2023-08-15T11:51:22Z</time>
      </trkpt>
      <trkpt lat="43.35298" lon="1.73992">
        <ele>245.2</ele>
        <time>2023-08-15T11:51:26Z</time>
      </trkpt>
      <trkpt lat="43.35284" lon="1.74013">
        <ele>245.7</ele>
        <time>2023-08-15T11:51:29Z</time>
      </trkpt>
      <trkpt lat="43.35266" lon="1.74039">
        <ele>244.6</ele>
        <time>2023-08-15T11:51:33Z</time>
      </trkpt>
      <trkpt lat="43.35248" lon="1.74066">
        <ele>244.6</ele>
        <time>2023-08-15T11:51:37Z</time>
      </trkpt>
      <trkpt lat="43.35231" lon="1.74093">
        <ele>244.7</ele>
        <time>2023-08-15T11:51:41Z</time>
      </trkpt>
      <trkpt lat="43.35213" lon="1.74119">
        <ele>245.9</ele>
        <time>2023-08-15T11:51:45Z</time>
      </trkpt>
      <trkpt lat="43.352" lon="1.74138">
        <ele>246</ele>
        <time>2023-08-15T11:51:48Z</time>
      </trkpt>
      <trkpt lat="43.35186" lon="1.74157">
        <ele>244.7</ele>
        <time>2023-08-15T11:51:51Z</time>
      </trkpt>
      <trkpt lat="43.35168" lon="1.74186">
        <ele>245.3</ele>
        <time>2023-08-15T11:51:55Z</time>
      </trkpt>
      <trkpt lat="43.35155" lon="1.74207">
        <ele>246.3</ele>
        <time>2023-08-15T11:51:58Z</time>
      </trkpt>
      <trkpt lat="43.35138" lon="1.74234">
        <ele>246.3</ele>
        <time>2023-08-15T11:52:02Z</time>
      </trkpt>
      <trkpt lat="43.35125" lon="1.74253">
        <ele>246.6</ele>
        <time>2023-08-15T11:52:05Z</time>
      </trkpt>
      <trkpt lat="43.35108" lon="1.7428">
        <ele>246.6</ele>
        <time>2023-08-15T11:52:09Z</time>
      </trkpt>
      <trkpt lat="43.3509" lon="1.74306">
        <ele>246.7</ele>
        <time>2023-08-15T11:52:13Z</time>
      </trkpt>
      <trkpt lat="43.35076" lon="1.74325">
        <ele>246.9</ele>
        <time>2023-08-15T11:52:16Z</time>
      </trkpt>
      <trkpt lat="43.35062" lon="1.74346">
        <ele>246.9</ele>
        <time>2023-08-15T11:52:19Z</time>
      </trkpt>
      <trkpt lat="43.35045" lon="1.74375">
        <ele>245.8</ele>
        <time>2023-08-15T11:52:23Z</time>
      </trkpt>
      <trkpt lat="43.35027" lon="1.74402">
        <ele>245.9</ele>
        <time>2023-08-15T11:52:27Z</time>
      </trkpt>
      <trkpt lat="43.35009" lon="1.74429">
        <ele>247</ele>
        <time>2023-08-15T11:52:31Z</time>
      </trkpt>
      <trkpt lat="43.34995" lon="1.74449">
        <ele>247.1</ele>
        <time>2023-08-15T11:52:34Z</time>
      </trkpt>
      <trkpt lat="43.34977" lon="1.74475">
        <ele>247.3</ele>
        <time>2023-08-15T11:52:38Z</time>
      </trkpt>
      <trkpt lat="43.34959" lon="1.74502">
        <ele>247.2</ele>
        <time>2023-08-15T11:52:42Z</time>
      </trkpt>
      <trkpt lat="43.34942" lon="1.74527">
        <ele>247.1</ele>
        <time>2023-08-15T11:52:46Z</time>
      </trkpt>
      <trkpt lat="43.34921" lon="1.7455">
        <ele>245.4</ele>
        <time>2023-08-15T11:52:50Z</time>
      </trkpt>
      <trkpt lat="43.34904" lon="1.74564">
        <ele>245</ele>
        <time>2023-08-15T11:52:53Z</time>
      </trkpt>
      <trkpt lat="43.34878" lon="1.74577">
        <ele>245.3</ele>
        <time>2023-08-15T11:52:57Z</time>
      </trkpt>
      <trkpt lat="43.34853" lon="1.74587">
        <ele>245</ele>
        <time>2023-08-15T11:53:01Z</time>
      </trkpt>
      <trkpt lat="43.34827" lon="1.74597">
        <ele>243.9</ele>
        <time>2023-08-15T11:53:05Z</time>
      </trkpt>
      <trkpt lat="43.34802" lon="1.74606">
        <ele>245</ele>
        <time>2023-08-15T11:53:09Z</time>
      </trkpt>
      <trkpt lat="43.34783" lon="1.74612">
        <ele>244.1</ele>
        <time>2023-08-15T11:53:12Z</time>
      </trkpt>
      <trkpt lat="43.34758" lon="1.74623">
        <ele>245.6</ele>
        <time>2023-08-15T11:53:16Z</time>
      </trkpt>
      <trkpt lat="43.3474" lon="1.74631">
        <ele>244.5</ele>
        <time>2023-08-15T11:53:19Z</time>
      </trkpt>
      <trkpt lat="43.34713" lon="1.74641">
        <ele>244</ele>
        <time>2023-08-15T11:53:23Z</time>
      </trkpt>
      <trkpt lat="43.34695" lon="1.74649">
        <ele>244.7</ele>
        <time>2023-08-15T11:53:26Z</time>
      </trkpt>
      <trkpt lat="43.3467" lon="1.74659">
        <ele>244.4</ele>
        <time>2023-08-15T11:53:30Z</time>
      </trkpt>
      <trkpt lat="43.34651" lon="1.74666">
        <ele>244.3</ele>
        <time>2023-08-15T11:53:33Z</time>
      </trkpt>
      <trkpt lat="43.34632" lon="1.74674">
        <ele>244.4</ele>
        <time>2023-08-15T11:53:36Z</time>
      </trkpt>
      <trkpt lat="43.34607" lon="1.74683">
        <ele>244.2</ele>
        <time>2023-08-15T11:53:40Z</time>
      </trkpt>
      <trkpt lat="43.34581" lon="1.74693">
        <ele>244.1</ele>
        <time>2023-08-15T11:53:44Z</time>
      </trkpt>
      <trkpt lat="43.34555" lon="1.74703">
        <ele>245</ele>
        <time>2023-08-15T11:53:48Z</time>
      </trkpt>
      <trkpt lat="43.34535" lon="1.7471">
        <ele>243.8</ele>
        <time>2023-08-15T11:53:51Z</time>
      </trkpt>
      <trkpt lat="43.34515" lon="1.7472">
        <ele>243.5</ele>
        <time>2023-08-15T11:53:54Z</time>
      </trkpt>
      <trkpt lat="43.34496" lon="1.74728">
        <ele>244.1</ele>
        <time>2023-08-15T11:53:57Z</time>
      </trkpt>
      <trkpt lat="43.34472" lon="1.74737">
        <ele>243.4</ele>
        <time>2023-08-15T11:54:01Z</time>
      </trkpt>
      <trkpt lat="43.34446" lon="1.74748">
        <ele>243.2</ele>
        <time>2023-08-15T11:54:05Z</time>
      </trkpt>
      <trkpt lat="43.34427" lon="1.74756">
        <ele>243.2</ele>
        <time>2023-08-15T11:54:08Z</time>
      </trkpt>
      <trkpt lat="43.34408" lon="1.74762">
        <ele>243.3</ele>
        <time>2023-08-15T11:54:11Z</time>
      </trkpt>
      <trkpt lat="43.34383" lon="1.74772">
        <ele>243.8</ele>
        <time>2023-08-15T11:54:15Z</time>
      </trkpt>
      <trkpt lat="43.34364" lon="1.74779">
        <ele>242.9</ele>
        <time>2023-08-15T11:54:18Z</time>
      </trkpt>
      <trkpt lat="43.34338" lon="1.74789">
        <ele>242.7</ele>
        <time>2023-08-15T11:54:22Z</time>
      </trkpt>
      <trkpt lat="43.34318" lon="1.74797">
        <ele>243.8</ele>
        <time>2023-08-15T11:54:25Z</time>
      </trkpt>
      <trkpt lat="43.343" lon="1.74804">
        <ele>242.6</ele>
        <time>2023-08-15T11:54:28Z</time>
      </trkpt>
      <trkpt lat="43.34274" lon="1.74813">
        <ele>242.7</ele>
        <time>2023-08-15T11:54:32Z</time>
      </trkpt>
      <trkpt lat="43.34254" lon="1.74821">
        <ele>243</ele>
        <time>2023-08-15T11:54:35Z</time>
      </trkpt>
      <trkpt lat="43.34229" lon="1.74831">
        <ele>243.1</ele>
        <time>2023-08-15T11:54:39Z</time>
      </trkpt>
      <trkpt lat="43.34204" lon="1.74841">
        <ele>244.1</ele>
        <time>2023-08-15T11:54:43Z</time>
      </trkpt>
      <trkpt lat="43.34185" lon="1.74848">
        <ele>243.5</ele>
        <time>2023-08-15T11:54:46Z</time>
      </trkpt>
      <trkpt lat="43.3416" lon="1.74858">
        <ele>242.4</ele>
        <time>2023-08-15T11:54:50Z</time>
      </trkpt>
      <trkpt lat="43.34141" lon="1.74866">
        <ele>243.4</ele>
        <time>2023-08-15T11:54:53Z</time>
      </trkpt>
      <trkpt lat="43.34116" lon="1.74875">
        <ele>243.5</ele>
        <time>2023-08-15T11:54:57Z</time>
      </trkpt>
      <trkpt lat="43.3409" lon="1.74885">
        <ele>243.5</ele>
        <time>2023-08-15T11:55:01Z</time>
      </trkpt>
      <trkpt lat="43.34064" lon="1.74894">
        <ele>243.9</ele>
        <time>2023-08-15T11:55:05Z</time>
      </trkpt>
      <trkpt lat="43.34046" lon="1.74901">
        <ele>243.9</ele>
        <time>2023-08-15T11:55:08Z</time>
      </trkpt>
      <trkpt lat="43.3402" lon="1.74911">
        <ele>243.9</ele>
        <time>2023-08-15T11:55:12Z</time>
      </trkpt>
      <trkpt lat="43.34001" lon="1.74919">
        <ele>244.3</ele>
        <time>2023-08-15T11:55:15Z</time>
      </trkpt>
      <trkpt lat="43.33982" lon="1.74926">
        <ele>243.7</ele>
        <time>2023-08-15T11:55:18Z</time>
      </trkpt>
      <trkpt lat="43.33957" lon="1.74935">
        <ele>245</ele>
        <time>2023-08-15T11:55:22Z</time>
      </trkpt>
      <trkpt lat="43.33938" lon="1.74943">
        <ele>245.6</ele>
        <time>2023-08-15T11:55:25Z</time>
      </trkpt>
      <trkpt lat="43.33912" lon="1.74954">
        <ele>245.3</ele>
        <time>2023-08-15T11:55:29Z</time>
      </trkpt>
      <trkpt lat="43.33893" lon="1.74961">
        <ele>246.7</ele>
        <time>2023-08-15T11:55:32Z</time>
      </trkpt>
      <trkpt lat="43.33867" lon="1.74972">
        <ele>246.1</ele>
        <time>2023-08-15T11:55:36Z</time>
      </trkpt>
      <trkpt lat="43.33848" lon="1.7498">
        <ele>246.2</ele>
        <time>2023-08-15T11:55:39Z</time>
      </trkpt>
      <trkpt lat="43.33828" lon="1.74986">
        <ele>247.4</ele>
        <time>2023-08-15T11:55:42Z</time>
      </trkpt>
      <trkpt lat="43.3381" lon="1.74994">
        <ele>247.3</ele>
        <time>2023-08-15T11:55:45Z</time>
      </trkpt>
      <trkpt lat="43.33784" lon="1.75003">
        <ele>247.3</ele>
        <time>2023-08-15T11:55:49Z</time>
      </trkpt>
      <trkpt lat="43.33765" lon="1.7501">
        <ele>248</ele>
        <time>2023-08-15T11:55:52Z</time>
      </trkpt>
      <trkpt lat="43.33739" lon="1.75021">
        <ele>247.6</ele>
        <time>2023-08-15T11:55:56Z</time>
      </trkpt>
      <trkpt lat="43.33714" lon="1.7503">
        <ele>247.1</ele>
        <time>2023-08-15T11:56:00Z</time>
      </trkpt>
      <trkpt lat="43.33689" lon="1.7504">
        <ele>244.5</ele>
        <time>2023-08-15T11:56:04Z</time>
      </trkpt>
      <trkpt lat="43.33664" lon="1.7505">
        <ele>243.8</ele>
        <time>2023-08-15T11:56:08Z</time>
      </trkpt>
      <trkpt lat="43.33645" lon="1.75058">
        <ele>245.3</ele>
        <time>2023-08-15T11:56:11Z</time>
      </trkpt>
      <trkpt lat="43.33619" lon="1.75067">
        <ele>244.5</ele>
        <time>2023-08-15T11:56:15Z</time>
      </trkpt>
      <trkpt lat="43.336" lon="1.75074">
        <ele>244.4</ele>
        <time>2023-08-15T11:56:18Z</time>
      </trkpt>
      <trkpt lat="43.33574" lon="1.75084">
        <ele>245.9</ele>
        <time>2023-08-15T11:56:22Z</time>
      </trkpt>
      <trkpt lat="43.33555" lon="1.75092">
        <ele>244.8</ele>
        <time>2023-08-15T11:56:25Z</time>
      </trkpt>
      <trkpt lat="43.3353" lon="1.75103">
        <ele>244.3</ele>
        <time>2023-08-15T11:56:29Z</time>
      </trkpt>
      <trkpt lat="43.33504" lon="1.75113">
        <ele>244.5</ele>
        <time>2023-08-15T11:56:33Z</time>
      </trkpt>
      <trkpt lat="43.33479" lon="1.75121">
        <ele>244.4</ele>
        <time>2023-08-15T11:56:37Z</time>
      </trkpt>
      <trkpt lat="43.33454" lon="1.75131">
        <ele>245.3</ele>
        <time>2023-08-15T11:56:41Z</time>
      </trkpt>
      <trkpt lat="43.33429" lon="1.75141">
        <ele>244.6</ele>
        <time>2023-08-15T11:56:45Z</time>
      </trkpt>
      <trkpt lat="43.33409" lon="1.75149">
        <ele>246.5</ele>
        <time>2023-08-15T11:56:48Z</time>
      </trkpt>
      <trkpt lat="43.33383" lon="1.75159">
        <ele>245.9</ele>
        <time>2023-08-15T11:56:52Z</time>
      </trkpt>
      <trkpt lat="43.33364" lon="1.75166">
        <ele>244.5</ele>
        <time>2023-08-15T11:56:55Z</time>
      </trkpt>
      <trkpt lat="43.33339" lon="1.75174">
        <ele>244.5</ele>
        <time>2023-08-15T11:56:59Z</time>
      </trkpt>
      <trkpt lat="43.3332" lon="1.75183">
        <ele>244.7</ele>
        <time>2023-08-15T11:57:02Z</time>
      </trkpt>
      <trkpt lat="43.33295" lon="1.75194">
        <ele>245.2</ele>
        <time>2023-08-15T11:57:06Z</time>
      </trkpt>
      <trkpt lat="43.33276" lon="1.75201">
        <ele>246.4</ele>
        <time>2023-08-15T11:57:09Z</time>
      </trkpt>
      <trkpt lat="43.33251" lon="1.7521">
        <ele>246.8</ele>
        <time>2023-08-15T11:57:13Z</time>
      </trkpt>
      <trkpt lat="43.33232" lon="1.75218">
        <ele>247.6</ele>
        <time>2023-08-15T11:57:16Z</time>
      </trkpt>
      <trkpt lat="43.33206" lon="1.7523">
        <ele>249.7</ele>
        <time>2023-08-15T11:57:20Z</time>
      </trkpt>
      <trkpt lat="43.33181" lon="1.75241">
        <ele>248.7</ele>
        <time>2023-08-15T11:57:24Z</time>
      </trkpt>
      <trkpt lat="43.33155" lon="1.75251">
        <ele>249.1</ele>
        <time>2023-08-15T11:57:28Z</time>
      </trkpt>
      <trkpt lat="43.33129" lon="1.7526">
        <ele>247.9</ele>
        <time>2023-08-15T11:57:32Z</time>
      </trkpt>
      <trkpt lat="43.3311" lon="1.75268">
        <ele>247</ele>
        <time>2023-08-15T11:57:35Z</time>
      </trkpt>
      <trkpt lat="43.33091" lon="1.75275">
        <ele>247.6</ele>
        <time>2023-08-15T11:57:38Z</time>
      </trkpt>
      <trkpt lat="43.33065" lon="1.75285">
        <ele>246.9</ele>
        <time>2023-08-15T11:57:42Z</time>
      </trkpt>
      <trkpt lat="43.33047" lon="1.75293">
        <ele>246.6</ele>
        <time>2023-08-15T11:57:45Z</time>
      </trkpt>
      <trkpt lat="43.33028" lon="1.753">
        <ele>248.1</ele>
        <time>2023-08-15T11:57:48Z</time>
      </trkpt>
      <trkpt lat="43.33003" lon="1.75313">
        <ele>246.4</ele>
        <time>2023-08-15T11:57:52Z</time>
      </trkpt>
      <trkpt lat="43.32978" lon="1.75325">
        <ele>247.4</ele>
        <time>2023-08-15T11:57:56Z</time>
      </trkpt>
      <trkpt lat="43.32953" lon="1.75337">
        <ele>248.8</ele>
        <time>2023-08-15T11:58:00Z</time>
      </trkpt>
      <trkpt lat="43.32934" lon="1.75347">
        <ele>250.2</ele>
        <time>2023-08-15T11:58:03Z</time>
      </trkpt>
      <trkpt lat="43.32916" lon="1.75359">
        <ele>249.8</ele>
        <time>2023-08-15T11:58:06Z</time>
      </trkpt>
      <trkpt lat="43.32893" lon="1.75376">
        <ele>249</ele>
        <time>2023-08-15T11:58:10Z</time>
      </trkpt>
      <trkpt lat="43.3287" lon="1.75392">
        <ele>249.2</ele>
        <time>2023-08-15T11:58:14Z</time>
      </trkpt>
      <trkpt lat="43.32846" lon="1.7541">
        <ele>252.7</ele>
        <time>2023-08-15T11:58:18Z</time>
      </trkpt>
      <trkpt lat="43.32829" lon="1.75422">
        <ele>251.2</ele>
        <time>2023-08-15T11:58:21Z</time>
      </trkpt>
      <trkpt lat="43.32805" lon="1.75439">
        <ele>250.5</ele>
        <time>2023-08-15T11:58:25Z</time>
      </trkpt>
      <trkpt lat="43.32781" lon="1.75453">
        <ele>251.7</ele>
        <time>2023-08-15T11:58:29Z</time>
      </trkpt>
      <trkpt lat="43.32755" lon="1.75467">
        <ele>250.6</ele>
        <time>2023-08-15T11:58:33Z</time>
      </trkpt>
      <trkpt lat="43.32736" lon="1.75476">
        <ele>249.6</ele>
        <time>2023-08-15T11:58:36Z</time>
      </trkpt>
      <trkpt lat="43.32711" lon="1.75487">
        <ele>248</ele>
        <time>2023-08-15T11:58:40Z</time>
      </trkpt>
      <trkpt lat="43.32687" lon="1.75496">
        <ele>249.8</ele>
        <time>2023-08-15T11:58:44Z</time>
      </trkpt>
      <trkpt lat="43.32669" lon="1.755">
        <ele>250</ele>
        <time>2023-08-15T11:58:47Z</time>
      </trkpt>
      <trkpt lat="43.32655" lon="1.75501">
        <ele>247.8</ele>
        <time>2023-08-15T11:58:50Z</time>
      </trkpt>
      <trkpt lat="43.32639" lon="1.75509">
        <ele>247.1</ele>
        <time>2023-08-15T11:58:54Z</time>
      </trkpt>
      <trkpt lat="43.32625" lon="1.75519">
        <ele>248.3</ele>
        <time>2023-08-15T11:58:57Z</time>
      </trkpt>
      <trkpt lat="43.32597" lon="1.75526">
        <ele>248.9</ele>
        <time>2023-08-15T11:59:01Z</time>
      </trkpt>
      <trkpt lat="43.32569" lon="1.75534">
        <ele>248.4</ele>
        <time>2023-08-15T11:59:05Z</time>
      </trkpt>
      <trkpt lat="43.32545" lon="1.75543">
        <ele>248.2</ele>
        <time>2023-08-15T11:59:09Z</time>
      </trkpt>
      <trkpt lat="43.3252" lon="1.7555">
        <ele>249.4</ele>
        <time>2023-08-15T11:59:13Z</time>
      </trkpt>
      <trkpt lat="43.32492" lon="1.75559">
        <ele>247.5</ele>
        <time>2023-08-15T11:59:17Z</time>
      </trkpt>
      <trkpt lat="43.32467" lon="1.75567">
        <ele>247.4</ele>
        <time>2023-08-15T11:59:21Z</time>
      </trkpt>
      <trkpt lat="43.3245" lon="1.75574">
        <ele>247.3</ele>
        <time>2023-08-15T11:59:24Z</time>
      </trkpt>
      <trkpt lat="43.32432" lon="1.7558">
        <ele>247.4</ele>
        <time>2023-08-15T11:59:27Z</time>
      </trkpt>
      <trkpt lat="43.32413" lon="1.75586">
        <ele>247.5</ele>
        <time>2023-08-15T11:59:30Z</time>
      </trkpt>
      <trkpt lat="43.32386" lon="1.75592">
        <ele>247.9</ele>
        <time>2023-08-15T11:59:34Z</time>
      </trkpt>
      <trkpt lat="43.3236" lon="1.75601">
        <ele>247.2</ele>
        <time>2023-08-15T11:59:38Z</time>
      </trkpt>
      <trkpt lat="43.32343" lon="1.75608">
        <ele>246.5</ele>
        <time>2023-08-15T11:59:41Z</time>
      </trkpt>
      <trkpt lat="43.32322" lon="1.75615">
        <ele>247.2</ele>
        <time>2023-08-15T11:59:45Z</time>
      </trkpt>
      <trkpt lat="43.32295" lon="1.75625">
        <ele>247.5</ele>
        <time>2023-08-15T11:59:49Z</time>
      </trkpt>
      <trkpt lat="43.32274" lon="1.75633">
        <ele>247.5</ele>
        <time>2023-08-15T11:59:52Z</time>
      </trkpt>
      <trkpt lat="43.32247" lon="1.75644">
        <ele>248.2</ele>
        <time>2023-08-15T11:59:56Z</time>
      </trkpt>
      <trkpt lat="43.32231" lon="1.75651">
        <ele>248</ele>
        <time>2023-08-15T11:59:59Z</time>
      </trkpt>
      <trkpt lat="43.32209" lon="1.75658">
        <ele>247.5</ele>
        <time>2023-08-15T12:00:03Z</time>
      </trkpt>
      <trkpt lat="43.32183" lon="1.75667">
        <ele>246.6</ele>
        <time>2023-08-15T12:00:07Z</time>
      </trkpt>
      <trkpt lat="43.32156" lon="1.75676">
        <ele>247.4</ele>
        <time>2023-08-15T12:00:11Z</time>
      </trkpt>
      <trkpt lat="43.32137" lon="1.75682">
        <ele>247.7</ele>
        <time>2023-08-15T12:00:14Z</time>
      </trkpt>
      <trkpt lat="43.32112" lon="1.75691">
        <ele>248.1</ele>
        <time>2023-08-15T12:00:18Z</time>
      </trkpt>
      <trkpt lat="43.32086" lon="1.75699">
        <ele>247.2</ele>
        <time>2023-08-15T12:00:22Z</time>
      </trkpt>
      <trkpt lat="43.32067" lon="1.75705">
        <ele>247.7</ele>
        <time>2023-08-15T12:00:25Z</time>
      </trkpt>
      <trkpt lat="43.32041" lon="1.75714">
        <ele>248.9</ele>
        <time>2023-08-15T12:00:29Z</time>
      </trkpt>
      <trkpt lat="43.32015" lon="1.75723">
        <ele>249.7</ele>
        <time>2023-08-15T12:00:33Z</time>
      </trkpt>
      <trkpt lat="43.31995" lon="1.7573">
        <ele>249.2</ele>
        <time>2023-08-15T12:00:36Z</time>
      </trkpt>
      <trkpt lat="43.31969" lon="1.7574">
        <ele>247.7</ele>
        <time>2023-08-15T12:00:40Z</time>
      </trkpt>
      <trkpt lat="43.31951" lon="1.75746">
        <ele>248.3</ele>
        <time>2023-08-15T12:00:43Z</time>
      </trkpt>
      <trkpt lat="43.31931" lon="1.75752">
        <ele>248.2</ele>
        <time>2023-08-15T12:00:46Z</time>
      </trkpt>
      <trkpt lat="43.31906" lon="1.75761">
        <ele>247.6</ele>
        <time>2023-08-15T12:00:50Z</time>
      </trkpt>
      <trkpt lat="43.31887" lon="1.75769">
        <ele>247.6</ele>
        <time>2023-08-15T12:00:53Z</time>
      </trkpt>
      <trkpt lat="43.31869" lon="1.7578">
        <ele>247.6</ele>
        <time>2023-08-15T12:00:56Z</time>
      </trkpt>
      <trkpt lat="43.31845" lon="1.75798">
        <ele>249.3</ele>
        <time>2023-08-15T12:01:00Z</time>
      </trkpt>
      <trkpt lat="43.31829" lon="1.75812">
        <ele>248.7</ele>
        <time>2023-08-15T12:01:03Z</time>
      </trkpt>
      <trkpt lat="43.31812" lon="1.75828">
        <ele>249.1</ele>
        <time>2023-08-15T12:01:06Z</time>
      </trkpt>
      <trkpt lat="43.3179" lon="1.75848">
        <ele>249.4</ele>
        <time>2023-08-15T12:01:10Z</time>
      </trkpt>
      <trkpt lat="43.31768" lon="1.75868">
        <ele>249.2</ele>
        <time>2023-08-15T12:01:14Z</time>
      </trkpt>
      <trkpt lat="43.31745" lon="1.75888">
        <ele>248.9</ele>
        <time>2023-08-15T12:01:18Z</time>
      </trkpt>
      <trkpt lat="43.31723" lon="1.75908">
        <ele>249.6</ele>
        <time>2023-08-15T12:01:22Z</time>
      </trkpt>
      <trkpt lat="43.31701" lon="1.75928">
        <ele>250.2</ele>
        <time>2023-08-15T12:01:26Z</time>
      </trkpt>
      <trkpt lat="43.31685" lon="1.75942">
        <ele>250.7</ele>
        <time>2023-08-15T12:01:29Z</time>
      </trkpt>
      <trkpt lat="43.31663" lon="1.75961">
        <ele>250.5</ele>
        <time>2023-08-15T12:01:33Z</time>
      </trkpt>
      <trkpt lat="43.31641" lon="1.75979">
        <ele>250.2</ele>
        <time>2023-08-15T12:01:37Z</time>
      </trkpt>
      <trkpt lat="43.31624" lon="1.75993">
        <ele>250.1</ele>
        <time>2023-08-15T12:01:40Z</time>
      </trkpt>
      <trkpt lat="43.31601" lon="1.76014">
        <ele>250.6</ele>
        <time>2023-08-15T12:01:44Z</time>
      </trkpt>
      <trkpt lat="43.31579" lon="1.76034">
        <ele>251</ele>
        <time>2023-08-15T12:01:48Z</time>
      </trkpt>
      <trkpt lat="43.31556" lon="1.76053">
        <ele>251.1</ele>
        <time>2023-08-15T12:01:52Z</time>
      </trkpt>
      <trkpt lat="43.31534" lon="1.76072">
        <ele>251.9</ele>
        <time>2023-08-15T12:01:56Z</time>
      </trkpt>
      <trkpt lat="43.31517" lon="1.76085">
        <ele>251.3</ele>
        <time>2023-08-15T12:01:59Z</time>
      </trkpt>
      <trkpt lat="43.31494" lon="1.76105">
        <ele>250.3</ele>
        <time>2023-08-15T12:02:03Z</time>
      </trkpt>
      <trkpt lat="43.31478" lon="1.7612">
        <ele>250.7</ele>
        <time>2023-08-15T12:02:06Z</time>
      </trkpt>
      <trkpt lat="43.31455" lon="1.76138">
        <ele>250.8</ele>
        <time>2023-08-15T12:02:10Z</time>
      </trkpt>
      <trkpt lat="43.31433" lon="1.76157">
        <ele>250.5</ele>
        <time>2023-08-15T12:02:14Z</time>
      </trkpt>
      <trkpt lat="43.31411" lon="1.76177">
        <ele>251.4</ele>
        <time>2023-08-15T12:02:18Z</time>
      </trkpt>
      <trkpt lat="43.31394" lon="1.76191">
        <ele>251.1</ele>
        <time>2023-08-15T12:02:21Z</time>
      </trkpt>
      <trkpt lat="43.31372" lon="1.7621">
        <ele>250.9</ele>
        <time>2023-08-15T12:02:25Z</time>
      </trkpt>
      <trkpt lat="43.31349" lon="1.76229">
        <ele>251.1</ele>
        <time>2023-08-15T12:02:29Z</time>
      </trkpt>
      <trkpt lat="43.31326" lon="1.76248">
        <ele>251.5</ele>
        <time>2023-08-15T12:02:33Z</time>
      </trkpt>
      <trkpt lat="43.3131" lon="1.76262">
        <ele>250</ele>
        <time>2023-08-15T12:02:36Z</time>
      </trkpt>
      <trkpt lat="43.31287" lon="1.76281">
        <ele>250.2</ele>
        <time>2023-08-15T12:02:40Z</time>
      </trkpt>
      <trkpt lat="43.3127" lon="1.76296">
        <ele>249.9</ele>
        <time>2023-08-15T12:02:43Z</time>
      </trkpt>
      <trkpt lat="43.31249" lon="1.76316">
        <ele>250.6</ele>
        <time>2023-08-15T12:02:47Z</time>
      </trkpt>
      <trkpt lat="43.31227" lon="1.76337">
        <ele>250.3</ele>
        <time>2023-08-15T12:02:51Z</time>
      </trkpt>
      <trkpt lat="43.31205" lon="1.76358">
        <ele>250.6</ele>
        <time>2023-08-15T12:02:55Z</time>
      </trkpt>
      <trkpt lat="43.31188" lon="1.76374">
        <ele>250.9</ele>
        <time>2023-08-15T12:02:58Z</time>
      </trkpt>
      <trkpt lat="43.31171" lon="1.76389">
        <ele>251.8</ele>
        <time>2023-08-15T12:03:01Z</time>
      </trkpt>
      <trkpt lat="43.31149" lon="1.7641">
        <ele>250.6</ele>
        <time>2023-08-15T12:03:05Z</time>
      </trkpt>
      <trkpt lat="43.31133" lon="1.76424">
        <ele>251.1</ele>
        <time>2023-08-15T12:03:08Z</time>
      </trkpt>
      <trkpt lat="43.31116" lon="1.76438">
        <ele>251.6</ele>
        <time>2023-08-15T12:03:11Z</time>
      </trkpt>
      <trkpt lat="43.31099" lon="1.76453">
        <ele>251.7</ele>
        <time>2023-08-15T12:03:14Z</time>
      </trkpt>
      <trkpt lat="43.31082" lon="1.76467">
        <ele>251.4</ele>
        <time>2023-08-15T12:03:17Z</time>
      </trkpt>
      <trkpt lat="43.3106" lon="1.76487">
        <ele>252</ele>
        <time>2023-08-15T12:03:21Z</time>
      </trkpt>
      <trkpt lat="43.31043" lon="1.76501">
        <ele>252</ele>
        <time>2023-08-15T12:03:24Z</time>
      </trkpt>
      <trkpt lat="43.31021" lon="1.7652">
        <ele>252.7</ele>
        <time>2023-08-15T12:03:28Z</time>
      </trkpt>
      <trkpt lat="43.30999" lon="1.76539">
        <ele>252.2</ele>
        <time>2023-08-15T12:03:32Z</time>
      </trkpt>
      <trkpt lat="43.30976" lon="1.76558">
        <ele>252.1</ele>
        <time>2023-08-15T12:03:36Z</time>
      </trkpt>
      <trkpt lat="43.30961" lon="1.76573">
        <ele>252.2</ele>
        <time>2023-08-15T12:03:39Z</time>
      </trkpt>
      <trkpt lat="43.30941" lon="1.76591">
        <ele>252.8</ele>
        <time>2023-08-15T12:03:43Z</time>
      </trkpt>
      <trkpt lat="43.30923" lon="1.76606">
        <ele>253.6</ele>
        <time>2023-08-15T12:03:46Z</time>
      </trkpt>
      <trkpt lat="43.309" lon="1.76626">
        <ele>253.4</ele>
        <time>2023-08-15T12:03:50Z</time>
      </trkpt>
      <trkpt lat="43.30877" lon="1.76643">
        <ele>253.2</ele>
        <time>2023-08-15T12:03:54Z</time>
      </trkpt>
      <trkpt lat="43.3086" lon="1.76657">
        <ele>252.7</ele>
        <time>2023-08-15T12:03:57Z</time>
      </trkpt>
      <trkpt lat="43.30838" lon="1.76675">
        <ele>253</ele>
        <time>2023-08-15T12:04:01Z</time>
      </trkpt>
      <trkpt lat="43.30821" lon="1.76689">
        <ele>253.5</ele>
        <time>2023-08-15T12:04:04Z</time>
      </trkpt>
      <trkpt lat="43.30805" lon="1.76704">
        <ele>253.4</ele>
        <time>2023-08-15T12:04:07Z</time>
      </trkpt>
      <trkpt lat="43.30788" lon="1.76718">
        <ele>253.1</ele>
        <time>2023-08-15T12:04:10Z</time>
      </trkpt>
      <trkpt lat="43.30765" lon="1.76738">
        <ele>253.6</ele>
        <time>2023-08-15T12:04:14Z</time>
      </trkpt>
      <trkpt lat="43.30742" lon="1.76757">
        <ele>253.9</ele>
        <time>2023-08-15T12:04:18Z</time>
      </trkpt>
      <trkpt lat="43.3072" lon="1.76776">
        <ele>253.5</ele>
        <time>2023-08-15T12:04:22Z</time>
      </trkpt>
      <trkpt lat="43.30704" lon="1.7679">
        <ele>253.2</ele>
        <time>2023-08-15T12:04:25Z</time>
      </trkpt>
      <trkpt lat="43.30681" lon="1.7681">
        <ele>253.5</ele>
        <time>2023-08-15T12:04:29Z</time>
      </trkpt>
      <trkpt lat="43.30659" lon="1.76831">
        <ele>253.1</ele>
        <time>2023-08-15T12:04:33Z</time>
      </trkpt>
      <trkpt lat="43.30642" lon="1.76845">
        <ele>253.5</ele>
        <time>2023-08-15T12:04:36Z</time>
      </trkpt>
      <trkpt lat="43.30625" lon="1.7686">
        <ele>252.9</ele>
        <time>2023-08-15T12:04:39Z</time>
      </trkpt>
      <trkpt lat="43.30608" lon="1.76875">
        <ele>253</ele>
        <time>2023-08-15T12:04:42Z</time>
      </trkpt>
      <trkpt lat="43.30586" lon="1.76893">
        <ele>253.4</ele>
        <time>2023-08-15T12:04:46Z</time>
      </trkpt>
      <trkpt lat="43.30569" lon="1.76907">
        <ele>253.1</ele>
        <time>2023-08-15T12:04:49Z</time>
      </trkpt>
      <trkpt lat="43.30547" lon="1.76927">
        <ele>253.5</ele>
        <time>2023-08-15T12:04:53Z</time>
      </trkpt>
      <trkpt lat="43.30529" lon="1.76942">
        <ele>254.1</ele>
        <time>2023-08-15T12:04:56Z</time>
      </trkpt>
      <trkpt lat="43.30512" lon="1.76957">
        <ele>254.1</ele>
        <time>2023-08-15T12:04:59Z</time>
      </trkpt>
      <trkpt lat="43.3049" lon="1.76976">
        <ele>254.4</ele>
        <time>2023-08-15T12:05:03Z</time>
      </trkpt>
      <trkpt lat="43.30474" lon="1.76992">
        <ele>254.9</ele>
        <time>2023-08-15T12:05:06Z</time>
      </trkpt>
      <trkpt lat="43.30452" lon="1.77012">
        <ele>255.2</ele>
        <time>2023-08-15T12:05:10Z</time>
      </trkpt>
      <trkpt lat="43.3043" lon="1.77034">
        <ele>255.8</ele>
        <time>2023-08-15T12:05:14Z</time>
      </trkpt>
      <trkpt lat="43.3041" lon="1.77057">
        <ele>254.8</ele>
        <time>2023-08-15T12:05:18Z</time>
      </trkpt>
      <trkpt lat="43.3039" lon="1.77081">
        <ele>255.1</ele>
        <time>2023-08-15T12:05:22Z</time>
      </trkpt>
      <trkpt lat="43.30375" lon="1.77099">
        <ele>255.6</ele>
        <time>2023-08-15T12:05:25Z</time>
      </trkpt>
      <trkpt lat="43.3036" lon="1.77116">
        <ele>255.1</ele>
        <time>2023-08-15T12:05:28Z</time>
      </trkpt>
      <trkpt lat="43.3034" lon="1.77139">
        <ele>255.2</ele>
        <time>2023-08-15T12:05:32Z</time>
      </trkpt>
      <trkpt lat="43.30325" lon="1.77157">
        <ele>255.1</ele>
        <time>2023-08-15T12:05:35Z</time>
      </trkpt>
      <trkpt lat="43.3031" lon="1.77175">
        <ele>254.8</ele>
        <time>2023-08-15T12:05:38Z</time>
      </trkpt>
      <trkpt lat="43.3029" lon="1.77199">
        <ele>255.8</ele>
        <time>2023-08-15T12:05:42Z</time>
      </trkpt>
      <trkpt lat="43.30275" lon="1.77217">
        <ele>256</ele>
        <time>2023-08-15T12:05:45Z</time>
      </trkpt>
      <trkpt lat="43.30254" lon="1.7724">
        <ele>256.3</ele>
        <time>2023-08-15T12:05:49Z</time>
      </trkpt>
      <trkpt lat="43.30235" lon="1.77263">
        <ele>255.7</ele>
        <time>2023-08-15T12:05:53Z</time>
      </trkpt>
      <trkpt lat="43.3022" lon="1.77281">
        <ele>254.4</ele>
        <time>2023-08-15T12:05:56Z</time>
      </trkpt>
      <trkpt lat="43.30201" lon="1.77307">
        <ele>255.7</ele>
        <time>2023-08-15T12:06:00Z</time>
      </trkpt>
      <trkpt lat="43.30185" lon="1.77325">
        <ele>255.8</ele>
        <time>2023-08-15T12:06:03Z</time>
      </trkpt>
      <trkpt lat="43.30165" lon="1.77349">
        <ele>254.2</ele>
        <time>2023-08-15T12:06:07Z</time>
      </trkpt>
      <trkpt lat="43.30145" lon="1.77372">
        <ele>256.5</ele>
        <time>2023-08-15T12:06:11Z</time>
      </trkpt>
      <trkpt lat="43.30125" lon="1.77396">
        <ele>256.3</ele>
        <time>2023-08-15T12:06:15Z</time>
      </trkpt>
      <trkpt lat="43.30111" lon="1.77415">
        <ele>256.8</ele>
        <time>2023-08-15T12:06:18Z</time>
      </trkpt>
      <trkpt lat="43.30097" lon="1.77433">
        <ele>256.6</ele>
        <time>2023-08-15T12:06:21Z</time>
      </trkpt>
      <trkpt lat="43.30077" lon="1.77455">
        <ele>256.1</ele>
        <time>2023-08-15T12:06:25Z</time>
      </trkpt>
      <trkpt lat="43.30063" lon="1.77473">
        <ele>256.1</ele>
        <time>2023-08-15T12:06:28Z</time>
      </trkpt>
      <trkpt lat="43.30042" lon="1.77497">
        <ele>255.8</ele>
        <time>2023-08-15T12:06:32Z</time>
      </trkpt>
      <trkpt lat="43.30027" lon="1.77514">
        <ele>256</ele>
        <time>2023-08-15T12:06:35Z</time>
      </trkpt>
      <trkpt lat="43.30006" lon="1.77538">
        <ele>255.4</ele>
        <time>2023-08-15T12:06:39Z</time>
      </trkpt>
      <trkpt lat="43.29992" lon="1.77557">
        <ele>256.3</ele>
        <time>2023-08-15T12:06:42Z</time>
      </trkpt>
      <trkpt lat="43.29977" lon="1.77575">
        <ele>256.7</ele>
        <time>2023-08-15T12:06:45Z</time>
      </trkpt>
      <trkpt lat="43.29962" lon="1.77594">
        <ele>256.3</ele>
        <time>2023-08-15T12:06:48Z</time>
      </trkpt>
      <trkpt lat="43.29942" lon="1.77619">
        <ele>257.1</ele>
        <time>2023-08-15T12:06:52Z</time>
      </trkpt>
      <trkpt lat="43.29927" lon="1.77637">
        <ele>256.5</ele>
        <time>2023-08-15T12:06:55Z</time>
      </trkpt>
      <trkpt lat="43.29907" lon="1.77659">
        <ele>256.1</ele>
        <time>2023-08-15T12:06:59Z</time>
      </trkpt>
      <trkpt lat="43.29887" lon="1.77683">
        <ele>255.6</ele>
        <time>2023-08-15T12:07:03Z</time>
      </trkpt>
      <trkpt lat="43.29868" lon="1.77707">
        <ele>256.6</ele>
        <time>2023-08-15T12:07:07Z</time>
      </trkpt>
      <trkpt lat="43.29854" lon="1.77726">
        <ele>257.4</ele>
        <time>2023-08-15T12:07:10Z</time>
      </trkpt>
      <trkpt lat="43.29836" lon="1.77751">
        <ele>257.7</ele>
        <time>2023-08-15T12:07:14Z</time>
      </trkpt>
      <trkpt lat="43.29822" lon="1.77772">
        <ele>258.5</ele>
        <time>2023-08-15T12:07:17Z</time>
      </trkpt>
      <trkpt lat="43.29809" lon="1.77792">
        <ele>260.1</ele>
        <time>2023-08-15T12:07:20Z</time>
      </trkpt>
      <trkpt lat="43.29792" lon="1.77819">
        <ele>260.2</ele>
        <time>2023-08-15T12:07:24Z</time>
      </trkpt>
      <trkpt lat="43.29776" lon="1.77847">
        <ele>261.3</ele>
        <time>2023-08-15T12:07:28Z</time>
      </trkpt>
      <trkpt lat="43.29764" lon="1.77869">
        <ele>260.8</ele>
        <time>2023-08-15T12:07:31Z</time>
      </trkpt>
      <trkpt lat="43.29748" lon="1.77897">
        <ele>262.5</ele>
        <time>2023-08-15T12:07:35Z</time>
      </trkpt>
      <trkpt lat="43.29731" lon="1.77925">
        <ele>263.6</ele>
        <time>2023-08-15T12:07:39Z</time>
      </trkpt>
      <trkpt lat="43.29714" lon="1.77952">
        <ele>264.2</ele>
        <time>2023-08-15T12:07:43Z</time>
      </trkpt>
      <trkpt lat="43.29698" lon="1.77971">
        <ele>265.6</ele>
        <time>2023-08-15T12:07:46Z</time>
      </trkpt>
      <trkpt lat="43.29682" lon="1.77988">
        <ele>266.7</ele>
        <time>2023-08-15T12:07:49Z</time>
      </trkpt>
      <trkpt lat="43.29659" lon="1.78006">
        <ele>266</ele>
        <time>2023-08-15T12:07:53Z</time>
      </trkpt>
      <trkpt lat="43.29635" lon="1.78021">
        <ele>265.4</ele>
        <time>2023-08-15T12:07:57Z</time>
      </trkpt>
      <trkpt lat="43.29613" lon="1.78039">
        <ele>266.4</ele>
        <time>2023-08-15T12:08:01Z</time>
      </trkpt>
      <trkpt lat="43.29598" lon="1.78055">
        <ele>267.3</ele>
        <time>2023-08-15T12:08:04Z</time>
      </trkpt>
      <trkpt lat="43.29584" lon="1.78077">
        <ele>268.4</ele>
        <time>2023-08-15T12:08:07Z</time>
      </trkpt>
      <trkpt lat="43.29571" lon="1.78111">
        <ele>268.5</ele>
        <time>2023-08-15T12:08:11Z</time>
      </trkpt>
      <trkpt lat="43.29564" lon="1.78136">
        <ele>269.9</ele>
        <time>2023-08-15T12:08:14Z</time>
      </trkpt>
      <trkpt lat="43.29556" lon="1.78161">
        <ele>271</ele>
        <time>2023-08-15T12:08:17Z</time>
      </trkpt>
      <trkpt lat="43.29546" lon="1.78185">
        <ele>270.4</ele>
        <time>2023-08-15T12:08:21Z</time>
      </trkpt>
      <trkpt lat="43.29542" lon="1.78201">
        <ele>270.9</ele>
        <time>2023-08-15T12:08:24Z</time>
      </trkpt>
      <trkpt lat="43.29532" lon="1.78228">
        <ele>271.1</ele>
        <time>2023-08-15T12:08:28Z</time>
      </trkpt>
      <trkpt lat="43.29523" lon="1.78249">
        <ele>271.3</ele>
        <time>2023-08-15T12:08:31Z</time>
      </trkpt>
      <trkpt lat="43.29515" lon="1.78269">
        <ele>272.2</ele>
        <time>2023-08-15T12:08:34Z</time>
      </trkpt>
      <trkpt lat="43.29506" lon="1.78291">
        <ele>272.6</ele>
        <time>2023-08-15T12:08:37Z</time>
      </trkpt>
      <trkpt lat="43.29496" lon="1.78322">
        <ele>274.2</ele>
        <time>2023-08-15T12:08:41Z</time>
      </trkpt>
      <trkpt lat="43.29486" lon="1.78348">
        <ele>274.5</ele>
        <time>2023-08-15T12:08:45Z</time>
      </trkpt>
      <trkpt lat="43.29475" lon="1.78368">
        <ele>274.6</ele>
        <time>2023-08-15T12:08:49Z</time>
      </trkpt>
      <trkpt lat="43.29468" lon="1.78395">
        <ele>274.6</ele>
        <time>2023-08-15T12:08:53Z</time>
      </trkpt>
      <trkpt lat="43.29457" lon="1.78425">
        <ele>274.2</ele>
        <time>2023-08-15T12:08:57Z</time>
      </trkpt>
      <trkpt lat="43.29445" lon="1.78453">
        <ele>275.1</ele>
        <time>2023-08-15T12:09:01Z</time>
      </trkpt>
      <trkpt lat="43.29435" lon="1.78477">
        <ele>275.5</ele>
        <time>2023-08-15T12:09:04Z</time>
      </trkpt>
      <trkpt lat="43.29422" lon="1.78509">
        <ele>274.5</ele>
        <time>2023-08-15T12:09:08Z</time>
      </trkpt>
      <trkpt lat="43.29414" lon="1.78531">
        <ele>275.7</ele>
        <time>2023-08-15T12:09:11Z</time>
      </trkpt>
      <trkpt lat="43.29404" lon="1.7856">
        <ele>277.5</ele>
        <time>2023-08-15T12:09:15Z</time>
      </trkpt>
      <trkpt lat="43.29393" lon="1.78587">
        <ele>277.5</ele>
        <time>2023-08-15T12:09:19Z</time>
      </trkpt>
      <trkpt lat="43.29381" lon="1.7861">
        <ele>277.5</ele>
        <time>2023-08-15T12:09:23Z</time>
      </trkpt>
      <trkpt lat="43.29373" lon="1.78624">
        <ele>277.5</ele>
        <time>2023-08-15T12:09:26Z</time>
      </trkpt>
      <trkpt lat="43.29367" lon="1.7864">
        <ele>277.5</ele>
        <time>2023-08-15T12:09:29Z</time>
      </trkpt>
      <trkpt lat="43.29358" lon="1.78657">
        <ele>277.5</ele>
        <time>2023-08-15T12:09:33Z</time>
      </trkpt>
      <trkpt lat="43.29352" lon="1.7867">
        <ele>279.5</ele>
        <time>2023-08-15T12:09:36Z</time>
      </trkpt>
      <trkpt lat="43.29346" lon="1.78678">
        <ele>279.8</ele>
        <time>2023-08-15T12:09:39Z</time>
      </trkpt>
      <trkpt lat="43.29341" lon="1.78681">
        <ele>277.5</ele>
        <time>2023-08-15T12:09:43Z</time>
      </trkpt>
      <trkpt lat="43.29331" lon="1.78675">
        <ele>277.5</ele>
        <time>2023-08-15T12:09:46Z</time>
      </trkpt>
      <trkpt lat="43.29321" lon="1.78668">
        <ele>277.5</ele>
        <time>2023-08-15T12:09:49Z</time>
      </trkpt>
      <trkpt lat="43.29303" lon="1.78656">
        <ele>277.5</ele>
        <time>2023-08-15T12:09:53Z</time>
      </trkpt>
      <trkpt lat="43.29287" lon="1.78646">
        <ele>277.5</ele>
        <time>2023-08-15T12:09:56Z</time>
      </trkpt>
      <trkpt lat="43.29267" lon="1.78632">
        <ele>277.5</ele>
        <time>2023-08-15T12:10:00Z</time>
      </trkpt>
      <trkpt lat="43.29241" lon="1.78616">
        <ele>279.7</ele>
        <time>2023-08-15T12:10:04Z</time>
      </trkpt>
      <trkpt lat="43.29216" lon="1.786">
        <ele>281.9</ele>
        <time>2023-08-15T12:10:08Z</time>
      </trkpt>
      <trkpt lat="43.29199" lon="1.78591">
        <ele>279.5</ele>
        <time>2023-08-15T12:10:11Z</time>
      </trkpt>
      <trkpt lat="43.29177" lon="1.78579">
        <ele>279.6</ele>
        <time>2023-08-15T12:10:15Z</time>
      </trkpt>
      <trkpt lat="43.29159" lon="1.78571">
        <ele>277.5</ele>
        <time>2023-08-15T12:10:18Z</time>
      </trkpt>
      <trkpt lat="43.29138" lon="1.78573">
        <ele>275.3</ele>
        <time>2023-08-15T12:10:21Z</time>
      </trkpt>
      <trkpt lat="43.29119" lon="1.78585">
        <ele>274.9</ele>
        <time>2023-08-15T12:10:24Z</time>
      </trkpt>
      <trkpt lat="43.29102" lon="1.78596">
        <ele>274.3</ele>
        <time>2023-08-15T12:10:27Z</time>
      </trkpt>
      <trkpt lat="43.29084" lon="1.78605">
        <ele>277.5</ele>
        <time>2023-08-15T12:10:30Z</time>
      </trkpt>
      <trkpt lat="43.29065" lon="1.78607">
        <ele>275.7</ele>
        <time>2023-08-15T12:10:33Z</time>
      </trkpt>
      <trkpt lat="43.29039" lon="1.78608">
        <ele>273.9</ele>
        <time>2023-08-15T12:10:37Z</time>
      </trkpt>
      <trkpt lat="43.29019" lon="1.78609">
        <ele>272.7</ele>
        <time>2023-08-15T12:10:40Z</time>
      </trkpt>
      <trkpt lat="43.28994" lon="1.78613">
        <ele>272.7</ele>
        <time>2023-08-15T12:10:44Z</time>
      </trkpt>
      <trkpt lat="43.28967" lon="1.78618">
        <ele>271.7</ele>
        <time>2023-08-15T12:10:48Z</time>
      </trkpt>
      <trkpt lat="43.28948" lon="1.78626">
        <ele>271.8</ele>
        <time>2023-08-15T12:10:51Z</time>
      </trkpt>
      <trkpt lat="43.28924" lon="1.78643">
        <ele>271.7</ele>
        <time>2023-08-15T12:10:55Z</time>
      </trkpt>
      <trkpt lat="43.28907" lon="1.78657">
        <ele>272.1</ele>
        <time>2023-08-15T12:10:58Z</time>
      </trkpt>
      <trkpt lat="43.28884" lon="1.78674">
        <ele>271.4</ele>
        <time>2023-08-15T12:11:02Z</time>
      </trkpt>
      <trkpt lat="43.28861" lon="1.78694">
        <ele>271.7</ele>
        <time>2023-08-15T12:11:06Z</time>
      </trkpt>
      <trkpt lat="43.28842" lon="1.78716">
        <ele>270.6</ele>
        <time>2023-08-15T12:11:10Z</time>
      </trkpt>
      <trkpt lat="43.28823" lon="1.78742">
        <ele>269.7</ele>
        <time>2023-08-15T12:11:14Z</time>
      </trkpt>
      <trkpt lat="43.28808" lon="1.78761">
        <ele>269.6</ele>
        <time>2023-08-15T12:11:17Z</time>
      </trkpt>
      <trkpt lat="43.28793" lon="1.78779">
        <ele>268.9</ele>
        <time>2023-08-15T12:11:20Z</time>
      </trkpt>
      <trkpt lat="43.28773" lon="1.78804">
        <ele>269.5</ele>
        <time>2023-08-15T12:11:24Z</time>
      </trkpt>
      <trkpt lat="43.28754" lon="1.7883">
        <ele>271.2</ele>
        <time>2023-08-15T12:11:28Z</time>
      </trkpt>
      <trkpt lat="43.2874" lon="1.7885">
        <ele>271.3</ele>
        <time>2023-08-15T12:11:31Z</time>
      </trkpt>
      <trkpt lat="43.28728" lon="1.78871">
        <ele>271.3</ele>
        <time>2023-08-15T12:11:34Z</time>
      </trkpt>
      <trkpt lat="43.28713" lon="1.789">
        <ele>270.9</ele>
        <time>2023-08-15T12:11:38Z</time>
      </trkpt>
      <trkpt lat="43.28696" lon="1.78928">
        <ele>271.5</ele>
        <time>2023-08-15T12:11:42Z</time>
      </trkpt>
      <trkpt lat="43.28681" lon="1.78945">
        <ele>268.6</ele>
        <time>2023-08-15T12:11:45Z</time>
      </trkpt>
      <trkpt lat="43.28662" lon="1.78957">
        <ele>268</ele>
        <time>2023-08-15T12:11:48Z</time>
      </trkpt>
      <trkpt lat="43.28637" lon="1.7897">
        <ele>267.9</ele>
        <time>2023-08-15T12:11:52Z</time>
      </trkpt>
      <trkpt lat="43.28618" lon="1.78978">
        <ele>267.6</ele>
        <time>2023-08-15T12:11:55Z</time>
      </trkpt>
      <trkpt lat="43.28594" lon="1.78988">
        <ele>267.1</ele>
        <time>2023-08-15T12:11:59Z</time>
      </trkpt>
      <trkpt lat="43.28575" lon="1.78996">
        <ele>267.4</ele>
        <time>2023-08-15T12:12:02Z</time>
      </trkpt>
      <trkpt lat="43.28556" lon="1.79005">
        <ele>267.2</ele>
        <time>2023-08-15T12:12:05Z</time>
      </trkpt>
      <trkpt lat="43.28531" lon="1.79017">
        <ele>266.8</ele>
        <time>2023-08-15T12:12:09Z</time>
      </trkpt>
      <trkpt lat="43.28513" lon="1.79025">
        <ele>266.4</ele>
        <time>2023-08-15T12:12:12Z</time>
      </trkpt>
      <trkpt lat="43.28489" lon="1.79037">
        <ele>266.5</ele>
        <time>2023-08-15T12:12:16Z</time>
      </trkpt>
      <trkpt lat="43.2847" lon="1.79045">
        <ele>266.8</ele>
        <time>2023-08-15T12:12:19Z</time>
      </trkpt>
      <trkpt lat="43.28445" lon="1.79056">
        <ele>267.5</ele>
        <time>2023-08-15T12:12:23Z</time>
      </trkpt>
      <trkpt lat="43.28426" lon="1.79064">
        <ele>267.5</ele>
        <time>2023-08-15T12:12:26Z</time>
      </trkpt>
      <trkpt lat="43.28402" lon="1.79078">
        <ele>269.8</ele>
        <time>2023-08-15T12:12:30Z</time>
      </trkpt>
      <trkpt lat="43.28379" lon="1.79096">
        <ele>269.6</ele>
        <time>2023-08-15T12:12:34Z</time>
      </trkpt>
      <trkpt lat="43.28363" lon="1.79112">
        <ele>270.1</ele>
        <time>2023-08-15T12:12:37Z</time>
      </trkpt>
      <trkpt lat="43.28346" lon="1.79127">
        <ele>269.3</ele>
        <time>2023-08-15T12:12:40Z</time>
      </trkpt>
      <trkpt lat="43.28324" lon="1.79147">
        <ele>268.9</ele>
        <time>2023-08-15T12:12:44Z</time>
      </trkpt>
      <trkpt lat="43.28307" lon="1.79162">
        <ele>268.6</ele>
        <time>2023-08-15T12:12:47Z</time>
      </trkpt>
      <trkpt lat="43.28284" lon="1.79181">
        <ele>267.7</ele>
        <time>2023-08-15T12:12:51Z</time>
      </trkpt>
      <trkpt lat="43.28263" lon="1.792">
        <ele>268.6</ele>
        <time>2023-08-15T12:12:55Z</time>
      </trkpt>
      <trkpt lat="43.28246" lon="1.79216">
        <ele>269.8</ele>
        <time>2023-08-15T12:12:58Z</time>
      </trkpt>
      <trkpt lat="43.28224" lon="1.79234">
        <ele>270.1</ele>
        <time>2023-08-15T12:13:02Z</time>
      </trkpt>
      <trkpt lat="43.28208" lon="1.7925">
        <ele>271</ele>
        <time>2023-08-15T12:13:05Z</time>
      </trkpt>
      <trkpt lat="43.28188" lon="1.79274">
        <ele>271.7</ele>
        <time>2023-08-15T12:13:09Z</time>
      </trkpt>
      <trkpt lat="43.28175" lon="1.79295">
        <ele>270.4</ele>
        <time>2023-08-15T12:13:12Z</time>
      </trkpt>
      <trkpt lat="43.28162" lon="1.79324">
        <ele>270.1</ele>
        <time>2023-08-15T12:13:16Z</time>
      </trkpt>
      <trkpt lat="43.28149" lon="1.79353">
        <ele>270.6</ele>
        <time>2023-08-15T12:13:20Z</time>
      </trkpt>
      <trkpt lat="43.28132" lon="1.79384">
        <ele>271.2</ele>
        <time>2023-08-15T12:13:24Z</time>
      </trkpt>
      <trkpt lat="43.28114" lon="1.7941">
        <ele>272.3</ele>
        <time>2023-08-15T12:13:28Z</time>
      </trkpt>
      <trkpt lat="43.28092" lon="1.79431">
        <ele>272.7</ele>
        <time>2023-08-15T12:13:32Z</time>
      </trkpt>
      <trkpt lat="43.28066" lon="1.7944">
        <ele>272.6</ele>
        <time>2023-08-15T12:13:36Z</time>
      </trkpt>
      <trkpt lat="43.28039" lon="1.79437">
        <ele>271.3</ele>
        <time>2023-08-15T12:13:40Z</time>
      </trkpt>
      <trkpt lat="43.28018" lon="1.79431">
        <ele>270.3</ele>
        <time>2023-08-15T12:13:43Z</time>
      </trkpt>
      <trkpt lat="43.27993" lon="1.79421">
        <ele>271</ele>
        <time>2023-08-15T12:13:47Z</time>
      </trkpt>
      <trkpt lat="43.27973" lon="1.79416">
        <ele>269.9</ele>
        <time>2023-08-15T12:13:50Z</time>
      </trkpt>
      <trkpt lat="43.27956" lon="1.79411">
        <ele>270.7</ele>
        <time>2023-08-15T12:13:53Z</time>
      </trkpt>
      <trkpt lat="43.27939" lon="1.79408">
        <ele>272</ele>
        <time>2023-08-15T12:13:56Z</time>
      </trkpt>
      <trkpt lat="43.27911" lon="1.79408">
        <ele>271.9</ele>
        <time>2023-08-15T12:14:00Z</time>
      </trkpt>
      <trkpt lat="43.27895" lon="1.79419">
        <ele>271.9</ele>
        <time>2023-08-15T12:14:03Z</time>
      </trkpt>
      <trkpt lat="43.27882" lon="1.79432">
        <ele>272.2</ele>
        <time>2023-08-15T12:14:07Z</time>
      </trkpt>
      <trkpt lat="43.27871" lon="1.79446">
        <ele>270.7</ele>
        <time>2023-08-15T12:14:10Z</time>
      </trkpt>
      <trkpt lat="43.2786" lon="1.7946">
        <ele>270.4</ele>
        <time>2023-08-15T12:14:13Z</time>
      </trkpt>
      <trkpt lat="43.27848" lon="1.79473">
        <ele>270.6</ele>
        <time>2023-08-15T12:14:17Z</time>
      </trkpt>
      <trkpt lat="43.27839" lon="1.79485">
        <ele>271.8</ele>
        <time>2023-08-15T12:14:21Z</time>
      </trkpt>
      <trkpt lat="43.27826" lon="1.79501">
        <ele>272.8</ele>
        <time>2023-08-15T12:14:25Z</time>
      </trkpt>
      <trkpt lat="43.27814" lon="1.79516">
        <ele>273.1</ele>
        <time>2023-08-15T12:14:29Z</time>
      </trkpt>
      <trkpt lat="43.27807" lon="1.79525">
        <ele>272.9</ele>
        <time>2023-08-15T12:14:32Z</time>
      </trkpt>
      <trkpt lat="43.27804" lon="1.79528">
        <ele>271.5</ele>
        <time>2023-08-15T12:14:37Z</time>
      </trkpt>
      <trkpt lat="43.278" lon="1.79532">
        <ele>270.9</ele>
        <time>2023-08-15T12:15:17Z</time>
      </trkpt>
      <trkpt lat="43.27798" lon="1.79534">
        <ele>271.9</ele>
        <time>2023-08-15T12:15:20Z</time>
      </trkpt>
      <trkpt lat="43.27791" lon="1.79544">
        <ele>272.4</ele>
        <time>2023-08-15T12:15:23Z</time>
      </trkpt>
      <trkpt lat="43.27773" lon="1.79567">
        <ele>273.2</ele>
        <time>2023-08-15T12:15:27Z</time>
      </trkpt>
      <trkpt lat="43.27758" lon="1.79584">
        <ele>274.2</ele>
        <time>2023-08-15T12:15:30Z</time>
      </trkpt>
      <trkpt lat="43.27743" lon="1.79602">
        <ele>273.8</ele>
        <time>2023-08-15T12:15:33Z</time>
      </trkpt>
      <trkpt lat="43.27723" lon="1.79626">
        <ele>272.5</ele>
        <time>2023-08-15T12:15:37Z</time>
      </trkpt>
      <trkpt lat="43.2771" lon="1.79641">
        <ele>272.4</ele>
        <time>2023-08-15T12:15:40Z</time>
      </trkpt>
      <trkpt lat="43.27695" lon="1.7966">
        <ele>272.3</ele>
        <time>2023-08-15T12:15:43Z</time>
      </trkpt>
      <trkpt lat="43.27674" lon="1.79685">
        <ele>274</ele>
        <time>2023-08-15T12:15:47Z</time>
      </trkpt>
      <trkpt lat="43.27659" lon="1.79702">
        <ele>273.6</ele>
        <time>2023-08-15T12:15:50Z</time>
      </trkpt>
      <trkpt lat="43.27645" lon="1.79719">
        <ele>274.3</ele>
        <time>2023-08-15T12:15:53Z</time>
      </trkpt>
      <trkpt lat="43.27625" lon="1.79743">
        <ele>274.1</ele>
        <time>2023-08-15T12:15:57Z</time>
      </trkpt>
      <trkpt lat="43.2761" lon="1.79759">
        <ele>274.6</ele>
        <time>2023-08-15T12:16:00Z</time>
      </trkpt>
      <trkpt lat="43.27595" lon="1.79776">
        <ele>274.9</ele>
        <time>2023-08-15T12:16:03Z</time>
      </trkpt>
      <trkpt lat="43.2758" lon="1.79793">
        <ele>273.4</ele>
        <time>2023-08-15T12:16:06Z</time>
      </trkpt>
      <trkpt lat="43.27565" lon="1.79812">
        <ele>273</ele>
        <time>2023-08-15T12:16:09Z</time>
      </trkpt>
      <trkpt lat="43.27545" lon="1.79836">
        <ele>273.3</ele>
        <time>2023-08-15T12:16:13Z</time>
      </trkpt>
      <trkpt lat="43.27525" lon="1.79861">
        <ele>274.7</ele>
        <time>2023-08-15T12:16:17Z</time>
      </trkpt>
      <trkpt lat="43.27505" lon="1.79885">
        <ele>276</ele>
        <time>2023-08-15T12:16:21Z</time>
      </trkpt>
      <trkpt lat="43.27486" lon="1.79911">
        <ele>276.7</ele>
        <time>2023-08-15T12:16:25Z</time>
      </trkpt>
      <trkpt lat="43.27466" lon="1.79935">
        <ele>276.7</ele>
        <time>2023-08-15T12:16:29Z</time>
      </trkpt>
      <trkpt lat="43.27446" lon="1.79958">
        <ele>275.2</ele>
        <time>2023-08-15T12:16:33Z</time>
      </trkpt>
      <trkpt lat="43.27426" lon="1.7998">
        <ele>275.3</ele>
        <time>2023-08-15T12:16:37Z</time>
      </trkpt>
      <trkpt lat="43.27411" lon="1.79998">
        <ele>274.6</ele>
        <time>2023-08-15T12:16:40Z</time>
      </trkpt>
      <trkpt lat="43.27391" lon="1.80023">
        <ele>275.5</ele>
        <time>2023-08-15T12:16:44Z</time>
      </trkpt>
      <trkpt lat="43.27375" lon="1.80042">
        <ele>276.6</ele>
        <time>2023-08-15T12:16:47Z</time>
      </trkpt>
      <trkpt lat="43.27356" lon="1.80067">
        <ele>277.2</ele>
        <time>2023-08-15T12:16:51Z</time>
      </trkpt>
      <trkpt lat="43.27337" lon="1.80091">
        <ele>278.3</ele>
        <time>2023-08-15T12:16:55Z</time>
      </trkpt>
      <trkpt lat="43.27316" lon="1.80116">
        <ele>277.9</ele>
        <time>2023-08-15T12:16:59Z</time>
      </trkpt>
      <trkpt lat="43.27301" lon="1.80134">
        <ele>277.1</ele>
        <time>2023-08-15T12:17:02Z</time>
      </trkpt>
      <trkpt lat="43.27287" lon="1.80152">
        <ele>276.9</ele>
        <time>2023-08-15T12:17:05Z</time>
      </trkpt>
      <trkpt lat="43.27268" lon="1.80176">
        <ele>276.7</ele>
        <time>2023-08-15T12:17:09Z</time>
      </trkpt>
      <trkpt lat="43.27249" lon="1.802">
        <ele>276.7</ele>
        <time>2023-08-15T12:17:13Z</time>
      </trkpt>
      <trkpt lat="43.27234" lon="1.80216">
        <ele>277.6</ele>
        <time>2023-08-15T12:17:16Z</time>
      </trkpt>
      <trkpt lat="43.27213" lon="1.80237">
        <ele>278.4</ele>
        <time>2023-08-15T12:17:20Z</time>
      </trkpt>
      <trkpt lat="43.27197" lon="1.80254">
        <ele>278.8</ele>
        <time>2023-08-15T12:17:23Z</time>
      </trkpt>
      <trkpt lat="43.27177" lon="1.80278">
        <ele>279</ele>
        <time>2023-08-15T12:17:27Z</time>
      </trkpt>
      <trkpt lat="43.27162" lon="1.80297">
        <ele>278.8</ele>
        <time>2023-08-15T12:17:30Z</time>
      </trkpt>
      <trkpt lat="43.27147" lon="1.80316">
        <ele>277.8</ele>
        <time>2023-08-15T12:17:33Z</time>
      </trkpt>
      <trkpt lat="43.27133" lon="1.80335">
        <ele>277.8</ele>
        <time>2023-08-15T12:17:36Z</time>
      </trkpt>
      <trkpt lat="43.27118" lon="1.80355">
        <ele>278</ele>
        <time>2023-08-15T12:17:39Z</time>
      </trkpt>
      <trkpt lat="43.27098" lon="1.80379">
        <ele>278.5</ele>
        <time>2023-08-15T12:17:43Z</time>
      </trkpt>
      <trkpt lat="43.27078" lon="1.80404">
        <ele>277.7</ele>
        <time>2023-08-15T12:17:47Z</time>
      </trkpt>
      <trkpt lat="43.27064" lon="1.80423">
        <ele>278.7</ele>
        <time>2023-08-15T12:17:50Z</time>
      </trkpt>
      <trkpt lat="43.27044" lon="1.80447">
        <ele>280.1</ele>
        <time>2023-08-15T12:17:54Z</time>
      </trkpt>
      <trkpt lat="43.27029" lon="1.80464">
        <ele>279.3</ele>
        <time>2023-08-15T12:17:57Z</time>
      </trkpt>
      <trkpt lat="43.27009" lon="1.80486">
        <ele>277.6</ele>
        <time>2023-08-15T12:18:01Z</time>
      </trkpt>
      <trkpt lat="43.26994" lon="1.80502">
        <ele>277.3</ele>
        <time>2023-08-15T12:18:04Z</time>
      </trkpt>
      <trkpt lat="43.26975" lon="1.80526">
        <ele>277.5</ele>
        <time>2023-08-15T12:18:08Z</time>
      </trkpt>
      <trkpt lat="43.26954" lon="1.80549">
        <ele>278.7</ele>
        <time>2023-08-15T12:18:12Z</time>
      </trkpt>
      <trkpt lat="43.26938" lon="1.80565">
        <ele>279.2</ele>
        <time>2023-08-15T12:18:15Z</time>
      </trkpt>
      <trkpt lat="43.26916" lon="1.80582">
        <ele>280.2</ele>
        <time>2023-08-15T12:18:19Z</time>
      </trkpt>
      <trkpt lat="43.26891" lon="1.80598">
        <ele>279.5</ele>
        <time>2023-08-15T12:18:23Z</time>
      </trkpt>
      <trkpt lat="43.26867" lon="1.80614">
        <ele>279.3</ele>
        <time>2023-08-15T12:18:27Z</time>
      </trkpt>
      <trkpt lat="43.26843" lon="1.80631">
        <ele>279.3</ele>
        <time>2023-08-15T12:18:31Z</time>
      </trkpt>
      <trkpt lat="43.26825" lon="1.80643">
        <ele>278.7</ele>
        <time>2023-08-15T12:18:34Z</time>
      </trkpt>
      <trkpt lat="43.26802" lon="1.80659">
        <ele>278.8</ele>
        <time>2023-08-15T12:18:38Z</time>
      </trkpt>
      <trkpt lat="43.26785" lon="1.80672">
        <ele>279.4</ele>
        <time>2023-08-15T12:18:41Z</time>
      </trkpt>
      <trkpt lat="43.26764" lon="1.80693">
        <ele>280.7</ele>
        <time>2023-08-15T12:18:45Z</time>
      </trkpt>
      <trkpt lat="43.26751" lon="1.80713">
        <ele>281.8</ele>
        <time>2023-08-15T12:18:48Z</time>
      </trkpt>
      <trkpt lat="43.26738" lon="1.80734">
        <ele>281.8</ele>
        <time>2023-08-15T12:18:51Z</time>
      </trkpt>
      <trkpt lat="43.2672" lon="1.80761">
        <ele>281.1</ele>
        <time>2023-08-15T12:18:55Z</time>
      </trkpt>
      <trkpt lat="43.26701" lon="1.80787">
        <ele>280.1</ele>
        <time>2023-08-15T12:18:59Z</time>
      </trkpt>
      <trkpt lat="43.26687" lon="1.80805">
        <ele>279.5</ele>
        <time>2023-08-15T12:19:02Z</time>
      </trkpt>
      <trkpt lat="43.26667" lon="1.80829">
        <ele>280.3</ele>
        <time>2023-08-15T12:19:06Z</time>
      </trkpt>
      <trkpt lat="43.26646" lon="1.80854">
        <ele>281</ele>
        <time>2023-08-15T12:19:10Z</time>
      </trkpt>
      <trkpt lat="43.26626" lon="1.80878">
        <ele>281.9</ele>
        <time>2023-08-15T12:19:14Z</time>
      </trkpt>
      <trkpt lat="43.26606" lon="1.80901">
        <ele>281.7</ele>
        <time>2023-08-15T12:19:18Z</time>
      </trkpt>
      <trkpt lat="43.26592" lon="1.80919">
        <ele>282</ele>
        <time>2023-08-15T12:19:21Z</time>
      </trkpt>
      <trkpt lat="43.26575" lon="1.80945">
        <ele>283.3</ele>
        <time>2023-08-15T12:19:25Z</time>
      </trkpt>
      <trkpt lat="43.26558" lon="1.80972">
        <ele>282.6</ele>
        <time>2023-08-15T12:19:29Z</time>
      </trkpt>
      <trkpt lat="43.26545" lon="1.80992">
        <ele>282.3</ele>
        <time>2023-08-15T12:19:32Z</time>
      </trkpt>
      <trkpt lat="43.2653" lon="1.81016">
        <ele>282</ele>
        <time>2023-08-15T12:19:36Z</time>
      </trkpt>
      <trkpt lat="43.26518" lon="1.81036">
        <ele>282.7</ele>
        <time>2023-08-15T12:19:39Z</time>
      </trkpt>
      <trkpt lat="43.26504" lon="1.81057">
        <ele>283.1</ele>
        <time>2023-08-15T12:19:42Z</time>
      </trkpt>
      <trkpt lat="43.26486" lon="1.81084">
        <ele>284.8</ele>
        <time>2023-08-15T12:19:46Z</time>
      </trkpt>
      <trkpt lat="43.26474" lon="1.81105">
        <ele>284.3</ele>
        <time>2023-08-15T12:19:49Z</time>
      </trkpt>
      <trkpt lat="43.26455" lon="1.81134">
        <ele>284.5</ele>
        <time>2023-08-15T12:19:53Z</time>
      </trkpt>
      <trkpt lat="43.26441" lon="1.81154">
        <ele>283.2</ele>
        <time>2023-08-15T12:19:56Z</time>
      </trkpt>
      <trkpt lat="43.26426" lon="1.81171">
        <ele>283</ele>
        <time>2023-08-15T12:19:59Z</time>
      </trkpt>
      <trkpt lat="43.26403" lon="1.8119">
        <ele>283.6</ele>
        <time>2023-08-15T12:20:03Z</time>
      </trkpt>
      <trkpt lat="43.26386" lon="1.81203">
        <ele>282.3</ele>
        <time>2023-08-15T12:20:06Z</time>
      </trkpt>
      <trkpt lat="43.26362" lon="1.81219">
        <ele>283.4</ele>
        <time>2023-08-15T12:20:10Z</time>
      </trkpt>
      <trkpt lat="43.26338" lon="1.81236">
        <ele>285</ele>
        <time>2023-08-15T12:20:14Z</time>
      </trkpt>
      <trkpt lat="43.26316" lon="1.81255">
        <ele>284.4</ele>
        <time>2023-08-15T12:20:18Z</time>
      </trkpt>
      <trkpt lat="43.26301" lon="1.81272">
        <ele>285.1</ele>
        <time>2023-08-15T12:20:21Z</time>
      </trkpt>
      <trkpt lat="43.26283" lon="1.81299">
        <ele>283.8</ele>
        <time>2023-08-15T12:20:25Z</time>
      </trkpt>
      <trkpt lat="43.26271" lon="1.81322">
        <ele>284.1</ele>
        <time>2023-08-15T12:20:28Z</time>
      </trkpt>
      <trkpt lat="43.26259" lon="1.81344">
        <ele>284.4</ele>
        <time>2023-08-15T12:20:31Z</time>
      </trkpt>
      <trkpt lat="43.26246" lon="1.81365">
        <ele>284.2</ele>
        <time>2023-08-15T12:20:34Z</time>
      </trkpt>
      <trkpt lat="43.26233" lon="1.81385">
        <ele>285.1</ele>
        <time>2023-08-15T12:20:37Z</time>
      </trkpt>
      <trkpt lat="43.26213" lon="1.81407">
        <ele>285.9</ele>
        <time>2023-08-15T12:20:41Z</time>
      </trkpt>
      <trkpt lat="43.26197" lon="1.81422">
        <ele>288.2</ele>
        <time>2023-08-15T12:20:44Z</time>
      </trkpt>
      <trkpt lat="43.26175" lon="1.81442">
        <ele>287.9</ele>
        <time>2023-08-15T12:20:48Z</time>
      </trkpt>
      <trkpt lat="43.26153" lon="1.81464">
        <ele>287.5</ele>
        <time>2023-08-15T12:20:52Z</time>
      </trkpt>
      <trkpt lat="43.26137" lon="1.8148">
        <ele>285.8</ele>
        <time>2023-08-15T12:20:55Z</time>
      </trkpt>
      <trkpt lat="43.26115" lon="1.815">
        <ele>285.7</ele>
        <time>2023-08-15T12:20:59Z</time>
      </trkpt>
      <trkpt lat="43.26098" lon="1.81516">
        <ele>286.2</ele>
        <time>2023-08-15T12:21:02Z</time>
      </trkpt>
      <trkpt lat="43.26076" lon="1.81534">
        <ele>286.1</ele>
        <time>2023-08-15T12:21:06Z</time>
      </trkpt>
      <trkpt lat="43.2606" lon="1.81546">
        <ele>287.4</ele>
        <time>2023-08-15T12:21:09Z</time>
      </trkpt>
      <trkpt lat="43.26043" lon="1.81561">
        <ele>288</ele>
        <time>2023-08-15T12:21:12Z</time>
      </trkpt>
      <trkpt lat="43.26024" lon="1.81586">
        <ele>289.7</ele>
        <time>2023-08-15T12:21:16Z</time>
      </trkpt>
      <trkpt lat="43.26012" lon="1.81609">
        <ele>289.6</ele>
        <time>2023-08-15T12:21:19Z</time>
      </trkpt>
      <trkpt lat="43.26001" lon="1.81632">
        <ele>290.2</ele>
        <time>2023-08-15T12:21:22Z</time>
      </trkpt>
      <trkpt lat="43.25985" lon="1.81663">
        <ele>288</ele>
        <time>2023-08-15T12:21:26Z</time>
      </trkpt>
      <trkpt lat="43.25969" lon="1.81692">
        <ele>288.5</ele>
        <time>2023-08-15T12:21:30Z</time>
      </trkpt>
      <trkpt lat="43.25952" lon="1.81718">
        <ele>288.4</ele>
        <time>2023-08-15T12:21:34Z</time>
      </trkpt>
      <trkpt lat="43.25932" lon="1.81742">
        <ele>289.5</ele>
        <time>2023-08-15T12:21:38Z</time>
      </trkpt>
      <trkpt lat="43.25912" lon="1.81766">
        <ele>290.4</ele>
        <time>2023-08-15T12:21:42Z</time>
      </trkpt>
      <trkpt lat="43.25892" lon="1.81788">
        <ele>289.4</ele>
        <time>2023-08-15T12:21:46Z</time>
      </trkpt>
      <trkpt lat="43.25876" lon="1.81806">
        <ele>289.6</ele>
        <time>2023-08-15T12:21:49Z</time>
      </trkpt>
      <trkpt lat="43.25855" lon="1.81829">
        <ele>288.4</ele>
        <time>2023-08-15T12:21:53Z</time>
      </trkpt>
      <trkpt lat="43.25837" lon="1.81854">
        <ele>288.2</ele>
        <time>2023-08-15T12:21:57Z</time>
      </trkpt>
      <trkpt lat="43.25824" lon="1.81875">
        <ele>288.9</ele>
        <time>2023-08-15T12:22:00Z</time>
      </trkpt>
      <trkpt lat="43.25815" lon="1.81899">
        <ele>288.7</ele>
        <time>2023-08-15T12:22:03Z</time>
      </trkpt>
      <trkpt lat="43.25805" lon="1.81933">
        <ele>291.4</ele>
        <time>2023-08-15T12:22:07Z</time>
      </trkpt>
      <trkpt lat="43.25794" lon="1.81967">
        <ele>292.4</ele>
        <time>2023-08-15T12:22:11Z</time>
      </trkpt>
      <trkpt lat="43.25782" lon="1.82">
        <ele>291.4</ele>
        <time>2023-08-15T12:22:15Z</time>
      </trkpt>
      <trkpt lat="43.25774" lon="1.82025">
        <ele>291.5</ele>
        <time>2023-08-15T12:22:18Z</time>
      </trkpt>
      <trkpt lat="43.25763" lon="1.82058">
        <ele>290</ele>
        <time>2023-08-15T12:22:22Z</time>
      </trkpt>
      <trkpt lat="43.25754" lon="1.82083">
        <ele>290.3</ele>
        <time>2023-08-15T12:22:25Z</time>
      </trkpt>
      <trkpt lat="43.25743" lon="1.82116">
        <ele>291.4</ele>
        <time>2023-08-15T12:22:29Z</time>
      </trkpt>
      <trkpt lat="43.25735" lon="1.82141">
        <ele>291.1</ele>
        <time>2023-08-15T12:22:32Z</time>
      </trkpt>
      <trkpt lat="43.25724" lon="1.82173">
        <ele>293.2</ele>
        <time>2023-08-15T12:22:36Z</time>
      </trkpt>
      <trkpt lat="43.25713" lon="1.82195">
        <ele>294.1</ele>
        <time>2023-08-15T12:22:39Z</time>
      </trkpt>
      <trkpt lat="43.25696" lon="1.82223">
        <ele>293.6</ele>
        <time>2023-08-15T12:22:43Z</time>
      </trkpt>
      <trkpt lat="43.25683" lon="1.82243">
        <ele>293.6</ele>
        <time>2023-08-15T12:22:46Z</time>
      </trkpt>
      <trkpt lat="43.25671" lon="1.82264">
        <ele>293.3</ele>
        <time>2023-08-15T12:22:49Z</time>
      </trkpt>
      <trkpt lat="43.25659" lon="1.82285">
        <ele>292.8</ele>
        <time>2023-08-15T12:22:52Z</time>
      </trkpt>
      <trkpt lat="43.25642" lon="1.82312">
        <ele>293</ele>
        <time>2023-08-15T12:22:56Z</time>
      </trkpt>
      <trkpt lat="43.25624" lon="1.82338">
        <ele>294.1</ele>
        <time>2023-08-15T12:23:00Z</time>
      </trkpt>
      <trkpt lat="43.25607" lon="1.82351">
        <ele>296.1</ele>
        <time>2023-08-15T12:23:03Z</time>
      </trkpt>
      <trkpt lat="43.25586" lon="1.8235">
        <ele>296</ele>
        <time>2023-08-15T12:23:06Z</time>
      </trkpt>
      <trkpt lat="43.25567" lon="1.82337">
        <ele>297.4</ele>
        <time>2023-08-15T12:23:09Z</time>
      </trkpt>
      <trkpt lat="43.25546" lon="1.82313">
        <ele>296.1</ele>
        <time>2023-08-15T12:23:13Z</time>
      </trkpt>
      <trkpt lat="43.25526" lon="1.8229">
        <ele>296.5</ele>
        <time>2023-08-15T12:23:17Z</time>
      </trkpt>
      <trkpt lat="43.2551" lon="1.82274">
        <ele>295.1</ele>
        <time>2023-08-15T12:23:20Z</time>
      </trkpt>
      <trkpt lat="43.25487" lon="1.82258">
        <ele>294.7</ele>
        <time>2023-08-15T12:23:24Z</time>
      </trkpt>
      <trkpt lat="43.25463" lon="1.82244">
        <ele>295.5</ele>
        <time>2023-08-15T12:23:28Z</time>
      </trkpt>
      <trkpt lat="43.25439" lon="1.82228">
        <ele>297.8</ele>
        <time>2023-08-15T12:23:32Z</time>
      </trkpt>
      <trkpt lat="43.25421" lon="1.82217">
        <ele>296.9</ele>
        <time>2023-08-15T12:23:35Z</time>
      </trkpt>
      <trkpt lat="43.25403" lon="1.82206">
        <ele>298.3</ele>
        <time>2023-08-15T12:23:38Z</time>
      </trkpt>
      <trkpt lat="43.25385" lon="1.82194">
        <ele>298.1</ele>
        <time>2023-08-15T12:23:41Z</time>
      </trkpt>
      <trkpt lat="43.2536" lon="1.82179">
        <ele>298.3</ele>
        <time>2023-08-15T12:23:45Z</time>
      </trkpt>
      <trkpt lat="43.25342" lon="1.8217">
        <ele>297.4</ele>
        <time>2023-08-15T12:23:48Z</time>
      </trkpt>
      <trkpt lat="43.25317" lon="1.8216">
        <ele>297.3</ele>
        <time>2023-08-15T12:23:52Z</time>
      </trkpt>
      <trkpt lat="43.25297" lon="1.82155">
        <ele>298.1</ele>
        <time>2023-08-15T12:23:55Z</time>
      </trkpt>
      <trkpt lat="43.25271" lon="1.82149">
        <ele>296.6</ele>
        <time>2023-08-15T12:23:59Z</time>
      </trkpt>
      <trkpt lat="43.25251" lon="1.82148">
        <ele>299.3</ele>
        <time>2023-08-15T12:24:02Z</time>
      </trkpt>
      <trkpt lat="43.25231" lon="1.82149">
        <ele>300.3</ele>
        <time>2023-08-15T12:24:05Z</time>
      </trkpt>
      <trkpt lat="43.25208" lon="1.82164">
        <ele>301.2</ele>
        <time>2023-08-15T12:24:09Z</time>
      </trkpt>
      <trkpt lat="43.25196" lon="1.82188">
        <ele>300.5</ele>
        <time>2023-08-15T12:24:12Z</time>
      </trkpt>
      <trkpt lat="43.25184" lon="1.82212">
        <ele>300.4</ele>
        <time>2023-08-15T12:24:15Z</time>
      </trkpt>
      <trkpt lat="43.25162" lon="1.82228">
        <ele>299.9</ele>
        <time>2023-08-15T12:24:19Z</time>
      </trkpt>
      <trkpt lat="43.25136" lon="1.82224">
        <ele>300.4</ele>
        <time>2023-08-15T12:24:23Z</time>
      </trkpt>
      <trkpt lat="43.2511" lon="1.82209">
        <ele>299.9</ele>
        <time>2023-08-15T12:24:27Z</time>
      </trkpt>
      <trkpt lat="43.25086" lon="1.82196">
        <ele>301.7</ele>
        <time>2023-08-15T12:24:31Z</time>
      </trkpt>
      <trkpt lat="43.25067" lon="1.82187">
        <ele>302.5</ele>
        <time>2023-08-15T12:24:34Z</time>
      </trkpt>
      <trkpt lat="43.25041" lon="1.82179">
        <ele>303.2</ele>
        <time>2023-08-15T12:24:38Z</time>
      </trkpt>
      <trkpt lat="43.25022" lon="1.82171">
        <ele>302.2</ele>
        <time>2023-08-15T12:24:41Z</time>
      </trkpt>
      <trkpt lat="43.24998" lon="1.82159">
        <ele>303.1</ele>
        <time>2023-08-15T12:24:45Z</time>
      </trkpt>
      <trkpt lat="43.24973" lon="1.82144">
        <ele>301.2</ele>
        <time>2023-08-15T12:24:49Z</time>
      </trkpt>
      <trkpt lat="43.2495" lon="1.82129">
        <ele>301.9</ele>
        <time>2023-08-15T12:24:53Z</time>
      </trkpt>
      <trkpt lat="43.24926" lon="1.82117">
        <ele>301.2</ele>
        <time>2023-08-15T12:24:57Z</time>
      </trkpt>
      <trkpt lat="43.24899" lon="1.82116">
        <ele>303.6</ele>
        <time>2023-08-15T12:25:01Z</time>
      </trkpt>
      <trkpt lat="43.24871" lon="1.82118">
        <ele>304.8</ele>
        <time>2023-08-15T12:25:05Z</time>
      </trkpt>
      <trkpt lat="43.24851" lon="1.82116">
        <ele>304.4</ele>
        <time>2023-08-15T12:25:08Z</time>
      </trkpt>
      <trkpt lat="43.24823" lon="1.82118">
        <ele>304.6</ele>
        <time>2023-08-15T12:25:12Z</time>
      </trkpt>
      <trkpt lat="43.24798" lon="1.82131">
        <ele>303.6</ele>
        <time>2023-08-15T12:25:16Z</time>
      </trkpt>
      <trkpt lat="43.24779" lon="1.82139">
        <ele>303.6</ele>
        <time>2023-08-15T12:25:19Z</time>
      </trkpt>
      <trkpt lat="43.2476" lon="1.82145">
        <ele>304.3</ele>
        <time>2023-08-15T12:25:22Z</time>
      </trkpt>
      <trkpt lat="43.24734" lon="1.82153">
        <ele>302.6</ele>
        <time>2023-08-15T12:25:26Z</time>
      </trkpt>
      <trkpt lat="43.24709" lon="1.82163">
        <ele>303.6</ele>
        <time>2023-08-15T12:25:30Z</time>
      </trkpt>
      <trkpt lat="43.24686" lon="1.82176">
        <ele>305</ele>
        <time>2023-08-15T12:25:34Z</time>
      </trkpt>
      <trkpt lat="43.24669" lon="1.82188">
        <ele>305.5</ele>
        <time>2023-08-15T12:25:37Z</time>
      </trkpt>
      <trkpt lat="43.24651" lon="1.82203">
        <ele>306</ele>
        <time>2023-08-15T12:25:40Z</time>
      </trkpt>
      <trkpt lat="43.2463" lon="1.82224">
        <ele>305.5</ele>
        <time>2023-08-15T12:25:44Z</time>
      </trkpt>
      <trkpt lat="43.24615" lon="1.82241">
        <ele>305.5</ele>
        <time>2023-08-15T12:25:47Z</time>
      </trkpt>
      <trkpt lat="43.24594" lon="1.82264">
        <ele>305.3</ele>
        <time>2023-08-15T12:25:51Z</time>
      </trkpt>
      <trkpt lat="43.24579" lon="1.82281">
        <ele>304.1</ele>
        <time>2023-08-15T12:25:54Z</time>
      </trkpt>
      <trkpt lat="43.24564" lon="1.82297">
        <ele>306.9</ele>
        <time>2023-08-15T12:25:57Z</time>
      </trkpt>
      <trkpt lat="43.24543" lon="1.8232">
        <ele>306.9</ele>
        <time>2023-08-15T12:26:01Z</time>
      </trkpt>
      <trkpt lat="43.24527" lon="1.82336">
        <ele>307.8</ele>
        <time>2023-08-15T12:26:04Z</time>
      </trkpt>
      <trkpt lat="43.24512" lon="1.82353">
        <ele>307</ele>
        <time>2023-08-15T12:26:07Z</time>
      </trkpt>
      <trkpt lat="43.24496" lon="1.8237">
        <ele>307.8</ele>
        <time>2023-08-15T12:26:10Z</time>
      </trkpt>
      <trkpt lat="43.24479" lon="1.82386">
        <ele>307.4</ele>
        <time>2023-08-15T12:26:13Z</time>
      </trkpt>
      <trkpt lat="43.24463" lon="1.82401">
        <ele>307.3</ele>
        <time>2023-08-15T12:26:16Z</time>
      </trkpt>
      <trkpt lat="43.24448" lon="1.82417">
        <ele>307.7</ele>
        <time>2023-08-15T12:26:19Z</time>
      </trkpt>
      <trkpt lat="43.2443" lon="1.82444">
        <ele>306.9</ele>
        <time>2023-08-15T12:26:23Z</time>
      </trkpt>
      <trkpt lat="43.24418" lon="1.82466">
        <ele>309.8</ele>
        <time>2023-08-15T12:26:26Z</time>
      </trkpt>
      <trkpt lat="43.24402" lon="1.82495">
        <ele>310.2</ele>
        <time>2023-08-15T12:26:30Z</time>
      </trkpt>
      <trkpt lat="43.2439" lon="1.82515">
        <ele>311.9</ele>
        <time>2023-08-15T12:26:33Z</time>
      </trkpt>
      <trkpt lat="43.24377" lon="1.82537">
        <ele>312.3</ele>
        <time>2023-08-15T12:26:36Z</time>
      </trkpt>
      <trkpt lat="43.24362" lon="1.82566">
        <ele>313.3</ele>
        <time>2023-08-15T12:26:40Z</time>
      </trkpt>
      <trkpt lat="43.24346" lon="1.82595">
        <ele>312.4</ele>
        <time>2023-08-15T12:26:44Z</time>
      </trkpt>
      <trkpt lat="43.24333" lon="1.82616">
        <ele>313.2</ele>
        <time>2023-08-15T12:26:47Z</time>
      </trkpt>
      <trkpt lat="43.2432" lon="1.82636">
        <ele>314.2</ele>
        <time>2023-08-15T12:26:50Z</time>
      </trkpt>
      <trkpt lat="43.24297" lon="1.82649">
        <ele>315.9</ele>
        <time>2023-08-15T12:26:54Z</time>
      </trkpt>
      <trkpt lat="43.24278" lon="1.82641">
        <ele>316.8</ele>
        <time>2023-08-15T12:26:57Z</time>
      </trkpt>
      <trkpt lat="43.24254" lon="1.82621">
        <ele>319.8</ele>
        <time>2023-08-15T12:27:01Z</time>
      </trkpt>
      <trkpt lat="43.24243" lon="1.82596">
        <ele>320.6</ele>
        <time>2023-08-15T12:27:04Z</time>
      </trkpt>
      <trkpt lat="43.24232" lon="1.82574">
        <ele>321.2</ele>
        <time>2023-08-15T12:27:07Z</time>
      </trkpt>
      <trkpt lat="43.24208" lon="1.82566">
        <ele>320.6</ele>
        <time>2023-08-15T12:27:11Z</time>
      </trkpt>
      <trkpt lat="43.24183" lon="1.82575">
        <ele>320.6</ele>
        <time>2023-08-15T12:27:15Z</time>
      </trkpt>
      <trkpt lat="43.24166" lon="1.82584">
        <ele>322</ele>
        <time>2023-08-15T12:27:18Z</time>
      </trkpt>
      <trkpt lat="43.24143" lon="1.82605">
        <ele>322.8</ele>
        <time>2023-08-15T12:27:22Z</time>
      </trkpt>
      <trkpt lat="43.24128" lon="1.82622">
        <ele>325.6</ele>
        <time>2023-08-15T12:27:25Z</time>
      </trkpt>
      <trkpt lat="43.24112" lon="1.82635">
        <ele>326.7</ele>
        <time>2023-08-15T12:27:28Z</time>
      </trkpt>
      <trkpt lat="43.24087" lon="1.82631">
        <ele>328</ele>
        <time>2023-08-15T12:27:32Z</time>
      </trkpt>
      <trkpt lat="43.2407" lon="1.82605">
        <ele>327.9</ele>
        <time>2023-08-15T12:27:36Z</time>
      </trkpt>
      <trkpt lat="43.24057" lon="1.82587">
        <ele>329.3</ele>
        <time>2023-08-15T12:27:39Z</time>
      </trkpt>
      <trkpt lat="43.24032" lon="1.82581">
        <ele>327.8</ele>
        <time>2023-08-15T12:27:43Z</time>
      </trkpt>
      <trkpt lat="43.24014" lon="1.82575">
        <ele>328.9</ele>
        <time>2023-08-15T12:27:46Z</time>
      </trkpt>
      <trkpt lat="43.24002" lon="1.82553">
        <ele>329.5</ele>
        <time>2023-08-15T12:27:49Z</time>
      </trkpt>
      <trkpt lat="43.23986" lon="1.8254">
        <ele>332</ele>
        <time>2023-08-15T12:27:52Z</time>
      </trkpt>
      <trkpt lat="43.23964" lon="1.82543">
        <ele>332.2</ele>
        <time>2023-08-15T12:27:55Z</time>
      </trkpt>
      <trkpt lat="43.23938" lon="1.82563">
        <ele>334.6</ele>
        <time>2023-08-15T12:27:59Z</time>
      </trkpt>
      <trkpt lat="43.23917" lon="1.82584">
        <ele>334.9</ele>
        <time>2023-08-15T12:28:03Z</time>
      </trkpt>
      <trkpt lat="43.23902" lon="1.82612">
        <ele>335.8</ele>
        <time>2023-08-15T12:28:07Z</time>
      </trkpt>
      <trkpt lat="43.23896" lon="1.82648">
        <ele>333.9</ele>
        <time>2023-08-15T12:28:11Z</time>
      </trkpt>
      <trkpt lat="43.2389" lon="1.82686">
        <ele>335.9</ele>
        <time>2023-08-15T12:28:15Z</time>
      </trkpt>
      <trkpt lat="43.23884" lon="1.82713">
        <ele>336.6</ele>
        <time>2023-08-15T12:28:18Z</time>
      </trkpt>
      <trkpt lat="43.23877" lon="1.82739">
        <ele>339</ele>
        <time>2023-08-15T12:28:21Z</time>
      </trkpt>
      <trkpt lat="43.23865" lon="1.8277">
        <ele>339.9</ele>
        <time>2023-08-15T12:28:25Z</time>
      </trkpt>
      <trkpt lat="43.23853" lon="1.82792">
        <ele>340</ele>
        <time>2023-08-15T12:28:28Z</time>
      </trkpt>
      <trkpt lat="43.23836" lon="1.82819">
        <ele>340.8</ele>
        <time>2023-08-15T12:28:32Z</time>
      </trkpt>
      <trkpt lat="43.23821" lon="1.82847">
        <ele>340.9</ele>
        <time>2023-08-15T12:28:36Z</time>
      </trkpt>
      <trkpt lat="43.23809" lon="1.82879">
        <ele>339.1</ele>
        <time>2023-08-15T12:28:40Z</time>
      </trkpt>
      <trkpt lat="43.23799" lon="1.82903">
        <ele>340.6</ele>
        <time>2023-08-15T12:28:43Z</time>
      </trkpt>
      <trkpt lat="43.23785" lon="1.8293">
        <ele>341.3</ele>
        <time>2023-08-15T12:28:47Z</time>
      </trkpt>
      <trkpt lat="43.23775" lon="1.82954">
        <ele>342.8</ele>
        <time>2023-08-15T12:28:50Z</time>
      </trkpt>
      <trkpt lat="43.23766" lon="1.82989">
        <ele>343.8</ele>
        <time>2023-08-15T12:28:54Z</time>
      </trkpt>
      <trkpt lat="43.23756" lon="1.83013">
        <ele>344.1</ele>
        <time>2023-08-15T12:28:57Z</time>
      </trkpt>
      <trkpt lat="43.23743" lon="1.83044">
        <ele>344.4</ele>
        <time>2023-08-15T12:29:01Z</time>
      </trkpt>
      <trkpt lat="43.23736" lon="1.83069">
        <ele>345.3</ele>
        <time>2023-08-15T12:29:04Z</time>
      </trkpt>
      <trkpt lat="43.23729" lon="1.83094">
        <ele>345</ele>
        <time>2023-08-15T12:29:07Z</time>
      </trkpt>
      <trkpt lat="43.23714" lon="1.83125">
        <ele>343.3</ele>
        <time>2023-08-15T12:29:11Z</time>
      </trkpt>
      <trkpt lat="43.23697" lon="1.83152">
        <ele>344.6</ele>
        <time>2023-08-15T12:29:15Z</time>
      </trkpt>
      <trkpt lat="43.23679" lon="1.83166">
        <ele>345.2</ele>
        <time>2023-08-15T12:29:18Z</time>
      </trkpt>
      <trkpt lat="43.2366" lon="1.83172">
        <ele>345.8</ele>
        <time>2023-08-15T12:29:21Z</time>
      </trkpt>
      <trkpt lat="43.23635" lon="1.83181">
        <ele>347.2</ele>
        <time>2023-08-15T12:29:25Z</time>
      </trkpt>
      <trkpt lat="43.23618" lon="1.83197">
        <ele>348.3</ele>
        <time>2023-08-15T12:29:28Z</time>
      </trkpt>
      <trkpt lat="43.23603" lon="1.83229">
        <ele>349.1</ele>
        <time>2023-08-15T12:29:32Z</time>
      </trkpt>
      <trkpt lat="43.2359" lon="1.83261">
        <ele>348.4</ele>
        <time>2023-08-15T12:29:36Z</time>
      </trkpt>
      <trkpt lat="43.2358" lon="1.83284">
        <ele>347.7</ele>
        <time>2023-08-15T12:29:39Z</time>
      </trkpt>
      <trkpt lat="43.23567" lon="1.83304">
        <ele>348.7</ele>
        <time>2023-08-15T12:29:42Z</time>
      </trkpt>
      <trkpt lat="43.23549" lon="1.83317">
        <ele>349.2</ele>
        <time>2023-08-15T12:29:45Z</time>
      </trkpt>
      <trkpt lat="43.23525" lon="1.8333">
        <ele>351.4</ele>
        <time>2023-08-15T12:29:49Z</time>
      </trkpt>
      <trkpt lat="43.23511" lon="1.83348">
        <ele>352.8</ele>
        <time>2023-08-15T12:29:52Z</time>
      </trkpt>
      <trkpt lat="43.23491" lon="1.83374">
        <ele>353.1</ele>
        <time>2023-08-15T12:29:56Z</time>
      </trkpt>
      <trkpt lat="43.23474" lon="1.83385">
        <ele>353.2</ele>
        <time>2023-08-15T12:29:59Z</time>
      </trkpt>
      <trkpt lat="43.23448" lon="1.83387">
        <ele>354.4</ele>
        <time>2023-08-15T12:30:03Z</time>
      </trkpt>
      <trkpt lat="43.23422" lon="1.83397">
        <ele>353.2</ele>
        <time>2023-08-15T12:30:07Z</time>
      </trkpt>
      <trkpt lat="43.23409" lon="1.8342">
        <ele>353.5</ele>
        <time>2023-08-15T12:30:10Z</time>
      </trkpt>
      <trkpt lat="43.23398" lon="1.83455">
        <ele>354.4</ele>
        <time>2023-08-15T12:30:14Z</time>
      </trkpt>
      <trkpt lat="43.23387" lon="1.83476">
        <ele>355.5</ele>
        <time>2023-08-15T12:30:17Z</time>
      </trkpt>
      <trkpt lat="43.23366" lon="1.83492">
        <ele>356.6</ele>
        <time>2023-08-15T12:30:21Z</time>
      </trkpt>
      <trkpt lat="43.23346" lon="1.835">
        <ele>356.8</ele>
        <time>2023-08-15T12:30:24Z</time>
      </trkpt>
      <trkpt lat="43.23323" lon="1.83516">
        <ele>358</ele>
        <time>2023-08-15T12:30:28Z</time>
      </trkpt>
      <trkpt lat="43.23309" lon="1.83535">
        <ele>358.3</ele>
        <time>2023-08-15T12:30:31Z</time>
      </trkpt>
      <trkpt lat="43.23297" lon="1.8357">
        <ele>357.6</ele>
        <time>2023-08-15T12:30:35Z</time>
      </trkpt>
      <trkpt lat="43.2329" lon="1.83594">
        <ele>357.7</ele>
        <time>2023-08-15T12:30:38Z</time>
      </trkpt>
      <trkpt lat="43.23277" lon="1.83626">
        <ele>358.6</ele>
        <time>2023-08-15T12:30:42Z</time>
      </trkpt>
      <trkpt lat="43.23259" lon="1.83652">
        <ele>360.3</ele>
        <time>2023-08-15T12:30:46Z</time>
      </trkpt>
      <trkpt lat="43.23241" lon="1.83677">
        <ele>360.8</ele>
        <time>2023-08-15T12:30:50Z</time>
      </trkpt>
      <trkpt lat="43.23229" lon="1.83696">
        <ele>361</ele>
        <time>2023-08-15T12:30:53Z</time>
      </trkpt>
      <trkpt lat="43.23216" lon="1.83717">
        <ele>362.3</ele>
        <time>2023-08-15T12:30:56Z</time>
      </trkpt>
      <trkpt lat="43.23202" lon="1.83738">
        <ele>362.4</ele>
        <time>2023-08-15T12:30:59Z</time>
      </trkpt>
      <trkpt lat="43.23185" lon="1.83767">
        <ele>361.6</ele>
        <time>2023-08-15T12:31:03Z</time>
      </trkpt>
      <trkpt lat="43.23182" lon="1.83796">
        <ele>361.9</ele>
        <time>2023-08-15T12:31:06Z</time>
      </trkpt>
      <trkpt lat="43.23187" lon="1.83834">
        <ele>363</ele>
        <time>2023-08-15T12:31:10Z</time>
      </trkpt>
      <trkpt lat="43.2319" lon="1.8387">
        <ele>364.6</ele>
        <time>2023-08-15T12:31:14Z</time>
      </trkpt>
      <trkpt lat="43.23186" lon="1.83896">
        <ele>365.7</ele>
        <time>2023-08-15T12:31:17Z</time>
      </trkpt>
      <trkpt lat="43.23173" lon="1.83928">
        <ele>365.4</ele>
        <time>2023-08-15T12:31:21Z</time>
      </trkpt>
      <trkpt lat="43.23154" lon="1.83953">
        <ele>365.3</ele>
        <time>2023-08-15T12:31:25Z</time>
      </trkpt>
      <trkpt lat="43.23134" lon="1.83977">
        <ele>366.3</ele>
        <time>2023-08-15T12:31:29Z</time>
      </trkpt>
      <trkpt lat="43.23114" lon="1.84">
        <ele>366.1</ele>
        <time>2023-08-15T12:31:33Z</time>
      </trkpt>
      <trkpt lat="43.23089" lon="1.84009">
        <ele>366.5</ele>
        <time>2023-08-15T12:31:37Z</time>
      </trkpt>
      <trkpt lat="43.23063" lon="1.83996">
        <ele>367.4</ele>
        <time>2023-08-15T12:31:41Z</time>
      </trkpt>
      <trkpt lat="43.23049" lon="1.83975">
        <ele>368.6</ele>
        <time>2023-08-15T12:31:44Z</time>
      </trkpt>
      <trkpt lat="43.23049" lon="1.83938">
        <ele>369.5</ele>
        <time>2023-08-15T12:31:48Z</time>
      </trkpt>
      <trkpt lat="43.2305" lon="1.83903">
        <ele>370.1</ele>
        <time>2023-08-15T12:31:52Z</time>
      </trkpt>
      <trkpt lat="43.23044" lon="1.83868">
        <ele>370.1</ele>
        <time>2023-08-15T12:31:56Z</time>
      </trkpt>
      <trkpt lat="43.23021" lon="1.83847">
        <ele>369.6</ele>
        <time>2023-08-15T12:32:00Z</time>
      </trkpt>
      <trkpt lat="43.22999" lon="1.8385">
        <ele>370.1</ele>
        <time>2023-08-15T12:32:03Z</time>
      </trkpt>
      <trkpt lat="43.22974" lon="1.83867">
        <ele>370.4</ele>
        <time>2023-08-15T12:32:07Z</time>
      </trkpt>
      <trkpt lat="43.22957" lon="1.83878">
        <ele>370.6</ele>
        <time>2023-08-15T12:32:10Z</time>
      </trkpt>
      <trkpt lat="43.22933" lon="1.83893">
        <ele>370.5</ele>
        <time>2023-08-15T12:32:14Z</time>
      </trkpt>
      <trkpt lat="43.22909" lon="1.83914">
        <ele>369.2</ele>
        <time>2023-08-15T12:32:18Z</time>
      </trkpt>
      <trkpt lat="43.22893" lon="1.83931">
        <ele>367.7</ele>
        <time>2023-08-15T12:32:21Z</time>
      </trkpt>
      <trkpt lat="43.22878" lon="1.83949">
        <ele>367.3</ele>
        <time>2023-08-15T12:32:24Z</time>
      </trkpt>
      <trkpt lat="43.22857" lon="1.83971">
        <ele>365.1</ele>
        <time>2023-08-15T12:32:28Z</time>
      </trkpt>
      <trkpt lat="43.22835" lon="1.83989">
        <ele>364.3</ele>
        <time>2023-08-15T12:32:32Z</time>
      </trkpt>
      <trkpt lat="43.22819" lon="1.84002">
        <ele>364.2</ele>
        <time>2023-08-15T12:32:35Z</time>
      </trkpt>
      <trkpt lat="43.22795" lon="1.84019">
        <ele>364.4</ele>
        <time>2023-08-15T12:32:39Z</time>
      </trkpt>
      <trkpt lat="43.22777" lon="1.8403">
        <ele>364.1</ele>
        <time>2023-08-15T12:32:42Z</time>
      </trkpt>
      <trkpt lat="43.22751" lon="1.84037">
        <ele>362</ele>
        <time>2023-08-15T12:32:46Z</time>
      </trkpt>
      <trkpt lat="43.22728" lon="1.84025">
        <ele>362.1</ele>
        <time>2023-08-15T12:32:50Z</time>
      </trkpt>
      <trkpt lat="43.22711" lon="1.84008">
        <ele>361.3</ele>
        <time>2023-08-15T12:32:53Z</time>
      </trkpt>
      <trkpt lat="43.22688" lon="1.83992">
        <ele>361.1</ele>
        <time>2023-08-15T12:32:57Z</time>
      </trkpt>
      <trkpt lat="43.2266" lon="1.83993">
        <ele>359.8</ele>
        <time>2023-08-15T12:33:01Z</time>
      </trkpt>
      <trkpt lat="43.22639" lon="1.83998">
        <ele>359.1</ele>
        <time>2023-08-15T12:33:04Z</time>
      </trkpt>
      <trkpt lat="43.22618" lon="1.84003">
        <ele>357.6</ele>
        <time>2023-08-15T12:33:07Z</time>
      </trkpt>
      <trkpt lat="43.22593" lon="1.83998">
        <ele>357.1</ele>
        <time>2023-08-15T12:33:11Z</time>
      </trkpt>
      <trkpt lat="43.22574" lon="1.83991">
        <ele>354.9</ele>
        <time>2023-08-15T12:33:14Z</time>
      </trkpt>
      <trkpt lat="43.22556" lon="1.8398">
        <ele>355.3</ele>
        <time>2023-08-15T12:33:17Z</time>
      </trkpt>
      <trkpt lat="43.22541" lon="1.83961">
        <ele>355.1</ele>
        <time>2023-08-15T12:33:20Z</time>
      </trkpt>
      <trkpt lat="43.22521" lon="1.83936">
        <ele>355.3</ele>
        <time>2023-08-15T12:33:24Z</time>
      </trkpt>
      <trkpt lat="43.22501" lon="1.83929">
        <ele>354.9</ele>
        <time>2023-08-15T12:33:27Z</time>
      </trkpt>
      <trkpt lat="43.22472" lon="1.83938">
        <ele>354.6</ele>
        <time>2023-08-15T12:33:31Z</time>
      </trkpt>
      <trkpt lat="43.22447" lon="1.83953">
        <ele>353.6</ele>
        <time>2023-08-15T12:33:35Z</time>
      </trkpt>
      <trkpt lat="43.22424" lon="1.83972">
        <ele>354.5</ele>
        <time>2023-08-15T12:33:39Z</time>
      </trkpt>
      <trkpt lat="43.22408" lon="1.83987">
        <ele>353.4</ele>
        <time>2023-08-15T12:33:42Z</time>
      </trkpt>
      <trkpt lat="43.22387" lon="1.84007">
        <ele>351.8</ele>
        <time>2023-08-15T12:33:46Z</time>
      </trkpt>
      <trkpt lat="43.22366" lon="1.84028">
        <ele>349.8</ele>
        <time>2023-08-15T12:33:50Z</time>
      </trkpt>
      <trkpt lat="43.22351" lon="1.84044">
        <ele>350.5</ele>
        <time>2023-08-15T12:33:53Z</time>
      </trkpt>
      <trkpt lat="43.2233" lon="1.84064">
        <ele>348.6</ele>
        <time>2023-08-15T12:33:57Z</time>
      </trkpt>
      <trkpt lat="43.22308" lon="1.84085">
        <ele>348.4</ele>
        <time>2023-08-15T12:34:01Z</time>
      </trkpt>
      <trkpt lat="43.22286" lon="1.84107">
        <ele>348.1</ele>
        <time>2023-08-15T12:34:05Z</time>
      </trkpt>
      <trkpt lat="43.2227" lon="1.84121">
        <ele>348.7</ele>
        <time>2023-08-15T12:34:08Z</time>
      </trkpt>
      <trkpt lat="43.2225" lon="1.84141">
        <ele>348.2</ele>
        <time>2023-08-15T12:34:12Z</time>
      </trkpt>
      <trkpt lat="43.22234" lon="1.84155">
        <ele>346.6</ele>
        <time>2023-08-15T12:34:15Z</time>
      </trkpt>
      <trkpt lat="43.22216" lon="1.84171">
        <ele>347</ele>
        <time>2023-08-15T12:34:18Z</time>
      </trkpt>
      <trkpt lat="43.22191" lon="1.8419">
        <ele>347.3</ele>
        <time>2023-08-15T12:34:22Z</time>
      </trkpt>
      <trkpt lat="43.22174" lon="1.84202">
        <ele>347.6</ele>
        <time>2023-08-15T12:34:25Z</time>
      </trkpt>
      <trkpt lat="43.2215" lon="1.84215">
        <ele>346.9</ele>
        <time>2023-08-15T12:34:29Z</time>
      </trkpt>
      <trkpt lat="43.22132" lon="1.84227">
        <ele>346</ele>
        <time>2023-08-15T12:34:32Z</time>
      </trkpt>
      <trkpt lat="43.22114" lon="1.84238">
        <ele>346.1</ele>
        <time>2023-08-15T12:34:35Z</time>
      </trkpt>
      <trkpt lat="43.2209" lon="1.84251">
        <ele>345.5</ele>
        <time>2023-08-15T12:34:39Z</time>
      </trkpt>
      <trkpt lat="43.22071" lon="1.84258">
        <ele>346.2</ele>
        <time>2023-08-15T12:34:42Z</time>
      </trkpt>
      <trkpt lat="43.2205" lon="1.84257">
        <ele>345.3</ele>
        <time>2023-08-15T12:34:45Z</time>
      </trkpt>
      <trkpt lat="43.22027" lon="1.84236">
        <ele>345.2</ele>
        <time>2023-08-15T12:34:49Z</time>
      </trkpt>
      <trkpt lat="43.22017" lon="1.8421">
        <ele>345.6</ele>
        <time>2023-08-15T12:34:52Z</time>
      </trkpt>
      <trkpt lat="43.2201" lon="1.84184">
        <ele>345.5</ele>
        <time>2023-08-15T12:34:55Z</time>
      </trkpt>
      <trkpt lat="43.21997" lon="1.84153">
        <ele>344.5</ele>
        <time>2023-08-15T12:34:59Z</time>
      </trkpt>
      <trkpt lat="43.21984" lon="1.8413">
        <ele>343.7</ele>
        <time>2023-08-15T12:35:02Z</time>
      </trkpt>
      <trkpt lat="43.21972" lon="1.84109">
        <ele>344.8</ele>
        <time>2023-08-15T12:35:05Z</time>
      </trkpt>
      <trkpt lat="43.21957" lon="1.84082">
        <ele>342.8</ele>
        <time>2023-08-15T12:35:09Z</time>
      </trkpt>
      <trkpt lat="43.21941" lon="1.84054">
        <ele>341.9</ele>
        <time>2023-08-15T12:35:13Z</time>
      </trkpt>
      <trkpt lat="43.21926" lon="1.84027">
        <ele>342.2</ele>
        <time>2023-08-15T12:35:17Z</time>
      </trkpt>
      <trkpt lat="43.21911" lon="1.84008">
        <ele>341.9</ele>
        <time>2023-08-15T12:35:20Z</time>
      </trkpt>
      <trkpt lat="43.21889" lon="1.83992">
        <ele>341.9</ele>
        <time>2023-08-15T12:35:24Z</time>
      </trkpt>
      <trkpt lat="43.2187" lon="1.83988">
        <ele>341.7</ele>
        <time>2023-08-15T12:35:27Z</time>
      </trkpt>
      <trkpt lat="43.21844" lon="1.83994">
        <ele>341.6</ele>
        <time>2023-08-15T12:35:31Z</time>
      </trkpt>
      <trkpt lat="43.21822" lon="1.84003">
        <ele>342.7</ele>
        <time>2023-08-15T12:35:34Z</time>
      </trkpt>
      <trkpt lat="43.21795" lon="1.84011">
        <ele>342.3</ele>
        <time>2023-08-15T12:35:38Z</time>
      </trkpt>
      <trkpt lat="43.21769" lon="1.84011">
        <ele>342.3</ele>
        <time>2023-08-15T12:35:42Z</time>
      </trkpt>
      <trkpt lat="43.21742" lon="1.84005">
        <ele>342.4</ele>
        <time>2023-08-15T12:35:46Z</time>
      </trkpt>
      <trkpt lat="43.21725" lon="1.83991">
        <ele>341.9</ele>
        <time>2023-08-15T12:35:49Z</time>
      </trkpt>
      <trkpt lat="43.21707" lon="1.83965">
        <ele>341.6</ele>
        <time>2023-08-15T12:35:53Z</time>
      </trkpt>
      <trkpt lat="43.21696" lon="1.83943">
        <ele>340.8</ele>
        <time>2023-08-15T12:35:56Z</time>
      </trkpt>
      <trkpt lat="43.21686" lon="1.8392">
        <ele>340.3</ele>
        <time>2023-08-15T12:35:59Z</time>
      </trkpt>
      <trkpt lat="43.21672" lon="1.8389">
        <ele>340.5</ele>
        <time>2023-08-15T12:36:03Z</time>
      </trkpt>
      <trkpt lat="43.21661" lon="1.83857">
        <ele>339.4</ele>
        <time>2023-08-15T12:36:07Z</time>
      </trkpt>
      <trkpt lat="43.21651" lon="1.83823">
        <ele>339.3</ele>
        <time>2023-08-15T12:36:11Z</time>
      </trkpt>
      <trkpt lat="43.21641" lon="1.838">
        <ele>339.2</ele>
        <time>2023-08-15T12:36:14Z</time>
      </trkpt>
      <trkpt lat="43.21627" lon="1.83781">
        <ele>339.3</ele>
        <time>2023-08-15T12:36:17Z</time>
      </trkpt>
      <trkpt lat="43.21604" lon="1.83759">
        <ele>339.3</ele>
        <time>2023-08-15T12:36:21Z</time>
      </trkpt>
      <trkpt lat="43.21579" lon="1.8374">
        <ele>338.8</ele>
        <time>2023-08-15T12:36:25Z</time>
      </trkpt>
      <trkpt lat="43.21556" lon="1.83723">
        <ele>338.2</ele>
        <time>2023-08-15T12:36:29Z</time>
      </trkpt>
      <trkpt lat="43.21532" lon="1.83711">
        <ele>339</ele>
        <time>2023-08-15T12:36:33Z</time>
      </trkpt>
      <trkpt lat="43.21513" lon="1.83708">
        <ele>338.5</ele>
        <time>2023-08-15T12:36:36Z</time>
      </trkpt>
      <trkpt lat="43.21487" lon="1.83709">
        <ele>338.3</ele>
        <time>2023-08-15T12:36:40Z</time>
      </trkpt>
      <trkpt lat="43.21466" lon="1.83707">
        <ele>338.8</ele>
        <time>2023-08-15T12:36:43Z</time>
      </trkpt>
      <trkpt lat="43.2144" lon="1.83699">
        <ele>338.9</ele>
        <time>2023-08-15T12:36:47Z</time>
      </trkpt>
      <trkpt lat="43.21414" lon="1.83688">
        <ele>339.2</ele>
        <time>2023-08-15T12:36:51Z</time>
      </trkpt>
      <trkpt lat="43.21395" lon="1.83682">
        <ele>338.5</ele>
        <time>2023-08-15T12:36:54Z</time>
      </trkpt>
      <trkpt lat="43.21376" lon="1.83677">
        <ele>337.8</ele>
        <time>2023-08-15T12:36:57Z</time>
      </trkpt>
      <trkpt lat="43.2135" lon="1.83672">
        <ele>337.7</ele>
        <time>2023-08-15T12:37:01Z</time>
      </trkpt>
      <trkpt lat="43.21324" lon="1.83666">
        <ele>336.7</ele>
        <time>2023-08-15T12:37:05Z</time>
      </trkpt>
      <trkpt lat="43.21304" lon="1.83662">
        <ele>336.1</ele>
        <time>2023-08-15T12:37:08Z</time>
      </trkpt>
      <trkpt lat="43.21278" lon="1.83657">
        <ele>335.9</ele>
        <time>2023-08-15T12:37:12Z</time>
      </trkpt>
      <trkpt lat="43.21251" lon="1.83652">
        <ele>336.2</ele>
        <time>2023-08-15T12:37:16Z</time>
      </trkpt>
      <trkpt lat="43.21225" lon="1.83648">
        <ele>336.1</ele>
        <time>2023-08-15T12:37:20Z</time>
      </trkpt>
      <trkpt lat="43.21205" lon="1.83643">
        <ele>335.7</ele>
        <time>2023-08-15T12:37:23Z</time>
      </trkpt>
      <trkpt lat="43.21178" lon="1.83638">
        <ele>335.3</ele>
        <time>2023-08-15T12:37:27Z</time>
      </trkpt>
      <trkpt lat="43.21159" lon="1.83631">
        <ele>336.3</ele>
        <time>2023-08-15T12:37:30Z</time>
      </trkpt>
      <trkpt lat="43.21137" lon="1.83612">
        <ele>335.7</ele>
        <time>2023-08-15T12:37:34Z</time>
      </trkpt>
      <trkpt lat="43.21121" lon="1.83594">
        <ele>335</ele>
        <time>2023-08-15T12:37:37Z</time>
      </trkpt>
      <trkpt lat="43.21101" lon="1.83572">
        <ele>335.6</ele>
        <time>2023-08-15T12:37:41Z</time>
      </trkpt>
      <trkpt lat="43.21082" lon="1.83546">
        <ele>336</ele>
        <time>2023-08-15T12:37:45Z</time>
      </trkpt>
      <trkpt lat="43.21069" lon="1.83525">
        <ele>335.5</ele>
        <time>2023-08-15T12:37:48Z</time>
      </trkpt>
      <trkpt lat="43.21058" lon="1.83503">
        <ele>335</ele>
        <time>2023-08-15T12:37:51Z</time>
      </trkpt>
      <trkpt lat="43.21042" lon="1.83473">
        <ele>334.6</ele>
        <time>2023-08-15T12:37:55Z</time>
      </trkpt>
      <trkpt lat="43.21027" lon="1.83455">
        <ele>335.2</ele>
        <time>2023-08-15T12:37:58Z</time>
      </trkpt>
      <trkpt lat="43.21009" lon="1.83444">
        <ele>335.5</ele>
        <time>2023-08-15T12:38:01Z</time>
      </trkpt>
      <trkpt lat="43.20989" lon="1.83442">
        <ele>334.8</ele>
        <time>2023-08-15T12:38:04Z</time>
      </trkpt>
      <trkpt lat="43.20962" lon="1.83442">
        <ele>333.8</ele>
        <time>2023-08-15T12:38:08Z</time>
      </trkpt>
      <trkpt lat="43.20936" lon="1.83437">
        <ele>333.9</ele>
        <time>2023-08-15T12:38:12Z</time>
      </trkpt>
      <trkpt lat="43.2091" lon="1.83427">
        <ele>334.6</ele>
        <time>2023-08-15T12:38:16Z</time>
      </trkpt>
      <trkpt lat="43.20885" lon="1.83414">
        <ele>334.3</ele>
        <time>2023-08-15T12:38:20Z</time>
      </trkpt>
      <trkpt lat="43.20859" lon="1.83402">
        <ele>334</ele>
        <time>2023-08-15T12:38:24Z</time>
      </trkpt>
      <trkpt lat="43.2084" lon="1.83395">
        <ele>334.3</ele>
        <time>2023-08-15T12:38:27Z</time>
      </trkpt>
      <trkpt lat="43.2082" lon="1.8339">
        <ele>334.7</ele>
        <time>2023-08-15T12:38:30Z</time>
      </trkpt>
      <trkpt lat="43.20801" lon="1.83388">
        <ele>334.2</ele>
        <time>2023-08-15T12:38:33Z</time>
      </trkpt>
      <trkpt lat="43.20775" lon="1.83387">
        <ele>332.8</ele>
        <time>2023-08-15T12:38:37Z</time>
      </trkpt>
      <trkpt lat="43.20754" lon="1.83385">
        <ele>333.2</ele>
        <time>2023-08-15T12:38:40Z</time>
      </trkpt>
      <trkpt lat="43.20727" lon="1.83386">
        <ele>334.2</ele>
        <time>2023-08-15T12:38:44Z</time>
      </trkpt>
      <trkpt lat="43.20701" lon="1.83389">
        <ele>334</ele>
        <time>2023-08-15T12:38:48Z</time>
      </trkpt>
      <trkpt lat="43.20682" lon="1.83392">
        <ele>333.5</ele>
        <time>2023-08-15T12:38:51Z</time>
      </trkpt>
      <trkpt lat="43.20655" lon="1.83396">
        <ele>333.5</ele>
        <time>2023-08-15T12:38:55Z</time>
      </trkpt>
      <trkpt lat="43.20629" lon="1.83399">
        <ele>333.8</ele>
        <time>2023-08-15T12:38:59Z</time>
      </trkpt>
      <trkpt lat="43.20609" lon="1.83401">
        <ele>332.8</ele>
        <time>2023-08-15T12:39:02Z</time>
      </trkpt>
      <trkpt lat="43.20589" lon="1.83402">
        <ele>332.3</ele>
        <time>2023-08-15T12:39:05Z</time>
      </trkpt>
      <trkpt lat="43.20562" lon="1.83404">
        <ele>332.6</ele>
        <time>2023-08-15T12:39:09Z</time>
      </trkpt>
      <trkpt lat="43.20536" lon="1.83408">
        <ele>332.9</ele>
        <time>2023-08-15T12:39:13Z</time>
      </trkpt>
      <trkpt lat="43.2051" lon="1.83412">
        <ele>332.1</ele>
        <time>2023-08-15T12:39:17Z</time>
      </trkpt>
      <trkpt lat="43.20484" lon="1.83416">
        <ele>331.7</ele>
        <time>2023-08-15T12:39:21Z</time>
      </trkpt>
      <trkpt lat="43.20458" lon="1.83418">
        <ele>332.5</ele>
        <time>2023-08-15T12:39:25Z</time>
      </trkpt>
      <trkpt lat="43.20437" lon="1.83418">
        <ele>332.3</ele>
        <time>2023-08-15T12:39:28Z</time>
      </trkpt>
      <trkpt lat="43.20411" lon="1.83416">
        <ele>331.6</ele>
        <time>2023-08-15T12:39:32Z</time>
      </trkpt>
      <trkpt lat="43.20391" lon="1.83414">
        <ele>330.4</ele>
        <time>2023-08-15T12:39:35Z</time>
      </trkpt>
      <trkpt lat="43.20364" lon="1.83412">
        <ele>331.1</ele>
        <time>2023-08-15T12:39:39Z</time>
      </trkpt>
      <trkpt lat="43.20344" lon="1.8341">
        <ele>331.5</ele>
        <time>2023-08-15T12:39:42Z</time>
      </trkpt>
      <trkpt lat="43.20317" lon="1.83408">
        <ele>330.9</ele>
        <time>2023-08-15T12:39:46Z</time>
      </trkpt>
      <trkpt lat="43.20291" lon="1.83407">
        <ele>330.5</ele>
        <time>2023-08-15T12:39:50Z</time>
      </trkpt>
      <trkpt lat="43.20265" lon="1.83407">
        <ele>331.2</ele>
        <time>2023-08-15T12:39:54Z</time>
      </trkpt>
      <trkpt lat="43.20246" lon="1.83407">
        <ele>330.6</ele>
        <time>2023-08-15T12:39:57Z</time>
      </trkpt>
      <trkpt lat="43.2022" lon="1.83407">
        <ele>330.4</ele>
        <time>2023-08-15T12:40:01Z</time>
      </trkpt>
      <trkpt lat="43.202" lon="1.83406">
        <ele>329.4</ele>
        <time>2023-08-15T12:40:04Z</time>
      </trkpt>
      <trkpt lat="43.20173" lon="1.83403">
        <ele>329.8</ele>
        <time>2023-08-15T12:40:08Z</time>
      </trkpt>
      <trkpt lat="43.20153" lon="1.83401">
        <ele>329.8</ele>
        <time>2023-08-15T12:40:11Z</time>
      </trkpt>
      <trkpt lat="43.20127" lon="1.834">
        <ele>329.6</ele>
        <time>2023-08-15T12:40:15Z</time>
      </trkpt>
      <trkpt lat="43.20107" lon="1.83399">
        <ele>329.2</ele>
        <time>2023-08-15T12:40:18Z</time>
      </trkpt>
      <trkpt lat="43.20087" lon="1.83399">
        <ele>328.9</ele>
        <time>2023-08-15T12:40:21Z</time>
      </trkpt>
      <trkpt lat="43.2006" lon="1.83398">
        <ele>328.6</ele>
        <time>2023-08-15T12:40:25Z</time>
      </trkpt>
      <trkpt lat="43.20033" lon="1.83396">
        <ele>328.5</ele>
        <time>2023-08-15T12:40:29Z</time>
      </trkpt>
      <trkpt lat="43.20013" lon="1.83395">
        <ele>327.8</ele>
        <time>2023-08-15T12:40:32Z</time>
      </trkpt>
      <trkpt lat="43.19987" lon="1.83395">
        <ele>326.4</ele>
        <time>2023-08-15T12:40:36Z</time>
      </trkpt>
      <trkpt lat="43.19968" lon="1.83394">
        <ele>326.9</ele>
        <time>2023-08-15T12:40:39Z</time>
      </trkpt>
      <trkpt lat="43.19941" lon="1.83393">
        <ele>326.4</ele>
        <time>2023-08-15T12:40:43Z</time>
      </trkpt>
      <trkpt lat="43.19914" lon="1.83392">
        <ele>325.9</ele>
        <time>2023-08-15T12:40:47Z</time>
      </trkpt>
      <trkpt lat="43.19895" lon="1.83391">
        <ele>325.8</ele>
        <time>2023-08-15T12:40:50Z</time>
      </trkpt>
      <trkpt lat="43.19868" lon="1.83391">
        <ele>326.8</ele>
        <time>2023-08-15T12:40:54Z</time>
      </trkpt>
      <trkpt lat="43.19848" lon="1.83391">
        <ele>325.4</ele>
        <time>2023-08-15T12:40:57Z</time>
      </trkpt>
      <trkpt lat="43.19821" lon="1.8339">
        <ele>325.5</ele>
        <time>2023-08-15T12:41:01Z</time>
      </trkpt>
      <trkpt lat="43.19801" lon="1.83391">
        <ele>325.5</ele>
        <time>2023-08-15T12:41:04Z</time>
      </trkpt>
      <trkpt lat="43.19774" lon="1.83389">
        <ele>326.2</ele>
        <time>2023-08-15T12:41:08Z</time>
      </trkpt>
      <trkpt lat="43.19754" lon="1.83378">
        <ele>326.8</ele>
        <time>2023-08-15T12:41:11Z</time>
      </trkpt>
      <trkpt lat="43.19734" lon="1.83353">
        <ele>325.7</ele>
        <time>2023-08-15T12:41:15Z</time>
      </trkpt>
      <trkpt lat="43.19718" lon="1.83325">
        <ele>325.9</ele>
        <time>2023-08-15T12:41:19Z</time>
      </trkpt>
      <trkpt lat="43.197" lon="1.83303">
        <ele>326.7</ele>
        <time>2023-08-15T12:41:23Z</time>
      </trkpt>
      <trkpt lat="43.19684" lon="1.83289">
        <ele>325.9</ele>
        <time>2023-08-15T12:41:26Z</time>
      </trkpt>
      <trkpt lat="43.1966" lon="1.8327">
        <ele>325.1</ele>
        <time>2023-08-15T12:41:30Z</time>
      </trkpt>
      <trkpt lat="43.19644" lon="1.83252">
        <ele>325.4</ele>
        <time>2023-08-15T12:41:33Z</time>
      </trkpt>
      <trkpt lat="43.19626" lon="1.83226">
        <ele>325.6</ele>
        <time>2023-08-15T12:41:37Z</time>
      </trkpt>
      <trkpt lat="43.19613" lon="1.83205">
        <ele>325.5</ele>
        <time>2023-08-15T12:41:40Z</time>
      </trkpt>
      <trkpt lat="43.19596" lon="1.83177">
        <ele>324.7</ele>
        <time>2023-08-15T12:41:44Z</time>
      </trkpt>
      <trkpt lat="43.19576" lon="1.83154">
        <ele>325</ele>
        <time>2023-08-15T12:41:48Z</time>
      </trkpt>
      <trkpt lat="43.1955" lon="1.83145">
        <ele>325.4</ele>
        <time>2023-08-15T12:41:52Z</time>
      </trkpt>
      <trkpt lat="43.19523" lon="1.83145">
        <ele>325.2</ele>
        <time>2023-08-15T12:41:56Z</time>
      </trkpt>
      <trkpt lat="43.19494" lon="1.83146">
        <ele>324</ele>
        <time>2023-08-15T12:42:00Z</time>
      </trkpt>
      <trkpt lat="43.19474" lon="1.83148">
        <ele>324.3</ele>
        <time>2023-08-15T12:42:03Z</time>
      </trkpt>
      <trkpt lat="43.19455" lon="1.83152">
        <ele>324.3</ele>
        <time>2023-08-15T12:42:06Z</time>
      </trkpt>
      <trkpt lat="43.1943" lon="1.83156">
        <ele>324.2</ele>
        <time>2023-08-15T12:42:10Z</time>
      </trkpt>
      <trkpt lat="43.1941" lon="1.83158">
        <ele>324</ele>
        <time>2023-08-15T12:42:13Z</time>
      </trkpt>
      <trkpt lat="43.19384" lon="1.83159">
        <ele>324.1</ele>
        <time>2023-08-15T12:42:17Z</time>
      </trkpt>
      <trkpt lat="43.19365" lon="1.83161">
        <ele>324.6</ele>
        <time>2023-08-15T12:42:20Z</time>
      </trkpt>
      <trkpt lat="43.19346" lon="1.83167">
        <ele>323.6</ele>
        <time>2023-08-15T12:42:23Z</time>
      </trkpt>
      <trkpt lat="43.19327" lon="1.83174">
        <ele>324.5</ele>
        <time>2023-08-15T12:42:26Z</time>
      </trkpt>
      <trkpt lat="43.19307" lon="1.83182">
        <ele>323.8</ele>
        <time>2023-08-15T12:42:29Z</time>
      </trkpt>
      <trkpt lat="43.19281" lon="1.83193">
        <ele>323</ele>
        <time>2023-08-15T12:42:33Z</time>
      </trkpt>
      <trkpt lat="43.19255" lon="1.832">
        <ele>323.5</ele>
        <time>2023-08-15T12:42:37Z</time>
      </trkpt>
      <trkpt lat="43.19236" lon="1.832">
        <ele>322.7</ele>
        <time>2023-08-15T12:42:40Z</time>
      </trkpt>
      <trkpt lat="43.1921" lon="1.83197">
        <ele>322.1</ele>
        <time>2023-08-15T12:42:44Z</time>
      </trkpt>
      <trkpt lat="43.1919" lon="1.83196">
        <ele>322.9</ele>
        <time>2023-08-15T12:42:47Z</time>
      </trkpt>
      <trkpt lat="43.19171" lon="1.83195">
        <ele>323.3</ele>
        <time>2023-08-15T12:42:50Z</time>
      </trkpt>
      <trkpt lat="43.19144" lon="1.83192">
        <ele>322.8</ele>
        <time>2023-08-15T12:42:54Z</time>
      </trkpt>
      <trkpt lat="43.19118" lon="1.83188">
        <ele>322.7</ele>
        <time>2023-08-15T12:42:58Z</time>
      </trkpt>
      <trkpt lat="43.19098" lon="1.83185">
        <ele>322.7</ele>
        <time>2023-08-15T12:43:01Z</time>
      </trkpt>
      <trkpt lat="43.19078" lon="1.83183">
        <ele>323.3</ele>
        <time>2023-08-15T12:43:04Z</time>
      </trkpt>
      <trkpt lat="43.19053" lon="1.83179">
        <ele>323.4</ele>
        <time>2023-08-15T12:43:08Z</time>
      </trkpt>
      <trkpt lat="43.19033" lon="1.83176">
        <ele>323.6</ele>
        <time>2023-08-15T12:43:11Z</time>
      </trkpt>
      <trkpt lat="43.19006" lon="1.83175">
        <ele>323.9</ele>
        <time>2023-08-15T12:43:15Z</time>
      </trkpt>
      <trkpt lat="43.18979" lon="1.83173">
        <ele>324.6</ele>
        <time>2023-08-15T12:43:19Z</time>
      </trkpt>
      <trkpt lat="43.18953" lon="1.83171">
        <ele>324.1</ele>
        <time>2023-08-15T12:43:23Z</time>
      </trkpt>
      <trkpt lat="43.18926" lon="1.83169">
        <ele>323.5</ele>
        <time>2023-08-15T12:43:27Z</time>
      </trkpt>
      <trkpt lat="43.18907" lon="1.83166">
        <ele>322.8</ele>
        <time>2023-08-15T12:43:30Z</time>
      </trkpt>
      <trkpt lat="43.18879" lon="1.83164">
        <ele>323</ele>
        <time>2023-08-15T12:43:34Z</time>
      </trkpt>
      <trkpt lat="43.18853" lon="1.83162">
        <ele>323.1</ele>
        <time>2023-08-15T12:43:38Z</time>
      </trkpt>
      <trkpt lat="43.18827" lon="1.83158">
        <ele>322.9</ele>
        <time>2023-08-15T12:43:42Z</time>
      </trkpt>
      <trkpt lat="43.18808" lon="1.83147">
        <ele>322.8</ele>
        <time>2023-08-15T12:43:45Z</time>
      </trkpt>
      <trkpt lat="43.18786" lon="1.83124">
        <ele>322.1</ele>
        <time>2023-08-15T12:43:49Z</time>
      </trkpt>
      <trkpt lat="43.18772" lon="1.83105">
        <ele>322.3</ele>
        <time>2023-08-15T12:43:52Z</time>
      </trkpt>
      <trkpt lat="43.18752" lon="1.83084">
        <ele>321.8</ele>
        <time>2023-08-15T12:43:56Z</time>
      </trkpt>
      <trkpt lat="43.1873" lon="1.83066">
        <ele>322</ele>
        <time>2023-08-15T12:44:00Z</time>
      </trkpt>
      <trkpt lat="43.18712" lon="1.83054">
        <ele>322.1</ele>
        <time>2023-08-15T12:44:03Z</time>
      </trkpt>
      <trkpt lat="43.18692" lon="1.83045">
        <ele>321.4</ele>
        <time>2023-08-15T12:44:06Z</time>
      </trkpt>
      <trkpt lat="43.18668" lon="1.83031">
        <ele>320.9</ele>
        <time>2023-08-15T12:44:10Z</time>
      </trkpt>
      <trkpt lat="43.18642" lon="1.83017">
        <ele>321.1</ele>
        <time>2023-08-15T12:44:14Z</time>
      </trkpt>
      <trkpt lat="43.18616" lon="1.83003">
        <ele>320.3</ele>
        <time>2023-08-15T12:44:18Z</time>
      </trkpt>
      <trkpt lat="43.18598" lon="1.82994">
        <ele>320.3</ele>
        <time>2023-08-15T12:44:21Z</time>
      </trkpt>
      <trkpt lat="43.18575" lon="1.82981">
        <ele>318.3</ele>
        <time>2023-08-15T12:44:25Z</time>
      </trkpt>
      <trkpt lat="43.1855" lon="1.82967">
        <ele>318.5</ele>
        <time>2023-08-15T12:44:29Z</time>
      </trkpt>
      <trkpt lat="43.18531" lon="1.82956">
        <ele>318.3</ele>
        <time>2023-08-15T12:44:32Z</time>
      </trkpt>
      <trkpt lat="43.18507" lon="1.82942">
        <ele>318</ele>
        <time>2023-08-15T12:44:36Z</time>
      </trkpt>
      <trkpt lat="43.18483" lon="1.82929">
        <ele>317.9</ele>
        <time>2023-08-15T12:44:40Z</time>
      </trkpt>
      <trkpt lat="43.18464" lon="1.82919">
        <ele>318</ele>
        <time>2023-08-15T12:44:43Z</time>
      </trkpt>
      <trkpt lat="43.1844" lon="1.82905">
        <ele>317.4</ele>
        <time>2023-08-15T12:44:47Z</time>
      </trkpt>
      <trkpt lat="43.18415" lon="1.82891">
        <ele>317.6</ele>
        <time>2023-08-15T12:44:51Z</time>
      </trkpt>
      <trkpt lat="43.18391" lon="1.82877">
        <ele>317.2</ele>
        <time>2023-08-15T12:44:55Z</time>
      </trkpt>
      <trkpt lat="43.18372" lon="1.82866">
        <ele>317.4</ele>
        <time>2023-08-15T12:44:58Z</time>
      </trkpt>
      <trkpt lat="43.18348" lon="1.82852">
        <ele>316.9</ele>
        <time>2023-08-15T12:45:02Z</time>
      </trkpt>
      <trkpt lat="43.18329" lon="1.82841">
        <ele>316.2</ele>
        <time>2023-08-15T12:45:05Z</time>
      </trkpt>
      <trkpt lat="43.18304" lon="1.82828">
        <ele>316.2</ele>
        <time>2023-08-15T12:45:09Z</time>
      </trkpt>
      <trkpt lat="43.1828" lon="1.82814">
        <ele>316.5</ele>
        <time>2023-08-15T12:45:13Z</time>
      </trkpt>
      <trkpt lat="43.18263" lon="1.82799">
        <ele>315.4</ele>
        <time>2023-08-15T12:45:16Z</time>
      </trkpt>
      <trkpt lat="43.18247" lon="1.8277">
        <ele>316</ele>
        <time>2023-08-15T12:45:20Z</time>
      </trkpt>
      <trkpt lat="43.18242" lon="1.82745">
        <ele>316.4</ele>
        <time>2023-08-15T12:45:23Z</time>
      </trkpt>
      <trkpt lat="43.18237" lon="1.82719">
        <ele>317.4</ele>
        <time>2023-08-15T12:45:26Z</time>
      </trkpt>
      <trkpt lat="43.1823" lon="1.82683">
        <ele>317.7</ele>
        <time>2023-08-15T12:45:30Z</time>
      </trkpt>
      <trkpt lat="43.18223" lon="1.82646">
        <ele>316.9</ele>
        <time>2023-08-15T12:45:34Z</time>
      </trkpt>
      <trkpt lat="43.18218" lon="1.8262">
        <ele>315.8</ele>
        <time>2023-08-15T12:45:37Z</time>
      </trkpt>
      <trkpt lat="43.18209" lon="1.82585">
        <ele>315.3</ele>
        <time>2023-08-15T12:45:41Z</time>
      </trkpt>
      <trkpt lat="43.18201" lon="1.82551">
        <ele>314</ele>
        <time>2023-08-15T12:45:45Z</time>
      </trkpt>
      <trkpt lat="43.18194" lon="1.82516">
        <ele>313.4</ele>
        <time>2023-08-15T12:45:49Z</time>
      </trkpt>
      <trkpt lat="43.18188" lon="1.82482">
        <ele>312.9</ele>
        <time>2023-08-15T12:45:53Z</time>
      </trkpt>
      <trkpt lat="43.18183" lon="1.82456">
        <ele>312.8</ele>
        <time>2023-08-15T12:45:56Z</time>
      </trkpt>
      <trkpt lat="43.18177" lon="1.8243">
        <ele>312.8</ele>
        <time>2023-08-15T12:45:59Z</time>
      </trkpt>
      <trkpt lat="43.18169" lon="1.82394">
        <ele>311.7</ele>
        <time>2023-08-15T12:46:03Z</time>
      </trkpt>
      <trkpt lat="43.18162" lon="1.82369">
        <ele>311</ele>
        <time>2023-08-15T12:46:06Z</time>
      </trkpt>
      <trkpt lat="43.18157" lon="1.82344">
        <ele>310.9</ele>
        <time>2023-08-15T12:46:09Z</time>
      </trkpt>
      <trkpt lat="43.1815" lon="1.82312">
        <ele>311.1</ele>
        <time>2023-08-15T12:46:13Z</time>
      </trkpt>
      <trkpt lat="43.18145" lon="1.82289">
        <ele>310.9</ele>
        <time>2023-08-15T12:46:16Z</time>
      </trkpt>
      <trkpt lat="43.18139" lon="1.82263">
        <ele>310.5</ele>
        <time>2023-08-15T12:46:19Z</time>
      </trkpt>
      <trkpt lat="43.18131" lon="1.82222">
        <ele>310.6</ele>
        <time>2023-08-15T12:46:23Z</time>
      </trkpt>
      <trkpt lat="43.1812" lon="1.82189">
        <ele>310.8</ele>
        <time>2023-08-15T12:46:27Z</time>
      </trkpt>
      <trkpt lat="43.18102" lon="1.82166">
        <ele>310.7</ele>
        <time>2023-08-15T12:46:31Z</time>
      </trkpt>
      <trkpt lat="43.18083" lon="1.82159">
        <ele>310.5</ele>
        <time>2023-08-15T12:46:34Z</time>
      </trkpt>
      <trkpt lat="43.18055" lon="1.82151">
        <ele>310.1</ele>
        <time>2023-08-15T12:46:38Z</time>
      </trkpt>
      <trkpt lat="43.1803" lon="1.82142">
        <ele>310.2</ele>
        <time>2023-08-15T12:46:42Z</time>
      </trkpt>
      <trkpt lat="43.18005" lon="1.82132">
        <ele>310.9</ele>
        <time>2023-08-15T12:46:46Z</time>
      </trkpt>
      <trkpt lat="43.17986" lon="1.82126">
        <ele>310.6</ele>
        <time>2023-08-15T12:46:49Z</time>
      </trkpt>
      <trkpt lat="43.17966" lon="1.82119">
        <ele>311.5</ele>
        <time>2023-08-15T12:46:52Z</time>
      </trkpt>
      <trkpt lat="43.17947" lon="1.82113">
        <ele>311.9</ele>
        <time>2023-08-15T12:46:55Z</time>
      </trkpt>
      <trkpt lat="43.17921" lon="1.82104">
        <ele>312</ele>
        <time>2023-08-15T12:46:59Z</time>
      </trkpt>
      <trkpt lat="43.17902" lon="1.82098">
        <ele>312.5</ele>
        <time>2023-08-15T12:47:02Z</time>
      </trkpt>
      <trkpt lat="43.17882" lon="1.82092">
        <ele>312.9</ele>
        <time>2023-08-15T12:47:05Z</time>
      </trkpt>
      <trkpt lat="43.17863" lon="1.82087">
        <ele>313.3</ele>
        <time>2023-08-15T12:47:08Z</time>
      </trkpt>
      <trkpt lat="43.17842" lon="1.82081">
        <ele>313.5</ele>
        <time>2023-08-15T12:47:11Z</time>
      </trkpt>
      <trkpt lat="43.17817" lon="1.82072">
        <ele>313.8</ele>
        <time>2023-08-15T12:47:15Z</time>
      </trkpt>
      <trkpt lat="43.17798" lon="1.82065">
        <ele>313</ele>
        <time>2023-08-15T12:47:18Z</time>
      </trkpt>
      <trkpt lat="43.17779" lon="1.82058">
        <ele>313.2</ele>
        <time>2023-08-15T12:47:21Z</time>
      </trkpt>
      <trkpt lat="43.17754" lon="1.82048">
        <ele>313.4</ele>
        <time>2023-08-15T12:47:25Z</time>
      </trkpt>
      <trkpt lat="43.17735" lon="1.82042">
        <ele>312.7</ele>
        <time>2023-08-15T12:47:28Z</time>
      </trkpt>
      <trkpt lat="43.17716" lon="1.82035">
        <ele>312.9</ele>
        <time>2023-08-15T12:47:31Z</time>
      </trkpt>
      <trkpt lat="43.17689" lon="1.82025">
        <ele>313.5</ele>
        <time>2023-08-15T12:47:35Z</time>
      </trkpt>
      <trkpt lat="43.1767" lon="1.82019">
        <ele>314</ele>
        <time>2023-08-15T12:47:38Z</time>
      </trkpt>
      <trkpt lat="43.17645" lon="1.82008">
        <ele>314.7</ele>
        <time>2023-08-15T12:47:42Z</time>
      </trkpt>
      <trkpt lat="43.17626" lon="1.82001">
        <ele>315.2</ele>
        <time>2023-08-15T12:47:45Z</time>
      </trkpt>
      <trkpt lat="43.17606" lon="1.81994">
        <ele>315.4</ele>
        <time>2023-08-15T12:47:48Z</time>
      </trkpt>
      <trkpt lat="43.17582" lon="1.81985">
        <ele>315.7</ele>
        <time>2023-08-15T12:47:52Z</time>
      </trkpt>
      <trkpt lat="43.17556" lon="1.81976">
        <ele>316.1</ele>
        <time>2023-08-15T12:47:56Z</time>
      </trkpt>
      <trkpt lat="43.17536" lon="1.81969">
        <ele>316.3</ele>
        <time>2023-08-15T12:47:59Z</time>
      </trkpt>
      <trkpt lat="43.17517" lon="1.81961">
        <ele>317.2</ele>
        <time>2023-08-15T12:48:02Z</time>
      </trkpt>
      <trkpt lat="43.17492" lon="1.81951">
        <ele>317.9</ele>
        <time>2023-08-15T12:48:06Z</time>
      </trkpt>
      <trkpt lat="43.17466" lon="1.81944">
        <ele>318.7</ele>
        <time>2023-08-15T12:48:10Z</time>
      </trkpt>
      <trkpt lat="43.17447" lon="1.81937">
        <ele>318.6</ele>
        <time>2023-08-15T12:48:13Z</time>
      </trkpt>
      <trkpt lat="43.17422" lon="1.81928">
        <ele>318.8</ele>
        <time>2023-08-15T12:48:17Z</time>
      </trkpt>
      <trkpt lat="43.17403" lon="1.81922">
        <ele>319.2</ele>
        <time>2023-08-15T12:48:20Z</time>
      </trkpt>
      <trkpt lat="43.17383" lon="1.81916">
        <ele>320</ele>
        <time>2023-08-15T12:48:23Z</time>
      </trkpt>
      <trkpt lat="43.17357" lon="1.81907">
        <ele>319.8</ele>
        <time>2023-08-15T12:48:27Z</time>
      </trkpt>
      <trkpt lat="43.17332" lon="1.81898">
        <ele>319.5</ele>
        <time>2023-08-15T12:48:31Z</time>
      </trkpt>
      <trkpt lat="43.17306" lon="1.81889">
        <ele>321.2</ele>
        <time>2023-08-15T12:48:35Z</time>
      </trkpt>
      <trkpt lat="43.1728" lon="1.81881">
        <ele>321.9</ele>
        <time>2023-08-15T12:48:39Z</time>
      </trkpt>
      <trkpt lat="43.17261" lon="1.81874">
        <ele>322.1</ele>
        <time>2023-08-15T12:48:42Z</time>
      </trkpt>
      <trkpt lat="43.17242" lon="1.81867">
        <ele>322.3</ele>
        <time>2023-08-15T12:48:45Z</time>
      </trkpt>
      <trkpt lat="43.17222" lon="1.81861">
        <ele>322.6</ele>
        <time>2023-08-15T12:48:48Z</time>
      </trkpt>
      <trkpt lat="43.17197" lon="1.81853">
        <ele>323.2</ele>
        <time>2023-08-15T12:48:52Z</time>
      </trkpt>
      <trkpt lat="43.17178" lon="1.81846">
        <ele>323.4</ele>
        <time>2023-08-15T12:48:55Z</time>
      </trkpt>
      <trkpt lat="43.1716" lon="1.81838">
        <ele>323.4</ele>
        <time>2023-08-15T12:48:58Z</time>
      </trkpt>
      <trkpt lat="43.17134" lon="1.81829">
        <ele>324</ele>
        <time>2023-08-15T12:49:02Z</time>
      </trkpt>
      <trkpt lat="43.17108" lon="1.8182">
        <ele>324.5</ele>
        <time>2023-08-15T12:49:06Z</time>
      </trkpt>
      <trkpt lat="43.17082" lon="1.8181">
        <ele>325.2</ele>
        <time>2023-08-15T12:49:10Z</time>
      </trkpt>
      <trkpt lat="43.17057" lon="1.818">
        <ele>324.8</ele>
        <time>2023-08-15T12:49:14Z</time>
      </trkpt>
      <trkpt lat="43.17038" lon="1.81793">
        <ele>325.1</ele>
        <time>2023-08-15T12:49:17Z</time>
      </trkpt>
      <trkpt lat="43.17013" lon="1.81783">
        <ele>326.1</ele>
        <time>2023-08-15T12:49:21Z</time>
      </trkpt>
      <trkpt lat="43.16993" lon="1.81777">
        <ele>326</ele>
        <time>2023-08-15T12:49:24Z</time>
      </trkpt>
      <trkpt lat="43.16973" lon="1.81771">
        <ele>326.6</ele>
        <time>2023-08-15T12:49:27Z</time>
      </trkpt>
      <trkpt lat="43.16954" lon="1.81765">
        <ele>326.7</ele>
        <time>2023-08-15T12:49:30Z</time>
      </trkpt>
      <trkpt lat="43.16928" lon="1.81756">
        <ele>327.3</ele>
        <time>2023-08-15T12:49:34Z</time>
      </trkpt>
      <trkpt lat="43.16908" lon="1.81749">
        <ele>327</ele>
        <time>2023-08-15T12:49:37Z</time>
      </trkpt>
      <trkpt lat="43.16883" lon="1.8174">
        <ele>326.9</ele>
        <time>2023-08-15T12:49:41Z</time>
      </trkpt>
      <trkpt lat="43.16857" lon="1.81731">
        <ele>327</ele>
        <time>2023-08-15T12:49:45Z</time>
      </trkpt>
      <trkpt lat="43.16838" lon="1.81724">
        <ele>326.2</ele>
        <time>2023-08-15T12:49:48Z</time>
      </trkpt>
      <trkpt lat="43.16812" lon="1.81716">
        <ele>326</ele>
        <time>2023-08-15T12:49:52Z</time>
      </trkpt>
      <trkpt lat="43.16793" lon="1.81713">
        <ele>326.8</ele>
        <time>2023-08-15T12:49:55Z</time>
      </trkpt>
      <trkpt lat="43.16768" lon="1.81717">
        <ele>328.1</ele>
        <time>2023-08-15T12:49:59Z</time>
      </trkpt>
      <trkpt lat="43.16743" lon="1.81729">
        <ele>328.8</ele>
        <time>2023-08-15T12:50:03Z</time>
      </trkpt>
      <trkpt lat="43.16726" lon="1.81746">
        <ele>329.2</ele>
        <time>2023-08-15T12:50:06Z</time>
      </trkpt>
      <trkpt lat="43.16706" lon="1.81771">
        <ele>329.4</ele>
        <time>2023-08-15T12:50:10Z</time>
      </trkpt>
      <trkpt lat="43.16687" lon="1.81799">
        <ele>330.1</ele>
        <time>2023-08-15T12:50:14Z</time>
      </trkpt>
      <trkpt lat="43.16669" lon="1.81826">
        <ele>330.9</ele>
        <time>2023-08-15T12:50:18Z</time>
      </trkpt>
      <trkpt lat="43.16651" lon="1.81852">
        <ele>331.1</ele>
        <time>2023-08-15T12:50:22Z</time>
      </trkpt>
      <trkpt lat="43.16632" lon="1.81878">
        <ele>331.3</ele>
        <time>2023-08-15T12:50:26Z</time>
      </trkpt>
      <trkpt lat="43.16618" lon="1.81898">
        <ele>331</ele>
        <time>2023-08-15T12:50:29Z</time>
      </trkpt>
      <trkpt lat="43.166" lon="1.81923">
        <ele>331.7</ele>
        <time>2023-08-15T12:50:33Z</time>
      </trkpt>
      <trkpt lat="43.16588" lon="1.8194">
        <ele>332.5</ele>
        <time>2023-08-15T12:50:36Z</time>
      </trkpt>
      <trkpt lat="43.16568" lon="1.81968">
        <ele>333</ele>
        <time>2023-08-15T12:50:40Z</time>
      </trkpt>
      <trkpt lat="43.16553" lon="1.8199">
        <ele>333.5</ele>
        <time>2023-08-15T12:50:43Z</time>
      </trkpt>
      <trkpt lat="43.16541" lon="1.8201">
        <ele>334.1</ele>
        <time>2023-08-15T12:50:46Z</time>
      </trkpt>
      <trkpt lat="43.16523" lon="1.82036">
        <ele>334.5</ele>
        <time>2023-08-15T12:50:50Z</time>
      </trkpt>
      <trkpt lat="43.16509" lon="1.82056">
        <ele>334.6</ele>
        <time>2023-08-15T12:50:53Z</time>
      </trkpt>
      <trkpt lat="43.16496" lon="1.82076">
        <ele>335.4</ele>
        <time>2023-08-15T12:50:56Z</time>
      </trkpt>
      <trkpt lat="43.16478" lon="1.82101">
        <ele>335.8</ele>
        <time>2023-08-15T12:51:00Z</time>
      </trkpt>
      <trkpt lat="43.16463" lon="1.8212">
        <ele>336.4</ele>
        <time>2023-08-15T12:51:03Z</time>
      </trkpt>
      <trkpt lat="43.16449" lon="1.82138">
        <ele>337.3</ele>
        <time>2023-08-15T12:51:06Z</time>
      </trkpt>
      <trkpt lat="43.16436" lon="1.82157">
        <ele>337.4</ele>
        <time>2023-08-15T12:51:09Z</time>
      </trkpt>
      <trkpt lat="43.16416" lon="1.82182">
        <ele>337.7</ele>
        <time>2023-08-15T12:51:13Z</time>
      </trkpt>
      <trkpt lat="43.16397" lon="1.82208">
        <ele>338.7</ele>
        <time>2023-08-15T12:51:17Z</time>
      </trkpt>
      <trkpt lat="43.16379" lon="1.82234">
        <ele>338.8</ele>
        <time>2023-08-15T12:51:21Z</time>
      </trkpt>
      <trkpt lat="43.16364" lon="1.82253">
        <ele>339</ele>
        <time>2023-08-15T12:51:24Z</time>
      </trkpt>
      <trkpt lat="43.16349" lon="1.8227">
        <ele>340.2</ele>
        <time>2023-08-15T12:51:27Z</time>
      </trkpt>
      <trkpt lat="43.16334" lon="1.82286">
        <ele>340.7</ele>
        <time>2023-08-15T12:51:30Z</time>
      </trkpt>
      <trkpt lat="43.16312" lon="1.82308">
        <ele>341.3</ele>
        <time>2023-08-15T12:51:34Z</time>
      </trkpt>
      <trkpt lat="43.16295" lon="1.82322">
        <ele>341.5</ele>
        <time>2023-08-15T12:51:37Z</time>
      </trkpt>
      <trkpt lat="43.16277" lon="1.82333">
        <ele>342.2</ele>
        <time>2023-08-15T12:51:40Z</time>
      </trkpt>
      <trkpt lat="43.16258" lon="1.82345">
        <ele>342.6</ele>
        <time>2023-08-15T12:51:43Z</time>
      </trkpt>
      <trkpt lat="43.16239" lon="1.82356">
        <ele>342.5</ele>
        <time>2023-08-15T12:51:46Z</time>
      </trkpt>
      <trkpt lat="43.1622" lon="1.82364">
        <ele>343</ele>
        <time>2023-08-15T12:51:49Z</time>
      </trkpt>
      <trkpt lat="43.16194" lon="1.82371">
        <ele>342.9</ele>
        <time>2023-08-15T12:51:53Z</time>
      </trkpt>
      <trkpt lat="43.16167" lon="1.82377">
        <ele>343.2</ele>
        <time>2023-08-15T12:51:57Z</time>
      </trkpt>
      <trkpt lat="43.16142" lon="1.82383">
        <ele>344.1</ele>
        <time>2023-08-15T12:52:01Z</time>
      </trkpt>
      <trkpt lat="43.16117" lon="1.82387">
        <ele>344.1</ele>
        <time>2023-08-15T12:52:05Z</time>
      </trkpt>
      <trkpt lat="43.16097" lon="1.82391">
        <ele>344.4</ele>
        <time>2023-08-15T12:52:08Z</time>
      </trkpt>
      <trkpt lat="43.16077" lon="1.82395">
        <ele>344.7</ele>
        <time>2023-08-15T12:52:11Z</time>
      </trkpt>
      <trkpt lat="43.16057" lon="1.82399">
        <ele>345.1</ele>
        <time>2023-08-15T12:52:14Z</time>
      </trkpt>
      <trkpt lat="43.16031" lon="1.82405">
        <ele>345.3</ele>
        <time>2023-08-15T12:52:18Z</time>
      </trkpt>
      <trkpt lat="43.16006" lon="1.82413">
        <ele>345.8</ele>
        <time>2023-08-15T12:52:22Z</time>
      </trkpt>
      <trkpt lat="43.15987" lon="1.82416">
        <ele>345.5</ele>
        <time>2023-08-15T12:52:25Z</time>
      </trkpt>
      <trkpt lat="43.15966" lon="1.8242">
        <ele>346.3</ele>
        <time>2023-08-15T12:52:28Z</time>
      </trkpt>
      <trkpt lat="43.1594" lon="1.82424">
        <ele>346.6</ele>
        <time>2023-08-15T12:52:32Z</time>
      </trkpt>
      <trkpt lat="43.15914" lon="1.82432">
        <ele>346.4</ele>
        <time>2023-08-15T12:52:36Z</time>
      </trkpt>
      <trkpt lat="43.15897" lon="1.8244">
        <ele>346.6</ele>
        <time>2023-08-15T12:52:39Z</time>
      </trkpt>
      <trkpt lat="43.15874" lon="1.82458">
        <ele>347</ele>
        <time>2023-08-15T12:52:43Z</time>
      </trkpt>
      <trkpt lat="43.15857" lon="1.82488">
        <ele>346.7</ele>
        <time>2023-08-15T12:52:47Z</time>
      </trkpt>
      <trkpt lat="43.15846" lon="1.82514">
        <ele>347</ele>
        <time>2023-08-15T12:52:50Z</time>
      </trkpt>
      <trkpt lat="43.15833" lon="1.82547">
        <ele>347.8</ele>
        <time>2023-08-15T12:52:54Z</time>
      </trkpt>
      <trkpt lat="43.15824" lon="1.82572">
        <ele>348.5</ele>
        <time>2023-08-15T12:52:57Z</time>
      </trkpt>
      <trkpt lat="43.15813" lon="1.82605">
        <ele>349</ele>
        <time>2023-08-15T12:53:01Z</time>
      </trkpt>
      <trkpt lat="43.15801" lon="1.82635">
        <ele>350.2</ele>
        <time>2023-08-15T12:53:05Z</time>
      </trkpt>
      <trkpt lat="43.15791" lon="1.82658">
        <ele>350.5</ele>
        <time>2023-08-15T12:53:08Z</time>
      </trkpt>
      <trkpt lat="43.15779" lon="1.8269">
        <ele>350.5</ele>
        <time>2023-08-15T12:53:12Z</time>
      </trkpt>
      <trkpt lat="43.15766" lon="1.82721">
        <ele>350.1</ele>
        <time>2023-08-15T12:53:16Z</time>
      </trkpt>
      <trkpt lat="43.15757" lon="1.82745">
        <ele>350.6</ele>
        <time>2023-08-15T12:53:19Z</time>
      </trkpt>
      <trkpt lat="43.15744" lon="1.82777">
        <ele>350.8</ele>
        <time>2023-08-15T12:53:23Z</time>
      </trkpt>
      <trkpt lat="43.1573" lon="1.82806">
        <ele>353.2</ele>
        <time>2023-08-15T12:53:27Z</time>
      </trkpt>
      <trkpt lat="43.15714" lon="1.82832">
        <ele>355</ele>
        <time>2023-08-15T12:53:31Z</time>
      </trkpt>
      <trkpt lat="43.15701" lon="1.82851">
        <ele>355.6</ele>
        <time>2023-08-15T12:53:34Z</time>
      </trkpt>
      <trkpt lat="43.15683" lon="1.82878">
        <ele>356.4</ele>
        <time>2023-08-15T12:53:38Z</time>
      </trkpt>
      <trkpt lat="43.1567" lon="1.82901">
        <ele>357.1</ele>
        <time>2023-08-15T12:53:41Z</time>
      </trkpt>
      <trkpt lat="43.15653" lon="1.82928">
        <ele>358.2</ele>
        <time>2023-08-15T12:53:45Z</time>
      </trkpt>
      <trkpt lat="43.15637" lon="1.82956">
        <ele>358.9</ele>
        <time>2023-08-15T12:53:49Z</time>
      </trkpt>
      <trkpt lat="43.15625" lon="1.82974">
        <ele>359.2</ele>
        <time>2023-08-15T12:53:52Z</time>
      </trkpt>
      <trkpt lat="43.15608" lon="1.82999">
        <ele>360.8</ele>
        <time>2023-08-15T12:53:56Z</time>
      </trkpt>
      <trkpt lat="43.15592" lon="1.83026">
        <ele>361.6</ele>
        <time>2023-08-15T12:54:00Z</time>
      </trkpt>
      <trkpt lat="43.15579" lon="1.83049">
        <ele>361.8</ele>
        <time>2023-08-15T12:54:03Z</time>
      </trkpt>
      <trkpt lat="43.15566" lon="1.83071">
        <ele>362.3</ele>
        <time>2023-08-15T12:54:06Z</time>
      </trkpt>
      <trkpt lat="43.15549" lon="1.83101">
        <ele>362.7</ele>
        <time>2023-08-15T12:54:10Z</time>
      </trkpt>
      <trkpt lat="43.15532" lon="1.83127">
        <ele>363.5</ele>
        <time>2023-08-15T12:54:14Z</time>
      </trkpt>
      <trkpt lat="43.15515" lon="1.83154">
        <ele>365</ele>
        <time>2023-08-15T12:54:18Z</time>
      </trkpt>
      <trkpt lat="43.15501" lon="1.83175">
        <ele>365.7</ele>
        <time>2023-08-15T12:54:21Z</time>
      </trkpt>
      <trkpt lat="43.15489" lon="1.83196">
        <ele>367.3</ele>
        <time>2023-08-15T12:54:24Z</time>
      </trkpt>
      <trkpt lat="43.15472" lon="1.83226">
        <ele>369.2</ele>
        <time>2023-08-15T12:54:28Z</time>
      </trkpt>
      <trkpt lat="43.15456" lon="1.83254">
        <ele>370.2</ele>
        <time>2023-08-15T12:54:32Z</time>
      </trkpt>
      <trkpt lat="43.15442" lon="1.83276">
        <ele>371.2</ele>
        <time>2023-08-15T12:54:35Z</time>
      </trkpt>
      <trkpt lat="43.15423" lon="1.833">
        <ele>371.7</ele>
        <time>2023-08-15T12:54:39Z</time>
      </trkpt>
      <trkpt lat="43.15406" lon="1.83317">
        <ele>372</ele>
        <time>2023-08-15T12:54:42Z</time>
      </trkpt>
      <trkpt lat="43.1539" lon="1.83334">
        <ele>371.5</ele>
        <time>2023-08-15T12:54:45Z</time>
      </trkpt>
      <trkpt lat="43.15368" lon="1.83354">
        <ele>372</ele>
        <time>2023-08-15T12:54:49Z</time>
      </trkpt>
      <trkpt lat="43.15342" lon="1.83366">
        <ele>372.6</ele>
        <time>2023-08-15T12:54:53Z</time>
      </trkpt>
      <trkpt lat="43.15322" lon="1.83366">
        <ele>373.4</ele>
        <time>2023-08-15T12:54:56Z</time>
      </trkpt>
      <trkpt lat="43.15303" lon="1.83359">
        <ele>373.8</ele>
        <time>2023-08-15T12:54:59Z</time>
      </trkpt>
      <trkpt lat="43.15277" lon="1.83348">
        <ele>374.4</ele>
        <time>2023-08-15T12:55:03Z</time>
      </trkpt>
      <trkpt lat="43.15258" lon="1.83345">
        <ele>375</ele>
        <time>2023-08-15T12:55:06Z</time>
      </trkpt>
      <trkpt lat="43.15239" lon="1.83349">
        <ele>375.3</ele>
        <time>2023-08-15T12:55:09Z</time>
      </trkpt>
      <trkpt lat="43.15219" lon="1.83356">
        <ele>375.9</ele>
        <time>2023-08-15T12:55:12Z</time>
      </trkpt>
      <trkpt lat="43.15195" lon="1.83371">
        <ele>376.2</ele>
        <time>2023-08-15T12:55:16Z</time>
      </trkpt>
      <trkpt lat="43.15174" lon="1.83391">
        <ele>377.1</ele>
        <time>2023-08-15T12:55:20Z</time>
      </trkpt>
      <trkpt lat="43.15159" lon="1.83408">
        <ele>377.9</ele>
        <time>2023-08-15T12:55:23Z</time>
      </trkpt>
      <trkpt lat="43.15141" lon="1.83434">
        <ele>378.2</ele>
        <time>2023-08-15T12:55:27Z</time>
      </trkpt>
      <trkpt lat="43.15129" lon="1.83456">
        <ele>378.8</ele>
        <time>2023-08-15T12:55:30Z</time>
      </trkpt>
      <trkpt lat="43.15119" lon="1.83479">
        <ele>380.2</ele>
        <time>2023-08-15T12:55:33Z</time>
      </trkpt>
      <trkpt lat="43.15105" lon="1.83507">
        <ele>381.9</ele>
        <time>2023-08-15T12:55:37Z</time>
      </trkpt>
      <trkpt lat="43.15094" lon="1.83525">
        <ele>383</ele>
        <time>2023-08-15T12:55:40Z</time>
      </trkpt>
      <trkpt lat="43.15081" lon="1.83541">
        <ele>384.5</ele>
        <time>2023-08-15T12:55:43Z</time>
      </trkpt>
      <trkpt lat="43.15063" lon="1.83558">
        <ele>385.5</ele>
        <time>2023-08-15T12:55:47Z</time>
      </trkpt>
      <trkpt lat="43.15045" lon="1.83575">
        <ele>386.9</ele>
        <time>2023-08-15T12:55:51Z</time>
      </trkpt>
      <trkpt lat="43.15026" lon="1.83589">
        <ele>389.2</ele>
        <time>2023-08-15T12:55:55Z</time>
      </trkpt>
      <trkpt lat="43.15003" lon="1.83593">
        <ele>390.4</ele>
        <time>2023-08-15T12:55:59Z</time>
      </trkpt>
      <trkpt lat="43.14981" lon="1.83586">
        <ele>391.9</ele>
        <time>2023-08-15T12:56:03Z</time>
      </trkpt>
      <trkpt lat="43.14958" lon="1.83575">
        <ele>393.1</ele>
        <time>2023-08-15T12:56:07Z</time>
      </trkpt>
      <trkpt lat="43.14938" lon="1.83571">
        <ele>393.9</ele>
        <time>2023-08-15T12:56:10Z</time>
      </trkpt>
      <trkpt lat="43.14911" lon="1.83573">
        <ele>394.9</ele>
        <time>2023-08-15T12:56:14Z</time>
      </trkpt>
      <trkpt lat="43.14893" lon="1.83579">
        <ele>396.7</ele>
        <time>2023-08-15T12:56:17Z</time>
      </trkpt>
      <trkpt lat="43.14871" lon="1.83591">
        <ele>398.3</ele>
        <time>2023-08-15T12:56:21Z</time>
      </trkpt>
      <trkpt lat="43.14855" lon="1.836">
        <ele>400</ele>
        <time>2023-08-15T12:56:24Z</time>
      </trkpt>
      <trkpt lat="43.14832" lon="1.83611">
        <ele>401.8</ele>
        <time>2023-08-15T12:56:28Z</time>
      </trkpt>
      <trkpt lat="43.14811" lon="1.83619">
        <ele>403.5</ele>
        <time>2023-08-15T12:56:32Z</time>
      </trkpt>
      <trkpt lat="43.14794" lon="1.83622">
        <ele>404.9</ele>
        <time>2023-08-15T12:56:35Z</time>
      </trkpt>
      <trkpt lat="43.14771" lon="1.83623">
        <ele>406.4</ele>
        <time>2023-08-15T12:56:39Z</time>
      </trkpt>
      <trkpt lat="43.14753" lon="1.83623">
        <ele>407.4</ele>
        <time>2023-08-15T12:56:42Z</time>
      </trkpt>
      <trkpt lat="43.14729" lon="1.8363">
        <ele>409.1</ele>
        <time>2023-08-15T12:56:46Z</time>
      </trkpt>
      <trkpt lat="43.14707" lon="1.83644">
        <ele>410.9</ele>
        <time>2023-08-15T12:56:50Z</time>
      </trkpt>
      <trkpt lat="43.14692" lon="1.83658">
        <ele>411.8</ele>
        <time>2023-08-15T12:56:53Z</time>
      </trkpt>
      <trkpt lat="43.14674" lon="1.83676">
        <ele>413.3</ele>
        <time>2023-08-15T12:56:57Z</time>
      </trkpt>
      <trkpt lat="43.14656" lon="1.83694">
        <ele>415.4</ele>
        <time>2023-08-15T12:57:01Z</time>
      </trkpt>
      <trkpt lat="43.14643" lon="1.83706">
        <ele>416.5</ele>
        <time>2023-08-15T12:57:04Z</time>
      </trkpt>
      <trkpt lat="43.14631" lon="1.8372">
        <ele>417.8</ele>
        <time>2023-08-15T12:57:07Z</time>
      </trkpt>
      <trkpt lat="43.14615" lon="1.8374">
        <ele>419.8</ele>
        <time>2023-08-15T12:57:11Z</time>
      </trkpt>
      <trkpt lat="43.14602" lon="1.83755">
        <ele>420.8</ele>
        <time>2023-08-15T12:57:14Z</time>
      </trkpt>
      <trkpt lat="43.14586" lon="1.83776">
        <ele>422.7</ele>
        <time>2023-08-15T12:57:18Z</time>
      </trkpt>
      <trkpt lat="43.14575" lon="1.83794">
        <ele>424</ele>
        <time>2023-08-15T12:57:21Z</time>
      </trkpt>
      <trkpt lat="43.14561" lon="1.83821">
        <ele>426.2</ele>
        <time>2023-08-15T12:57:25Z</time>
      </trkpt>
      <trkpt lat="43.14553" lon="1.83846">
        <ele>427.6</ele>
        <time>2023-08-15T12:57:28Z</time>
      </trkpt>
      <trkpt lat="43.1454" lon="1.83883">
        <ele>428.4</ele>
        <time>2023-08-15T12:57:32Z</time>
      </trkpt>
      <trkpt lat="43.14528" lon="1.83921">
        <ele>427.8</ele>
        <time>2023-08-15T12:57:36Z</time>
      </trkpt>
      <trkpt lat="43.14514" lon="1.83951">
        <ele>426.7</ele>
        <time>2023-08-15T12:57:40Z</time>
      </trkpt>
      <trkpt lat="43.14493" lon="1.8397">
        <ele>425.5</ele>
        <time>2023-08-15T12:57:44Z</time>
      </trkpt>
      <trkpt lat="43.14474" lon="1.83979">
        <ele>425.4</ele>
        <time>2023-08-15T12:57:47Z</time>
      </trkpt>
      <trkpt lat="43.14455" lon="1.83988">
        <ele>425.2</ele>
        <time>2023-08-15T12:57:50Z</time>
      </trkpt>
      <trkpt lat="43.1443" lon="1.84001">
        <ele>424.2</ele>
        <time>2023-08-15T12:57:54Z</time>
      </trkpt>
      <trkpt lat="43.14411" lon="1.84011">
        <ele>423.7</ele>
        <time>2023-08-15T12:57:57Z</time>
      </trkpt>
      <trkpt lat="43.14386" lon="1.84024">
        <ele>421.9</ele>
        <time>2023-08-15T12:58:01Z</time>
      </trkpt>
      <trkpt lat="43.14368" lon="1.84034">
        <ele>421.4</ele>
        <time>2023-08-15T12:58:04Z</time>
      </trkpt>
      <trkpt lat="43.14343" lon="1.84045">
        <ele>420.4</ele>
        <time>2023-08-15T12:58:08Z</time>
      </trkpt>
      <trkpt lat="43.14319" lon="1.84059">
        <ele>419.9</ele>
        <time>2023-08-15T12:58:12Z</time>
      </trkpt>
      <trkpt lat="43.143" lon="1.84068">
        <ele>419.4</ele>
        <time>2023-08-15T12:58:15Z</time>
      </trkpt>
      <trkpt lat="43.14283" lon="1.84078">
        <ele>419.2</ele>
        <time>2023-08-15T12:58:18Z</time>
      </trkpt>
      <trkpt lat="43.14259" lon="1.84091">
        <ele>419.3</ele>
        <time>2023-08-15T12:58:22Z</time>
      </trkpt>
      <trkpt lat="43.14233" lon="1.84104">
        <ele>418.7</ele>
        <time>2023-08-15T12:58:26Z</time>
      </trkpt>
      <trkpt lat="43.14214" lon="1.84114">
        <ele>418.4</ele>
        <time>2023-08-15T12:58:29Z</time>
      </trkpt>
      <trkpt lat="43.1419" lon="1.84128">
        <ele>418.1</ele>
        <time>2023-08-15T12:58:33Z</time>
      </trkpt>
      <trkpt lat="43.14165" lon="1.84141">
        <ele>417.7</ele>
        <time>2023-08-15T12:58:37Z</time>
      </trkpt>
      <trkpt lat="43.14146" lon="1.8415">
        <ele>416.6</ele>
        <time>2023-08-15T12:58:40Z</time>
      </trkpt>
      <trkpt lat="43.14121" lon="1.84164">
        <ele>416.3</ele>
        <time>2023-08-15T12:58:44Z</time>
      </trkpt>
      <trkpt lat="43.14096" lon="1.84175">
        <ele>415.2</ele>
        <time>2023-08-15T12:58:48Z</time>
      </trkpt>
      <trkpt lat="43.14077" lon="1.84181">
        <ele>414.7</ele>
        <time>2023-08-15T12:58:51Z</time>
      </trkpt>
      <trkpt lat="43.14051" lon="1.84187">
        <ele>414.4</ele>
        <time>2023-08-15T12:58:55Z</time>
      </trkpt>
      <trkpt lat="43.14031" lon="1.84193">
        <ele>413.8</ele>
        <time>2023-08-15T12:58:58Z</time>
      </trkpt>
      <trkpt lat="43.14005" lon="1.842">
        <ele>412.4</ele>
        <time>2023-08-15T12:59:02Z</time>
      </trkpt>
      <trkpt lat="43.13986" lon="1.84206">
        <ele>412</ele>
        <time>2023-08-15T12:59:05Z</time>
      </trkpt>
      <trkpt lat="43.13966" lon="1.8421">
        <ele>411.2</ele>
        <time>2023-08-15T12:59:08Z</time>
      </trkpt>
      <trkpt lat="43.13946" lon="1.84211">
        <ele>410.6</ele>
        <time>2023-08-15T12:59:11Z</time>
      </trkpt>
      <trkpt lat="43.1392" lon="1.84203">
        <ele>410.1</ele>
        <time>2023-08-15T12:59:15Z</time>
      </trkpt>
      <trkpt lat="43.13896" lon="1.8419">
        <ele>408.5</ele>
        <time>2023-08-15T12:59:19Z</time>
      </trkpt>
      <trkpt lat="43.13871" lon="1.84175">
        <ele>407.6</ele>
        <time>2023-08-15T12:59:23Z</time>
      </trkpt>
      <trkpt lat="43.13847" lon="1.8416">
        <ele>407.1</ele>
        <time>2023-08-15T12:59:27Z</time>
      </trkpt>
      <trkpt lat="43.13822" lon="1.84145">
        <ele>406.3</ele>
        <time>2023-08-15T12:59:31Z</time>
      </trkpt>
      <trkpt lat="43.13804" lon="1.84134">
        <ele>406</ele>
        <time>2023-08-15T12:59:34Z</time>
      </trkpt>
      <trkpt lat="43.1378" lon="1.84119">
        <ele>405.2</ele>
        <time>2023-08-15T12:59:38Z</time>
      </trkpt>
      <trkpt lat="43.13763" lon="1.84107">
        <ele>404</ele>
        <time>2023-08-15T12:59:41Z</time>
      </trkpt>
      <trkpt lat="43.1374" lon="1.84085">
        <ele>403.4</ele>
        <time>2023-08-15T12:59:45Z</time>
      </trkpt>
      <trkpt lat="43.13724" lon="1.84054">
        <ele>402.6</ele>
        <time>2023-08-15T12:59:49Z</time>
      </trkpt>
      <trkpt lat="43.13714" lon="1.84029">
        <ele>401.8</ele>
        <time>2023-08-15T12:59:52Z</time>
      </trkpt>
      <trkpt lat="43.137" lon="1.83999">
        <ele>400.4</ele>
        <time>2023-08-15T12:59:56Z</time>
      </trkpt>
      <trkpt lat="43.13686" lon="1.83969">
        <ele>399.9</ele>
        <time>2023-08-15T13:00:00Z</time>
      </trkpt>
      <trkpt lat="43.13675" lon="1.83946">
        <ele>399.2</ele>
        <time>2023-08-15T13:00:03Z</time>
      </trkpt>
      <trkpt lat="43.1366" lon="1.83916">
        <ele>398.5</ele>
        <time>2023-08-15T13:00:07Z</time>
      </trkpt>
      <trkpt lat="43.13648" lon="1.83894">
        <ele>396.9</ele>
        <time>2023-08-15T13:00:10Z</time>
      </trkpt>
      <trkpt lat="43.13631" lon="1.83867">
        <ele>396.1</ele>
        <time>2023-08-15T13:00:14Z</time>
      </trkpt>
      <trkpt lat="43.13607" lon="1.83849">
        <ele>395.3</ele>
        <time>2023-08-15T13:00:18Z</time>
      </trkpt>
      <trkpt lat="43.13588" lon="1.8384">
        <ele>394.9</ele>
        <time>2023-08-15T13:00:21Z</time>
      </trkpt>
      <trkpt lat="43.13563" lon="1.8383">
        <ele>394.7</ele>
        <time>2023-08-15T13:00:25Z</time>
      </trkpt>
      <trkpt lat="43.13545" lon="1.83823">
        <ele>394.7</ele>
        <time>2023-08-15T13:00:28Z</time>
      </trkpt>
      <trkpt lat="43.1352" lon="1.83814">
        <ele>394.4</ele>
        <time>2023-08-15T13:00:32Z</time>
      </trkpt>
      <trkpt lat="43.13501" lon="1.83806">
        <ele>394.3</ele>
        <time>2023-08-15T13:00:35Z</time>
      </trkpt>
      <trkpt lat="43.13475" lon="1.83796">
        <ele>394</ele>
        <time>2023-08-15T13:00:39Z</time>
      </trkpt>
      <trkpt lat="43.13449" lon="1.83784">
        <ele>393.4</ele>
        <time>2023-08-15T13:00:43Z</time>
      </trkpt>
      <trkpt lat="43.1343" lon="1.83778">
        <ele>393.6</ele>
        <time>2023-08-15T13:00:46Z</time>
      </trkpt>
      <trkpt lat="43.13412" lon="1.83772">
        <ele>393.6</ele>
        <time>2023-08-15T13:00:49Z</time>
      </trkpt>
      <trkpt lat="43.13388" lon="1.83761">
        <ele>393.6</ele>
        <time>2023-08-15T13:00:53Z</time>
      </trkpt>
      <trkpt lat="43.13363" lon="1.83749">
        <ele>394.3</ele>
        <time>2023-08-15T13:00:57Z</time>
      </trkpt>
      <trkpt lat="43.13337" lon="1.83737">
        <ele>394.5</ele>
        <time>2023-08-15T13:01:01Z</time>
      </trkpt>
      <trkpt lat="43.13317" lon="1.8373">
        <ele>394.1</ele>
        <time>2023-08-15T13:01:04Z</time>
      </trkpt>
      <trkpt lat="43.13291" lon="1.83719">
        <ele>392.6</ele>
        <time>2023-08-15T13:01:08Z</time>
      </trkpt>
      <trkpt lat="43.13266" lon="1.83709">
        <ele>391.7</ele>
        <time>2023-08-15T13:01:12Z</time>
      </trkpt>
      <trkpt lat="43.13247" lon="1.83702">
        <ele>391.5</ele>
        <time>2023-08-15T13:01:15Z</time>
      </trkpt>
      <trkpt lat="43.13227" lon="1.83694">
        <ele>390.9</ele>
        <time>2023-08-15T13:01:18Z</time>
      </trkpt>
      <trkpt lat="43.13201" lon="1.83685">
        <ele>390.4</ele>
        <time>2023-08-15T13:01:22Z</time>
      </trkpt>
      <trkpt lat="43.13181" lon="1.83677">
        <ele>389.7</ele>
        <time>2023-08-15T13:01:25Z</time>
      </trkpt>
      <trkpt lat="43.13157" lon="1.83666">
        <ele>389.6</ele>
        <time>2023-08-15T13:01:29Z</time>
      </trkpt>
      <trkpt lat="43.13132" lon="1.83655">
        <ele>389.9</ele>
        <time>2023-08-15T13:01:33Z</time>
      </trkpt>
      <trkpt lat="43.13113" lon="1.83648">
        <ele>388.6</ele>
        <time>2023-08-15T13:01:36Z</time>
      </trkpt>
      <trkpt lat="43.13095" lon="1.83639">
        <ele>388.8</ele>
        <time>2023-08-15T13:01:39Z</time>
      </trkpt>
      <trkpt lat="43.13071" lon="1.83628">
        <ele>388.8</ele>
        <time>2023-08-15T13:01:43Z</time>
      </trkpt>
      <trkpt lat="43.13051" lon="1.83621">
        <ele>388.9</ele>
        <time>2023-08-15T13:01:46Z</time>
      </trkpt>
      <trkpt lat="43.13026" lon="1.83608">
        <ele>389.5</ele>
        <time>2023-08-15T13:01:50Z</time>
      </trkpt>
      <trkpt lat="43.13004" lon="1.83587">
        <ele>389.2</ele>
        <time>2023-08-15T13:01:54Z</time>
      </trkpt>
      <trkpt lat="43.12993" lon="1.83566">
        <ele>389.9</ele>
        <time>2023-08-15T13:01:57Z</time>
      </trkpt>
      <trkpt lat="43.12976" lon="1.83539">
        <ele>391.3</ele>
        <time>2023-08-15T13:02:01Z</time>
      </trkpt>
      <trkpt lat="43.12957" lon="1.83516">
        <ele>391.3</ele>
        <time>2023-08-15T13:02:05Z</time>
      </trkpt>
      <trkpt lat="43.12941" lon="1.83501">
        <ele>392.1</ele>
        <time>2023-08-15T13:02:08Z</time>
      </trkpt>
      <trkpt lat="43.12924" lon="1.83485">
        <ele>392.8</ele>
        <time>2023-08-15T13:02:11Z</time>
      </trkpt>
      <trkpt lat="43.12902" lon="1.83466">
        <ele>393.6</ele>
        <time>2023-08-15T13:02:15Z</time>
      </trkpt>
      <trkpt lat="43.12882" lon="1.83462">
        <ele>395.2</ele>
        <time>2023-08-15T13:02:18Z</time>
      </trkpt>
      <trkpt lat="43.12859" lon="1.83479">
        <ele>397</ele>
        <time>2023-08-15T13:02:22Z</time>
      </trkpt>
      <trkpt lat="43.12848" lon="1.83503">
        <ele>397.7</ele>
        <time>2023-08-15T13:02:25Z</time>
      </trkpt>
      <trkpt lat="43.12841" lon="1.83539">
        <ele>400</ele>
        <time>2023-08-15T13:02:29Z</time>
      </trkpt>
      <trkpt lat="43.12838" lon="1.83566">
        <ele>400.7</ele>
        <time>2023-08-15T13:02:32Z</time>
      </trkpt>
      <trkpt lat="43.12834" lon="1.836">
        <ele>402.3</ele>
        <time>2023-08-15T13:02:36Z</time>
      </trkpt>
      <trkpt lat="43.1283" lon="1.83625">
        <ele>403.5</ele>
        <time>2023-08-15T13:02:39Z</time>
      </trkpt>
      <trkpt lat="43.12825" lon="1.83649">
        <ele>404.4</ele>
        <time>2023-08-15T13:02:42Z</time>
      </trkpt>
      <trkpt lat="43.12814" lon="1.8368">
        <ele>406.6</ele>
        <time>2023-08-15T13:02:46Z</time>
      </trkpt>
      <trkpt lat="43.12797" lon="1.83705">
        <ele>408.1</ele>
        <time>2023-08-15T13:02:50Z</time>
      </trkpt>
      <trkpt lat="43.12776" lon="1.83727">
        <ele>409.2</ele>
        <time>2023-08-15T13:02:54Z</time>
      </trkpt>
      <trkpt lat="43.12756" lon="1.83748">
        <ele>411.1</ele>
        <time>2023-08-15T13:02:58Z</time>
      </trkpt>
      <trkpt lat="43.12735" lon="1.8377">
        <ele>412.2</ele>
        <time>2023-08-15T13:03:02Z</time>
      </trkpt>
      <trkpt lat="43.12719" lon="1.83788">
        <ele>413.1</ele>
        <time>2023-08-15T13:03:05Z</time>
      </trkpt>
      <trkpt lat="43.12698" lon="1.8381">
        <ele>414.7</ele>
        <time>2023-08-15T13:03:09Z</time>
      </trkpt>
      <trkpt lat="43.12676" lon="1.83829">
        <ele>416.4</ele>
        <time>2023-08-15T13:03:13Z</time>
      </trkpt>
      <trkpt lat="43.12654" lon="1.83843">
        <ele>418.3</ele>
        <time>2023-08-15T13:03:17Z</time>
      </trkpt>
      <trkpt lat="43.12632" lon="1.83858">
        <ele>419</ele>
        <time>2023-08-15T13:03:21Z</time>
      </trkpt>
      <trkpt lat="43.12614" lon="1.83869">
        <ele>420</ele>
        <time>2023-08-15T13:03:24Z</time>
      </trkpt>
      <trkpt lat="43.12588" lon="1.8388">
        <ele>422.1</ele>
        <time>2023-08-15T13:03:28Z</time>
      </trkpt>
      <trkpt lat="43.1257" lon="1.83884">
        <ele>423.2</ele>
        <time>2023-08-15T13:03:31Z</time>
      </trkpt>
      <trkpt lat="43.12545" lon="1.8389">
        <ele>424.6</ele>
        <time>2023-08-15T13:03:35Z</time>
      </trkpt>
      <trkpt lat="43.12528" lon="1.83895">
        <ele>426</ele>
        <time>2023-08-15T13:03:38Z</time>
      </trkpt>
      <trkpt lat="43.12507" lon="1.83902">
        <ele>427.8</ele>
        <time>2023-08-15T13:03:42Z</time>
      </trkpt>
      <trkpt lat="43.12486" lon="1.8391">
        <ele>430.1</ele>
        <time>2023-08-15T13:03:46Z</time>
      </trkpt>
      <trkpt lat="43.1247" lon="1.83918">
        <ele>431.1</ele>
        <time>2023-08-15T13:03:49Z</time>
      </trkpt>
      <trkpt lat="43.12456" lon="1.83928">
        <ele>433.1</ele>
        <time>2023-08-15T13:03:52Z</time>
      </trkpt>
      <trkpt lat="43.12442" lon="1.8394">
        <ele>434.6</ele>
        <time>2023-08-15T13:03:55Z</time>
      </trkpt>
      <trkpt lat="43.12422" lon="1.83964">
        <ele>434.4</ele>
        <time>2023-08-15T13:03:59Z</time>
      </trkpt>
      <trkpt lat="43.12399" lon="1.83977">
        <ele>433.3</ele>
        <time>2023-08-15T13:04:02Z</time>
      </trkpt>
      <trkpt lat="43.12371" lon="1.83974">
        <ele>431.2</ele>
        <time>2023-08-15T13:04:06Z</time>
      </trkpt>
      <trkpt lat="43.12353" lon="1.83966">
        <ele>429.4</ele>
        <time>2023-08-15T13:04:09Z</time>
      </trkpt>
      <trkpt lat="43.12331" lon="1.83944">
        <ele>429.4</ele>
        <time>2023-08-15T13:04:13Z</time>
      </trkpt>
      <trkpt lat="43.12312" lon="1.83919">
        <ele>427</ele>
        <time>2023-08-15T13:04:17Z</time>
      </trkpt>
      <trkpt lat="43.12289" lon="1.83898">
        <ele>425</ele>
        <time>2023-08-15T13:04:21Z</time>
      </trkpt>
      <trkpt lat="43.12265" lon="1.83883">
        <ele>424.3</ele>
        <time>2023-08-15T13:04:25Z</time>
      </trkpt>
      <trkpt lat="43.1224" lon="1.83874">
        <ele>422.7</ele>
        <time>2023-08-15T13:04:29Z</time>
      </trkpt>
      <trkpt lat="43.12214" lon="1.83875">
        <ele>421.4</ele>
        <time>2023-08-15T13:04:33Z</time>
      </trkpt>
      <trkpt lat="43.12188" lon="1.83881">
        <ele>420.3</ele>
        <time>2023-08-15T13:04:37Z</time>
      </trkpt>
      <trkpt lat="43.12162" lon="1.83889">
        <ele>419.3</ele>
        <time>2023-08-15T13:04:41Z</time>
      </trkpt>
      <trkpt lat="43.12142" lon="1.83895">
        <ele>418.8</ele>
        <time>2023-08-15T13:04:44Z</time>
      </trkpt>
      <trkpt lat="43.12121" lon="1.83903">
        <ele>418.1</ele>
        <time>2023-08-15T13:04:47Z</time>
      </trkpt>
      <trkpt lat="43.12095" lon="1.83912">
        <ele>418.1</ele>
        <time>2023-08-15T13:04:51Z</time>
      </trkpt>
      <trkpt lat="43.12068" lon="1.8392">
        <ele>417.5</ele>
        <time>2023-08-15T13:04:55Z</time>
      </trkpt>
      <trkpt lat="43.12043" lon="1.8393">
        <ele>416</ele>
        <time>2023-08-15T13:04:59Z</time>
      </trkpt>
      <trkpt lat="43.12023" lon="1.83935">
        <ele>415.7</ele>
        <time>2023-08-15T13:05:02Z</time>
      </trkpt>
      <trkpt lat="43.11997" lon="1.83941">
        <ele>415</ele>
        <time>2023-08-15T13:05:06Z</time>
      </trkpt>
      <trkpt lat="43.11978" lon="1.83948">
        <ele>414.2</ele>
        <time>2023-08-15T13:05:09Z</time>
      </trkpt>
      <trkpt lat="43.11952" lon="1.83954">
        <ele>413.8</ele>
        <time>2023-08-15T13:05:13Z</time>
      </trkpt>
      <trkpt lat="43.11932" lon="1.83958">
        <ele>412.4</ele>
        <time>2023-08-15T13:05:16Z</time>
      </trkpt>
      <trkpt lat="43.11906" lon="1.83966">
        <ele>412.3</ele>
        <time>2023-08-15T13:05:20Z</time>
      </trkpt>
      <trkpt lat="43.11886" lon="1.83972">
        <ele>411.5</ele>
        <time>2023-08-15T13:05:23Z</time>
      </trkpt>
      <trkpt lat="43.11861" lon="1.83981">
        <ele>410.1</ele>
        <time>2023-08-15T13:05:27Z</time>
      </trkpt>
      <trkpt lat="43.11842" lon="1.8399">
        <ele>409.1</ele>
        <time>2023-08-15T13:05:30Z</time>
      </trkpt>
      <trkpt lat="43.11817" lon="1.84001">
        <ele>409.2</ele>
        <time>2023-08-15T13:05:34Z</time>
      </trkpt>
      <trkpt lat="43.11798" lon="1.84009">
        <ele>408.4</ele>
        <time>2023-08-15T13:05:37Z</time>
      </trkpt>
      <trkpt lat="43.11778" lon="1.84018">
        <ele>408.8</ele>
        <time>2023-08-15T13:05:40Z</time>
      </trkpt>
      <trkpt lat="43.11753" lon="1.84028">
        <ele>407.7</ele>
        <time>2023-08-15T13:05:44Z</time>
      </trkpt>
      <trkpt lat="43.11727" lon="1.84038">
        <ele>406.7</ele>
        <time>2023-08-15T13:05:48Z</time>
      </trkpt>
      <trkpt lat="43.11702" lon="1.84049">
        <ele>406.2</ele>
        <time>2023-08-15T13:05:52Z</time>
      </trkpt>
      <trkpt lat="43.11677" lon="1.8406">
        <ele>404.8</ele>
        <time>2023-08-15T13:05:56Z</time>
      </trkpt>
      <trkpt lat="43.1166" lon="1.84072">
        <ele>403.4</ele>
        <time>2023-08-15T13:05:59Z</time>
      </trkpt>
      <trkpt lat="43.11643" lon="1.84085">
        <ele>403.2</ele>
        <time>2023-08-15T13:06:02Z</time>
      </trkpt>
      <trkpt lat="43.11619" lon="1.84102">
        <ele>402.8</ele>
        <time>2023-08-15T13:06:06Z</time>
      </trkpt>
      <trkpt lat="43.11601" lon="1.84115">
        <ele>403.2</ele>
        <time>2023-08-15T13:06:09Z</time>
      </trkpt>
      <trkpt lat="43.11584" lon="1.84128">
        <ele>402.1</ele>
        <time>2023-08-15T13:06:12Z</time>
      </trkpt>
      <trkpt lat="43.1156" lon="1.84145">
        <ele>401.4</ele>
        <time>2023-08-15T13:06:16Z</time>
      </trkpt>
      <trkpt lat="43.11543" lon="1.84158">
        <ele>400.5</ele>
        <time>2023-08-15T13:06:19Z</time>
      </trkpt>
      <trkpt lat="43.11524" lon="1.84169">
        <ele>400.1</ele>
        <time>2023-08-15T13:06:22Z</time>
      </trkpt>
      <trkpt lat="43.11499" lon="1.84182">
        <ele>398.8</ele>
        <time>2023-08-15T13:06:26Z</time>
      </trkpt>
      <trkpt lat="43.11482" lon="1.84194">
        <ele>397.6</ele>
        <time>2023-08-15T13:06:29Z</time>
      </trkpt>
      <trkpt lat="43.11458" lon="1.84212">
        <ele>397.6</ele>
        <time>2023-08-15T13:06:33Z</time>
      </trkpt>
      <trkpt lat="43.11442" lon="1.84226">
        <ele>397.3</ele>
        <time>2023-08-15T13:06:36Z</time>
      </trkpt>
      <trkpt lat="43.11419" lon="1.84244">
        <ele>397.1</ele>
        <time>2023-08-15T13:06:40Z</time>
      </trkpt>
      <trkpt lat="43.11396" lon="1.84263">
        <ele>396.2</ele>
        <time>2023-08-15T13:06:44Z</time>
      </trkpt>
      <trkpt lat="43.11374" lon="1.8428">
        <ele>396</ele>
        <time>2023-08-15T13:06:48Z</time>
      </trkpt>
      <trkpt lat="43.11355" lon="1.8429">
        <ele>395.9</ele>
        <time>2023-08-15T13:06:51Z</time>
      </trkpt>
      <trkpt lat="43.11329" lon="1.84298">
        <ele>394.2</ele>
        <time>2023-08-15T13:06:55Z</time>
      </trkpt>
      <trkpt lat="43.11303" lon="1.84303">
        <ele>393.9</ele>
        <time>2023-08-15T13:06:59Z</time>
      </trkpt>
      <trkpt lat="43.11282" lon="1.84307">
        <ele>393.6</ele>
        <time>2023-08-15T13:07:02Z</time>
      </trkpt>
      <trkpt lat="43.11255" lon="1.84314">
        <ele>393.5</ele>
        <time>2023-08-15T13:07:06Z</time>
      </trkpt>
      <trkpt lat="43.11229" lon="1.84319">
        <ele>392.9</ele>
        <time>2023-08-15T13:07:10Z</time>
      </trkpt>
      <trkpt lat="43.11209" lon="1.84324">
        <ele>392.6</ele>
        <time>2023-08-15T13:07:13Z</time>
      </trkpt>
      <trkpt lat="43.11182" lon="1.84326">
        <ele>391.9</ele>
        <time>2023-08-15T13:07:17Z</time>
      </trkpt>
      <trkpt lat="43.11156" lon="1.84323">
        <ele>391.1</ele>
        <time>2023-08-15T13:07:21Z</time>
      </trkpt>
      <trkpt lat="43.11137" lon="1.84317">
        <ele>389.5</ele>
        <time>2023-08-15T13:07:24Z</time>
      </trkpt>
      <trkpt lat="43.11118" lon="1.84311">
        <ele>389.4</ele>
        <time>2023-08-15T13:07:27Z</time>
      </trkpt>
      <trkpt lat="43.11091" lon="1.84305">
        <ele>388.9</ele>
        <time>2023-08-15T13:07:31Z</time>
      </trkpt>
      <trkpt lat="43.11072" lon="1.843">
        <ele>388.1</ele>
        <time>2023-08-15T13:07:34Z</time>
      </trkpt>
      <trkpt lat="43.11045" lon="1.84293">
        <ele>388.3</ele>
        <time>2023-08-15T13:07:38Z</time>
      </trkpt>
      <trkpt lat="43.11026" lon="1.84287">
        <ele>388.3</ele>
        <time>2023-08-15T13:07:41Z</time>
      </trkpt>
      <trkpt lat="43.11006" lon="1.84281">
        <ele>387.8</ele>
        <time>2023-08-15T13:07:44Z</time>
      </trkpt>
      <trkpt lat="43.10981" lon="1.84271">
        <ele>387.2</ele>
        <time>2023-08-15T13:07:48Z</time>
      </trkpt>
      <trkpt lat="43.10956" lon="1.84263">
        <ele>386.4</ele>
        <time>2023-08-15T13:07:52Z</time>
      </trkpt>
      <trkpt lat="43.1093" lon="1.8426">
        <ele>385</ele>
        <time>2023-08-15T13:07:56Z</time>
      </trkpt>
      <trkpt lat="43.10904" lon="1.84264">
        <ele>384.3</ele>
        <time>2023-08-15T13:08:00Z</time>
      </trkpt>
      <trkpt lat="43.10884" lon="1.84267">
        <ele>383.7</ele>
        <time>2023-08-15T13:08:03Z</time>
      </trkpt>
      <trkpt lat="43.10857" lon="1.84269">
        <ele>383.6</ele>
        <time>2023-08-15T13:08:07Z</time>
      </trkpt>
      <trkpt lat="43.10837" lon="1.84268">
        <ele>382.9</ele>
        <time>2023-08-15T13:08:10Z</time>
      </trkpt>
      <trkpt lat="43.10811" lon="1.84261">
        <ele>382.5</ele>
        <time>2023-08-15T13:08:14Z</time>
      </trkpt>
      <trkpt lat="43.10786" lon="1.84249">
        <ele>382.3</ele>
        <time>2023-08-15T13:08:18Z</time>
      </trkpt>
      <trkpt lat="43.10762" lon="1.84237">
        <ele>381.2</ele>
        <time>2023-08-15T13:08:22Z</time>
      </trkpt>
      <trkpt lat="43.10739" lon="1.84225">
        <ele>380.9</ele>
        <time>2023-08-15T13:08:26Z</time>
      </trkpt>
      <trkpt lat="43.10721" lon="1.84217">
        <ele>380.7</ele>
        <time>2023-08-15T13:08:29Z</time>
      </trkpt>
      <trkpt lat="43.10703" lon="1.84208">
        <ele>380.7</ele>
        <time>2023-08-15T13:08:32Z</time>
      </trkpt>
      <trkpt lat="43.1068" lon="1.84197">
        <ele>380.6</ele>
        <time>2023-08-15T13:08:36Z</time>
      </trkpt>
      <trkpt lat="43.10657" lon="1.84189">
        <ele>379.8</ele>
        <time>2023-08-15T13:08:40Z</time>
      </trkpt>
      <trkpt lat="43.10639" lon="1.84187">
        <ele>379.7</ele>
        <time>2023-08-15T13:08:43Z</time>
      </trkpt>
      <trkpt lat="43.10615" lon="1.84188">
        <ele>378.8</ele>
        <time>2023-08-15T13:08:47Z</time>
      </trkpt>
      <trkpt lat="43.10598" lon="1.84191">
        <ele>377.9</ele>
        <time>2023-08-15T13:08:50Z</time>
      </trkpt>
      <trkpt lat="43.10573" lon="1.84194">
        <ele>376.8</ele>
        <time>2023-08-15T13:08:54Z</time>
      </trkpt>
      <trkpt lat="43.10553" lon="1.84196">
        <ele>376</ele>
        <time>2023-08-15T13:08:57Z</time>
      </trkpt>
      <trkpt lat="43.10524" lon="1.84198">
        <ele>375.9</ele>
        <time>2023-08-15T13:09:01Z</time>
      </trkpt>
      <trkpt lat="43.10505" lon="1.84202">
        <ele>375.8</ele>
        <time>2023-08-15T13:09:04Z</time>
      </trkpt>
      <trkpt lat="43.10479" lon="1.84206">
        <ele>375.1</ele>
        <time>2023-08-15T13:09:08Z</time>
      </trkpt>
      <trkpt lat="43.10452" lon="1.84211">
        <ele>374.6</ele>
        <time>2023-08-15T13:09:12Z</time>
      </trkpt>
      <trkpt lat="43.10433" lon="1.84216">
        <ele>373.7</ele>
        <time>2023-08-15T13:09:15Z</time>
      </trkpt>
      <trkpt lat="43.10414" lon="1.84222">
        <ele>372.9</ele>
        <time>2023-08-15T13:09:18Z</time>
      </trkpt>
      <trkpt lat="43.10388" lon="1.84235">
        <ele>371.4</ele>
        <time>2023-08-15T13:09:22Z</time>
      </trkpt>
      <trkpt lat="43.10364" lon="1.8425">
        <ele>371.2</ele>
        <time>2023-08-15T13:09:26Z</time>
      </trkpt>
      <trkpt lat="43.10345" lon="1.84259">
        <ele>370.5</ele>
        <time>2023-08-15T13:09:29Z</time>
      </trkpt>
      <trkpt lat="43.10326" lon="1.84266">
        <ele>371</ele>
        <time>2023-08-15T13:09:32Z</time>
      </trkpt>
      <trkpt lat="43.10299" lon="1.84273">
        <ele>370</ele>
        <time>2023-08-15T13:09:36Z</time>
      </trkpt>
      <trkpt lat="43.1028" lon="1.84278">
        <ele>369.4</ele>
        <time>2023-08-15T13:09:39Z</time>
      </trkpt>
      <trkpt lat="43.10255" lon="1.84284">
        <ele>369.3</ele>
        <time>2023-08-15T13:09:43Z</time>
      </trkpt>
      <trkpt lat="43.10235" lon="1.84288">
        <ele>368.8</ele>
        <time>2023-08-15T13:09:46Z</time>
      </trkpt>
      <trkpt lat="43.10216" lon="1.84292">
        <ele>367.9</ele>
        <time>2023-08-15T13:09:49Z</time>
      </trkpt>
      <trkpt lat="43.1019" lon="1.84297">
        <ele>367.5</ele>
        <time>2023-08-15T13:09:53Z</time>
      </trkpt>
      <trkpt lat="43.10165" lon="1.84304">
        <ele>367.2</ele>
        <time>2023-08-15T13:09:57Z</time>
      </trkpt>
      <trkpt lat="43.10146" lon="1.84309">
        <ele>367.3</ele>
        <time>2023-08-15T13:10:00Z</time>
      </trkpt>
      <trkpt lat="43.10126" lon="1.84312">
        <ele>367.1</ele>
        <time>2023-08-15T13:10:03Z</time>
      </trkpt>
      <trkpt lat="43.10102" lon="1.84316">
        <ele>365.8</ele>
        <time>2023-08-15T13:10:07Z</time>
      </trkpt>
      <trkpt lat="43.10084" lon="1.8432">
        <ele>366</ele>
        <time>2023-08-15T13:10:10Z</time>
      </trkpt>
      <trkpt lat="43.10057" lon="1.8433">
        <ele>366.7</ele>
        <time>2023-08-15T13:10:14Z</time>
      </trkpt>
      <trkpt lat="43.10037" lon="1.84341">
        <ele>364</ele>
        <time>2023-08-15T13:10:17Z</time>
      </trkpt>
      <trkpt lat="43.10014" lon="1.84355">
        <ele>363.3</ele>
        <time>2023-08-15T13:10:21Z</time>
      </trkpt>
      <trkpt lat="43.09996" lon="1.84369">
        <ele>363.3</ele>
        <time>2023-08-15T13:10:24Z</time>
      </trkpt>
      <trkpt lat="43.09972" lon="1.84388">
        <ele>362.6</ele>
        <time>2023-08-15T13:10:28Z</time>
      </trkpt>
      <trkpt lat="43.09955" lon="1.84401">
        <ele>362.8</ele>
        <time>2023-08-15T13:10:31Z</time>
      </trkpt>
      <trkpt lat="43.09937" lon="1.84415">
        <ele>361.3</ele>
        <time>2023-08-15T13:10:34Z</time>
      </trkpt>
      <trkpt lat="43.09913" lon="1.84432">
        <ele>359.9</ele>
        <time>2023-08-15T13:10:38Z</time>
      </trkpt>
      <trkpt lat="43.09896" lon="1.84445">
        <ele>360.4</ele>
        <time>2023-08-15T13:10:41Z</time>
      </trkpt>
      <trkpt lat="43.09872" lon="1.84462">
        <ele>358.3</ele>
        <time>2023-08-15T13:10:45Z</time>
      </trkpt>
      <trkpt lat="43.09848" lon="1.84478">
        <ele>357.6</ele>
        <time>2023-08-15T13:10:49Z</time>
      </trkpt>
      <trkpt lat="43.09826" lon="1.84496">
        <ele>356.4</ele>
        <time>2023-08-15T13:10:53Z</time>
      </trkpt>
      <trkpt lat="43.09804" lon="1.84514">
        <ele>356.2</ele>
        <time>2023-08-15T13:10:57Z</time>
      </trkpt>
      <trkpt lat="43.09781" lon="1.84532">
        <ele>355.5</ele>
        <time>2023-08-15T13:11:01Z</time>
      </trkpt>
      <trkpt lat="43.09758" lon="1.84549">
        <ele>353.9</ele>
        <time>2023-08-15T13:11:05Z</time>
      </trkpt>
      <trkpt lat="43.09735" lon="1.84565">
        <ele>353.9</ele>
        <time>2023-08-15T13:11:09Z</time>
      </trkpt>
      <trkpt lat="43.09709" lon="1.84576">
        <ele>352.9</ele>
        <time>2023-08-15T13:11:13Z</time>
      </trkpt>
      <trkpt lat="43.09681" lon="1.84582">
        <ele>351.7</ele>
        <time>2023-08-15T13:11:17Z</time>
      </trkpt>
      <trkpt lat="43.09654" lon="1.84589">
        <ele>351.2</ele>
        <time>2023-08-15T13:11:21Z</time>
      </trkpt>
      <trkpt lat="43.09634" lon="1.84595">
        <ele>351</ele>
        <time>2023-08-15T13:11:24Z</time>
      </trkpt>
      <trkpt lat="43.09616" lon="1.846">
        <ele>351.9</ele>
        <time>2023-08-15T13:11:27Z</time>
      </trkpt>
      <trkpt lat="43.0959" lon="1.84606">
        <ele>351.3</ele>
        <time>2023-08-15T13:11:31Z</time>
      </trkpt>
      <trkpt lat="43.09564" lon="1.84608">
        <ele>350.2</ele>
        <time>2023-08-15T13:11:35Z</time>
      </trkpt>
      <trkpt lat="43.09539" lon="1.84605">
        <ele>350.7</ele>
        <time>2023-08-15T13:11:39Z</time>
      </trkpt>
      <trkpt lat="43.09513" lon="1.846">
        <ele>349</ele>
        <time>2023-08-15T13:11:43Z</time>
      </trkpt>
      <trkpt lat="43.09495" lon="1.846">
        <ele>348.1</ele>
        <time>2023-08-15T13:11:46Z</time>
      </trkpt>
      <trkpt lat="43.09481" lon="1.84628">
        <ele>348.3</ele>
        <time>2023-08-15T13:11:50Z</time>
      </trkpt>
      <trkpt lat="43.09479" lon="1.84658">
        <ele>348.5</ele>
        <time>2023-08-15T13:11:53Z</time>
      </trkpt>
      <trkpt lat="43.09476" lon="1.84686">
        <ele>348.8</ele>
        <time>2023-08-15T13:11:56Z</time>
      </trkpt>
      <trkpt lat="43.09472" lon="1.84724">
        <ele>347.9</ele>
        <time>2023-08-15T13:12:00Z</time>
      </trkpt>
      <trkpt lat="43.09468" lon="1.8475">
        <ele>347</ele>
        <time>2023-08-15T13:12:03Z</time>
      </trkpt>
      <trkpt lat="43.09465" lon="1.84784">
        <ele>346.8</ele>
        <time>2023-08-15T13:12:07Z</time>
      </trkpt>
      <trkpt lat="43.09464" lon="1.8481">
        <ele>346.7</ele>
        <time>2023-08-15T13:12:10Z</time>
      </trkpt>
      <trkpt lat="43.09465" lon="1.84845">
        <ele>345.4</ele>
        <time>2023-08-15T13:12:14Z</time>
      </trkpt>
      <trkpt lat="43.09466" lon="1.84878">
        <ele>345.8</ele>
        <time>2023-08-15T13:12:18Z</time>
      </trkpt>
      <trkpt lat="43.09467" lon="1.84904">
        <ele>346.1</ele>
        <time>2023-08-15T13:12:21Z</time>
      </trkpt>
      <trkpt lat="43.09467" lon="1.84935">
        <ele>346.4</ele>
        <time>2023-08-15T13:12:24Z</time>
      </trkpt>
      <trkpt lat="43.09468" lon="1.84974">
        <ele>346.5</ele>
        <time>2023-08-15T13:12:28Z</time>
      </trkpt>
      <trkpt lat="43.09469" lon="1.85008">
        <ele>345.8</ele>
        <time>2023-08-15T13:12:32Z</time>
      </trkpt>
      <trkpt lat="43.09469" lon="1.85035">
        <ele>344.7</ele>
        <time>2023-08-15T13:12:35Z</time>
      </trkpt>
      <trkpt lat="43.0947" lon="1.85063">
        <ele>345.1</ele>
        <time>2023-08-15T13:12:38Z</time>
      </trkpt>
      <trkpt lat="43.0947" lon="1.85099">
        <ele>345.2</ele>
        <time>2023-08-15T13:12:42Z</time>
      </trkpt>
      <trkpt lat="43.09471" lon="1.85135">
        <ele>345.6</ele>
        <time>2023-08-15T13:12:46Z</time>
      </trkpt>
      <trkpt lat="43.09471" lon="1.85171">
        <ele>347.2</ele>
        <time>2023-08-15T13:12:50Z</time>
      </trkpt>
      <trkpt lat="43.09472" lon="1.85208">
        <ele>347.8</ele>
        <time>2023-08-15T13:12:54Z</time>
      </trkpt>
      <trkpt lat="43.09474" lon="1.85245">
        <ele>346</ele>
        <time>2023-08-15T13:12:58Z</time>
      </trkpt>
      <trkpt lat="43.09475" lon="1.85281">
        <ele>346.4</ele>
        <time>2023-08-15T13:13:02Z</time>
      </trkpt>
      <trkpt lat="43.09475" lon="1.85307">
        <ele>346.2</ele>
        <time>2023-08-15T13:13:05Z</time>
      </trkpt>
      <trkpt lat="43.09475" lon="1.85333">
        <ele>345.6</ele>
        <time>2023-08-15T13:13:08Z</time>
      </trkpt>
      <trkpt lat="43.09475" lon="1.8537">
        <ele>346</ele>
        <time>2023-08-15T13:13:12Z</time>
      </trkpt>
      <trkpt lat="43.09476" lon="1.85396">
        <ele>346.2</ele>
        <time>2023-08-15T13:13:15Z</time>
      </trkpt>
      <trkpt lat="43.09477" lon="1.85432">
        <ele>345.5</ele>
        <time>2023-08-15T13:13:19Z</time>
      </trkpt>
      <trkpt lat="43.09478" lon="1.8546">
        <ele>346.6</ele>
        <time>2023-08-15T13:13:22Z</time>
      </trkpt>
      <trkpt lat="43.09479" lon="1.85496">
        <ele>346.7</ele>
        <time>2023-08-15T13:13:26Z</time>
      </trkpt>
      <trkpt lat="43.0948" lon="1.85533">
        <ele>346.4</ele>
        <time>2023-08-15T13:13:30Z</time>
      </trkpt>
      <trkpt lat="43.09481" lon="1.8556">
        <ele>345</ele>
        <time>2023-08-15T13:13:33Z</time>
      </trkpt>
      <trkpt lat="43.09482" lon="1.85596">
        <ele>345</ele>
        <time>2023-08-15T13:13:37Z</time>
      </trkpt>
      <trkpt lat="43.09482" lon="1.85624">
        <ele>345.3</ele>
        <time>2023-08-15T13:13:40Z</time>
      </trkpt>
      <trkpt lat="43.09483" lon="1.85651">
        <ele>346.3</ele>
        <time>2023-08-15T13:13:43Z</time>
      </trkpt>
      <trkpt lat="43.09484" lon="1.85686">
        <ele>346.9</ele>
        <time>2023-08-15T13:13:47Z</time>
      </trkpt>
      <trkpt lat="43.09484" lon="1.85722">
        <ele>346.5</ele>
        <time>2023-08-15T13:13:51Z</time>
      </trkpt>
      <trkpt lat="43.09485" lon="1.8575">
        <ele>346.7</ele>
        <time>2023-08-15T13:13:54Z</time>
      </trkpt>
      <trkpt lat="43.09486" lon="1.85786">
        <ele>346.7</ele>
        <time>2023-08-15T13:13:58Z</time>
      </trkpt>
      <trkpt lat="43.09486" lon="1.85823">
        <ele>345.2</ele>
        <time>2023-08-15T13:14:02Z</time>
      </trkpt>
      <trkpt lat="43.09487" lon="1.85859">
        <ele>345.5</ele>
        <time>2023-08-15T13:14:06Z</time>
      </trkpt>
      <trkpt lat="43.09487" lon="1.85886">
        <ele>345.5</ele>
        <time>2023-08-15T13:14:09Z</time>
      </trkpt>
      <trkpt lat="43.09488" lon="1.85922">
        <ele>346.6</ele>
        <time>2023-08-15T13:14:13Z</time>
      </trkpt>
      <trkpt lat="43.09489" lon="1.85949">
        <ele>347.2</ele>
        <time>2023-08-15T13:14:16Z</time>
      </trkpt>
      <trkpt lat="43.0949" lon="1.85984">
        <ele>347.4</ele>
        <time>2023-08-15T13:14:20Z</time>
      </trkpt>
      <trkpt lat="43.09491" lon="1.86021">
        <ele>347.3</ele>
        <time>2023-08-15T13:14:24Z</time>
      </trkpt>
      <trkpt lat="43.09492" lon="1.86057">
        <ele>346.8</ele>
        <time>2023-08-15T13:14:28Z</time>
      </trkpt>
      <trkpt lat="43.09492" lon="1.86092">
        <ele>346.2</ele>
        <time>2023-08-15T13:14:32Z</time>
      </trkpt>
      <trkpt lat="43.09493" lon="1.86129">
        <ele>347.5</ele>
        <time>2023-08-15T13:14:36Z</time>
      </trkpt>
      <trkpt lat="43.09494" lon="1.86164">
        <ele>348.2</ele>
        <time>2023-08-15T13:14:40Z</time>
      </trkpt>
      <trkpt lat="43.09494" lon="1.862">
        <ele>349.4</ele>
        <time>2023-08-15T13:14:44Z</time>
      </trkpt>
      <trkpt lat="43.09495" lon="1.86229">
        <ele>350.1</ele>
        <time>2023-08-15T13:14:47Z</time>
      </trkpt>
      <trkpt lat="43.09499" lon="1.86256">
        <ele>349.1</ele>
        <time>2023-08-15T13:14:50Z</time>
      </trkpt>
      <trkpt lat="43.09505" lon="1.8629">
        <ele>349.9</ele>
        <time>2023-08-15T13:14:54Z</time>
      </trkpt>
      <trkpt lat="43.09514" lon="1.86325">
        <ele>349.1</ele>
        <time>2023-08-15T13:14:58Z</time>
      </trkpt>
      <trkpt lat="43.09522" lon="1.86359">
        <ele>348.8</ele>
        <time>2023-08-15T13:15:02Z</time>
      </trkpt>
      <trkpt lat="43.09529" lon="1.86385">
        <ele>348.9</ele>
        <time>2023-08-15T13:15:05Z</time>
      </trkpt>
      <trkpt lat="43.09534" lon="1.86411">
        <ele>348.6</ele>
        <time>2023-08-15T13:15:08Z</time>
      </trkpt>
      <trkpt lat="43.09542" lon="1.86445">
        <ele>349</ele>
        <time>2023-08-15T13:15:12Z</time>
      </trkpt>
      <trkpt lat="43.0955" lon="1.86479">
        <ele>348.2</ele>
        <time>2023-08-15T13:15:16Z</time>
      </trkpt>
      <trkpt lat="43.09558" lon="1.86514">
        <ele>348.4</ele>
        <time>2023-08-15T13:15:20Z</time>
      </trkpt>
      <trkpt lat="43.09565" lon="1.86548">
        <ele>349.1</ele>
        <time>2023-08-15T13:15:24Z</time>
      </trkpt>
      <trkpt lat="43.09572" lon="1.86582">
        <ele>347.8</ele>
        <time>2023-08-15T13:15:28Z</time>
      </trkpt>
      <trkpt lat="43.09578" lon="1.86608">
        <ele>347.8</ele>
        <time>2023-08-15T13:15:31Z</time>
      </trkpt>
      <trkpt lat="43.09584" lon="1.86634">
        <ele>347.6</ele>
        <time>2023-08-15T13:15:34Z</time>
      </trkpt>
      <trkpt lat="43.09589" lon="1.8666">
        <ele>348.3</ele>
        <time>2023-08-15T13:15:37Z</time>
      </trkpt>
      <trkpt lat="43.09598" lon="1.86695">
        <ele>348</ele>
        <time>2023-08-15T13:15:41Z</time>
      </trkpt>
      <trkpt lat="43.09606" lon="1.8673">
        <ele>348.1</ele>
        <time>2023-08-15T13:15:45Z</time>
      </trkpt>
      <trkpt lat="43.09612" lon="1.86756">
        <ele>348.3</ele>
        <time>2023-08-15T13:15:48Z</time>
      </trkpt>
      <trkpt lat="43.09618" lon="1.86782">
        <ele>348.1</ele>
        <time>2023-08-15T13:15:51Z</time>
      </trkpt>
      <trkpt lat="43.09626" lon="1.86816">
        <ele>348.2</ele>
        <time>2023-08-15T13:15:55Z</time>
      </trkpt>
      <trkpt lat="43.09634" lon="1.86851">
        <ele>348.1</ele>
        <time>2023-08-15T13:15:59Z</time>
      </trkpt>
      <trkpt lat="43.09641" lon="1.86885">
        <ele>348.3</ele>
        <time>2023-08-15T13:16:03Z</time>
      </trkpt>
      <trkpt lat="43.09648" lon="1.86911">
        <ele>349.2</ele>
        <time>2023-08-15T13:16:06Z</time>
      </trkpt>
      <trkpt lat="43.09656" lon="1.86945">
        <ele>348.4</ele>
        <time>2023-08-15T13:16:10Z</time>
      </trkpt>
      <trkpt lat="43.09664" lon="1.8698">
        <ele>349.1</ele>
        <time>2023-08-15T13:16:14Z</time>
      </trkpt>
      <trkpt lat="43.09669" lon="1.87006">
        <ele>349.5</ele>
        <time>2023-08-15T13:16:17Z</time>
      </trkpt>
      <trkpt lat="43.09673" lon="1.87042">
        <ele>349.1</ele>
        <time>2023-08-15T13:16:21Z</time>
      </trkpt>
      <trkpt lat="43.09672" lon="1.8707">
        <ele>349.3</ele>
        <time>2023-08-15T13:16:24Z</time>
      </trkpt>
      <trkpt lat="43.0967" lon="1.87097">
        <ele>348.7</ele>
        <time>2023-08-15T13:16:27Z</time>
      </trkpt>
      <trkpt lat="43.09668" lon="1.87134">
        <ele>349</ele>
        <time>2023-08-15T13:16:31Z</time>
      </trkpt>
      <trkpt lat="43.09666" lon="1.87169">
        <ele>349.3</ele>
        <time>2023-08-15T13:16:35Z</time>
      </trkpt>
      <trkpt lat="43.09664" lon="1.87196">
        <ele>348.3</ele>
        <time>2023-08-15T13:16:38Z</time>
      </trkpt>
      <trkpt lat="43.09662" lon="1.87232">
        <ele>349.2</ele>
        <time>2023-08-15T13:16:42Z</time>
      </trkpt>
      <trkpt lat="43.09659" lon="1.87267">
        <ele>349.2</ele>
        <time>2023-08-15T13:16:46Z</time>
      </trkpt>
      <trkpt lat="43.09656" lon="1.87303">
        <ele>349.1</ele>
        <time>2023-08-15T13:16:50Z</time>
      </trkpt>
      <trkpt lat="43.09655" lon="1.8733">
        <ele>349.9</ele>
        <time>2023-08-15T13:16:53Z</time>
      </trkpt>
      <trkpt lat="43.09653" lon="1.87357">
        <ele>350</ele>
        <time>2023-08-15T13:16:56Z</time>
      </trkpt>
      <trkpt lat="43.09652" lon="1.87384">
        <ele>350.8</ele>
        <time>2023-08-15T13:16:59Z</time>
      </trkpt>
      <trkpt lat="43.09651" lon="1.87411">
        <ele>350.9</ele>
        <time>2023-08-15T13:17:02Z</time>
      </trkpt>
      <trkpt lat="43.09649" lon="1.87447">
        <ele>350.6</ele>
        <time>2023-08-15T13:17:06Z</time>
      </trkpt>
      <trkpt lat="43.09647" lon="1.87474">
        <ele>350.7</ele>
        <time>2023-08-15T13:17:09Z</time>
      </trkpt>
      <trkpt lat="43.09645" lon="1.87501">
        <ele>351.1</ele>
        <time>2023-08-15T13:17:12Z</time>
      </trkpt>
      <trkpt lat="43.09641" lon="1.87537">
        <ele>350.7</ele>
        <time>2023-08-15T13:17:16Z</time>
      </trkpt>
      <trkpt lat="43.0964" lon="1.87564">
        <ele>351.3</ele>
        <time>2023-08-15T13:17:19Z</time>
      </trkpt>
      <trkpt lat="43.09637" lon="1.87597">
        <ele>352.6</ele>
        <time>2023-08-15T13:17:23Z</time>
      </trkpt>
      <trkpt lat="43.09627" lon="1.87614">
        <ele>352.8</ele>
        <time>2023-08-15T13:17:26Z</time>
      </trkpt>
      <trkpt lat="43.09607" lon="1.87624">
        <ele>352.9</ele>
        <time>2023-08-15T13:17:30Z</time>
      </trkpt>
      <trkpt lat="43.09586" lon="1.87622">
        <ele>353.5</ele>
        <time>2023-08-15T13:17:33Z</time>
      </trkpt>
      <trkpt lat="43.09565" lon="1.87621">
        <ele>353.2</ele>
        <time>2023-08-15T13:17:36Z</time>
      </trkpt>
      <trkpt lat="43.09538" lon="1.8762">
        <ele>353.5</ele>
        <time>2023-08-15T13:17:40Z</time>
      </trkpt>
      <trkpt lat="43.09519" lon="1.87619">
        <ele>353.7</ele>
        <time>2023-08-15T13:17:43Z</time>
      </trkpt>
      <trkpt lat="43.09499" lon="1.87619">
        <ele>354.1</ele>
        <time>2023-08-15T13:17:46Z</time>
      </trkpt>
      <trkpt lat="43.09472" lon="1.8762">
        <ele>354.6</ele>
        <time>2023-08-15T13:17:50Z</time>
      </trkpt>
      <trkpt lat="43.09445" lon="1.87619">
        <ele>354.9</ele>
        <time>2023-08-15T13:17:54Z</time>
      </trkpt>
      <trkpt lat="43.09425" lon="1.87619">
        <ele>355.5</ele>
        <time>2023-08-15T13:17:57Z</time>
      </trkpt>
      <trkpt lat="43.09398" lon="1.87619">
        <ele>355.2</ele>
        <time>2023-08-15T13:18:01Z</time>
      </trkpt>
      <trkpt lat="43.09371" lon="1.87619">
        <ele>354.3</ele>
        <time>2023-08-15T13:18:05Z</time>
      </trkpt>
      <trkpt lat="43.09351" lon="1.87619">
        <ele>354.6</ele>
        <time>2023-08-15T13:18:08Z</time>
      </trkpt>
      <trkpt lat="43.09325" lon="1.87618">
        <ele>353.7</ele>
        <time>2023-08-15T13:18:12Z</time>
      </trkpt>
      <trkpt lat="43.09298" lon="1.87618">
        <ele>354.5</ele>
        <time>2023-08-15T13:18:16Z</time>
      </trkpt>
      <trkpt lat="43.09272" lon="1.87618">
        <ele>354.1</ele>
        <time>2023-08-15T13:18:20Z</time>
      </trkpt>
      <trkpt lat="43.09252" lon="1.87617">
        <ele>354.8</ele>
        <time>2023-08-15T13:18:23Z</time>
      </trkpt>
      <trkpt lat="43.09226" lon="1.87616">
        <ele>355</ele>
        <time>2023-08-15T13:18:27Z</time>
      </trkpt>
      <trkpt lat="43.09206" lon="1.87616">
        <ele>355.1</ele>
        <time>2023-08-15T13:18:30Z</time>
      </trkpt>
      <trkpt lat="43.0918" lon="1.87616">
        <ele>354.9</ele>
        <time>2023-08-15T13:18:34Z</time>
      </trkpt>
      <trkpt lat="43.09161" lon="1.87615">
        <ele>355.3</ele>
        <time>2023-08-15T13:18:37Z</time>
      </trkpt>
      <trkpt lat="43.09138" lon="1.87615">
        <ele>354.4</ele>
        <time>2023-08-15T13:18:41Z</time>
      </trkpt>
      <trkpt lat="43.09113" lon="1.87616">
        <ele>354.5</ele>
        <time>2023-08-15T13:18:45Z</time>
      </trkpt>
      <trkpt lat="43.09088" lon="1.87616">
        <ele>355.1</ele>
        <time>2023-08-15T13:18:49Z</time>
      </trkpt>
      <trkpt lat="43.09071" lon="1.87618">
        <ele>355.5</ele>
        <time>2023-08-15T13:18:52Z</time>
      </trkpt>
      <trkpt lat="43.0906" lon="1.87618">
        <ele>355.6</ele>
        <time>2023-08-15T13:18:55Z</time>
      </trkpt>
      <trkpt lat="43.09044" lon="1.87618">
        <ele>355.7</ele>
        <time>2023-08-15T13:18:59Z</time>
      </trkpt>
      <trkpt lat="43.09035" lon="1.87619">
        <ele>354.9</ele>
        <time>2023-08-15T13:19:02Z</time>
      </trkpt>
      <trkpt lat="43.0902" lon="1.87619">
        <ele>354.9</ele>
        <time>2023-08-15T13:19:06Z</time>
      </trkpt>
      <trkpt lat="43.0901" lon="1.8762">
        <ele>354.9</ele>
        <time>2023-08-15T13:19:09Z</time>
      </trkpt>
      <trkpt lat="43.08998" lon="1.87619">
        <ele>354.9</ele>
        <time>2023-08-15T13:19:12Z</time>
      </trkpt>
      <trkpt lat="43.08982" lon="1.8762">
        <ele>354.9</ele>
        <time>2023-08-15T13:19:15Z</time>
      </trkpt>
      <trkpt lat="43.0896" lon="1.87619">
        <ele>354.9</ele>
        <time>2023-08-15T13:19:19Z</time>
      </trkpt>
      <trkpt lat="43.08941" lon="1.87616">
        <ele>354.9</ele>
        <time>2023-08-15T13:19:23Z</time>
      </trkpt>
      <trkpt lat="43.08923" lon="1.87612">
        <ele>354.9</ele>
        <time>2023-08-15T13:19:27Z</time>
      </trkpt>
      <trkpt lat="43.08913" lon="1.87613">
        <ele>354.9</ele>
        <time>2023-08-15T13:19:30Z</time>
      </trkpt>
      <trkpt lat="43.08906" lon="1.87608">
        <ele>354.9</ele>
        <time>2023-08-15T13:19:34Z</time>
      </trkpt>
      <trkpt lat="43.08907" lon="1.87585">
        <ele>356.5</ele>
        <time>2023-08-15T13:19:38Z</time>
      </trkpt>
      <trkpt lat="43.0891" lon="1.87566">
        <ele>356.5</ele>
        <time>2023-08-15T13:19:42Z</time>
      </trkpt>
      <trkpt lat="43.08913" lon="1.87555">
        <ele>356.5</ele>
        <time>2023-08-15T13:19:46Z</time>
      </trkpt>
      <trkpt lat="43.08913" lon="1.87539">
        <ele>356.5</ele>
        <time>2023-08-15T13:19:50Z</time>
      </trkpt>
      <trkpt lat="43.08913" lon="1.87518">
        <ele>356.5</ele>
        <time>2023-08-15T13:19:54Z</time>
      </trkpt>
      <trkpt lat="43.08913" lon="1.87503">
        <ele>356.5</ele>
        <time>2023-08-15T13:19:57Z</time>
      </trkpt>
      <trkpt lat="43.08913" lon="1.87481">
        <ele>356.5</ele>
        <time>2023-08-15T13:20:01Z</time>
      </trkpt>
      <trkpt lat="43.08914" lon="1.87453">
        <ele>356.5</ele>
        <time>2023-08-15T13:20:05Z</time>
      </trkpt>
      <trkpt lat="43.08915" lon="1.87425">
        <ele>356.5</ele>
        <time>2023-08-15T13:20:09Z</time>
      </trkpt>
      <trkpt lat="43.08915" lon="1.87398">
        <ele>356.5</ele>
        <time>2023-08-15T13:20:13Z</time>
      </trkpt>
      <trkpt lat="43.08914" lon="1.87375">
        <ele>356.5</ele>
        <time>2023-08-15T13:20:17Z</time>
      </trkpt>
      <trkpt lat="43.08914" lon="1.87361">
        <ele>356.5</ele>
        <time>2023-08-15T13:20:20Z</time>
      </trkpt>
      <trkpt lat="43.08913" lon="1.87351">
        <ele>356.5</ele>
        <time>2023-08-15T13:20:23Z</time>
      </trkpt>
      <trkpt lat="43.08913" lon="1.87332">
        <ele>356.5</ele>
        <time>2023-08-15T13:20:27Z</time>
      </trkpt>
      <trkpt lat="43.08914" lon="1.87305">
        <ele>356.5</ele>
        <time>2023-08-15T13:20:31Z</time>
      </trkpt>
      <trkpt lat="43.08914" lon="1.8728">
        <ele>356.5</ele>
        <time>2023-08-15T13:20:35Z</time>
      </trkpt>
      <trkpt lat="43.08914" lon="1.87254">
        <ele>354.9</ele>
        <time>2023-08-15T13:20:39Z</time>
      </trkpt>
      <trkpt lat="43.08914" lon="1.87229">
        <ele>354.9</ele>
        <time>2023-08-15T13:20:43Z</time>
      </trkpt>
      <trkpt lat="43.08909" lon="1.8721">
        <ele>356.5</ele>
        <time>2023-08-15T13:20:47Z</time>
      </trkpt>
      <trkpt lat="43.08896" lon="1.87207">
        <ele>356.5</ele>
        <time>2023-08-15T13:20:50Z</time>
      </trkpt>
      <trkpt lat="43.08875" lon="1.87209">
        <ele>356.5</ele>
        <time>2023-08-15T13:20:54Z</time>
      </trkpt>
      <trkpt lat="43.0886" lon="1.87209">
        <ele>356.5</ele>
        <time>2023-08-15T13:20:58Z</time>
      </trkpt>
      <trkpt lat="43.08853" lon="1.87214">
        <ele>356.5</ele>
        <time>2023-08-15T13:21:01Z</time>
      </trkpt>
      <trkpt lat="43.0885" lon="1.87224">
        <ele>356.5</ele>
        <time>2023-08-15T13:21:04Z</time>
      </trkpt>
      <trkpt lat="43.08851" lon="1.87229">
        <ele>356.5</ele>
        <time>2023-08-15T13:21:10Z</time>
      </trkpt>
      <trkpt lat="43.08851" lon="1.87232">
        <ele>356</ele>
        <time>2023-08-15T13:21:13Z</time>
      </trkpt>
      <trkpt lat="43.08851" lon="1.87239">
        <ele>356</ele>
        <time>2023-08-15T13:21:16Z</time>
      </trkpt>
      <trkpt lat="43.08851" lon="1.87246">
        <ele>356</ele>
        <time>2023-08-15T13:21:20Z</time>
      </trkpt>
      <trkpt lat="43.0885" lon="1.87253">
        <ele>356</ele>
        <time>2023-08-15T13:21:23Z</time>
      </trkpt>
      <trkpt lat="43.08851" lon="1.87262">
        <ele>356</ele>
        <time>2023-08-15T13:21:27Z</time>
      </trkpt>
      <trkpt lat="43.0885" lon="1.87268">
        <ele>356</ele>
        <time>2023-08-15T13:21:30Z</time>
      </trkpt>
      <trkpt lat="43.0885" lon="1.87272">
        <ele>355.7</ele>
        <time>2023-08-15T13:21:35Z</time>
      </trkpt>
      <trkpt lat="43.0885" lon="1.87272">
        <ele>355.7</ele>
        <time>2023-08-15T13:21:39Z</time>
      </trkpt>
      <trkpt lat="43.0885" lon="1.87271">
        <ele>355.7</ele>
        <time>2023-08-15T13:21:50Z</time>
      </trkpt>
      <trkpt lat="43.0885" lon="1.87268">
        <ele>355.7</ele>
        <time>2023-08-15T13:21:55Z</time>
      </trkpt>
      <trkpt lat="43.0885" lon="1.87266">
        <ele>355.7</ele>
        <time>2023-08-15T13:21:59Z</time>
      </trkpt>
      <trkpt lat="43.0885" lon="1.87257">
        <ele>355.7</ele>
        <time>2023-08-15T13:22:03Z</time>
      </trkpt>
      <trkpt lat="43.08858" lon="1.87252">
        <ele>355.6</ele>
        <time>2023-08-15T13:22:18Z</time>
      </trkpt>
      <trkpt lat="43.08857" lon="1.87249">
        <ele>356</ele>
        <time>2023-08-15T13:22:21Z</time>
      </trkpt>
      <trkpt lat="43.0886" lon="1.87236">
        <ele>355.8</ele>
        <time>2023-08-15T13:22:25Z</time>
      </trkpt>
      <trkpt lat="43.08862" lon="1.87226">
        <ele>355.8</ele>
        <time>2023-08-15T13:22:28Z</time>
      </trkpt>
      <trkpt lat="43.0886" lon="1.87215">
        <ele>355.6</ele>
        <time>2023-08-15T13:22:32Z</time>
      </trkpt>
      <trkpt lat="43.08857" lon="1.87207">
        <ele>355.6</ele>
        <time>2023-08-15T13:22:36Z</time>
      </trkpt>
      <trkpt lat="43.08847" lon="1.87204">
        <ele>355.6</ele>
        <time>2023-08-15T13:22:39Z</time>
      </trkpt>
      <trkpt lat="43.08834" lon="1.87205">
        <ele>355.6</ele>
        <time>2023-08-15T13:22:42Z</time>
      </trkpt>
      <trkpt lat="43.08822" lon="1.87207">
        <ele>355.6</ele>
        <time>2023-08-15T13:22:45Z</time>
      </trkpt>
      <trkpt lat="43.08808" lon="1.87206">
        <ele>355.6</ele>
        <time>2023-08-15T13:22:49Z</time>
      </trkpt>
      <trkpt lat="43.08797" lon="1.87206">
        <ele>355.6</ele>
        <time>2023-08-15T13:22:52Z</time>
      </trkpt>
      <trkpt lat="43.08782" lon="1.87207">
        <ele>355.6</ele>
        <time>2023-08-15T13:22:56Z</time>
      </trkpt>
      <trkpt lat="43.08768" lon="1.87207">
        <ele>355.6</ele>
        <time>2023-08-15T13:22:59Z</time>
      </trkpt>
      <trkpt lat="43.08757" lon="1.87206">
        <ele>355.6</ele>
        <time>2023-08-15T13:23:02Z</time>
      </trkpt>
      <trkpt lat="43.08746" lon="1.87207">
        <ele>355.6</ele>
        <time>2023-08-15T13:23:06Z</time>
      </trkpt>
      <trkpt lat="43.08739" lon="1.87218">
        <ele>355.6</ele>
        <time>2023-08-15T13:23:09Z</time>
      </trkpt>
      <trkpt lat="43.08741" lon="1.8724">
        <ele>355.6</ele>
        <time>2023-08-15T13:23:13Z</time>
      </trkpt>
      <trkpt lat="43.08741" lon="1.87262">
        <ele>355.6</ele>
        <time>2023-08-15T13:23:17Z</time>
      </trkpt>
      <trkpt lat="43.08741" lon="1.87278">
        <ele>355.6</ele>
        <time>2023-08-15T13:23:20Z</time>
      </trkpt>
      <trkpt lat="43.0874" lon="1.87296">
        <ele>355.6</ele>
        <time>2023-08-15T13:23:23Z</time>
      </trkpt>
      <trkpt lat="43.08738" lon="1.87318">
        <ele>355.6</ele>
        <time>2023-08-15T13:23:27Z</time>
      </trkpt>
      <trkpt lat="43.08738" lon="1.8734">
        <ele>355.6</ele>
        <time>2023-08-15T13:23:31Z</time>
      </trkpt>
      <trkpt lat="43.08738" lon="1.87356">
        <ele>355.6</ele>
        <time>2023-08-15T13:23:34Z</time>
      </trkpt>
      <trkpt lat="43.08738" lon="1.87375">
        <ele>355.6</ele>
        <time>2023-08-15T13:23:38Z</time>
      </trkpt>
      <trkpt lat="43.08738" lon="1.87391">
        <ele>355.6</ele>
        <time>2023-08-15T13:23:41Z</time>
      </trkpt>
      <trkpt lat="43.08738" lon="1.87411">
        <ele>355.6</ele>
        <time>2023-08-15T13:23:45Z</time>
      </trkpt>
      <trkpt lat="43.08737" lon="1.87426">
        <ele>355.6</ele>
        <time>2023-08-15T13:23:48Z</time>
      </trkpt>
      <trkpt lat="43.08738" lon="1.87446">
        <ele>355.6</ele>
        <time>2023-08-15T13:23:52Z</time>
      </trkpt>
      <trkpt lat="43.08739" lon="1.87464">
        <ele>355.6</ele>
        <time>2023-08-15T13:23:56Z</time>
      </trkpt>
      <trkpt lat="43.08738" lon="1.87476">
        <ele>355.6</ele>
        <time>2023-08-15T13:24:00Z</time>
      </trkpt>
      <trkpt lat="43.08737" lon="1.87483">
        <ele>355.6</ele>
        <time>2023-08-15T13:24:03Z</time>
      </trkpt>
      <trkpt lat="43.08736" lon="1.87494">
        <ele>355.6</ele>
        <time>2023-08-15T13:24:07Z</time>
      </trkpt>
      <trkpt lat="43.08736" lon="1.87502">
        <ele>355.6</ele>
        <time>2023-08-15T13:24:10Z</time>
      </trkpt>
      <trkpt lat="43.08736" lon="1.8752">
        <ele>355.6</ele>
        <time>2023-08-15T13:24:14Z</time>
      </trkpt>
      <trkpt lat="43.08737" lon="1.87539">
        <ele>355.6</ele>
        <time>2023-08-15T13:24:18Z</time>
      </trkpt>
      <trkpt lat="43.08738" lon="1.87551">
        <ele>355.6</ele>
        <time>2023-08-15T13:24:21Z</time>
      </trkpt>
      <trkpt lat="43.08739" lon="1.87561">
        <ele>355.6</ele>
        <time>2023-08-15T13:24:25Z</time>
      </trkpt>
      <trkpt lat="43.08745" lon="1.87568">
        <ele>355.6</ele>
        <time>2023-08-15T13:24:29Z</time>
      </trkpt>
      <trkpt lat="43.08755" lon="1.87566">
        <ele>355.6</ele>
        <time>2023-08-15T13:24:32Z</time>
      </trkpt>
      <trkpt lat="43.08767" lon="1.87564">
        <ele>355.6</ele>
        <time>2023-08-15T13:24:36Z</time>
      </trkpt>
      <trkpt lat="43.08774" lon="1.87563">
        <ele>355.6</ele>
        <time>2023-08-15T13:24:39Z</time>
      </trkpt>
      <trkpt lat="43.08784" lon="1.87563">
        <ele>355.6</ele>
        <time>2023-08-15T13:24:42Z</time>
      </trkpt>
      <trkpt lat="43.08793" lon="1.87563">
        <ele>355.6</ele>
        <time>2023-08-15T13:24:46Z</time>
      </trkpt>
      <trkpt lat="43.088" lon="1.87563">
        <ele>355.6</ele>
        <time>2023-08-15T13:24:50Z</time>
      </trkpt>
      <trkpt lat="43.08806" lon="1.87563">
        <ele>355.6</ele>
        <time>2023-08-15T13:24:54Z</time>
      </trkpt>
      <trkpt lat="43.08814" lon="1.87563">
        <ele>355.6</ele>
        <time>2023-08-15T13:24:57Z</time>
      </trkpt>
      <trkpt lat="43.08825" lon="1.87564">
        <ele>355.4</ele>
        <time>2023-08-15T13:25:01Z</time>
      </trkpt>
      <trkpt lat="43.08832" lon="1.87565">
        <ele>355.5</ele>
        <time>2023-08-15T13:25:04Z</time>
      </trkpt>
      <trkpt lat="43.08843" lon="1.87565">
        <ele>355.2</ele>
        <time>2023-08-15T13:25:08Z</time>
      </trkpt>
      <trkpt lat="43.08854" lon="1.87565">
        <ele>355.1</ele>
        <time>2023-08-15T13:25:12Z</time>
      </trkpt>
      <trkpt lat="43.08864" lon="1.87567">
        <ele>355.2</ele>
        <time>2023-08-15T13:25:15Z</time>
      </trkpt>
      <trkpt lat="43.08878" lon="1.87566">
        <ele>355.1</ele>
        <time>2023-08-15T13:25:19Z</time>
      </trkpt>
      <trkpt lat="43.0889" lon="1.87566">
        <ele>355.2</ele>
        <time>2023-08-15T13:25:23Z</time>
      </trkpt>
      <trkpt lat="43.08902" lon="1.87563">
        <ele>355</ele>
        <time>2023-08-15T13:25:27Z</time>
      </trkpt>
      <trkpt lat="43.08907" lon="1.87572">
        <ele>354.9</ele>
        <time>2023-08-15T13:25:31Z</time>
      </trkpt>
      <trkpt lat="43.08907" lon="1.87586">
        <ele>356.5</ele>
        <time>2023-08-15T13:25:34Z</time>
      </trkpt>
      <trkpt lat="43.08909" lon="1.87603">
        <ele>356.5</ele>
        <time>2023-08-15T13:25:38Z</time>
      </trkpt>
      <trkpt lat="43.08917" lon="1.87613">
        <ele>354.6</ele>
        <time>2023-08-15T13:25:41Z</time>
      </trkpt>
      <trkpt lat="43.08929" lon="1.87614">
        <ele>356.5</ele>
        <time>2023-08-15T13:25:44Z</time>
      </trkpt>
      <trkpt lat="43.08956" lon="1.87616">
        <ele>356.5</ele>
        <time>2023-08-15T13:25:49Z</time>
      </trkpt>
      <trkpt lat="43.0897" lon="1.87618">
        <ele>356.5</ele>
        <time>2023-08-15T13:25:52Z</time>
      </trkpt>
      <trkpt lat="43.08983" lon="1.87619">
        <ele>356.5</ele>
        <time>2023-08-15T13:25:55Z</time>
      </trkpt>
      <trkpt lat="43.09" lon="1.8762">
        <ele>354.8</ele>
        <time>2023-08-15T13:25:59Z</time>
      </trkpt>
      <trkpt lat="43.09017" lon="1.8762">
        <ele>355.3</ele>
        <time>2023-08-15T13:26:02Z</time>
      </trkpt>
      <trkpt lat="43.0904" lon="1.87621">
        <ele>354.9</ele>
        <time>2023-08-15T13:26:06Z</time>
      </trkpt>
      <trkpt lat="43.09057" lon="1.87621">
        <ele>354.9</ele>
        <time>2023-08-15T13:26:09Z</time>
      </trkpt>
      <trkpt lat="43.09082" lon="1.87621">
        <ele>354.9</ele>
        <time>2023-08-15T13:26:13Z</time>
      </trkpt>
      <trkpt lat="43.09103" lon="1.8762">
        <ele>354.9</ele>
        <time>2023-08-15T13:26:16Z</time>
      </trkpt>
      <trkpt lat="43.09121" lon="1.8762">
        <ele>354.9</ele>
        <time>2023-08-15T13:26:19Z</time>
      </trkpt>
      <trkpt lat="43.09136" lon="1.87635">
        <ele>354.9</ele>
        <time>2023-08-15T13:26:23Z</time>
      </trkpt>
      <trkpt lat="43.09135" lon="1.87656">
        <ele>354.9</ele>
        <time>2023-08-15T13:26:26Z</time>
      </trkpt>
      <trkpt lat="43.09128" lon="1.8769">
        <ele>355.3</ele>
        <time>2023-08-15T13:26:30Z</time>
      </trkpt>
      <trkpt lat="43.0912" lon="1.87732">
        <ele>355.3</ele>
        <time>2023-08-15T13:26:34Z</time>
      </trkpt>
      <trkpt lat="43.09112" lon="1.87758">
        <ele>353</ele>
        <time>2023-08-15T13:26:37Z</time>
      </trkpt>
      <trkpt lat="43.09099" lon="1.87774">
        <ele>352.9</ele>
        <time>2023-08-15T13:26:40Z</time>
      </trkpt>
      <trkpt lat="43.09076" lon="1.87783">
        <ele>353.1</ele>
        <time>2023-08-15T13:26:44Z</time>
      </trkpt>
      <trkpt lat="43.09049" lon="1.87786">
        <ele>354.9</ele>
        <time>2023-08-15T13:26:48Z</time>
      </trkpt>
      <trkpt lat="43.09022" lon="1.8779">
        <ele>354.9</ele>
        <time>2023-08-15T13:26:52Z</time>
      </trkpt>
      <trkpt lat="43.09" lon="1.87793">
        <ele>354.9</ele>
        <time>2023-08-15T13:26:56Z</time>
      </trkpt>
      <trkpt lat="43.08984" lon="1.87795">
        <ele>355.3</ele>
        <time>2023-08-15T13:26:59Z</time>
      </trkpt>
      <trkpt lat="43.08961" lon="1.87797">
        <ele>355.3</ele>
        <time>2023-08-15T13:27:03Z</time>
      </trkpt>
      <trkpt lat="43.08934" lon="1.87798">
        <ele>354.9</ele>
        <time>2023-08-15T13:27:07Z</time>
      </trkpt>
      <trkpt lat="43.08915" lon="1.87798">
        <ele>354.9</ele>
        <time>2023-08-15T13:27:10Z</time>
      </trkpt>
      <trkpt lat="43.08891" lon="1.87799">
        <ele>354.9</ele>
        <time>2023-08-15T13:27:14Z</time>
      </trkpt>
      <trkpt lat="43.08876" lon="1.87799">
        <ele>354.9</ele>
        <time>2023-08-15T13:27:17Z</time>
      </trkpt>
      <trkpt lat="43.08861" lon="1.87799">
        <ele>354.9</ele>
        <time>2023-08-15T13:27:20Z</time>
      </trkpt>
      <trkpt lat="43.08845" lon="1.878">
        <ele>354.9</ele>
        <time>2023-08-15T13:27:24Z</time>
      </trkpt>
      <trkpt lat="43.08826" lon="1.87802">
        <ele>354.9</ele>
        <time>2023-08-15T13:27:28Z</time>
      </trkpt>
      <trkpt lat="43.08806" lon="1.87803">
        <ele>355.4</ele>
        <time>2023-08-15T13:27:32Z</time>
      </trkpt>
      <trkpt lat="43.08789" lon="1.87802">
        <ele>355.4</ele>
        <time>2023-08-15T13:27:35Z</time>
      </trkpt>
      <trkpt lat="43.08761" lon="1.87801">
        <ele>355.4</ele>
        <time>2023-08-15T13:27:39Z</time>
      </trkpt>
      <trkpt lat="43.08738" lon="1.878">
        <ele>355.4</ele>
        <time>2023-08-15T13:27:42Z</time>
      </trkpt>
      <trkpt lat="43.08711" lon="1.87798">
        <ele>355.4</ele>
        <time>2023-08-15T13:27:46Z</time>
      </trkpt>
      <trkpt lat="43.08693" lon="1.87797">
        <ele>355.4</ele>
        <time>2023-08-15T13:27:49Z</time>
      </trkpt>
      <trkpt lat="43.08667" lon="1.87796">
        <ele>355.4</ele>
        <time>2023-08-15T13:27:53Z</time>
      </trkpt>
      <trkpt lat="43.08646" lon="1.87795">
        <ele>355.4</ele>
        <time>2023-08-15T13:27:56Z</time>
      </trkpt>
      <trkpt lat="43.0862" lon="1.87796">
        <ele>355.4</ele>
        <time>2023-08-15T13:28:00Z</time>
      </trkpt>
      <trkpt lat="43.08601" lon="1.87796">
        <ele>355.4</ele>
        <time>2023-08-15T13:28:03Z</time>
      </trkpt>
      <trkpt lat="43.08573" lon="1.87793">
        <ele>357.1</ele>
        <time>2023-08-15T13:28:07Z</time>
      </trkpt>
      <trkpt lat="43.0855" lon="1.8778">
        <ele>357.8</ele>
        <time>2023-08-15T13:28:11Z</time>
      </trkpt>
      <trkpt lat="43.08532" lon="1.87753">
        <ele>358.5</ele>
        <time>2023-08-15T13:28:15Z</time>
      </trkpt>
      <trkpt lat="43.08518" lon="1.8772">
        <ele>359</ele>
        <time>2023-08-15T13:28:19Z</time>
      </trkpt>
      <trkpt lat="43.08506" lon="1.87686">
        <ele>358.9</ele>
        <time>2023-08-15T13:28:23Z</time>
      </trkpt>
      <trkpt lat="43.08503" lon="1.87659">
        <ele>358.9</ele>
        <time>2023-08-15T13:28:26Z</time>
      </trkpt>
      <trkpt lat="43.08502" lon="1.87633">
        <ele>358.5</ele>
        <time>2023-08-15T13:28:30Z</time>
      </trkpt>
      <trkpt lat="43.08502" lon="1.87623">
        <ele>358.6</ele>
        <time>2023-08-15T13:28:33Z</time>
      </trkpt>
      <trkpt lat="43.08497" lon="1.87608">
        <ele>360.1</ele>
        <time>2023-08-15T13:28:37Z</time>
      </trkpt>
      <trkpt lat="43.08482" lon="1.87611">
        <ele>360.1</ele>
        <time>2023-08-15T13:28:41Z</time>
      </trkpt>
      <trkpt lat="43.0846" lon="1.87619">
        <ele>360.1</ele>
        <time>2023-08-15T13:28:45Z</time>
      </trkpt>
      <trkpt lat="43.08452" lon="1.8762">
        <ele>360.1</ele>
        <time>2023-08-15T13:28:49Z</time>
      </trkpt>
      <trkpt lat="43.08443" lon="1.87615">
        <ele>360.1</ele>
        <time>2023-08-15T13:28:53Z</time>
      </trkpt>
      <trkpt lat="43.08429" lon="1.87616">
        <ele>360.1</ele>
        <time>2023-08-15T13:28:56Z</time>
      </trkpt>
      <trkpt lat="43.08412" lon="1.87636">
        <ele>360.1</ele>
        <time>2023-08-15T13:29:00Z</time>
      </trkpt>
      <trkpt lat="43.08397" lon="1.87644">
        <ele>360.1</ele>
        <time>2023-08-15T13:29:03Z</time>
      </trkpt>
      <trkpt lat="43.08381" lon="1.87649">
        <ele>360.1</ele>
        <time>2023-08-15T13:29:06Z</time>
      </trkpt>
      <trkpt lat="43.08356" lon="1.87653">
        <ele>361.7</ele>
        <time>2023-08-15T13:29:10Z</time>
      </trkpt>
      <trkpt lat="43.08328" lon="1.87654">
        <ele>362.6</ele>
        <time>2023-08-15T13:29:14Z</time>
      </trkpt>
      <trkpt lat="43.08297" lon="1.87653">
        <ele>363.1</ele>
        <time>2023-08-15T13:29:18Z</time>
      </trkpt>
      <trkpt lat="43.08276" lon="1.87653">
        <ele>362.5</ele>
        <time>2023-08-15T13:29:21Z</time>
      </trkpt>
      <trkpt lat="43.08251" lon="1.87654">
        <ele>362.7</ele>
        <time>2023-08-15T13:29:25Z</time>
      </trkpt>
      <trkpt lat="43.08232" lon="1.87654">
        <ele>362.7</ele>
        <time>2023-08-15T13:29:28Z</time>
      </trkpt>
      <trkpt lat="43.08212" lon="1.87653">
        <ele>363.1</ele>
        <time>2023-08-15T13:29:31Z</time>
      </trkpt>
      <trkpt lat="43.08185" lon="1.87654">
        <ele>363.4</ele>
        <time>2023-08-15T13:29:35Z</time>
      </trkpt>
      <trkpt lat="43.08159" lon="1.87654">
        <ele>363.4</ele>
        <time>2023-08-15T13:29:39Z</time>
      </trkpt>
      <trkpt lat="43.0814" lon="1.87654">
        <ele>363.7</ele>
        <time>2023-08-15T13:29:42Z</time>
      </trkpt>
      <trkpt lat="43.0812" lon="1.87655">
        <ele>364.1</ele>
        <time>2023-08-15T13:29:45Z</time>
      </trkpt>
      <trkpt lat="43.08093" lon="1.87655">
        <ele>364.3</ele>
        <time>2023-08-15T13:29:49Z</time>
      </trkpt>
      <trkpt lat="43.08073" lon="1.87656">
        <ele>364.3</ele>
        <time>2023-08-15T13:29:52Z</time>
      </trkpt>
      <trkpt lat="43.08048" lon="1.87658">
        <ele>364.3</ele>
        <time>2023-08-15T13:29:56Z</time>
      </trkpt>
      <trkpt lat="43.08021" lon="1.87659">
        <ele>364.9</ele>
        <time>2023-08-15T13:30:00Z</time>
      </trkpt>
      <trkpt lat="43.08" lon="1.8766">
        <ele>365.3</ele>
        <time>2023-08-15T13:30:03Z</time>
      </trkpt>
      <trkpt lat="43.0798" lon="1.8766">
        <ele>365.2</ele>
        <time>2023-08-15T13:30:06Z</time>
      </trkpt>
      <trkpt lat="43.07953" lon="1.87661">
        <ele>365.2</ele>
        <time>2023-08-15T13:30:10Z</time>
      </trkpt>
      <trkpt lat="43.07928" lon="1.87663">
        <ele>365.4</ele>
        <time>2023-08-15T13:30:14Z</time>
      </trkpt>
      <trkpt lat="43.07901" lon="1.87667">
        <ele>365.9</ele>
        <time>2023-08-15T13:30:18Z</time>
      </trkpt>
      <trkpt lat="43.07882" lon="1.87673">
        <ele>365.5</ele>
        <time>2023-08-15T13:30:21Z</time>
      </trkpt>
      <trkpt lat="43.07857" lon="1.87682">
        <ele>366.4</ele>
        <time>2023-08-15T13:30:25Z</time>
      </trkpt>
      <trkpt lat="43.07838" lon="1.87689">
        <ele>367.4</ele>
        <time>2023-08-15T13:30:28Z</time>
      </trkpt>
      <trkpt lat="43.07813" lon="1.87699">
        <ele>368.5</ele>
        <time>2023-08-15T13:30:32Z</time>
      </trkpt>
      <trkpt lat="43.07788" lon="1.87707">
        <ele>368.5</ele>
        <time>2023-08-15T13:30:36Z</time>
      </trkpt>
      <trkpt lat="43.07768" lon="1.87713">
        <ele>369.2</ele>
        <time>2023-08-15T13:30:39Z</time>
      </trkpt>
      <trkpt lat="43.07742" lon="1.87723">
        <ele>369.8</ele>
        <time>2023-08-15T13:30:43Z</time>
      </trkpt>
      <trkpt lat="43.07717" lon="1.87735">
        <ele>370.2</ele>
        <time>2023-08-15T13:30:47Z</time>
      </trkpt>
      <trkpt lat="43.07691" lon="1.87745">
        <ele>370.6</ele>
        <time>2023-08-15T13:30:51Z</time>
      </trkpt>
      <trkpt lat="43.07664" lon="1.87755">
        <ele>370.1</ele>
        <time>2023-08-15T13:30:55Z</time>
      </trkpt>
      <trkpt lat="43.07644" lon="1.87761">
        <ele>369.6</ele>
        <time>2023-08-15T13:30:58Z</time>
      </trkpt>
      <trkpt lat="43.0762" lon="1.87769">
        <ele>369.4</ele>
        <time>2023-08-15T13:31:02Z</time>
      </trkpt>
      <trkpt lat="43.07601" lon="1.87776">
        <ele>369.8</ele>
        <time>2023-08-15T13:31:05Z</time>
      </trkpt>
      <trkpt lat="43.07575" lon="1.87786">
        <ele>368.6</ele>
        <time>2023-08-15T13:31:09Z</time>
      </trkpt>
      <trkpt lat="43.07555" lon="1.87794">
        <ele>368.9</ele>
        <time>2023-08-15T13:31:12Z</time>
      </trkpt>
      <trkpt lat="43.07531" lon="1.87803">
        <ele>369.5</ele>
        <time>2023-08-15T13:31:16Z</time>
      </trkpt>
      <trkpt lat="43.07505" lon="1.87813">
        <ele>369.6</ele>
        <time>2023-08-15T13:31:20Z</time>
      </trkpt>
      <trkpt lat="43.07486" lon="1.87819">
        <ele>370.3</ele>
        <time>2023-08-15T13:31:23Z</time>
      </trkpt>
      <trkpt lat="43.0746" lon="1.87829">
        <ele>370.8</ele>
        <time>2023-08-15T13:31:27Z</time>
      </trkpt>
      <trkpt lat="43.07435" lon="1.87838">
        <ele>371.8</ele>
        <time>2023-08-15T13:31:31Z</time>
      </trkpt>
      <trkpt lat="43.07408" lon="1.87847">
        <ele>372.4</ele>
        <time>2023-08-15T13:31:35Z</time>
      </trkpt>
      <trkpt lat="43.0738" lon="1.87853">
        <ele>372</ele>
        <time>2023-08-15T13:31:39Z</time>
      </trkpt>
      <trkpt lat="43.07361" lon="1.87858">
        <ele>371.5</ele>
        <time>2023-08-15T13:31:42Z</time>
      </trkpt>
      <trkpt lat="43.07335" lon="1.87864">
        <ele>371.3</ele>
        <time>2023-08-15T13:31:46Z</time>
      </trkpt>
      <trkpt lat="43.0731" lon="1.8787">
        <ele>371.2</ele>
        <time>2023-08-15T13:31:50Z</time>
      </trkpt>
      <trkpt lat="43.07284" lon="1.87877">
        <ele>371.1</ele>
        <time>2023-08-15T13:31:54Z</time>
      </trkpt>
      <trkpt lat="43.07258" lon="1.87883">
        <ele>371.2</ele>
        <time>2023-08-15T13:31:58Z</time>
      </trkpt>
      <trkpt lat="43.07232" lon="1.87889">
        <ele>371.6</ele>
        <time>2023-08-15T13:32:02Z</time>
      </trkpt>
      <trkpt lat="43.07206" lon="1.87894">
        <ele>371.5</ele>
        <time>2023-08-15T13:32:06Z</time>
      </trkpt>
      <trkpt lat="43.07187" lon="1.87897">
        <ele>372.6</ele>
        <time>2023-08-15T13:32:09Z</time>
      </trkpt>
      <trkpt lat="43.07161" lon="1.87904">
        <ele>373</ele>
        <time>2023-08-15T13:32:13Z</time>
      </trkpt>
      <trkpt lat="43.07135" lon="1.87909">
        <ele>373.3</ele>
        <time>2023-08-15T13:32:17Z</time>
      </trkpt>
      <trkpt lat="43.07116" lon="1.87914">
        <ele>373.6</ele>
        <time>2023-08-15T13:32:20Z</time>
      </trkpt>
      <trkpt lat="43.0709" lon="1.87919">
        <ele>373.5</ele>
        <time>2023-08-15T13:32:24Z</time>
      </trkpt>
      <trkpt lat="43.07063" lon="1.87924">
        <ele>373.8</ele>
        <time>2023-08-15T13:32:28Z</time>
      </trkpt>
      <trkpt lat="43.07038" lon="1.8793">
        <ele>374.4</ele>
        <time>2023-08-15T13:32:32Z</time>
      </trkpt>
      <trkpt lat="43.07012" lon="1.87936">
        <ele>373.5</ele>
        <time>2023-08-15T13:32:36Z</time>
      </trkpt>
      <trkpt lat="43.06985" lon="1.87943">
        <ele>374.3</ele>
        <time>2023-08-15T13:32:40Z</time>
      </trkpt>
      <trkpt lat="43.06966" lon="1.87948">
        <ele>374.4</ele>
        <time>2023-08-15T13:32:43Z</time>
      </trkpt>
      <trkpt lat="43.06938" lon="1.87955">
        <ele>374.2</ele>
        <time>2023-08-15T13:32:47Z</time>
      </trkpt>
      <trkpt lat="43.06919" lon="1.87959">
        <ele>374.1</ele>
        <time>2023-08-15T13:32:50Z</time>
      </trkpt>
      <trkpt lat="43.06893" lon="1.87965">
        <ele>375.2</ele>
        <time>2023-08-15T13:32:54Z</time>
      </trkpt>
      <trkpt lat="43.06867" lon="1.8797">
        <ele>375.7</ele>
        <time>2023-08-15T13:32:58Z</time>
      </trkpt>
      <trkpt lat="43.06848" lon="1.87974">
        <ele>375.5</ele>
        <time>2023-08-15T13:33:01Z</time>
      </trkpt>
      <trkpt lat="43.06828" lon="1.87979">
        <ele>375.3</ele>
        <time>2023-08-15T13:33:04Z</time>
      </trkpt>
      <trkpt lat="43.06802" lon="1.87985">
        <ele>375.5</ele>
        <time>2023-08-15T13:33:08Z</time>
      </trkpt>
      <trkpt lat="43.06782" lon="1.8799">
        <ele>375.8</ele>
        <time>2023-08-15T13:33:11Z</time>
      </trkpt>
      <trkpt lat="43.06762" lon="1.87995">
        <ele>376.3</ele>
        <time>2023-08-15T13:33:14Z</time>
      </trkpt>
      <trkpt lat="43.06743" lon="1.88">
        <ele>376.8</ele>
        <time>2023-08-15T13:33:17Z</time>
      </trkpt>
      <trkpt lat="43.06716" lon="1.88006">
        <ele>377.1</ele>
        <time>2023-08-15T13:33:21Z</time>
      </trkpt>
      <trkpt lat="43.06697" lon="1.8801">
        <ele>377.2</ele>
        <time>2023-08-15T13:33:24Z</time>
      </trkpt>
      <trkpt lat="43.06677" lon="1.88014">
        <ele>377.7</ele>
        <time>2023-08-15T13:33:27Z</time>
      </trkpt>
      <trkpt lat="43.06657" lon="1.88017">
        <ele>378</ele>
        <time>2023-08-15T13:33:30Z</time>
      </trkpt>
      <trkpt lat="43.06631" lon="1.88021">
        <ele>378.1</ele>
        <time>2023-08-15T13:33:34Z</time>
      </trkpt>
      <trkpt lat="43.06611" lon="1.88024">
        <ele>378.3</ele>
        <time>2023-08-15T13:33:37Z</time>
      </trkpt>
      <trkpt lat="43.06585" lon="1.88028">
        <ele>378.6</ele>
        <time>2023-08-15T13:33:41Z</time>
      </trkpt>
      <trkpt lat="43.06566" lon="1.88031">
        <ele>378.5</ele>
        <time>2023-08-15T13:33:44Z</time>
      </trkpt>
      <trkpt lat="43.06539" lon="1.88035">
        <ele>378.4</ele>
        <time>2023-08-15T13:33:48Z</time>
      </trkpt>
      <trkpt lat="43.06513" lon="1.8804">
        <ele>377.5</ele>
        <time>2023-08-15T13:33:52Z</time>
      </trkpt>
      <trkpt lat="43.06487" lon="1.88044">
        <ele>377.4</ele>
        <time>2023-08-15T13:33:56Z</time>
      </trkpt>
      <trkpt lat="43.0646" lon="1.88048">
        <ele>378.1</ele>
        <time>2023-08-15T13:34:00Z</time>
      </trkpt>
      <trkpt lat="43.06441" lon="1.88053">
        <ele>378.1</ele>
        <time>2023-08-15T13:34:03Z</time>
      </trkpt>
      <trkpt lat="43.06422" lon="1.88061">
        <ele>378.6</ele>
        <time>2023-08-15T13:34:06Z</time>
      </trkpt>
      <trkpt lat="43.06396" lon="1.88073">
        <ele>378.6</ele>
        <time>2023-08-15T13:34:10Z</time>
      </trkpt>
      <trkpt lat="43.06371" lon="1.88086">
        <ele>379.2</ele>
        <time>2023-08-15T13:34:14Z</time>
      </trkpt>
      <trkpt lat="43.06352" lon="1.88095">
        <ele>379.4</ele>
        <time>2023-08-15T13:34:17Z</time>
      </trkpt>
      <trkpt lat="43.06327" lon="1.88106">
        <ele>379.8</ele>
        <time>2023-08-15T13:34:21Z</time>
      </trkpt>
      <trkpt lat="43.06309" lon="1.88114">
        <ele>379.9</ele>
        <time>2023-08-15T13:34:24Z</time>
      </trkpt>
      <trkpt lat="43.0629" lon="1.88121">
        <ele>379.4</ele>
        <time>2023-08-15T13:34:27Z</time>
      </trkpt>
      <trkpt lat="43.06264" lon="1.88132">
        <ele>379.5</ele>
        <time>2023-08-15T13:34:31Z</time>
      </trkpt>
      <trkpt lat="43.06246" lon="1.8814">
        <ele>379.4</ele>
        <time>2023-08-15T13:34:34Z</time>
      </trkpt>
      <trkpt lat="43.0622" lon="1.8815">
        <ele>379.6</ele>
        <time>2023-08-15T13:34:38Z</time>
      </trkpt>
      <trkpt lat="43.06201" lon="1.88158">
        <ele>379.6</ele>
        <time>2023-08-15T13:34:41Z</time>
      </trkpt>
      <trkpt lat="43.06176" lon="1.8817">
        <ele>379.8</ele>
        <time>2023-08-15T13:34:45Z</time>
      </trkpt>
      <trkpt lat="43.06151" lon="1.88181">
        <ele>380.2</ele>
        <time>2023-08-15T13:34:49Z</time>
      </trkpt>
      <trkpt lat="43.06132" lon="1.88188">
        <ele>380.4</ele>
        <time>2023-08-15T13:34:52Z</time>
      </trkpt>
      <trkpt lat="43.06106" lon="1.88199">
        <ele>380.8</ele>
        <time>2023-08-15T13:34:56Z</time>
      </trkpt>
      <trkpt lat="43.06088" lon="1.88207">
        <ele>381.2</ele>
        <time>2023-08-15T13:34:59Z</time>
      </trkpt>
      <trkpt lat="43.06069" lon="1.88215">
        <ele>381.3</ele>
        <time>2023-08-15T13:35:02Z</time>
      </trkpt>
      <trkpt lat="43.06044" lon="1.88227">
        <ele>381.9</ele>
        <time>2023-08-15T13:35:06Z</time>
      </trkpt>
      <trkpt lat="43.06019" lon="1.8824">
        <ele>382</ele>
        <time>2023-08-15T13:35:10Z</time>
      </trkpt>
      <trkpt lat="43.05995" lon="1.88255">
        <ele>382.6</ele>
        <time>2023-08-15T13:35:14Z</time>
      </trkpt>
      <trkpt lat="43.05971" lon="1.88271">
        <ele>382.8</ele>
        <time>2023-08-15T13:35:18Z</time>
      </trkpt>
      <trkpt lat="43.05947" lon="1.88288">
        <ele>382.7</ele>
        <time>2023-08-15T13:35:22Z</time>
      </trkpt>
      <trkpt lat="43.05923" lon="1.88304">
        <ele>382.7</ele>
        <time>2023-08-15T13:35:26Z</time>
      </trkpt>
      <trkpt lat="43.059" lon="1.8832">
        <ele>382.9</ele>
        <time>2023-08-15T13:35:30Z</time>
      </trkpt>
      <trkpt lat="43.05882" lon="1.88331">
        <ele>383.1</ele>
        <time>2023-08-15T13:35:33Z</time>
      </trkpt>
      <trkpt lat="43.05858" lon="1.88348">
        <ele>383.4</ele>
        <time>2023-08-15T13:35:37Z</time>
      </trkpt>
      <trkpt lat="43.0584" lon="1.8836">
        <ele>383.8</ele>
        <time>2023-08-15T13:35:40Z</time>
      </trkpt>
      <trkpt lat="43.05817" lon="1.88376">
        <ele>383.5</ele>
        <time>2023-08-15T13:35:44Z</time>
      </trkpt>
      <trkpt lat="43.05793" lon="1.88391">
        <ele>383.4</ele>
        <time>2023-08-15T13:35:48Z</time>
      </trkpt>
      <trkpt lat="43.05769" lon="1.88407">
        <ele>384</ele>
        <time>2023-08-15T13:35:52Z</time>
      </trkpt>
      <trkpt lat="43.05745" lon="1.88423">
        <ele>384.4</ele>
        <time>2023-08-15T13:35:56Z</time>
      </trkpt>
      <trkpt lat="43.05727" lon="1.88434">
        <ele>384.4</ele>
        <time>2023-08-15T13:35:59Z</time>
      </trkpt>
      <trkpt lat="43.0571" lon="1.88445">
        <ele>384.6</ele>
        <time>2023-08-15T13:36:02Z</time>
      </trkpt>
      <trkpt lat="43.05685" lon="1.88462">
        <ele>384.5</ele>
        <time>2023-08-15T13:36:06Z</time>
      </trkpt>
      <trkpt lat="43.05667" lon="1.88473">
        <ele>384.9</ele>
        <time>2023-08-15T13:36:09Z</time>
      </trkpt>
      <trkpt lat="43.05643" lon="1.88489">
        <ele>385.1</ele>
        <time>2023-08-15T13:36:13Z</time>
      </trkpt>
      <trkpt lat="43.0562" lon="1.88504">
        <ele>385.7</ele>
        <time>2023-08-15T13:36:17Z</time>
      </trkpt>
      <trkpt lat="43.05595" lon="1.88518">
        <ele>386.1</ele>
        <time>2023-08-15T13:36:21Z</time>
      </trkpt>
      <trkpt lat="43.05577" lon="1.88528">
        <ele>386.6</ele>
        <time>2023-08-15T13:36:24Z</time>
      </trkpt>
      <trkpt lat="43.05552" lon="1.88541">
        <ele>386.9</ele>
        <time>2023-08-15T13:36:28Z</time>
      </trkpt>
      <trkpt lat="43.05528" lon="1.88554">
        <ele>387.3</ele>
        <time>2023-08-15T13:36:32Z</time>
      </trkpt>
      <trkpt lat="43.05503" lon="1.88567">
        <ele>387.1</ele>
        <time>2023-08-15T13:36:36Z</time>
      </trkpt>
      <trkpt lat="43.05478" lon="1.88581">
        <ele>387.4</ele>
        <time>2023-08-15T13:36:40Z</time>
      </trkpt>
      <trkpt lat="43.0546" lon="1.88591">
        <ele>388</ele>
        <time>2023-08-15T13:36:43Z</time>
      </trkpt>
      <trkpt lat="43.05441" lon="1.88601">
        <ele>388.3</ele>
        <time>2023-08-15T13:36:46Z</time>
      </trkpt>
      <trkpt lat="43.05417" lon="1.88615">
        <ele>388.9</ele>
        <time>2023-08-15T13:36:50Z</time>
      </trkpt>
      <trkpt lat="43.05392" lon="1.8863">
        <ele>389.4</ele>
        <time>2023-08-15T13:36:54Z</time>
      </trkpt>
      <trkpt lat="43.05375" lon="1.88641">
        <ele>389.1</ele>
        <time>2023-08-15T13:36:57Z</time>
      </trkpt>
      <trkpt lat="43.05358" lon="1.88652">
        <ele>389.5</ele>
        <time>2023-08-15T13:37:01Z</time>
      </trkpt>
      <trkpt lat="43.05348" lon="1.88659">
        <ele>389.5</ele>
        <time>2023-08-15T13:37:04Z</time>
      </trkpt>
      <trkpt lat="43.0533" lon="1.88672">
        <ele>391.4</ele>
        <time>2023-08-15T13:37:08Z</time>
      </trkpt>
      <trkpt lat="43.05309" lon="1.88688">
        <ele>390.4</ele>
        <time>2023-08-15T13:37:12Z</time>
      </trkpt>
      <trkpt lat="43.0529" lon="1.88705">
        <ele>391.1</ele>
        <time>2023-08-15T13:37:15Z</time>
      </trkpt>
      <trkpt lat="43.05267" lon="1.88726">
        <ele>391.6</ele>
        <time>2023-08-15T13:37:19Z</time>
      </trkpt>
      <trkpt lat="43.05251" lon="1.88743">
        <ele>393.4</ele>
        <time>2023-08-15T13:37:22Z</time>
      </trkpt>
      <trkpt lat="43.05235" lon="1.88759">
        <ele>393.4</ele>
        <time>2023-08-15T13:37:25Z</time>
      </trkpt>
      <trkpt lat="43.05215" lon="1.88782">
        <ele>393.4</ele>
        <time>2023-08-15T13:37:29Z</time>
      </trkpt>
      <trkpt lat="43.05193" lon="1.88803">
        <ele>393.4</ele>
        <time>2023-08-15T13:37:33Z</time>
      </trkpt>
      <trkpt lat="43.05178" lon="1.88818">
        <ele>393.4</ele>
        <time>2023-08-15T13:37:36Z</time>
      </trkpt>
      <trkpt lat="43.05156" lon="1.8884">
        <ele>393.4</ele>
        <time>2023-08-15T13:37:40Z</time>
      </trkpt>
      <trkpt lat="43.05136" lon="1.88861">
        <ele>393.4</ele>
        <time>2023-08-15T13:37:44Z</time>
      </trkpt>
      <trkpt lat="43.0512" lon="1.88877">
        <ele>393.4</ele>
        <time>2023-08-15T13:37:47Z</time>
      </trkpt>
      <trkpt lat="43.05099" lon="1.88899">
        <ele>393.4</ele>
        <time>2023-08-15T13:37:51Z</time>
      </trkpt>
      <trkpt lat="43.05077" lon="1.88922">
        <ele>393.4</ele>
        <time>2023-08-15T13:37:55Z</time>
      </trkpt>
      <trkpt lat="43.05056" lon="1.88944">
        <ele>393.4</ele>
        <time>2023-08-15T13:37:59Z</time>
      </trkpt>
      <trkpt lat="43.05035" lon="1.88965">
        <ele>393.4</ele>
        <time>2023-08-15T13:38:03Z</time>
      </trkpt>
      <trkpt lat="43.05019" lon="1.88982">
        <ele>393.4</ele>
        <time>2023-08-15T13:38:06Z</time>
      </trkpt>
      <trkpt lat="43.04998" lon="1.89002">
        <ele>393.4</ele>
        <time>2023-08-15T13:38:10Z</time>
      </trkpt>
      <trkpt lat="43.04977" lon="1.89024">
        <ele>393.4</ele>
        <time>2023-08-15T13:38:14Z</time>
      </trkpt>
      <trkpt lat="43.04961" lon="1.8904">
        <ele>393.4</ele>
        <time>2023-08-15T13:38:17Z</time>
      </trkpt>
      <trkpt lat="43.0494" lon="1.89062">
        <ele>393.4</ele>
        <time>2023-08-15T13:38:21Z</time>
      </trkpt>
      <trkpt lat="43.04918" lon="1.89085">
        <ele>395.2</ele>
        <time>2023-08-15T13:38:25Z</time>
      </trkpt>
      <trkpt lat="43.04897" lon="1.89107">
        <ele>393.4</ele>
        <time>2023-08-15T13:38:29Z</time>
      </trkpt>
      <trkpt lat="43.04876" lon="1.89129">
        <ele>395.2</ele>
        <time>2023-08-15T13:38:33Z</time>
      </trkpt>
      <trkpt lat="43.0486" lon="1.89146">
        <ele>395.3</ele>
        <time>2023-08-15T13:38:36Z</time>
      </trkpt>
      <trkpt lat="43.04839" lon="1.89168">
        <ele>396.1</ele>
        <time>2023-08-15T13:38:40Z</time>
      </trkpt>
      <trkpt lat="43.04824" lon="1.89185">
        <ele>396.3</ele>
        <time>2023-08-15T13:38:43Z</time>
      </trkpt>
      <trkpt lat="43.04808" lon="1.89201">
        <ele>396.8</ele>
        <time>2023-08-15T13:38:46Z</time>
      </trkpt>
      <trkpt lat="43.04787" lon="1.89223">
        <ele>397.1</ele>
        <time>2023-08-15T13:38:50Z</time>
      </trkpt>
      <trkpt lat="43.04772" lon="1.8924">
        <ele>397.5</ele>
        <time>2023-08-15T13:38:53Z</time>
      </trkpt>
      <trkpt lat="43.04751" lon="1.89263">
        <ele>397.5</ele>
        <time>2023-08-15T13:38:57Z</time>
      </trkpt>
      <trkpt lat="43.04731" lon="1.89285">
        <ele>397.5</ele>
        <time>2023-08-15T13:39:01Z</time>
      </trkpt>
      <trkpt lat="43.04715" lon="1.89301">
        <ele>398.2</ele>
        <time>2023-08-15T13:39:04Z</time>
      </trkpt>
      <trkpt lat="43.04693" lon="1.89322">
        <ele>398.5</ele>
        <time>2023-08-15T13:39:08Z</time>
      </trkpt>
      <trkpt lat="43.04672" lon="1.89344">
        <ele>398.9</ele>
        <time>2023-08-15T13:39:12Z</time>
      </trkpt>
      <trkpt lat="43.04656" lon="1.8936">
        <ele>398.8</ele>
        <time>2023-08-15T13:39:15Z</time>
      </trkpt>
      <trkpt lat="43.04634" lon="1.8938">
        <ele>398.5</ele>
        <time>2023-08-15T13:39:19Z</time>
      </trkpt>
      <trkpt lat="43.04611" lon="1.89401">
        <ele>399</ele>
        <time>2023-08-15T13:39:23Z</time>
      </trkpt>
      <trkpt lat="43.04589" lon="1.8942">
        <ele>399.9</ele>
        <time>2023-08-15T13:39:27Z</time>
      </trkpt>
      <trkpt lat="43.04566" lon="1.89439">
        <ele>400.3</ele>
        <time>2023-08-15T13:39:31Z</time>
      </trkpt>
      <trkpt lat="43.04542" lon="1.89456">
        <ele>400.5</ele>
        <time>2023-08-15T13:39:35Z</time>
      </trkpt>
      <trkpt lat="43.04519" lon="1.89473">
        <ele>400.5</ele>
        <time>2023-08-15T13:39:39Z</time>
      </trkpt>
      <trkpt lat="43.04495" lon="1.89489">
        <ele>401.1</ele>
        <time>2023-08-15T13:39:43Z</time>
      </trkpt>
      <trkpt lat="43.04476" lon="1.895">
        <ele>401.4</ele>
        <time>2023-08-15T13:39:46Z</time>
      </trkpt>
      <trkpt lat="43.04458" lon="1.8951">
        <ele>401.9</ele>
        <time>2023-08-15T13:39:49Z</time>
      </trkpt>
      <trkpt lat="43.04433" lon="1.89523">
        <ele>402.2</ele>
        <time>2023-08-15T13:39:53Z</time>
      </trkpt>
      <trkpt lat="43.04409" lon="1.89537">
        <ele>402.5</ele>
        <time>2023-08-15T13:39:57Z</time>
      </trkpt>
      <trkpt lat="43.04385" lon="1.8955">
        <ele>402.4</ele>
        <time>2023-08-15T13:40:01Z</time>
      </trkpt>
      <trkpt lat="43.04366" lon="1.8956">
        <ele>402.7</ele>
        <time>2023-08-15T13:40:04Z</time>
      </trkpt>
      <trkpt lat="43.04348" lon="1.89571">
        <ele>403</ele>
        <time>2023-08-15T13:40:07Z</time>
      </trkpt>
      <trkpt lat="43.04323" lon="1.89585">
        <ele>402.8</ele>
        <time>2023-08-15T13:40:11Z</time>
      </trkpt>
      <trkpt lat="43.04299" lon="1.89597">
        <ele>403.1</ele>
        <time>2023-08-15T13:40:15Z</time>
      </trkpt>
      <trkpt lat="43.04275" lon="1.8961">
        <ele>403.3</ele>
        <time>2023-08-15T13:40:19Z</time>
      </trkpt>
      <trkpt lat="43.04256" lon="1.8962">
        <ele>403.7</ele>
        <time>2023-08-15T13:40:22Z</time>
      </trkpt>
      <trkpt lat="43.04232" lon="1.89635">
        <ele>404</ele>
        <time>2023-08-15T13:40:26Z</time>
      </trkpt>
      <trkpt lat="43.04214" lon="1.89646">
        <ele>404</ele>
        <time>2023-08-15T13:40:29Z</time>
      </trkpt>
      <trkpt lat="43.04196" lon="1.89656">
        <ele>404</ele>
        <time>2023-08-15T13:40:32Z</time>
      </trkpt>
      <trkpt lat="43.04171" lon="1.8967">
        <ele>404.6</ele>
        <time>2023-08-15T13:40:36Z</time>
      </trkpt>
      <trkpt lat="43.04153" lon="1.8968">
        <ele>404.7</ele>
        <time>2023-08-15T13:40:39Z</time>
      </trkpt>
      <trkpt lat="43.04134" lon="1.89691">
        <ele>405.2</ele>
        <time>2023-08-15T13:40:42Z</time>
      </trkpt>
      <trkpt lat="43.04116" lon="1.89701">
        <ele>405.3</ele>
        <time>2023-08-15T13:40:45Z</time>
      </trkpt>
      <trkpt lat="43.04091" lon="1.89713">
        <ele>405.9</ele>
        <time>2023-08-15T13:40:49Z</time>
      </trkpt>
      <trkpt lat="43.04065" lon="1.89722">
        <ele>406.3</ele>
        <time>2023-08-15T13:40:53Z</time>
      </trkpt>
      <trkpt lat="43.0404" lon="1.8973">
        <ele>406.5</ele>
        <time>2023-08-15T13:40:57Z</time>
      </trkpt>
      <trkpt lat="43.04014" lon="1.89738">
        <ele>406.8</ele>
        <time>2023-08-15T13:41:01Z</time>
      </trkpt>
      <trkpt lat="43.03988" lon="1.89747">
        <ele>406.7</ele>
        <time>2023-08-15T13:41:05Z</time>
      </trkpt>
      <trkpt lat="43.03962" lon="1.89753">
        <ele>406.8</ele>
        <time>2023-08-15T13:41:09Z</time>
      </trkpt>
      <trkpt lat="43.03936" lon="1.8976">
        <ele>407.3</ele>
        <time>2023-08-15T13:41:13Z</time>
      </trkpt>
      <trkpt lat="43.03917" lon="1.89764">
        <ele>407.5</ele>
        <time>2023-08-15T13:41:16Z</time>
      </trkpt>
      <trkpt lat="43.0389" lon="1.89767">
        <ele>408</ele>
        <time>2023-08-15T13:41:20Z</time>
      </trkpt>
      <trkpt lat="43.03864" lon="1.89768">
        <ele>408.4</ele>
        <time>2023-08-15T13:41:24Z</time>
      </trkpt>
      <trkpt lat="43.03844" lon="1.89767">
        <ele>408.6</ele>
        <time>2023-08-15T13:41:27Z</time>
      </trkpt>
      <trkpt lat="43.03817" lon="1.89765">
        <ele>408.9</ele>
        <time>2023-08-15T13:41:31Z</time>
      </trkpt>
      <trkpt lat="43.03791" lon="1.89763">
        <ele>409.1</ele>
        <time>2023-08-15T13:41:35Z</time>
      </trkpt>
      <trkpt lat="43.03771" lon="1.89762">
        <ele>409.2</ele>
        <time>2023-08-15T13:41:38Z</time>
      </trkpt>
      <trkpt lat="43.03745" lon="1.8976">
        <ele>409.5</ele>
        <time>2023-08-15T13:41:42Z</time>
      </trkpt>
      <trkpt lat="43.03718" lon="1.89758">
        <ele>410.2</ele>
        <time>2023-08-15T13:41:46Z</time>
      </trkpt>
      <trkpt lat="43.03691" lon="1.89756">
        <ele>410.4</ele>
        <time>2023-08-15T13:41:50Z</time>
      </trkpt>
      <trkpt lat="43.03672" lon="1.89754">
        <ele>410.7</ele>
        <time>2023-08-15T13:41:53Z</time>
      </trkpt>
      <trkpt lat="43.03645" lon="1.89751">
        <ele>411</ele>
        <time>2023-08-15T13:41:57Z</time>
      </trkpt>
      <trkpt lat="43.03618" lon="1.89748">
        <ele>411.4</ele>
        <time>2023-08-15T13:42:01Z</time>
      </trkpt>
      <trkpt lat="43.03599" lon="1.89745">
        <ele>411.8</ele>
        <time>2023-08-15T13:42:04Z</time>
      </trkpt>
      <trkpt lat="43.03572" lon="1.89741">
        <ele>412.1</ele>
        <time>2023-08-15T13:42:08Z</time>
      </trkpt>
      <trkpt lat="43.03553" lon="1.89738">
        <ele>412.4</ele>
        <time>2023-08-15T13:42:11Z</time>
      </trkpt>
      <trkpt lat="43.03527" lon="1.89733">
        <ele>412.9</ele>
        <time>2023-08-15T13:42:15Z</time>
      </trkpt>
      <trkpt lat="43.03501" lon="1.89729">
        <ele>413.1</ele>
        <time>2023-08-15T13:42:19Z</time>
      </trkpt>
      <trkpt lat="43.03474" lon="1.89726">
        <ele>413.4</ele>
        <time>2023-08-15T13:42:23Z</time>
      </trkpt>
      <trkpt lat="43.03454" lon="1.89725">
        <ele>414.1</ele>
        <time>2023-08-15T13:42:26Z</time>
      </trkpt>
      <trkpt lat="43.03428" lon="1.89722">
        <ele>413.9</ele>
        <time>2023-08-15T13:42:30Z</time>
      </trkpt>
      <trkpt lat="43.03408" lon="1.89719">
        <ele>413.9</ele>
        <time>2023-08-15T13:42:33Z</time>
      </trkpt>
      <trkpt lat="43.03382" lon="1.89715">
        <ele>414.4</ele>
        <time>2023-08-15T13:42:37Z</time>
      </trkpt>
      <trkpt lat="43.03356" lon="1.8971">
        <ele>414.7</ele>
        <time>2023-08-15T13:42:41Z</time>
      </trkpt>
      <trkpt lat="43.03336" lon="1.89707">
        <ele>415.1</ele>
        <time>2023-08-15T13:42:44Z</time>
      </trkpt>
      <trkpt lat="43.0331" lon="1.89703">
        <ele>415.2</ele>
        <time>2023-08-15T13:42:48Z</time>
      </trkpt>
      <trkpt lat="43.03284" lon="1.89699">
        <ele>415.6</ele>
        <time>2023-08-15T13:42:52Z</time>
      </trkpt>
      <trkpt lat="43.03265" lon="1.89696">
        <ele>415.9</ele>
        <time>2023-08-15T13:42:55Z</time>
      </trkpt>
      <trkpt lat="43.03245" lon="1.89693">
        <ele>416.4</ele>
        <time>2023-08-15T13:42:58Z</time>
      </trkpt>
      <trkpt lat="43.03219" lon="1.89689">
        <ele>416.7</ele>
        <time>2023-08-15T13:43:02Z</time>
      </trkpt>
      <trkpt lat="43.03199" lon="1.89686">
        <ele>416.7</ele>
        <time>2023-08-15T13:43:05Z</time>
      </trkpt>
      <trkpt lat="43.03172" lon="1.89684">
        <ele>416.9</ele>
        <time>2023-08-15T13:43:09Z</time>
      </trkpt>
      <trkpt lat="43.03145" lon="1.89681">
        <ele>417.1</ele>
        <time>2023-08-15T13:43:13Z</time>
      </trkpt>
      <trkpt lat="43.03125" lon="1.89679">
        <ele>417.3</ele>
        <time>2023-08-15T13:43:16Z</time>
      </trkpt>
      <trkpt lat="43.03105" lon="1.89676">
        <ele>417.3</ele>
        <time>2023-08-15T13:43:19Z</time>
      </trkpt>
      <trkpt lat="43.03079" lon="1.89672">
        <ele>417.6</ele>
        <time>2023-08-15T13:43:23Z</time>
      </trkpt>
      <trkpt lat="43.03053" lon="1.89669">
        <ele>417.7</ele>
        <time>2023-08-15T13:43:27Z</time>
      </trkpt>
      <trkpt lat="43.03027" lon="1.89665">
        <ele>418</ele>
        <time>2023-08-15T13:43:31Z</time>
      </trkpt>
      <trkpt lat="43.03007" lon="1.89663">
        <ele>417.9</ele>
        <time>2023-08-15T13:43:34Z</time>
      </trkpt>
      <trkpt lat="43.02987" lon="1.89661">
        <ele>417.5</ele>
        <time>2023-08-15T13:43:37Z</time>
      </trkpt>
      <trkpt lat="43.0296" lon="1.89657">
        <ele>418.3</ele>
        <time>2023-08-15T13:43:41Z</time>
      </trkpt>
      <trkpt lat="43.02941" lon="1.89653">
        <ele>418.9</ele>
        <time>2023-08-15T13:43:44Z</time>
      </trkpt>
      <trkpt lat="43.02915" lon="1.8965">
        <ele>419</ele>
        <time>2023-08-15T13:43:48Z</time>
      </trkpt>
      <trkpt lat="43.02895" lon="1.89647">
        <ele>419.2</ele>
        <time>2023-08-15T13:43:51Z</time>
      </trkpt>
      <trkpt lat="43.02868" lon="1.89643">
        <ele>419.4</ele>
        <time>2023-08-15T13:43:55Z</time>
      </trkpt>
      <trkpt lat="43.02842" lon="1.89637">
        <ele>419.6</ele>
        <time>2023-08-15T13:43:59Z</time>
      </trkpt>
      <trkpt lat="43.02823" lon="1.89631">
        <ele>420.2</ele>
        <time>2023-08-15T13:44:02Z</time>
      </trkpt>
      <trkpt lat="43.02804" lon="1.89623">
        <ele>420.8</ele>
        <time>2023-08-15T13:44:05Z</time>
      </trkpt>
      <trkpt lat="43.02785" lon="1.89614">
        <ele>420.6</ele>
        <time>2023-08-15T13:44:08Z</time>
      </trkpt>
      <trkpt lat="43.0276" lon="1.89601">
        <ele>421</ele>
        <time>2023-08-15T13:44:12Z</time>
      </trkpt>
      <trkpt lat="43.02742" lon="1.8959">
        <ele>420.8</ele>
        <time>2023-08-15T13:44:15Z</time>
      </trkpt>
      <trkpt lat="43.02718" lon="1.89576">
        <ele>421.8</ele>
        <time>2023-08-15T13:44:19Z</time>
      </trkpt>
      <trkpt lat="43.027" lon="1.89564">
        <ele>421.7</ele>
        <time>2023-08-15T13:44:22Z</time>
      </trkpt>
      <trkpt lat="43.02675" lon="1.89549">
        <ele>422</ele>
        <time>2023-08-15T13:44:26Z</time>
      </trkpt>
      <trkpt lat="43.02657" lon="1.89537">
        <ele>422.2</ele>
        <time>2023-08-15T13:44:29Z</time>
      </trkpt>
      <trkpt lat="43.02633" lon="1.89522">
        <ele>422.4</ele>
        <time>2023-08-15T13:44:33Z</time>
      </trkpt>
      <trkpt lat="43.02608" lon="1.89507">
        <ele>422.8</ele>
        <time>2023-08-15T13:44:37Z</time>
      </trkpt>
      <trkpt lat="43.02591" lon="1.89495">
        <ele>423.1</ele>
        <time>2023-08-15T13:44:40Z</time>
      </trkpt>
      <trkpt lat="43.02568" lon="1.89479">
        <ele>423</ele>
        <time>2023-08-15T13:44:44Z</time>
      </trkpt>
      <trkpt lat="43.02544" lon="1.89463">
        <ele>423.6</ele>
        <time>2023-08-15T13:44:48Z</time>
      </trkpt>
      <trkpt lat="43.0252" lon="1.89448">
        <ele>423.5</ele>
        <time>2023-08-15T13:44:52Z</time>
      </trkpt>
      <trkpt lat="43.02502" lon="1.89437">
        <ele>423.6</ele>
        <time>2023-08-15T13:44:55Z</time>
      </trkpt>
      <trkpt lat="43.02478" lon="1.89421">
        <ele>423.8</ele>
        <time>2023-08-15T13:44:59Z</time>
      </trkpt>
      <trkpt lat="43.02461" lon="1.89409">
        <ele>424</ele>
        <time>2023-08-15T13:45:02Z</time>
      </trkpt>
      <trkpt lat="43.02443" lon="1.89399">
        <ele>425.2</ele>
        <time>2023-08-15T13:45:05Z</time>
      </trkpt>
      <trkpt lat="43.02418" lon="1.89386">
        <ele>425.8</ele>
        <time>2023-08-15T13:45:09Z</time>
      </trkpt>
      <trkpt lat="43.02399" lon="1.89378">
        <ele>425.5</ele>
        <time>2023-08-15T13:45:12Z</time>
      </trkpt>
      <trkpt lat="43.02379" lon="1.89371">
        <ele>426.5</ele>
        <time>2023-08-15T13:45:15Z</time>
      </trkpt>
      <trkpt lat="43.02354" lon="1.89361">
        <ele>427</ele>
        <time>2023-08-15T13:45:19Z</time>
      </trkpt>
      <trkpt lat="43.02335" lon="1.89354">
        <ele>427.2</ele>
        <time>2023-08-15T13:45:22Z</time>
      </trkpt>
      <trkpt lat="43.02316" lon="1.89348">
        <ele>427.4</ele>
        <time>2023-08-15T13:45:25Z</time>
      </trkpt>
      <trkpt lat="43.02291" lon="1.89339">
        <ele>426.6</ele>
        <time>2023-08-15T13:45:29Z</time>
      </trkpt>
      <trkpt lat="43.02264" lon="1.89329">
        <ele>428</ele>
        <time>2023-08-15T13:45:33Z</time>
      </trkpt>
      <trkpt lat="43.02244" lon="1.89323">
        <ele>428.3</ele>
        <time>2023-08-15T13:45:36Z</time>
      </trkpt>
      <trkpt lat="43.0222" lon="1.89313">
        <ele>428.6</ele>
        <time>2023-08-15T13:45:40Z</time>
      </trkpt>
      <trkpt lat="43.02201" lon="1.89306">
        <ele>428.8</ele>
        <time>2023-08-15T13:45:43Z</time>
      </trkpt>
      <trkpt lat="43.02181" lon="1.89299">
        <ele>428.8</ele>
        <time>2023-08-15T13:45:46Z</time>
      </trkpt>
      <trkpt lat="43.02162" lon="1.89292">
        <ele>429.3</ele>
        <time>2023-08-15T13:45:49Z</time>
      </trkpt>
      <trkpt lat="43.02136" lon="1.89283">
        <ele>429.3</ele>
        <time>2023-08-15T13:45:53Z</time>
      </trkpt>
      <trkpt lat="43.0211" lon="1.89275">
        <ele>428.7</ele>
        <time>2023-08-15T13:45:57Z</time>
      </trkpt>
      <trkpt lat="43.02085" lon="1.89266">
        <ele>430.3</ele>
        <time>2023-08-15T13:46:01Z</time>
      </trkpt>
      <trkpt lat="43.02059" lon="1.89257">
        <ele>431</ele>
        <time>2023-08-15T13:46:05Z</time>
      </trkpt>
      <trkpt lat="43.02034" lon="1.89245">
        <ele>431.5</ele>
        <time>2023-08-15T13:46:09Z</time>
      </trkpt>
      <trkpt lat="43.02009" lon="1.89232">
        <ele>431.9</ele>
        <time>2023-08-15T13:46:13Z</time>
      </trkpt>
      <trkpt lat="43.01985" lon="1.8922">
        <ele>432.3</ele>
        <time>2023-08-15T13:46:17Z</time>
      </trkpt>
      <trkpt lat="43.01966" lon="1.89211">
        <ele>433.2</ele>
        <time>2023-08-15T13:46:20Z</time>
      </trkpt>
      <trkpt lat="43.01941" lon="1.892">
        <ele>432.3</ele>
        <time>2023-08-15T13:46:24Z</time>
      </trkpt>
      <trkpt lat="43.01923" lon="1.89192">
        <ele>432.3</ele>
        <time>2023-08-15T13:46:27Z</time>
      </trkpt>
      <trkpt lat="43.01904" lon="1.89183">
        <ele>432.9</ele>
        <time>2023-08-15T13:46:30Z</time>
      </trkpt>
      <trkpt lat="43.01878" lon="1.89171">
        <ele>433.3</ele>
        <time>2023-08-15T13:46:34Z</time>
      </trkpt>
      <trkpt lat="43.01853" lon="1.89159">
        <ele>433.4</ele>
        <time>2023-08-15T13:46:38Z</time>
      </trkpt>
      <trkpt lat="43.01828" lon="1.89148">
        <ele>434.2</ele>
        <time>2023-08-15T13:46:42Z</time>
      </trkpt>
      <trkpt lat="43.0181" lon="1.89139">
        <ele>433.8</ele>
        <time>2023-08-15T13:46:45Z</time>
      </trkpt>
      <trkpt lat="43.01785" lon="1.89127">
        <ele>435.3</ele>
        <time>2023-08-15T13:46:49Z</time>
      </trkpt>
      <trkpt lat="43.0176" lon="1.89115">
        <ele>435.8</ele>
        <time>2023-08-15T13:46:53Z</time>
      </trkpt>
      <trkpt lat="43.01741" lon="1.89106">
        <ele>436.2</ele>
        <time>2023-08-15T13:46:56Z</time>
      </trkpt>
      <trkpt lat="43.01716" lon="1.89094">
        <ele>437.5</ele>
        <time>2023-08-15T13:47:00Z</time>
      </trkpt>
      <trkpt lat="43.01697" lon="1.89084">
        <ele>438.7</ele>
        <time>2023-08-15T13:47:03Z</time>
      </trkpt>
      <trkpt lat="43.01678" lon="1.89075">
        <ele>439.2</ele>
        <time>2023-08-15T13:47:06Z</time>
      </trkpt>
      <trkpt lat="43.01659" lon="1.89066">
        <ele>439.3</ele>
        <time>2023-08-15T13:47:09Z</time>
      </trkpt>
      <trkpt lat="43.01634" lon="1.89055">
        <ele>439.3</ele>
        <time>2023-08-15T13:47:13Z</time>
      </trkpt>
      <trkpt lat="43.01609" lon="1.89044">
        <ele>440.5</ele>
        <time>2023-08-15T13:47:17Z</time>
      </trkpt>
      <trkpt lat="43.01583" lon="1.89033">
        <ele>440.6</ele>
        <time>2023-08-15T13:47:21Z</time>
      </trkpt>
      <trkpt lat="43.01558" lon="1.89022">
        <ele>440.3</ele>
        <time>2023-08-15T13:47:25Z</time>
      </trkpt>
      <trkpt lat="43.01539" lon="1.89013">
        <ele>440.6</ele>
        <time>2023-08-15T13:47:28Z</time>
      </trkpt>
      <trkpt lat="43.01521" lon="1.89004">
        <ele>440.5</ele>
        <time>2023-08-15T13:47:31Z</time>
      </trkpt>
      <trkpt lat="43.01502" lon="1.88993">
        <ele>440.6</ele>
        <time>2023-08-15T13:47:34Z</time>
      </trkpt>
      <trkpt lat="43.01478" lon="1.88978">
        <ele>440.8</ele>
        <time>2023-08-15T13:47:38Z</time>
      </trkpt>
      <trkpt lat="43.01453" lon="1.88963">
        <ele>441</ele>
        <time>2023-08-15T13:47:42Z</time>
      </trkpt>
      <trkpt lat="43.01435" lon="1.88951">
        <ele>440.9</ele>
        <time>2023-08-15T13:47:45Z</time>
      </trkpt>
      <trkpt lat="43.01411" lon="1.88936">
        <ele>440.5</ele>
        <time>2023-08-15T13:47:49Z</time>
      </trkpt>
      <trkpt lat="43.01388" lon="1.88921">
        <ele>440.5</ele>
        <time>2023-08-15T13:47:53Z</time>
      </trkpt>
      <trkpt lat="43.01369" lon="1.8891">
        <ele>440.2</ele>
        <time>2023-08-15T13:47:56Z</time>
      </trkpt>
      <trkpt lat="43.01352" lon="1.88899">
        <ele>440.6</ele>
        <time>2023-08-15T13:47:59Z</time>
      </trkpt>
      <trkpt lat="43.01329" lon="1.88881">
        <ele>440.7</ele>
        <time>2023-08-15T13:48:03Z</time>
      </trkpt>
      <trkpt lat="43.01308" lon="1.88862">
        <ele>440.7</ele>
        <time>2023-08-15T13:48:07Z</time>
      </trkpt>
      <trkpt lat="43.01286" lon="1.88841">
        <ele>441.2</ele>
        <time>2023-08-15T13:48:11Z</time>
      </trkpt>
      <trkpt lat="43.01269" lon="1.88825">
        <ele>440.6</ele>
        <time>2023-08-15T13:48:14Z</time>
      </trkpt>
      <trkpt lat="43.01248" lon="1.88803">
        <ele>439.8</ele>
        <time>2023-08-15T13:48:18Z</time>
      </trkpt>
      <trkpt lat="43.01226" lon="1.88783">
        <ele>439.4</ele>
        <time>2023-08-15T13:48:22Z</time>
      </trkpt>
      <trkpt lat="43.01203" lon="1.88765">
        <ele>440</ele>
        <time>2023-08-15T13:48:26Z</time>
      </trkpt>
      <trkpt lat="43.01185" lon="1.88752">
        <ele>440.7</ele>
        <time>2023-08-15T13:48:29Z</time>
      </trkpt>
      <trkpt lat="43.01162" lon="1.88736">
        <ele>440.3</ele>
        <time>2023-08-15T13:48:33Z</time>
      </trkpt>
      <trkpt lat="43.01138" lon="1.8872">
        <ele>440</ele>
        <time>2023-08-15T13:48:37Z</time>
      </trkpt>
      <trkpt lat="43.01113" lon="1.88706">
        <ele>440.3</ele>
        <time>2023-08-15T13:48:41Z</time>
      </trkpt>
      <trkpt lat="43.01089" lon="1.88691">
        <ele>441.5</ele>
        <time>2023-08-15T13:48:45Z</time>
      </trkpt>
      <trkpt lat="43.0107" lon="1.8868">
        <ele>441.5</ele>
        <time>2023-08-15T13:48:48Z</time>
      </trkpt>
      <trkpt lat="43.01046" lon="1.88665">
        <ele>441.5</ele>
        <time>2023-08-15T13:48:52Z</time>
      </trkpt>
      <trkpt lat="43.01023" lon="1.88649">
        <ele>441.7</ele>
        <time>2023-08-15T13:48:56Z</time>
      </trkpt>
      <trkpt lat="43.01005" lon="1.88638">
        <ele>442</ele>
        <time>2023-08-15T13:48:59Z</time>
      </trkpt>
      <trkpt lat="43.00981" lon="1.88622">
        <ele>441.7</ele>
        <time>2023-08-15T13:49:03Z</time>
      </trkpt>
      <trkpt lat="43.00963" lon="1.8861">
        <ele>442.1</ele>
        <time>2023-08-15T13:49:06Z</time>
      </trkpt>
      <trkpt lat="43.00939" lon="1.88594">
        <ele>442.2</ele>
        <time>2023-08-15T13:49:10Z</time>
      </trkpt>
      <trkpt lat="43.00916" lon="1.88578">
        <ele>443.2</ele>
        <time>2023-08-15T13:49:14Z</time>
      </trkpt>
      <trkpt lat="43.00891" lon="1.88562">
        <ele>444.4</ele>
        <time>2023-08-15T13:49:18Z</time>
      </trkpt>
      <trkpt lat="43.00874" lon="1.8855">
        <ele>444.5</ele>
        <time>2023-08-15T13:49:21Z</time>
      </trkpt>
      <trkpt lat="43.0085" lon="1.88534">
        <ele>444.9</ele>
        <time>2023-08-15T13:49:25Z</time>
      </trkpt>
      <trkpt lat="43.00832" lon="1.88523">
        <ele>445.5</ele>
        <time>2023-08-15T13:49:28Z</time>
      </trkpt>
      <trkpt lat="43.00808" lon="1.88507">
        <ele>445.5</ele>
        <time>2023-08-15T13:49:32Z</time>
      </trkpt>
      <trkpt lat="43.00784" lon="1.88492">
        <ele>445.8</ele>
        <time>2023-08-15T13:49:36Z</time>
      </trkpt>
      <trkpt lat="43.0076" lon="1.88477">
        <ele>446.1</ele>
        <time>2023-08-15T13:49:40Z</time>
      </trkpt>
      <trkpt lat="43.00736" lon="1.88463">
        <ele>446.7</ele>
        <time>2023-08-15T13:49:44Z</time>
      </trkpt>
      <trkpt lat="43.00711" lon="1.88449">
        <ele>446.5</ele>
        <time>2023-08-15T13:49:48Z</time>
      </trkpt>
      <trkpt lat="43.00693" lon="1.8844">
        <ele>447.2</ele>
        <time>2023-08-15T13:49:51Z</time>
      </trkpt>
      <trkpt lat="43.00668" lon="1.88427">
        <ele>447.4</ele>
        <time>2023-08-15T13:49:55Z</time>
      </trkpt>
      <trkpt lat="43.00643" lon="1.88414">
        <ele>447.4</ele>
        <time>2023-08-15T13:49:59Z</time>
      </trkpt>
      <trkpt lat="43.00618" lon="1.88402">
        <ele>447.6</ele>
        <time>2023-08-15T13:50:03Z</time>
      </trkpt>
      <trkpt lat="43.00593" lon="1.8839">
        <ele>447.9</ele>
        <time>2023-08-15T13:50:07Z</time>
      </trkpt>
      <trkpt lat="43.00569" lon="1.88377">
        <ele>448.2</ele>
        <time>2023-08-15T13:50:11Z</time>
      </trkpt>
      <trkpt lat="43.0055" lon="1.88367">
        <ele>448.6</ele>
        <time>2023-08-15T13:50:14Z</time>
      </trkpt>
      <trkpt lat="43.00525" lon="1.88355">
        <ele>448.6</ele>
        <time>2023-08-15T13:50:18Z</time>
      </trkpt>
      <trkpt lat="43.005" lon="1.88343">
        <ele>448.8</ele>
        <time>2023-08-15T13:50:22Z</time>
      </trkpt>
      <trkpt lat="43.00481" lon="1.88334">
        <ele>449.4</ele>
        <time>2023-08-15T13:50:25Z</time>
      </trkpt>
      <trkpt lat="43.00463" lon="1.88325">
        <ele>449.6</ele>
        <time>2023-08-15T13:50:28Z</time>
      </trkpt>
      <trkpt lat="43.00437" lon="1.88313">
        <ele>449.9</ele>
        <time>2023-08-15T13:50:32Z</time>
      </trkpt>
      <trkpt lat="43.00413" lon="1.88301">
        <ele>449.2</ele>
        <time>2023-08-15T13:50:36Z</time>
      </trkpt>
      <trkpt lat="43.00388" lon="1.88289">
        <ele>449.5</ele>
        <time>2023-08-15T13:50:40Z</time>
      </trkpt>
      <trkpt lat="43.00369" lon="1.8828">
        <ele>450.3</ele>
        <time>2023-08-15T13:50:43Z</time>
      </trkpt>
      <trkpt lat="43.0035" lon="1.88271">
        <ele>450.5</ele>
        <time>2023-08-15T13:50:46Z</time>
      </trkpt>
      <trkpt lat="43.00325" lon="1.88258">
        <ele>450.8</ele>
        <time>2023-08-15T13:50:50Z</time>
      </trkpt>
      <trkpt lat="43.003" lon="1.88245">
        <ele>450.4</ele>
        <time>2023-08-15T13:50:54Z</time>
      </trkpt>
      <trkpt lat="43.00276" lon="1.88232">
        <ele>450.7</ele>
        <time>2023-08-15T13:50:58Z</time>
      </trkpt>
      <trkpt lat="43.00251" lon="1.8822">
        <ele>451.1</ele>
        <time>2023-08-15T13:51:02Z</time>
      </trkpt>
      <trkpt lat="43.00227" lon="1.88207">
        <ele>451.1</ele>
        <time>2023-08-15T13:51:06Z</time>
      </trkpt>
      <trkpt lat="43.00201" lon="1.88195">
        <ele>451.8</ele>
        <time>2023-08-15T13:51:10Z</time>
      </trkpt>
      <trkpt lat="43.00182" lon="1.88185">
        <ele>452.3</ele>
        <time>2023-08-15T13:51:13Z</time>
      </trkpt>
      <trkpt lat="43.00157" lon="1.88173">
        <ele>453.3</ele>
        <time>2023-08-15T13:51:17Z</time>
      </trkpt>
      <trkpt lat="43.00133" lon="1.88161">
        <ele>453</ele>
        <time>2023-08-15T13:51:21Z</time>
      </trkpt>
      <trkpt lat="43.00114" lon="1.88151">
        <ele>453</ele>
        <time>2023-08-15T13:51:24Z</time>
      </trkpt>
      <trkpt lat="43.00089" lon="1.88138">
        <ele>453.4</ele>
        <time>2023-08-15T13:51:28Z</time>
      </trkpt>
      <trkpt lat="43.00064" lon="1.88126">
        <ele>453.7</ele>
        <time>2023-08-15T13:51:32Z</time>
      </trkpt>
      <trkpt lat="43.00039" lon="1.88114">
        <ele>455</ele>
        <time>2023-08-15T13:51:36Z</time>
      </trkpt>
      <trkpt lat="43.00015" lon="1.88102">
        <ele>454.4</ele>
        <time>2023-08-15T13:51:40Z</time>
      </trkpt>
      <trkpt lat="42.9999" lon="1.88091">
        <ele>454.7</ele>
        <time>2023-08-15T13:51:44Z</time>
      </trkpt>
      <trkpt lat="42.99971" lon="1.88082">
        <ele>455.5</ele>
        <time>2023-08-15T13:51:47Z</time>
      </trkpt>
      <trkpt lat="42.99946" lon="1.8807">
        <ele>456.5</ele>
        <time>2023-08-15T13:51:51Z</time>
      </trkpt>
      <trkpt lat="42.99921" lon="1.88058">
        <ele>456.6</ele>
        <time>2023-08-15T13:51:55Z</time>
      </trkpt>
      <trkpt lat="42.99902" lon="1.88049">
        <ele>456.5</ele>
        <time>2023-08-15T13:51:58Z</time>
      </trkpt>
      <trkpt lat="42.99877" lon="1.88038">
        <ele>456.7</ele>
        <time>2023-08-15T13:52:02Z</time>
      </trkpt>
      <trkpt lat="42.99858" lon="1.88028">
        <ele>457.2</ele>
        <time>2023-08-15T13:52:05Z</time>
      </trkpt>
      <trkpt lat="42.9984" lon="1.88019">
        <ele>458.5</ele>
        <time>2023-08-15T13:52:08Z</time>
      </trkpt>
      <trkpt lat="42.99815" lon="1.88007">
        <ele>458.4</ele>
        <time>2023-08-15T13:52:12Z</time>
      </trkpt>
      <trkpt lat="42.99796" lon="1.87998">
        <ele>458.1</ele>
        <time>2023-08-15T13:52:15Z</time>
      </trkpt>
      <trkpt lat="42.99777" lon="1.87989">
        <ele>458.4</ele>
        <time>2023-08-15T13:52:18Z</time>
      </trkpt>
      <trkpt lat="42.99759" lon="1.8798">
        <ele>458.3</ele>
        <time>2023-08-15T13:52:21Z</time>
      </trkpt>
      <trkpt lat="42.99741" lon="1.8797">
        <ele>458.3</ele>
        <time>2023-08-15T13:52:24Z</time>
      </trkpt>
      <trkpt lat="42.99716" lon="1.87958">
        <ele>459.2</ele>
        <time>2023-08-15T13:52:28Z</time>
      </trkpt>
      <trkpt lat="42.99691" lon="1.87947">
        <ele>459.9</ele>
        <time>2023-08-15T13:52:32Z</time>
      </trkpt>
      <trkpt lat="42.99669" lon="1.87936">
        <ele>459.9</ele>
        <time>2023-08-15T13:52:36Z</time>
      </trkpt>
      <trkpt lat="42.99653" lon="1.8793">
        <ele>459.2</ele>
        <time>2023-08-15T13:52:39Z</time>
      </trkpt>
      <trkpt lat="42.99635" lon="1.87922">
        <ele>459.8</ele>
        <time>2023-08-15T13:52:43Z</time>
      </trkpt>
      <trkpt lat="42.99619" lon="1.87915">
        <ele>460.2</ele>
        <time>2023-08-15T13:52:46Z</time>
      </trkpt>
      <trkpt lat="42.99599" lon="1.87904">
        <ele>460.3</ele>
        <time>2023-08-15T13:52:50Z</time>
      </trkpt>
      <trkpt lat="42.99583" lon="1.87896">
        <ele>460.4</ele>
        <time>2023-08-15T13:52:54Z</time>
      </trkpt>
      <trkpt lat="42.99572" lon="1.87891">
        <ele>460.9</ele>
        <time>2023-08-15T13:52:57Z</time>
      </trkpt>
      <trkpt lat="42.99551" lon="1.87878">
        <ele>461.8</ele>
        <time>2023-08-15T13:53:01Z</time>
      </trkpt>
      <trkpt lat="42.99531" lon="1.87868">
        <ele>462</ele>
        <time>2023-08-15T13:53:04Z</time>
      </trkpt>
      <trkpt lat="42.99504" lon="1.87853">
        <ele>462</ele>
        <time>2023-08-15T13:53:08Z</time>
      </trkpt>
      <trkpt lat="42.99484" lon="1.87842">
        <ele>461.6</ele>
        <time>2023-08-15T13:53:11Z</time>
      </trkpt>
      <trkpt lat="42.9946" lon="1.87831">
        <ele>461.8</ele>
        <time>2023-08-15T13:53:15Z</time>
      </trkpt>
      <trkpt lat="42.99435" lon="1.87818">
        <ele>463.8</ele>
        <time>2023-08-15T13:53:19Z</time>
      </trkpt>
      <trkpt lat="42.9941" lon="1.87806">
        <ele>463.8</ele>
        <time>2023-08-15T13:53:23Z</time>
      </trkpt>
      <trkpt lat="42.99385" lon="1.87793">
        <ele>463.8</ele>
        <time>2023-08-15T13:53:27Z</time>
      </trkpt>
      <trkpt lat="42.99361" lon="1.8778">
        <ele>463.8</ele>
        <time>2023-08-15T13:53:31Z</time>
      </trkpt>
      <trkpt lat="42.99337" lon="1.87765">
        <ele>463.8</ele>
        <time>2023-08-15T13:53:35Z</time>
      </trkpt>
      <trkpt lat="42.99313" lon="1.87749">
        <ele>463.8</ele>
        <time>2023-08-15T13:53:39Z</time>
      </trkpt>
      <trkpt lat="42.99295" lon="1.87737">
        <ele>463.8</ele>
        <time>2023-08-15T13:53:42Z</time>
      </trkpt>
      <trkpt lat="42.99278" lon="1.87725">
        <ele>463.8</ele>
        <time>2023-08-15T13:53:45Z</time>
      </trkpt>
      <trkpt lat="42.99254" lon="1.87709">
        <ele>465.5</ele>
        <time>2023-08-15T13:53:49Z</time>
      </trkpt>
      <trkpt lat="42.9923" lon="1.87693">
        <ele>466.2</ele>
        <time>2023-08-15T13:53:53Z</time>
      </trkpt>
      <trkpt lat="42.99206" lon="1.87677">
        <ele>466.5</ele>
        <time>2023-08-15T13:53:57Z</time>
      </trkpt>
      <trkpt lat="42.99182" lon="1.87661">
        <ele>466.4</ele>
        <time>2023-08-15T13:54:01Z</time>
      </trkpt>
      <trkpt lat="42.99158" lon="1.87646">
        <ele>466.4</ele>
        <time>2023-08-15T13:54:05Z</time>
      </trkpt>
      <trkpt lat="42.99135" lon="1.87631">
        <ele>466</ele>
        <time>2023-08-15T13:54:09Z</time>
      </trkpt>
      <trkpt lat="42.99117" lon="1.87619">
        <ele>465.8</ele>
        <time>2023-08-15T13:54:12Z</time>
      </trkpt>
      <trkpt lat="42.99094" lon="1.87603">
        <ele>466.2</ele>
        <time>2023-08-15T13:54:16Z</time>
      </trkpt>
      <trkpt lat="42.99076" lon="1.87591">
        <ele>467.3</ele>
        <time>2023-08-15T13:54:19Z</time>
      </trkpt>
      <trkpt lat="42.99051" lon="1.87575">
        <ele>468</ele>
        <time>2023-08-15T13:54:23Z</time>
      </trkpt>
      <trkpt lat="42.99033" lon="1.87564">
        <ele>468.4</ele>
        <time>2023-08-15T13:54:26Z</time>
      </trkpt>
      <trkpt lat="42.99009" lon="1.87548">
        <ele>468.3</ele>
        <time>2023-08-15T13:54:30Z</time>
      </trkpt>
      <trkpt lat="42.98992" lon="1.87536">
        <ele>468.6</ele>
        <time>2023-08-15T13:54:33Z</time>
      </trkpt>
      <trkpt lat="42.98967" lon="1.8752">
        <ele>469.2</ele>
        <time>2023-08-15T13:54:37Z</time>
      </trkpt>
      <trkpt lat="42.98944" lon="1.87504">
        <ele>469.4</ele>
        <time>2023-08-15T13:54:41Z</time>
      </trkpt>
      <trkpt lat="42.9892" lon="1.87489">
        <ele>469.6</ele>
        <time>2023-08-15T13:54:45Z</time>
      </trkpt>
      <trkpt lat="42.98902" lon="1.87477">
        <ele>470.1</ele>
        <time>2023-08-15T13:54:48Z</time>
      </trkpt>
      <trkpt lat="42.98878" lon="1.87462">
        <ele>470.2</ele>
        <time>2023-08-15T13:54:52Z</time>
      </trkpt>
      <trkpt lat="42.98854" lon="1.87446">
        <ele>470.5</ele>
        <time>2023-08-15T13:54:56Z</time>
      </trkpt>
      <trkpt lat="42.98831" lon="1.87431">
        <ele>470.8</ele>
        <time>2023-08-15T13:55:00Z</time>
      </trkpt>
      <trkpt lat="42.98813" lon="1.87419">
        <ele>471.3</ele>
        <time>2023-08-15T13:55:03Z</time>
      </trkpt>
      <trkpt lat="42.98795" lon="1.87407">
        <ele>471.5</ele>
        <time>2023-08-15T13:55:06Z</time>
      </trkpt>
      <trkpt lat="42.98771" lon="1.87391">
        <ele>472.2</ele>
        <time>2023-08-15T13:55:10Z</time>
      </trkpt>
      <trkpt lat="42.98747" lon="1.87376">
        <ele>472.3</ele>
        <time>2023-08-15T13:55:14Z</time>
      </trkpt>
      <trkpt lat="42.98723" lon="1.8736">
        <ele>473.7</ele>
        <time>2023-08-15T13:55:18Z</time>
      </trkpt>
      <trkpt lat="42.98706" lon="1.87348">
        <ele>474.2</ele>
        <time>2023-08-15T13:55:21Z</time>
      </trkpt>
      <trkpt lat="42.98682" lon="1.87331">
        <ele>474.1</ele>
        <time>2023-08-15T13:55:25Z</time>
      </trkpt>
      <trkpt lat="42.98659" lon="1.87314">
        <ele>474.6</ele>
        <time>2023-08-15T13:55:29Z</time>
      </trkpt>
      <trkpt lat="42.98635" lon="1.87297">
        <ele>475.5</ele>
        <time>2023-08-15T13:55:33Z</time>
      </trkpt>
      <trkpt lat="42.98611" lon="1.87282">
        <ele>475.3</ele>
        <time>2023-08-15T13:55:37Z</time>
      </trkpt>
      <trkpt lat="42.98594" lon="1.8727">
        <ele>475.6</ele>
        <time>2023-08-15T13:55:40Z</time>
      </trkpt>
      <trkpt lat="42.9857" lon="1.87254">
        <ele>476.2</ele>
        <time>2023-08-15T13:55:44Z</time>
      </trkpt>
      <trkpt lat="42.98552" lon="1.87242">
        <ele>476.6</ele>
        <time>2023-08-15T13:55:47Z</time>
      </trkpt>
      <trkpt lat="42.98534" lon="1.87231">
        <ele>477.1</ele>
        <time>2023-08-15T13:55:50Z</time>
      </trkpt>
      <trkpt lat="42.9851" lon="1.87216">
        <ele>477</ele>
        <time>2023-08-15T13:55:54Z</time>
      </trkpt>
      <trkpt lat="42.98492" lon="1.87205">
        <ele>477.1</ele>
        <time>2023-08-15T13:55:57Z</time>
      </trkpt>
      <trkpt lat="42.98467" lon="1.87191">
        <ele>478.1</ele>
        <time>2023-08-15T13:56:01Z</time>
      </trkpt>
      <trkpt lat="42.98443" lon="1.87176">
        <ele>477.9</ele>
        <time>2023-08-15T13:56:05Z</time>
      </trkpt>
      <trkpt lat="42.98419" lon="1.87161">
        <ele>477.7</ele>
        <time>2023-08-15T13:56:09Z</time>
      </trkpt>
      <trkpt lat="42.98401" lon="1.8715">
        <ele>478</ele>
        <time>2023-08-15T13:56:12Z</time>
      </trkpt>
      <trkpt lat="42.98383" lon="1.87138">
        <ele>478.6</ele>
        <time>2023-08-15T13:56:15Z</time>
      </trkpt>
      <trkpt lat="42.98359" lon="1.87122">
        <ele>480.2</ele>
        <time>2023-08-15T13:56:19Z</time>
      </trkpt>
      <trkpt lat="42.98342" lon="1.8711">
        <ele>480.5</ele>
        <time>2023-08-15T13:56:22Z</time>
      </trkpt>
      <trkpt lat="42.98318" lon="1.87095">
        <ele>479.4</ele>
        <time>2023-08-15T13:56:26Z</time>
      </trkpt>
      <trkpt lat="42.98295" lon="1.87078">
        <ele>482.1</ele>
        <time>2023-08-15T13:56:30Z</time>
      </trkpt>
      <trkpt lat="42.98271" lon="1.87062">
        <ele>481</ele>
        <time>2023-08-15T13:56:34Z</time>
      </trkpt>
      <trkpt lat="42.98253" lon="1.8705">
        <ele>480.9</ele>
        <time>2023-08-15T13:56:37Z</time>
      </trkpt>
      <trkpt lat="42.98235" lon="1.87039">
        <ele>481.5</ele>
        <time>2023-08-15T13:56:40Z</time>
      </trkpt>
      <trkpt lat="42.98212" lon="1.87023">
        <ele>482.4</ele>
        <time>2023-08-15T13:56:44Z</time>
      </trkpt>
      <trkpt lat="42.98187" lon="1.87007">
        <ele>482.7</ele>
        <time>2023-08-15T13:56:48Z</time>
      </trkpt>
      <trkpt lat="42.98169" lon="1.86995">
        <ele>482.9</ele>
        <time>2023-08-15T13:56:51Z</time>
      </trkpt>
      <trkpt lat="42.98146" lon="1.86979">
        <ele>482.3</ele>
        <time>2023-08-15T13:56:55Z</time>
      </trkpt>
      <trkpt lat="42.98122" lon="1.86963">
        <ele>483.4</ele>
        <time>2023-08-15T13:56:59Z</time>
      </trkpt>
      <trkpt lat="42.98104" lon="1.86951">
        <ele>483.6</ele>
        <time>2023-08-15T13:57:02Z</time>
      </trkpt>
      <trkpt lat="42.98086" lon="1.86939">
        <ele>483.4</ele>
        <time>2023-08-15T13:57:05Z</time>
      </trkpt>
      <trkpt lat="42.98068" lon="1.86926">
        <ele>484.1</ele>
        <time>2023-08-15T13:57:08Z</time>
      </trkpt>
      <trkpt lat="42.98043" lon="1.86912">
        <ele>484.7</ele>
        <time>2023-08-15T13:57:12Z</time>
      </trkpt>
      <trkpt lat="42.98018" lon="1.86901">
        <ele>485.4</ele>
        <time>2023-08-15T13:57:16Z</time>
      </trkpt>
      <trkpt lat="42.97992" lon="1.86895">
        <ele>485.5</ele>
        <time>2023-08-15T13:57:20Z</time>
      </trkpt>
      <trkpt lat="42.97972" lon="1.86891">
        <ele>484.8</ele>
        <time>2023-08-15T13:57:23Z</time>
      </trkpt>
      <trkpt lat="42.97947" lon="1.86886">
        <ele>485.1</ele>
        <time>2023-08-15T13:57:27Z</time>
      </trkpt>
      <trkpt lat="42.97927" lon="1.86883">
        <ele>485.1</ele>
        <time>2023-08-15T13:57:30Z</time>
      </trkpt>
      <trkpt lat="42.97901" lon="1.86877">
        <ele>485.5</ele>
        <time>2023-08-15T13:57:34Z</time>
      </trkpt>
      <trkpt lat="42.97881" lon="1.86872">
        <ele>485.9</ele>
        <time>2023-08-15T13:57:37Z</time>
      </trkpt>
      <trkpt lat="42.97861" lon="1.86866">
        <ele>485.7</ele>
        <time>2023-08-15T13:57:40Z</time>
      </trkpt>
      <trkpt lat="42.97836" lon="1.86859">
        <ele>485.6</ele>
        <time>2023-08-15T13:57:44Z</time>
      </trkpt>
      <trkpt lat="42.97811" lon="1.86852">
        <ele>485.6</ele>
        <time>2023-08-15T13:57:48Z</time>
      </trkpt>
      <trkpt lat="42.97785" lon="1.86844">
        <ele>485.4</ele>
        <time>2023-08-15T13:57:52Z</time>
      </trkpt>
      <trkpt lat="42.97762" lon="1.86836">
        <ele>485.2</ele>
        <time>2023-08-15T13:57:56Z</time>
      </trkpt>
      <trkpt lat="42.97741" lon="1.86828">
        <ele>485.4</ele>
        <time>2023-08-15T13:58:00Z</time>
      </trkpt>
      <trkpt lat="42.97725" lon="1.8682">
        <ele>485.7</ele>
        <time>2023-08-15T13:58:03Z</time>
      </trkpt>
      <trkpt lat="42.97712" lon="1.86809">
        <ele>486.5</ele>
        <time>2023-08-15T13:58:06Z</time>
      </trkpt>
      <trkpt lat="42.97701" lon="1.86797">
        <ele>487.2</ele>
        <time>2023-08-15T13:58:09Z</time>
      </trkpt>
      <trkpt lat="42.97681" lon="1.86799">
        <ele>487.2</ele>
        <time>2023-08-15T13:58:13Z</time>
      </trkpt>
      <trkpt lat="42.97665" lon="1.86808">
        <ele>487.4</ele>
        <time>2023-08-15T13:58:16Z</time>
      </trkpt>
      <trkpt lat="42.9764" lon="1.86804">
        <ele>487.6</ele>
        <time>2023-08-15T13:58:20Z</time>
      </trkpt>
      <trkpt lat="42.9762" lon="1.86798">
        <ele>487.9</ele>
        <time>2023-08-15T13:58:23Z</time>
      </trkpt>
      <trkpt lat="42.97599" lon="1.86792">
        <ele>488.9</ele>
        <time>2023-08-15T13:58:26Z</time>
      </trkpt>
      <trkpt lat="42.97579" lon="1.86788">
        <ele>489.5</ele>
        <time>2023-08-15T13:58:29Z</time>
      </trkpt>
      <trkpt lat="42.97553" lon="1.86783">
        <ele>489.4</ele>
        <time>2023-08-15T13:58:33Z</time>
      </trkpt>
      <trkpt lat="42.97533" lon="1.86778">
        <ele>490.5</ele>
        <time>2023-08-15T13:58:36Z</time>
      </trkpt>
      <trkpt lat="42.97512" lon="1.86773">
        <ele>490.4</ele>
        <time>2023-08-15T13:58:39Z</time>
      </trkpt>
      <trkpt lat="42.9749" lon="1.86766">
        <ele>490.8</ele>
        <time>2023-08-15T13:58:43Z</time>
      </trkpt>
      <trkpt lat="42.97474" lon="1.8676">
        <ele>491.5</ele>
        <time>2023-08-15T13:58:46Z</time>
      </trkpt>
      <trkpt lat="42.97448" lon="1.86752">
        <ele>492.1</ele>
        <time>2023-08-15T13:58:50Z</time>
      </trkpt>
      <trkpt lat="42.97419" lon="1.86744">
        <ele>493.2</ele>
        <time>2023-08-15T13:58:54Z</time>
      </trkpt>
      <trkpt lat="42.974" lon="1.86739">
        <ele>493.7</ele>
        <time>2023-08-15T13:58:57Z</time>
      </trkpt>
      <trkpt lat="42.97378" lon="1.86734">
        <ele>493.6</ele>
        <time>2023-08-15T13:59:01Z</time>
      </trkpt>
      <trkpt lat="42.97361" lon="1.86729">
        <ele>494.8</ele>
        <time>2023-08-15T13:59:05Z</time>
      </trkpt>
      <trkpt lat="42.97342" lon="1.86724">
        <ele>494.3</ele>
        <time>2023-08-15T13:59:08Z</time>
      </trkpt>
      <trkpt lat="42.97321" lon="1.86719">
        <ele>494.9</ele>
        <time>2023-08-15T13:59:11Z</time>
      </trkpt>
      <trkpt lat="42.97296" lon="1.86712">
        <ele>495.5</ele>
        <time>2023-08-15T13:59:14Z</time>
      </trkpt>
      <trkpt lat="42.97279" lon="1.86706">
        <ele>495.2</ele>
        <time>2023-08-15T13:59:17Z</time>
      </trkpt>
      <trkpt lat="42.97252" lon="1.86699">
        <ele>495.8</ele>
        <time>2023-08-15T13:59:21Z</time>
      </trkpt>
      <trkpt lat="42.97225" lon="1.86692">
        <ele>496.1</ele>
        <time>2023-08-15T13:59:25Z</time>
      </trkpt>
      <trkpt lat="42.97207" lon="1.86687">
        <ele>496.6</ele>
        <time>2023-08-15T13:59:28Z</time>
      </trkpt>
      <trkpt lat="42.97183" lon="1.86681">
        <ele>496.4</ele>
        <time>2023-08-15T13:59:32Z</time>
      </trkpt>
      <trkpt lat="42.97161" lon="1.86677">
        <ele>496.9</ele>
        <time>2023-08-15T13:59:36Z</time>
      </trkpt>
      <trkpt lat="42.97146" lon="1.86673">
        <ele>497.5</ele>
        <time>2023-08-15T13:59:40Z</time>
      </trkpt>
      <trkpt lat="42.97141" lon="1.86671">
        <ele>499.5</ele>
        <time>2023-08-15T13:59:56Z</time>
      </trkpt>
      <trkpt lat="42.97134" lon="1.8667">
        <ele>499.5</ele>
        <time>2023-08-15T14:00:00Z</time>
      </trkpt>
      <trkpt lat="42.97128" lon="1.86669">
        <ele>499.5</ele>
        <time>2023-08-15T14:00:03Z</time>
      </trkpt>
      <trkpt lat="42.97125" lon="1.86668">
        <ele>499.5</ele>
        <time>2023-08-15T14:00:33Z</time>
      </trkpt>
      <trkpt lat="42.97121" lon="1.86669">
        <ele>502.1</ele>
        <time>2023-08-15T14:00:37Z</time>
      </trkpt>
      <trkpt lat="42.97118" lon="1.86681">
        <ele>502.1</ele>
        <time>2023-08-15T14:00:40Z</time>
      </trkpt>
      <trkpt lat="42.97118" lon="1.86699">
        <ele>499.6</ele>
        <time>2023-08-15T14:00:43Z</time>
      </trkpt>
      <trkpt lat="42.97116" lon="1.8673">
        <ele>499.5</ele>
        <time>2023-08-15T14:00:47Z</time>
      </trkpt>
      <trkpt lat="42.97113" lon="1.86762">
        <ele>500.4</ele>
        <time>2023-08-15T14:00:51Z</time>
      </trkpt>
      <trkpt lat="42.9711" lon="1.86787">
        <ele>502.1</ele>
        <time>2023-08-15T14:00:54Z</time>
      </trkpt>
      <trkpt lat="42.97107" lon="1.86811">
        <ele>502.1</ele>
        <time>2023-08-15T14:00:57Z</time>
      </trkpt>
      <trkpt lat="42.97103" lon="1.86845">
        <ele>502.1</ele>
        <time>2023-08-15T14:01:01Z</time>
      </trkpt>
      <trkpt lat="42.97099" lon="1.8687">
        <ele>502.1</ele>
        <time>2023-08-15T14:01:04Z</time>
      </trkpt>
      <trkpt lat="42.97096" lon="1.86893">
        <ele>502.1</ele>
        <time>2023-08-15T14:01:07Z</time>
      </trkpt>
      <trkpt lat="42.97093" lon="1.86921">
        <ele>502.1</ele>
        <time>2023-08-15T14:01:11Z</time>
      </trkpt>
      <trkpt lat="42.9709" lon="1.86944">
        <ele>499.3</ele>
        <time>2023-08-15T14:01:15Z</time>
      </trkpt>
      <trkpt lat="42.97087" lon="1.86967">
        <ele>500.3</ele>
        <time>2023-08-15T14:01:19Z</time>
      </trkpt>
      <trkpt lat="42.97082" lon="1.86998">
        <ele>502.1</ele>
        <time>2023-08-15T14:01:23Z</time>
      </trkpt>
      <trkpt lat="42.97076" lon="1.87019">
        <ele>502.1</ele>
        <time>2023-08-15T14:01:26Z</time>
      </trkpt>
      <trkpt lat="42.97067" lon="1.87037">
        <ele>502.1</ele>
        <time>2023-08-15T14:01:29Z</time>
      </trkpt>
      <trkpt lat="42.97053" lon="1.87063">
        <ele>502.1</ele>
        <time>2023-08-15T14:01:33Z</time>
      </trkpt>
      <trkpt lat="42.9704" lon="1.87086">
        <ele>502.1</ele>
        <time>2023-08-15T14:01:37Z</time>
      </trkpt>
      <trkpt lat="42.97029" lon="1.871">
        <ele>502.1</ele>
        <time>2023-08-15T14:01:41Z</time>
      </trkpt>
      <trkpt lat="42.97018" lon="1.87116">
        <ele>505</ele>
        <time>2023-08-15T14:01:45Z</time>
      </trkpt>
      <trkpt lat="42.97007" lon="1.87132">
        <ele>505</ele>
        <time>2023-08-15T14:01:48Z</time>
      </trkpt>
      <trkpt lat="42.96994" lon="1.87149">
        <ele>505.4</ele>
        <time>2023-08-15T14:01:52Z</time>
      </trkpt>
      <trkpt lat="42.96986" lon="1.87159">
        <ele>505.4</ele>
        <time>2023-08-15T14:01:55Z</time>
      </trkpt>
      <trkpt lat="42.96977" lon="1.87167">
        <ele>505.4</ele>
        <time>2023-08-15T14:01:59Z</time>
      </trkpt>
      <trkpt lat="42.96978" lon="1.87176">
        <ele>505.4</ele>
        <time>2023-08-15T14:02:03Z</time>
      </trkpt>
      <trkpt lat="42.96979" lon="1.87175">
        <ele>506.5</ele>
        <time>2023-08-15T14:02:11Z</time>
      </trkpt>
      <trkpt lat="42.96977" lon="1.87172">
        <ele>506.5</ele>
        <time>2023-08-15T14:02:17Z</time>
      </trkpt>
      <trkpt lat="42.96981" lon="1.87171">
        <ele>506.5</ele>
        <time>2023-08-15T14:02:21Z</time>
      </trkpt>
      <trkpt lat="42.96987" lon="1.87162">
        <ele>506.5</ele>
        <time>2023-08-15T14:02:24Z</time>
      </trkpt>
      <trkpt lat="42.97001" lon="1.87145">
        <ele>506.4</ele>
        <time>2023-08-15T14:02:28Z</time>
      </trkpt>
      <trkpt lat="42.97013" lon="1.8713">
        <ele>506.4</ele>
        <time>2023-08-15T14:02:31Z</time>
      </trkpt>
      <trkpt lat="42.97027" lon="1.87106">
        <ele>506.4</ele>
        <time>2023-08-15T14:02:35Z</time>
      </trkpt>
      <trkpt lat="42.97044" lon="1.8708">
        <ele>506.4</ele>
        <time>2023-08-15T14:02:39Z</time>
      </trkpt>
      <trkpt lat="42.97056" lon="1.87058">
        <ele>506.4</ele>
        <time>2023-08-15T14:02:42Z</time>
      </trkpt>
      <trkpt lat="42.97071" lon="1.87028">
        <ele>506.4</ele>
        <time>2023-08-15T14:02:46Z</time>
      </trkpt>
      <trkpt lat="42.97083" lon="1.87005">
        <ele>505.4</ele>
        <time>2023-08-15T14:02:49Z</time>
      </trkpt>
      <trkpt lat="42.97091" lon="1.8697">
        <ele>506.4</ele>
        <time>2023-08-15T14:02:53Z</time>
      </trkpt>
      <trkpt lat="42.97093" lon="1.86942">
        <ele>506.4</ele>
        <time>2023-08-15T14:02:56Z</time>
      </trkpt>
      <trkpt lat="42.97096" lon="1.86907">
        <ele>506.4</ele>
        <time>2023-08-15T14:03:00Z</time>
      </trkpt>
      <trkpt lat="42.97099" lon="1.86882">
        <ele>506.4</ele>
        <time>2023-08-15T14:03:03Z</time>
      </trkpt>
      <trkpt lat="42.97103" lon="1.86849">
        <ele>506.4</ele>
        <time>2023-08-15T14:03:07Z</time>
      </trkpt>
      <trkpt lat="42.97106" lon="1.86825">
        <ele>506.4</ele>
        <time>2023-08-15T14:03:10Z</time>
      </trkpt>
      <trkpt lat="42.97109" lon="1.86804">
        <ele>506.4</ele>
        <time>2023-08-15T14:03:13Z</time>
      </trkpt>
      <trkpt lat="42.97112" lon="1.86785">
        <ele>506.4</ele>
        <time>2023-08-15T14:03:16Z</time>
      </trkpt>
      <trkpt lat="42.97114" lon="1.86763">
        <ele>506.4</ele>
        <time>2023-08-15T14:03:20Z</time>
      </trkpt>
      <trkpt lat="42.97116" lon="1.86748">
        <ele>506.4</ele>
        <time>2023-08-15T14:03:23Z</time>
      </trkpt>
      <trkpt lat="42.97118" lon="1.86733">
        <ele>506.4</ele>
        <time>2023-08-15T14:03:27Z</time>
      </trkpt>
      <trkpt lat="42.9712" lon="1.86718">
        <ele>506.4</ele>
        <time>2023-08-15T14:03:30Z</time>
      </trkpt>
      <trkpt lat="42.97121" lon="1.86707">
        <ele>506.4</ele>
        <time>2023-08-15T14:03:33Z</time>
      </trkpt>
      <trkpt lat="42.97122" lon="1.86699">
        <ele>506.4</ele>
        <time>2023-08-15T14:03:50Z</time>
      </trkpt>
      <trkpt lat="42.97124" lon="1.86689">
        <ele>506.4</ele>
        <time>2023-08-15T14:03:54Z</time>
      </trkpt>
      <trkpt lat="42.97128" lon="1.86673">
        <ele>506.4</ele>
        <time>2023-08-15T14:03:57Z</time>
      </trkpt>
      <trkpt lat="42.9712" lon="1.8666">
        <ele>506.4</ele>
        <time>2023-08-15T14:04:00Z</time>
      </trkpt>
      <trkpt lat="42.97103" lon="1.86657">
        <ele>506.4</ele>
        <time>2023-08-15T14:04:04Z</time>
      </trkpt>
      <trkpt lat="42.97076" lon="1.86654">
        <ele>506.4</ele>
        <time>2023-08-15T14:04:08Z</time>
      </trkpt>
      <trkpt lat="42.97047" lon="1.86648">
        <ele>506.4</ele>
        <time>2023-08-15T14:04:12Z</time>
      </trkpt>
      <trkpt lat="42.97019" lon="1.86641">
        <ele>508</ele>
        <time>2023-08-15T14:04:16Z</time>
      </trkpt>
      <trkpt lat="42.96993" lon="1.86635">
        <ele>508.7</ele>
        <time>2023-08-15T14:04:20Z</time>
      </trkpt>
      <trkpt lat="42.96974" lon="1.8663">
        <ele>508.9</ele>
        <time>2023-08-15T14:04:23Z</time>
      </trkpt>
      <trkpt lat="42.96947" lon="1.86622">
        <ele>509.2</ele>
        <time>2023-08-15T14:04:27Z</time>
      </trkpt>
      <trkpt lat="42.96928" lon="1.86616">
        <ele>509.8</ele>
        <time>2023-08-15T14:04:30Z</time>
      </trkpt>
      <trkpt lat="42.96909" lon="1.8661">
        <ele>510.4</ele>
        <time>2023-08-15T14:04:33Z</time>
      </trkpt>
      <trkpt lat="42.96884" lon="1.86603">
        <ele>510.9</ele>
        <time>2023-08-15T14:04:37Z</time>
      </trkpt>
      <trkpt lat="42.96864" lon="1.86598">
        <ele>511.1</ele>
        <time>2023-08-15T14:04:40Z</time>
      </trkpt>
      <trkpt lat="42.9684" lon="1.86592">
        <ele>511.9</ele>
        <time>2023-08-15T14:04:44Z</time>
      </trkpt>
      <trkpt lat="42.96816" lon="1.86584">
        <ele>511.5</ele>
        <time>2023-08-15T14:04:48Z</time>
      </trkpt>
      <trkpt lat="42.96789" lon="1.86576">
        <ele>512.1</ele>
        <time>2023-08-15T14:04:52Z</time>
      </trkpt>
      <trkpt lat="42.96759" lon="1.86569">
        <ele>512.3</ele>
        <time>2023-08-15T14:04:56Z</time>
      </trkpt>
      <trkpt lat="42.9674" lon="1.86565">
        <ele>513</ele>
        <time>2023-08-15T14:04:59Z</time>
      </trkpt>
      <trkpt lat="42.96723" lon="1.8656">
        <ele>513</ele>
        <time>2023-08-15T14:05:02Z</time>
      </trkpt>
      <trkpt lat="42.96697" lon="1.86553">
        <ele>513.2</ele>
        <time>2023-08-15T14:05:06Z</time>
      </trkpt>
      <trkpt lat="42.96677" lon="1.86548">
        <ele>513.6</ele>
        <time>2023-08-15T14:05:09Z</time>
      </trkpt>
      <trkpt lat="42.96651" lon="1.86541">
        <ele>514</ele>
        <time>2023-08-15T14:05:13Z</time>
      </trkpt>
      <trkpt lat="42.96625" lon="1.86532">
        <ele>514.4</ele>
        <time>2023-08-15T14:05:17Z</time>
      </trkpt>
      <trkpt lat="42.96606" lon="1.86526">
        <ele>515</ele>
        <time>2023-08-15T14:05:20Z</time>
      </trkpt>
      <trkpt lat="42.9658" lon="1.8652">
        <ele>516</ele>
        <time>2023-08-15T14:05:24Z</time>
      </trkpt>
      <trkpt lat="42.9656" lon="1.86516">
        <ele>516</ele>
        <time>2023-08-15T14:05:27Z</time>
      </trkpt>
      <trkpt lat="42.9654" lon="1.86511">
        <ele>516.4</ele>
        <time>2023-08-15T14:05:30Z</time>
      </trkpt>
      <trkpt lat="42.96514" lon="1.86505">
        <ele>516.7</ele>
        <time>2023-08-15T14:05:34Z</time>
      </trkpt>
      <trkpt lat="42.96494" lon="1.865">
        <ele>516.6</ele>
        <time>2023-08-15T14:05:37Z</time>
      </trkpt>
      <trkpt lat="42.96469" lon="1.86494">
        <ele>517.3</ele>
        <time>2023-08-15T14:05:41Z</time>
      </trkpt>
      <trkpt lat="42.96443" lon="1.86486">
        <ele>518.3</ele>
        <time>2023-08-15T14:05:45Z</time>
      </trkpt>
      <trkpt lat="42.96423" lon="1.8648">
        <ele>518.5</ele>
        <time>2023-08-15T14:05:48Z</time>
      </trkpt>
      <trkpt lat="42.96397" lon="1.86473">
        <ele>518.9</ele>
        <time>2023-08-15T14:05:52Z</time>
      </trkpt>
      <trkpt lat="42.96378" lon="1.86468">
        <ele>519.2</ele>
        <time>2023-08-15T14:05:55Z</time>
      </trkpt>
      <trkpt lat="42.96354" lon="1.86461">
        <ele>519.9</ele>
        <time>2023-08-15T14:05:59Z</time>
      </trkpt>
      <trkpt lat="42.96338" lon="1.86454">
        <ele>520.1</ele>
        <time>2023-08-15T14:06:02Z</time>
      </trkpt>
      <trkpt lat="42.96325" lon="1.86446">
        <ele>520.3</ele>
        <time>2023-08-15T14:06:05Z</time>
      </trkpt>
      <trkpt lat="42.96315" lon="1.86433">
        <ele>520.2</ele>
        <time>2023-08-15T14:06:09Z</time>
      </trkpt>
      <trkpt lat="42.96304" lon="1.86438">
        <ele>519.9</ele>
        <time>2023-08-15T14:06:12Z</time>
      </trkpt>
      <trkpt lat="42.96306" lon="1.86463">
        <ele>519.7</ele>
        <time>2023-08-15T14:06:16Z</time>
      </trkpt>
      <trkpt lat="42.96325" lon="1.86465">
        <ele>519.2</ele>
        <time>2023-08-15T14:06:19Z</time>
      </trkpt>
      <trkpt lat="42.96351" lon="1.86466">
        <ele>519.3</ele>
        <time>2023-08-15T14:06:23Z</time>
      </trkpt>
      <trkpt lat="42.9637" lon="1.86471">
        <ele>519.4</ele>
        <time>2023-08-15T14:06:26Z</time>
      </trkpt>
      <trkpt lat="42.96394" lon="1.86477">
        <ele>518.7</ele>
        <time>2023-08-15T14:06:30Z</time>
      </trkpt>
      <trkpt lat="42.96413" lon="1.86482">
        <ele>519</ele>
        <time>2023-08-15T14:06:33Z</time>
      </trkpt>
      <trkpt lat="42.96438" lon="1.86488">
        <ele>518.2</ele>
        <time>2023-08-15T14:06:37Z</time>
      </trkpt>
      <trkpt lat="42.96461" lon="1.86494">
        <ele>518.1</ele>
        <time>2023-08-15T14:06:41Z</time>
      </trkpt>
      <trkpt lat="42.96485" lon="1.865">
        <ele>517.4</ele>
        <time>2023-08-15T14:06:45Z</time>
      </trkpt>
      <trkpt lat="42.96501" lon="1.86505">
        <ele>516.8</ele>
        <time>2023-08-15T14:06:48Z</time>
      </trkpt>
      <trkpt lat="42.96516" lon="1.8651">
        <ele>516.2</ele>
        <time>2023-08-15T14:06:52Z</time>
      </trkpt>
      <trkpt lat="42.96517" lon="1.86516">
        <ele>516.3</ele>
        <time>2023-08-15T14:06:56Z</time>
      </trkpt>
      <trkpt lat="42.96516" lon="1.86522">
        <ele>513.2</ele>
        <time>2023-08-15T14:10:35Z</time>
      </trkpt>
      <trkpt lat="42.96515" lon="1.86522">
        <ele>513.2</ele>
        <time>2023-08-15T14:10:39Z</time>
      </trkpt>
      <trkpt lat="42.96523" lon="1.86512">
        <ele>513.2</ele>
        <time>2023-08-15T14:41:16Z</time>
      </trkpt>
      <trkpt lat="42.96518" lon="1.8652">
        <ele>516.2</ele>
        <time>2023-08-15T14:42:44Z</time>
      </trkpt>
      <trkpt lat="42.96518" lon="1.8652">
        <ele>515.1</ele>
        <time>2023-08-15T14:42:49Z</time>
      </trkpt>
      <trkpt lat="42.96512" lon="1.86513">
        <ele>513.2</ele>
        <time>2023-08-15T14:51:45Z</time>
      </trkpt>
      <trkpt lat="42.96512" lon="1.86513">
        <ele>513.2</ele>
        <time>2023-08-15T14:51:48Z</time>
      </trkpt>
      <trkpt lat="42.96503" lon="1.86505">
        <ele>513.2</ele>
        <time>2023-08-15T14:51:52Z</time>
      </trkpt>
      <trkpt lat="42.96477" lon="1.86495">
        <ele>513.2</ele>
        <time>2023-08-15T14:51:56Z</time>
      </trkpt>
      <trkpt lat="42.96451" lon="1.86487">
        <ele>513.2</ele>
        <time>2023-08-15T14:52:00Z</time>
      </trkpt>
      <trkpt lat="42.96432" lon="1.86481">
        <ele>514.9</ele>
        <time>2023-08-15T14:52:03Z</time>
      </trkpt>
      <trkpt lat="42.96413" lon="1.86476">
        <ele>515.3</ele>
        <time>2023-08-15T14:52:06Z</time>
      </trkpt>
      <trkpt lat="42.96386" lon="1.86469">
        <ele>515.9</ele>
        <time>2023-08-15T14:52:10Z</time>
      </trkpt>
      <trkpt lat="42.96361" lon="1.86461">
        <ele>516.3</ele>
        <time>2023-08-15T14:52:14Z</time>
      </trkpt>
      <trkpt lat="42.96338" lon="1.86453">
        <ele>516.1</ele>
        <time>2023-08-15T14:52:18Z</time>
      </trkpt>
      <trkpt lat="42.96324" lon="1.86445">
        <ele>516.6</ele>
        <time>2023-08-15T14:52:21Z</time>
      </trkpt>
      <trkpt lat="42.96309" lon="1.86431">
        <ele>516.7</ele>
        <time>2023-08-15T14:52:25Z</time>
      </trkpt>
      <trkpt lat="42.9629" lon="1.86436">
        <ele>516.7</ele>
        <time>2023-08-15T14:52:28Z</time>
      </trkpt>
      <trkpt lat="42.96263" lon="1.86433">
        <ele>517.8</ele>
        <time>2023-08-15T14:52:32Z</time>
      </trkpt>
      <trkpt lat="42.96244" lon="1.8643">
        <ele>517.9</ele>
        <time>2023-08-15T14:52:35Z</time>
      </trkpt>
      <trkpt lat="42.96217" lon="1.86425">
        <ele>517.4</ele>
        <time>2023-08-15T14:52:39Z</time>
      </trkpt>
      <trkpt lat="42.96192" lon="1.8642">
        <ele>517.9</ele>
        <time>2023-08-15T14:52:43Z</time>
      </trkpt>
      <trkpt lat="42.96171" lon="1.86414">
        <ele>518.6</ele>
        <time>2023-08-15T14:52:46Z</time>
      </trkpt>
      <trkpt lat="42.96143" lon="1.86405">
        <ele>518.9</ele>
        <time>2023-08-15T14:52:50Z</time>
      </trkpt>
      <trkpt lat="42.96119" lon="1.86399">
        <ele>518.9</ele>
        <time>2023-08-15T14:52:54Z</time>
      </trkpt>
      <trkpt lat="42.961" lon="1.86393">
        <ele>519.6</ele>
        <time>2023-08-15T14:52:57Z</time>
      </trkpt>
      <trkpt lat="42.96074" lon="1.86386">
        <ele>520.4</ele>
        <time>2023-08-15T14:53:01Z</time>
      </trkpt>
      <trkpt lat="42.96048" lon="1.86379">
        <ele>520.3</ele>
        <time>2023-08-15T14:53:05Z</time>
      </trkpt>
      <trkpt lat="42.96022" lon="1.86371">
        <ele>521.2</ele>
        <time>2023-08-15T14:53:09Z</time>
      </trkpt>
      <trkpt lat="42.96002" lon="1.86365">
        <ele>521.2</ele>
        <time>2023-08-15T14:53:12Z</time>
      </trkpt>
      <trkpt lat="42.95976" lon="1.86358">
        <ele>521.8</ele>
        <time>2023-08-15T14:53:16Z</time>
      </trkpt>
      <trkpt lat="42.95957" lon="1.86353">
        <ele>521.9</ele>
        <time>2023-08-15T14:53:19Z</time>
      </trkpt>
      <trkpt lat="42.95937" lon="1.86349">
        <ele>522.2</ele>
        <time>2023-08-15T14:53:22Z</time>
      </trkpt>
      <trkpt lat="42.95911" lon="1.86342">
        <ele>522.2</ele>
        <time>2023-08-15T14:53:26Z</time>
      </trkpt>
      <trkpt lat="42.95891" lon="1.86337">
        <ele>522.7</ele>
        <time>2023-08-15T14:53:29Z</time>
      </trkpt>
      <trkpt lat="42.95866" lon="1.86331">
        <ele>523.1</ele>
        <time>2023-08-15T14:53:33Z</time>
      </trkpt>
      <trkpt lat="42.95839" lon="1.86326">
        <ele>523.4</ele>
        <time>2023-08-15T14:53:37Z</time>
      </trkpt>
      <trkpt lat="42.9582" lon="1.86323">
        <ele>523.6</ele>
        <time>2023-08-15T14:53:40Z</time>
      </trkpt>
      <trkpt lat="42.95794" lon="1.8632">
        <ele>524</ele>
        <time>2023-08-15T14:53:44Z</time>
      </trkpt>
      <trkpt lat="42.95768" lon="1.86314">
        <ele>524.6</ele>
        <time>2023-08-15T14:53:48Z</time>
      </trkpt>
      <trkpt lat="42.95742" lon="1.86306">
        <ele>525.6</ele>
        <time>2023-08-15T14:53:52Z</time>
      </trkpt>
      <trkpt lat="42.95723" lon="1.86296">
        <ele>525.9</ele>
        <time>2023-08-15T14:53:55Z</time>
      </trkpt>
      <trkpt lat="42.957" lon="1.86276">
        <ele>526.1</ele>
        <time>2023-08-15T14:53:59Z</time>
      </trkpt>
      <trkpt lat="42.95685" lon="1.86258">
        <ele>526.1</ele>
        <time>2023-08-15T14:54:02Z</time>
      </trkpt>
      <trkpt lat="42.95668" lon="1.86227">
        <ele>526</ele>
        <time>2023-08-15T14:54:06Z</time>
      </trkpt>
      <trkpt lat="42.95656" lon="1.86206">
        <ele>526.3</ele>
        <time>2023-08-15T14:54:09Z</time>
      </trkpt>
      <trkpt lat="42.9564" lon="1.86177">
        <ele>527</ele>
        <time>2023-08-15T14:54:13Z</time>
      </trkpt>
      <trkpt lat="42.95629" lon="1.86156">
        <ele>527.3</ele>
        <time>2023-08-15T14:54:16Z</time>
      </trkpt>
      <trkpt lat="42.95613" lon="1.86129">
        <ele>527.7</ele>
        <time>2023-08-15T14:54:20Z</time>
      </trkpt>
      <trkpt lat="42.95597" lon="1.86112">
        <ele>528</ele>
        <time>2023-08-15T14:54:23Z</time>
      </trkpt>
      <trkpt lat="42.95579" lon="1.861">
        <ele>528.4</ele>
        <time>2023-08-15T14:54:26Z</time>
      </trkpt>
      <trkpt lat="42.95554" lon="1.86093">
        <ele>528.9</ele>
        <time>2023-08-15T14:54:30Z</time>
      </trkpt>
      <trkpt lat="42.95534" lon="1.86091">
        <ele>529.2</ele>
        <time>2023-08-15T14:54:33Z</time>
      </trkpt>
      <trkpt lat="42.95508" lon="1.86089">
        <ele>529.6</ele>
        <time>2023-08-15T14:54:37Z</time>
      </trkpt>
      <trkpt lat="42.95489" lon="1.86088">
        <ele>529.5</ele>
        <time>2023-08-15T14:54:40Z</time>
      </trkpt>
      <trkpt lat="42.95463" lon="1.86084">
        <ele>530.2</ele>
        <time>2023-08-15T14:54:44Z</time>
      </trkpt>
      <trkpt lat="42.95437" lon="1.86077">
        <ele>530.8</ele>
        <time>2023-08-15T14:54:48Z</time>
      </trkpt>
      <trkpt lat="42.95417" lon="1.86071">
        <ele>531.4</ele>
        <time>2023-08-15T14:54:51Z</time>
      </trkpt>
      <trkpt lat="42.9539" lon="1.86065">
        <ele>532</ele>
        <time>2023-08-15T14:54:55Z</time>
      </trkpt>
      <trkpt lat="42.95363" lon="1.86056">
        <ele>532.4</ele>
        <time>2023-08-15T14:54:59Z</time>
      </trkpt>
      <trkpt lat="42.95344" lon="1.86049">
        <ele>532.6</ele>
        <time>2023-08-15T14:55:02Z</time>
      </trkpt>
      <trkpt lat="42.95319" lon="1.86041">
        <ele>532.7</ele>
        <time>2023-08-15T14:55:06Z</time>
      </trkpt>
      <trkpt lat="42.953" lon="1.86035">
        <ele>532.9</ele>
        <time>2023-08-15T14:55:09Z</time>
      </trkpt>
      <trkpt lat="42.95274" lon="1.86026">
        <ele>533.3</ele>
        <time>2023-08-15T14:55:13Z</time>
      </trkpt>
      <trkpt lat="42.95256" lon="1.86019">
        <ele>533.8</ele>
        <time>2023-08-15T14:55:16Z</time>
      </trkpt>
      <trkpt lat="42.9523" lon="1.86009">
        <ele>534.6</ele>
        <time>2023-08-15T14:55:20Z</time>
      </trkpt>
      <trkpt lat="42.95204" lon="1.86001">
        <ele>535.4</ele>
        <time>2023-08-15T14:55:24Z</time>
      </trkpt>
      <trkpt lat="42.95179" lon="1.85993">
        <ele>535.8</ele>
        <time>2023-08-15T14:55:28Z</time>
      </trkpt>
      <trkpt lat="42.95159" lon="1.85986">
        <ele>536.2</ele>
        <time>2023-08-15T14:55:31Z</time>
      </trkpt>
      <trkpt lat="42.9514" lon="1.85979">
        <ele>536.5</ele>
        <time>2023-08-15T14:55:34Z</time>
      </trkpt>
      <trkpt lat="42.95115" lon="1.8597">
        <ele>536.7</ele>
        <time>2023-08-15T14:55:38Z</time>
      </trkpt>
      <trkpt lat="42.95096" lon="1.85963">
        <ele>537.2</ele>
        <time>2023-08-15T14:55:41Z</time>
      </trkpt>
      <trkpt lat="42.9507" lon="1.85953">
        <ele>537.6</ele>
        <time>2023-08-15T14:55:45Z</time>
      </trkpt>
      <trkpt lat="42.95045" lon="1.85943">
        <ele>538.3</ele>
        <time>2023-08-15T14:55:49Z</time>
      </trkpt>
      <trkpt lat="42.9502" lon="1.85934">
        <ele>539</ele>
        <time>2023-08-15T14:55:53Z</time>
      </trkpt>
      <trkpt lat="42.95" lon="1.85928">
        <ele>539.4</ele>
        <time>2023-08-15T14:55:56Z</time>
      </trkpt>
      <trkpt lat="42.94975" lon="1.8592">
        <ele>540.7</ele>
        <time>2023-08-15T14:56:00Z</time>
      </trkpt>
      <trkpt lat="42.94948" lon="1.85913">
        <ele>541.6</ele>
        <time>2023-08-15T14:56:04Z</time>
      </trkpt>
      <trkpt lat="42.94928" lon="1.85911">
        <ele>542.5</ele>
        <time>2023-08-15T14:56:07Z</time>
      </trkpt>
      <trkpt lat="42.94908" lon="1.85911">
        <ele>543.1</ele>
        <time>2023-08-15T14:56:10Z</time>
      </trkpt>
      <trkpt lat="42.94882" lon="1.85916">
        <ele>543.4</ele>
        <time>2023-08-15T14:56:14Z</time>
      </trkpt>
      <trkpt lat="42.94863" lon="1.85922">
        <ele>543.7</ele>
        <time>2023-08-15T14:56:17Z</time>
      </trkpt>
      <trkpt lat="42.94837" lon="1.85929">
        <ele>544.2</ele>
        <time>2023-08-15T14:56:21Z</time>
      </trkpt>
      <trkpt lat="42.9481" lon="1.85936">
        <ele>544</ele>
        <time>2023-08-15T14:56:25Z</time>
      </trkpt>
      <trkpt lat="42.94781" lon="1.85934">
        <ele>543.4</ele>
        <time>2023-08-15T14:56:29Z</time>
      </trkpt>
      <trkpt lat="42.94755" lon="1.85925">
        <ele>542.5</ele>
        <time>2023-08-15T14:56:33Z</time>
      </trkpt>
      <trkpt lat="42.94731" lon="1.85912">
        <ele>542.2</ele>
        <time>2023-08-15T14:56:37Z</time>
      </trkpt>
      <trkpt lat="42.94708" lon="1.85897">
        <ele>542.6</ele>
        <time>2023-08-15T14:56:41Z</time>
      </trkpt>
      <trkpt lat="42.94684" lon="1.85882">
        <ele>542.9</ele>
        <time>2023-08-15T14:56:45Z</time>
      </trkpt>
      <trkpt lat="42.94659" lon="1.85868">
        <ele>542.5</ele>
        <time>2023-08-15T14:56:49Z</time>
      </trkpt>
      <trkpt lat="42.94635" lon="1.85855">
        <ele>542.5</ele>
        <time>2023-08-15T14:56:53Z</time>
      </trkpt>
      <trkpt lat="42.94616" lon="1.85845">
        <ele>543.1</ele>
        <time>2023-08-15T14:56:56Z</time>
      </trkpt>
      <trkpt lat="42.94591" lon="1.85831">
        <ele>543.6</ele>
        <time>2023-08-15T14:57:00Z</time>
      </trkpt>
      <trkpt lat="42.94574" lon="1.85821">
        <ele>543.9</ele>
        <time>2023-08-15T14:57:03Z</time>
      </trkpt>
      <trkpt lat="42.94555" lon="1.85811">
        <ele>544.2</ele>
        <time>2023-08-15T14:57:06Z</time>
      </trkpt>
      <trkpt lat="42.94531" lon="1.85799">
        <ele>544.8</ele>
        <time>2023-08-15T14:57:10Z</time>
      </trkpt>
      <trkpt lat="42.94512" lon="1.85789">
        <ele>545.1</ele>
        <time>2023-08-15T14:57:13Z</time>
      </trkpt>
      <trkpt lat="42.94487" lon="1.85776">
        <ele>545.7</ele>
        <time>2023-08-15T14:57:17Z</time>
      </trkpt>
      <trkpt lat="42.94462" lon="1.85764">
        <ele>545.9</ele>
        <time>2023-08-15T14:57:21Z</time>
      </trkpt>
      <trkpt lat="42.94444" lon="1.85754">
        <ele>546.5</ele>
        <time>2023-08-15T14:57:24Z</time>
      </trkpt>
      <trkpt lat="42.94419" lon="1.85741">
        <ele>547.2</ele>
        <time>2023-08-15T14:57:28Z</time>
      </trkpt>
      <trkpt lat="42.944" lon="1.8573">
        <ele>547.7</ele>
        <time>2023-08-15T14:57:31Z</time>
      </trkpt>
      <trkpt lat="42.94375" lon="1.85717">
        <ele>548.1</ele>
        <time>2023-08-15T14:57:35Z</time>
      </trkpt>
      <trkpt lat="42.94357" lon="1.85707">
        <ele>548.2</ele>
        <time>2023-08-15T14:57:38Z</time>
      </trkpt>
      <trkpt lat="42.94339" lon="1.85696">
        <ele>548.6</ele>
        <time>2023-08-15T14:57:41Z</time>
      </trkpt>
      <trkpt lat="42.94316" lon="1.85682">
        <ele>549.1</ele>
        <time>2023-08-15T14:57:45Z</time>
      </trkpt>
      <trkpt lat="42.94298" lon="1.85668">
        <ele>549.1</ele>
        <time>2023-08-15T14:57:48Z</time>
      </trkpt>
      <trkpt lat="42.94276" lon="1.85649">
        <ele>549.7</ele>
        <time>2023-08-15T14:57:52Z</time>
      </trkpt>
      <trkpt lat="42.94259" lon="1.85635">
        <ele>550</ele>
        <time>2023-08-15T14:57:55Z</time>
      </trkpt>
      <trkpt lat="42.94241" lon="1.85621">
        <ele>550.8</ele>
        <time>2023-08-15T14:57:58Z</time>
      </trkpt>
      <trkpt lat="42.94218" lon="1.85602">
        <ele>552</ele>
        <time>2023-08-15T14:58:02Z</time>
      </trkpt>
      <trkpt lat="42.94202" lon="1.85587">
        <ele>551.4</ele>
        <time>2023-08-15T14:58:05Z</time>
      </trkpt>
      <trkpt lat="42.94185" lon="1.85573">
        <ele>552</ele>
        <time>2023-08-15T14:58:08Z</time>
      </trkpt>
      <trkpt lat="42.94163" lon="1.85554">
        <ele>552.5</ele>
        <time>2023-08-15T14:58:12Z</time>
      </trkpt>
      <trkpt lat="42.9414" lon="1.85535">
        <ele>552.9</ele>
        <time>2023-08-15T14:58:16Z</time>
      </trkpt>
      <trkpt lat="42.94118" lon="1.85517">
        <ele>553.8</ele>
        <time>2023-08-15T14:58:20Z</time>
      </trkpt>
      <trkpt lat="42.94095" lon="1.85498">
        <ele>555.3</ele>
        <time>2023-08-15T14:58:24Z</time>
      </trkpt>
      <trkpt lat="42.94073" lon="1.85479">
        <ele>556.2</ele>
        <time>2023-08-15T14:58:28Z</time>
      </trkpt>
      <trkpt lat="42.94051" lon="1.8546">
        <ele>556.3</ele>
        <time>2023-08-15T14:58:32Z</time>
      </trkpt>
      <trkpt lat="42.94031" lon="1.85444">
        <ele>556.5</ele>
        <time>2023-08-15T14:58:36Z</time>
      </trkpt>
      <trkpt lat="42.94011" lon="1.85428">
        <ele>556.9</ele>
        <time>2023-08-15T14:58:40Z</time>
      </trkpt>
      <trkpt lat="42.93992" lon="1.85413">
        <ele>556.9</ele>
        <time>2023-08-15T14:58:44Z</time>
      </trkpt>
      <trkpt lat="42.93976" lon="1.85401">
        <ele>557.5</ele>
        <time>2023-08-15T14:58:47Z</time>
      </trkpt>
      <trkpt lat="42.9396" lon="1.85387">
        <ele>558</ele>
        <time>2023-08-15T14:58:50Z</time>
      </trkpt>
      <trkpt lat="42.93945" lon="1.85374">
        <ele>558.3</ele>
        <time>2023-08-15T14:58:53Z</time>
      </trkpt>
      <trkpt lat="42.93923" lon="1.85358">
        <ele>558.7</ele>
        <time>2023-08-15T14:58:57Z</time>
      </trkpt>
      <trkpt lat="42.93902" lon="1.85341">
        <ele>558.7</ele>
        <time>2023-08-15T14:59:01Z</time>
      </trkpt>
      <trkpt lat="42.93882" lon="1.85324">
        <ele>559.4</ele>
        <time>2023-08-15T14:59:05Z</time>
      </trkpt>
      <trkpt lat="42.93866" lon="1.8531">
        <ele>559.5</ele>
        <time>2023-08-15T14:59:08Z</time>
      </trkpt>
      <trkpt lat="42.93845" lon="1.85292">
        <ele>559.8</ele>
        <time>2023-08-15T14:59:12Z</time>
      </trkpt>
      <trkpt lat="42.93829" lon="1.8528">
        <ele>559.8</ele>
        <time>2023-08-15T14:59:15Z</time>
      </trkpt>
      <trkpt lat="42.93808" lon="1.85265">
        <ele>560.3</ele>
        <time>2023-08-15T14:59:19Z</time>
      </trkpt>
      <trkpt lat="42.93789" lon="1.85249">
        <ele>561</ele>
        <time>2023-08-15T14:59:23Z</time>
      </trkpt>
      <trkpt lat="42.9377" lon="1.85233">
        <ele>560.8</ele>
        <time>2023-08-15T14:59:27Z</time>
      </trkpt>
      <trkpt lat="42.93753" lon="1.85217">
        <ele>560.9</ele>
        <time>2023-08-15T14:59:31Z</time>
      </trkpt>
      <trkpt lat="42.93733" lon="1.85201">
        <ele>561.4</ele>
        <time>2023-08-15T14:59:35Z</time>
      </trkpt>
      <trkpt lat="42.93712" lon="1.85184">
        <ele>561.4</ele>
        <time>2023-08-15T14:59:39Z</time>
      </trkpt>
      <trkpt lat="42.93696" lon="1.85171">
        <ele>561.7</ele>
        <time>2023-08-15T14:59:42Z</time>
      </trkpt>
      <trkpt lat="42.93674" lon="1.85154">
        <ele>562.5</ele>
        <time>2023-08-15T14:59:46Z</time>
      </trkpt>
      <trkpt lat="42.93654" lon="1.85138">
        <ele>562.8</ele>
        <time>2023-08-15T14:59:50Z</time>
      </trkpt>
      <trkpt lat="42.93634" lon="1.85125">
        <ele>563.1</ele>
        <time>2023-08-15T14:59:54Z</time>
      </trkpt>
      <trkpt lat="42.93619" lon="1.85113">
        <ele>563.2</ele>
        <time>2023-08-15T14:59:57Z</time>
      </trkpt>
      <trkpt lat="42.93599" lon="1.85096">
        <ele>563.8</ele>
        <time>2023-08-15T15:00:01Z</time>
      </trkpt>
      <trkpt lat="42.93583" lon="1.85082">
        <ele>564.2</ele>
        <time>2023-08-15T15:00:04Z</time>
      </trkpt>
      <trkpt lat="42.93567" lon="1.8507">
        <ele>564.6</ele>
        <time>2023-08-15T15:00:07Z</time>
      </trkpt>
      <trkpt lat="42.93552" lon="1.85059">
        <ele>565.1</ele>
        <time>2023-08-15T15:00:10Z</time>
      </trkpt>
      <trkpt lat="42.93533" lon="1.85043">
        <ele>565.6</ele>
        <time>2023-08-15T15:00:14Z</time>
      </trkpt>
      <trkpt lat="42.93518" lon="1.85028">
        <ele>565.8</ele>
        <time>2023-08-15T15:00:17Z</time>
      </trkpt>
      <trkpt lat="42.93506" lon="1.85018">
        <ele>566.1</ele>
        <time>2023-08-15T15:00:20Z</time>
      </trkpt>
      <trkpt lat="42.93505" lon="1.85014">
        <ele>566</ele>
        <time>2023-08-15T15:00:52Z</time>
      </trkpt>
      <trkpt lat="42.93499" lon="1.85009">
        <ele>566.2</ele>
        <time>2023-08-15T15:00:55Z</time>
      </trkpt>
      <trkpt lat="42.93491" lon="1.85">
        <ele>566.4</ele>
        <time>2023-08-15T15:00:58Z</time>
      </trkpt>
      <trkpt lat="42.93472" lon="1.84989">
        <ele>566.7</ele>
        <time>2023-08-15T15:01:02Z</time>
      </trkpt>
      <trkpt lat="42.93451" lon="1.84978">
        <ele>567.3</ele>
        <time>2023-08-15T15:01:06Z</time>
      </trkpt>
      <trkpt lat="42.9343" lon="1.84963">
        <ele>567.5</ele>
        <time>2023-08-15T15:01:10Z</time>
      </trkpt>
      <trkpt lat="42.93408" lon="1.84947">
        <ele>568</ele>
        <time>2023-08-15T15:01:14Z</time>
      </trkpt>
      <trkpt lat="42.93393" lon="1.84936">
        <ele>569.9</ele>
        <time>2023-08-15T15:01:17Z</time>
      </trkpt>
      <trkpt lat="42.93377" lon="1.84925">
        <ele>569.9</ele>
        <time>2023-08-15T15:01:20Z</time>
      </trkpt>
      <trkpt lat="42.9336" lon="1.84913">
        <ele>570.7</ele>
        <time>2023-08-15T15:01:23Z</time>
      </trkpt>
      <trkpt lat="42.93339" lon="1.84897">
        <ele>570.7</ele>
        <time>2023-08-15T15:01:27Z</time>
      </trkpt>
      <trkpt lat="42.93324" lon="1.84888">
        <ele>570.7</ele>
        <time>2023-08-15T15:01:30Z</time>
      </trkpt>
      <trkpt lat="42.93303" lon="1.84876">
        <ele>570.7</ele>
        <time>2023-08-15T15:01:34Z</time>
      </trkpt>
      <trkpt lat="42.93286" lon="1.8487">
        <ele>570.7</ele>
        <time>2023-08-15T15:01:37Z</time>
      </trkpt>
      <trkpt lat="42.9328" lon="1.84866">
        <ele>570.7</ele>
        <time>2023-08-15T15:01:40Z</time>
      </trkpt>
      <trkpt lat="42.9328" lon="1.84865">
        <ele>570.7</ele>
        <time>2023-08-15T15:01:43Z</time>
      </trkpt>
      <trkpt lat="42.93277" lon="1.84862">
        <ele>570.7</ele>
        <time>2023-08-15T15:01:46Z</time>
      </trkpt>
      <trkpt lat="42.93267" lon="1.84852">
        <ele>570.7</ele>
        <time>2023-08-15T15:01:50Z</time>
      </trkpt>
      <trkpt lat="42.93255" lon="1.84855">
        <ele>570.7</ele>
        <time>2023-08-15T15:01:53Z</time>
      </trkpt>
      <trkpt lat="42.93253" lon="1.84875">
        <ele>570.7</ele>
        <time>2023-08-15T15:01:57Z</time>
      </trkpt>
      <trkpt lat="42.93263" lon="1.84897">
        <ele>570.7</ele>
        <time>2023-08-15T15:02:01Z</time>
      </trkpt>
      <trkpt lat="42.93266" lon="1.84914">
        <ele>570.7</ele>
        <time>2023-08-15T15:02:04Z</time>
      </trkpt>
      <trkpt lat="42.93261" lon="1.84941">
        <ele>570.7</ele>
        <time>2023-08-15T15:02:08Z</time>
      </trkpt>
      <trkpt lat="42.93255" lon="1.84967">
        <ele>570.7</ele>
        <time>2023-08-15T15:02:11Z</time>
      </trkpt>
      <trkpt lat="42.93246" lon="1.84999">
        <ele>570.7</ele>
        <time>2023-08-15T15:02:15Z</time>
      </trkpt>
      <trkpt lat="42.93234" lon="1.8503">
        <ele>570.7</ele>
        <time>2023-08-15T15:02:19Z</time>
      </trkpt>
      <trkpt lat="42.93224" lon="1.85056">
        <ele>570.7</ele>
        <time>2023-08-15T15:02:22Z</time>
      </trkpt>
      <trkpt lat="42.93212" lon="1.8509">
        <ele>570.7</ele>
        <time>2023-08-15T15:02:26Z</time>
      </trkpt>
      <trkpt lat="42.93203" lon="1.85114">
        <ele>570.7</ele>
        <time>2023-08-15T15:02:29Z</time>
      </trkpt>
      <trkpt lat="42.9319" lon="1.85145">
        <ele>570.7</ele>
        <time>2023-08-15T15:02:33Z</time>
      </trkpt>
      <trkpt lat="42.93179" lon="1.85167">
        <ele>570.7</ele>
        <time>2023-08-15T15:02:36Z</time>
      </trkpt>
      <trkpt lat="42.93169" lon="1.85188">
        <ele>570.7</ele>
        <time>2023-08-15T15:02:39Z</time>
      </trkpt>
      <trkpt lat="42.93158" lon="1.85214">
        <ele>570.7</ele>
        <time>2023-08-15T15:02:43Z</time>
      </trkpt>
      <trkpt lat="42.93146" lon="1.85237">
        <ele>570.7</ele>
        <time>2023-08-15T15:02:47Z</time>
      </trkpt>
      <trkpt lat="42.93132" lon="1.85267">
        <ele>570.7</ele>
        <time>2023-08-15T15:02:51Z</time>
      </trkpt>
      <trkpt lat="42.93115" lon="1.85302">
        <ele>570.7</ele>
        <time>2023-08-15T15:02:55Z</time>
      </trkpt>
      <trkpt lat="42.931" lon="1.85333">
        <ele>570.7</ele>
        <time>2023-08-15T15:02:59Z</time>
      </trkpt>
      <trkpt lat="42.93085" lon="1.85362">
        <ele>572.6</ele>
        <time>2023-08-15T15:03:03Z</time>
      </trkpt>
      <trkpt lat="42.93075" lon="1.85385">
        <ele>573</ele>
        <time>2023-08-15T15:03:06Z</time>
      </trkpt>
      <trkpt lat="42.93061" lon="1.85416">
        <ele>573.1</ele>
        <time>2023-08-15T15:03:10Z</time>
      </trkpt>
      <trkpt lat="42.93048" lon="1.85447">
        <ele>573.2</ele>
        <time>2023-08-15T15:03:14Z</time>
      </trkpt>
      <trkpt lat="42.93034" lon="1.85478">
        <ele>573.6</ele>
        <time>2023-08-15T15:03:18Z</time>
      </trkpt>
      <trkpt lat="42.93026" lon="1.85502">
        <ele>573.7</ele>
        <time>2023-08-15T15:03:21Z</time>
      </trkpt>
      <trkpt lat="42.93017" lon="1.85534">
        <ele>574</ele>
        <time>2023-08-15T15:03:25Z</time>
      </trkpt>
      <trkpt lat="42.93009" lon="1.8556">
        <ele>573.7</ele>
        <time>2023-08-15T15:03:28Z</time>
      </trkpt>
      <trkpt lat="42.92998" lon="1.85594">
        <ele>573.5</ele>
        <time>2023-08-15T15:03:32Z</time>
      </trkpt>
      <trkpt lat="42.92985" lon="1.85625">
        <ele>573.5</ele>
        <time>2023-08-15T15:03:36Z</time>
      </trkpt>
      <trkpt lat="42.92969" lon="1.85654">
        <ele>573.2</ele>
        <time>2023-08-15T15:03:40Z</time>
      </trkpt>
      <trkpt lat="42.92955" lon="1.85674">
        <ele>573.3</ele>
        <time>2023-08-15T15:03:43Z</time>
      </trkpt>
      <trkpt lat="42.92938" lon="1.85701">
        <ele>573.5</ele>
        <time>2023-08-15T15:03:47Z</time>
      </trkpt>
      <trkpt lat="42.92921" lon="1.85729">
        <ele>573.8</ele>
        <time>2023-08-15T15:03:51Z</time>
      </trkpt>
      <trkpt lat="42.92903" lon="1.85758">
        <ele>573.8</ele>
        <time>2023-08-15T15:03:55Z</time>
      </trkpt>
      <trkpt lat="42.92885" lon="1.85786">
        <ele>573.8</ele>
        <time>2023-08-15T15:03:59Z</time>
      </trkpt>
      <trkpt lat="42.92872" lon="1.85806">
        <ele>573.9</ele>
        <time>2023-08-15T15:04:02Z</time>
      </trkpt>
      <trkpt lat="42.92855" lon="1.85834">
        <ele>575.7</ele>
        <time>2023-08-15T15:04:06Z</time>
      </trkpt>
      <trkpt lat="42.92843" lon="1.85855">
        <ele>575.7</ele>
        <time>2023-08-15T15:04:09Z</time>
      </trkpt>
      <trkpt lat="42.92827" lon="1.85882">
        <ele>575.7</ele>
        <time>2023-08-15T15:04:13Z</time>
      </trkpt>
      <trkpt lat="42.92811" lon="1.85911">
        <ele>575.7</ele>
        <time>2023-08-15T15:04:17Z</time>
      </trkpt>
      <trkpt lat="42.92794" lon="1.85939">
        <ele>575.7</ele>
        <time>2023-08-15T15:04:21Z</time>
      </trkpt>
      <trkpt lat="42.92777" lon="1.85966">
        <ele>576</ele>
        <time>2023-08-15T15:04:25Z</time>
      </trkpt>
      <trkpt lat="42.92764" lon="1.85986">
        <ele>576.4</ele>
        <time>2023-08-15T15:04:28Z</time>
      </trkpt>
      <trkpt lat="42.92751" lon="1.86006">
        <ele>576.7</ele>
        <time>2023-08-15T15:04:31Z</time>
      </trkpt>
      <trkpt lat="42.92735" lon="1.86033">
        <ele>577.9</ele>
        <time>2023-08-15T15:04:35Z</time>
      </trkpt>
      <trkpt lat="42.92716" lon="1.86059">
        <ele>578.6</ele>
        <time>2023-08-15T15:04:39Z</time>
      </trkpt>
      <trkpt lat="42.92702" lon="1.8608">
        <ele>579.4</ele>
        <time>2023-08-15T15:04:42Z</time>
      </trkpt>
      <trkpt lat="42.92687" lon="1.86111">
        <ele>580</ele>
        <time>2023-08-15T15:04:46Z</time>
      </trkpt>
      <trkpt lat="42.92677" lon="1.86134">
        <ele>580.1</ele>
        <time>2023-08-15T15:04:49Z</time>
      </trkpt>
      <trkpt lat="42.92665" lon="1.86165">
        <ele>580.7</ele>
        <time>2023-08-15T15:04:53Z</time>
      </trkpt>
      <trkpt lat="42.92655" lon="1.86188">
        <ele>581.2</ele>
        <time>2023-08-15T15:04:56Z</time>
      </trkpt>
      <trkpt lat="42.92642" lon="1.86219">
        <ele>581.8</ele>
        <time>2023-08-15T15:05:00Z</time>
      </trkpt>
      <trkpt lat="42.92629" lon="1.86251">
        <ele>582.5</ele>
        <time>2023-08-15T15:05:04Z</time>
      </trkpt>
      <trkpt lat="42.92615" lon="1.86283">
        <ele>583.1</ele>
        <time>2023-08-15T15:05:08Z</time>
      </trkpt>
      <trkpt lat="42.92606" lon="1.86305">
        <ele>583.7</ele>
        <time>2023-08-15T15:05:11Z</time>
      </trkpt>
      <trkpt lat="42.92591" lon="1.86334">
        <ele>584.2</ele>
        <time>2023-08-15T15:05:15Z</time>
      </trkpt>
      <trkpt lat="42.92577" lon="1.86367">
        <ele>584.5</ele>
        <time>2023-08-15T15:05:19Z</time>
      </trkpt>
      <trkpt lat="42.92562" lon="1.86399">
        <ele>584.8</ele>
        <time>2023-08-15T15:05:23Z</time>
      </trkpt>
      <trkpt lat="42.92548" lon="1.8643">
        <ele>584.4</ele>
        <time>2023-08-15T15:05:27Z</time>
      </trkpt>
      <trkpt lat="42.92534" lon="1.8646">
        <ele>584.2</ele>
        <time>2023-08-15T15:05:31Z</time>
      </trkpt>
      <trkpt lat="42.92524" lon="1.86483">
        <ele>584.3</ele>
        <time>2023-08-15T15:05:34Z</time>
      </trkpt>
      <trkpt lat="42.9251" lon="1.86514">
        <ele>584.2</ele>
        <time>2023-08-15T15:05:38Z</time>
      </trkpt>
      <trkpt lat="42.925" lon="1.86537">
        <ele>584</ele>
        <time>2023-08-15T15:05:41Z</time>
      </trkpt>
      <trkpt lat="42.92487" lon="1.86568">
        <ele>584.4</ele>
        <time>2023-08-15T15:05:45Z</time>
      </trkpt>
      <trkpt lat="42.92477" lon="1.86592">
        <ele>584.7</ele>
        <time>2023-08-15T15:05:48Z</time>
      </trkpt>
      <trkpt lat="42.92463" lon="1.86623">
        <ele>584.5</ele>
        <time>2023-08-15T15:05:52Z</time>
      </trkpt>
      <trkpt lat="42.92454" lon="1.86645">
        <ele>584.8</ele>
        <time>2023-08-15T15:05:55Z</time>
      </trkpt>
      <trkpt lat="42.9244" lon="1.86676">
        <ele>584.9</ele>
        <time>2023-08-15T15:05:59Z</time>
      </trkpt>
      <trkpt lat="42.92427" lon="1.86706">
        <ele>585.4</ele>
        <time>2023-08-15T15:06:03Z</time>
      </trkpt>
      <trkpt lat="42.92414" lon="1.86736">
        <ele>585.7</ele>
        <time>2023-08-15T15:06:07Z</time>
      </trkpt>
      <trkpt lat="42.92401" lon="1.86768">
        <ele>586.4</ele>
        <time>2023-08-15T15:06:11Z</time>
      </trkpt>
      <trkpt lat="42.92391" lon="1.86791">
        <ele>586.4</ele>
        <time>2023-08-15T15:06:14Z</time>
      </trkpt>
      <trkpt lat="42.92382" lon="1.86815">
        <ele>586.8</ele>
        <time>2023-08-15T15:06:17Z</time>
      </trkpt>
      <trkpt lat="42.92369" lon="1.86845">
        <ele>586.8</ele>
        <time>2023-08-15T15:06:21Z</time>
      </trkpt>
      <trkpt lat="42.92358" lon="1.86868">
        <ele>587</ele>
        <time>2023-08-15T15:06:24Z</time>
      </trkpt>
      <trkpt lat="42.92343" lon="1.86898">
        <ele>587.5</ele>
        <time>2023-08-15T15:06:28Z</time>
      </trkpt>
      <trkpt lat="42.92329" lon="1.86929">
        <ele>588</ele>
        <time>2023-08-15T15:06:32Z</time>
      </trkpt>
      <trkpt lat="42.92316" lon="1.8696">
        <ele>588.7</ele>
        <time>2023-08-15T15:06:36Z</time>
      </trkpt>
      <trkpt lat="42.92306" lon="1.86994">
        <ele>589.4</ele>
        <time>2023-08-15T15:06:40Z</time>
      </trkpt>
      <trkpt lat="42.923" lon="1.87031">
        <ele>589</ele>
        <time>2023-08-15T15:06:44Z</time>
      </trkpt>
      <trkpt lat="42.92298" lon="1.87068">
        <ele>588.2</ele>
        <time>2023-08-15T15:06:48Z</time>
      </trkpt>
      <trkpt lat="42.92296" lon="1.87104">
        <ele>587.9</ele>
        <time>2023-08-15T15:06:52Z</time>
      </trkpt>
      <trkpt lat="42.92294" lon="1.87139">
        <ele>587.4</ele>
        <time>2023-08-15T15:06:56Z</time>
      </trkpt>
      <trkpt lat="42.92294" lon="1.87166">
        <ele>587.2</ele>
        <time>2023-08-15T15:06:59Z</time>
      </trkpt>
      <trkpt lat="42.92292" lon="1.87203">
        <ele>587</ele>
        <time>2023-08-15T15:07:03Z</time>
      </trkpt>
      <trkpt lat="42.92292" lon="1.87231">
        <ele>587.1</ele>
        <time>2023-08-15T15:07:06Z</time>
      </trkpt>
      <trkpt lat="42.92291" lon="1.87258">
        <ele>586.7</ele>
        <time>2023-08-15T15:07:09Z</time>
      </trkpt>
      <trkpt lat="42.92291" lon="1.87294">
        <ele>586.4</ele>
        <time>2023-08-15T15:07:13Z</time>
      </trkpt>
      <trkpt lat="42.92289" lon="1.87331">
        <ele>586</ele>
        <time>2023-08-15T15:07:17Z</time>
      </trkpt>
      <trkpt lat="42.92287" lon="1.87368">
        <ele>585.2</ele>
        <time>2023-08-15T15:07:21Z</time>
      </trkpt>
      <trkpt lat="42.92288" lon="1.87395">
        <ele>585</ele>
        <time>2023-08-15T15:07:24Z</time>
      </trkpt>
      <trkpt lat="42.92294" lon="1.8743">
        <ele>584.3</ele>
        <time>2023-08-15T15:07:28Z</time>
      </trkpt>
      <trkpt lat="42.923" lon="1.87456">
        <ele>583.6</ele>
        <time>2023-08-15T15:07:31Z</time>
      </trkpt>
      <trkpt lat="42.92308" lon="1.87489">
        <ele>582.9</ele>
        <time>2023-08-15T15:07:35Z</time>
      </trkpt>
      <trkpt lat="42.92314" lon="1.87524">
        <ele>581.8</ele>
        <time>2023-08-15T15:07:39Z</time>
      </trkpt>
      <trkpt lat="42.92313" lon="1.8756">
        <ele>580.5</ele>
        <time>2023-08-15T15:07:43Z</time>
      </trkpt>
      <trkpt lat="42.92305" lon="1.87595">
        <ele>579.4</ele>
        <time>2023-08-15T15:07:47Z</time>
      </trkpt>
      <trkpt lat="42.92294" lon="1.87629">
        <ele>578.7</ele>
        <time>2023-08-15T15:07:51Z</time>
      </trkpt>
      <trkpt lat="42.92285" lon="1.87653">
        <ele>578</ele>
        <time>2023-08-15T15:07:54Z</time>
      </trkpt>
      <trkpt lat="42.92276" lon="1.87678">
        <ele>577.5</ele>
        <time>2023-08-15T15:07:57Z</time>
      </trkpt>
      <trkpt lat="42.92268" lon="1.87712">
        <ele>576.6</ele>
        <time>2023-08-15T15:08:01Z</time>
      </trkpt>
      <trkpt lat="42.92265" lon="1.87738">
        <ele>575.8</ele>
        <time>2023-08-15T15:08:04Z</time>
      </trkpt>
      <trkpt lat="42.92261" lon="1.87774">
        <ele>574.9</ele>
        <time>2023-08-15T15:08:08Z</time>
      </trkpt>
      <trkpt lat="42.92255" lon="1.87809">
        <ele>573.9</ele>
        <time>2023-08-15T15:08:12Z</time>
      </trkpt>
      <trkpt lat="42.9225" lon="1.87835">
        <ele>572.8</ele>
        <time>2023-08-15T15:08:15Z</time>
      </trkpt>
      <trkpt lat="42.92245" lon="1.87861">
        <ele>572.1</ele>
        <time>2023-08-15T15:08:18Z</time>
      </trkpt>
      <trkpt lat="42.92236" lon="1.87895">
        <ele>571.1</ele>
        <time>2023-08-15T15:08:22Z</time>
      </trkpt>
      <trkpt lat="42.92226" lon="1.87928">
        <ele>570.5</ele>
        <time>2023-08-15T15:08:26Z</time>
      </trkpt>
      <trkpt lat="42.92215" lon="1.87962">
        <ele>569.4</ele>
        <time>2023-08-15T15:08:30Z</time>
      </trkpt>
      <trkpt lat="42.92204" lon="1.87996">
        <ele>568.6</ele>
        <time>2023-08-15T15:08:34Z</time>
      </trkpt>
      <trkpt lat="42.92196" lon="1.88021">
        <ele>568</ele>
        <time>2023-08-15T15:08:37Z</time>
      </trkpt>
      <trkpt lat="42.92189" lon="1.88046">
        <ele>567.5</ele>
        <time>2023-08-15T15:08:40Z</time>
      </trkpt>
      <trkpt lat="42.92181" lon="1.88071">
        <ele>566.8</ele>
        <time>2023-08-15T15:08:43Z</time>
      </trkpt>
      <trkpt lat="42.92174" lon="1.88106">
        <ele>566.1</ele>
        <time>2023-08-15T15:08:47Z</time>
      </trkpt>
      <trkpt lat="42.92171" lon="1.88133">
        <ele>565.5</ele>
        <time>2023-08-15T15:08:50Z</time>
      </trkpt>
      <trkpt lat="42.92172" lon="1.88169">
        <ele>564.8</ele>
        <time>2023-08-15T15:08:54Z</time>
      </trkpt>
      <trkpt lat="42.92169" lon="1.88205">
        <ele>563.5</ele>
        <time>2023-08-15T15:08:58Z</time>
      </trkpt>
      <trkpt lat="42.92157" lon="1.88237">
        <ele>562.5</ele>
        <time>2023-08-15T15:09:02Z</time>
      </trkpt>
      <trkpt lat="42.92146" lon="1.88258">
        <ele>561.8</ele>
        <time>2023-08-15T15:09:05Z</time>
      </trkpt>
      <trkpt lat="42.92135" lon="1.88274">
        <ele>560.8</ele>
        <time>2023-08-15T15:09:08Z</time>
      </trkpt>
      <trkpt lat="42.92126" lon="1.88288">
        <ele>560.1</ele>
        <time>2023-08-15T15:09:11Z</time>
      </trkpt>
      <trkpt lat="42.92121" lon="1.883">
        <ele>559.7</ele>
        <time>2023-08-15T15:09:14Z</time>
      </trkpt>
      <trkpt lat="42.92111" lon="1.88324">
        <ele>559.1</ele>
        <time>2023-08-15T15:09:18Z</time>
      </trkpt>
      <trkpt lat="42.92106" lon="1.88344">
        <ele>558.6</ele>
        <time>2023-08-15T15:09:21Z</time>
      </trkpt>
      <trkpt lat="42.92099" lon="1.88367">
        <ele>558</ele>
        <time>2023-08-15T15:09:24Z</time>
      </trkpt>
      <trkpt lat="42.92089" lon="1.88401">
        <ele>557.4</ele>
        <time>2023-08-15T15:09:28Z</time>
      </trkpt>
      <trkpt lat="42.92081" lon="1.88428">
        <ele>556.9</ele>
        <time>2023-08-15T15:09:31Z</time>
      </trkpt>
      <trkpt lat="42.92071" lon="1.88462">
        <ele>555.6</ele>
        <time>2023-08-15T15:09:35Z</time>
      </trkpt>
      <trkpt lat="42.92064" lon="1.88488">
        <ele>555.2</ele>
        <time>2023-08-15T15:09:38Z</time>
      </trkpt>
      <trkpt lat="42.92057" lon="1.88514">
        <ele>554.4</ele>
        <time>2023-08-15T15:09:41Z</time>
      </trkpt>
      <trkpt lat="42.92049" lon="1.88547">
        <ele>553.4</ele>
        <time>2023-08-15T15:09:45Z</time>
      </trkpt>
      <trkpt lat="42.92043" lon="1.88572">
        <ele>552.9</ele>
        <time>2023-08-15T15:09:48Z</time>
      </trkpt>
      <trkpt lat="42.92038" lon="1.88598">
        <ele>552.3</ele>
        <time>2023-08-15T15:09:51Z</time>
      </trkpt>
      <trkpt lat="42.92031" lon="1.88633">
        <ele>551.8</ele>
        <time>2023-08-15T15:09:55Z</time>
      </trkpt>
      <trkpt lat="42.92025" lon="1.8866">
        <ele>550.7</ele>
        <time>2023-08-15T15:09:58Z</time>
      </trkpt>
      <trkpt lat="42.9202" lon="1.88686">
        <ele>549.9</ele>
        <time>2023-08-15T15:10:01Z</time>
      </trkpt>
      <trkpt lat="42.92015" lon="1.88721">
        <ele>548.7</ele>
        <time>2023-08-15T15:10:05Z</time>
      </trkpt>
      <trkpt lat="42.92007" lon="1.88755">
        <ele>548</ele>
        <time>2023-08-15T15:10:09Z</time>
      </trkpt>
      <trkpt lat="42.92" lon="1.8878">
        <ele>547.4</ele>
        <time>2023-08-15T15:10:12Z</time>
      </trkpt>
      <trkpt lat="42.91988" lon="1.88814">
        <ele>546.8</ele>
        <time>2023-08-15T15:10:16Z</time>
      </trkpt>
      <trkpt lat="42.91977" lon="1.88847">
        <ele>546.2</ele>
        <time>2023-08-15T15:10:20Z</time>
      </trkpt>
      <trkpt lat="42.91971" lon="1.88882">
        <ele>545.5</ele>
        <time>2023-08-15T15:10:24Z</time>
      </trkpt>
      <trkpt lat="42.91967" lon="1.88908">
        <ele>544.8</ele>
        <time>2023-08-15T15:10:27Z</time>
      </trkpt>
      <trkpt lat="42.91963" lon="1.88935">
        <ele>543.8</ele>
        <time>2023-08-15T15:10:30Z</time>
      </trkpt>
      <trkpt lat="42.91958" lon="1.88962">
        <ele>542.8</ele>
        <time>2023-08-15T15:10:33Z</time>
      </trkpt>
      <trkpt lat="42.91951" lon="1.88996">
        <ele>542.1</ele>
        <time>2023-08-15T15:10:37Z</time>
      </trkpt>
      <trkpt lat="42.91946" lon="1.89032">
        <ele>541.1</ele>
        <time>2023-08-15T15:10:41Z</time>
      </trkpt>
      <trkpt lat="42.91944" lon="1.89059">
        <ele>540.3</ele>
        <time>2023-08-15T15:10:44Z</time>
      </trkpt>
      <trkpt lat="42.91939" lon="1.89095">
        <ele>539.5</ele>
        <time>2023-08-15T15:10:48Z</time>
      </trkpt>
      <trkpt lat="42.91932" lon="1.89131">
        <ele>538.5</ele>
        <time>2023-08-15T15:10:52Z</time>
      </trkpt>
      <trkpt lat="42.91922" lon="1.89164">
        <ele>537.6</ele>
        <time>2023-08-15T15:10:56Z</time>
      </trkpt>
      <trkpt lat="42.91906" lon="1.89192">
        <ele>536.8</ele>
        <time>2023-08-15T15:11:00Z</time>
      </trkpt>
      <trkpt lat="42.91892" lon="1.89211">
        <ele>536.3</ele>
        <time>2023-08-15T15:11:03Z</time>
      </trkpt>
      <trkpt lat="42.91881" lon="1.89232">
        <ele>536</ele>
        <time>2023-08-15T15:11:06Z</time>
      </trkpt>
      <trkpt lat="42.91874" lon="1.89257">
        <ele>534.6</ele>
        <time>2023-08-15T15:11:09Z</time>
      </trkpt>
      <trkpt lat="42.91869" lon="1.89294">
        <ele>533.9</ele>
        <time>2023-08-15T15:11:13Z</time>
      </trkpt>
      <trkpt lat="42.91868" lon="1.89321">
        <ele>532.7</ele>
        <time>2023-08-15T15:11:16Z</time>
      </trkpt>
      <trkpt lat="42.91865" lon="1.89357">
        <ele>531.9</ele>
        <time>2023-08-15T15:11:20Z</time>
      </trkpt>
      <trkpt lat="42.91858" lon="1.89381">
        <ele>531.7</ele>
        <time>2023-08-15T15:11:23Z</time>
      </trkpt>
      <trkpt lat="42.91844" lon="1.89412">
        <ele>531.1</ele>
        <time>2023-08-15T15:11:27Z</time>
      </trkpt>
      <trkpt lat="42.91832" lon="1.89434">
        <ele>530.3</ele>
        <time>2023-08-15T15:11:30Z</time>
      </trkpt>
      <trkpt lat="42.91817" lon="1.89464">
        <ele>529.2</ele>
        <time>2023-08-15T15:11:34Z</time>
      </trkpt>
      <trkpt lat="42.918" lon="1.89494">
        <ele>528.3</ele>
        <time>2023-08-15T15:11:38Z</time>
      </trkpt>
      <trkpt lat="42.91784" lon="1.89523">
        <ele>527.5</ele>
        <time>2023-08-15T15:11:42Z</time>
      </trkpt>
      <trkpt lat="42.91768" lon="1.89554">
        <ele>527.3</ele>
        <time>2023-08-15T15:11:46Z</time>
      </trkpt>
      <trkpt lat="42.91754" lon="1.89584">
        <ele>526.1</ele>
        <time>2023-08-15T15:11:50Z</time>
      </trkpt>
      <trkpt lat="42.91743" lon="1.89617">
        <ele>525.4</ele>
        <time>2023-08-15T15:11:54Z</time>
      </trkpt>
      <trkpt lat="42.91736" lon="1.89643">
        <ele>524.1</ele>
        <time>2023-08-15T15:11:57Z</time>
      </trkpt>
      <trkpt lat="42.91727" lon="1.89676">
        <ele>524</ele>
        <time>2023-08-15T15:12:01Z</time>
      </trkpt>
      <trkpt lat="42.9172" lon="1.89701">
        <ele>522.3</ele>
        <time>2023-08-15T15:12:04Z</time>
      </trkpt>
      <trkpt lat="42.91714" lon="1.89727">
        <ele>521.7</ele>
        <time>2023-08-15T15:12:07Z</time>
      </trkpt>
      <trkpt lat="42.91708" lon="1.89762">
        <ele>521.8</ele>
        <time>2023-08-15T15:12:11Z</time>
      </trkpt>
      <trkpt lat="42.91706" lon="1.89789">
        <ele>521.2</ele>
        <time>2023-08-15T15:12:14Z</time>
      </trkpt>
      <trkpt lat="42.91707" lon="1.89815">
        <ele>520.2</ele>
        <time>2023-08-15T15:12:17Z</time>
      </trkpt>
      <trkpt lat="42.91709" lon="1.89847">
        <ele>519.4</ele>
        <time>2023-08-15T15:12:21Z</time>
      </trkpt>
      <trkpt lat="42.91709" lon="1.89868">
        <ele>518.3</ele>
        <time>2023-08-15T15:12:24Z</time>
      </trkpt>
      <trkpt lat="42.9171" lon="1.89889">
        <ele>518.6</ele>
        <time>2023-08-15T15:12:28Z</time>
      </trkpt>
      <trkpt lat="42.9171" lon="1.899">
        <ele>516</ele>
        <time>2023-08-15T15:12:32Z</time>
      </trkpt>
      <trkpt lat="42.91711" lon="1.89921">
        <ele>516</ele>
        <time>2023-08-15T15:12:36Z</time>
      </trkpt>
      <trkpt lat="42.91712" lon="1.89954">
        <ele>516</ele>
        <time>2023-08-15T15:12:39Z</time>
      </trkpt>
      <trkpt lat="42.9171" lon="1.89987">
        <ele>516</ele>
        <time>2023-08-15T15:12:42Z</time>
      </trkpt>
      <trkpt lat="42.91709" lon="1.90025">
        <ele>516</ele>
        <time>2023-08-15T15:12:46Z</time>
      </trkpt>
      <trkpt lat="42.91707" lon="1.90051">
        <ele>516</ele>
        <time>2023-08-15T15:12:49Z</time>
      </trkpt>
      <trkpt lat="42.91707" lon="1.90087">
        <ele>516</ele>
        <time>2023-08-15T15:12:53Z</time>
      </trkpt>
      <trkpt lat="42.91708" lon="1.90123">
        <ele>516</ele>
        <time>2023-08-15T15:12:57Z</time>
      </trkpt>
      <trkpt lat="42.9171" lon="1.90159">
        <ele>516</ele>
        <time>2023-08-15T15:13:01Z</time>
      </trkpt>
      <trkpt lat="42.91707" lon="1.90194">
        <ele>516</ele>
        <time>2023-08-15T15:13:05Z</time>
      </trkpt>
      <trkpt lat="42.91694" lon="1.90225">
        <ele>518.2</ele>
        <time>2023-08-15T15:13:09Z</time>
      </trkpt>
      <trkpt lat="42.91676" lon="1.90249">
        <ele>516</ele>
        <time>2023-08-15T15:13:13Z</time>
      </trkpt>
      <trkpt lat="42.91663" lon="1.90268">
        <ele>518</ele>
        <time>2023-08-15T15:13:16Z</time>
      </trkpt>
      <trkpt lat="42.91642" lon="1.90298">
        <ele>517.7</ele>
        <time>2023-08-15T15:13:20Z</time>
      </trkpt>
      <trkpt lat="42.91625" lon="1.90326">
        <ele>518.2</ele>
        <time>2023-08-15T15:13:24Z</time>
      </trkpt>
      <trkpt lat="42.91609" lon="1.90354">
        <ele>518.5</ele>
        <time>2023-08-15T15:13:28Z</time>
      </trkpt>
      <trkpt lat="42.91593" lon="1.90382">
        <ele>522.8</ele>
        <time>2023-08-15T15:13:32Z</time>
      </trkpt>
      <trkpt lat="42.91578" lon="1.90412">
        <ele>520.7</ele>
        <time>2023-08-15T15:13:36Z</time>
      </trkpt>
      <trkpt lat="42.91572" lon="1.90438">
        <ele>520.2</ele>
        <time>2023-08-15T15:13:39Z</time>
      </trkpt>
      <trkpt lat="42.91565" lon="1.90472">
        <ele>521.1</ele>
        <time>2023-08-15T15:13:43Z</time>
      </trkpt>
      <trkpt lat="42.91559" lon="1.90498">
        <ele>521.7</ele>
        <time>2023-08-15T15:13:46Z</time>
      </trkpt>
      <trkpt lat="42.91549" lon="1.90532">
        <ele>520.6</ele>
        <time>2023-08-15T15:13:50Z</time>
      </trkpt>
      <trkpt lat="42.91541" lon="1.90564">
        <ele>523.6</ele>
        <time>2023-08-15T15:13:54Z</time>
      </trkpt>
      <trkpt lat="42.91534" lon="1.90598">
        <ele>524.8</ele>
        <time>2023-08-15T15:13:58Z</time>
      </trkpt>
      <trkpt lat="42.91526" lon="1.90635">
        <ele>523.2</ele>
        <time>2023-08-15T15:14:02Z</time>
      </trkpt>
      <trkpt lat="42.91519" lon="1.90659">
        <ele>525.1</ele>
        <time>2023-08-15T15:14:05Z</time>
      </trkpt>
      <trkpt lat="42.91513" lon="1.90685">
        <ele>525.2</ele>
        <time>2023-08-15T15:14:08Z</time>
      </trkpt>
      <trkpt lat="42.91505" lon="1.90719">
        <ele>525.4</ele>
        <time>2023-08-15T15:14:12Z</time>
      </trkpt>
      <trkpt lat="42.91499" lon="1.90745">
        <ele>525.7</ele>
        <time>2023-08-15T15:14:16Z</time>
      </trkpt>
      <trkpt lat="42.91493" lon="1.90768">
        <ele>525.5</ele>
        <time>2023-08-15T15:14:20Z</time>
      </trkpt>
      <trkpt lat="42.91486" lon="1.90791">
        <ele>526.4</ele>
        <time>2023-08-15T15:14:23Z</time>
      </trkpt>
      <trkpt lat="42.91479" lon="1.90819">
        <ele>524.8</ele>
        <time>2023-08-15T15:14:26Z</time>
      </trkpt>
      <trkpt lat="42.91469" lon="1.90858">
        <ele>524.5</ele>
        <time>2023-08-15T15:14:30Z</time>
      </trkpt>
      <trkpt lat="42.91462" lon="1.90883">
        <ele>527.2</ele>
        <time>2023-08-15T15:14:33Z</time>
      </trkpt>
      <trkpt lat="42.91454" lon="1.90916">
        <ele>527.6</ele>
        <time>2023-08-15T15:14:37Z</time>
      </trkpt>
      <trkpt lat="42.91445" lon="1.90951">
        <ele>528.4</ele>
        <time>2023-08-15T15:14:41Z</time>
      </trkpt>
      <trkpt lat="42.91437" lon="1.90985">
        <ele>528.3</ele>
        <time>2023-08-15T15:14:45Z</time>
      </trkpt>
      <trkpt lat="42.91431" lon="1.9101">
        <ele>528.3</ele>
        <time>2023-08-15T15:14:48Z</time>
      </trkpt>
      <trkpt lat="42.91423" lon="1.91044">
        <ele>528.6</ele>
        <time>2023-08-15T15:14:52Z</time>
      </trkpt>
      <trkpt lat="42.91417" lon="1.9107">
        <ele>528.8</ele>
        <time>2023-08-15T15:14:55Z</time>
      </trkpt>
      <trkpt lat="42.91408" lon="1.91104">
        <ele>528.9</ele>
        <time>2023-08-15T15:14:59Z</time>
      </trkpt>
      <trkpt lat="42.91401" lon="1.9113">
        <ele>529.3</ele>
        <time>2023-08-15T15:15:02Z</time>
      </trkpt>
      <trkpt lat="42.91393" lon="1.91164">
        <ele>529.2</ele>
        <time>2023-08-15T15:15:06Z</time>
      </trkpt>
      <trkpt lat="42.91388" lon="1.9119">
        <ele>529.9</ele>
        <time>2023-08-15T15:15:09Z</time>
      </trkpt>
      <trkpt lat="42.91382" lon="1.91215">
        <ele>530.3</ele>
        <time>2023-08-15T15:15:12Z</time>
      </trkpt>
      <trkpt lat="42.91374" lon="1.9125">
        <ele>530.6</ele>
        <time>2023-08-15T15:15:16Z</time>
      </trkpt>
      <trkpt lat="42.91367" lon="1.91275">
        <ele>530.6</ele>
        <time>2023-08-15T15:15:19Z</time>
      </trkpt>
      <trkpt lat="42.91359" lon="1.9131">
        <ele>530.8</ele>
        <time>2023-08-15T15:15:23Z</time>
      </trkpt>
      <trkpt lat="42.9135" lon="1.91343">
        <ele>531.1</ele>
        <time>2023-08-15T15:15:27Z</time>
      </trkpt>
      <trkpt lat="42.91342" lon="1.91378">
        <ele>531.2</ele>
        <time>2023-08-15T15:15:31Z</time>
      </trkpt>
      <trkpt lat="42.91334" lon="1.91414">
        <ele>531.1</ele>
        <time>2023-08-15T15:15:35Z</time>
      </trkpt>
      <trkpt lat="42.91328" lon="1.91439">
        <ele>531.7</ele>
        <time>2023-08-15T15:15:38Z</time>
      </trkpt>
      <trkpt lat="42.91319" lon="1.91473">
        <ele>531.8</ele>
        <time>2023-08-15T15:15:42Z</time>
      </trkpt>
      <trkpt lat="42.9131" lon="1.91507">
        <ele>532.1</ele>
        <time>2023-08-15T15:15:46Z</time>
      </trkpt>
      <trkpt lat="42.91302" lon="1.91542">
        <ele>532.3</ele>
        <time>2023-08-15T15:15:50Z</time>
      </trkpt>
      <trkpt lat="42.91294" lon="1.91576">
        <ele>532.6</ele>
        <time>2023-08-15T15:15:54Z</time>
      </trkpt>
      <trkpt lat="42.91286" lon="1.91611">
        <ele>532.8</ele>
        <time>2023-08-15T15:15:58Z</time>
      </trkpt>
      <trkpt lat="42.9128" lon="1.91636">
        <ele>532.7</ele>
        <time>2023-08-15T15:16:01Z</time>
      </trkpt>
      <trkpt lat="42.91273" lon="1.91671">
        <ele>533.1</ele>
        <time>2023-08-15T15:16:05Z</time>
      </trkpt>
      <trkpt lat="42.91264" lon="1.91705">
        <ele>533.7</ele>
        <time>2023-08-15T15:16:09Z</time>
      </trkpt>
      <trkpt lat="42.91259" lon="1.9173">
        <ele>533.8</ele>
        <time>2023-08-15T15:16:12Z</time>
      </trkpt>
      <trkpt lat="42.91251" lon="1.91765">
        <ele>534.1</ele>
        <time>2023-08-15T15:16:16Z</time>
      </trkpt>
      <trkpt lat="42.91244" lon="1.91789">
        <ele>534.2</ele>
        <time>2023-08-15T15:16:19Z</time>
      </trkpt>
      <trkpt lat="42.91234" lon="1.91823">
        <ele>534.4</ele>
        <time>2023-08-15T15:16:23Z</time>
      </trkpt>
      <trkpt lat="42.91229" lon="1.91849">
        <ele>534.7</ele>
        <time>2023-08-15T15:16:26Z</time>
      </trkpt>
      <trkpt lat="42.91223" lon="1.91876">
        <ele>535.1</ele>
        <time>2023-08-15T15:16:29Z</time>
      </trkpt>
      <trkpt lat="42.91214" lon="1.91911">
        <ele>534.9</ele>
        <time>2023-08-15T15:16:33Z</time>
      </trkpt>
      <trkpt lat="42.91208" lon="1.91936">
        <ele>535</ele>
        <time>2023-08-15T15:16:36Z</time>
      </trkpt>
      <trkpt lat="42.91199" lon="1.9197">
        <ele>535.6</ele>
        <time>2023-08-15T15:16:40Z</time>
      </trkpt>
      <trkpt lat="42.91192" lon="1.91995">
        <ele>535.7</ele>
        <time>2023-08-15T15:16:43Z</time>
      </trkpt>
      <trkpt lat="42.91184" lon="1.92029">
        <ele>536.1</ele>
        <time>2023-08-15T15:16:47Z</time>
      </trkpt>
      <trkpt lat="42.91175" lon="1.92063">
        <ele>536.4</ele>
        <time>2023-08-15T15:16:51Z</time>
      </trkpt>
      <trkpt lat="42.91166" lon="1.92098">
        <ele>536.6</ele>
        <time>2023-08-15T15:16:55Z</time>
      </trkpt>
      <trkpt lat="42.91157" lon="1.92133">
        <ele>536.7</ele>
        <time>2023-08-15T15:16:59Z</time>
      </trkpt>
      <trkpt lat="42.91152" lon="1.92158">
        <ele>536.8</ele>
        <time>2023-08-15T15:17:02Z</time>
      </trkpt>
      <trkpt lat="42.91144" lon="1.92194">
        <ele>537.4</ele>
        <time>2023-08-15T15:17:06Z</time>
      </trkpt>
      <trkpt lat="42.91138" lon="1.9222">
        <ele>537.3</ele>
        <time>2023-08-15T15:17:09Z</time>
      </trkpt>
      <trkpt lat="42.91131" lon="1.92245">
        <ele>537.2</ele>
        <time>2023-08-15T15:17:12Z</time>
      </trkpt>
      <trkpt lat="42.9112" lon="1.92277">
        <ele>537.3</ele>
        <time>2023-08-15T15:17:16Z</time>
      </trkpt>
      <trkpt lat="42.91108" lon="1.92309">
        <ele>537.1</ele>
        <time>2023-08-15T15:17:20Z</time>
      </trkpt>
      <trkpt lat="42.91094" lon="1.92339">
        <ele>537.1</ele>
        <time>2023-08-15T15:17:24Z</time>
      </trkpt>
      <trkpt lat="42.91077" lon="1.92366">
        <ele>537.4</ele>
        <time>2023-08-15T15:17:28Z</time>
      </trkpt>
      <trkpt lat="42.91059" lon="1.92393">
        <ele>537.3</ele>
        <time>2023-08-15T15:17:32Z</time>
      </trkpt>
      <trkpt lat="42.91044" lon="1.92412">
        <ele>538</ele>
        <time>2023-08-15T15:17:35Z</time>
      </trkpt>
      <trkpt lat="42.91026" lon="1.92438">
        <ele>538.5</ele>
        <time>2023-08-15T15:17:39Z</time>
      </trkpt>
      <trkpt lat="42.91007" lon="1.92464">
        <ele>539</ele>
        <time>2023-08-15T15:17:43Z</time>
      </trkpt>
      <trkpt lat="42.90993" lon="1.92483">
        <ele>539.4</ele>
        <time>2023-08-15T15:17:46Z</time>
      </trkpt>
      <trkpt lat="42.90975" lon="1.92508">
        <ele>539.8</ele>
        <time>2023-08-15T15:17:50Z</time>
      </trkpt>
      <trkpt lat="42.9096" lon="1.92527">
        <ele>539.7</ele>
        <time>2023-08-15T15:17:53Z</time>
      </trkpt>
      <trkpt lat="42.90942" lon="1.92553">
        <ele>540</ele>
        <time>2023-08-15T15:17:57Z</time>
      </trkpt>
      <trkpt lat="42.90924" lon="1.92578">
        <ele>540.3</ele>
        <time>2023-08-15T15:18:01Z</time>
      </trkpt>
      <trkpt lat="42.90905" lon="1.92603">
        <ele>540.7</ele>
        <time>2023-08-15T15:18:05Z</time>
      </trkpt>
      <trkpt lat="42.90885" lon="1.92629">
        <ele>540.7</ele>
        <time>2023-08-15T15:18:09Z</time>
      </trkpt>
      <trkpt lat="42.90866" lon="1.92655">
        <ele>540.7</ele>
        <time>2023-08-15T15:18:13Z</time>
      </trkpt>
      <trkpt lat="42.90852" lon="1.92674">
        <ele>541</ele>
        <time>2023-08-15T15:18:16Z</time>
      </trkpt>
      <trkpt lat="42.90839" lon="1.92693">
        <ele>541</ele>
        <time>2023-08-15T15:18:19Z</time>
      </trkpt>
      <trkpt lat="42.9082" lon="1.92718">
        <ele>541</ele>
        <time>2023-08-15T15:18:23Z</time>
      </trkpt>
      <trkpt lat="42.90807" lon="1.92737">
        <ele>541.5</ele>
        <time>2023-08-15T15:18:26Z</time>
      </trkpt>
      <trkpt lat="42.9079" lon="1.92761">
        <ele>541.3</ele>
        <time>2023-08-15T15:18:30Z</time>
      </trkpt>
      <trkpt lat="42.90774" lon="1.92783">
        <ele>541.6</ele>
        <time>2023-08-15T15:18:34Z</time>
      </trkpt>
      <trkpt lat="42.90757" lon="1.92806">
        <ele>541.9</ele>
        <time>2023-08-15T15:18:38Z</time>
      </trkpt>
      <trkpt lat="42.90743" lon="1.92825">
        <ele>542.2</ele>
        <time>2023-08-15T15:18:41Z</time>
      </trkpt>
      <trkpt lat="42.90729" lon="1.92844">
        <ele>542.5</ele>
        <time>2023-08-15T15:18:44Z</time>
      </trkpt>
      <trkpt lat="42.9071" lon="1.9287">
        <ele>542.4</ele>
        <time>2023-08-15T15:18:48Z</time>
      </trkpt>
      <trkpt lat="42.90696" lon="1.92889">
        <ele>542.6</ele>
        <time>2023-08-15T15:18:51Z</time>
      </trkpt>
      <trkpt lat="42.90677" lon="1.92915">
        <ele>542.7</ele>
        <time>2023-08-15T15:18:55Z</time>
      </trkpt>
      <trkpt lat="42.90664" lon="1.92934">
        <ele>542.8</ele>
        <time>2023-08-15T15:18:58Z</time>
      </trkpt>
      <trkpt lat="42.90645" lon="1.92959">
        <ele>543.1</ele>
        <time>2023-08-15T15:19:02Z</time>
      </trkpt>
      <trkpt lat="42.90627" lon="1.92984">
        <ele>543.7</ele>
        <time>2023-08-15T15:19:06Z</time>
      </trkpt>
      <trkpt lat="42.90608" lon="1.93009">
        <ele>543.9</ele>
        <time>2023-08-15T15:19:10Z</time>
      </trkpt>
      <trkpt lat="42.90593" lon="1.93028">
        <ele>543.9</ele>
        <time>2023-08-15T15:19:13Z</time>
      </trkpt>
      <trkpt lat="42.90579" lon="1.93048">
        <ele>544</ele>
        <time>2023-08-15T15:19:16Z</time>
      </trkpt>
      <trkpt lat="42.9056" lon="1.93073">
        <ele>544.2</ele>
        <time>2023-08-15T15:19:20Z</time>
      </trkpt>
      <trkpt lat="42.90546" lon="1.93092">
        <ele>544.4</ele>
        <time>2023-08-15T15:19:23Z</time>
      </trkpt>
      <trkpt lat="42.90528" lon="1.93118">
        <ele>544.4</ele>
        <time>2023-08-15T15:19:27Z</time>
      </trkpt>
      <trkpt lat="42.90509" lon="1.93142">
        <ele>544.6</ele>
        <time>2023-08-15T15:19:31Z</time>
      </trkpt>
      <trkpt lat="42.90491" lon="1.93168">
        <ele>545.2</ele>
        <time>2023-08-15T15:19:35Z</time>
      </trkpt>
      <trkpt lat="42.90477" lon="1.93187">
        <ele>545.4</ele>
        <time>2023-08-15T15:19:38Z</time>
      </trkpt>
      <trkpt lat="42.90459" lon="1.93213">
        <ele>546.1</ele>
        <time>2023-08-15T15:19:42Z</time>
      </trkpt>
      <trkpt lat="42.90441" lon="1.93237">
        <ele>546.5</ele>
        <time>2023-08-15T15:19:46Z</time>
      </trkpt>
      <trkpt lat="42.90424" lon="1.93259">
        <ele>546.4</ele>
        <time>2023-08-15T15:19:50Z</time>
      </trkpt>
      <trkpt lat="42.90406" lon="1.93282">
        <ele>546.7</ele>
        <time>2023-08-15T15:19:54Z</time>
      </trkpt>
      <trkpt lat="42.90388" lon="1.93307">
        <ele>546.5</ele>
        <time>2023-08-15T15:19:58Z</time>
      </trkpt>
      <trkpt lat="42.90371" lon="1.9333">
        <ele>547</ele>
        <time>2023-08-15T15:20:02Z</time>
      </trkpt>
      <trkpt lat="42.9036" lon="1.93347">
        <ele>547.4</ele>
        <time>2023-08-15T15:20:05Z</time>
      </trkpt>
      <trkpt lat="42.90345" lon="1.93369">
        <ele>547.7</ele>
        <time>2023-08-15T15:20:09Z</time>
      </trkpt>
      <trkpt lat="42.90331" lon="1.93383">
        <ele>547.9</ele>
        <time>2023-08-15T15:20:13Z</time>
      </trkpt>
      <trkpt lat="42.90322" lon="1.93399">
        <ele>547.9</ele>
        <time>2023-08-15T15:20:17Z</time>
      </trkpt>
      <trkpt lat="42.90333" lon="1.9342">
        <ele>547.8</ele>
        <time>2023-08-15T15:20:21Z</time>
      </trkpt>
      <trkpt lat="42.90344" lon="1.93435">
        <ele>547.4</ele>
        <time>2023-08-15T15:20:25Z</time>
      </trkpt>
      <trkpt lat="42.90342" lon="1.93444">
        <ele>547.5</ele>
        <time>2023-08-15T15:20:28Z</time>
      </trkpt>
      <trkpt lat="42.90328" lon="1.93455">
        <ele>548</ele>
        <time>2023-08-15T15:20:32Z</time>
      </trkpt>
      <trkpt lat="42.90311" lon="1.93466">
        <ele>548.2</ele>
        <time>2023-08-15T15:20:35Z</time>
      </trkpt>
      <trkpt lat="42.90291" lon="1.93482">
        <ele>548.1</ele>
        <time>2023-08-15T15:20:39Z</time>
      </trkpt>
      <trkpt lat="42.90271" lon="1.93499">
        <ele>548</ele>
        <time>2023-08-15T15:20:43Z</time>
      </trkpt>
      <trkpt lat="42.90253" lon="1.93514">
        <ele>547.6</ele>
        <time>2023-08-15T15:20:47Z</time>
      </trkpt>
      <trkpt lat="42.90238" lon="1.93525">
        <ele>547.7</ele>
        <time>2023-08-15T15:20:50Z</time>
      </trkpt>
      <trkpt lat="42.90225" lon="1.93537">
        <ele>547.4</ele>
        <time>2023-08-15T15:20:53Z</time>
      </trkpt>
      <trkpt lat="42.90209" lon="1.93534">
        <ele>547.4</ele>
        <time>2023-08-15T15:20:57Z</time>
      </trkpt>
      <trkpt lat="42.90197" lon="1.93514">
        <ele>547.9</ele>
        <time>2023-08-15T15:21:01Z</time>
      </trkpt>
      <trkpt lat="42.90182" lon="1.93491">
        <ele>548.7</ele>
        <time>2023-08-15T15:21:05Z</time>
      </trkpt>
      <trkpt lat="42.90164" lon="1.93472">
        <ele>549.1</ele>
        <time>2023-08-15T15:21:09Z</time>
      </trkpt>
      <trkpt lat="42.90148" lon="1.9346">
        <ele>549.8</ele>
        <time>2023-08-15T15:21:12Z</time>
      </trkpt>
      <trkpt lat="42.90124" lon="1.93443">
        <ele>549.5</ele>
        <time>2023-08-15T15:21:16Z</time>
      </trkpt>
      <trkpt lat="42.90099" lon="1.93426">
        <ele>551.7</ele>
        <time>2023-08-15T15:21:20Z</time>
      </trkpt>
      <trkpt lat="42.90075" lon="1.93408">
        <ele>553</ele>
        <time>2023-08-15T15:21:24Z</time>
      </trkpt>
      <trkpt lat="42.90053" lon="1.9339">
        <ele>554.7</ele>
        <time>2023-08-15T15:21:28Z</time>
      </trkpt>
      <trkpt lat="42.90032" lon="1.9337">
        <ele>555.6</ele>
        <time>2023-08-15T15:21:32Z</time>
      </trkpt>
      <trkpt lat="42.90009" lon="1.93351">
        <ele>556.9</ele>
        <time>2023-08-15T15:21:36Z</time>
      </trkpt>
      <trkpt lat="42.89992" lon="1.93338">
        <ele>558.4</ele>
        <time>2023-08-15T15:21:39Z</time>
      </trkpt>
      <trkpt lat="42.8997" lon="1.9332">
        <ele>557.7</ele>
        <time>2023-08-15T15:21:43Z</time>
      </trkpt>
      <trkpt lat="42.89952" lon="1.93306">
        <ele>559</ele>
        <time>2023-08-15T15:21:46Z</time>
      </trkpt>
      <trkpt lat="42.8993" lon="1.93288">
        <ele>561.4</ele>
        <time>2023-08-15T15:21:50Z</time>
      </trkpt>
      <trkpt lat="42.89913" lon="1.93276">
        <ele>562.6</ele>
        <time>2023-08-15T15:21:53Z</time>
      </trkpt>
      <trkpt lat="42.8989" lon="1.93258">
        <ele>564</ele>
        <time>2023-08-15T15:21:57Z</time>
      </trkpt>
      <trkpt lat="42.89867" lon="1.93242">
        <ele>565.7</ele>
        <time>2023-08-15T15:22:01Z</time>
      </trkpt>
      <trkpt lat="42.89844" lon="1.93225">
        <ele>566.5</ele>
        <time>2023-08-15T15:22:05Z</time>
      </trkpt>
      <trkpt lat="42.8982" lon="1.93206">
        <ele>567.6</ele>
        <time>2023-08-15T15:22:09Z</time>
      </trkpt>
      <trkpt lat="42.89797" lon="1.9319">
        <ele>567.3</ele>
        <time>2023-08-15T15:22:13Z</time>
      </trkpt>
      <trkpt lat="42.89774" lon="1.93173">
        <ele>570.3</ele>
        <time>2023-08-15T15:22:17Z</time>
      </trkpt>
      <trkpt lat="42.89753" lon="1.93157">
        <ele>571.8</ele>
        <time>2023-08-15T15:22:21Z</time>
      </trkpt>
      <trkpt lat="42.89739" lon="1.93146">
        <ele>573.1</ele>
        <time>2023-08-15T15:22:24Z</time>
      </trkpt>
      <trkpt lat="42.89719" lon="1.93132">
        <ele>575.2</ele>
        <time>2023-08-15T15:22:28Z</time>
      </trkpt>
      <trkpt lat="42.89705" lon="1.9312">
        <ele>576.4</ele>
        <time>2023-08-15T15:22:31Z</time>
      </trkpt>
      <trkpt lat="42.89686" lon="1.93105">
        <ele>577.8</ele>
        <time>2023-08-15T15:22:35Z</time>
      </trkpt>
      <trkpt lat="42.89667" lon="1.9309">
        <ele>579.5</ele>
        <time>2023-08-15T15:22:39Z</time>
      </trkpt>
      <trkpt lat="42.89647" lon="1.93075">
        <ele>580</ele>
        <time>2023-08-15T15:22:43Z</time>
      </trkpt>
      <trkpt lat="42.89628" lon="1.9306">
        <ele>582.9</ele>
        <time>2023-08-15T15:22:47Z</time>
      </trkpt>
      <trkpt lat="42.89609" lon="1.93046">
        <ele>584.5</ele>
        <time>2023-08-15T15:22:51Z</time>
      </trkpt>
      <trkpt lat="42.89591" lon="1.93034">
        <ele>585.9</ele>
        <time>2023-08-15T15:22:55Z</time>
      </trkpt>
      <trkpt lat="42.89578" lon="1.93022">
        <ele>587.6</ele>
        <time>2023-08-15T15:22:59Z</time>
      </trkpt>
      <trkpt lat="42.89567" lon="1.93015">
        <ele>588.7</ele>
        <time>2023-08-15T15:23:03Z</time>
      </trkpt>
      <trkpt lat="42.89552" lon="1.93004">
        <ele>590.5</ele>
        <time>2023-08-15T15:23:06Z</time>
      </trkpt>
      <trkpt lat="42.8953" lon="1.92986">
        <ele>591.2</ele>
        <time>2023-08-15T15:23:10Z</time>
      </trkpt>
      <trkpt lat="42.89513" lon="1.92974">
        <ele>592.4</ele>
        <time>2023-08-15T15:23:13Z</time>
      </trkpt>
      <trkpt lat="42.89499" lon="1.92963">
        <ele>594.9</ele>
        <time>2023-08-15T15:23:16Z</time>
      </trkpt>
      <trkpt lat="42.89484" lon="1.92952">
        <ele>595.3</ele>
        <time>2023-08-15T15:23:19Z</time>
      </trkpt>
      <trkpt lat="42.89464" lon="1.92937">
        <ele>598.2</ele>
        <time>2023-08-15T15:23:23Z</time>
      </trkpt>
      <trkpt lat="42.8945" lon="1.92937">
        <ele>599.3</ele>
        <time>2023-08-15T15:23:26Z</time>
      </trkpt>
      <trkpt lat="42.89451" lon="1.92957">
        <ele>601.8</ele>
        <time>2023-08-15T15:23:30Z</time>
      </trkpt>
      <trkpt lat="42.89461" lon="1.92974">
        <ele>602.7</ele>
        <time>2023-08-15T15:23:33Z</time>
      </trkpt>
      <trkpt lat="42.89469" lon="1.92993">
        <ele>601.5</ele>
        <time>2023-08-15T15:23:37Z</time>
      </trkpt>
      <trkpt lat="42.89476" lon="1.93016">
        <ele>602.8</ele>
        <time>2023-08-15T15:23:40Z</time>
      </trkpt>
      <trkpt lat="42.89481" lon="1.93041">
        <ele>604</ele>
        <time>2023-08-15T15:23:44Z</time>
      </trkpt>
      <trkpt lat="42.89483" lon="1.93056">
        <ele>605.1</ele>
        <time>2023-08-15T15:23:47Z</time>
      </trkpt>
      <trkpt lat="42.89486" lon="1.93073">
        <ele>606.1</ele>
        <time>2023-08-15T15:23:50Z</time>
      </trkpt>
      <trkpt lat="42.89489" lon="1.93089">
        <ele>607.8</ele>
        <time>2023-08-15T15:23:53Z</time>
      </trkpt>
      <trkpt lat="42.89492" lon="1.93109">
        <ele>609.2</ele>
        <time>2023-08-15T15:23:57Z</time>
      </trkpt>
      <trkpt lat="42.89496" lon="1.93129">
        <ele>610.9</ele>
        <time>2023-08-15T15:24:00Z</time>
      </trkpt>
      <trkpt lat="42.89498" lon="1.93147">
        <ele>611.5</ele>
        <time>2023-08-15T15:24:03Z</time>
      </trkpt>
      <trkpt lat="42.89501" lon="1.93174">
        <ele>612.8</ele>
        <time>2023-08-15T15:24:07Z</time>
      </trkpt>
      <trkpt lat="42.89504" lon="1.93194">
        <ele>613.9</ele>
        <time>2023-08-15T15:24:10Z</time>
      </trkpt>
      <trkpt lat="42.89507" lon="1.9322">
        <ele>615.3</ele>
        <time>2023-08-15T15:24:14Z</time>
      </trkpt>
      <trkpt lat="42.89511" lon="1.93249">
        <ele>616.8</ele>
        <time>2023-08-15T15:24:18Z</time>
      </trkpt>
      <trkpt lat="42.89511" lon="1.93277">
        <ele>619.3</ele>
        <time>2023-08-15T15:24:22Z</time>
      </trkpt>
      <trkpt lat="42.89504" lon="1.93301">
        <ele>620.8</ele>
        <time>2023-08-15T15:24:26Z</time>
      </trkpt>
      <trkpt lat="42.89493" lon="1.93314">
        <ele>622.3</ele>
        <time>2023-08-15T15:24:29Z</time>
      </trkpt>
      <trkpt lat="42.89477" lon="1.9333">
        <ele>623.8</ele>
        <time>2023-08-15T15:24:33Z</time>
      </trkpt>
      <trkpt lat="42.89461" lon="1.93349">
        <ele>625.3</ele>
        <time>2023-08-15T15:24:37Z</time>
      </trkpt>
      <trkpt lat="42.89445" lon="1.93367">
        <ele>626.9</ele>
        <time>2023-08-15T15:24:41Z</time>
      </trkpt>
      <trkpt lat="42.89433" lon="1.93389">
        <ele>629</ele>
        <time>2023-08-15T15:24:45Z</time>
      </trkpt>
      <trkpt lat="42.89424" lon="1.93406">
        <ele>630.2</ele>
        <time>2023-08-15T15:24:48Z</time>
      </trkpt>
      <trkpt lat="42.89416" lon="1.93425">
        <ele>631.6</ele>
        <time>2023-08-15T15:24:51Z</time>
      </trkpt>
      <trkpt lat="42.89404" lon="1.93449">
        <ele>633.7</ele>
        <time>2023-08-15T15:24:55Z</time>
      </trkpt>
      <trkpt lat="42.89393" lon="1.93472">
        <ele>635.1</ele>
        <time>2023-08-15T15:24:59Z</time>
      </trkpt>
      <trkpt lat="42.89384" lon="1.93489">
        <ele>636.5</ele>
        <time>2023-08-15T15:25:02Z</time>
      </trkpt>
      <trkpt lat="42.89376" lon="1.93507">
        <ele>637.8</ele>
        <time>2023-08-15T15:25:05Z</time>
      </trkpt>
      <trkpt lat="42.89369" lon="1.93526">
        <ele>639.1</ele>
        <time>2023-08-15T15:25:08Z</time>
      </trkpt>
      <trkpt lat="42.89361" lon="1.93556">
        <ele>640.6</ele>
        <time>2023-08-15T15:25:12Z</time>
      </trkpt>
      <trkpt lat="42.89346" lon="1.93574">
        <ele>642.1</ele>
        <time>2023-08-15T15:25:16Z</time>
      </trkpt>
      <trkpt lat="42.89327" lon="1.93559">
        <ele>644.2</ele>
        <time>2023-08-15T15:25:20Z</time>
      </trkpt>
      <trkpt lat="42.89317" lon="1.93541">
        <ele>645.8</ele>
        <time>2023-08-15T15:25:23Z</time>
      </trkpt>
      <trkpt lat="42.89309" lon="1.93524">
        <ele>647.1</ele>
        <time>2023-08-15T15:25:26Z</time>
      </trkpt>
      <trkpt lat="42.89299" lon="1.93499">
        <ele>648.9</ele>
        <time>2023-08-15T15:25:30Z</time>
      </trkpt>
      <trkpt lat="42.89287" lon="1.93474">
        <ele>650.8</ele>
        <time>2023-08-15T15:25:34Z</time>
      </trkpt>
      <trkpt lat="42.89276" lon="1.93449">
        <ele>652.2</ele>
        <time>2023-08-15T15:25:38Z</time>
      </trkpt>
      <trkpt lat="42.89266" lon="1.93431">
        <ele>653.6</ele>
        <time>2023-08-15T15:25:41Z</time>
      </trkpt>
      <trkpt lat="42.89254" lon="1.93415">
        <ele>655.3</ele>
        <time>2023-08-15T15:25:44Z</time>
      </trkpt>
      <trkpt lat="42.89239" lon="1.93396">
        <ele>657.6</ele>
        <time>2023-08-15T15:25:48Z</time>
      </trkpt>
      <trkpt lat="42.89225" lon="1.93385">
        <ele>658.3</ele>
        <time>2023-08-15T15:25:51Z</time>
      </trkpt>
      <trkpt lat="42.89204" lon="1.93378">
        <ele>660.2</ele>
        <time>2023-08-15T15:25:55Z</time>
      </trkpt>
      <trkpt lat="42.89182" lon="1.9338">
        <ele>661.7</ele>
        <time>2023-08-15T15:25:59Z</time>
      </trkpt>
      <trkpt lat="42.89159" lon="1.93388">
        <ele>663.4</ele>
        <time>2023-08-15T15:26:03Z</time>
      </trkpt>
      <trkpt lat="42.89142" lon="1.93393">
        <ele>664.9</ele>
        <time>2023-08-15T15:26:06Z</time>
      </trkpt>
      <trkpt lat="42.89126" lon="1.93399">
        <ele>666.2</ele>
        <time>2023-08-15T15:26:09Z</time>
      </trkpt>
      <trkpt lat="42.89113" lon="1.93411">
        <ele>667.6</ele>
        <time>2023-08-15T15:26:12Z</time>
      </trkpt>
      <trkpt lat="42.89106" lon="1.93441">
        <ele>668.6</ele>
        <time>2023-08-15T15:26:16Z</time>
      </trkpt>
      <trkpt lat="42.8911" lon="1.93475">
        <ele>669.3</ele>
        <time>2023-08-15T15:26:20Z</time>
      </trkpt>
      <trkpt lat="42.8912" lon="1.93494">
        <ele>670.5</ele>
        <time>2023-08-15T15:26:23Z</time>
      </trkpt>
      <trkpt lat="42.8914" lon="1.9351">
        <ele>671.6</ele>
        <time>2023-08-15T15:26:27Z</time>
      </trkpt>
      <trkpt lat="42.89159" lon="1.93527">
        <ele>673.4</ele>
        <time>2023-08-15T15:26:31Z</time>
      </trkpt>
      <trkpt lat="42.89177" lon="1.93545">
        <ele>675.1</ele>
        <time>2023-08-15T15:26:35Z</time>
      </trkpt>
      <trkpt lat="42.89188" lon="1.93562">
        <ele>676.1</ele>
        <time>2023-08-15T15:26:38Z</time>
      </trkpt>
      <trkpt lat="42.89199" lon="1.9358">
        <ele>677.1</ele>
        <time>2023-08-15T15:26:41Z</time>
      </trkpt>
      <trkpt lat="42.89212" lon="1.93606">
        <ele>678.3</ele>
        <time>2023-08-15T15:26:45Z</time>
      </trkpt>
      <trkpt lat="42.89223" lon="1.93634">
        <ele>679.2</ele>
        <time>2023-08-15T15:26:49Z</time>
      </trkpt>
      <trkpt lat="42.89232" lon="1.93662">
        <ele>680</ele>
        <time>2023-08-15T15:26:53Z</time>
      </trkpt>
      <trkpt lat="42.89236" lon="1.93683">
        <ele>680.7</ele>
        <time>2023-08-15T15:26:56Z</time>
      </trkpt>
      <trkpt lat="42.89241" lon="1.93713">
        <ele>681.9</ele>
        <time>2023-08-15T15:27:00Z</time>
      </trkpt>
      <trkpt lat="42.8924" lon="1.93736">
        <ele>683</ele>
        <time>2023-08-15T15:27:03Z</time>
      </trkpt>
      <trkpt lat="42.89234" lon="1.93767">
        <ele>684.3</ele>
        <time>2023-08-15T15:27:07Z</time>
      </trkpt>
      <trkpt lat="42.89227" lon="1.93796">
        <ele>685.7</ele>
        <time>2023-08-15T15:27:11Z</time>
      </trkpt>
      <trkpt lat="42.89218" lon="1.93824">
        <ele>687.4</ele>
        <time>2023-08-15T15:27:15Z</time>
      </trkpt>
      <trkpt lat="42.89207" lon="1.93849">
        <ele>689</ele>
        <time>2023-08-15T15:27:19Z</time>
      </trkpt>
      <trkpt lat="42.89195" lon="1.93871">
        <ele>690.7</ele>
        <time>2023-08-15T15:27:23Z</time>
      </trkpt>
      <trkpt lat="42.89185" lon="1.93886">
        <ele>691.8</ele>
        <time>2023-08-15T15:27:26Z</time>
      </trkpt>
      <trkpt lat="42.89171" lon="1.93905">
        <ele>693.5</ele>
        <time>2023-08-15T15:27:30Z</time>
      </trkpt>
      <trkpt lat="42.89161" lon="1.9392">
        <ele>694.6</ele>
        <time>2023-08-15T15:27:33Z</time>
      </trkpt>
      <trkpt lat="42.89154" lon="1.93938">
        <ele>695.8</ele>
        <time>2023-08-15T15:27:36Z</time>
      </trkpt>
      <trkpt lat="42.89147" lon="1.93964">
        <ele>697.3</ele>
        <time>2023-08-15T15:27:40Z</time>
      </trkpt>
      <trkpt lat="42.89139" lon="1.9399">
        <ele>698.9</ele>
        <time>2023-08-15T15:27:44Z</time>
      </trkpt>
      <trkpt lat="42.89131" lon="1.94015">
        <ele>700.6</ele>
        <time>2023-08-15T15:27:48Z</time>
      </trkpt>
      <trkpt lat="42.89125" lon="1.94033">
        <ele>701.8</ele>
        <time>2023-08-15T15:27:51Z</time>
      </trkpt>
      <trkpt lat="42.89106" lon="1.94053">
        <ele>703.3</ele>
        <time>2023-08-15T15:27:55Z</time>
      </trkpt>
      <trkpt lat="42.8909" lon="1.94072">
        <ele>704.8</ele>
        <time>2023-08-15T15:27:59Z</time>
      </trkpt>
      <trkpt lat="42.89073" lon="1.94091">
        <ele>706.3</ele>
        <time>2023-08-15T15:28:03Z</time>
      </trkpt>
      <trkpt lat="42.89057" lon="1.94108">
        <ele>708.2</ele>
        <time>2023-08-15T15:28:07Z</time>
      </trkpt>
      <trkpt lat="42.89039" lon="1.94121">
        <ele>709.8</ele>
        <time>2023-08-15T15:28:11Z</time>
      </trkpt>
      <trkpt lat="42.89021" lon="1.94134">
        <ele>711.6</ele>
        <time>2023-08-15T15:28:15Z</time>
      </trkpt>
      <trkpt lat="42.89007" lon="1.94147">
        <ele>713.2</ele>
        <time>2023-08-15T15:28:18Z</time>
      </trkpt>
      <trkpt lat="42.88993" lon="1.94167">
        <ele>714.9</ele>
        <time>2023-08-15T15:28:22Z</time>
      </trkpt>
      <trkpt lat="42.88985" lon="1.94184">
        <ele>716.1</ele>
        <time>2023-08-15T15:28:25Z</time>
      </trkpt>
      <trkpt lat="42.88977" lon="1.94203">
        <ele>717.2</ele>
        <time>2023-08-15T15:28:28Z</time>
      </trkpt>
      <trkpt lat="42.8896" lon="1.94223">
        <ele>718.9</ele>
        <time>2023-08-15T15:28:32Z</time>
      </trkpt>
      <trkpt lat="42.88946" lon="1.94233">
        <ele>720.3</ele>
        <time>2023-08-15T15:28:35Z</time>
      </trkpt>
      <trkpt lat="42.88931" lon="1.94243">
        <ele>721.6</ele>
        <time>2023-08-15T15:28:38Z</time>
      </trkpt>
      <trkpt lat="42.88914" lon="1.9426">
        <ele>723.3</ele>
        <time>2023-08-15T15:28:42Z</time>
      </trkpt>
      <trkpt lat="42.88904" lon="1.94275">
        <ele>724.7</ele>
        <time>2023-08-15T15:28:45Z</time>
      </trkpt>
      <trkpt lat="42.88894" lon="1.94299">
        <ele>726.4</ele>
        <time>2023-08-15T15:28:49Z</time>
      </trkpt>
      <trkpt lat="42.88888" lon="1.94319">
        <ele>727.6</ele>
        <time>2023-08-15T15:28:52Z</time>
      </trkpt>
      <trkpt lat="42.88884" lon="1.94347">
        <ele>729.5</ele>
        <time>2023-08-15T15:28:56Z</time>
      </trkpt>
      <trkpt lat="42.88883" lon="1.94374">
        <ele>731.3</ele>
        <time>2023-08-15T15:29:00Z</time>
      </trkpt>
      <trkpt lat="42.88883" lon="1.94395">
        <ele>732.8</ele>
        <time>2023-08-15T15:29:03Z</time>
      </trkpt>
      <trkpt lat="42.88881" lon="1.94424">
        <ele>734.7</ele>
        <time>2023-08-15T15:29:07Z</time>
      </trkpt>
      <trkpt lat="42.88878" lon="1.94446">
        <ele>735.8</ele>
        <time>2023-08-15T15:29:10Z</time>
      </trkpt>
      <trkpt lat="42.8887" lon="1.94472">
        <ele>737.4</ele>
        <time>2023-08-15T15:29:14Z</time>
      </trkpt>
      <trkpt lat="42.88859" lon="1.94491">
        <ele>739.2</ele>
        <time>2023-08-15T15:29:18Z</time>
      </trkpt>
      <trkpt lat="42.88848" lon="1.94513">
        <ele>741</ele>
        <time>2023-08-15T15:29:22Z</time>
      </trkpt>
      <trkpt lat="42.88841" lon="1.9453">
        <ele>742.3</ele>
        <time>2023-08-15T15:29:25Z</time>
      </trkpt>
      <trkpt lat="42.88835" lon="1.94555">
        <ele>744.1</ele>
        <time>2023-08-15T15:29:29Z</time>
      </trkpt>
      <trkpt lat="42.8883" lon="1.94575">
        <ele>745.2</ele>
        <time>2023-08-15T15:29:32Z</time>
      </trkpt>
      <trkpt lat="42.88823" lon="1.94602">
        <ele>746.7</ele>
        <time>2023-08-15T15:29:36Z</time>
      </trkpt>
      <trkpt lat="42.88809" lon="1.94626">
        <ele>748.2</ele>
        <time>2023-08-15T15:29:40Z</time>
      </trkpt>
      <trkpt lat="42.88794" lon="1.9464">
        <ele>749.1</ele>
        <time>2023-08-15T15:29:43Z</time>
      </trkpt>
      <trkpt lat="42.88777" lon="1.94655">
        <ele>749.7</ele>
        <time>2023-08-15T15:29:46Z</time>
      </trkpt>
      <trkpt lat="42.88757" lon="1.94677">
        <ele>750.4</ele>
        <time>2023-08-15T15:29:50Z</time>
      </trkpt>
      <trkpt lat="42.88746" lon="1.9469">
        <ele>750.8</ele>
        <time>2023-08-15T15:29:53Z</time>
      </trkpt>
      <trkpt lat="42.88732" lon="1.94708">
        <ele>751.5</ele>
        <time>2023-08-15T15:29:57Z</time>
      </trkpt>
      <trkpt lat="42.88719" lon="1.94726">
        <ele>752.3</ele>
        <time>2023-08-15T15:30:00Z</time>
      </trkpt>
      <trkpt lat="42.88703" lon="1.94752">
        <ele>753</ele>
        <time>2023-08-15T15:30:04Z</time>
      </trkpt>
      <trkpt lat="42.88688" lon="1.94768">
        <ele>753.6</ele>
        <time>2023-08-15T15:30:07Z</time>
      </trkpt>
      <trkpt lat="42.88663" lon="1.94781">
        <ele>754.6</ele>
        <time>2023-08-15T15:30:11Z</time>
      </trkpt>
      <trkpt lat="42.88645" lon="1.94789">
        <ele>755.1</ele>
        <time>2023-08-15T15:30:14Z</time>
      </trkpt>
      <trkpt lat="42.8863" lon="1.94801">
        <ele>755.7</ele>
        <time>2023-08-15T15:30:17Z</time>
      </trkpt>
      <trkpt lat="42.88619" lon="1.94828">
        <ele>756.6</ele>
        <time>2023-08-15T15:30:21Z</time>
      </trkpt>
      <trkpt lat="42.88623" lon="1.94853">
        <ele>757.3</ele>
        <time>2023-08-15T15:30:24Z</time>
      </trkpt>
      <trkpt lat="42.88628" lon="1.94887">
        <ele>758.5</ele>
        <time>2023-08-15T15:30:28Z</time>
      </trkpt>
      <trkpt lat="42.88627" lon="1.94911">
        <ele>759.5</ele>
        <time>2023-08-15T15:30:31Z</time>
      </trkpt>
      <trkpt lat="42.88617" lon="1.94934">
        <ele>761</ele>
        <time>2023-08-15T15:30:35Z</time>
      </trkpt>
      <trkpt lat="42.88602" lon="1.94941">
        <ele>762.3</ele>
        <time>2023-08-15T15:30:38Z</time>
      </trkpt>
      <trkpt lat="42.8858" lon="1.94937">
        <ele>764.1</ele>
        <time>2023-08-15T15:30:42Z</time>
      </trkpt>
      <trkpt lat="42.88563" lon="1.94933">
        <ele>765.3</ele>
        <time>2023-08-15T15:30:45Z</time>
      </trkpt>
      <trkpt lat="42.88544" lon="1.94929">
        <ele>766.6</ele>
        <time>2023-08-15T15:30:49Z</time>
      </trkpt>
      <trkpt lat="42.88528" lon="1.9493">
        <ele>767.7</ele>
        <time>2023-08-15T15:30:52Z</time>
      </trkpt>
      <trkpt lat="42.88512" lon="1.9493">
        <ele>769.3</ele>
        <time>2023-08-15T15:30:55Z</time>
      </trkpt>
      <trkpt lat="42.8849" lon="1.94926">
        <ele>771</ele>
        <time>2023-08-15T15:30:59Z</time>
      </trkpt>
      <trkpt lat="42.88474" lon="1.9492">
        <ele>772.3</ele>
        <time>2023-08-15T15:31:02Z</time>
      </trkpt>
      <trkpt lat="42.88452" lon="1.94913">
        <ele>774.1</ele>
        <time>2023-08-15T15:31:06Z</time>
      </trkpt>
      <trkpt lat="42.88437" lon="1.94909">
        <ele>775.6</ele>
        <time>2023-08-15T15:31:09Z</time>
      </trkpt>
      <trkpt lat="42.88416" lon="1.94904">
        <ele>777.6</ele>
        <time>2023-08-15T15:31:13Z</time>
      </trkpt>
      <trkpt lat="42.88397" lon="1.94903">
        <ele>779.6</ele>
        <time>2023-08-15T15:31:17Z</time>
      </trkpt>
      <trkpt lat="42.88378" lon="1.94904">
        <ele>781.8</ele>
        <time>2023-08-15T15:31:21Z</time>
      </trkpt>
      <trkpt lat="42.88358" lon="1.94906">
        <ele>784</ele>
        <time>2023-08-15T15:31:25Z</time>
      </trkpt>
      <trkpt lat="42.88337" lon="1.9491">
        <ele>786.4</ele>
        <time>2023-08-15T15:31:29Z</time>
      </trkpt>
      <trkpt lat="42.88317" lon="1.94914">
        <ele>788.5</ele>
        <time>2023-08-15T15:31:33Z</time>
      </trkpt>
      <trkpt lat="42.88303" lon="1.94917">
        <ele>790.2</ele>
        <time>2023-08-15T15:31:36Z</time>
      </trkpt>
      <trkpt lat="42.88285" lon="1.9492">
        <ele>792.3</ele>
        <time>2023-08-15T15:31:40Z</time>
      </trkpt>
      <trkpt lat="42.88265" lon="1.94925">
        <ele>794.3</ele>
        <time>2023-08-15T15:31:44Z</time>
      </trkpt>
      <trkpt lat="42.88245" lon="1.94932">
        <ele>795.7</ele>
        <time>2023-08-15T15:31:48Z</time>
      </trkpt>
      <trkpt lat="42.88229" lon="1.94938">
        <ele>798.2</ele>
        <time>2023-08-15T15:31:51Z</time>
      </trkpt>
      <trkpt lat="42.88214" lon="1.94946">
        <ele>799.8</ele>
        <time>2023-08-15T15:31:54Z</time>
      </trkpt>
      <trkpt lat="42.88193" lon="1.94957">
        <ele>802.1</ele>
        <time>2023-08-15T15:31:58Z</time>
      </trkpt>
      <trkpt lat="42.88171" lon="1.94969">
        <ele>804.2</ele>
        <time>2023-08-15T15:32:02Z</time>
      </trkpt>
      <trkpt lat="42.88149" lon="1.94977">
        <ele>806.3</ele>
        <time>2023-08-15T15:32:06Z</time>
      </trkpt>
      <trkpt lat="42.8813" lon="1.94981">
        <ele>808.2</ele>
        <time>2023-08-15T15:32:09Z</time>
      </trkpt>
      <trkpt lat="42.88107" lon="1.94986">
        <ele>810.5</ele>
        <time>2023-08-15T15:32:13Z</time>
      </trkpt>
      <trkpt lat="42.88084" lon="1.94989">
        <ele>812.9</ele>
        <time>2023-08-15T15:32:17Z</time>
      </trkpt>
      <trkpt lat="42.88067" lon="1.94991">
        <ele>814.4</ele>
        <time>2023-08-15T15:32:20Z</time>
      </trkpt>
      <trkpt lat="42.88043" lon="1.94989">
        <ele>816.6</ele>
        <time>2023-08-15T15:32:24Z</time>
      </trkpt>
      <trkpt lat="42.88021" lon="1.94991">
        <ele>818.6</ele>
        <time>2023-08-15T15:32:28Z</time>
      </trkpt>
      <trkpt lat="42.87999" lon="1.94999">
        <ele>820.1</ele>
        <time>2023-08-15T15:32:32Z</time>
      </trkpt>
      <trkpt lat="42.87977" lon="1.95007">
        <ele>821.5</ele>
        <time>2023-08-15T15:32:36Z</time>
      </trkpt>
      <trkpt lat="42.87955" lon="1.95011">
        <ele>823.4</ele>
        <time>2023-08-15T15:32:40Z</time>
      </trkpt>
      <trkpt lat="42.87933" lon="1.95004">
        <ele>825.7</ele>
        <time>2023-08-15T15:32:44Z</time>
      </trkpt>
      <trkpt lat="42.8791" lon="1.94995">
        <ele>827.2</ele>
        <time>2023-08-15T15:32:48Z</time>
      </trkpt>
      <trkpt lat="42.87889" lon="1.94987">
        <ele>828.5</ele>
        <time>2023-08-15T15:32:52Z</time>
      </trkpt>
      <trkpt lat="42.87872" lon="1.94983">
        <ele>829.4</ele>
        <time>2023-08-15T15:32:55Z</time>
      </trkpt>
      <trkpt lat="42.87855" lon="1.94979">
        <ele>830.8</ele>
        <time>2023-08-15T15:32:58Z</time>
      </trkpt>
      <trkpt lat="42.87838" lon="1.94974">
        <ele>831.9</ele>
        <time>2023-08-15T15:33:01Z</time>
      </trkpt>
      <trkpt lat="42.87816" lon="1.94968">
        <ele>833.2</ele>
        <time>2023-08-15T15:33:05Z</time>
      </trkpt>
      <trkpt lat="42.87793" lon="1.9496">
        <ele>834.7</ele>
        <time>2023-08-15T15:33:09Z</time>
      </trkpt>
      <trkpt lat="42.87777" lon="1.94954">
        <ele>836.3</ele>
        <time>2023-08-15T15:33:12Z</time>
      </trkpt>
      <trkpt lat="42.87761" lon="1.94949">
        <ele>837.4</ele>
        <time>2023-08-15T15:33:15Z</time>
      </trkpt>
      <trkpt lat="42.8774" lon="1.94946">
        <ele>839.3</ele>
        <time>2023-08-15T15:33:19Z</time>
      </trkpt>
      <trkpt lat="42.87719" lon="1.94951">
        <ele>841</ele>
        <time>2023-08-15T15:33:23Z</time>
      </trkpt>
      <trkpt lat="42.87699" lon="1.9496">
        <ele>842.8</ele>
        <time>2023-08-15T15:33:27Z</time>
      </trkpt>
      <trkpt lat="42.87683" lon="1.94968">
        <ele>844.2</ele>
        <time>2023-08-15T15:33:30Z</time>
      </trkpt>
      <trkpt lat="42.87665" lon="1.94978">
        <ele>846.1</ele>
        <time>2023-08-15T15:33:34Z</time>
      </trkpt>
      <trkpt lat="42.87652" lon="1.94987">
        <ele>847.6</ele>
        <time>2023-08-15T15:33:37Z</time>
      </trkpt>
      <trkpt lat="42.87639" lon="1.94996">
        <ele>848.9</ele>
        <time>2023-08-15T15:33:40Z</time>
      </trkpt>
      <trkpt lat="42.8762" lon="1.95012">
        <ele>850.4</ele>
        <time>2023-08-15T15:33:44Z</time>
      </trkpt>
      <trkpt lat="42.87607" lon="1.95028">
        <ele>851.9</ele>
        <time>2023-08-15T15:33:47Z</time>
      </trkpt>
      <trkpt lat="42.87595" lon="1.95056">
        <ele>853.4</ele>
        <time>2023-08-15T15:33:51Z</time>
      </trkpt>
      <trkpt lat="42.87586" lon="1.95075">
        <ele>854.5</ele>
        <time>2023-08-15T15:33:54Z</time>
      </trkpt>
      <trkpt lat="42.87572" lon="1.95089">
        <ele>855.8</ele>
        <time>2023-08-15T15:33:57Z</time>
      </trkpt>
      <trkpt lat="42.87552" lon="1.95101">
        <ele>857.1</ele>
        <time>2023-08-15T15:34:01Z</time>
      </trkpt>
      <trkpt lat="42.87528" lon="1.95106">
        <ele>858.3</ele>
        <time>2023-08-15T15:34:05Z</time>
      </trkpt>
      <trkpt lat="42.8751" lon="1.95109">
        <ele>859.3</ele>
        <time>2023-08-15T15:34:08Z</time>
      </trkpt>
      <trkpt lat="42.87491" lon="1.9511">
        <ele>859.7</ele>
        <time>2023-08-15T15:34:11Z</time>
      </trkpt>
      <trkpt lat="42.87466" lon="1.9511">
        <ele>860.7</ele>
        <time>2023-08-15T15:34:15Z</time>
      </trkpt>
      <trkpt lat="42.87442" lon="1.9511">
        <ele>862</ele>
        <time>2023-08-15T15:34:19Z</time>
      </trkpt>
      <trkpt lat="42.87417" lon="1.95112">
        <ele>863.3</ele>
        <time>2023-08-15T15:34:23Z</time>
      </trkpt>
      <trkpt lat="42.87399" lon="1.95116">
        <ele>864.5</ele>
        <time>2023-08-15T15:34:26Z</time>
      </trkpt>
      <trkpt lat="42.87379" lon="1.95134">
        <ele>865.8</ele>
        <time>2023-08-15T15:34:30Z</time>
      </trkpt>
      <trkpt lat="42.87366" lon="1.95165">
        <ele>865.5</ele>
        <time>2023-08-15T15:34:34Z</time>
      </trkpt>
      <trkpt lat="42.87361" lon="1.95192">
        <ele>866.1</ele>
        <time>2023-08-15T15:34:37Z</time>
      </trkpt>
      <trkpt lat="42.87359" lon="1.95219">
        <ele>866.2</ele>
        <time>2023-08-15T15:34:40Z</time>
      </trkpt>
      <trkpt lat="42.8736" lon="1.95254">
        <ele>866.7</ele>
        <time>2023-08-15T15:34:44Z</time>
      </trkpt>
      <trkpt lat="42.87362" lon="1.9529">
        <ele>867.1</ele>
        <time>2023-08-15T15:34:48Z</time>
      </trkpt>
      <trkpt lat="42.87364" lon="1.95318">
        <ele>867.3</ele>
        <time>2023-08-15T15:34:51Z</time>
      </trkpt>
      <trkpt lat="42.87366" lon="1.95353">
        <ele>867.6</ele>
        <time>2023-08-15T15:34:55Z</time>
      </trkpt>
      <trkpt lat="42.8737" lon="1.95387">
        <ele>867.7</ele>
        <time>2023-08-15T15:34:59Z</time>
      </trkpt>
      <trkpt lat="42.87374" lon="1.95423">
        <ele>868.2</ele>
        <time>2023-08-15T15:35:03Z</time>
      </trkpt>
      <trkpt lat="42.87377" lon="1.9545">
        <ele>868.6</ele>
        <time>2023-08-15T15:35:06Z</time>
      </trkpt>
      <trkpt lat="42.87377" lon="1.95486">
        <ele>868.4</ele>
        <time>2023-08-15T15:35:10Z</time>
      </trkpt>
      <trkpt lat="42.87377" lon="1.95522">
        <ele>868.4</ele>
        <time>2023-08-15T15:35:14Z</time>
      </trkpt>
      <trkpt lat="42.87375" lon="1.95557">
        <ele>869.3</ele>
        <time>2023-08-15T15:35:18Z</time>
      </trkpt>
      <trkpt lat="42.87373" lon="1.95593">
        <ele>869.8</ele>
        <time>2023-08-15T15:35:22Z</time>
      </trkpt>
      <trkpt lat="42.87372" lon="1.95628">
        <ele>870.3</ele>
        <time>2023-08-15T15:35:26Z</time>
      </trkpt>
      <trkpt lat="42.8737" lon="1.95655">
        <ele>870.1</ele>
        <time>2023-08-15T15:35:29Z</time>
      </trkpt>
      <trkpt lat="42.87368" lon="1.95692">
        <ele>870.3</ele>
        <time>2023-08-15T15:35:33Z</time>
      </trkpt>
      <trkpt lat="42.87366" lon="1.95728">
        <ele>870.5</ele>
        <time>2023-08-15T15:35:37Z</time>
      </trkpt>
      <trkpt lat="42.87366" lon="1.95756">
        <ele>870.6</ele>
        <time>2023-08-15T15:35:40Z</time>
      </trkpt>
      <trkpt lat="42.87365" lon="1.95793">
        <ele>870.5</ele>
        <time>2023-08-15T15:35:44Z</time>
      </trkpt>
      <trkpt lat="42.87365" lon="1.9582">
        <ele>870.9</ele>
        <time>2023-08-15T15:35:47Z</time>
      </trkpt>
      <trkpt lat="42.87365" lon="1.95855">
        <ele>871.5</ele>
        <time>2023-08-15T15:35:51Z</time>
      </trkpt>
      <trkpt lat="42.87367" lon="1.95891">
        <ele>872</ele>
        <time>2023-08-15T15:35:55Z</time>
      </trkpt>
      <trkpt lat="42.87373" lon="1.95927">
        <ele>872.3</ele>
        <time>2023-08-15T15:35:59Z</time>
      </trkpt>
      <trkpt lat="42.8738" lon="1.95961">
        <ele>872.7</ele>
        <time>2023-08-15T15:36:03Z</time>
      </trkpt>
      <trkpt lat="42.87385" lon="1.95987">
        <ele>872.7</ele>
        <time>2023-08-15T15:36:06Z</time>
      </trkpt>
      <trkpt lat="42.87392" lon="1.96022">
        <ele>873.3</ele>
        <time>2023-08-15T15:36:10Z</time>
      </trkpt>
      <trkpt lat="42.874" lon="1.96057">
        <ele>873.3</ele>
        <time>2023-08-15T15:36:14Z</time>
      </trkpt>
      <trkpt lat="42.87406" lon="1.96083">
        <ele>873.3</ele>
        <time>2023-08-15T15:36:17Z</time>
      </trkpt>
      <trkpt lat="42.87416" lon="1.96115">
        <ele>875.2</ele>
        <time>2023-08-15T15:36:21Z</time>
      </trkpt>
      <trkpt lat="42.87423" lon="1.9614">
        <ele>875.7</ele>
        <time>2023-08-15T15:36:24Z</time>
      </trkpt>
      <trkpt lat="42.87431" lon="1.96174">
        <ele>876.4</ele>
        <time>2023-08-15T15:36:28Z</time>
      </trkpt>
      <trkpt lat="42.8744" lon="1.96207">
        <ele>877.5</ele>
        <time>2023-08-15T15:36:32Z</time>
      </trkpt>
      <trkpt lat="42.87447" lon="1.96234">
        <ele>877</ele>
        <time>2023-08-15T15:36:35Z</time>
      </trkpt>
      <trkpt lat="42.87454" lon="1.96259">
        <ele>877.7</ele>
        <time>2023-08-15T15:36:38Z</time>
      </trkpt>
      <trkpt lat="42.87463" lon="1.96293">
        <ele>877.3</ele>
        <time>2023-08-15T15:36:42Z</time>
      </trkpt>
      <trkpt lat="42.87468" lon="1.96318">
        <ele>878.2</ele>
        <time>2023-08-15T15:36:45Z</time>
      </trkpt>
      <trkpt lat="42.87475" lon="1.96352">
        <ele>879.4</ele>
        <time>2023-08-15T15:36:49Z</time>
      </trkpt>
      <trkpt lat="42.8748" lon="1.96386">
        <ele>880.4</ele>
        <time>2023-08-15T15:36:53Z</time>
      </trkpt>
      <trkpt lat="42.87485" lon="1.96421">
        <ele>881.3</ele>
        <time>2023-08-15T15:36:57Z</time>
      </trkpt>
      <trkpt lat="42.87491" lon="1.96457">
        <ele>882</ele>
        <time>2023-08-15T15:37:01Z</time>
      </trkpt>
      <trkpt lat="42.87496" lon="1.96484">
        <ele>882.3</ele>
        <time>2023-08-15T15:37:04Z</time>
      </trkpt>
      <trkpt lat="42.87501" lon="1.96512">
        <ele>882.9</ele>
        <time>2023-08-15T15:37:07Z</time>
      </trkpt>
      <trkpt lat="42.87508" lon="1.96546">
        <ele>883.1</ele>
        <time>2023-08-15T15:37:11Z</time>
      </trkpt>
      <trkpt lat="42.87512" lon="1.9658">
        <ele>884</ele>
        <time>2023-08-15T15:37:15Z</time>
      </trkpt>
      <trkpt lat="42.87501" lon="1.96612">
        <ele>885.5</ele>
        <time>2023-08-15T15:37:19Z</time>
      </trkpt>
      <trkpt lat="42.87482" lon="1.96637">
        <ele>887.6</ele>
        <time>2023-08-15T15:37:23Z</time>
      </trkpt>
      <trkpt lat="42.87473" lon="1.96659">
        <ele>888.6</ele>
        <time>2023-08-15T15:37:26Z</time>
      </trkpt>
      <trkpt lat="42.87472" lon="1.96683">
        <ele>890.5</ele>
        <time>2023-08-15T15:37:29Z</time>
      </trkpt>
      <trkpt lat="42.87477" lon="1.9671">
        <ele>892.3</ele>
        <time>2023-08-15T15:37:33Z</time>
      </trkpt>
      <trkpt lat="42.87484" lon="1.96731">
        <ele>893.1</ele>
        <time>2023-08-15T15:37:36Z</time>
      </trkpt>
      <trkpt lat="42.87499" lon="1.96756">
        <ele>893.4</ele>
        <time>2023-08-15T15:37:40Z</time>
      </trkpt>
      <trkpt lat="42.87514" lon="1.96773">
        <ele>894.7</ele>
        <time>2023-08-15T15:37:43Z</time>
      </trkpt>
      <trkpt lat="42.87532" lon="1.9679">
        <ele>896.7</ele>
        <time>2023-08-15T15:37:46Z</time>
      </trkpt>
      <trkpt lat="42.87549" lon="1.96803">
        <ele>897.2</ele>
        <time>2023-08-15T15:37:49Z</time>
      </trkpt>
      <trkpt lat="42.87565" lon="1.96814">
        <ele>899.1</ele>
        <time>2023-08-15T15:37:52Z</time>
      </trkpt>
      <trkpt lat="42.87588" lon="1.96829">
        <ele>900.4</ele>
        <time>2023-08-15T15:37:56Z</time>
      </trkpt>
      <trkpt lat="42.87611" lon="1.96845">
        <ele>902.2</ele>
        <time>2023-08-15T15:38:00Z</time>
      </trkpt>
      <trkpt lat="42.87626" lon="1.96854">
        <ele>903.9</ele>
        <time>2023-08-15T15:38:03Z</time>
      </trkpt>
      <trkpt lat="42.87645" lon="1.96847">
        <ele>905.3</ele>
        <time>2023-08-15T15:38:07Z</time>
      </trkpt>
      <trkpt lat="42.87645" lon="1.96818">
        <ele>905.6</ele>
        <time>2023-08-15T15:38:11Z</time>
      </trkpt>
      <trkpt lat="42.8764" lon="1.96793">
        <ele>905.8</ele>
        <time>2023-08-15T15:38:14Z</time>
      </trkpt>
      <trkpt lat="42.87651" lon="1.96765">
        <ele>906.4</ele>
        <time>2023-08-15T15:38:18Z</time>
      </trkpt>
      <trkpt lat="42.87666" lon="1.96767">
        <ele>908.8</ele>
        <time>2023-08-15T15:38:21Z</time>
      </trkpt>
      <trkpt lat="42.87678" lon="1.9679">
        <ele>910.7</ele>
        <time>2023-08-15T15:38:25Z</time>
      </trkpt>
      <trkpt lat="42.87686" lon="1.96811">
        <ele>912</ele>
        <time>2023-08-15T15:38:28Z</time>
      </trkpt>
      <trkpt lat="42.87692" lon="1.96832">
        <ele>913.2</ele>
        <time>2023-08-15T15:38:31Z</time>
      </trkpt>
      <trkpt lat="42.87696" lon="1.96855">
        <ele>914.2</ele>
        <time>2023-08-15T15:38:34Z</time>
      </trkpt>
      <trkpt lat="42.8769" lon="1.96885">
        <ele>914.7</ele>
        <time>2023-08-15T15:38:38Z</time>
      </trkpt>
      <trkpt lat="42.87677" lon="1.96911">
        <ele>916.3</ele>
        <time>2023-08-15T15:38:42Z</time>
      </trkpt>
      <trkpt lat="42.8767" lon="1.9694">
        <ele>918.1</ele>
        <time>2023-08-15T15:38:46Z</time>
      </trkpt>
      <trkpt lat="42.87662" lon="1.96967">
        <ele>919.7</ele>
        <time>2023-08-15T15:38:50Z</time>
      </trkpt>
      <trkpt lat="42.87649" lon="1.96981">
        <ele>920.6</ele>
        <time>2023-08-15T15:38:53Z</time>
      </trkpt>
      <trkpt lat="42.87629" lon="1.9699">
        <ele>921.9</ele>
        <time>2023-08-15T15:38:57Z</time>
      </trkpt>
      <trkpt lat="42.87608" lon="1.96995">
        <ele>923.2</ele>
        <time>2023-08-15T15:39:01Z</time>
      </trkpt>
      <trkpt lat="42.8759" lon="1.96999">
        <ele>924</ele>
        <time>2023-08-15T15:39:04Z</time>
      </trkpt>
      <trkpt lat="42.87569" lon="1.97017">
        <ele>924.9</ele>
        <time>2023-08-15T15:39:08Z</time>
      </trkpt>
      <trkpt lat="42.87573" lon="1.97052">
        <ele>927.1</ele>
        <time>2023-08-15T15:39:12Z</time>
      </trkpt>
      <trkpt lat="42.87589" lon="1.9708">
        <ele>928.5</ele>
        <time>2023-08-15T15:39:16Z</time>
      </trkpt>
      <trkpt lat="42.87612" lon="1.97096">
        <ele>930.6</ele>
        <time>2023-08-15T15:39:20Z</time>
      </trkpt>
      <trkpt lat="42.87629" lon="1.97102">
        <ele>931.5</ele>
        <time>2023-08-15T15:39:23Z</time>
      </trkpt>
      <trkpt lat="42.87647" lon="1.97105">
        <ele>933</ele>
        <time>2023-08-15T15:39:26Z</time>
      </trkpt>
      <trkpt lat="42.87667" lon="1.97115">
        <ele>934.5</ele>
        <time>2023-08-15T15:39:30Z</time>
      </trkpt>
      <trkpt lat="42.87679" lon="1.97131">
        <ele>935.6</ele>
        <time>2023-08-15T15:39:33Z</time>
      </trkpt>
      <trkpt lat="42.87689" lon="1.97154">
        <ele>936</ele>
        <time>2023-08-15T15:39:36Z</time>
      </trkpt>
      <trkpt lat="42.87699" lon="1.97189">
        <ele>936.2</ele>
        <time>2023-08-15T15:39:40Z</time>
      </trkpt>
      <trkpt lat="42.8771" lon="1.97222">
        <ele>936.3</ele>
        <time>2023-08-15T15:39:44Z</time>
      </trkpt>
      <trkpt lat="42.87716" lon="1.97247">
        <ele>936</ele>
        <time>2023-08-15T15:39:47Z</time>
      </trkpt>
      <trkpt lat="42.87717" lon="1.97273">
        <ele>935.7</ele>
        <time>2023-08-15T15:39:50Z</time>
      </trkpt>
      <trkpt lat="42.87709" lon="1.97307">
        <ele>935.6</ele>
        <time>2023-08-15T15:39:54Z</time>
      </trkpt>
      <trkpt lat="42.87701" lon="1.97332">
        <ele>935.3</ele>
        <time>2023-08-15T15:39:57Z</time>
      </trkpt>
      <trkpt lat="42.87692" lon="1.97366">
        <ele>934.4</ele>
        <time>2023-08-15T15:40:01Z</time>
      </trkpt>
      <trkpt lat="42.87685" lon="1.97391">
        <ele>934.4</ele>
        <time>2023-08-15T15:40:04Z</time>
      </trkpt>
      <trkpt lat="42.87678" lon="1.97427">
        <ele>933</ele>
        <time>2023-08-15T15:40:08Z</time>
      </trkpt>
      <trkpt lat="42.87673" lon="1.97464">
        <ele>932.9</ele>
        <time>2023-08-15T15:40:12Z</time>
      </trkpt>
      <trkpt lat="42.87671" lon="1.9749">
        <ele>932.3</ele>
        <time>2023-08-15T15:40:15Z</time>
      </trkpt>
      <trkpt lat="42.87668" lon="1.97526">
        <ele>932.5</ele>
        <time>2023-08-15T15:40:19Z</time>
      </trkpt>
      <trkpt lat="42.87666" lon="1.97554">
        <ele>932.6</ele>
        <time>2023-08-15T15:40:22Z</time>
      </trkpt>
      <trkpt lat="42.87665" lon="1.97582">
        <ele>931.4</ele>
        <time>2023-08-15T15:40:25Z</time>
      </trkpt>
      <trkpt lat="42.87666" lon="1.97618">
        <ele>929.8</ele>
        <time>2023-08-15T15:40:29Z</time>
      </trkpt>
      <trkpt lat="42.87667" lon="1.97644">
        <ele>929.1</ele>
        <time>2023-08-15T15:40:32Z</time>
      </trkpt>
      <trkpt lat="42.87671" lon="1.9768">
        <ele>926.9</ele>
        <time>2023-08-15T15:40:36Z</time>
      </trkpt>
      <trkpt lat="42.87673" lon="1.97707">
        <ele>927.1</ele>
        <time>2023-08-15T15:40:39Z</time>
      </trkpt>
      <trkpt lat="42.87673" lon="1.97743">
        <ele>927</ele>
        <time>2023-08-15T15:40:43Z</time>
      </trkpt>
      <trkpt lat="42.87669" lon="1.97767">
        <ele>927.3</ele>
        <time>2023-08-15T15:40:46Z</time>
      </trkpt>
      <trkpt lat="42.87658" lon="1.97793">
        <ele>928</ele>
        <time>2023-08-15T15:40:50Z</time>
      </trkpt>
      <trkpt lat="42.87644" lon="1.97821">
        <ele>928.2</ele>
        <time>2023-08-15T15:40:54Z</time>
      </trkpt>
      <trkpt lat="42.87633" lon="1.97855">
        <ele>927.5</ele>
        <time>2023-08-15T15:40:58Z</time>
      </trkpt>
      <trkpt lat="42.87633" lon="1.9789">
        <ele>927.6</ele>
        <time>2023-08-15T15:41:02Z</time>
      </trkpt>
      <trkpt lat="42.8763" lon="1.97916">
        <ele>926.3</ele>
        <time>2023-08-15T15:41:05Z</time>
      </trkpt>
      <trkpt lat="42.87621" lon="1.9794">
        <ele>926.8</ele>
        <time>2023-08-15T15:41:08Z</time>
      </trkpt>
      <trkpt lat="42.87604" lon="1.97969">
        <ele>926.9</ele>
        <time>2023-08-15T15:41:12Z</time>
      </trkpt>
      <trkpt lat="42.87592" lon="1.9799">
        <ele>926.9</ele>
        <time>2023-08-15T15:41:15Z</time>
      </trkpt>
      <trkpt lat="42.8757" lon="1.98014">
        <ele>927.2</ele>
        <time>2023-08-15T15:41:19Z</time>
      </trkpt>
      <trkpt lat="42.8755" lon="1.98028">
        <ele>927.7</ele>
        <time>2023-08-15T15:41:22Z</time>
      </trkpt>
      <trkpt lat="42.87522" lon="1.98038">
        <ele>926.4</ele>
        <time>2023-08-15T15:41:26Z</time>
      </trkpt>
      <trkpt lat="42.87495" lon="1.98044">
        <ele>925.3</ele>
        <time>2023-08-15T15:41:30Z</time>
      </trkpt>
      <trkpt lat="42.87473" lon="1.98063">
        <ele>923.7</ele>
        <time>2023-08-15T15:41:34Z</time>
      </trkpt>
      <trkpt lat="42.87462" lon="1.98086">
        <ele>924.3</ele>
        <time>2023-08-15T15:41:37Z</time>
      </trkpt>
      <trkpt lat="42.87452" lon="1.98115">
        <ele>924.3</ele>
        <time>2023-08-15T15:41:41Z</time>
      </trkpt>
      <trkpt lat="42.87444" lon="1.98136">
        <ele>924.4</ele>
        <time>2023-08-15T15:41:44Z</time>
      </trkpt>
      <trkpt lat="42.87432" lon="1.98169">
        <ele>924.9</ele>
        <time>2023-08-15T15:41:48Z</time>
      </trkpt>
      <trkpt lat="42.87423" lon="1.98194">
        <ele>925.1</ele>
        <time>2023-08-15T15:41:51Z</time>
      </trkpt>
      <trkpt lat="42.87413" lon="1.98228">
        <ele>924.9</ele>
        <time>2023-08-15T15:41:55Z</time>
      </trkpt>
      <trkpt lat="42.87405" lon="1.98254">
        <ele>924.6</ele>
        <time>2023-08-15T15:41:58Z</time>
      </trkpt>
      <trkpt lat="42.87394" lon="1.98288">
        <ele>923.5</ele>
        <time>2023-08-15T15:42:02Z</time>
      </trkpt>
      <trkpt lat="42.87382" lon="1.9832">
        <ele>923.8</ele>
        <time>2023-08-15T15:42:06Z</time>
      </trkpt>
      <trkpt lat="42.87362" lon="1.98348">
        <ele>925.2</ele>
        <time>2023-08-15T15:42:10Z</time>
      </trkpt>
      <trkpt lat="42.87333" lon="1.98365">
        <ele>924.7</ele>
        <time>2023-08-15T15:42:14Z</time>
      </trkpt>
      <trkpt lat="42.87313" lon="1.98374">
        <ele>925.1</ele>
        <time>2023-08-15T15:42:17Z</time>
      </trkpt>
      <trkpt lat="42.87287" lon="1.98384">
        <ele>925.2</ele>
        <time>2023-08-15T15:42:21Z</time>
      </trkpt>
      <trkpt lat="42.8726" lon="1.98396">
        <ele>924.9</ele>
        <time>2023-08-15T15:42:25Z</time>
      </trkpt>
      <trkpt lat="42.87239" lon="1.98405">
        <ele>924.9</ele>
        <time>2023-08-15T15:42:28Z</time>
      </trkpt>
      <trkpt lat="42.87218" lon="1.98411">
        <ele>923.5</ele>
        <time>2023-08-15T15:42:31Z</time>
      </trkpt>
      <trkpt lat="42.87191" lon="1.98401">
        <ele>924.9</ele>
        <time>2023-08-15T15:42:35Z</time>
      </trkpt>
      <trkpt lat="42.87176" lon="1.98381">
        <ele>927.6</ele>
        <time>2023-08-15T15:42:38Z</time>
      </trkpt>
      <trkpt lat="42.87164" lon="1.98356">
        <ele>927.1</ele>
        <time>2023-08-15T15:42:41Z</time>
      </trkpt>
      <trkpt lat="42.87152" lon="1.98331">
        <ele>927.9</ele>
        <time>2023-08-15T15:42:44Z</time>
      </trkpt>
      <trkpt lat="42.87136" lon="1.98299">
        <ele>929.7</ele>
        <time>2023-08-15T15:42:48Z</time>
      </trkpt>
      <trkpt lat="42.87125" lon="1.98275">
        <ele>930.4</ele>
        <time>2023-08-15T15:42:51Z</time>
      </trkpt>
      <trkpt lat="42.8711" lon="1.98247">
        <ele>930.7</ele>
        <time>2023-08-15T15:42:55Z</time>
      </trkpt>
      <trkpt lat="42.87095" lon="1.98219">
        <ele>932.8</ele>
        <time>2023-08-15T15:42:59Z</time>
      </trkpt>
      <trkpt lat="42.87078" lon="1.98191">
        <ele>933.1</ele>
        <time>2023-08-15T15:43:03Z</time>
      </trkpt>
      <trkpt lat="42.87058" lon="1.98167">
        <ele>935.5</ele>
        <time>2023-08-15T15:43:07Z</time>
      </trkpt>
      <trkpt lat="42.87042" lon="1.9815">
        <ele>936.5</ele>
        <time>2023-08-15T15:43:10Z</time>
      </trkpt>
      <trkpt lat="42.87026" lon="1.98134">
        <ele>937.1</ele>
        <time>2023-08-15T15:43:13Z</time>
      </trkpt>
      <trkpt lat="42.87004" lon="1.98113">
        <ele>936.7</ele>
        <time>2023-08-15T15:43:17Z</time>
      </trkpt>
      <trkpt lat="42.86986" lon="1.98099">
        <ele>935.9</ele>
        <time>2023-08-15T15:43:20Z</time>
      </trkpt>
      <trkpt lat="42.86963" lon="1.98083">
        <ele>936.2</ele>
        <time>2023-08-15T15:43:24Z</time>
      </trkpt>
      <trkpt lat="42.86945" lon="1.98071">
        <ele>935.5</ele>
        <time>2023-08-15T15:43:27Z</time>
      </trkpt>
      <trkpt lat="42.86928" lon="1.98059">
        <ele>935.7</ele>
        <time>2023-08-15T15:43:30Z</time>
      </trkpt>
      <trkpt lat="42.86908" lon="1.98037">
        <ele>934.6</ele>
        <time>2023-08-15T15:43:34Z</time>
      </trkpt>
      <trkpt lat="42.86896" lon="1.98015">
        <ele>933.5</ele>
        <time>2023-08-15T15:43:37Z</time>
      </trkpt>
      <trkpt lat="42.86887" lon="1.97989">
        <ele>933.8</ele>
        <time>2023-08-15T15:43:40Z</time>
      </trkpt>
      <trkpt lat="42.8688" lon="1.97962">
        <ele>934.1</ele>
        <time>2023-08-15T15:43:43Z</time>
      </trkpt>
      <trkpt lat="42.86869" lon="1.97928">
        <ele>933.7</ele>
        <time>2023-08-15T15:43:47Z</time>
      </trkpt>
      <trkpt lat="42.86854" lon="1.97898">
        <ele>933</ele>
        <time>2023-08-15T15:43:51Z</time>
      </trkpt>
      <trkpt lat="42.86835" lon="1.97872">
        <ele>933</ele>
        <time>2023-08-15T15:43:55Z</time>
      </trkpt>
      <trkpt lat="42.8682" lon="1.97857">
        <ele>931.7</ele>
        <time>2023-08-15T15:43:58Z</time>
      </trkpt>
      <trkpt lat="42.86803" lon="1.97843">
        <ele>931.6</ele>
        <time>2023-08-15T15:44:01Z</time>
      </trkpt>
      <trkpt lat="42.86779" lon="1.97826">
        <ele>929.9</ele>
        <time>2023-08-15T15:44:05Z</time>
      </trkpt>
      <trkpt lat="42.86759" lon="1.9782">
        <ele>929.6</ele>
        <time>2023-08-15T15:44:08Z</time>
      </trkpt>
      <trkpt lat="42.86739" lon="1.97821">
        <ele>929.1</ele>
        <time>2023-08-15T15:44:11Z</time>
      </trkpt>
      <trkpt lat="42.86716" lon="1.97837">
        <ele>927.9</ele>
        <time>2023-08-15T15:44:15Z</time>
      </trkpt>
      <trkpt lat="42.86699" lon="1.9785">
        <ele>927.8</ele>
        <time>2023-08-15T15:44:18Z</time>
      </trkpt>
      <trkpt lat="42.86675" lon="1.97862">
        <ele>927.7</ele>
        <time>2023-08-15T15:44:22Z</time>
      </trkpt>
      <trkpt lat="42.86649" lon="1.97862">
        <ele>926.3</ele>
        <time>2023-08-15T15:44:26Z</time>
      </trkpt>
      <trkpt lat="42.8663" lon="1.9786">
        <ele>926.9</ele>
        <time>2023-08-15T15:44:29Z</time>
      </trkpt>
      <trkpt lat="42.86603" lon="1.97857">
        <ele>926.1</ele>
        <time>2023-08-15T15:44:33Z</time>
      </trkpt>
      <trkpt lat="42.86583" lon="1.97854">
        <ele>925.7</ele>
        <time>2023-08-15T15:44:36Z</time>
      </trkpt>
      <trkpt lat="42.86556" lon="1.97852">
        <ele>926.3</ele>
        <time>2023-08-15T15:44:40Z</time>
      </trkpt>
      <trkpt lat="42.8653" lon="1.9785">
        <ele>925.9</ele>
        <time>2023-08-15T15:44:44Z</time>
      </trkpt>
      <trkpt lat="42.86503" lon="1.97848">
        <ele>926.6</ele>
        <time>2023-08-15T15:44:48Z</time>
      </trkpt>
      <trkpt lat="42.86483" lon="1.97846">
        <ele>926.5</ele>
        <time>2023-08-15T15:44:51Z</time>
      </trkpt>
      <trkpt lat="42.86457" lon="1.97845">
        <ele>926.7</ele>
        <time>2023-08-15T15:44:55Z</time>
      </trkpt>
      <trkpt lat="42.86431" lon="1.97849">
        <ele>926.5</ele>
        <time>2023-08-15T15:44:59Z</time>
      </trkpt>
      <trkpt lat="42.86405" lon="1.97863">
        <ele>925.4</ele>
        <time>2023-08-15T15:45:03Z</time>
      </trkpt>
      <trkpt lat="42.86388" lon="1.97878">
        <ele>924.5</ele>
        <time>2023-08-15T15:45:06Z</time>
      </trkpt>
      <trkpt lat="42.86365" lon="1.97898">
        <ele>923.4</ele>
        <time>2023-08-15T15:45:10Z</time>
      </trkpt>
      <trkpt lat="42.86349" lon="1.97913">
        <ele>923.1</ele>
        <time>2023-08-15T15:45:13Z</time>
      </trkpt>
      <trkpt lat="42.86333" lon="1.97928">
        <ele>924.2</ele>
        <time>2023-08-15T15:45:16Z</time>
      </trkpt>
      <trkpt lat="42.86312" lon="1.97949">
        <ele>922.5</ele>
        <time>2023-08-15T15:45:20Z</time>
      </trkpt>
      <trkpt lat="42.86295" lon="1.97963">
        <ele>922.4</ele>
        <time>2023-08-15T15:45:23Z</time>
      </trkpt>
      <trkpt lat="42.86278" lon="1.97979">
        <ele>922.5</ele>
        <time>2023-08-15T15:45:26Z</time>
      </trkpt>
      <trkpt lat="42.86255" lon="1.97999">
        <ele>921.3</ele>
        <time>2023-08-15T15:45:30Z</time>
      </trkpt>
      <trkpt lat="42.86239" lon="1.98013">
        <ele>921.2</ele>
        <time>2023-08-15T15:45:33Z</time>
      </trkpt>
      <trkpt lat="42.86222" lon="1.98026">
        <ele>921.1</ele>
        <time>2023-08-15T15:45:36Z</time>
      </trkpt>
      <trkpt lat="42.862" lon="1.98045">
        <ele>920.7</ele>
        <time>2023-08-15T15:45:40Z</time>
      </trkpt>
      <trkpt lat="42.86178" lon="1.98065">
        <ele>921.3</ele>
        <time>2023-08-15T15:45:44Z</time>
      </trkpt>
      <trkpt lat="42.86161" lon="1.9808">
        <ele>921.8</ele>
        <time>2023-08-15T15:45:47Z</time>
      </trkpt>
      <trkpt lat="42.8614" lon="1.98099">
        <ele>921.1</ele>
        <time>2023-08-15T15:45:51Z</time>
      </trkpt>
      <trkpt lat="42.86123" lon="1.98115">
        <ele>921.5</ele>
        <time>2023-08-15T15:45:54Z</time>
      </trkpt>
      <trkpt lat="42.86101" lon="1.98136">
        <ele>921.4</ele>
        <time>2023-08-15T15:45:58Z</time>
      </trkpt>
      <trkpt lat="42.86084" lon="1.98151">
        <ele>921.1</ele>
        <time>2023-08-15T15:46:01Z</time>
      </trkpt>
      <trkpt lat="42.86061" lon="1.98171">
        <ele>921.3</ele>
        <time>2023-08-15T15:46:05Z</time>
      </trkpt>
      <trkpt lat="42.86045" lon="1.98185">
        <ele>920.6</ele>
        <time>2023-08-15T15:46:08Z</time>
      </trkpt>
      <trkpt lat="42.86023" lon="1.98205">
        <ele>921.5</ele>
        <time>2023-08-15T15:46:12Z</time>
      </trkpt>
      <trkpt lat="42.86006" lon="1.98219">
        <ele>921.4</ele>
        <time>2023-08-15T15:46:15Z</time>
      </trkpt>
      <trkpt lat="42.85985" lon="1.98238">
        <ele>921.5</ele>
        <time>2023-08-15T15:46:19Z</time>
      </trkpt>
      <trkpt lat="42.85963" lon="1.98259">
        <ele>921.6</ele>
        <time>2023-08-15T15:46:23Z</time>
      </trkpt>
      <trkpt lat="42.8594" lon="1.98279">
        <ele>922.2</ele>
        <time>2023-08-15T15:46:27Z</time>
      </trkpt>
      <trkpt lat="42.85919" lon="1.98298">
        <ele>921.3</ele>
        <time>2023-08-15T15:46:31Z</time>
      </trkpt>
      <trkpt lat="42.85902" lon="1.98313">
        <ele>921.3</ele>
        <time>2023-08-15T15:46:34Z</time>
      </trkpt>
      <trkpt lat="42.85885" lon="1.98327">
        <ele>921</ele>
        <time>2023-08-15T15:46:37Z</time>
      </trkpt>
      <trkpt lat="42.85863" lon="1.98345">
        <ele>921.8</ele>
        <time>2023-08-15T15:46:41Z</time>
      </trkpt>
      <trkpt lat="42.8584" lon="1.98365">
        <ele>921.2</ele>
        <time>2023-08-15T15:46:45Z</time>
      </trkpt>
      <trkpt lat="42.85824" lon="1.9838">
        <ele>921.7</ele>
        <time>2023-08-15T15:46:48Z</time>
      </trkpt>
      <trkpt lat="42.85807" lon="1.98394">
        <ele>921.8</ele>
        <time>2023-08-15T15:46:51Z</time>
      </trkpt>
      <trkpt lat="42.85785" lon="1.98415">
        <ele>921.8</ele>
        <time>2023-08-15T15:46:55Z</time>
      </trkpt>
      <trkpt lat="42.85768" lon="1.9843">
        <ele>921</ele>
        <time>2023-08-15T15:46:58Z</time>
      </trkpt>
      <trkpt lat="42.85746" lon="1.9845">
        <ele>920.1</ele>
        <time>2023-08-15T15:47:02Z</time>
      </trkpt>
      <trkpt lat="42.85729" lon="1.98465">
        <ele>920</ele>
        <time>2023-08-15T15:47:05Z</time>
      </trkpt>
      <trkpt lat="42.85707" lon="1.98486">
        <ele>920.3</ele>
        <time>2023-08-15T15:47:09Z</time>
      </trkpt>
      <trkpt lat="42.85684" lon="1.98504">
        <ele>920</ele>
        <time>2023-08-15T15:47:13Z</time>
      </trkpt>
      <trkpt lat="42.85668" lon="1.98519">
        <ele>920</ele>
        <time>2023-08-15T15:47:16Z</time>
      </trkpt>
      <trkpt lat="42.85645" lon="1.98538">
        <ele>920.4</ele>
        <time>2023-08-15T15:47:20Z</time>
      </trkpt>
      <trkpt lat="42.85622" lon="1.98557">
        <ele>921</ele>
        <time>2023-08-15T15:47:24Z</time>
      </trkpt>
      <trkpt lat="42.85604" lon="1.9857">
        <ele>921</ele>
        <time>2023-08-15T15:47:27Z</time>
      </trkpt>
      <trkpt lat="42.85578" lon="1.98579">
        <ele>919.3</ele>
        <time>2023-08-15T15:47:31Z</time>
      </trkpt>
      <trkpt lat="42.85559" lon="1.98576">
        <ele>919.4</ele>
        <time>2023-08-15T15:47:34Z</time>
      </trkpt>
      <trkpt lat="42.85533" lon="1.9857">
        <ele>920</ele>
        <time>2023-08-15T15:47:38Z</time>
      </trkpt>
      <trkpt lat="42.85506" lon="1.98563">
        <ele>919.6</ele>
        <time>2023-08-15T15:47:42Z</time>
      </trkpt>
      <trkpt lat="42.85486" lon="1.98559">
        <ele>919.8</ele>
        <time>2023-08-15T15:47:45Z</time>
      </trkpt>
      <trkpt lat="42.85467" lon="1.98555">
        <ele>920.8</ele>
        <time>2023-08-15T15:47:48Z</time>
      </trkpt>
      <trkpt lat="42.85441" lon="1.98549">
        <ele>921.9</ele>
        <time>2023-08-15T15:47:52Z</time>
      </trkpt>
      <trkpt lat="42.85415" lon="1.98544">
        <ele>922.2</ele>
        <time>2023-08-15T15:47:56Z</time>
      </trkpt>
      <trkpt lat="42.85389" lon="1.98538">
        <ele>920.6</ele>
        <time>2023-08-15T15:48:00Z</time>
      </trkpt>
      <trkpt lat="42.8537" lon="1.98534">
        <ele>920.6</ele>
        <time>2023-08-15T15:48:03Z</time>
      </trkpt>
      <trkpt lat="42.85344" lon="1.9853">
        <ele>921.6</ele>
        <time>2023-08-15T15:48:07Z</time>
      </trkpt>
      <trkpt lat="42.8532" lon="1.98541">
        <ele>921.9</ele>
        <time>2023-08-15T15:48:11Z</time>
      </trkpt>
      <trkpt lat="42.85306" lon="1.98563">
        <ele>923.3</ele>
        <time>2023-08-15T15:48:14Z</time>
      </trkpt>
      <trkpt lat="42.85294" lon="1.98597">
        <ele>925.8</ele>
        <time>2023-08-15T15:48:18Z</time>
      </trkpt>
      <trkpt lat="42.85284" lon="1.9863">
        <ele>926.4</ele>
        <time>2023-08-15T15:48:22Z</time>
      </trkpt>
      <trkpt lat="42.85273" lon="1.98663">
        <ele>926.8</ele>
        <time>2023-08-15T15:48:26Z</time>
      </trkpt>
      <trkpt lat="42.85264" lon="1.98687">
        <ele>925.6</ele>
        <time>2023-08-15T15:48:29Z</time>
      </trkpt>
      <trkpt lat="42.85252" lon="1.9872">
        <ele>926.9</ele>
        <time>2023-08-15T15:48:33Z</time>
      </trkpt>
      <trkpt lat="42.85243" lon="1.98745">
        <ele>926.3</ele>
        <time>2023-08-15T15:48:36Z</time>
      </trkpt>
      <trkpt lat="42.85232" lon="1.98777">
        <ele>926.6</ele>
        <time>2023-08-15T15:48:40Z</time>
      </trkpt>
      <trkpt lat="42.85223" lon="1.988">
        <ele>927.1</ele>
        <time>2023-08-15T15:48:43Z</time>
      </trkpt>
      <trkpt lat="42.85211" lon="1.98831">
        <ele>928.9</ele>
        <time>2023-08-15T15:48:47Z</time>
      </trkpt>
      <trkpt lat="42.85198" lon="1.98863">
        <ele>929.5</ele>
        <time>2023-08-15T15:48:51Z</time>
      </trkpt>
      <trkpt lat="42.85188" lon="1.98886">
        <ele>929.9</ele>
        <time>2023-08-15T15:48:54Z</time>
      </trkpt>
      <trkpt lat="42.85178" lon="1.9891">
        <ele>929.9</ele>
        <time>2023-08-15T15:48:57Z</time>
      </trkpt>
      <trkpt lat="42.85163" lon="1.9894">
        <ele>929.3</ele>
        <time>2023-08-15T15:49:01Z</time>
      </trkpt>
      <trkpt lat="42.85148" lon="1.98971">
        <ele>929.3</ele>
        <time>2023-08-15T15:49:05Z</time>
      </trkpt>
      <trkpt lat="42.85138" lon="1.98993">
        <ele>929</ele>
        <time>2023-08-15T15:49:08Z</time>
      </trkpt>
      <trkpt lat="42.85122" lon="1.99022">
        <ele>929.3</ele>
        <time>2023-08-15T15:49:12Z</time>
      </trkpt>
      <trkpt lat="42.85111" lon="1.99045">
        <ele>929.4</ele>
        <time>2023-08-15T15:49:15Z</time>
      </trkpt>
      <trkpt lat="42.851" lon="1.99069">
        <ele>929.2</ele>
        <time>2023-08-15T15:49:18Z</time>
      </trkpt>
      <trkpt lat="42.85088" lon="1.99092">
        <ele>929.1</ele>
        <time>2023-08-15T15:49:21Z</time>
      </trkpt>
      <trkpt lat="42.85072" lon="1.99121">
        <ele>927.2</ele>
        <time>2023-08-15T15:49:25Z</time>
      </trkpt>
      <trkpt lat="42.85057" lon="1.99152">
        <ele>925.7</ele>
        <time>2023-08-15T15:49:29Z</time>
      </trkpt>
      <trkpt lat="42.85047" lon="1.99174">
        <ele>925</ele>
        <time>2023-08-15T15:49:32Z</time>
      </trkpt>
      <trkpt lat="42.85035" lon="1.99196">
        <ele>923.6</ele>
        <time>2023-08-15T15:49:35Z</time>
      </trkpt>
      <trkpt lat="42.85019" lon="1.99226">
        <ele>922.6</ele>
        <time>2023-08-15T15:49:39Z</time>
      </trkpt>
      <trkpt lat="42.85008" lon="1.99249">
        <ele>921.4</ele>
        <time>2023-08-15T15:49:42Z</time>
      </trkpt>
      <trkpt lat="42.84994" lon="1.99279">
        <ele>922.2</ele>
        <time>2023-08-15T15:49:46Z</time>
      </trkpt>
      <trkpt lat="42.84983" lon="1.99301">
        <ele>921.3</ele>
        <time>2023-08-15T15:49:49Z</time>
      </trkpt>
      <trkpt lat="42.84968" lon="1.9933">
        <ele>920.3</ele>
        <time>2023-08-15T15:49:53Z</time>
      </trkpt>
      <trkpt lat="42.84953" lon="1.99359">
        <ele>919.9</ele>
        <time>2023-08-15T15:49:57Z</time>
      </trkpt>
      <trkpt lat="42.84938" lon="1.99388">
        <ele>919.8</ele>
        <time>2023-08-15T15:50:01Z</time>
      </trkpt>
      <trkpt lat="42.84923" lon="1.99418">
        <ele>920</ele>
        <time>2023-08-15T15:50:05Z</time>
      </trkpt>
      <trkpt lat="42.84908" lon="1.99448">
        <ele>921.4</ele>
        <time>2023-08-15T15:50:09Z</time>
      </trkpt>
      <trkpt lat="42.84892" lon="1.99477">
        <ele>921.3</ele>
        <time>2023-08-15T15:50:13Z</time>
      </trkpt>
      <trkpt lat="42.8488" lon="1.99497">
        <ele>921.1</ele>
        <time>2023-08-15T15:50:16Z</time>
      </trkpt>
      <trkpt lat="42.84866" lon="1.99517">
        <ele>921.1</ele>
        <time>2023-08-15T15:50:19Z</time>
      </trkpt>
      <trkpt lat="42.84847" lon="1.99542">
        <ele>921.1</ele>
        <time>2023-08-15T15:50:23Z</time>
      </trkpt>
      <trkpt lat="42.84828" lon="1.99566">
        <ele>921.2</ele>
        <time>2023-08-15T15:50:27Z</time>
      </trkpt>
      <trkpt lat="42.84813" lon="1.99584">
        <ele>921.8</ele>
        <time>2023-08-15T15:50:30Z</time>
      </trkpt>
      <trkpt lat="42.84798" lon="1.99602">
        <ele>921.8</ele>
        <time>2023-08-15T15:50:33Z</time>
      </trkpt>
      <trkpt lat="42.84779" lon="1.99625">
        <ele>923.3</ele>
        <time>2023-08-15T15:50:37Z</time>
      </trkpt>
      <trkpt lat="42.84764" lon="1.99643">
        <ele>923.9</ele>
        <time>2023-08-15T15:50:40Z</time>
      </trkpt>
      <trkpt lat="42.84748" lon="1.9966">
        <ele>924.2</ele>
        <time>2023-08-15T15:50:43Z</time>
      </trkpt>
      <trkpt lat="42.84725" lon="1.9968">
        <ele>925.1</ele>
        <time>2023-08-15T15:50:47Z</time>
      </trkpt>
      <trkpt lat="42.84699" lon="1.99689">
        <ele>924.7</ele>
        <time>2023-08-15T15:50:51Z</time>
      </trkpt>
      <trkpt lat="42.84672" lon="1.99686">
        <ele>925.2</ele>
        <time>2023-08-15T15:50:55Z</time>
      </trkpt>
      <trkpt lat="42.84646" lon="1.99681">
        <ele>924.6</ele>
        <time>2023-08-15T15:50:59Z</time>
      </trkpt>
      <trkpt lat="42.84621" lon="1.99678">
        <ele>926.1</ele>
        <time>2023-08-15T15:51:03Z</time>
      </trkpt>
      <trkpt lat="42.84605" lon="1.99676">
        <ele>926.3</ele>
        <time>2023-08-15T15:51:06Z</time>
      </trkpt>
      <trkpt lat="42.84585" lon="1.99673">
        <ele>926.6</ele>
        <time>2023-08-15T15:51:09Z</time>
      </trkpt>
      <trkpt lat="42.84556" lon="1.99669">
        <ele>925.8</ele>
        <time>2023-08-15T15:51:13Z</time>
      </trkpt>
      <trkpt lat="42.8453" lon="1.99666">
        <ele>926.3</ele>
        <time>2023-08-15T15:51:17Z</time>
      </trkpt>
      <trkpt lat="42.84512" lon="1.99664">
        <ele>926.6</ele>
        <time>2023-08-15T15:51:20Z</time>
      </trkpt>
      <trkpt lat="42.84485" lon="1.99661">
        <ele>926.9</ele>
        <time>2023-08-15T15:51:24Z</time>
      </trkpt>
      <trkpt lat="42.84464" lon="1.99658">
        <ele>928.6</ele>
        <time>2023-08-15T15:51:27Z</time>
      </trkpt>
      <trkpt lat="42.84438" lon="1.99654">
        <ele>929.2</ele>
        <time>2023-08-15T15:51:31Z</time>
      </trkpt>
      <trkpt lat="42.84412" lon="1.99651">
        <ele>929.5</ele>
        <time>2023-08-15T15:51:35Z</time>
      </trkpt>
      <trkpt lat="42.84393" lon="1.9965">
        <ele>929.7</ele>
        <time>2023-08-15T15:51:38Z</time>
      </trkpt>
      <trkpt lat="42.84367" lon="1.99647">
        <ele>928.8</ele>
        <time>2023-08-15T15:51:42Z</time>
      </trkpt>
      <trkpt lat="42.8434" lon="1.99644">
        <ele>928.8</ele>
        <time>2023-08-15T15:51:46Z</time>
      </trkpt>
      <trkpt lat="42.84313" lon="1.99645">
        <ele>930.2</ele>
        <time>2023-08-15T15:51:50Z</time>
      </trkpt>
      <trkpt lat="42.84293" lon="1.99648">
        <ele>930</ele>
        <time>2023-08-15T15:51:53Z</time>
      </trkpt>
      <trkpt lat="42.84274" lon="1.99656">
        <ele>930.4</ele>
        <time>2023-08-15T15:51:56Z</time>
      </trkpt>
      <trkpt lat="42.8425" lon="1.99672">
        <ele>932</ele>
        <time>2023-08-15T15:52:00Z</time>
      </trkpt>
      <trkpt lat="42.84233" lon="1.99686">
        <ele>931.5</ele>
        <time>2023-08-15T15:52:03Z</time>
      </trkpt>
      <trkpt lat="42.84213" lon="1.99709">
        <ele>932.1</ele>
        <time>2023-08-15T15:52:07Z</time>
      </trkpt>
      <trkpt lat="42.84192" lon="1.99732">
        <ele>931.9</ele>
        <time>2023-08-15T15:52:11Z</time>
      </trkpt>
      <trkpt lat="42.84171" lon="1.99753">
        <ele>931.1</ele>
        <time>2023-08-15T15:52:15Z</time>
      </trkpt>
      <trkpt lat="42.84156" lon="1.9977">
        <ele>932.8</ele>
        <time>2023-08-15T15:52:18Z</time>
      </trkpt>
      <trkpt lat="42.84141" lon="1.99786">
        <ele>933.1</ele>
        <time>2023-08-15T15:52:21Z</time>
      </trkpt>
      <trkpt lat="42.8412" lon="1.99807">
        <ele>933.8</ele>
        <time>2023-08-15T15:52:25Z</time>
      </trkpt>
      <trkpt lat="42.84104" lon="1.99824">
        <ele>936</ele>
        <time>2023-08-15T15:52:28Z</time>
      </trkpt>
      <trkpt lat="42.84089" lon="1.99841">
        <ele>936.1</ele>
        <time>2023-08-15T15:52:31Z</time>
      </trkpt>
      <trkpt lat="42.84068" lon="1.99863">
        <ele>935.9</ele>
        <time>2023-08-15T15:52:35Z</time>
      </trkpt>
      <trkpt lat="42.84047" lon="1.99885">
        <ele>937.3</ele>
        <time>2023-08-15T15:52:39Z</time>
      </trkpt>
      <trkpt lat="42.84032" lon="1.99901">
        <ele>935.8</ele>
        <time>2023-08-15T15:52:42Z</time>
      </trkpt>
      <trkpt lat="42.84016" lon="1.99918">
        <ele>935.8</ele>
        <time>2023-08-15T15:52:45Z</time>
      </trkpt>
      <trkpt lat="42.83995" lon="1.9994">
        <ele>938.7</ele>
        <time>2023-08-15T15:52:49Z</time>
      </trkpt>
      <trkpt lat="42.83974" lon="1.99963">
        <ele>939.1</ele>
        <time>2023-08-15T15:52:53Z</time>
      </trkpt>
      <trkpt lat="42.83954" lon="1.99985">
        <ele>939.6</ele>
        <time>2023-08-15T15:52:57Z</time>
      </trkpt>
      <trkpt lat="42.83933" lon="2.00008">
        <ele>940.1</ele>
        <time>2023-08-15T15:53:01Z</time>
      </trkpt>
      <trkpt lat="42.83918" lon="2.00024">
        <ele>939.8</ele>
        <time>2023-08-15T15:53:04Z</time>
      </trkpt>
      <trkpt lat="42.83897" lon="2.00047">
        <ele>941.7</ele>
        <time>2023-08-15T15:53:08Z</time>
      </trkpt>
      <trkpt lat="42.83876" lon="2.00069">
        <ele>942.7</ele>
        <time>2023-08-15T15:53:12Z</time>
      </trkpt>
      <trkpt lat="42.83861" lon="2.00085">
        <ele>943.5</ele>
        <time>2023-08-15T15:53:15Z</time>
      </trkpt>
      <trkpt lat="42.83841" lon="2.00108">
        <ele>943.3</ele>
        <time>2023-08-15T15:53:19Z</time>
      </trkpt>
      <trkpt lat="42.8382" lon="2.00131">
        <ele>944</ele>
        <time>2023-08-15T15:53:23Z</time>
      </trkpt>
      <trkpt lat="42.83804" lon="2.00147">
        <ele>945.1</ele>
        <time>2023-08-15T15:53:26Z</time>
      </trkpt>
      <trkpt lat="42.83783" lon="2.00169">
        <ele>945.4</ele>
        <time>2023-08-15T15:53:30Z</time>
      </trkpt>
      <trkpt lat="42.83767" lon="2.00185">
        <ele>946.2</ele>
        <time>2023-08-15T15:53:33Z</time>
      </trkpt>
      <trkpt lat="42.8375" lon="2.00201">
        <ele>946.8</ele>
        <time>2023-08-15T15:53:36Z</time>
      </trkpt>
      <trkpt lat="42.83729" lon="2.00224">
        <ele>947.5</ele>
        <time>2023-08-15T15:53:40Z</time>
      </trkpt>
      <trkpt lat="42.83709" lon="2.00245">
        <ele>947.6</ele>
        <time>2023-08-15T15:53:44Z</time>
      </trkpt>
      <trkpt lat="42.83693" lon="2.00263">
        <ele>947.6</ele>
        <time>2023-08-15T15:53:47Z</time>
      </trkpt>
      <trkpt lat="42.83672" lon="2.00284">
        <ele>948</ele>
        <time>2023-08-15T15:53:51Z</time>
      </trkpt>
      <trkpt lat="42.83652" lon="2.00305">
        <ele>948.8</ele>
        <time>2023-08-15T15:53:55Z</time>
      </trkpt>
      <trkpt lat="42.83633" lon="2.00328">
        <ele>949.3</ele>
        <time>2023-08-15T15:53:59Z</time>
      </trkpt>
      <trkpt lat="42.83616" lon="2.00345">
        <ele>950.4</ele>
        <time>2023-08-15T15:54:02Z</time>
      </trkpt>
      <trkpt lat="42.83595" lon="2.00367">
        <ele>951.3</ele>
        <time>2023-08-15T15:54:06Z</time>
      </trkpt>
      <trkpt lat="42.83575" lon="2.00389">
        <ele>952</ele>
        <time>2023-08-15T15:54:10Z</time>
      </trkpt>
      <trkpt lat="42.83555" lon="2.00414">
        <ele>953.2</ele>
        <time>2023-08-15T15:54:14Z</time>
      </trkpt>
      <trkpt lat="42.83541" lon="2.00433">
        <ele>953.5</ele>
        <time>2023-08-15T15:54:17Z</time>
      </trkpt>
      <trkpt lat="42.83527" lon="2.00453">
        <ele>953.7</ele>
        <time>2023-08-15T15:54:20Z</time>
      </trkpt>
      <trkpt lat="42.83513" lon="2.00474">
        <ele>954</ele>
        <time>2023-08-15T15:54:23Z</time>
      </trkpt>
      <trkpt lat="42.83494" lon="2.00498">
        <ele>954.7</ele>
        <time>2023-08-15T15:54:27Z</time>
      </trkpt>
      <trkpt lat="42.83471" lon="2.00516">
        <ele>955.2</ele>
        <time>2023-08-15T15:54:31Z</time>
      </trkpt>
      <trkpt lat="42.83445" lon="2.00526">
        <ele>955.7</ele>
        <time>2023-08-15T15:54:35Z</time>
      </trkpt>
      <trkpt lat="42.83418" lon="2.00533">
        <ele>956</ele>
        <time>2023-08-15T15:54:39Z</time>
      </trkpt>
      <trkpt lat="42.83393" lon="2.0054">
        <ele>956.6</ele>
        <time>2023-08-15T15:54:43Z</time>
      </trkpt>
      <trkpt lat="42.83374" lon="2.00544">
        <ele>957</ele>
        <time>2023-08-15T15:54:46Z</time>
      </trkpt>
      <trkpt lat="42.83348" lon="2.00541">
        <ele>957.4</ele>
        <time>2023-08-15T15:54:50Z</time>
      </trkpt>
      <trkpt lat="42.83322" lon="2.0053">
        <ele>958.5</ele>
        <time>2023-08-15T15:54:54Z</time>
      </trkpt>
      <trkpt lat="42.83298" lon="2.00515">
        <ele>958.7</ele>
        <time>2023-08-15T15:54:58Z</time>
      </trkpt>
      <trkpt lat="42.83274" lon="2.00498">
        <ele>959.3</ele>
        <time>2023-08-15T15:55:02Z</time>
      </trkpt>
      <trkpt lat="42.83252" lon="2.00479">
        <ele>960</ele>
        <time>2023-08-15T15:55:06Z</time>
      </trkpt>
      <trkpt lat="42.83234" lon="2.00466">
        <ele>960.4</ele>
        <time>2023-08-15T15:55:09Z</time>
      </trkpt>
      <trkpt lat="42.83212" lon="2.00445">
        <ele>961.6</ele>
        <time>2023-08-15T15:55:13Z</time>
      </trkpt>
      <trkpt lat="42.83197" lon="2.00428">
        <ele>961.3</ele>
        <time>2023-08-15T15:55:16Z</time>
      </trkpt>
      <trkpt lat="42.83181" lon="2.00412">
        <ele>962.4</ele>
        <time>2023-08-15T15:55:19Z</time>
      </trkpt>
      <trkpt lat="42.83165" lon="2.00396">
        <ele>963</ele>
        <time>2023-08-15T15:55:22Z</time>
      </trkpt>
      <trkpt lat="42.83149" lon="2.00379">
        <ele>963.1</ele>
        <time>2023-08-15T15:55:25Z</time>
      </trkpt>
      <trkpt lat="42.83128" lon="2.00358">
        <ele>963.6</ele>
        <time>2023-08-15T15:55:29Z</time>
      </trkpt>
      <trkpt lat="42.83112" lon="2.00343">
        <ele>964.3</ele>
        <time>2023-08-15T15:55:32Z</time>
      </trkpt>
      <trkpt lat="42.83091" lon="2.00321">
        <ele>965.1</ele>
        <time>2023-08-15T15:55:36Z</time>
      </trkpt>
      <trkpt lat="42.83074" lon="2.00305">
        <ele>965.6</ele>
        <time>2023-08-15T15:55:39Z</time>
      </trkpt>
      <trkpt lat="42.83051" lon="2.00287">
        <ele>966.1</ele>
        <time>2023-08-15T15:55:43Z</time>
      </trkpt>
      <trkpt lat="42.83027" lon="2.00272">
        <ele>966</ele>
        <time>2023-08-15T15:55:47Z</time>
      </trkpt>
      <trkpt lat="42.83009" lon="2.00262">
        <ele>966.2</ele>
        <time>2023-08-15T15:55:50Z</time>
      </trkpt>
      <trkpt lat="42.82984" lon="2.00249">
        <ele>966.2</ele>
        <time>2023-08-15T15:55:54Z</time>
      </trkpt>
      <trkpt lat="42.82959" lon="2.00236">
        <ele>966.5</ele>
        <time>2023-08-15T15:55:58Z</time>
      </trkpt>
      <trkpt lat="42.82935" lon="2.00222">
        <ele>967.3</ele>
        <time>2023-08-15T15:56:02Z</time>
      </trkpt>
      <trkpt lat="42.82911" lon="2.00206">
        <ele>967.5</ele>
        <time>2023-08-15T15:56:06Z</time>
      </trkpt>
      <trkpt lat="42.82894" lon="2.00193">
        <ele>967.7</ele>
        <time>2023-08-15T15:56:09Z</time>
      </trkpt>
      <trkpt lat="42.82873" lon="2.00177">
        <ele>968.1</ele>
        <time>2023-08-15T15:56:13Z</time>
      </trkpt>
      <trkpt lat="42.82858" lon="2.00167">
        <ele>967.3</ele>
        <time>2023-08-15T15:56:16Z</time>
      </trkpt>
      <trkpt lat="42.82839" lon="2.00153">
        <ele>967.5</ele>
        <time>2023-08-15T15:56:20Z</time>
      </trkpt>
      <trkpt lat="42.82825" lon="2.00142">
        <ele>967.4</ele>
        <time>2023-08-15T15:56:23Z</time>
      </trkpt>
      <trkpt lat="42.82806" lon="2.00128">
        <ele>967.6</ele>
        <time>2023-08-15T15:56:27Z</time>
      </trkpt>
      <trkpt lat="42.82789" lon="2.00114">
        <ele>968</ele>
        <time>2023-08-15T15:56:31Z</time>
      </trkpt>
      <trkpt lat="42.82779" lon="2.00106">
        <ele>968.1</ele>
        <time>2023-08-15T15:56:35Z</time>
      </trkpt>
      <trkpt lat="42.82774" lon="2.00103">
        <ele>968.4</ele>
        <time>2023-08-15T15:56:38Z</time>
      </trkpt>
      <trkpt lat="42.82772" lon="2.00102">
        <ele>968.6</ele>
        <time>2023-08-15T15:56:42Z</time>
      </trkpt>
      <trkpt lat="42.82767" lon="2.00104">
        <ele>968.7</ele>
        <time>2023-08-15T15:56:45Z</time>
      </trkpt>
      <trkpt lat="42.82764" lon="2.00124">
        <ele>968.4</ele>
        <time>2023-08-15T15:56:49Z</time>
      </trkpt>
      <trkpt lat="42.82763" lon="2.00155">
        <ele>968.5</ele>
        <time>2023-08-15T15:56:53Z</time>
      </trkpt>
      <trkpt lat="42.82759" lon="2.00192">
        <ele>968.6</ele>
        <time>2023-08-15T15:56:57Z</time>
      </trkpt>
      <trkpt lat="42.82756" lon="2.00229">
        <ele>968.1</ele>
        <time>2023-08-15T15:57:01Z</time>
      </trkpt>
      <trkpt lat="42.82754" lon="2.00256">
        <ele>967.8</ele>
        <time>2023-08-15T15:57:04Z</time>
      </trkpt>
      <trkpt lat="42.8275" lon="2.00292">
        <ele>967.2</ele>
        <time>2023-08-15T15:57:08Z</time>
      </trkpt>
      <trkpt lat="42.82746" lon="2.00327">
        <ele>967</ele>
        <time>2023-08-15T15:57:12Z</time>
      </trkpt>
      <trkpt lat="42.82744" lon="2.00364">
        <ele>966</ele>
        <time>2023-08-15T15:57:16Z</time>
      </trkpt>
      <trkpt lat="42.82742" lon="2.00391">
        <ele>965.2</ele>
        <time>2023-08-15T15:57:19Z</time>
      </trkpt>
      <trkpt lat="42.82739" lon="2.00427">
        <ele>964.6</ele>
        <time>2023-08-15T15:57:23Z</time>
      </trkpt>
      <trkpt lat="42.82737" lon="2.00454">
        <ele>963.7</ele>
        <time>2023-08-15T15:57:26Z</time>
      </trkpt>
      <trkpt lat="42.82734" lon="2.0049">
        <ele>963.2</ele>
        <time>2023-08-15T15:57:30Z</time>
      </trkpt>
      <trkpt lat="42.82732" lon="2.00517">
        <ele>963.1</ele>
        <time>2023-08-15T15:57:33Z</time>
      </trkpt>
      <trkpt lat="42.8273" lon="2.00544">
        <ele>962.7</ele>
        <time>2023-08-15T15:57:36Z</time>
      </trkpt>
      <trkpt lat="42.82726" lon="2.0058">
        <ele>962.6</ele>
        <time>2023-08-15T15:57:40Z</time>
      </trkpt>
      <trkpt lat="42.82723" lon="2.00607">
        <ele>961.8</ele>
        <time>2023-08-15T15:57:43Z</time>
      </trkpt>
      <trkpt lat="42.8272" lon="2.00642">
        <ele>960.9</ele>
        <time>2023-08-15T15:57:47Z</time>
      </trkpt>
      <trkpt lat="42.82718" lon="2.00679">
        <ele>960.6</ele>
        <time>2023-08-15T15:57:51Z</time>
      </trkpt>
      <trkpt lat="42.82715" lon="2.00715">
        <ele>959.5</ele>
        <time>2023-08-15T15:57:55Z</time>
      </trkpt>
      <trkpt lat="42.82711" lon="2.0075">
        <ele>959.3</ele>
        <time>2023-08-15T15:57:59Z</time>
      </trkpt>
      <trkpt lat="42.82709" lon="2.00777">
        <ele>959.3</ele>
        <time>2023-08-15T15:58:02Z</time>
      </trkpt>
      <trkpt lat="42.82706" lon="2.00804">
        <ele>959</ele>
        <time>2023-08-15T15:58:05Z</time>
      </trkpt>
      <trkpt lat="42.82702" lon="2.00839">
        <ele>958.9</ele>
        <time>2023-08-15T15:58:09Z</time>
      </trkpt>
      <trkpt lat="42.82699" lon="2.00863">
        <ele>958.4</ele>
        <time>2023-08-15T15:58:12Z</time>
      </trkpt>
      <trkpt lat="42.82694" lon="2.00887">
        <ele>957.8</ele>
        <time>2023-08-15T15:58:15Z</time>
      </trkpt>
      <trkpt lat="42.82686" lon="2.0092">
        <ele>957.6</ele>
        <time>2023-08-15T15:58:19Z</time>
      </trkpt>
      <trkpt lat="42.82679" lon="2.00944">
        <ele>957.4</ele>
        <time>2023-08-15T15:58:22Z</time>
      </trkpt>
      <trkpt lat="42.82672" lon="2.00978">
        <ele>957.1</ele>
        <time>2023-08-15T15:58:26Z</time>
      </trkpt>
      <trkpt lat="42.82667" lon="2.01003">
        <ele>956.7</ele>
        <time>2023-08-15T15:58:29Z</time>
      </trkpt>
      <trkpt lat="42.82658" lon="2.01036">
        <ele>956.8</ele>
        <time>2023-08-15T15:58:33Z</time>
      </trkpt>
      <trkpt lat="42.8265" lon="2.01069">
        <ele>956.9</ele>
        <time>2023-08-15T15:58:37Z</time>
      </trkpt>
      <trkpt lat="42.82642" lon="2.01102">
        <ele>956.1</ele>
        <time>2023-08-15T15:58:41Z</time>
      </trkpt>
      <trkpt lat="42.82635" lon="2.01134">
        <ele>955.5</ele>
        <time>2023-08-15T15:58:45Z</time>
      </trkpt>
      <trkpt lat="42.82625" lon="2.01162">
        <ele>955.2</ele>
        <time>2023-08-15T15:58:49Z</time>
      </trkpt>
      <trkpt lat="42.82617" lon="2.01183">
        <ele>954.8</ele>
        <time>2023-08-15T15:58:52Z</time>
      </trkpt>
      <trkpt lat="42.82609" lon="2.01204">
        <ele>954.9</ele>
        <time>2023-08-15T15:58:55Z</time>
      </trkpt>
      <trkpt lat="42.82597" lon="2.01233">
        <ele>954.2</ele>
        <time>2023-08-15T15:58:59Z</time>
      </trkpt>
      <trkpt lat="42.82587" lon="2.01252">
        <ele>954.2</ele>
        <time>2023-08-15T15:59:02Z</time>
      </trkpt>
      <trkpt lat="42.82582" lon="2.01267">
        <ele>954.5</ele>
        <time>2023-08-15T15:59:06Z</time>
      </trkpt>
      <trkpt lat="42.82591" lon="2.01275">
        <ele>954</ele>
        <time>2023-08-15T15:59:10Z</time>
      </trkpt>
      <trkpt lat="42.82598" lon="2.01279">
        <ele>953.6</ele>
        <time>2023-08-15T15:59:13Z</time>
      </trkpt>
      <trkpt lat="42.82599" lon="2.01285">
        <ele>954.8</ele>
        <time>2023-08-15T15:59:37Z</time>
      </trkpt>
      <trkpt lat="42.82601" lon="2.01298">
        <ele>954.7</ele>
        <time>2023-08-15T15:59:41Z</time>
      </trkpt>
      <trkpt lat="42.82596" lon="2.01325">
        <ele>953.9</ele>
        <time>2023-08-15T15:59:45Z</time>
      </trkpt>
      <trkpt lat="42.82589" lon="2.01359">
        <ele>953.7</ele>
        <time>2023-08-15T15:59:49Z</time>
      </trkpt>
      <trkpt lat="42.82582" lon="2.01397">
        <ele>953.7</ele>
        <time>2023-08-15T15:59:53Z</time>
      </trkpt>
      <trkpt lat="42.82575" lon="2.01433">
        <ele>953</ele>
        <time>2023-08-15T15:59:57Z</time>
      </trkpt>
      <trkpt lat="42.82567" lon="2.01466">
        <ele>953.2</ele>
        <time>2023-08-15T16:00:01Z</time>
      </trkpt>
      <trkpt lat="42.82561" lon="2.01491">
        <ele>953</ele>
        <time>2023-08-15T16:00:04Z</time>
      </trkpt>
      <trkpt lat="42.82554" lon="2.01525">
        <ele>952.3</ele>
        <time>2023-08-15T16:00:08Z</time>
      </trkpt>
      <trkpt lat="42.82546" lon="2.01561">
        <ele>951.9</ele>
        <time>2023-08-15T16:00:12Z</time>
      </trkpt>
      <trkpt lat="42.82538" lon="2.01594">
        <ele>951.4</ele>
        <time>2023-08-15T16:00:16Z</time>
      </trkpt>
      <trkpt lat="42.8253" lon="2.01629">
        <ele>951.3</ele>
        <time>2023-08-15T16:00:20Z</time>
      </trkpt>
      <trkpt lat="42.82524" lon="2.01656">
        <ele>951</ele>
        <time>2023-08-15T16:00:23Z</time>
      </trkpt>
      <trkpt lat="42.82517" lon="2.0169">
        <ele>950.5</ele>
        <time>2023-08-15T16:00:27Z</time>
      </trkpt>
      <trkpt lat="42.82512" lon="2.01717">
        <ele>950.9</ele>
        <time>2023-08-15T16:00:30Z</time>
      </trkpt>
      <trkpt lat="42.82506" lon="2.01744">
        <ele>950.8</ele>
        <time>2023-08-15T16:00:33Z</time>
      </trkpt>
      <trkpt lat="42.82498" lon="2.01777">
        <ele>950.6</ele>
        <time>2023-08-15T16:00:37Z</time>
      </trkpt>
      <trkpt lat="42.82491" lon="2.01812">
        <ele>950.7</ele>
        <time>2023-08-15T16:00:41Z</time>
      </trkpt>
      <trkpt lat="42.82483" lon="2.01846">
        <ele>950</ele>
        <time>2023-08-15T16:00:45Z</time>
      </trkpt>
      <trkpt lat="42.82478" lon="2.01872">
        <ele>950.2</ele>
        <time>2023-08-15T16:00:48Z</time>
      </trkpt>
      <trkpt lat="42.82472" lon="2.01898">
        <ele>950.2</ele>
        <time>2023-08-15T16:00:51Z</time>
      </trkpt>
      <trkpt lat="42.82465" lon="2.01932">
        <ele>949.8</ele>
        <time>2023-08-15T16:00:55Z</time>
      </trkpt>
      <trkpt lat="42.82457" lon="2.01967">
        <ele>950.3</ele>
        <time>2023-08-15T16:00:59Z</time>
      </trkpt>
      <trkpt lat="42.82452" lon="2.01993">
        <ele>950.6</ele>
        <time>2023-08-15T16:01:02Z</time>
      </trkpt>
      <trkpt lat="42.82446" lon="2.02019">
        <ele>950.4</ele>
        <time>2023-08-15T16:01:05Z</time>
      </trkpt>
      <trkpt lat="42.82439" lon="2.02053">
        <ele>950.7</ele>
        <time>2023-08-15T16:01:09Z</time>
      </trkpt>
      <trkpt lat="42.82434" lon="2.02089">
        <ele>950.2</ele>
        <time>2023-08-15T16:01:13Z</time>
      </trkpt>
      <trkpt lat="42.82435" lon="2.02125">
        <ele>950.3</ele>
        <time>2023-08-15T16:01:17Z</time>
      </trkpt>
      <trkpt lat="42.82445" lon="2.02157">
        <ele>950.4</ele>
        <time>2023-08-15T16:01:21Z</time>
      </trkpt>
      <trkpt lat="42.82461" lon="2.02185">
        <ele>950.3</ele>
        <time>2023-08-15T16:01:25Z</time>
      </trkpt>
      <trkpt lat="42.82481" lon="2.02209">
        <ele>951.1</ele>
        <time>2023-08-15T16:01:29Z</time>
      </trkpt>
      <trkpt lat="42.82495" lon="2.02227">
        <ele>951.6</ele>
        <time>2023-08-15T16:01:32Z</time>
      </trkpt>
      <trkpt lat="42.82514" lon="2.02253">
        <ele>951.8</ele>
        <time>2023-08-15T16:01:36Z</time>
      </trkpt>
      <trkpt lat="42.82525" lon="2.02271">
        <ele>951.7</ele>
        <time>2023-08-15T16:01:39Z</time>
      </trkpt>
      <trkpt lat="42.82536" lon="2.02285">
        <ele>951.3</ele>
        <time>2023-08-15T16:01:42Z</time>
      </trkpt>
      <trkpt lat="42.82546" lon="2.023">
        <ele>951.3</ele>
        <time>2023-08-15T16:01:45Z</time>
      </trkpt>
      <trkpt lat="42.82541" lon="2.02328">
        <ele>951.6</ele>
        <time>2023-08-15T16:01:49Z</time>
      </trkpt>
      <trkpt lat="42.82531" lon="2.02349">
        <ele>952.2</ele>
        <time>2023-08-15T16:01:52Z</time>
      </trkpt>
      <trkpt lat="42.82524" lon="2.02379">
        <ele>954.5</ele>
        <time>2023-08-15T16:01:56Z</time>
      </trkpt>
      <trkpt lat="42.82521" lon="2.02413">
        <ele>956</ele>
        <time>2023-08-15T16:02:00Z</time>
      </trkpt>
      <trkpt lat="42.82518" lon="2.0244">
        <ele>956.1</ele>
        <time>2023-08-15T16:02:03Z</time>
      </trkpt>
      <trkpt lat="42.82511" lon="2.0248">
        <ele>957.3</ele>
        <time>2023-08-15T16:02:07Z</time>
      </trkpt>
      <trkpt lat="42.82503" lon="2.02515">
        <ele>956.6</ele>
        <time>2023-08-15T16:02:11Z</time>
      </trkpt>
      <trkpt lat="42.82495" lon="2.02547">
        <ele>956.6</ele>
        <time>2023-08-15T16:02:15Z</time>
      </trkpt>
      <trkpt lat="42.82489" lon="2.02572">
        <ele>956.5</ele>
        <time>2023-08-15T16:02:18Z</time>
      </trkpt>
      <trkpt lat="42.82483" lon="2.02598">
        <ele>956.2</ele>
        <time>2023-08-15T16:02:21Z</time>
      </trkpt>
      <trkpt lat="42.82474" lon="2.02632">
        <ele>956.5</ele>
        <time>2023-08-15T16:02:25Z</time>
      </trkpt>
      <trkpt lat="42.82462" lon="2.02664">
        <ele>956.8</ele>
        <time>2023-08-15T16:02:29Z</time>
      </trkpt>
      <trkpt lat="42.82451" lon="2.02685">
        <ele>957</ele>
        <time>2023-08-15T16:02:32Z</time>
      </trkpt>
      <trkpt lat="42.82435" lon="2.02714">
        <ele>958.4</ele>
        <time>2023-08-15T16:02:36Z</time>
      </trkpt>
      <trkpt lat="42.82416" lon="2.02738">
        <ele>958.8</ele>
        <time>2023-08-15T16:02:40Z</time>
      </trkpt>
      <trkpt lat="42.82401" lon="2.02753">
        <ele>959.9</ele>
        <time>2023-08-15T16:02:43Z</time>
      </trkpt>
      <trkpt lat="42.82385" lon="2.02764">
        <ele>960.8</ele>
        <time>2023-08-15T16:02:46Z</time>
      </trkpt>
      <trkpt lat="42.8236" lon="2.02776">
        <ele>962.3</ele>
        <time>2023-08-15T16:02:50Z</time>
      </trkpt>
      <trkpt lat="42.82343" lon="2.02783">
        <ele>963</ele>
        <time>2023-08-15T16:02:53Z</time>
      </trkpt>
      <trkpt lat="42.82315" lon="2.02788">
        <ele>963.5</ele>
        <time>2023-08-15T16:02:57Z</time>
      </trkpt>
      <trkpt lat="42.82287" lon="2.02787">
        <ele>963.6</ele>
        <time>2023-08-15T16:03:01Z</time>
      </trkpt>
      <trkpt lat="42.82267" lon="2.02781">
        <ele>963.4</ele>
        <time>2023-08-15T16:03:04Z</time>
      </trkpt>
      <trkpt lat="42.82243" lon="2.02772">
        <ele>963.3</ele>
        <time>2023-08-15T16:03:08Z</time>
      </trkpt>
      <trkpt lat="42.82225" lon="2.02761">
        <ele>963.2</ele>
        <time>2023-08-15T16:03:11Z</time>
      </trkpt>
      <trkpt lat="42.82201" lon="2.02747">
        <ele>962.8</ele>
        <time>2023-08-15T16:03:15Z</time>
      </trkpt>
      <trkpt lat="42.82176" lon="2.02736">
        <ele>963</ele>
        <time>2023-08-15T16:03:19Z</time>
      </trkpt>
      <trkpt lat="42.82156" lon="2.02738">
        <ele>962.8</ele>
        <time>2023-08-15T16:03:22Z</time>
      </trkpt>
      <trkpt lat="42.8213" lon="2.02751">
        <ele>962.8</ele>
        <time>2023-08-15T16:03:26Z</time>
      </trkpt>
      <trkpt lat="42.82115" lon="2.02769">
        <ele>962.7</ele>
        <time>2023-08-15T16:03:29Z</time>
      </trkpt>
      <trkpt lat="42.82104" lon="2.02791">
        <ele>962.5</ele>
        <time>2023-08-15T16:03:32Z</time>
      </trkpt>
      <trkpt lat="42.82097" lon="2.02816">
        <ele>963.4</ele>
        <time>2023-08-15T16:03:35Z</time>
      </trkpt>
      <trkpt lat="42.82095" lon="2.02853">
        <ele>963.6</ele>
        <time>2023-08-15T16:03:39Z</time>
      </trkpt>
      <trkpt lat="42.82099" lon="2.02881">
        <ele>963.8</ele>
        <time>2023-08-15T16:03:42Z</time>
      </trkpt>
      <trkpt lat="42.82116" lon="2.0291">
        <ele>963.3</ele>
        <time>2023-08-15T16:03:46Z</time>
      </trkpt>
      <trkpt lat="42.82133" lon="2.02927">
        <ele>963.4</ele>
        <time>2023-08-15T16:03:49Z</time>
      </trkpt>
      <trkpt lat="42.82153" lon="2.02949">
        <ele>962.2</ele>
        <time>2023-08-15T16:03:53Z</time>
      </trkpt>
      <trkpt lat="42.82165" lon="2.02982">
        <ele>960.7</ele>
        <time>2023-08-15T16:03:57Z</time>
      </trkpt>
      <trkpt lat="42.82171" lon="2.03009">
        <ele>959.8</ele>
        <time>2023-08-15T16:04:00Z</time>
      </trkpt>
      <trkpt lat="42.82177" lon="2.03034">
        <ele>959.4</ele>
        <time>2023-08-15T16:04:03Z</time>
      </trkpt>
      <trkpt lat="42.82195" lon="2.03061">
        <ele>958.7</ele>
        <time>2023-08-15T16:04:07Z</time>
      </trkpt>
      <trkpt lat="42.82213" lon="2.03073">
        <ele>957.1</ele>
        <time>2023-08-15T16:04:10Z</time>
      </trkpt>
      <trkpt lat="42.82235" lon="2.0309">
        <ele>955.8</ele>
        <time>2023-08-15T16:04:14Z</time>
      </trkpt>
      <trkpt lat="42.82255" lon="2.03114">
        <ele>954.9</ele>
        <time>2023-08-15T16:04:18Z</time>
      </trkpt>
      <trkpt lat="42.82269" lon="2.03133">
        <ele>953.9</ele>
        <time>2023-08-15T16:04:21Z</time>
      </trkpt>
      <trkpt lat="42.82288" lon="2.03158">
        <ele>952.4</ele>
        <time>2023-08-15T16:04:25Z</time>
      </trkpt>
      <trkpt lat="42.82305" lon="2.03186">
        <ele>950.8</ele>
        <time>2023-08-15T16:04:29Z</time>
      </trkpt>
      <trkpt lat="42.82311" lon="2.03212">
        <ele>949.7</ele>
        <time>2023-08-15T16:04:32Z</time>
      </trkpt>
      <trkpt lat="42.82312" lon="2.03247">
        <ele>948</ele>
        <time>2023-08-15T16:04:36Z</time>
      </trkpt>
      <trkpt lat="42.82312" lon="2.03284">
        <ele>946.2</ele>
        <time>2023-08-15T16:04:40Z</time>
      </trkpt>
      <trkpt lat="42.82311" lon="2.03311">
        <ele>945</ele>
        <time>2023-08-15T16:04:43Z</time>
      </trkpt>
      <trkpt lat="42.82317" lon="2.03346">
        <ele>944.1</ele>
        <time>2023-08-15T16:04:47Z</time>
      </trkpt>
      <trkpt lat="42.8233" lon="2.03368">
        <ele>943.2</ele>
        <time>2023-08-15T16:04:50Z</time>
      </trkpt>
      <trkpt lat="42.8235" lon="2.03392">
        <ele>942.1</ele>
        <time>2023-08-15T16:04:54Z</time>
      </trkpt>
      <trkpt lat="42.82361" lon="2.03409">
        <ele>941.3</ele>
        <time>2023-08-15T16:04:57Z</time>
      </trkpt>
      <trkpt lat="42.82362" lon="2.03434">
        <ele>939.1</ele>
        <time>2023-08-15T16:05:01Z</time>
      </trkpt>
      <trkpt lat="42.8235" lon="2.03443">
        <ele>938</ele>
        <time>2023-08-15T16:05:04Z</time>
      </trkpt>
      <trkpt lat="42.82332" lon="2.03425">
        <ele>936.5</ele>
        <time>2023-08-15T16:05:08Z</time>
      </trkpt>
      <trkpt lat="42.82322" lon="2.03398">
        <ele>935.6</ele>
        <time>2023-08-15T16:05:12Z</time>
      </trkpt>
      <trkpt lat="42.82308" lon="2.0337">
        <ele>934</ele>
        <time>2023-08-15T16:05:15Z</time>
      </trkpt>
      <trkpt lat="42.82297" lon="2.0335">
        <ele>933.1</ele>
        <time>2023-08-15T16:05:18Z</time>
      </trkpt>
      <trkpt lat="42.82287" lon="2.0333">
        <ele>931.8</ele>
        <time>2023-08-15T16:05:21Z</time>
      </trkpt>
      <trkpt lat="42.82276" lon="2.03305">
        <ele>930.8</ele>
        <time>2023-08-15T16:05:25Z</time>
      </trkpt>
      <trkpt lat="42.82266" lon="2.03285">
        <ele>929.3</ele>
        <time>2023-08-15T16:05:28Z</time>
      </trkpt>
      <trkpt lat="42.82254" lon="2.03269">
        <ele>928.5</ele>
        <time>2023-08-15T16:05:31Z</time>
      </trkpt>
      <trkpt lat="42.82239" lon="2.03258">
        <ele>927.4</ele>
        <time>2023-08-15T16:05:34Z</time>
      </trkpt>
      <trkpt lat="42.82218" lon="2.03244">
        <ele>925.6</ele>
        <time>2023-08-15T16:05:38Z</time>
      </trkpt>
      <trkpt lat="42.82203" lon="2.03232">
        <ele>924.8</ele>
        <time>2023-08-15T16:05:41Z</time>
      </trkpt>
      <trkpt lat="42.82189" lon="2.03219">
        <ele>923.4</ele>
        <time>2023-08-15T16:05:44Z</time>
      </trkpt>
      <trkpt lat="42.82172" lon="2.03198">
        <ele>921.7</ele>
        <time>2023-08-15T16:05:48Z</time>
      </trkpt>
      <trkpt lat="42.8216" lon="2.03183">
        <ele>920.7</ele>
        <time>2023-08-15T16:05:51Z</time>
      </trkpt>
      <trkpt lat="42.82146" lon="2.03171">
        <ele>920.1</ele>
        <time>2023-08-15T16:05:54Z</time>
      </trkpt>
      <trkpt lat="42.82125" lon="2.03159">
        <ele>918.7</ele>
        <time>2023-08-15T16:05:58Z</time>
      </trkpt>
      <trkpt lat="42.82107" lon="2.03155">
        <ele>917.7</ele>
        <time>2023-08-15T16:06:01Z</time>
      </trkpt>
      <trkpt lat="42.82084" lon="2.03152">
        <ele>915.6</ele>
        <time>2023-08-15T16:06:05Z</time>
      </trkpt>
      <trkpt lat="42.82067" lon="2.03148">
        <ele>914.3</ele>
        <time>2023-08-15T16:06:08Z</time>
      </trkpt>
      <trkpt lat="42.8205" lon="2.03135">
        <ele>913.9</ele>
        <time>2023-08-15T16:06:12Z</time>
      </trkpt>
      <trkpt lat="42.82041" lon="2.03121">
        <ele>914.3</ele>
        <time>2023-08-15T16:06:15Z</time>
      </trkpt>
      <trkpt lat="42.82027" lon="2.03112">
        <ele>913.6</ele>
        <time>2023-08-15T16:06:19Z</time>
      </trkpt>
      <trkpt lat="42.82016" lon="2.03123">
        <ele>912.5</ele>
        <time>2023-08-15T16:06:22Z</time>
      </trkpt>
      <trkpt lat="42.82022" lon="2.03151">
        <ele>910.4</ele>
        <time>2023-08-15T16:06:26Z</time>
      </trkpt>
      <trkpt lat="42.82036" lon="2.03162">
        <ele>909.9</ele>
        <time>2023-08-15T16:06:29Z</time>
      </trkpt>
      <trkpt lat="42.82062" lon="2.0318">
        <ele>908.2</ele>
        <time>2023-08-15T16:06:33Z</time>
      </trkpt>
      <trkpt lat="42.82083" lon="2.03196">
        <ele>905.6</ele>
        <time>2023-08-15T16:06:37Z</time>
      </trkpt>
      <trkpt lat="42.82101" lon="2.03212">
        <ele>904.3</ele>
        <time>2023-08-15T16:06:41Z</time>
      </trkpt>
      <trkpt lat="42.82117" lon="2.03236">
        <ele>903.5</ele>
        <time>2023-08-15T16:06:45Z</time>
      </trkpt>
      <trkpt lat="42.82126" lon="2.03256">
        <ele>902.2</ele>
        <time>2023-08-15T16:06:48Z</time>
      </trkpt>
      <trkpt lat="42.82133" lon="2.03285">
        <ele>900.8</ele>
        <time>2023-08-15T16:06:52Z</time>
      </trkpt>
      <trkpt lat="42.82137" lon="2.03308">
        <ele>899.5</ele>
        <time>2023-08-15T16:06:55Z</time>
      </trkpt>
      <trkpt lat="42.82149" lon="2.03334">
        <ele>898.9</ele>
        <time>2023-08-15T16:06:59Z</time>
      </trkpt>
      <trkpt lat="42.82166" lon="2.03355">
        <ele>896.7</ele>
        <time>2023-08-15T16:07:03Z</time>
      </trkpt>
      <trkpt lat="42.8218" lon="2.03369">
        <ele>895.6</ele>
        <time>2023-08-15T16:07:06Z</time>
      </trkpt>
      <trkpt lat="42.82194" lon="2.03393">
        <ele>894.3</ele>
        <time>2023-08-15T16:07:10Z</time>
      </trkpt>
      <trkpt lat="42.82203" lon="2.03413">
        <ele>893.7</ele>
        <time>2023-08-15T16:07:13Z</time>
      </trkpt>
      <trkpt lat="42.82214" lon="2.0344">
        <ele>891.8</ele>
        <time>2023-08-15T16:07:17Z</time>
      </trkpt>
      <trkpt lat="42.82216" lon="2.03471">
        <ele>890.3</ele>
        <time>2023-08-15T16:07:21Z</time>
      </trkpt>
      <trkpt lat="42.8221" lon="2.03494">
        <ele>889.1</ele>
        <time>2023-08-15T16:07:24Z</time>
      </trkpt>
      <trkpt lat="42.82202" lon="2.03523">
        <ele>888.4</ele>
        <time>2023-08-15T16:07:28Z</time>
      </trkpt>
      <trkpt lat="42.82204" lon="2.03547">
        <ele>886.7</ele>
        <time>2023-08-15T16:07:31Z</time>
      </trkpt>
      <trkpt lat="42.8221" lon="2.03575">
        <ele>885.6</ele>
        <time>2023-08-15T16:07:35Z</time>
      </trkpt>
      <trkpt lat="42.82211" lon="2.03596">
        <ele>883.9</ele>
        <time>2023-08-15T16:07:39Z</time>
      </trkpt>
      <trkpt lat="42.82203" lon="2.03607">
        <ele>882.8</ele>
        <time>2023-08-15T16:07:42Z</time>
      </trkpt>
      <trkpt lat="42.82189" lon="2.03605">
        <ele>880.9</ele>
        <time>2023-08-15T16:07:45Z</time>
      </trkpt>
      <trkpt lat="42.82185" lon="2.03574">
        <ele>880.3</ele>
        <time>2023-08-15T16:07:49Z</time>
      </trkpt>
      <trkpt lat="42.82188" lon="2.03544">
        <ele>878.6</ele>
        <time>2023-08-15T16:07:53Z</time>
      </trkpt>
      <trkpt lat="42.82184" lon="2.03519">
        <ele>877.3</ele>
        <time>2023-08-15T16:07:57Z</time>
      </trkpt>
      <trkpt lat="42.8218" lon="2.03498">
        <ele>875.6</ele>
        <time>2023-08-15T16:08:00Z</time>
      </trkpt>
      <trkpt lat="42.8218" lon="2.03467">
        <ele>873.6</ele>
        <time>2023-08-15T16:08:04Z</time>
      </trkpt>
      <trkpt lat="42.82168" lon="2.03443">
        <ele>871.9</ele>
        <time>2023-08-15T16:08:08Z</time>
      </trkpt>
      <trkpt lat="42.8215" lon="2.03435">
        <ele>871.7</ele>
        <time>2023-08-15T16:08:11Z</time>
      </trkpt>
      <trkpt lat="42.82131" lon="2.03431">
        <ele>870</ele>
        <time>2023-08-15T16:08:14Z</time>
      </trkpt>
      <trkpt lat="42.8211" lon="2.03418">
        <ele>868.9</ele>
        <time>2023-08-15T16:08:18Z</time>
      </trkpt>
      <trkpt lat="42.82097" lon="2.03402">
        <ele>867.7</ele>
        <time>2023-08-15T16:08:21Z</time>
      </trkpt>
      <trkpt lat="42.82081" lon="2.03377">
        <ele>866.7</ele>
        <time>2023-08-15T16:08:25Z</time>
      </trkpt>
      <trkpt lat="42.82064" lon="2.03356">
        <ele>865.1</ele>
        <time>2023-08-15T16:08:29Z</time>
      </trkpt>
      <trkpt lat="42.82051" lon="2.03342">
        <ele>863.5</ele>
        <time>2023-08-15T16:08:32Z</time>
      </trkpt>
      <trkpt lat="42.82037" lon="2.03331">
        <ele>862.5</ele>
        <time>2023-08-15T16:08:35Z</time>
      </trkpt>
      <trkpt lat="42.82018" lon="2.03313">
        <ele>860.8</ele>
        <time>2023-08-15T16:08:39Z</time>
      </trkpt>
      <trkpt lat="42.82004" lon="2.03301">
        <ele>860</ele>
        <time>2023-08-15T16:08:42Z</time>
      </trkpt>
      <trkpt lat="42.81982" lon="2.03291">
        <ele>858.7</ele>
        <time>2023-08-15T16:08:46Z</time>
      </trkpt>
      <trkpt lat="42.81963" lon="2.03287">
        <ele>858.2</ele>
        <time>2023-08-15T16:08:49Z</time>
      </trkpt>
      <trkpt lat="42.81939" lon="2.03284">
        <ele>856.4</ele>
        <time>2023-08-15T16:08:53Z</time>
      </trkpt>
      <trkpt lat="42.8192" lon="2.03286">
        <ele>854.8</ele>
        <time>2023-08-15T16:08:56Z</time>
      </trkpt>
      <trkpt lat="42.81903" lon="2.03303">
        <ele>852</ele>
        <time>2023-08-15T16:09:00Z</time>
      </trkpt>
      <trkpt lat="42.81891" lon="2.03328">
        <ele>850.6</ele>
        <time>2023-08-15T16:09:04Z</time>
      </trkpt>
      <trkpt lat="42.81883" lon="2.03358">
        <ele>849.6</ele>
        <time>2023-08-15T16:09:08Z</time>
      </trkpt>
      <trkpt lat="42.81883" lon="2.03391">
        <ele>848.5</ele>
        <time>2023-08-15T16:09:12Z</time>
      </trkpt>
      <trkpt lat="42.81881" lon="2.03414">
        <ele>847.5</ele>
        <time>2023-08-15T16:09:15Z</time>
      </trkpt>
      <trkpt lat="42.81878" lon="2.03443">
        <ele>845.4</ele>
        <time>2023-08-15T16:09:19Z</time>
      </trkpt>
      <trkpt lat="42.81875" lon="2.03464">
        <ele>844.6</ele>
        <time>2023-08-15T16:09:22Z</time>
      </trkpt>
      <trkpt lat="42.81871" lon="2.03485">
        <ele>844</ele>
        <time>2023-08-15T16:09:25Z</time>
      </trkpt>
      <trkpt lat="42.81861" lon="2.03513">
        <ele>841.8</ele>
        <time>2023-08-15T16:09:29Z</time>
      </trkpt>
      <trkpt lat="42.81845" lon="2.03536">
        <ele>840.1</ele>
        <time>2023-08-15T16:09:33Z</time>
      </trkpt>
      <trkpt lat="42.81827" lon="2.03552">
        <ele>839.1</ele>
        <time>2023-08-15T16:09:36Z</time>
      </trkpt>
      <trkpt lat="42.81809" lon="2.03572">
        <ele>838.3</ele>
        <time>2023-08-15T16:09:39Z</time>
      </trkpt>
      <trkpt lat="42.8179" lon="2.03599">
        <ele>836.5</ele>
        <time>2023-08-15T16:09:43Z</time>
      </trkpt>
      <trkpt lat="42.81772" lon="2.03625">
        <ele>835.2</ele>
        <time>2023-08-15T16:09:47Z</time>
      </trkpt>
      <trkpt lat="42.81752" lon="2.0365">
        <ele>833.4</ele>
        <time>2023-08-15T16:09:51Z</time>
      </trkpt>
      <trkpt lat="42.81738" lon="2.0367">
        <ele>832.4</ele>
        <time>2023-08-15T16:09:54Z</time>
      </trkpt>
      <trkpt lat="42.81722" lon="2.03699">
        <ele>830.2</ele>
        <time>2023-08-15T16:09:58Z</time>
      </trkpt>
      <trkpt lat="42.81707" lon="2.03729">
        <ele>827.8</ele>
        <time>2023-08-15T16:10:02Z</time>
      </trkpt>
      <trkpt lat="42.8169" lon="2.03744">
        <ele>826.4</ele>
        <time>2023-08-15T16:10:05Z</time>
      </trkpt>
      <trkpt lat="42.81671" lon="2.03748">
        <ele>825.5</ele>
        <time>2023-08-15T16:10:08Z</time>
      </trkpt>
      <trkpt lat="42.81651" lon="2.0374">
        <ele>824.3</ele>
        <time>2023-08-15T16:10:11Z</time>
      </trkpt>
      <trkpt lat="42.81627" lon="2.03726">
        <ele>823</ele>
        <time>2023-08-15T16:10:15Z</time>
      </trkpt>
      <trkpt lat="42.81602" lon="2.03713">
        <ele>821.5</ele>
        <time>2023-08-15T16:10:19Z</time>
      </trkpt>
      <trkpt lat="42.81578" lon="2.03701">
        <ele>819.3</ele>
        <time>2023-08-15T16:10:23Z</time>
      </trkpt>
      <trkpt lat="42.81558" lon="2.03695">
        <ele>817.7</ele>
        <time>2023-08-15T16:10:26Z</time>
      </trkpt>
      <trkpt lat="42.81531" lon="2.03691">
        <ele>816.3</ele>
        <time>2023-08-15T16:10:30Z</time>
      </trkpt>
      <trkpt lat="42.81503" lon="2.03694">
        <ele>813.9</ele>
        <time>2023-08-15T16:10:34Z</time>
      </trkpt>
      <trkpt lat="42.81482" lon="2.03692">
        <ele>813</ele>
        <time>2023-08-15T16:10:37Z</time>
      </trkpt>
      <trkpt lat="42.81463" lon="2.03683">
        <ele>811.5</ele>
        <time>2023-08-15T16:10:40Z</time>
      </trkpt>
      <trkpt lat="42.81438" lon="2.03669">
        <ele>810.4</ele>
        <time>2023-08-15T16:10:44Z</time>
      </trkpt>
      <trkpt lat="42.81416" lon="2.0365">
        <ele>808.6</ele>
        <time>2023-08-15T16:10:48Z</time>
      </trkpt>
      <trkpt lat="42.81402" lon="2.03632">
        <ele>807.3</ele>
        <time>2023-08-15T16:10:51Z</time>
      </trkpt>
      <trkpt lat="42.81387" lon="2.03615">
        <ele>805.8</ele>
        <time>2023-08-15T16:10:54Z</time>
      </trkpt>
      <trkpt lat="42.81365" lon="2.03597">
        <ele>804</ele>
        <time>2023-08-15T16:10:58Z</time>
      </trkpt>
      <trkpt lat="42.81348" lon="2.03587">
        <ele>802.7</ele>
        <time>2023-08-15T16:11:01Z</time>
      </trkpt>
      <trkpt lat="42.81326" lon="2.03578">
        <ele>801.4</ele>
        <time>2023-08-15T16:11:05Z</time>
      </trkpt>
      <trkpt lat="42.81315" lon="2.03575">
        <ele>800.1</ele>
        <time>2023-08-15T16:11:08Z</time>
      </trkpt>
      <trkpt lat="42.81295" lon="2.03562">
        <ele>800</ele>
        <time>2023-08-15T16:11:12Z</time>
      </trkpt>
      <trkpt lat="42.81279" lon="2.03546">
        <ele>800.4</ele>
        <time>2023-08-15T16:11:15Z</time>
      </trkpt>
      <trkpt lat="42.81252" lon="2.03526">
        <ele>801.2</ele>
        <time>2023-08-15T16:11:19Z</time>
      </trkpt>
      <trkpt lat="42.81233" lon="2.03516">
        <ele>801</ele>
        <time>2023-08-15T16:11:22Z</time>
      </trkpt>
      <trkpt lat="42.81215" lon="2.03508">
        <ele>801</ele>
        <time>2023-08-15T16:11:25Z</time>
      </trkpt>
      <trkpt lat="42.8119" lon="2.03497">
        <ele>800.7</ele>
        <time>2023-08-15T16:11:29Z</time>
      </trkpt>
      <trkpt lat="42.81164" lon="2.03487">
        <ele>800.7</ele>
        <time>2023-08-15T16:11:33Z</time>
      </trkpt>
      <trkpt lat="42.81145" lon="2.03478">
        <ele>800.7</ele>
        <time>2023-08-15T16:11:36Z</time>
      </trkpt>
      <trkpt lat="42.81118" lon="2.0347">
        <ele>800.8</ele>
        <time>2023-08-15T16:11:40Z</time>
      </trkpt>
      <trkpt lat="42.81092" lon="2.03461">
        <ele>801.2</ele>
        <time>2023-08-15T16:11:44Z</time>
      </trkpt>
      <trkpt lat="42.81072" lon="2.03456">
        <ele>801.8</ele>
        <time>2023-08-15T16:11:47Z</time>
      </trkpt>
      <trkpt lat="42.81053" lon="2.03451">
        <ele>802.5</ele>
        <time>2023-08-15T16:11:50Z</time>
      </trkpt>
      <trkpt lat="42.81027" lon="2.03444">
        <ele>803</ele>
        <time>2023-08-15T16:11:54Z</time>
      </trkpt>
      <trkpt lat="42.81008" lon="2.03439">
        <ele>803.5</ele>
        <time>2023-08-15T16:11:57Z</time>
      </trkpt>
      <trkpt lat="42.80986" lon="2.03422">
        <ele>804.1</ele>
        <time>2023-08-15T16:12:01Z</time>
      </trkpt>
      <trkpt lat="42.80979" lon="2.03397">
        <ele>805.5</ele>
        <time>2023-08-15T16:12:04Z</time>
      </trkpt>
      <trkpt lat="42.80976" lon="2.0336">
        <ele>805.5</ele>
        <time>2023-08-15T16:12:08Z</time>
      </trkpt>
      <trkpt lat="42.80974" lon="2.03334">
        <ele>805.9</ele>
        <time>2023-08-15T16:12:11Z</time>
      </trkpt>
      <trkpt lat="42.80966" lon="2.03309">
        <ele>806</ele>
        <time>2023-08-15T16:12:14Z</time>
      </trkpt>
      <trkpt lat="42.80949" lon="2.03284">
        <ele>806.5</ele>
        <time>2023-08-15T16:12:18Z</time>
      </trkpt>
      <trkpt lat="42.80934" lon="2.03267">
        <ele>807.2</ele>
        <time>2023-08-15T16:12:21Z</time>
      </trkpt>
      <trkpt lat="42.80916" lon="2.03244">
        <ele>807.8</ele>
        <time>2023-08-15T16:12:25Z</time>
      </trkpt>
      <trkpt lat="42.80901" lon="2.03231">
        <ele>808.5</ele>
        <time>2023-08-15T16:12:29Z</time>
      </trkpt>
      <trkpt lat="42.80886" lon="2.03228">
        <ele>809.7</ele>
        <time>2023-08-15T16:12:32Z</time>
      </trkpt>
      <trkpt lat="42.80875" lon="2.03236">
        <ele>810.2</ele>
        <time>2023-08-15T16:12:36Z</time>
      </trkpt>
      <trkpt lat="42.80876" lon="2.03259">
        <ele>812</ele>
        <time>2023-08-15T16:12:40Z</time>
      </trkpt>
      <trkpt lat="42.80886" lon="2.03275">
        <ele>813.7</ele>
        <time>2023-08-15T16:12:44Z</time>
      </trkpt>
      <trkpt lat="42.80894" lon="2.03288">
        <ele>815.5</ele>
        <time>2023-08-15T16:12:47Z</time>
      </trkpt>
      <trkpt lat="42.80909" lon="2.03302">
        <ele>817.5</ele>
        <time>2023-08-15T16:12:51Z</time>
      </trkpt>
      <trkpt lat="42.80922" lon="2.03322">
        <ele>819.5</ele>
        <time>2023-08-15T16:12:55Z</time>
      </trkpt>
      <trkpt lat="42.80925" lon="2.03345">
        <ele>821.3</ele>
        <time>2023-08-15T16:12:59Z</time>
      </trkpt>
      <trkpt lat="42.80921" lon="2.03358">
        <ele>822.9</ele>
        <time>2023-08-15T16:13:02Z</time>
      </trkpt>
      <trkpt lat="42.80917" lon="2.0337">
        <ele>824.3</ele>
        <time>2023-08-15T16:13:05Z</time>
      </trkpt>
      <trkpt lat="42.80905" lon="2.03379">
        <ele>826.1</ele>
        <time>2023-08-15T16:13:08Z</time>
      </trkpt>
      <trkpt lat="42.80895" lon="2.03374">
        <ele>828</ele>
        <time>2023-08-15T16:13:11Z</time>
      </trkpt>
      <trkpt lat="42.80883" lon="2.0336">
        <ele>830.6</ele>
        <time>2023-08-15T16:13:15Z</time>
      </trkpt>
      <trkpt lat="42.80871" lon="2.03348">
        <ele>832</ele>
        <time>2023-08-15T16:13:18Z</time>
      </trkpt>
      <trkpt lat="42.8086" lon="2.03339">
        <ele>833.4</ele>
        <time>2023-08-15T16:13:21Z</time>
      </trkpt>
      <trkpt lat="42.80849" lon="2.03332">
        <ele>835</ele>
        <time>2023-08-15T16:13:24Z</time>
      </trkpt>
      <trkpt lat="42.80827" lon="2.03331">
        <ele>837.6</ele>
        <time>2023-08-15T16:13:28Z</time>
      </trkpt>
      <trkpt lat="42.80812" lon="2.03336">
        <ele>840.1</ele>
        <time>2023-08-15T16:13:31Z</time>
      </trkpt>
      <trkpt lat="42.80792" lon="2.03346">
        <ele>842.2</ele>
        <time>2023-08-15T16:13:35Z</time>
      </trkpt>
      <trkpt lat="42.80778" lon="2.03353">
        <ele>844.1</ele>
        <time>2023-08-15T16:13:38Z</time>
      </trkpt>
      <trkpt lat="42.80763" lon="2.03362">
        <ele>846.6</ele>
        <time>2023-08-15T16:13:41Z</time>
      </trkpt>
      <trkpt lat="42.80741" lon="2.03372">
        <ele>849.5</ele>
        <time>2023-08-15T16:13:45Z</time>
      </trkpt>
      <trkpt lat="42.80722" lon="2.03386">
        <ele>851.9</ele>
        <time>2023-08-15T16:13:49Z</time>
      </trkpt>
      <trkpt lat="42.80709" lon="2.03399">
        <ele>853.6</ele>
        <time>2023-08-15T16:13:52Z</time>
      </trkpt>
      <trkpt lat="42.80688" lon="2.03408">
        <ele>856.1</ele>
        <time>2023-08-15T16:13:56Z</time>
      </trkpt>
      <trkpt lat="42.80668" lon="2.03416">
        <ele>859.6</ele>
        <time>2023-08-15T16:14:00Z</time>
      </trkpt>
      <trkpt lat="42.80648" lon="2.03426">
        <ele>861.9</ele>
        <time>2023-08-15T16:14:04Z</time>
      </trkpt>
      <trkpt lat="42.80629" lon="2.03438">
        <ele>864.5</ele>
        <time>2023-08-15T16:14:08Z</time>
      </trkpt>
      <trkpt lat="42.80616" lon="2.0345">
        <ele>866.6</ele>
        <time>2023-08-15T16:14:11Z</time>
      </trkpt>
      <trkpt lat="42.806" lon="2.03457">
        <ele>868.6</ele>
        <time>2023-08-15T16:14:14Z</time>
      </trkpt>
      <trkpt lat="42.80581" lon="2.03465">
        <ele>870.8</ele>
        <time>2023-08-15T16:14:18Z</time>
      </trkpt>
      <trkpt lat="42.80571" lon="2.03491">
        <ele>873.6</ele>
        <time>2023-08-15T16:14:22Z</time>
      </trkpt>
      <trkpt lat="42.80559" lon="2.03517">
        <ele>876</ele>
        <time>2023-08-15T16:14:26Z</time>
      </trkpt>
      <trkpt lat="42.8055" lon="2.03536">
        <ele>878.1</ele>
        <time>2023-08-15T16:14:29Z</time>
      </trkpt>
      <trkpt lat="42.80539" lon="2.03561">
        <ele>880.7</ele>
        <time>2023-08-15T16:14:33Z</time>
      </trkpt>
      <trkpt lat="42.80526" lon="2.03584">
        <ele>883.3</ele>
        <time>2023-08-15T16:14:37Z</time>
      </trkpt>
      <trkpt lat="42.80512" lon="2.03594">
        <ele>885.7</ele>
        <time>2023-08-15T16:14:40Z</time>
      </trkpt>
      <trkpt lat="42.80493" lon="2.03604">
        <ele>888.3</ele>
        <time>2023-08-15T16:14:44Z</time>
      </trkpt>
      <trkpt lat="42.80472" lon="2.03613">
        <ele>889.9</ele>
        <time>2023-08-15T16:14:48Z</time>
      </trkpt>
      <trkpt lat="42.80453" lon="2.03624">
        <ele>891.9</ele>
        <time>2023-08-15T16:14:52Z</time>
      </trkpt>
      <trkpt lat="42.80442" lon="2.03652">
        <ele>893.9</ele>
        <time>2023-08-15T16:14:56Z</time>
      </trkpt>
      <trkpt lat="42.80442" lon="2.03678">
        <ele>895.5</ele>
        <time>2023-08-15T16:14:59Z</time>
      </trkpt>
      <trkpt lat="42.80439" lon="2.03701">
        <ele>897.1</ele>
        <time>2023-08-15T16:15:02Z</time>
      </trkpt>
      <trkpt lat="42.8043" lon="2.0373">
        <ele>898.7</ele>
        <time>2023-08-15T16:15:06Z</time>
      </trkpt>
      <trkpt lat="42.8042" lon="2.03758">
        <ele>901</ele>
        <time>2023-08-15T16:15:10Z</time>
      </trkpt>
      <trkpt lat="42.80409" lon="2.03783">
        <ele>902.6</ele>
        <time>2023-08-15T16:15:14Z</time>
      </trkpt>
      <trkpt lat="42.80398" lon="2.03809">
        <ele>904.5</ele>
        <time>2023-08-15T16:15:18Z</time>
      </trkpt>
      <trkpt lat="42.80388" lon="2.03836">
        <ele>906.2</ele>
        <time>2023-08-15T16:15:22Z</time>
      </trkpt>
      <trkpt lat="42.80375" lon="2.03862">
        <ele>908.2</ele>
        <time>2023-08-15T16:15:26Z</time>
      </trkpt>
      <trkpt lat="42.80365" lon="2.0388">
        <ele>909.7</ele>
        <time>2023-08-15T16:15:29Z</time>
      </trkpt>
      <trkpt lat="42.80355" lon="2.03897">
        <ele>911.4</ele>
        <time>2023-08-15T16:15:32Z</time>
      </trkpt>
      <trkpt lat="42.80339" lon="2.03921">
        <ele>913.5</ele>
        <time>2023-08-15T16:15:36Z</time>
      </trkpt>
      <trkpt lat="42.80329" lon="2.03942">
        <ele>915.3</ele>
        <time>2023-08-15T16:15:39Z</time>
      </trkpt>
      <trkpt lat="42.8032" lon="2.03962">
        <ele>917</ele>
        <time>2023-08-15T16:15:42Z</time>
      </trkpt>
      <trkpt lat="42.80308" lon="2.03989">
        <ele>918.6</ele>
        <time>2023-08-15T16:15:46Z</time>
      </trkpt>
      <trkpt lat="42.80298" lon="2.04009">
        <ele>919.8</ele>
        <time>2023-08-15T16:15:49Z</time>
      </trkpt>
      <trkpt lat="42.80283" lon="2.04032">
        <ele>921.6</ele>
        <time>2023-08-15T16:15:53Z</time>
      </trkpt>
      <trkpt lat="42.80268" lon="2.04056">
        <ele>923.4</ele>
        <time>2023-08-15T16:15:57Z</time>
      </trkpt>
      <trkpt lat="42.80251" lon="2.0408">
        <ele>926.4</ele>
        <time>2023-08-15T16:16:01Z</time>
      </trkpt>
      <trkpt lat="42.80236" lon="2.04102">
        <ele>928.4</ele>
        <time>2023-08-15T16:16:05Z</time>
      </trkpt>
      <trkpt lat="42.80223" lon="2.04119">
        <ele>930.3</ele>
        <time>2023-08-15T16:16:08Z</time>
      </trkpt>
      <trkpt lat="42.80209" lon="2.04134">
        <ele>931.5</ele>
        <time>2023-08-15T16:16:11Z</time>
      </trkpt>
      <trkpt lat="42.80195" lon="2.04147">
        <ele>932.6</ele>
        <time>2023-08-15T16:16:14Z</time>
      </trkpt>
      <trkpt lat="42.80178" lon="2.04171">
        <ele>934.2</ele>
        <time>2023-08-15T16:16:18Z</time>
      </trkpt>
      <trkpt lat="42.80161" lon="2.04193">
        <ele>936.4</ele>
        <time>2023-08-15T16:16:22Z</time>
      </trkpt>
      <trkpt lat="42.8015" lon="2.04208">
        <ele>938.2</ele>
        <time>2023-08-15T16:16:25Z</time>
      </trkpt>
      <trkpt lat="42.80141" lon="2.04236">
        <ele>940.2</ele>
        <time>2023-08-15T16:16:29Z</time>
      </trkpt>
      <trkpt lat="42.80138" lon="2.04265">
        <ele>942.2</ele>
        <time>2023-08-15T16:16:33Z</time>
      </trkpt>
      <trkpt lat="42.80134" lon="2.04285">
        <ele>944.8</ele>
        <time>2023-08-15T16:16:37Z</time>
      </trkpt>
      <trkpt lat="42.80121" lon="2.04304">
        <ele>946.4</ele>
        <time>2023-08-15T16:16:41Z</time>
      </trkpt>
      <trkpt lat="42.8011" lon="2.04325">
        <ele>947.9</ele>
        <time>2023-08-15T16:16:45Z</time>
      </trkpt>
      <trkpt lat="42.80099" lon="2.04351">
        <ele>949</ele>
        <time>2023-08-15T16:16:48Z</time>
      </trkpt>
      <trkpt lat="42.80094" lon="2.04375">
        <ele>950.9</ele>
        <time>2023-08-15T16:16:51Z</time>
      </trkpt>
      <trkpt lat="42.80093" lon="2.04408">
        <ele>953.2</ele>
        <time>2023-08-15T16:16:55Z</time>
      </trkpt>
      <trkpt lat="42.80089" lon="2.04437">
        <ele>955.9</ele>
        <time>2023-08-15T16:16:59Z</time>
      </trkpt>
      <trkpt lat="42.80085" lon="2.04459">
        <ele>957</ele>
        <time>2023-08-15T16:17:02Z</time>
      </trkpt>
      <trkpt lat="42.80081" lon="2.04481">
        <ele>958.8</ele>
        <time>2023-08-15T16:17:05Z</time>
      </trkpt>
      <trkpt lat="42.80079" lon="2.04502">
        <ele>959.4</ele>
        <time>2023-08-15T16:17:08Z</time>
      </trkpt>
      <trkpt lat="42.80081" lon="2.04529">
        <ele>961.3</ele>
        <time>2023-08-15T16:17:12Z</time>
      </trkpt>
      <trkpt lat="42.80085" lon="2.04558">
        <ele>963.1</ele>
        <time>2023-08-15T16:17:16Z</time>
      </trkpt>
      <trkpt lat="42.8008" lon="2.04578">
        <ele>965</ele>
        <time>2023-08-15T16:17:19Z</time>
      </trkpt>
      <trkpt lat="42.8007" lon="2.04585">
        <ele>967.9</ele>
        <time>2023-08-15T16:17:22Z</time>
      </trkpt>
      <trkpt lat="42.80058" lon="2.04591">
        <ele>968.8</ele>
        <time>2023-08-15T16:17:26Z</time>
      </trkpt>
      <trkpt lat="42.80048" lon="2.04595">
        <ele>970.6</ele>
        <time>2023-08-15T16:17:29Z</time>
      </trkpt>
      <trkpt lat="42.80035" lon="2.04604">
        <ele>972.4</ele>
        <time>2023-08-15T16:17:32Z</time>
      </trkpt>
      <trkpt lat="42.80019" lon="2.04622">
        <ele>974</ele>
        <time>2023-08-15T16:17:35Z</time>
      </trkpt>
      <trkpt lat="42.80004" lon="2.04643">
        <ele>974.7</ele>
        <time>2023-08-15T16:17:39Z</time>
      </trkpt>
      <trkpt lat="42.79988" lon="2.04669">
        <ele>977.1</ele>
        <time>2023-08-15T16:17:42Z</time>
      </trkpt>
      <trkpt lat="42.79975" lon="2.04696">
        <ele>978.4</ele>
        <time>2023-08-15T16:17:46Z</time>
      </trkpt>
      <trkpt lat="42.79972" lon="2.0472">
        <ele>980</ele>
        <time>2023-08-15T16:17:49Z</time>
      </trkpt>
      <trkpt lat="42.79974" lon="2.04754">
        <ele>982.1</ele>
        <time>2023-08-15T16:17:53Z</time>
      </trkpt>
      <trkpt lat="42.79968" lon="2.04786">
        <ele>984.5</ele>
        <time>2023-08-15T16:17:57Z</time>
      </trkpt>
      <trkpt lat="42.79953" lon="2.04814">
        <ele>986.2</ele>
        <time>2023-08-15T16:18:01Z</time>
      </trkpt>
      <trkpt lat="42.79936" lon="2.04836">
        <ele>986.6</ele>
        <time>2023-08-15T16:18:05Z</time>
      </trkpt>
      <trkpt lat="42.79921" lon="2.04856">
        <ele>987</ele>
        <time>2023-08-15T16:18:09Z</time>
      </trkpt>
      <trkpt lat="42.79907" lon="2.04877">
        <ele>988.6</ele>
        <time>2023-08-15T16:18:13Z</time>
      </trkpt>
      <trkpt lat="42.79897" lon="2.04893">
        <ele>989.1</ele>
        <time>2023-08-15T16:18:16Z</time>
      </trkpt>
      <trkpt lat="42.79888" lon="2.04918">
        <ele>991.3</ele>
        <time>2023-08-15T16:18:20Z</time>
      </trkpt>
      <trkpt lat="42.79891" lon="2.04947">
        <ele>991.8</ele>
        <time>2023-08-15T16:18:24Z</time>
      </trkpt>
      <trkpt lat="42.79899" lon="2.04976">
        <ele>992.6</ele>
        <time>2023-08-15T16:18:28Z</time>
      </trkpt>
      <trkpt lat="42.79903" lon="2.04996">
        <ele>994</ele>
        <time>2023-08-15T16:18:31Z</time>
      </trkpt>
      <trkpt lat="42.79907" lon="2.05017">
        <ele>993.8</ele>
        <time>2023-08-15T16:18:34Z</time>
      </trkpt>
      <trkpt lat="42.79912" lon="2.05047">
        <ele>993.8</ele>
        <time>2023-08-15T16:18:38Z</time>
      </trkpt>
      <trkpt lat="42.79916" lon="2.05077">
        <ele>995.4</ele>
        <time>2023-08-15T16:18:42Z</time>
      </trkpt>
      <trkpt lat="42.79918" lon="2.051">
        <ele>995.8</ele>
        <time>2023-08-15T16:18:45Z</time>
      </trkpt>
      <trkpt lat="42.79919" lon="2.05121">
        <ele>997.8</ele>
        <time>2023-08-15T16:18:48Z</time>
      </trkpt>
      <trkpt lat="42.79919" lon="2.05152">
        <ele>997.9</ele>
        <time>2023-08-15T16:18:52Z</time>
      </trkpt>
      <trkpt lat="42.79918" lon="2.05175">
        <ele>998.8</ele>
        <time>2023-08-15T16:18:55Z</time>
      </trkpt>
      <trkpt lat="42.79919" lon="2.05204">
        <ele>999.2</ele>
        <time>2023-08-15T16:18:59Z</time>
      </trkpt>
      <trkpt lat="42.79922" lon="2.05227">
        <ele>998.7</ele>
        <time>2023-08-15T16:19:02Z</time>
      </trkpt>
      <trkpt lat="42.79928" lon="2.05259">
        <ele>998</ele>
        <time>2023-08-15T16:19:06Z</time>
      </trkpt>
      <trkpt lat="42.79932" lon="2.05285">
        <ele>997.6</ele>
        <time>2023-08-15T16:19:09Z</time>
      </trkpt>
      <trkpt lat="42.79932" lon="2.05322">
        <ele>997.4</ele>
        <time>2023-08-15T16:19:13Z</time>
      </trkpt>
      <trkpt lat="42.79929" lon="2.05353">
        <ele>997.3</ele>
        <time>2023-08-15T16:19:16Z</time>
      </trkpt>
      <trkpt lat="42.79925" lon="2.05389">
        <ele>996.2</ele>
        <time>2023-08-15T16:19:20Z</time>
      </trkpt>
      <trkpt lat="42.79922" lon="2.05414">
        <ele>995.2</ele>
        <time>2023-08-15T16:19:23Z</time>
      </trkpt>
      <trkpt lat="42.79919" lon="2.0545">
        <ele>994.3</ele>
        <time>2023-08-15T16:19:27Z</time>
      </trkpt>
      <trkpt lat="42.79916" lon="2.05486">
        <ele>993.1</ele>
        <time>2023-08-15T16:19:31Z</time>
      </trkpt>
      <trkpt lat="42.79913" lon="2.05522">
        <ele>991.5</ele>
        <time>2023-08-15T16:19:35Z</time>
      </trkpt>
      <trkpt lat="42.79911" lon="2.05549">
        <ele>988.8</ele>
        <time>2023-08-15T16:19:38Z</time>
      </trkpt>
      <trkpt lat="42.79905" lon="2.05585">
        <ele>989.7</ele>
        <time>2023-08-15T16:19:42Z</time>
      </trkpt>
      <trkpt lat="42.79897" lon="2.05619">
        <ele>989.3</ele>
        <time>2023-08-15T16:19:46Z</time>
      </trkpt>
      <trkpt lat="42.79889" lon="2.05654">
        <ele>988.7</ele>
        <time>2023-08-15T16:19:50Z</time>
      </trkpt>
      <trkpt lat="42.79882" lon="2.05689">
        <ele>988.1</ele>
        <time>2023-08-15T16:19:54Z</time>
      </trkpt>
      <trkpt lat="42.79876" lon="2.05723">
        <ele>987.1</ele>
        <time>2023-08-15T16:19:58Z</time>
      </trkpt>
      <trkpt lat="42.79872" lon="2.0575">
        <ele>986</ele>
        <time>2023-08-15T16:20:01Z</time>
      </trkpt>
      <trkpt lat="42.79869" lon="2.05786">
        <ele>984.3</ele>
        <time>2023-08-15T16:20:05Z</time>
      </trkpt>
      <trkpt lat="42.79866" lon="2.05821">
        <ele>981.6</ele>
        <time>2023-08-15T16:20:09Z</time>
      </trkpt>
      <trkpt lat="42.79863" lon="2.05857">
        <ele>983</ele>
        <time>2023-08-15T16:20:13Z</time>
      </trkpt>
      <trkpt lat="42.79864" lon="2.05893">
        <ele>983</ele>
        <time>2023-08-15T16:20:17Z</time>
      </trkpt>
      <trkpt lat="42.79872" lon="2.05928">
        <ele>982.6</ele>
        <time>2023-08-15T16:20:21Z</time>
      </trkpt>
      <trkpt lat="42.79882" lon="2.05951">
        <ele>982.8</ele>
        <time>2023-08-15T16:20:24Z</time>
      </trkpt>
      <trkpt lat="42.79896" lon="2.05982">
        <ele>981.5</ele>
        <time>2023-08-15T16:20:28Z</time>
      </trkpt>
      <trkpt lat="42.79905" lon="2.06006">
        <ele>981</ele>
        <time>2023-08-15T16:20:31Z</time>
      </trkpt>
      <trkpt lat="42.79912" lon="2.0604">
        <ele>978.9</ele>
        <time>2023-08-15T16:20:35Z</time>
      </trkpt>
      <trkpt lat="42.79917" lon="2.06075">
        <ele>978.2</ele>
        <time>2023-08-15T16:20:39Z</time>
      </trkpt>
      <trkpt lat="42.79919" lon="2.06102">
        <ele>980.5</ele>
        <time>2023-08-15T16:20:42Z</time>
      </trkpt>
      <trkpt lat="42.79925" lon="2.06137">
        <ele>980.4</ele>
        <time>2023-08-15T16:20:46Z</time>
      </trkpt>
      <trkpt lat="42.79934" lon="2.06162">
        <ele>980.4</ele>
        <time>2023-08-15T16:20:49Z</time>
      </trkpt>
      <trkpt lat="42.79946" lon="2.06194">
        <ele>979.8</ele>
        <time>2023-08-15T16:20:53Z</time>
      </trkpt>
      <trkpt lat="42.79949" lon="2.06231">
        <ele>979</ele>
        <time>2023-08-15T16:20:57Z</time>
      </trkpt>
      <trkpt lat="42.79945" lon="2.06265">
        <ele>978.9</ele>
        <time>2023-08-15T16:21:01Z</time>
      </trkpt>
      <trkpt lat="42.79943" lon="2.06292">
        <ele>976.8</ele>
        <time>2023-08-15T16:21:04Z</time>
      </trkpt>
      <trkpt lat="42.79939" lon="2.06327">
        <ele>975.7</ele>
        <time>2023-08-15T16:21:08Z</time>
      </trkpt>
      <trkpt lat="42.79936" lon="2.06363">
        <ele>977.8</ele>
        <time>2023-08-15T16:21:12Z</time>
      </trkpt>
      <trkpt lat="42.79931" lon="2.06398">
        <ele>977.9</ele>
        <time>2023-08-15T16:21:16Z</time>
      </trkpt>
      <trkpt lat="42.79927" lon="2.06433">
        <ele>978.1</ele>
        <time>2023-08-15T16:21:20Z</time>
      </trkpt>
      <trkpt lat="42.79924" lon="2.0646">
        <ele>977.6</ele>
        <time>2023-08-15T16:21:23Z</time>
      </trkpt>
      <trkpt lat="42.79922" lon="2.06497">
        <ele>976.9</ele>
        <time>2023-08-15T16:21:27Z</time>
      </trkpt>
      <trkpt lat="42.79919" lon="2.06532">
        <ele>975.5</ele>
        <time>2023-08-15T16:21:31Z</time>
      </trkpt>
      <trkpt lat="42.79916" lon="2.06558">
        <ele>973.4</ele>
        <time>2023-08-15T16:21:34Z</time>
      </trkpt>
      <trkpt lat="42.79913" lon="2.06586">
        <ele>973.1</ele>
        <time>2023-08-15T16:21:37Z</time>
      </trkpt>
      <trkpt lat="42.79909" lon="2.06622">
        <ele>974</ele>
        <time>2023-08-15T16:21:41Z</time>
      </trkpt>
      <trkpt lat="42.79903" lon="2.06658">
        <ele>972.9</ele>
        <time>2023-08-15T16:21:45Z</time>
      </trkpt>
      <trkpt lat="42.79898" lon="2.06694">
        <ele>971.9</ele>
        <time>2023-08-15T16:21:49Z</time>
      </trkpt>
      <trkpt lat="42.79896" lon="2.06728">
        <ele>970.5</ele>
        <time>2023-08-15T16:21:53Z</time>
      </trkpt>
      <trkpt lat="42.79892" lon="2.06755">
        <ele>968.2</ele>
        <time>2023-08-15T16:21:57Z</time>
      </trkpt>
      <trkpt lat="42.79886" lon="2.06773">
        <ele>966</ele>
        <time>2023-08-15T16:22:01Z</time>
      </trkpt>
      <trkpt lat="42.79878" lon="2.06793">
        <ele>963.7</ele>
        <time>2023-08-15T16:22:04Z</time>
      </trkpt>
      <trkpt lat="42.79865" lon="2.06814">
        <ele>964.8</ele>
        <time>2023-08-15T16:22:08Z</time>
      </trkpt>
      <trkpt lat="42.79862" lon="2.06842">
        <ele>962.7</ele>
        <time>2023-08-15T16:22:12Z</time>
      </trkpt>
      <trkpt lat="42.79862" lon="2.06862">
        <ele>964.4</ele>
        <time>2023-08-15T16:22:16Z</time>
      </trkpt>
      <trkpt lat="42.79863" lon="2.06874">
        <ele>964.8</ele>
        <time>2023-08-15T16:22:19Z</time>
      </trkpt>
      <trkpt lat="42.7986" lon="2.06894">
        <ele>965.8</ele>
        <time>2023-08-15T16:22:23Z</time>
      </trkpt>
      <trkpt lat="42.79857" lon="2.06911">
        <ele>965.9</ele>
        <time>2023-08-15T16:22:26Z</time>
      </trkpt>
      <trkpt lat="42.79853" lon="2.06929">
        <ele>966.4</ele>
        <time>2023-08-15T16:22:29Z</time>
      </trkpt>
      <trkpt lat="42.79847" lon="2.06953">
        <ele>965.6</ele>
        <time>2023-08-15T16:22:33Z</time>
      </trkpt>
      <trkpt lat="42.79842" lon="2.06968">
        <ele>968.9</ele>
        <time>2023-08-15T16:22:37Z</time>
      </trkpt>
      <trkpt lat="42.79839" lon="2.06981">
        <ele>969.9</ele>
        <time>2023-08-15T16:22:40Z</time>
      </trkpt>
      <trkpt lat="42.79834" lon="2.06998">
        <ele>969.9</ele>
        <time>2023-08-15T16:22:43Z</time>
      </trkpt>
      <trkpt lat="42.79827" lon="2.07025">
        <ele>970.7</ele>
        <time>2023-08-15T16:22:47Z</time>
      </trkpt>
      <trkpt lat="42.79821" lon="2.07044">
        <ele>971.4</ele>
        <time>2023-08-15T16:22:50Z</time>
      </trkpt>
      <trkpt lat="42.79818" lon="2.07075">
        <ele>972.1</ele>
        <time>2023-08-15T16:22:54Z</time>
      </trkpt>
      <trkpt lat="42.79814" lon="2.07108">
        <ele>971.1</ele>
        <time>2023-08-15T16:22:58Z</time>
      </trkpt>
      <trkpt lat="42.79808" lon="2.07142">
        <ele>969.3</ele>
        <time>2023-08-15T16:23:02Z</time>
      </trkpt>
      <trkpt lat="42.79801" lon="2.07183">
        <ele>971.9</ele>
        <time>2023-08-15T16:23:06Z</time>
      </trkpt>
      <trkpt lat="42.79795" lon="2.07219">
        <ele>968.7</ele>
        <time>2023-08-15T16:23:10Z</time>
      </trkpt>
      <trkpt lat="42.79789" lon="2.07254">
        <ele>968.8</ele>
        <time>2023-08-15T16:23:14Z</time>
      </trkpt>
      <trkpt lat="42.79786" lon="2.07289">
        <ele>966.8</ele>
        <time>2023-08-15T16:23:18Z</time>
      </trkpt>
      <trkpt lat="42.79784" lon="2.07316">
        <ele>966.4</ele>
        <time>2023-08-15T16:23:21Z</time>
      </trkpt>
      <trkpt lat="42.7978" lon="2.07343">
        <ele>965.5</ele>
        <time>2023-08-15T16:23:24Z</time>
      </trkpt>
      <trkpt lat="42.79775" lon="2.0737">
        <ele>964.5</ele>
        <time>2023-08-15T16:23:27Z</time>
      </trkpt>
      <trkpt lat="42.79768" lon="2.07405">
        <ele>962.8</ele>
        <time>2023-08-15T16:23:31Z</time>
      </trkpt>
      <trkpt lat="42.79762" lon="2.07431">
        <ele>963.4</ele>
        <time>2023-08-15T16:23:34Z</time>
      </trkpt>
      <trkpt lat="42.79753" lon="2.07465">
        <ele>963.4</ele>
        <time>2023-08-15T16:23:38Z</time>
      </trkpt>
      <trkpt lat="42.79745" lon="2.07498">
        <ele>962.8</ele>
        <time>2023-08-15T16:23:42Z</time>
      </trkpt>
      <trkpt lat="42.79736" lon="2.07532">
        <ele>963.5</ele>
        <time>2023-08-15T16:23:46Z</time>
      </trkpt>
      <trkpt lat="42.79725" lon="2.07564">
        <ele>963.9</ele>
        <time>2023-08-15T16:23:50Z</time>
      </trkpt>
      <trkpt lat="42.79717" lon="2.07589">
        <ele>962.8</ele>
        <time>2023-08-15T16:23:53Z</time>
      </trkpt>
      <trkpt lat="42.79709" lon="2.07614">
        <ele>961.9</ele>
        <time>2023-08-15T16:23:56Z</time>
      </trkpt>
      <trkpt lat="42.797" lon="2.07649">
        <ele>959.7</ele>
        <time>2023-08-15T16:24:00Z</time>
      </trkpt>
      <trkpt lat="42.79694" lon="2.07674">
        <ele>960.3</ele>
        <time>2023-08-15T16:24:03Z</time>
      </trkpt>
      <trkpt lat="42.79689" lon="2.077">
        <ele>960.9</ele>
        <time>2023-08-15T16:24:06Z</time>
      </trkpt>
      <trkpt lat="42.79684" lon="2.07726">
        <ele>960.3</ele>
        <time>2023-08-15T16:24:09Z</time>
      </trkpt>
      <trkpt lat="42.79678" lon="2.07759">
        <ele>960</ele>
        <time>2023-08-15T16:24:13Z</time>
      </trkpt>
      <trkpt lat="42.79671" lon="2.07792">
        <ele>959.8</ele>
        <time>2023-08-15T16:24:17Z</time>
      </trkpt>
      <trkpt lat="42.79663" lon="2.07827">
        <ele>959.3</ele>
        <time>2023-08-15T16:24:21Z</time>
      </trkpt>
      <trkpt lat="42.79657" lon="2.07862">
        <ele>958.2</ele>
        <time>2023-08-15T16:24:25Z</time>
      </trkpt>
      <trkpt lat="42.79651" lon="2.07896">
        <ele>956.1</ele>
        <time>2023-08-15T16:24:29Z</time>
      </trkpt>
      <trkpt lat="42.79644" lon="2.07931">
        <ele>957</ele>
        <time>2023-08-15T16:24:33Z</time>
      </trkpt>
      <trkpt lat="42.7964" lon="2.07957">
        <ele>956.7</ele>
        <time>2023-08-15T16:24:36Z</time>
      </trkpt>
      <trkpt lat="42.79635" lon="2.07991">
        <ele>955.8</ele>
        <time>2023-08-15T16:24:40Z</time>
      </trkpt>
      <trkpt lat="42.7963" lon="2.08023">
        <ele>957.2</ele>
        <time>2023-08-15T16:24:44Z</time>
      </trkpt>
      <trkpt lat="42.79626" lon="2.0805">
        <ele>957.5</ele>
        <time>2023-08-15T16:24:47Z</time>
      </trkpt>
      <trkpt lat="42.79619" lon="2.08087">
        <ele>958</ele>
        <time>2023-08-15T16:24:51Z</time>
      </trkpt>
      <trkpt lat="42.79615" lon="2.08113">
        <ele>958.1</ele>
        <time>2023-08-15T16:24:54Z</time>
      </trkpt>
      <trkpt lat="42.79609" lon="2.08148">
        <ele>957.2</ele>
        <time>2023-08-15T16:24:58Z</time>
      </trkpt>
      <trkpt lat="42.79604" lon="2.08176">
        <ele>958.8</ele>
        <time>2023-08-15T16:25:01Z</time>
      </trkpt>
      <trkpt lat="42.79599" lon="2.08202">
        <ele>959.7</ele>
        <time>2023-08-15T16:25:04Z</time>
      </trkpt>
      <trkpt lat="42.79594" lon="2.08227">
        <ele>960.1</ele>
        <time>2023-08-15T16:25:07Z</time>
      </trkpt>
      <trkpt lat="42.79589" lon="2.08251">
        <ele>960.4</ele>
        <time>2023-08-15T16:25:10Z</time>
      </trkpt>
      <trkpt lat="42.79583" lon="2.08285">
        <ele>962.5</ele>
        <time>2023-08-15T16:25:14Z</time>
      </trkpt>
      <trkpt lat="42.79577" lon="2.08319">
        <ele>963.7</ele>
        <time>2023-08-15T16:25:18Z</time>
      </trkpt>
      <trkpt lat="42.79573" lon="2.08343">
        <ele>963.6</ele>
        <time>2023-08-15T16:25:21Z</time>
      </trkpt>
      <trkpt lat="42.79569" lon="2.08367">
        <ele>963.5</ele>
        <time>2023-08-15T16:25:24Z</time>
      </trkpt>
      <trkpt lat="42.79564" lon="2.08399">
        <ele>963.6</ele>
        <time>2023-08-15T16:25:28Z</time>
      </trkpt>
      <trkpt lat="42.79558" lon="2.08423">
        <ele>965.4</ele>
        <time>2023-08-15T16:25:31Z</time>
      </trkpt>
      <trkpt lat="42.79551" lon="2.08456">
        <ele>966.3</ele>
        <time>2023-08-15T16:25:35Z</time>
      </trkpt>
      <trkpt lat="42.79547" lon="2.0848">
        <ele>966.2</ele>
        <time>2023-08-15T16:25:38Z</time>
      </trkpt>
      <trkpt lat="42.79542" lon="2.08512">
        <ele>968.8</ele>
        <time>2023-08-15T16:25:42Z</time>
      </trkpt>
      <trkpt lat="42.79537" lon="2.08543">
        <ele>970.1</ele>
        <time>2023-08-15T16:25:46Z</time>
      </trkpt>
      <trkpt lat="42.79532" lon="2.08574">
        <ele>970.8</ele>
        <time>2023-08-15T16:25:50Z</time>
      </trkpt>
      <trkpt lat="42.79526" lon="2.08604">
        <ele>970.4</ele>
        <time>2023-08-15T16:25:54Z</time>
      </trkpt>
      <trkpt lat="42.79521" lon="2.08631">
        <ele>972.4</ele>
        <time>2023-08-15T16:25:58Z</time>
      </trkpt>
      <trkpt lat="42.79517" lon="2.08653">
        <ele>974.4</ele>
        <time>2023-08-15T16:26:01Z</time>
      </trkpt>
      <trkpt lat="42.79513" lon="2.08676">
        <ele>975.1</ele>
        <time>2023-08-15T16:26:04Z</time>
      </trkpt>
      <trkpt lat="42.79508" lon="2.08706">
        <ele>976.3</ele>
        <time>2023-08-15T16:26:08Z</time>
      </trkpt>
      <trkpt lat="42.79505" lon="2.08728">
        <ele>978.8</ele>
        <time>2023-08-15T16:26:11Z</time>
      </trkpt>
      <trkpt lat="42.79503" lon="2.08759">
        <ele>979.8</ele>
        <time>2023-08-15T16:26:15Z</time>
      </trkpt>
      <trkpt lat="42.79502" lon="2.08791">
        <ele>980.7</ele>
        <time>2023-08-15T16:26:19Z</time>
      </trkpt>
      <trkpt lat="42.79501" lon="2.08821">
        <ele>980.1</ele>
        <time>2023-08-15T16:26:23Z</time>
      </trkpt>
      <trkpt lat="42.79501" lon="2.08844">
        <ele>981.3</ele>
        <time>2023-08-15T16:26:26Z</time>
      </trkpt>
      <trkpt lat="42.79499" lon="2.08872">
        <ele>984.2</ele>
        <time>2023-08-15T16:26:30Z</time>
      </trkpt>
      <trkpt lat="42.79499" lon="2.08895">
        <ele>985.2</ele>
        <time>2023-08-15T16:26:34Z</time>
      </trkpt>
      <trkpt lat="42.79498" lon="2.08915">
        <ele>986.4</ele>
        <time>2023-08-15T16:26:37Z</time>
      </trkpt>
      <trkpt lat="42.79499" lon="2.08943">
        <ele>989.1</ele>
        <time>2023-08-15T16:26:41Z</time>
      </trkpt>
      <trkpt lat="42.79499" lon="2.08963">
        <ele>990.6</ele>
        <time>2023-08-15T16:26:44Z</time>
      </trkpt>
      <trkpt lat="42.79502" lon="2.0899">
        <ele>990.4</ele>
        <time>2023-08-15T16:26:48Z</time>
      </trkpt>
      <trkpt lat="42.79508" lon="2.09016">
        <ele>992</ele>
        <time>2023-08-15T16:26:52Z</time>
      </trkpt>
      <trkpt lat="42.79508" lon="2.09035">
        <ele>993.7</ele>
        <time>2023-08-15T16:26:55Z</time>
      </trkpt>
      <trkpt lat="42.79494" lon="2.09053">
        <ele>996.7</ele>
        <time>2023-08-15T16:26:59Z</time>
      </trkpt>
      <trkpt lat="42.79472" lon="2.09059">
        <ele>996.1</ele>
        <time>2023-08-15T16:27:03Z</time>
      </trkpt>
      <trkpt lat="42.79452" lon="2.09077">
        <ele>995.4</ele>
        <time>2023-08-15T16:27:07Z</time>
      </trkpt>
      <trkpt lat="42.79436" lon="2.09106">
        <ele>993.1</ele>
        <time>2023-08-15T16:27:11Z</time>
      </trkpt>
      <trkpt lat="42.79432" lon="2.0913">
        <ele>993.5</ele>
        <time>2023-08-15T16:27:14Z</time>
      </trkpt>
      <trkpt lat="42.79428" lon="2.09163">
        <ele>989.8</ele>
        <time>2023-08-15T16:27:18Z</time>
      </trkpt>
      <trkpt lat="42.79417" lon="2.09188">
        <ele>988.2</ele>
        <time>2023-08-15T16:27:22Z</time>
      </trkpt>
      <trkpt lat="42.79403" lon="2.09206">
        <ele>987.1</ele>
        <time>2023-08-15T16:27:25Z</time>
      </trkpt>
      <trkpt lat="42.79384" lon="2.09233">
        <ele>985.7</ele>
        <time>2023-08-15T16:27:29Z</time>
      </trkpt>
      <trkpt lat="42.79373" lon="2.09257">
        <ele>985</ele>
        <time>2023-08-15T16:27:32Z</time>
      </trkpt>
      <trkpt lat="42.79359" lon="2.09289">
        <ele>984.8</ele>
        <time>2023-08-15T16:27:36Z</time>
      </trkpt>
      <trkpt lat="42.79349" lon="2.09313">
        <ele>983.3</ele>
        <time>2023-08-15T16:27:39Z</time>
      </trkpt>
      <trkpt lat="42.79336" lon="2.09344">
        <ele>982.3</ele>
        <time>2023-08-15T16:27:43Z</time>
      </trkpt>
      <trkpt lat="42.79327" lon="2.09368">
        <ele>980.9</ele>
        <time>2023-08-15T16:27:46Z</time>
      </trkpt>
      <trkpt lat="42.79318" lon="2.09392">
        <ele>980.5</ele>
        <time>2023-08-15T16:27:49Z</time>
      </trkpt>
      <trkpt lat="42.79311" lon="2.09416">
        <ele>980.5</ele>
        <time>2023-08-15T16:27:52Z</time>
      </trkpt>
      <trkpt lat="42.79299" lon="2.09446">
        <ele>979.7</ele>
        <time>2023-08-15T16:27:56Z</time>
      </trkpt>
      <trkpt lat="42.79285" lon="2.09474">
        <ele>980.1</ele>
        <time>2023-08-15T16:28:00Z</time>
      </trkpt>
      <trkpt lat="42.79274" lon="2.09494">
        <ele>980.8</ele>
        <time>2023-08-15T16:28:03Z</time>
      </trkpt>
      <trkpt lat="42.79261" lon="2.09521">
        <ele>980.5</ele>
        <time>2023-08-15T16:28:07Z</time>
      </trkpt>
      <trkpt lat="42.79252" lon="2.09541">
        <ele>981.2</ele>
        <time>2023-08-15T16:28:10Z</time>
      </trkpt>
      <trkpt lat="42.79245" lon="2.09561">
        <ele>981.4</ele>
        <time>2023-08-15T16:28:13Z</time>
      </trkpt>
      <trkpt lat="42.79233" lon="2.09587">
        <ele>981.8</ele>
        <time>2023-08-15T16:28:17Z</time>
      </trkpt>
      <trkpt lat="42.79226" lon="2.09605">
        <ele>982.1</ele>
        <time>2023-08-15T16:28:20Z</time>
      </trkpt>
      <trkpt lat="42.79217" lon="2.09618">
        <ele>982.2</ele>
        <time>2023-08-15T16:28:24Z</time>
      </trkpt>
      <trkpt lat="42.79201" lon="2.09618">
        <ele>981.7</ele>
        <time>2023-08-15T16:28:28Z</time>
      </trkpt>
      <trkpt lat="42.79188" lon="2.09617">
        <ele>982.2</ele>
        <time>2023-08-15T16:28:31Z</time>
      </trkpt>
      <trkpt lat="42.79164" lon="2.09614">
        <ele>980.6</ele>
        <time>2023-08-15T16:28:35Z</time>
      </trkpt>
      <trkpt lat="42.79146" lon="2.09612">
        <ele>980.4</ele>
        <time>2023-08-15T16:28:38Z</time>
      </trkpt>
      <trkpt lat="42.79125" lon="2.09608">
        <ele>979.1</ele>
        <time>2023-08-15T16:28:41Z</time>
      </trkpt>
      <trkpt lat="42.79098" lon="2.09606">
        <ele>978.6</ele>
        <time>2023-08-15T16:28:45Z</time>
      </trkpt>
      <trkpt lat="42.79073" lon="2.09605">
        <ele>977.8</ele>
        <time>2023-08-15T16:28:49Z</time>
      </trkpt>
      <trkpt lat="42.79047" lon="2.09605">
        <ele>978</ele>
        <time>2023-08-15T16:28:53Z</time>
      </trkpt>
      <trkpt lat="42.79027" lon="2.09605">
        <ele>978.1</ele>
        <time>2023-08-15T16:28:56Z</time>
      </trkpt>
      <trkpt lat="42.79002" lon="2.09603">
        <ele>978.5</ele>
        <time>2023-08-15T16:29:00Z</time>
      </trkpt>
      <trkpt lat="42.78982" lon="2.09598">
        <ele>978.3</ele>
        <time>2023-08-15T16:29:03Z</time>
      </trkpt>
      <trkpt lat="42.78962" lon="2.09592">
        <ele>978.7</ele>
        <time>2023-08-15T16:29:06Z</time>
      </trkpt>
      <trkpt lat="42.78942" lon="2.09587">
        <ele>979.4</ele>
        <time>2023-08-15T16:29:09Z</time>
      </trkpt>
      <trkpt lat="42.78923" lon="2.09582">
        <ele>979.4</ele>
        <time>2023-08-15T16:29:12Z</time>
      </trkpt>
      <trkpt lat="42.78898" lon="2.09574">
        <ele>980.5</ele>
        <time>2023-08-15T16:29:16Z</time>
      </trkpt>
      <trkpt lat="42.78872" lon="2.09567">
        <ele>980.8</ele>
        <time>2023-08-15T16:29:20Z</time>
      </trkpt>
      <trkpt lat="42.78847" lon="2.09559">
        <ele>980.7</ele>
        <time>2023-08-15T16:29:24Z</time>
      </trkpt>
      <trkpt lat="42.78828" lon="2.0955">
        <ele>981.9</ele>
        <time>2023-08-15T16:29:27Z</time>
      </trkpt>
      <trkpt lat="42.78805" lon="2.09533">
        <ele>981.6</ele>
        <time>2023-08-15T16:29:31Z</time>
      </trkpt>
      <trkpt lat="42.78787" lon="2.09521">
        <ele>982</ele>
        <time>2023-08-15T16:29:34Z</time>
      </trkpt>
      <trkpt lat="42.78768" lon="2.09512">
        <ele>984.3</ele>
        <time>2023-08-15T16:29:37Z</time>
      </trkpt>
      <trkpt lat="42.78742" lon="2.09505">
        <ele>984.3</ele>
        <time>2023-08-15T16:29:41Z</time>
      </trkpt>
      <trkpt lat="42.78716" lon="2.09498">
        <ele>984.3</ele>
        <time>2023-08-15T16:29:45Z</time>
      </trkpt>
      <trkpt lat="42.78692" lon="2.0949">
        <ele>984.3</ele>
        <time>2023-08-15T16:29:49Z</time>
      </trkpt>
      <trkpt lat="42.78669" lon="2.09484">
        <ele>987.2</ele>
        <time>2023-08-15T16:29:53Z</time>
      </trkpt>
      <trkpt lat="42.78646" lon="2.09484">
        <ele>988.7</ele>
        <time>2023-08-15T16:29:57Z</time>
      </trkpt>
      <trkpt lat="42.78626" lon="2.09498">
        <ele>989.9</ele>
        <time>2023-08-15T16:30:01Z</time>
      </trkpt>
      <trkpt lat="42.7861" lon="2.09522">
        <ele>991.6</ele>
        <time>2023-08-15T16:30:05Z</time>
      </trkpt>
      <trkpt lat="42.78603" lon="2.09546">
        <ele>993</ele>
        <time>2023-08-15T16:30:08Z</time>
      </trkpt>
      <trkpt lat="42.78603" lon="2.09583">
        <ele>993.5</ele>
        <time>2023-08-15T16:30:12Z</time>
      </trkpt>
      <trkpt lat="42.78605" lon="2.0961">
        <ele>994.3</ele>
        <time>2023-08-15T16:30:15Z</time>
      </trkpt>
      <trkpt lat="42.78607" lon="2.09636">
        <ele>995.8</ele>
        <time>2023-08-15T16:30:18Z</time>
      </trkpt>
      <trkpt lat="42.78605" lon="2.09666">
        <ele>998.4</ele>
        <time>2023-08-15T16:30:22Z</time>
      </trkpt>
      <trkpt lat="42.78602" lon="2.09687">
        <ele>999.3</ele>
        <time>2023-08-15T16:30:25Z</time>
      </trkpt>
      <trkpt lat="42.78597" lon="2.09716">
        <ele>1000.5</ele>
        <time>2023-08-15T16:30:29Z</time>
      </trkpt>
      <trkpt lat="42.7859" lon="2.09743">
        <ele>1002</ele>
        <time>2023-08-15T16:30:33Z</time>
      </trkpt>
      <trkpt lat="42.78584" lon="2.09762">
        <ele>1003.6</ele>
        <time>2023-08-15T16:30:36Z</time>
      </trkpt>
      <trkpt lat="42.78584" lon="2.0979">
        <ele>1005</ele>
        <time>2023-08-15T16:30:40Z</time>
      </trkpt>
      <trkpt lat="42.78586" lon="2.09819">
        <ele>1005</ele>
        <time>2023-08-15T16:30:44Z</time>
      </trkpt>
      <trkpt lat="42.78589" lon="2.0984">
        <ele>1005.7</ele>
        <time>2023-08-15T16:30:47Z</time>
      </trkpt>
      <trkpt lat="42.78596" lon="2.09866">
        <ele>1006.8</ele>
        <time>2023-08-15T16:30:51Z</time>
      </trkpt>
      <trkpt lat="42.78597" lon="2.09886">
        <ele>1006.5</ele>
        <time>2023-08-15T16:30:55Z</time>
      </trkpt>
      <trkpt lat="42.78587" lon="2.09898">
        <ele>1007.4</ele>
        <time>2023-08-15T16:30:58Z</time>
      </trkpt>
      <trkpt lat="42.78578" lon="2.09893">
        <ele>1008.2</ele>
        <time>2023-08-15T16:31:01Z</time>
      </trkpt>
      <trkpt lat="42.78573" lon="2.09878">
        <ele>1009.7</ele>
        <time>2023-08-15T16:31:04Z</time>
      </trkpt>
      <trkpt lat="42.78572" lon="2.09851">
        <ele>1011.9</ele>
        <time>2023-08-15T16:31:08Z</time>
      </trkpt>
      <trkpt lat="42.7857" lon="2.09821">
        <ele>1011.8</ele>
        <time>2023-08-15T16:31:12Z</time>
      </trkpt>
      <trkpt lat="42.78567" lon="2.09797">
        <ele>1012.7</ele>
        <time>2023-08-15T16:31:15Z</time>
      </trkpt>
      <trkpt lat="42.78563" lon="2.09773">
        <ele>1013.6</ele>
        <time>2023-08-15T16:31:18Z</time>
      </trkpt>
      <trkpt lat="42.7856" lon="2.0975">
        <ele>1015.6</ele>
        <time>2023-08-15T16:31:21Z</time>
      </trkpt>
      <trkpt lat="42.78556" lon="2.09719">
        <ele>1016.2</ele>
        <time>2023-08-15T16:31:25Z</time>
      </trkpt>
      <trkpt lat="42.78552" lon="2.09688">
        <ele>1017.7</ele>
        <time>2023-08-15T16:31:29Z</time>
      </trkpt>
      <trkpt lat="42.78547" lon="2.09665">
        <ele>1018.6</ele>
        <time>2023-08-15T16:31:32Z</time>
      </trkpt>
      <trkpt lat="42.78541" lon="2.09634">
        <ele>1021</ele>
        <time>2023-08-15T16:31:36Z</time>
      </trkpt>
      <trkpt lat="42.78537" lon="2.09613">
        <ele>1021.8</ele>
        <time>2023-08-15T16:31:39Z</time>
      </trkpt>
      <trkpt lat="42.78529" lon="2.09584">
        <ele>1022.9</ele>
        <time>2023-08-15T16:31:43Z</time>
      </trkpt>
      <trkpt lat="42.78524" lon="2.09554">
        <ele>1024.2</ele>
        <time>2023-08-15T16:31:47Z</time>
      </trkpt>
      <trkpt lat="42.78518" lon="2.09533">
        <ele>1025.9</ele>
        <time>2023-08-15T16:31:50Z</time>
      </trkpt>
      <trkpt lat="42.78509" lon="2.09516">
        <ele>1026.2</ele>
        <time>2023-08-15T16:31:53Z</time>
      </trkpt>
      <trkpt lat="42.78497" lon="2.09502">
        <ele>1027.9</ele>
        <time>2023-08-15T16:31:56Z</time>
      </trkpt>
      <trkpt lat="42.78477" lon="2.09488">
        <ele>1028.7</ele>
        <time>2023-08-15T16:32:00Z</time>
      </trkpt>
      <trkpt lat="42.78456" lon="2.09483">
        <ele>1031</ele>
        <time>2023-08-15T16:32:04Z</time>
      </trkpt>
      <trkpt lat="42.78434" lon="2.09478">
        <ele>1031.7</ele>
        <time>2023-08-15T16:32:08Z</time>
      </trkpt>
      <trkpt lat="42.78417" lon="2.09461">
        <ele>1032.5</ele>
        <time>2023-08-15T16:32:12Z</time>
      </trkpt>
      <trkpt lat="42.78414" lon="2.09441">
        <ele>1034</ele>
        <time>2023-08-15T16:32:15Z</time>
      </trkpt>
      <trkpt lat="42.7841" lon="2.09415">
        <ele>1036.2</ele>
        <time>2023-08-15T16:32:19Z</time>
      </trkpt>
      <trkpt lat="42.78405" lon="2.09395">
        <ele>1037.6</ele>
        <time>2023-08-15T16:32:22Z</time>
      </trkpt>
      <trkpt lat="42.78396" lon="2.09369">
        <ele>1038.9</ele>
        <time>2023-08-15T16:32:26Z</time>
      </trkpt>
      <trkpt lat="42.78389" lon="2.0935">
        <ele>1040</ele>
        <time>2023-08-15T16:32:29Z</time>
      </trkpt>
      <trkpt lat="42.7838" lon="2.09322">
        <ele>1041.3</ele>
        <time>2023-08-15T16:32:33Z</time>
      </trkpt>
      <trkpt lat="42.78374" lon="2.09302">
        <ele>1042.4</ele>
        <time>2023-08-15T16:32:36Z</time>
      </trkpt>
      <trkpt lat="42.78368" lon="2.09282">
        <ele>1043.2</ele>
        <time>2023-08-15T16:32:39Z</time>
      </trkpt>
      <trkpt lat="42.78355" lon="2.09276">
        <ele>1043</ele>
        <time>2023-08-15T16:32:42Z</time>
      </trkpt>
      <trkpt lat="42.78344" lon="2.09297">
        <ele>1044.7</ele>
        <time>2023-08-15T16:32:46Z</time>
      </trkpt>
      <trkpt lat="42.78353" lon="2.09321">
        <ele>1046.5</ele>
        <time>2023-08-15T16:32:50Z</time>
      </trkpt>
      <trkpt lat="42.78359" lon="2.09338">
        <ele>1046.9</ele>
        <time>2023-08-15T16:32:53Z</time>
      </trkpt>
      <trkpt lat="42.78363" lon="2.09355">
        <ele>1047.6</ele>
        <time>2023-08-15T16:32:56Z</time>
      </trkpt>
      <trkpt lat="42.78364" lon="2.09377">
        <ele>1049</ele>
        <time>2023-08-15T16:33:00Z</time>
      </trkpt>
      <trkpt lat="42.78364" lon="2.09397">
        <ele>1050.1</ele>
        <time>2023-08-15T16:33:03Z</time>
      </trkpt>
      <trkpt lat="42.78358" lon="2.09422">
        <ele>1051.3</ele>
        <time>2023-08-15T16:33:07Z</time>
      </trkpt>
      <trkpt lat="42.78351" lon="2.09436">
        <ele>1051.4</ele>
        <time>2023-08-15T16:33:10Z</time>
      </trkpt>
      <trkpt lat="42.7834" lon="2.09452">
        <ele>1052.1</ele>
        <time>2023-08-15T16:33:14Z</time>
      </trkpt>
      <trkpt lat="42.78326" lon="2.09469">
        <ele>1054.5</ele>
        <time>2023-08-15T16:33:17Z</time>
      </trkpt>
      <trkpt lat="42.78315" lon="2.0948">
        <ele>1056</ele>
        <time>2023-08-15T16:33:20Z</time>
      </trkpt>
      <trkpt lat="42.78298" lon="2.09491">
        <ele>1057.1</ele>
        <time>2023-08-15T16:33:24Z</time>
      </trkpt>
      <trkpt lat="42.78283" lon="2.09499">
        <ele>1058.1</ele>
        <time>2023-08-15T16:33:27Z</time>
      </trkpt>
      <trkpt lat="42.78264" lon="2.09509">
        <ele>1058.8</ele>
        <time>2023-08-15T16:33:31Z</time>
      </trkpt>
      <trkpt lat="42.7825" lon="2.09514">
        <ele>1058.7</ele>
        <time>2023-08-15T16:33:35Z</time>
      </trkpt>
      <trkpt lat="42.7823" lon="2.09523">
        <ele>1058.4</ele>
        <time>2023-08-15T16:33:38Z</time>
      </trkpt>
      <trkpt lat="42.78209" lon="2.09534">
        <ele>1057.9</ele>
        <time>2023-08-15T16:33:42Z</time>
      </trkpt>
      <trkpt lat="42.78198" lon="2.0954">
        <ele>1057.8</ele>
        <time>2023-08-15T16:33:45Z</time>
      </trkpt>
      <trkpt lat="42.78186" lon="2.09547">
        <ele>1057.6</ele>
        <time>2023-08-15T16:33:48Z</time>
      </trkpt>
      <trkpt lat="42.78168" lon="2.09562">
        <ele>1057.4</ele>
        <time>2023-08-15T16:33:52Z</time>
      </trkpt>
      <trkpt lat="42.78153" lon="2.09576">
        <ele>1056.1</ele>
        <time>2023-08-15T16:33:56Z</time>
      </trkpt>
      <trkpt lat="42.78138" lon="2.09591">
        <ele>1055.2</ele>
        <time>2023-08-15T16:34:00Z</time>
      </trkpt>
      <trkpt lat="42.78123" lon="2.09607">
        <ele>1054.9</ele>
        <time>2023-08-15T16:34:04Z</time>
      </trkpt>
      <trkpt lat="42.7811" lon="2.0962">
        <ele>1053.7</ele>
        <time>2023-08-15T16:34:08Z</time>
      </trkpt>
      <trkpt lat="42.78098" lon="2.09632">
        <ele>1053.5</ele>
        <time>2023-08-15T16:34:11Z</time>
      </trkpt>
      <trkpt lat="42.78083" lon="2.09645">
        <ele>1052.9</ele>
        <time>2023-08-15T16:34:15Z</time>
      </trkpt>
      <trkpt lat="42.7807" lon="2.09658">
        <ele>1052.9</ele>
        <time>2023-08-15T16:34:18Z</time>
      </trkpt>
      <trkpt lat="42.78054" lon="2.09674">
        <ele>1052.3</ele>
        <time>2023-08-15T16:34:22Z</time>
      </trkpt>
      <trkpt lat="42.78042" lon="2.09684">
        <ele>1051.7</ele>
        <time>2023-08-15T16:34:26Z</time>
      </trkpt>
      <trkpt lat="42.78033" lon="2.09696">
        <ele>1051.2</ele>
        <time>2023-08-15T16:34:30Z</time>
      </trkpt>
      <trkpt lat="42.78023" lon="2.09712">
        <ele>1050.9</ele>
        <time>2023-08-15T16:34:33Z</time>
      </trkpt>
      <trkpt lat="42.78012" lon="2.09734">
        <ele>1050.5</ele>
        <time>2023-08-15T16:34:36Z</time>
      </trkpt>
      <trkpt lat="42.78003" lon="2.09751">
        <ele>1049.4</ele>
        <time>2023-08-15T16:34:39Z</time>
      </trkpt>
      <trkpt lat="42.77994" lon="2.09765">
        <ele>1048.7</ele>
        <time>2023-08-15T16:34:43Z</time>
      </trkpt>
      <trkpt lat="42.77981" lon="2.09784">
        <ele>1048.4</ele>
        <time>2023-08-15T16:34:47Z</time>
      </trkpt>
      <trkpt lat="42.77971" lon="2.09803">
        <ele>1047.8</ele>
        <time>2023-08-15T16:34:51Z</time>
      </trkpt>
      <trkpt lat="42.77964" lon="2.09819">
        <ele>1047.4</ele>
        <time>2023-08-15T16:34:54Z</time>
      </trkpt>
      <trkpt lat="42.77951" lon="2.09838">
        <ele>1047.3</ele>
        <time>2023-08-15T16:34:58Z</time>
      </trkpt>
      <trkpt lat="42.77938" lon="2.09852">
        <ele>1046.7</ele>
        <time>2023-08-15T16:35:01Z</time>
      </trkpt>
      <trkpt lat="42.77925" lon="2.09865">
        <ele>1046.4</ele>
        <time>2023-08-15T16:35:04Z</time>
      </trkpt>
      <trkpt lat="42.77915" lon="2.09884">
        <ele>1045.4</ele>
        <time>2023-08-15T16:35:08Z</time>
      </trkpt>
      <trkpt lat="42.77909" lon="2.09904">
        <ele>1044.7</ele>
        <time>2023-08-15T16:35:12Z</time>
      </trkpt>
      <trkpt lat="42.77895" lon="2.09916">
        <ele>1044.5</ele>
        <time>2023-08-15T16:35:16Z</time>
      </trkpt>
      <trkpt lat="42.77879" lon="2.0991">
        <ele>1043.9</ele>
        <time>2023-08-15T16:35:19Z</time>
      </trkpt>
      <trkpt lat="42.77859" lon="2.09896">
        <ele>1042.9</ele>
        <time>2023-08-15T16:35:23Z</time>
      </trkpt>
      <trkpt lat="42.77845" lon="2.09891">
        <ele>1043</ele>
        <time>2023-08-15T16:35:26Z</time>
      </trkpt>
      <trkpt lat="42.77825" lon="2.09892">
        <ele>1042.6</ele>
        <time>2023-08-15T16:35:30Z</time>
      </trkpt>
      <trkpt lat="42.7781" lon="2.09899">
        <ele>1041.2</ele>
        <time>2023-08-15T16:35:34Z</time>
      </trkpt>
      <trkpt lat="42.77797" lon="2.09909">
        <ele>1040.8</ele>
        <time>2023-08-15T16:35:37Z</time>
      </trkpt>
      <trkpt lat="42.77786" lon="2.09922">
        <ele>1040</ele>
        <time>2023-08-15T16:35:40Z</time>
      </trkpt>
      <trkpt lat="42.77771" lon="2.09937">
        <ele>1039.3</ele>
        <time>2023-08-15T16:35:44Z</time>
      </trkpt>
      <trkpt lat="42.77758" lon="2.09945">
        <ele>1038.7</ele>
        <time>2023-08-15T16:35:47Z</time>
      </trkpt>
      <trkpt lat="42.7774" lon="2.09953">
        <ele>1037.8</ele>
        <time>2023-08-15T16:35:51Z</time>
      </trkpt>
      <trkpt lat="42.77726" lon="2.09958">
        <ele>1037.8</ele>
        <time>2023-08-15T16:35:54Z</time>
      </trkpt>
      <trkpt lat="42.77712" lon="2.09964">
        <ele>1037.5</ele>
        <time>2023-08-15T16:35:57Z</time>
      </trkpt>
      <trkpt lat="42.77698" lon="2.0997">
        <ele>1037.1</ele>
        <time>2023-08-15T16:36:00Z</time>
      </trkpt>
      <trkpt lat="42.77679" lon="2.09976">
        <ele>1035.7</ele>
        <time>2023-08-15T16:36:04Z</time>
      </trkpt>
      <trkpt lat="42.77661" lon="2.09977">
        <ele>1035.6</ele>
        <time>2023-08-15T16:36:08Z</time>
      </trkpt>
      <trkpt lat="42.77641" lon="2.09977">
        <ele>1034.8</ele>
        <time>2023-08-15T16:36:12Z</time>
      </trkpt>
      <trkpt lat="42.77627" lon="2.09976">
        <ele>1034.2</ele>
        <time>2023-08-15T16:36:15Z</time>
      </trkpt>
      <trkpt lat="42.77608" lon="2.09975">
        <ele>1034.3</ele>
        <time>2023-08-15T16:36:19Z</time>
      </trkpt>
      <trkpt lat="42.77589" lon="2.09974">
        <ele>1033.5</ele>
        <time>2023-08-15T16:36:23Z</time>
      </trkpt>
      <trkpt lat="42.77575" lon="2.09974">
        <ele>1032.6</ele>
        <time>2023-08-15T16:36:26Z</time>
      </trkpt>
      <trkpt lat="42.77556" lon="2.09973">
        <ele>1031.9</ele>
        <time>2023-08-15T16:36:30Z</time>
      </trkpt>
      <trkpt lat="42.77544" lon="2.09973">
        <ele>1031.3</ele>
        <time>2023-08-15T16:36:33Z</time>
      </trkpt>
      <trkpt lat="42.77535" lon="2.09973">
        <ele>1031.3</ele>
        <time>2023-08-15T16:36:37Z</time>
      </trkpt>
      <trkpt lat="42.77533" lon="2.09973">
        <ele>1032.2</ele>
        <time>2023-08-15T16:36:41Z</time>
      </trkpt>
      <trkpt lat="42.77532" lon="2.09972">
        <ele>1033.2</ele>
        <time>2023-08-15T16:55:30Z</time>
      </trkpt>
      <trkpt lat="42.7753" lon="2.0997">
        <ele>1033.3</ele>
        <time>2023-08-15T16:55:33Z</time>
      </trkpt>
      <trkpt lat="42.77525" lon="2.09965">
        <ele>1032.2</ele>
        <time>2023-08-15T16:55:36Z</time>
      </trkpt>
      <trkpt lat="42.77514" lon="2.09958">
        <ele>1032.2</ele>
        <time>2023-08-15T16:55:40Z</time>
      </trkpt>
      <trkpt lat="42.77506" lon="2.09952">
        <ele>1032</ele>
        <time>2023-08-15T16:55:43Z</time>
      </trkpt>
      <trkpt lat="42.77493" lon="2.09944">
        <ele>1031.6</ele>
        <time>2023-08-15T16:55:47Z</time>
      </trkpt>
      <trkpt lat="42.7748" lon="2.09938">
        <ele>1031.5</ele>
        <time>2023-08-15T16:55:51Z</time>
      </trkpt>
      <trkpt lat="42.7747" lon="2.09936">
        <ele>1030.6</ele>
        <time>2023-08-15T16:55:54Z</time>
      </trkpt>
      <trkpt lat="42.77455" lon="2.09936">
        <ele>1030</ele>
        <time>2023-08-15T16:55:58Z</time>
      </trkpt>
      <trkpt lat="42.7744" lon="2.0994">
        <ele>1030.4</ele>
        <time>2023-08-15T16:56:01Z</time>
      </trkpt>
      <trkpt lat="42.77423" lon="2.09949">
        <ele>1029.7</ele>
        <time>2023-08-15T16:56:05Z</time>
      </trkpt>
      <trkpt lat="42.77407" lon="2.09954">
        <ele>1029.5</ele>
        <time>2023-08-15T16:56:09Z</time>
      </trkpt>
      <trkpt lat="42.77394" lon="2.0996">
        <ele>1029.2</ele>
        <time>2023-08-15T16:56:12Z</time>
      </trkpt>
      <trkpt lat="42.7738" lon="2.09967">
        <ele>1028.8</ele>
        <time>2023-08-15T16:56:16Z</time>
      </trkpt>
      <trkpt lat="42.77363" lon="2.09976">
        <ele>1028.9</ele>
        <time>2023-08-15T16:56:20Z</time>
      </trkpt>
      <trkpt lat="42.77344" lon="2.09983">
        <ele>1028.6</ele>
        <time>2023-08-15T16:56:23Z</time>
      </trkpt>
      <trkpt lat="42.7733" lon="2.0999">
        <ele>1027.9</ele>
        <time>2023-08-15T16:56:26Z</time>
      </trkpt>
      <trkpt lat="42.77314" lon="2.09996">
        <ele>1027.8</ele>
        <time>2023-08-15T16:56:30Z</time>
      </trkpt>
      <trkpt lat="42.77299" lon="2.1">
        <ele>1028</ele>
        <time>2023-08-15T16:56:33Z</time>
      </trkpt>
      <trkpt lat="42.77279" lon="2.10004">
        <ele>1027.2</ele>
        <time>2023-08-15T16:56:37Z</time>
      </trkpt>
      <trkpt lat="42.77269" lon="2.10005">
        <ele>1026.8</ele>
        <time>2023-08-15T16:56:40Z</time>
      </trkpt>
      <trkpt lat="42.77252" lon="2.10006">
        <ele>1026.7</ele>
        <time>2023-08-15T16:56:44Z</time>
      </trkpt>
      <trkpt lat="42.77242" lon="2.09997">
        <ele>1026.6</ele>
        <time>2023-08-15T16:56:47Z</time>
      </trkpt>
      <trkpt lat="42.77228" lon="2.09983">
        <ele>1026.1</ele>
        <time>2023-08-15T16:56:51Z</time>
      </trkpt>
      <trkpt lat="42.77213" lon="2.09973">
        <ele>1025.7</ele>
        <time>2023-08-15T16:56:55Z</time>
      </trkpt>
      <trkpt lat="42.77193" lon="2.09961">
        <ele>1026</ele>
        <time>2023-08-15T16:56:59Z</time>
      </trkpt>
      <trkpt lat="42.77175" lon="2.09951">
        <ele>1026</ele>
        <time>2023-08-15T16:57:03Z</time>
      </trkpt>
      <trkpt lat="42.77162" lon="2.09941">
        <ele>1024.9</ele>
        <time>2023-08-15T16:57:06Z</time>
      </trkpt>
      <trkpt lat="42.77149" lon="2.09933">
        <ele>1024.5</ele>
        <time>2023-08-15T16:57:09Z</time>
      </trkpt>
      <trkpt lat="42.77132" lon="2.09925">
        <ele>1024.3</ele>
        <time>2023-08-15T16:57:13Z</time>
      </trkpt>
      <trkpt lat="42.77115" lon="2.09917">
        <ele>1023.9</ele>
        <time>2023-08-15T16:57:17Z</time>
      </trkpt>
      <trkpt lat="42.77099" lon="2.09911">
        <ele>1024</ele>
        <time>2023-08-15T16:57:20Z</time>
      </trkpt>
      <trkpt lat="42.77086" lon="2.09906">
        <ele>1023.2</ele>
        <time>2023-08-15T16:57:23Z</time>
      </trkpt>
      <trkpt lat="42.77069" lon="2.09898">
        <ele>1023.3</ele>
        <time>2023-08-15T16:57:27Z</time>
      </trkpt>
      <trkpt lat="42.7705" lon="2.09888">
        <ele>1023.4</ele>
        <time>2023-08-15T16:57:31Z</time>
      </trkpt>
      <trkpt lat="42.77033" lon="2.09887">
        <ele>1022.7</ele>
        <time>2023-08-15T16:57:34Z</time>
      </trkpt>
      <trkpt lat="42.77015" lon="2.09898">
        <ele>1022</ele>
        <time>2023-08-15T16:57:38Z</time>
      </trkpt>
      <trkpt lat="42.77" lon="2.09915">
        <ele>1021.6</ele>
        <time>2023-08-15T16:57:42Z</time>
      </trkpt>
      <trkpt lat="42.7699" lon="2.09929">
        <ele>1021.3</ele>
        <time>2023-08-15T16:57:45Z</time>
      </trkpt>
      <trkpt lat="42.76976" lon="2.09944">
        <ele>1020.8</ele>
        <time>2023-08-15T16:57:49Z</time>
      </trkpt>
      <trkpt lat="42.76961" lon="2.09947">
        <ele>1020.2</ele>
        <time>2023-08-15T16:57:53Z</time>
      </trkpt>
      <trkpt lat="42.7695" lon="2.09934">
        <ele>1020.1</ele>
        <time>2023-08-15T16:57:56Z</time>
      </trkpt>
      <trkpt lat="42.76942" lon="2.09916">
        <ele>1020.2</ele>
        <time>2023-08-15T16:57:59Z</time>
      </trkpt>
      <trkpt lat="42.76931" lon="2.09898">
        <ele>1019.1</ele>
        <time>2023-08-15T16:58:03Z</time>
      </trkpt>
      <trkpt lat="42.76919" lon="2.09888">
        <ele>1019</ele>
        <time>2023-08-15T16:58:06Z</time>
      </trkpt>
      <trkpt lat="42.76899" lon="2.09879">
        <ele>1018.3</ele>
        <time>2023-08-15T16:58:10Z</time>
      </trkpt>
      <trkpt lat="42.76882" lon="2.09869">
        <ele>1018</ele>
        <time>2023-08-15T16:58:14Z</time>
      </trkpt>
      <trkpt lat="42.7687" lon="2.09846">
        <ele>1017.2</ele>
        <time>2023-08-15T16:58:18Z</time>
      </trkpt>
      <trkpt lat="42.76864" lon="2.0982">
        <ele>1016.1</ele>
        <time>2023-08-15T16:58:22Z</time>
      </trkpt>
      <trkpt lat="42.76866" lon="2.09794">
        <ele>1016</ele>
        <time>2023-08-15T16:58:26Z</time>
      </trkpt>
      <trkpt lat="42.76867" lon="2.09776">
        <ele>1016.3</ele>
        <time>2023-08-15T16:58:29Z</time>
      </trkpt>
      <trkpt lat="42.76862" lon="2.09761">
        <ele>1015.4</ele>
        <time>2023-08-15T16:58:32Z</time>
      </trkpt>
      <trkpt lat="42.76851" lon="2.0974">
        <ele>1014.7</ele>
        <time>2023-08-15T16:58:36Z</time>
      </trkpt>
      <trkpt lat="42.76842" lon="2.09723">
        <ele>1014.6</ele>
        <time>2023-08-15T16:58:39Z</time>
      </trkpt>
      <trkpt lat="42.76838" lon="2.09702">
        <ele>1013.9</ele>
        <time>2023-08-15T16:58:43Z</time>
      </trkpt>
      <trkpt lat="42.76843" lon="2.0968">
        <ele>1013.8</ele>
        <time>2023-08-15T16:58:46Z</time>
      </trkpt>
      <trkpt lat="42.76847" lon="2.09656">
        <ele>1012.7</ele>
        <time>2023-08-15T16:58:50Z</time>
      </trkpt>
      <trkpt lat="42.76844" lon="2.0963">
        <ele>1012.5</ele>
        <time>2023-08-15T16:58:54Z</time>
      </trkpt>
      <trkpt lat="42.76839" lon="2.09611">
        <ele>1012.4</ele>
        <time>2023-08-15T16:58:57Z</time>
      </trkpt>
      <trkpt lat="42.76832" lon="2.0959">
        <ele>1011.6</ele>
        <time>2023-08-15T16:59:01Z</time>
      </trkpt>
      <trkpt lat="42.76824" lon="2.09572">
        <ele>1010.9</ele>
        <time>2023-08-15T16:59:04Z</time>
      </trkpt>
      <trkpt lat="42.76812" lon="2.09556">
        <ele>1010.7</ele>
        <time>2023-08-15T16:59:07Z</time>
      </trkpt>
      <trkpt lat="42.76806" lon="2.09533">
        <ele>1009.6</ele>
        <time>2023-08-15T16:59:11Z</time>
      </trkpt>
      <trkpt lat="42.76808" lon="2.09514">
        <ele>1009.6</ele>
        <time>2023-08-15T16:59:14Z</time>
      </trkpt>
      <trkpt lat="42.76814" lon="2.09495">
        <ele>1008.9</ele>
        <time>2023-08-15T16:59:18Z</time>
      </trkpt>
      <trkpt lat="42.76822" lon="2.09481">
        <ele>1008.3</ele>
        <time>2023-08-15T16:59:21Z</time>
      </trkpt>
      <trkpt lat="42.76829" lon="2.09464">
        <ele>1008.3</ele>
        <time>2023-08-15T16:59:24Z</time>
      </trkpt>
      <trkpt lat="42.76833" lon="2.09444">
        <ele>1008.1</ele>
        <time>2023-08-15T16:59:27Z</time>
      </trkpt>
      <trkpt lat="42.76834" lon="2.09432">
        <ele>1007</ele>
        <time>2023-08-15T16:59:30Z</time>
      </trkpt>
      <trkpt lat="42.76834" lon="2.09419">
        <ele>1006.7</ele>
        <time>2023-08-15T16:59:33Z</time>
      </trkpt>
      <trkpt lat="42.76838" lon="2.09399">
        <ele>1006.8</ele>
        <time>2023-08-15T16:59:36Z</time>
      </trkpt>
      <trkpt lat="42.76846" lon="2.09377">
        <ele>1006.1</ele>
        <time>2023-08-15T16:59:40Z</time>
      </trkpt>
      <trkpt lat="42.76853" lon="2.09357">
        <ele>1006.3</ele>
        <time>2023-08-15T16:59:44Z</time>
      </trkpt>
      <trkpt lat="42.76861" lon="2.0933">
        <ele>1005.2</ele>
        <time>2023-08-15T16:59:48Z</time>
      </trkpt>
      <trkpt lat="42.76866" lon="2.09304">
        <ele>1004.9</ele>
        <time>2023-08-15T16:59:52Z</time>
      </trkpt>
      <trkpt lat="42.76867" lon="2.09283">
        <ele>1005</ele>
        <time>2023-08-15T16:59:55Z</time>
      </trkpt>
      <trkpt lat="42.76863" lon="2.09255">
        <ele>1004.3</ele>
        <time>2023-08-15T16:59:59Z</time>
      </trkpt>
      <trkpt lat="42.76852" lon="2.09231">
        <ele>1003.7</ele>
        <time>2023-08-15T17:00:03Z</time>
      </trkpt>
      <trkpt lat="42.7684" lon="2.09219">
        <ele>1003.5</ele>
        <time>2023-08-15T17:00:06Z</time>
      </trkpt>
      <trkpt lat="42.7682" lon="2.09215">
        <ele>1002.3</ele>
        <time>2023-08-15T17:00:10Z</time>
      </trkpt>
      <trkpt lat="42.76806" lon="2.09225">
        <ele>1002.3</ele>
        <time>2023-08-15T17:00:13Z</time>
      </trkpt>
      <trkpt lat="42.76795" lon="2.09241">
        <ele>1001.8</ele>
        <time>2023-08-15T17:00:16Z</time>
      </trkpt>
      <trkpt lat="42.7678" lon="2.09261">
        <ele>1001.4</ele>
        <time>2023-08-15T17:00:20Z</time>
      </trkpt>
      <trkpt lat="42.76767" lon="2.09272">
        <ele>1001.2</ele>
        <time>2023-08-15T17:00:23Z</time>
      </trkpt>
      <trkpt lat="42.76754" lon="2.09278">
        <ele>1000.8</ele>
        <time>2023-08-15T17:00:26Z</time>
      </trkpt>
      <trkpt lat="42.76734" lon="2.0928">
        <ele>1000</ele>
        <time>2023-08-15T17:00:30Z</time>
      </trkpt>
      <trkpt lat="42.76721" lon="2.09281">
        <ele>999.4</ele>
        <time>2023-08-15T17:00:33Z</time>
      </trkpt>
      <trkpt lat="42.76704" lon="2.09284">
        <ele>998.9</ele>
        <time>2023-08-15T17:00:37Z</time>
      </trkpt>
      <trkpt lat="42.76686" lon="2.09281">
        <ele>998.4</ele>
        <time>2023-08-15T17:00:41Z</time>
      </trkpt>
      <trkpt lat="42.76675" lon="2.09273">
        <ele>998.2</ele>
        <time>2023-08-15T17:00:44Z</time>
      </trkpt>
      <trkpt lat="42.76658" lon="2.09253">
        <ele>997.5</ele>
        <time>2023-08-15T17:00:48Z</time>
      </trkpt>
      <trkpt lat="42.76643" lon="2.09234">
        <ele>997.5</ele>
        <time>2023-08-15T17:00:52Z</time>
      </trkpt>
      <trkpt lat="42.76633" lon="2.09211">
        <ele>997.1</ele>
        <time>2023-08-15T17:00:56Z</time>
      </trkpt>
      <trkpt lat="42.76629" lon="2.09194">
        <ele>996.3</ele>
        <time>2023-08-15T17:00:59Z</time>
      </trkpt>
      <trkpt lat="42.76628" lon="2.09175">
        <ele>995.8</ele>
        <time>2023-08-15T17:01:02Z</time>
      </trkpt>
      <trkpt lat="42.76623" lon="2.0915">
        <ele>995.4</ele>
        <time>2023-08-15T17:01:06Z</time>
      </trkpt>
      <trkpt lat="42.76617" lon="2.09134">
        <ele>995.2</ele>
        <time>2023-08-15T17:01:09Z</time>
      </trkpt>
      <trkpt lat="42.76606" lon="2.09112">
        <ele>994.7</ele>
        <time>2023-08-15T17:01:13Z</time>
      </trkpt>
      <trkpt lat="42.76599" lon="2.09094">
        <ele>994.3</ele>
        <time>2023-08-15T17:01:17Z</time>
      </trkpt>
      <trkpt lat="42.76593" lon="2.0907">
        <ele>993.6</ele>
        <time>2023-08-15T17:01:20Z</time>
      </trkpt>
      <trkpt lat="42.76592" lon="2.09049">
        <ele>992.9</ele>
        <time>2023-08-15T17:01:23Z</time>
      </trkpt>
      <trkpt lat="42.76593" lon="2.09024">
        <ele>992.8</ele>
        <time>2023-08-15T17:01:27Z</time>
      </trkpt>
      <trkpt lat="42.76602" lon="2.09008">
        <ele>991.7</ele>
        <time>2023-08-15T17:01:31Z</time>
      </trkpt>
      <trkpt lat="42.76621" lon="2.09003">
        <ele>991.3</ele>
        <time>2023-08-15T17:01:35Z</time>
      </trkpt>
      <trkpt lat="42.76636" lon="2.09001">
        <ele>991</ele>
        <time>2023-08-15T17:01:38Z</time>
      </trkpt>
      <trkpt lat="42.76652" lon="2.08994">
        <ele>990.6</ele>
        <time>2023-08-15T17:01:42Z</time>
      </trkpt>
      <trkpt lat="42.76669" lon="2.08982">
        <ele>990</ele>
        <time>2023-08-15T17:01:46Z</time>
      </trkpt>
      <trkpt lat="42.76684" lon="2.08969">
        <ele>989.2</ele>
        <time>2023-08-15T17:01:50Z</time>
      </trkpt>
      <trkpt lat="42.76692" lon="2.08958">
        <ele>988.6</ele>
        <time>2023-08-15T17:01:53Z</time>
      </trkpt>
      <trkpt lat="42.76702" lon="2.08943">
        <ele>988.6</ele>
        <time>2023-08-15T17:01:56Z</time>
      </trkpt>
      <trkpt lat="42.76716" lon="2.08917">
        <ele>988.2</ele>
        <time>2023-08-15T17:02:00Z</time>
      </trkpt>
      <trkpt lat="42.76723" lon="2.08905">
        <ele>988</ele>
        <time>2023-08-15T17:02:03Z</time>
      </trkpt>
      <trkpt lat="42.76729" lon="2.08886">
        <ele>987.2</ele>
        <time>2023-08-15T17:02:07Z</time>
      </trkpt>
      <trkpt lat="42.76725" lon="2.08864">
        <ele>987</ele>
        <time>2023-08-15T17:02:10Z</time>
      </trkpt>
      <trkpt lat="42.76716" lon="2.08846">
        <ele>986.3</ele>
        <time>2023-08-15T17:02:13Z</time>
      </trkpt>
      <trkpt lat="42.76707" lon="2.0883">
        <ele>985.8</ele>
        <time>2023-08-15T17:02:16Z</time>
      </trkpt>
      <trkpt lat="42.76693" lon="2.08811">
        <ele>984.8</ele>
        <time>2023-08-15T17:02:20Z</time>
      </trkpt>
      <trkpt lat="42.76678" lon="2.08791">
        <ele>984.5</ele>
        <time>2023-08-15T17:02:24Z</time>
      </trkpt>
      <trkpt lat="42.76668" lon="2.08773">
        <ele>983.8</ele>
        <time>2023-08-15T17:02:27Z</time>
      </trkpt>
      <trkpt lat="42.76661" lon="2.08747">
        <ele>983.2</ele>
        <time>2023-08-15T17:02:31Z</time>
      </trkpt>
      <trkpt lat="42.76663" lon="2.08723">
        <ele>982.5</ele>
        <time>2023-08-15T17:02:35Z</time>
      </trkpt>
      <trkpt lat="42.76671" lon="2.087">
        <ele>982.3</ele>
        <time>2023-08-15T17:02:39Z</time>
      </trkpt>
      <trkpt lat="42.76678" lon="2.08684">
        <ele>981.5</ele>
        <time>2023-08-15T17:02:42Z</time>
      </trkpt>
      <trkpt lat="42.7669" lon="2.08668">
        <ele>981.3</ele>
        <time>2023-08-15T17:02:46Z</time>
      </trkpt>
      <trkpt lat="42.76701" lon="2.08658">
        <ele>980.1</ele>
        <time>2023-08-15T17:02:49Z</time>
      </trkpt>
      <trkpt lat="42.76717" lon="2.0864">
        <ele>979.6</ele>
        <time>2023-08-15T17:02:53Z</time>
      </trkpt>
      <trkpt lat="42.76731" lon="2.08621">
        <ele>978.9</ele>
        <time>2023-08-15T17:02:57Z</time>
      </trkpt>
      <trkpt lat="42.76741" lon="2.08607">
        <ele>978.5</ele>
        <time>2023-08-15T17:03:00Z</time>
      </trkpt>
      <trkpt lat="42.76748" lon="2.08581">
        <ele>977.6</ele>
        <time>2023-08-15T17:03:04Z</time>
      </trkpt>
      <trkpt lat="42.76743" lon="2.0856">
        <ele>977.5</ele>
        <time>2023-08-15T17:03:07Z</time>
      </trkpt>
      <trkpt lat="42.76737" lon="2.08543">
        <ele>977.3</ele>
        <time>2023-08-15T17:03:10Z</time>
      </trkpt>
      <trkpt lat="42.7673" lon="2.08528">
        <ele>977</ele>
        <time>2023-08-15T17:03:13Z</time>
      </trkpt>
      <trkpt lat="42.76719" lon="2.08509">
        <ele>976.1</ele>
        <time>2023-08-15T17:03:17Z</time>
      </trkpt>
      <trkpt lat="42.76717" lon="2.08485">
        <ele>975.3</ele>
        <time>2023-08-15T17:03:21Z</time>
      </trkpt>
      <trkpt lat="42.76724" lon="2.08461">
        <ele>974.9</ele>
        <time>2023-08-15T17:03:25Z</time>
      </trkpt>
      <trkpt lat="42.76734" lon="2.08439">
        <ele>974.3</ele>
        <time>2023-08-15T17:03:29Z</time>
      </trkpt>
      <trkpt lat="42.76746" lon="2.08419">
        <ele>973.6</ele>
        <time>2023-08-15T17:03:33Z</time>
      </trkpt>
      <trkpt lat="42.76755" lon="2.08405">
        <ele>973.1</ele>
        <time>2023-08-15T17:03:36Z</time>
      </trkpt>
      <trkpt lat="42.76769" lon="2.08387">
        <ele>972.8</ele>
        <time>2023-08-15T17:03:40Z</time>
      </trkpt>
      <trkpt lat="42.76782" lon="2.08375">
        <ele>971.7</ele>
        <time>2023-08-15T17:03:44Z</time>
      </trkpt>
      <trkpt lat="42.76796" lon="2.08371">
        <ele>970.7</ele>
        <time>2023-08-15T17:03:47Z</time>
      </trkpt>
      <trkpt lat="42.76811" lon="2.08373">
        <ele>970.3</ele>
        <time>2023-08-15T17:03:51Z</time>
      </trkpt>
      <trkpt lat="42.76827" lon="2.08368">
        <ele>969.4</ele>
        <time>2023-08-15T17:03:55Z</time>
      </trkpt>
      <trkpt lat="42.76831" lon="2.08342">
        <ele>969.2</ele>
        <time>2023-08-15T17:03:59Z</time>
      </trkpt>
      <trkpt lat="42.76825" lon="2.08327">
        <ele>968.3</ele>
        <time>2023-08-15T17:04:02Z</time>
      </trkpt>
      <trkpt lat="42.76816" lon="2.08311">
        <ele>967.8</ele>
        <time>2023-08-15T17:04:06Z</time>
      </trkpt>
      <trkpt lat="42.76815" lon="2.08295">
        <ele>966.4</ele>
        <time>2023-08-15T17:04:09Z</time>
      </trkpt>
      <trkpt lat="42.76821" lon="2.0828">
        <ele>965.5</ele>
        <time>2023-08-15T17:04:12Z</time>
      </trkpt>
      <trkpt lat="42.76832" lon="2.08262">
        <ele>963.7</ele>
        <time>2023-08-15T17:04:16Z</time>
      </trkpt>
      <trkpt lat="42.7684" lon="2.08249">
        <ele>963.3</ele>
        <time>2023-08-15T17:04:19Z</time>
      </trkpt>
      <trkpt lat="42.76843" lon="2.08225">
        <ele>963</ele>
        <time>2023-08-15T17:04:23Z</time>
      </trkpt>
      <trkpt lat="42.76832" lon="2.08211">
        <ele>962.3</ele>
        <time>2023-08-15T17:04:26Z</time>
      </trkpt>
      <trkpt lat="42.76812" lon="2.08198">
        <ele>961.3</ele>
        <time>2023-08-15T17:04:30Z</time>
      </trkpt>
      <trkpt lat="42.76793" lon="2.08187">
        <ele>960.4</ele>
        <time>2023-08-15T17:04:34Z</time>
      </trkpt>
      <trkpt lat="42.76778" lon="2.08181">
        <ele>959.7</ele>
        <time>2023-08-15T17:04:37Z</time>
      </trkpt>
      <trkpt lat="42.76763" lon="2.08179">
        <ele>958.9</ele>
        <time>2023-08-15T17:04:40Z</time>
      </trkpt>
      <trkpt lat="42.76745" lon="2.08182">
        <ele>957.4</ele>
        <time>2023-08-15T17:04:44Z</time>
      </trkpt>
      <trkpt lat="42.76726" lon="2.0819">
        <ele>956.5</ele>
        <time>2023-08-15T17:04:48Z</time>
      </trkpt>
      <trkpt lat="42.76715" lon="2.082">
        <ele>955.5</ele>
        <time>2023-08-15T17:04:51Z</time>
      </trkpt>
      <trkpt lat="42.76704" lon="2.08213">
        <ele>954.7</ele>
        <time>2023-08-15T17:04:54Z</time>
      </trkpt>
      <trkpt lat="42.76689" lon="2.0823">
        <ele>953.6</ele>
        <time>2023-08-15T17:04:58Z</time>
      </trkpt>
      <trkpt lat="42.76678" lon="2.08244">
        <ele>952.6</ele>
        <time>2023-08-15T17:05:01Z</time>
      </trkpt>
      <trkpt lat="42.76663" lon="2.08261">
        <ele>951.6</ele>
        <time>2023-08-15T17:05:05Z</time>
      </trkpt>
      <trkpt lat="42.76649" lon="2.0828">
        <ele>950.2</ele>
        <time>2023-08-15T17:05:09Z</time>
      </trkpt>
      <trkpt lat="42.76635" lon="2.08297">
        <ele>948.6</ele>
        <time>2023-08-15T17:05:13Z</time>
      </trkpt>
      <trkpt lat="42.76623" lon="2.08312">
        <ele>947.8</ele>
        <time>2023-08-15T17:05:16Z</time>
      </trkpt>
      <trkpt lat="42.76609" lon="2.08328">
        <ele>946.5</ele>
        <time>2023-08-15T17:05:20Z</time>
      </trkpt>
      <trkpt lat="42.76597" lon="2.08335">
        <ele>945.3</ele>
        <time>2023-08-15T17:05:23Z</time>
      </trkpt>
      <trkpt lat="42.76584" lon="2.08344">
        <ele>944.5</ele>
        <time>2023-08-15T17:05:26Z</time>
      </trkpt>
      <trkpt lat="42.76571" lon="2.08359">
        <ele>943.3</ele>
        <time>2023-08-15T17:05:30Z</time>
      </trkpt>
      <trkpt lat="42.76562" lon="2.08372">
        <ele>942.3</ele>
        <time>2023-08-15T17:05:33Z</time>
      </trkpt>
      <trkpt lat="42.76554" lon="2.08383">
        <ele>941.9</ele>
        <time>2023-08-15T17:05:36Z</time>
      </trkpt>
      <trkpt lat="42.76543" lon="2.08396">
        <ele>940.5</ele>
        <time>2023-08-15T17:05:40Z</time>
      </trkpt>
      <trkpt lat="42.76533" lon="2.08407">
        <ele>939.3</ele>
        <time>2023-08-15T17:05:43Z</time>
      </trkpt>
      <trkpt lat="42.76523" lon="2.08419">
        <ele>938.3</ele>
        <time>2023-08-15T17:05:46Z</time>
      </trkpt>
      <trkpt lat="42.76509" lon="2.08435">
        <ele>937.1</ele>
        <time>2023-08-15T17:05:49Z</time>
      </trkpt>
      <trkpt lat="42.76493" lon="2.08459">
        <ele>936.3</ele>
        <time>2023-08-15T17:05:53Z</time>
      </trkpt>
      <trkpt lat="42.76482" lon="2.08474">
        <ele>935.5</ele>
        <time>2023-08-15T17:05:56Z</time>
      </trkpt>
      <trkpt lat="42.76467" lon="2.08493">
        <ele>934.1</ele>
        <time>2023-08-15T17:06:00Z</time>
      </trkpt>
      <trkpt lat="42.76453" lon="2.08511">
        <ele>932.8</ele>
        <time>2023-08-15T17:06:04Z</time>
      </trkpt>
      <trkpt lat="42.76443" lon="2.08526">
        <ele>932</ele>
        <time>2023-08-15T17:06:07Z</time>
      </trkpt>
      <trkpt lat="42.76428" lon="2.08544">
        <ele>930.7</ele>
        <time>2023-08-15T17:06:11Z</time>
      </trkpt>
      <trkpt lat="42.76417" lon="2.08556">
        <ele>929.5</ele>
        <time>2023-08-15T17:06:14Z</time>
      </trkpt>
      <trkpt lat="42.76406" lon="2.08569">
        <ele>928.7</ele>
        <time>2023-08-15T17:06:17Z</time>
      </trkpt>
      <trkpt lat="42.76391" lon="2.08584">
        <ele>927.1</ele>
        <time>2023-08-15T17:06:21Z</time>
      </trkpt>
      <trkpt lat="42.76385" lon="2.08593">
        <ele>926.7</ele>
        <time>2023-08-15T17:06:24Z</time>
      </trkpt>
      <trkpt lat="42.76373" lon="2.08607">
        <ele>925.5</ele>
        <time>2023-08-15T17:06:28Z</time>
      </trkpt>
      <trkpt lat="42.76363" lon="2.08619">
        <ele>925.2</ele>
        <time>2023-08-15T17:06:31Z</time>
      </trkpt>
      <trkpt lat="42.76347" lon="2.08637">
        <ele>924</ele>
        <time>2023-08-15T17:06:35Z</time>
      </trkpt>
      <trkpt lat="42.76337" lon="2.08649">
        <ele>923.2</ele>
        <time>2023-08-15T17:06:38Z</time>
      </trkpt>
      <trkpt lat="42.76323" lon="2.08663">
        <ele>921.8</ele>
        <time>2023-08-15T17:06:42Z</time>
      </trkpt>
      <trkpt lat="42.76312" lon="2.08674">
        <ele>921.1</ele>
        <time>2023-08-15T17:06:45Z</time>
      </trkpt>
      <trkpt lat="42.76298" lon="2.08687">
        <ele>919.8</ele>
        <time>2023-08-15T17:06:49Z</time>
      </trkpt>
      <trkpt lat="42.76282" lon="2.08705">
        <ele>917.9</ele>
        <time>2023-08-15T17:06:53Z</time>
      </trkpt>
      <trkpt lat="42.7627" lon="2.08718">
        <ele>917.5</ele>
        <time>2023-08-15T17:06:56Z</time>
      </trkpt>
      <trkpt lat="42.7626" lon="2.08731">
        <ele>916.4</ele>
        <time>2023-08-15T17:06:59Z</time>
      </trkpt>
      <trkpt lat="42.76248" lon="2.08745">
        <ele>915.6</ele>
        <time>2023-08-15T17:07:03Z</time>
      </trkpt>
      <trkpt lat="42.76229" lon="2.08747">
        <ele>914.5</ele>
        <time>2023-08-15T17:07:07Z</time>
      </trkpt>
      <trkpt lat="42.76215" lon="2.08742">
        <ele>912.7</ele>
        <time>2023-08-15T17:07:11Z</time>
      </trkpt>
      <trkpt lat="42.76208" lon="2.08726">
        <ele>911.7</ele>
        <time>2023-08-15T17:07:15Z</time>
      </trkpt>
      <trkpt lat="42.76208" lon="2.08707">
        <ele>910.7</ele>
        <time>2023-08-15T17:07:18Z</time>
      </trkpt>
      <trkpt lat="42.76208" lon="2.08689">
        <ele>910</ele>
        <time>2023-08-15T17:07:21Z</time>
      </trkpt>
      <trkpt lat="42.76206" lon="2.08668">
        <ele>907.6</ele>
        <time>2023-08-15T17:07:25Z</time>
      </trkpt>
      <trkpt lat="42.76199" lon="2.08646">
        <ele>908.1</ele>
        <time>2023-08-15T17:07:29Z</time>
      </trkpt>
      <trkpt lat="42.76193" lon="2.08633">
        <ele>907.3</ele>
        <time>2023-08-15T17:07:32Z</time>
      </trkpt>
      <trkpt lat="42.76184" lon="2.08618">
        <ele>906.2</ele>
        <time>2023-08-15T17:07:35Z</time>
      </trkpt>
      <trkpt lat="42.76171" lon="2.08602">
        <ele>904.3</ele>
        <time>2023-08-15T17:07:39Z</time>
      </trkpt>
      <trkpt lat="42.7616" lon="2.08582">
        <ele>903.8</ele>
        <time>2023-08-15T17:07:43Z</time>
      </trkpt>
      <trkpt lat="42.76151" lon="2.08563">
        <ele>902.1</ele>
        <time>2023-08-15T17:07:47Z</time>
      </trkpt>
      <trkpt lat="42.76145" lon="2.0855">
        <ele>901.9</ele>
        <time>2023-08-15T17:07:50Z</time>
      </trkpt>
      <trkpt lat="42.7614" lon="2.08536">
        <ele>899.5</ele>
        <time>2023-08-15T17:07:53Z</time>
      </trkpt>
      <trkpt lat="42.76133" lon="2.08516">
        <ele>898.4</ele>
        <time>2023-08-15T17:07:57Z</time>
      </trkpt>
      <trkpt lat="42.76131" lon="2.08493">
        <ele>898.5</ele>
        <time>2023-08-15T17:08:01Z</time>
      </trkpt>
      <trkpt lat="42.76129" lon="2.08466">
        <ele>897.9</ele>
        <time>2023-08-15T17:08:05Z</time>
      </trkpt>
      <trkpt lat="42.76118" lon="2.08442">
        <ele>896.6</ele>
        <time>2023-08-15T17:08:09Z</time>
      </trkpt>
      <trkpt lat="42.76109" lon="2.08433">
        <ele>895.4</ele>
        <time>2023-08-15T17:08:13Z</time>
      </trkpt>
      <trkpt lat="42.76104" lon="2.08432">
        <ele>894.8</ele>
        <time>2023-08-15T17:08:18Z</time>
      </trkpt>
      <trkpt lat="42.761" lon="2.08431">
        <ele>893.1</ele>
        <time>2023-08-15T17:08:21Z</time>
      </trkpt>
      <trkpt lat="42.7609" lon="2.08429">
        <ele>892.2</ele>
        <time>2023-08-15T17:08:24Z</time>
      </trkpt>
      <trkpt lat="42.76067" lon="2.08427">
        <ele>890.8</ele>
        <time>2023-08-15T17:08:28Z</time>
      </trkpt>
      <trkpt lat="42.76056" lon="2.08426">
        <ele>890.1</ele>
        <time>2023-08-15T17:08:31Z</time>
      </trkpt>
      <trkpt lat="42.76045" lon="2.08427">
        <ele>890</ele>
        <time>2023-08-15T17:08:34Z</time>
      </trkpt>
      <trkpt lat="42.76026" lon="2.08429">
        <ele>887.4</ele>
        <time>2023-08-15T17:08:38Z</time>
      </trkpt>
      <trkpt lat="42.7601" lon="2.08428">
        <ele>887</ele>
        <time>2023-08-15T17:08:42Z</time>
      </trkpt>
      <trkpt lat="42.75993" lon="2.08426">
        <ele>887</ele>
        <time>2023-08-15T17:08:46Z</time>
      </trkpt>
      <trkpt lat="42.75977" lon="2.08428">
        <ele>882.2</ele>
        <time>2023-08-15T17:08:50Z</time>
      </trkpt>
      <trkpt lat="42.75966" lon="2.08437">
        <ele>882.6</ele>
        <time>2023-08-15T17:08:53Z</time>
      </trkpt>
      <trkpt lat="42.75957" lon="2.0845">
        <ele>881.3</ele>
        <time>2023-08-15T17:08:56Z</time>
      </trkpt>
      <trkpt lat="42.75943" lon="2.08465">
        <ele>880.4</ele>
        <time>2023-08-15T17:09:00Z</time>
      </trkpt>
      <trkpt lat="42.75934" lon="2.08482">
        <ele>879.1</ele>
        <time>2023-08-15T17:09:04Z</time>
      </trkpt>
      <trkpt lat="42.75923" lon="2.08499">
        <ele>877.6</ele>
        <time>2023-08-15T17:09:08Z</time>
      </trkpt>
      <trkpt lat="42.75913" lon="2.08509">
        <ele>876.4</ele>
        <time>2023-08-15T17:09:11Z</time>
      </trkpt>
      <trkpt lat="42.75903" lon="2.08514">
        <ele>874.2</ele>
        <time>2023-08-15T17:09:14Z</time>
      </trkpt>
      <trkpt lat="42.75888" lon="2.08521">
        <ele>873.4</ele>
        <time>2023-08-15T17:09:18Z</time>
      </trkpt>
      <trkpt lat="42.75878" lon="2.08534">
        <ele>872.8</ele>
        <time>2023-08-15T17:09:22Z</time>
      </trkpt>
      <trkpt lat="42.75869" lon="2.08543">
        <ele>871.7</ele>
        <time>2023-08-15T17:09:25Z</time>
      </trkpt>
      <trkpt lat="42.75859" lon="2.08551">
        <ele>871.5</ele>
        <time>2023-08-15T17:09:28Z</time>
      </trkpt>
      <trkpt lat="42.75852" lon="2.08557">
        <ele>870.8</ele>
        <time>2023-08-15T17:09:31Z</time>
      </trkpt>
      <trkpt lat="42.75836" lon="2.08577">
        <ele>868</ele>
        <time>2023-08-15T17:09:35Z</time>
      </trkpt>
      <trkpt lat="42.75828" lon="2.08594">
        <ele>868.6</ele>
        <time>2023-08-15T17:09:39Z</time>
      </trkpt>
      <trkpt lat="42.75821" lon="2.08603">
        <ele>866.2</ele>
        <time>2023-08-15T17:09:42Z</time>
      </trkpt>
      <trkpt lat="42.75802" lon="2.08606">
        <ele>865.5</ele>
        <time>2023-08-15T17:09:47Z</time>
      </trkpt>
      <trkpt lat="42.75791" lon="2.086">
        <ele>864.3</ele>
        <time>2023-08-15T17:09:51Z</time>
      </trkpt>
      <trkpt lat="42.75777" lon="2.08589">
        <ele>863.9</ele>
        <time>2023-08-15T17:09:55Z</time>
      </trkpt>
      <trkpt lat="42.75767" lon="2.08579">
        <ele>863.9</ele>
        <time>2023-08-15T17:09:58Z</time>
      </trkpt>
      <trkpt lat="42.75752" lon="2.08567">
        <ele>862.3</ele>
        <time>2023-08-15T17:10:02Z</time>
      </trkpt>
      <trkpt lat="42.75741" lon="2.0856">
        <ele>860.3</ele>
        <time>2023-08-15T17:10:05Z</time>
      </trkpt>
      <trkpt lat="42.75723" lon="2.08558">
        <ele>857.4</ele>
        <time>2023-08-15T17:10:09Z</time>
      </trkpt>
      <trkpt lat="42.7571" lon="2.08559">
        <ele>857</ele>
        <time>2023-08-15T17:10:12Z</time>
      </trkpt>
      <trkpt lat="42.75691" lon="2.08558">
        <ele>856.4</ele>
        <time>2023-08-15T17:10:16Z</time>
      </trkpt>
      <trkpt lat="42.75677" lon="2.08548">
        <ele>855</ele>
        <time>2023-08-15T17:10:20Z</time>
      </trkpt>
      <trkpt lat="42.75666" lon="2.08539">
        <ele>854.1</ele>
        <time>2023-08-15T17:10:23Z</time>
      </trkpt>
      <trkpt lat="42.7565" lon="2.08533">
        <ele>854.1</ele>
        <time>2023-08-15T17:10:27Z</time>
      </trkpt>
      <trkpt lat="42.75638" lon="2.08536">
        <ele>853.1</ele>
        <time>2023-08-15T17:10:30Z</time>
      </trkpt>
      <trkpt lat="42.75624" lon="2.08542">
        <ele>850.8</ele>
        <time>2023-08-15T17:10:33Z</time>
      </trkpt>
      <trkpt lat="42.75608" lon="2.08544">
        <ele>847.8</ele>
        <time>2023-08-15T17:10:37Z</time>
      </trkpt>
      <trkpt lat="42.75597" lon="2.08534">
        <ele>847.2</ele>
        <time>2023-08-15T17:10:40Z</time>
      </trkpt>
      <trkpt lat="42.75582" lon="2.08521">
        <ele>846.3</ele>
        <time>2023-08-15T17:10:44Z</time>
      </trkpt>
      <trkpt lat="42.75571" lon="2.08514">
        <ele>845.5</ele>
        <time>2023-08-15T17:10:47Z</time>
      </trkpt>
      <trkpt lat="42.75554" lon="2.08523">
        <ele>843.9</ele>
        <time>2023-08-15T17:10:51Z</time>
      </trkpt>
      <trkpt lat="42.75549" lon="2.08527">
        <ele>844.5</ele>
        <time>2023-08-15T17:10:56Z</time>
      </trkpt>
      <trkpt lat="42.75547" lon="2.08531">
        <ele>842.6</ele>
        <time>2023-08-15T17:11:00Z</time>
      </trkpt>
      <trkpt lat="42.75539" lon="2.08547">
        <ele>840.8</ele>
        <time>2023-08-15T17:11:04Z</time>
      </trkpt>
      <trkpt lat="42.75524" lon="2.08559">
        <ele>839.9</ele>
        <time>2023-08-15T17:11:07Z</time>
      </trkpt>
      <trkpt lat="42.75503" lon="2.08561">
        <ele>838.9</ele>
        <time>2023-08-15T17:11:11Z</time>
      </trkpt>
      <trkpt lat="42.75488" lon="2.08556">
        <ele>838.2</ele>
        <time>2023-08-15T17:11:14Z</time>
      </trkpt>
      <trkpt lat="42.75471" lon="2.08543">
        <ele>837.1</ele>
        <time>2023-08-15T17:11:18Z</time>
      </trkpt>
      <trkpt lat="42.75453" lon="2.08533">
        <ele>837.1</ele>
        <time>2023-08-15T17:11:22Z</time>
      </trkpt>
      <trkpt lat="42.75434" lon="2.08535">
        <ele>835.8</ele>
        <time>2023-08-15T17:11:26Z</time>
      </trkpt>
      <trkpt lat="42.75418" lon="2.08548">
        <ele>832.9</ele>
        <time>2023-08-15T17:11:30Z</time>
      </trkpt>
      <trkpt lat="42.75405" lon="2.08568">
        <ele>830.6</ele>
        <time>2023-08-15T17:11:34Z</time>
      </trkpt>
      <trkpt lat="42.75396" lon="2.08582">
        <ele>828.9</ele>
        <time>2023-08-15T17:11:37Z</time>
      </trkpt>
      <trkpt lat="42.75382" lon="2.08591">
        <ele>828.4</ele>
        <time>2023-08-15T17:11:41Z</time>
      </trkpt>
      <trkpt lat="42.75368" lon="2.08585">
        <ele>828.2</ele>
        <time>2023-08-15T17:11:44Z</time>
      </trkpt>
      <trkpt lat="42.75356" lon="2.08577">
        <ele>826.9</ele>
        <time>2023-08-15T17:11:47Z</time>
      </trkpt>
      <trkpt lat="42.7534" lon="2.08573">
        <ele>827.1</ele>
        <time>2023-08-15T17:11:51Z</time>
      </trkpt>
      <trkpt lat="42.75329" lon="2.08573">
        <ele>826.2</ele>
        <time>2023-08-15T17:11:54Z</time>
      </trkpt>
      <trkpt lat="42.75318" lon="2.08572">
        <ele>824.4</ele>
        <time>2023-08-15T17:11:58Z</time>
      </trkpt>
      <trkpt lat="42.75307" lon="2.08568">
        <ele>822.3</ele>
        <time>2023-08-15T17:12:01Z</time>
      </trkpt>
      <trkpt lat="42.75289" lon="2.08552">
        <ele>820.7</ele>
        <time>2023-08-15T17:12:05Z</time>
      </trkpt>
      <trkpt lat="42.75276" lon="2.08543">
        <ele>819.1</ele>
        <time>2023-08-15T17:12:08Z</time>
      </trkpt>
      <trkpt lat="42.75264" lon="2.08532">
        <ele>819.3</ele>
        <time>2023-08-15T17:12:11Z</time>
      </trkpt>
      <trkpt lat="42.7525" lon="2.08512">
        <ele>817.8</ele>
        <time>2023-08-15T17:12:15Z</time>
      </trkpt>
      <trkpt lat="42.75236" lon="2.08496">
        <ele>817.3</ele>
        <time>2023-08-15T17:12:19Z</time>
      </trkpt>
      <trkpt lat="42.75223" lon="2.08487">
        <ele>817</ele>
        <time>2023-08-15T17:12:22Z</time>
      </trkpt>
      <trkpt lat="42.7521" lon="2.08473">
        <ele>815</ele>
        <time>2023-08-15T17:12:26Z</time>
      </trkpt>
      <trkpt lat="42.75205" lon="2.08445">
        <ele>811.9</ele>
        <time>2023-08-15T17:12:30Z</time>
      </trkpt>
      <trkpt lat="42.75205" lon="2.08424">
        <ele>810.9</ele>
        <time>2023-08-15T17:12:33Z</time>
      </trkpt>
      <trkpt lat="42.75205" lon="2.08403">
        <ele>809.5</ele>
        <time>2023-08-15T17:12:36Z</time>
      </trkpt>
      <trkpt lat="42.75203" lon="2.08379">
        <ele>809.9</ele>
        <time>2023-08-15T17:12:39Z</time>
      </trkpt>
      <trkpt lat="42.75201" lon="2.08355">
        <ele>809.5</ele>
        <time>2023-08-15T17:12:42Z</time>
      </trkpt>
      <trkpt lat="42.75199" lon="2.08334">
        <ele>808.9</ele>
        <time>2023-08-15T17:12:45Z</time>
      </trkpt>
      <trkpt lat="42.75186" lon="2.08315">
        <ele>807.9</ele>
        <time>2023-08-15T17:12:49Z</time>
      </trkpt>
      <trkpt lat="42.7517" lon="2.08314">
        <ele>807.5</ele>
        <time>2023-08-15T17:12:52Z</time>
      </trkpt>
      <trkpt lat="42.75156" lon="2.08324">
        <ele>806.2</ele>
        <time>2023-08-15T17:12:55Z</time>
      </trkpt>
      <trkpt lat="42.75147" lon="2.08352">
        <ele>805.2</ele>
        <time>2023-08-15T17:12:59Z</time>
      </trkpt>
      <trkpt lat="42.75144" lon="2.08379">
        <ele>804.1</ele>
        <time>2023-08-15T17:13:03Z</time>
      </trkpt>
      <trkpt lat="42.7514" lon="2.08405">
        <ele>803.2</ele>
        <time>2023-08-15T17:13:07Z</time>
      </trkpt>
      <trkpt lat="42.75136" lon="2.08425">
        <ele>803.2</ele>
        <time>2023-08-15T17:13:11Z</time>
      </trkpt>
      <trkpt lat="42.7513" lon="2.08442">
        <ele>802</ele>
        <time>2023-08-15T17:13:15Z</time>
      </trkpt>
      <trkpt lat="42.75124" lon="2.08454">
        <ele>800.7</ele>
        <time>2023-08-15T17:13:18Z</time>
      </trkpt>
      <trkpt lat="42.75116" lon="2.08456">
        <ele>801.3</ele>
        <time>2023-08-15T17:13:21Z</time>
      </trkpt>
      <trkpt lat="42.75099" lon="2.08453">
        <ele>800.4</ele>
        <time>2023-08-15T17:13:25Z</time>
      </trkpt>
      <trkpt lat="42.75074" lon="2.08457">
        <ele>801.5</ele>
        <time>2023-08-15T17:13:29Z</time>
      </trkpt>
      <trkpt lat="42.75055" lon="2.08463">
        <ele>802.6</ele>
        <time>2023-08-15T17:13:32Z</time>
      </trkpt>
      <trkpt lat="42.75033" lon="2.08471">
        <ele>803.8</ele>
        <time>2023-08-15T17:13:36Z</time>
      </trkpt>
      <trkpt lat="42.75011" lon="2.0848">
        <ele>804.3</ele>
        <time>2023-08-15T17:13:40Z</time>
      </trkpt>
      <trkpt lat="42.74991" lon="2.08485">
        <ele>806.2</ele>
        <time>2023-08-15T17:13:43Z</time>
      </trkpt>
      <trkpt lat="42.74971" lon="2.08481">
        <ele>807.4</ele>
        <time>2023-08-15T17:13:46Z</time>
      </trkpt>
      <trkpt lat="42.74952" lon="2.0847">
        <ele>807.7</ele>
        <time>2023-08-15T17:13:49Z</time>
      </trkpt>
      <trkpt lat="42.74926" lon="2.08462">
        <ele>808.5</ele>
        <time>2023-08-15T17:13:53Z</time>
      </trkpt>
      <trkpt lat="42.74907" lon="2.08463">
        <ele>809.5</ele>
        <time>2023-08-15T17:13:56Z</time>
      </trkpt>
      <trkpt lat="42.74881" lon="2.08468">
        <ele>810.6</ele>
        <time>2023-08-15T17:14:00Z</time>
      </trkpt>
      <trkpt lat="42.74855" lon="2.08456">
        <ele>811.8</ele>
        <time>2023-08-15T17:14:04Z</time>
      </trkpt>
      <trkpt lat="42.74828" lon="2.08443">
        <ele>811.4</ele>
        <time>2023-08-15T17:14:08Z</time>
      </trkpt>
      <trkpt lat="42.74805" lon="2.08439">
        <ele>813.2</ele>
        <time>2023-08-15T17:14:11Z</time>
      </trkpt>
      <trkpt lat="42.74779" lon="2.08441">
        <ele>814.2</ele>
        <time>2023-08-15T17:14:15Z</time>
      </trkpt>
      <trkpt lat="42.74755" lon="2.08453">
        <ele>813.3</ele>
        <time>2023-08-15T17:14:19Z</time>
      </trkpt>
      <trkpt lat="42.74733" lon="2.08476">
        <ele>813.3</ele>
        <time>2023-08-15T17:14:23Z</time>
      </trkpt>
      <trkpt lat="42.74714" lon="2.08487">
        <ele>812.8</ele>
        <time>2023-08-15T17:14:26Z</time>
      </trkpt>
      <trkpt lat="42.74689" lon="2.08496">
        <ele>813.4</ele>
        <time>2023-08-15T17:14:30Z</time>
      </trkpt>
      <trkpt lat="42.74664" lon="2.08505">
        <ele>814</ele>
        <time>2023-08-15T17:14:34Z</time>
      </trkpt>
      <trkpt lat="42.74641" lon="2.08516">
        <ele>813.5</ele>
        <time>2023-08-15T17:14:38Z</time>
      </trkpt>
      <trkpt lat="42.7462" lon="2.08533">
        <ele>814.9</ele>
        <time>2023-08-15T17:14:42Z</time>
      </trkpt>
      <trkpt lat="42.74604" lon="2.0855">
        <ele>814.9</ele>
        <time>2023-08-15T17:14:45Z</time>
      </trkpt>
      <trkpt lat="42.74585" lon="2.08575">
        <ele>814.2</ele>
        <time>2023-08-15T17:14:49Z</time>
      </trkpt>
      <trkpt lat="42.74567" lon="2.08593">
        <ele>814.5</ele>
        <time>2023-08-15T17:14:52Z</time>
      </trkpt>
      <trkpt lat="42.74545" lon="2.08604">
        <ele>814.7</ele>
        <time>2023-08-15T17:14:55Z</time>
      </trkpt>
      <trkpt lat="42.74516" lon="2.08608">
        <ele>815.1</ele>
        <time>2023-08-15T17:14:59Z</time>
      </trkpt>
      <trkpt lat="42.74495" lon="2.08611">
        <ele>815.3</ele>
        <time>2023-08-15T17:15:02Z</time>
      </trkpt>
      <trkpt lat="42.7447" lon="2.08614">
        <ele>814.5</ele>
        <time>2023-08-15T17:15:06Z</time>
      </trkpt>
      <trkpt lat="42.74444" lon="2.08612">
        <ele>816</ele>
        <time>2023-08-15T17:15:10Z</time>
      </trkpt>
      <trkpt lat="42.7442" lon="2.08612">
        <ele>815.8</ele>
        <time>2023-08-15T17:15:14Z</time>
      </trkpt>
      <trkpt lat="42.74403" lon="2.08614">
        <ele>817.4</ele>
        <time>2023-08-15T17:15:17Z</time>
      </trkpt>
      <trkpt lat="42.74382" lon="2.0863">
        <ele>818.2</ele>
        <time>2023-08-15T17:15:21Z</time>
      </trkpt>
      <trkpt lat="42.74371" lon="2.08648">
        <ele>818.7</ele>
        <time>2023-08-15T17:15:24Z</time>
      </trkpt>
      <trkpt lat="42.74363" lon="2.08674">
        <ele>818.9</ele>
        <time>2023-08-15T17:15:28Z</time>
      </trkpt>
      <trkpt lat="42.74352" lon="2.08693">
        <ele>820.7</ele>
        <time>2023-08-15T17:15:31Z</time>
      </trkpt>
      <trkpt lat="42.7433" lon="2.08696">
        <ele>821.1</ele>
        <time>2023-08-15T17:15:34Z</time>
      </trkpt>
      <trkpt lat="42.74299" lon="2.0868">
        <ele>822.1</ele>
        <time>2023-08-15T17:15:38Z</time>
      </trkpt>
      <trkpt lat="42.74278" lon="2.08677">
        <ele>823.6</ele>
        <time>2023-08-15T17:15:41Z</time>
      </trkpt>
      <trkpt lat="42.74255" lon="2.0869">
        <ele>824.9</ele>
        <time>2023-08-15T17:15:45Z</time>
      </trkpt>
      <trkpt lat="42.74242" lon="2.0872">
        <ele>826.3</ele>
        <time>2023-08-15T17:15:49Z</time>
      </trkpt>
      <trkpt lat="42.74233" lon="2.08742">
        <ele>826.9</ele>
        <time>2023-08-15T17:15:52Z</time>
      </trkpt>
      <trkpt lat="42.7422" lon="2.08764">
        <ele>827</ele>
        <time>2023-08-15T17:15:55Z</time>
      </trkpt>
      <trkpt lat="42.74198" lon="2.08777">
        <ele>829.1</ele>
        <time>2023-08-15T17:15:59Z</time>
      </trkpt>
      <trkpt lat="42.74188" lon="2.08765">
        <ele>829.5</ele>
        <time>2023-08-15T17:16:02Z</time>
      </trkpt>
      <trkpt lat="42.74173" lon="2.08741">
        <ele>830.1</ele>
        <time>2023-08-15T17:16:06Z</time>
      </trkpt>
      <trkpt lat="42.74152" lon="2.08718">
        <ele>832.7</ele>
        <time>2023-08-15T17:16:10Z</time>
      </trkpt>
      <trkpt lat="42.74135" lon="2.08704">
        <ele>833.6</ele>
        <time>2023-08-15T17:16:13Z</time>
      </trkpt>
      <trkpt lat="42.74109" lon="2.08693">
        <ele>835.5</ele>
        <time>2023-08-15T17:16:17Z</time>
      </trkpt>
      <trkpt lat="42.7408" lon="2.08697">
        <ele>836.5</ele>
        <time>2023-08-15T17:16:21Z</time>
      </trkpt>
      <trkpt lat="42.74051" lon="2.08709">
        <ele>837.1</ele>
        <time>2023-08-15T17:16:25Z</time>
      </trkpt>
      <trkpt lat="42.74027" lon="2.08731">
        <ele>838.9</ele>
        <time>2023-08-15T17:16:29Z</time>
      </trkpt>
      <trkpt lat="42.74009" lon="2.08757">
        <ele>839</ele>
        <time>2023-08-15T17:16:33Z</time>
      </trkpt>
      <trkpt lat="42.73993" lon="2.08783">
        <ele>841.1</ele>
        <time>2023-08-15T17:16:37Z</time>
      </trkpt>
      <trkpt lat="42.73972" lon="2.08783">
        <ele>841.9</ele>
        <time>2023-08-15T17:16:41Z</time>
      </trkpt>
      <trkpt lat="42.73951" lon="2.08767">
        <ele>843.2</ele>
        <time>2023-08-15T17:16:45Z</time>
      </trkpt>
      <trkpt lat="42.73935" lon="2.08757">
        <ele>843.8</ele>
        <time>2023-08-15T17:16:48Z</time>
      </trkpt>
      <trkpt lat="42.73912" lon="2.08751">
        <ele>844.5</ele>
        <time>2023-08-15T17:16:52Z</time>
      </trkpt>
      <trkpt lat="42.73899" lon="2.08775">
        <ele>846.4</ele>
        <time>2023-08-15T17:16:56Z</time>
      </trkpt>
      <trkpt lat="42.73888" lon="2.08799">
        <ele>848.1</ele>
        <time>2023-08-15T17:16:59Z</time>
      </trkpt>
      <trkpt lat="42.73872" lon="2.08826">
        <ele>849.1</ele>
        <time>2023-08-15T17:17:03Z</time>
      </trkpt>
      <trkpt lat="42.7385" lon="2.08847">
        <ele>850.5</ele>
        <time>2023-08-15T17:17:07Z</time>
      </trkpt>
      <trkpt lat="42.73829" lon="2.08858">
        <ele>851.3</ele>
        <time>2023-08-15T17:17:10Z</time>
      </trkpt>
      <trkpt lat="42.73803" lon="2.08872">
        <ele>852.4</ele>
        <time>2023-08-15T17:17:14Z</time>
      </trkpt>
      <trkpt lat="42.73787" lon="2.08882">
        <ele>852.1</ele>
        <time>2023-08-15T17:17:17Z</time>
      </trkpt>
      <trkpt lat="42.73769" lon="2.08894">
        <ele>852.5</ele>
        <time>2023-08-15T17:17:20Z</time>
      </trkpt>
      <trkpt lat="42.73746" lon="2.08911">
        <ele>853</ele>
        <time>2023-08-15T17:17:24Z</time>
      </trkpt>
      <trkpt lat="42.73724" lon="2.0893">
        <ele>853.6</ele>
        <time>2023-08-15T17:17:28Z</time>
      </trkpt>
      <trkpt lat="42.73708" lon="2.08942">
        <ele>853.4</ele>
        <time>2023-08-15T17:17:31Z</time>
      </trkpt>
      <trkpt lat="42.73692" lon="2.08957">
        <ele>853.2</ele>
        <time>2023-08-15T17:17:34Z</time>
      </trkpt>
      <trkpt lat="42.73675" lon="2.08971">
        <ele>854.3</ele>
        <time>2023-08-15T17:17:37Z</time>
      </trkpt>
      <trkpt lat="42.73652" lon="2.0899">
        <ele>855.1</ele>
        <time>2023-08-15T17:17:41Z</time>
      </trkpt>
      <trkpt lat="42.73635" lon="2.09004">
        <ele>855.2</ele>
        <time>2023-08-15T17:17:44Z</time>
      </trkpt>
      <trkpt lat="42.73615" lon="2.09027">
        <ele>856.6</ele>
        <time>2023-08-15T17:17:48Z</time>
      </trkpt>
      <trkpt lat="42.73599" lon="2.09048">
        <ele>855.3</ele>
        <time>2023-08-15T17:17:51Z</time>
      </trkpt>
      <trkpt lat="42.73578" lon="2.09075">
        <ele>856.4</ele>
        <time>2023-08-15T17:17:55Z</time>
      </trkpt>
      <trkpt lat="42.7356" lon="2.091">
        <ele>856.3</ele>
        <time>2023-08-15T17:17:59Z</time>
      </trkpt>
      <trkpt lat="42.73542" lon="2.09126">
        <ele>856.3</ele>
        <time>2023-08-15T17:18:03Z</time>
      </trkpt>
      <trkpt lat="42.73524" lon="2.09153">
        <ele>857.5</ele>
        <time>2023-08-15T17:18:07Z</time>
      </trkpt>
      <trkpt lat="42.73508" lon="2.09181">
        <ele>858.8</ele>
        <time>2023-08-15T17:18:11Z</time>
      </trkpt>
      <trkpt lat="42.73496" lon="2.09205">
        <ele>859.1</ele>
        <time>2023-08-15T17:18:14Z</time>
      </trkpt>
      <trkpt lat="42.73488" lon="2.09243">
        <ele>859.6</ele>
        <time>2023-08-15T17:18:18Z</time>
      </trkpt>
      <trkpt lat="42.73482" lon="2.0927">
        <ele>859.5</ele>
        <time>2023-08-15T17:18:21Z</time>
      </trkpt>
      <trkpt lat="42.73479" lon="2.09302">
        <ele>860.3</ele>
        <time>2023-08-15T17:18:25Z</time>
      </trkpt>
      <trkpt lat="42.73483" lon="2.09335">
        <ele>860.1</ele>
        <time>2023-08-15T17:18:29Z</time>
      </trkpt>
      <trkpt lat="42.73484" lon="2.09362">
        <ele>860.7</ele>
        <time>2023-08-15T17:18:32Z</time>
      </trkpt>
      <trkpt lat="42.7347" lon="2.09395">
        <ele>862.6</ele>
        <time>2023-08-15T17:18:36Z</time>
      </trkpt>
      <trkpt lat="42.73451" lon="2.0941">
        <ele>863.7</ele>
        <time>2023-08-15T17:18:39Z</time>
      </trkpt>
      <trkpt lat="42.73436" lon="2.09427">
        <ele>864.1</ele>
        <time>2023-08-15T17:18:42Z</time>
      </trkpt>
      <trkpt lat="42.73419" lon="2.09452">
        <ele>864.3</ele>
        <time>2023-08-15T17:18:46Z</time>
      </trkpt>
      <trkpt lat="42.73406" lon="2.09481">
        <ele>864.3</ele>
        <time>2023-08-15T17:18:50Z</time>
      </trkpt>
      <trkpt lat="42.73396" lon="2.09505">
        <ele>865.6</ele>
        <time>2023-08-15T17:18:53Z</time>
      </trkpt>
      <trkpt lat="42.73383" lon="2.09536">
        <ele>865.8</ele>
        <time>2023-08-15T17:18:57Z</time>
      </trkpt>
      <trkpt lat="42.73371" lon="2.09568">
        <ele>866.3</ele>
        <time>2023-08-15T17:19:01Z</time>
      </trkpt>
      <trkpt lat="42.73363" lon="2.09593">
        <ele>867.4</ele>
        <time>2023-08-15T17:19:04Z</time>
      </trkpt>
      <trkpt lat="42.73349" lon="2.09624">
        <ele>869.3</ele>
        <time>2023-08-15T17:19:08Z</time>
      </trkpt>
      <trkpt lat="42.73335" lon="2.09655">
        <ele>870.2</ele>
        <time>2023-08-15T17:19:12Z</time>
      </trkpt>
      <trkpt lat="42.73327" lon="2.0968">
        <ele>870.8</ele>
        <time>2023-08-15T17:19:15Z</time>
      </trkpt>
      <trkpt lat="42.73323" lon="2.09706">
        <ele>870.8</ele>
        <time>2023-08-15T17:19:18Z</time>
      </trkpt>
      <trkpt lat="42.73324" lon="2.09746">
        <ele>872.3</ele>
        <time>2023-08-15T17:19:22Z</time>
      </trkpt>
      <trkpt lat="42.73336" lon="2.09784">
        <ele>872.5</ele>
        <time>2023-08-15T17:19:26Z</time>
      </trkpt>
      <trkpt lat="42.73343" lon="2.09807">
        <ele>872.7</ele>
        <time>2023-08-15T17:19:29Z</time>
      </trkpt>
      <trkpt lat="42.73352" lon="2.09841">
        <ele>874.2</ele>
        <time>2023-08-15T17:19:33Z</time>
      </trkpt>
      <trkpt lat="42.73354" lon="2.09876">
        <ele>875.6</ele>
        <time>2023-08-15T17:19:37Z</time>
      </trkpt>
      <trkpt lat="42.73349" lon="2.09909">
        <ele>876.4</ele>
        <time>2023-08-15T17:19:41Z</time>
      </trkpt>
      <trkpt lat="42.7334" lon="2.09932">
        <ele>876.9</ele>
        <time>2023-08-15T17:19:44Z</time>
      </trkpt>
      <trkpt lat="42.73324" lon="2.0996">
        <ele>876.8</ele>
        <time>2023-08-15T17:19:48Z</time>
      </trkpt>
      <trkpt lat="42.73307" lon="2.09977">
        <ele>878.5</ele>
        <time>2023-08-15T17:19:51Z</time>
      </trkpt>
      <trkpt lat="42.73288" lon="2.09989">
        <ele>878.6</ele>
        <time>2023-08-15T17:19:54Z</time>
      </trkpt>
      <trkpt lat="42.73264" lon="2.10003">
        <ele>878.8</ele>
        <time>2023-08-15T17:19:58Z</time>
      </trkpt>
      <trkpt lat="42.73249" lon="2.10019">
        <ele>880.2</ele>
        <time>2023-08-15T17:20:01Z</time>
      </trkpt>
      <trkpt lat="42.73236" lon="2.10041">
        <ele>881.2</ele>
        <time>2023-08-15T17:20:04Z</time>
      </trkpt>
      <trkpt lat="42.73213" lon="2.1006">
        <ele>882.4</ele>
        <time>2023-08-15T17:20:08Z</time>
      </trkpt>
      <trkpt lat="42.73197" lon="2.10078">
        <ele>882.1</ele>
        <time>2023-08-15T17:20:11Z</time>
      </trkpt>
      <trkpt lat="42.73188" lon="2.10117">
        <ele>882.7</ele>
        <time>2023-08-15T17:20:15Z</time>
      </trkpt>
      <trkpt lat="42.73185" lon="2.10154">
        <ele>883.6</ele>
        <time>2023-08-15T17:20:19Z</time>
      </trkpt>
      <trkpt lat="42.73186" lon="2.10187">
        <ele>883.4</ele>
        <time>2023-08-15T17:20:23Z</time>
      </trkpt>
      <trkpt lat="42.73184" lon="2.10222">
        <ele>884.4</ele>
        <time>2023-08-15T17:20:27Z</time>
      </trkpt>
      <trkpt lat="42.73173" lon="2.10246">
        <ele>885.7</ele>
        <time>2023-08-15T17:20:30Z</time>
      </trkpt>
      <trkpt lat="42.73156" lon="2.10262">
        <ele>887</ele>
        <time>2023-08-15T17:20:33Z</time>
      </trkpt>
      <trkpt lat="42.73133" lon="2.10284">
        <ele>887.6</ele>
        <time>2023-08-15T17:20:37Z</time>
      </trkpt>
      <trkpt lat="42.73117" lon="2.103">
        <ele>886.4</ele>
        <time>2023-08-15T17:20:40Z</time>
      </trkpt>
      <trkpt lat="42.731" lon="2.10322">
        <ele>886.9</ele>
        <time>2023-08-15T17:20:44Z</time>
      </trkpt>
      <trkpt lat="42.73088" lon="2.1034">
        <ele>886.8</ele>
        <time>2023-08-15T17:20:47Z</time>
      </trkpt>
      <trkpt lat="42.73075" lon="2.10369">
        <ele>888.3</ele>
        <time>2023-08-15T17:20:51Z</time>
      </trkpt>
      <trkpt lat="42.73063" lon="2.1039">
        <ele>888.1</ele>
        <time>2023-08-15T17:20:54Z</time>
      </trkpt>
      <trkpt lat="42.73041" lon="2.10413">
        <ele>890.1</ele>
        <time>2023-08-15T17:20:58Z</time>
      </trkpt>
      <trkpt lat="42.73021" lon="2.10427">
        <ele>891.4</ele>
        <time>2023-08-15T17:21:01Z</time>
      </trkpt>
      <trkpt lat="42.72995" lon="2.10443">
        <ele>891.3</ele>
        <time>2023-08-15T17:21:05Z</time>
      </trkpt>
      <trkpt lat="42.72975" lon="2.10455">
        <ele>890.5</ele>
        <time>2023-08-15T17:21:08Z</time>
      </trkpt>
      <trkpt lat="42.72956" lon="2.10468">
        <ele>890.8</ele>
        <time>2023-08-15T17:21:11Z</time>
      </trkpt>
      <trkpt lat="42.7294" lon="2.10482">
        <ele>892</ele>
        <time>2023-08-15T17:21:14Z</time>
      </trkpt>
      <trkpt lat="42.72925" lon="2.10505">
        <ele>893</ele>
        <time>2023-08-15T17:21:18Z</time>
      </trkpt>
      <trkpt lat="42.72916" lon="2.10538">
        <ele>893</ele>
        <time>2023-08-15T17:21:22Z</time>
      </trkpt>
      <trkpt lat="42.7291" lon="2.10576">
        <ele>894.7</ele>
        <time>2023-08-15T17:21:26Z</time>
      </trkpt>
      <trkpt lat="42.72909" lon="2.10603">
        <ele>895.8</ele>
        <time>2023-08-15T17:21:29Z</time>
      </trkpt>
      <trkpt lat="42.72905" lon="2.10629">
        <ele>896.1</ele>
        <time>2023-08-15T17:21:32Z</time>
      </trkpt>
      <trkpt lat="42.72887" lon="2.10655">
        <ele>896.2</ele>
        <time>2023-08-15T17:21:36Z</time>
      </trkpt>
      <trkpt lat="42.72865" lon="2.10676">
        <ele>895.8</ele>
        <time>2023-08-15T17:21:40Z</time>
      </trkpt>
      <trkpt lat="42.72841" lon="2.10696">
        <ele>897.7</ele>
        <time>2023-08-15T17:21:44Z</time>
      </trkpt>
      <trkpt lat="42.7282" lon="2.10716">
        <ele>897.9</ele>
        <time>2023-08-15T17:21:48Z</time>
      </trkpt>
      <trkpt lat="42.72807" lon="2.10732">
        <ele>897.9</ele>
        <time>2023-08-15T17:21:51Z</time>
      </trkpt>
      <trkpt lat="42.72794" lon="2.10751">
        <ele>899.9</ele>
        <time>2023-08-15T17:21:55Z</time>
      </trkpt>
      <trkpt lat="42.72781" lon="2.10783">
        <ele>900.3</ele>
        <time>2023-08-15T17:21:59Z</time>
      </trkpt>
      <trkpt lat="42.72777" lon="2.10809">
        <ele>900.4</ele>
        <time>2023-08-15T17:22:02Z</time>
      </trkpt>
      <trkpt lat="42.72775" lon="2.10838">
        <ele>899.8</ele>
        <time>2023-08-15T17:22:05Z</time>
      </trkpt>
      <trkpt lat="42.72772" lon="2.10879">
        <ele>901.3</ele>
        <time>2023-08-15T17:22:09Z</time>
      </trkpt>
      <trkpt lat="42.72771" lon="2.10907">
        <ele>902.2</ele>
        <time>2023-08-15T17:22:12Z</time>
      </trkpt>
      <trkpt lat="42.72766" lon="2.10941">
        <ele>903.6</ele>
        <time>2023-08-15T17:22:16Z</time>
      </trkpt>
      <trkpt lat="42.72757" lon="2.10965">
        <ele>903.4</ele>
        <time>2023-08-15T17:22:19Z</time>
      </trkpt>
      <trkpt lat="42.72741" lon="2.10995">
        <ele>905</ele>
        <time>2023-08-15T17:22:23Z</time>
      </trkpt>
      <trkpt lat="42.72729" lon="2.11015">
        <ele>906.3</ele>
        <time>2023-08-15T17:22:26Z</time>
      </trkpt>
      <trkpt lat="42.72721" lon="2.11039">
        <ele>907</ele>
        <time>2023-08-15T17:22:29Z</time>
      </trkpt>
      <trkpt lat="42.72723" lon="2.11074">
        <ele>906.7</ele>
        <time>2023-08-15T17:22:33Z</time>
      </trkpt>
      <trkpt lat="42.72732" lon="2.11098">
        <ele>906</ele>
        <time>2023-08-15T17:22:36Z</time>
      </trkpt>
      <trkpt lat="42.72736" lon="2.11137">
        <ele>907.8</ele>
        <time>2023-08-15T17:22:40Z</time>
      </trkpt>
      <trkpt lat="42.72727" lon="2.11173">
        <ele>909</ele>
        <time>2023-08-15T17:22:44Z</time>
      </trkpt>
      <trkpt lat="42.7271" lon="2.11198">
        <ele>909.4</ele>
        <time>2023-08-15T17:22:48Z</time>
      </trkpt>
      <trkpt lat="42.72695" lon="2.11213">
        <ele>910.9</ele>
        <time>2023-08-15T17:22:51Z</time>
      </trkpt>
      <trkpt lat="42.72671" lon="2.11227">
        <ele>912.1</ele>
        <time>2023-08-15T17:22:55Z</time>
      </trkpt>
      <trkpt lat="42.72643" lon="2.11236">
        <ele>912.7</ele>
        <time>2023-08-15T17:22:59Z</time>
      </trkpt>
      <trkpt lat="42.72627" lon="2.11251">
        <ele>913</ele>
        <time>2023-08-15T17:23:02Z</time>
      </trkpt>
      <trkpt lat="42.72607" lon="2.11275">
        <ele>912.9</ele>
        <time>2023-08-15T17:23:06Z</time>
      </trkpt>
      <trkpt lat="42.72582" lon="2.1129">
        <ele>914.4</ele>
        <time>2023-08-15T17:23:10Z</time>
      </trkpt>
      <trkpt lat="42.72555" lon="2.11299">
        <ele>915.7</ele>
        <time>2023-08-15T17:23:14Z</time>
      </trkpt>
      <trkpt lat="42.72534" lon="2.11321">
        <ele>915.3</ele>
        <time>2023-08-15T17:23:18Z</time>
      </trkpt>
      <trkpt lat="42.72519" lon="2.11339">
        <ele>916.5</ele>
        <time>2023-08-15T17:23:21Z</time>
      </trkpt>
      <trkpt lat="42.72504" lon="2.11367">
        <ele>917.7</ele>
        <time>2023-08-15T17:23:25Z</time>
      </trkpt>
      <trkpt lat="42.72494" lon="2.11401">
        <ele>918.2</ele>
        <time>2023-08-15T17:23:29Z</time>
      </trkpt>
      <trkpt lat="42.72495" lon="2.1143">
        <ele>917.4</ele>
        <time>2023-08-15T17:23:32Z</time>
      </trkpt>
      <trkpt lat="42.72498" lon="2.11471">
        <ele>918</ele>
        <time>2023-08-15T17:23:36Z</time>
      </trkpt>
      <trkpt lat="42.72489" lon="2.11503">
        <ele>920.5</ele>
        <time>2023-08-15T17:23:40Z</time>
      </trkpt>
      <trkpt lat="42.72478" lon="2.11535">
        <ele>920.5</ele>
        <time>2023-08-15T17:23:44Z</time>
      </trkpt>
      <trkpt lat="42.72461" lon="2.11563">
        <ele>921.4</ele>
        <time>2023-08-15T17:23:48Z</time>
      </trkpt>
      <trkpt lat="42.72443" lon="2.11589">
        <ele>923</ele>
        <time>2023-08-15T17:23:52Z</time>
      </trkpt>
      <trkpt lat="42.72426" lon="2.11615">
        <ele>923.5</ele>
        <time>2023-08-15T17:23:56Z</time>
      </trkpt>
      <trkpt lat="42.72414" lon="2.11644">
        <ele>923.1</ele>
        <time>2023-08-15T17:24:00Z</time>
      </trkpt>
      <trkpt lat="42.7241" lon="2.11669">
        <ele>923.6</ele>
        <time>2023-08-15T17:24:03Z</time>
      </trkpt>
      <trkpt lat="42.72412" lon="2.11693">
        <ele>924.6</ele>
        <time>2023-08-15T17:24:06Z</time>
      </trkpt>
      <trkpt lat="42.72417" lon="2.11725">
        <ele>926.7</ele>
        <time>2023-08-15T17:24:10Z</time>
      </trkpt>
      <trkpt lat="42.72402" lon="2.11754">
        <ele>927</ele>
        <time>2023-08-15T17:24:14Z</time>
      </trkpt>
      <trkpt lat="42.72383" lon="2.11764">
        <ele>928.1</ele>
        <time>2023-08-15T17:24:17Z</time>
      </trkpt>
      <trkpt lat="42.72362" lon="2.11766">
        <ele>928.6</ele>
        <time>2023-08-15T17:24:20Z</time>
      </trkpt>
      <trkpt lat="42.72342" lon="2.1177">
        <ele>929.5</ele>
        <time>2023-08-15T17:24:23Z</time>
      </trkpt>
      <trkpt lat="42.72315" lon="2.11773">
        <ele>929.2</ele>
        <time>2023-08-15T17:24:27Z</time>
      </trkpt>
      <trkpt lat="42.7229" lon="2.11786">
        <ele>929.7</ele>
        <time>2023-08-15T17:24:31Z</time>
      </trkpt>
      <trkpt lat="42.7227" lon="2.11812">
        <ele>931.1</ele>
        <time>2023-08-15T17:24:35Z</time>
      </trkpt>
      <trkpt lat="42.72257" lon="2.11832">
        <ele>932.5</ele>
        <time>2023-08-15T17:24:38Z</time>
      </trkpt>
      <trkpt lat="42.7224" lon="2.11857">
        <ele>933.2</ele>
        <time>2023-08-15T17:24:42Z</time>
      </trkpt>
      <trkpt lat="42.72225" lon="2.11871">
        <ele>934</ele>
        <time>2023-08-15T17:24:45Z</time>
      </trkpt>
      <trkpt lat="42.72205" lon="2.11891">
        <ele>935.9</ele>
        <time>2023-08-15T17:24:49Z</time>
      </trkpt>
      <trkpt lat="42.72191" lon="2.11921">
        <ele>936.4</ele>
        <time>2023-08-15T17:24:53Z</time>
      </trkpt>
      <trkpt lat="42.72183" lon="2.11948">
        <ele>936.7</ele>
        <time>2023-08-15T17:24:56Z</time>
      </trkpt>
      <trkpt lat="42.72177" lon="2.11976">
        <ele>936.4</ele>
        <time>2023-08-15T17:24:59Z</time>
      </trkpt>
      <trkpt lat="42.72173" lon="2.12014">
        <ele>937.8</ele>
        <time>2023-08-15T17:25:03Z</time>
      </trkpt>
      <trkpt lat="42.72171" lon="2.12041">
        <ele>939.4</ele>
        <time>2023-08-15T17:25:06Z</time>
      </trkpt>
      <trkpt lat="42.72166" lon="2.12075">
        <ele>940.4</ele>
        <time>2023-08-15T17:25:10Z</time>
      </trkpt>
      <trkpt lat="42.72157" lon="2.12098">
        <ele>941.1</ele>
        <time>2023-08-15T17:25:13Z</time>
      </trkpt>
      <trkpt lat="42.72141" lon="2.12109">
        <ele>941.6</ele>
        <time>2023-08-15T17:25:16Z</time>
      </trkpt>
      <trkpt lat="42.72113" lon="2.12115">
        <ele>943.8</ele>
        <time>2023-08-15T17:25:20Z</time>
      </trkpt>
      <trkpt lat="42.72083" lon="2.12111">
        <ele>943.5</ele>
        <time>2023-08-15T17:25:24Z</time>
      </trkpt>
      <trkpt lat="42.72064" lon="2.12099">
        <ele>943.2</ele>
        <time>2023-08-15T17:25:27Z</time>
      </trkpt>
      <trkpt lat="42.72049" lon="2.12078">
        <ele>943.9</ele>
        <time>2023-08-15T17:25:30Z</time>
      </trkpt>
      <trkpt lat="42.72037" lon="2.12059">
        <ele>945.5</ele>
        <time>2023-08-15T17:25:33Z</time>
      </trkpt>
      <trkpt lat="42.72016" lon="2.12039">
        <ele>947.6</ele>
        <time>2023-08-15T17:25:37Z</time>
      </trkpt>
      <trkpt lat="42.71994" lon="2.12044">
        <ele>948.6</ele>
        <time>2023-08-15T17:25:40Z</time>
      </trkpt>
      <trkpt lat="42.71975" lon="2.12065">
        <ele>949</ele>
        <time>2023-08-15T17:25:43Z</time>
      </trkpt>
      <trkpt lat="42.71969" lon="2.12103">
        <ele>950.8</ele>
        <time>2023-08-15T17:25:47Z</time>
      </trkpt>
      <trkpt lat="42.71964" lon="2.12133">
        <ele>951.9</ele>
        <time>2023-08-15T17:25:51Z</time>
      </trkpt>
      <trkpt lat="42.7195" lon="2.1216">
        <ele>952.2</ele>
        <time>2023-08-15T17:25:55Z</time>
      </trkpt>
      <trkpt lat="42.71936" lon="2.12194">
        <ele>953.4</ele>
        <time>2023-08-15T17:25:59Z</time>
      </trkpt>
      <trkpt lat="42.71925" lon="2.12231">
        <ele>955.1</ele>
        <time>2023-08-15T17:26:03Z</time>
      </trkpt>
      <trkpt lat="42.71912" lon="2.12266">
        <ele>955.3</ele>
        <time>2023-08-15T17:26:07Z</time>
      </trkpt>
      <trkpt lat="42.71902" lon="2.12291">
        <ele>955.3</ele>
        <time>2023-08-15T17:26:10Z</time>
      </trkpt>
      <trkpt lat="42.71891" lon="2.1231">
        <ele>955.8</ele>
        <time>2023-08-15T17:26:13Z</time>
      </trkpt>
      <trkpt lat="42.71879" lon="2.12339">
        <ele>957.3</ele>
        <time>2023-08-15T17:26:17Z</time>
      </trkpt>
      <trkpt lat="42.71876" lon="2.12372">
        <ele>957.2</ele>
        <time>2023-08-15T17:26:21Z</time>
      </trkpt>
      <trkpt lat="42.71884" lon="2.124">
        <ele>957.4</ele>
        <time>2023-08-15T17:26:24Z</time>
      </trkpt>
      <trkpt lat="42.71907" lon="2.12422">
        <ele>958.8</ele>
        <time>2023-08-15T17:26:27Z</time>
      </trkpt>
      <trkpt lat="42.71933" lon="2.12438">
        <ele>960.3</ele>
        <time>2023-08-15T17:26:31Z</time>
      </trkpt>
      <trkpt lat="42.71949" lon="2.12449">
        <ele>961.4</ele>
        <time>2023-08-15T17:26:34Z</time>
      </trkpt>
      <trkpt lat="42.71963" lon="2.12474">
        <ele>963.1</ele>
        <time>2023-08-15T17:26:38Z</time>
      </trkpt>
      <trkpt lat="42.71967" lon="2.12499">
        <ele>964.1</ele>
        <time>2023-08-15T17:26:41Z</time>
      </trkpt>
      <trkpt lat="42.71961" lon="2.12523">
        <ele>965.5</ele>
        <time>2023-08-15T17:26:44Z</time>
      </trkpt>
      <trkpt lat="42.71945" lon="2.12542">
        <ele>967.7</ele>
        <time>2023-08-15T17:26:48Z</time>
      </trkpt>
      <trkpt lat="42.71919" lon="2.12554">
        <ele>966.7</ele>
        <time>2023-08-15T17:26:51Z</time>
      </trkpt>
      <trkpt lat="42.71898" lon="2.12558">
        <ele>967.4</ele>
        <time>2023-08-15T17:26:54Z</time>
      </trkpt>
      <trkpt lat="42.71867" lon="2.12561">
        <ele>968.9</ele>
        <time>2023-08-15T17:26:58Z</time>
      </trkpt>
      <trkpt lat="42.71843" lon="2.12569">
        <ele>970.9</ele>
        <time>2023-08-15T17:27:01Z</time>
      </trkpt>
      <trkpt lat="42.71824" lon="2.12587">
        <ele>971.8</ele>
        <time>2023-08-15T17:27:04Z</time>
      </trkpt>
      <trkpt lat="42.7181" lon="2.12621">
        <ele>973.1</ele>
        <time>2023-08-15T17:27:08Z</time>
      </trkpt>
      <trkpt lat="42.71803" lon="2.12652">
        <ele>974.5</ele>
        <time>2023-08-15T17:27:12Z</time>
      </trkpt>
      <trkpt lat="42.71795" lon="2.12674">
        <ele>975.4</ele>
        <time>2023-08-15T17:27:15Z</time>
      </trkpt>
      <trkpt lat="42.71776" lon="2.12695">
        <ele>976.2</ele>
        <time>2023-08-15T17:27:19Z</time>
      </trkpt>
      <trkpt lat="42.71754" lon="2.12706">
        <ele>977</ele>
        <time>2023-08-15T17:27:23Z</time>
      </trkpt>
      <trkpt lat="42.7173" lon="2.12704">
        <ele>978.7</ele>
        <time>2023-08-15T17:27:27Z</time>
      </trkpt>
      <trkpt lat="42.71715" lon="2.12704">
        <ele>979.5</ele>
        <time>2023-08-15T17:27:31Z</time>
      </trkpt>
      <trkpt lat="42.7171" lon="2.12709">
        <ele>980</ele>
        <time>2023-08-15T17:27:34Z</time>
      </trkpt>
      <trkpt lat="42.71703" lon="2.12716">
        <ele>980.6</ele>
        <time>2023-08-15T17:27:37Z</time>
      </trkpt>
      <trkpt lat="42.71693" lon="2.12728">
        <ele>980.9</ele>
        <time>2023-08-15T17:27:40Z</time>
      </trkpt>
      <trkpt lat="42.71678" lon="2.12749">
        <ele>983.2</ele>
        <time>2023-08-15T17:27:44Z</time>
      </trkpt>
      <trkpt lat="42.71667" lon="2.12768">
        <ele>983.4</ele>
        <time>2023-08-15T17:27:47Z</time>
      </trkpt>
      <trkpt lat="42.71658" lon="2.12799">
        <ele>984.1</ele>
        <time>2023-08-15T17:27:51Z</time>
      </trkpt>
      <trkpt lat="42.71649" lon="2.12832">
        <ele>985</ele>
        <time>2023-08-15T17:27:55Z</time>
      </trkpt>
      <trkpt lat="42.71644" lon="2.12857">
        <ele>986.4</ele>
        <time>2023-08-15T17:27:58Z</time>
      </trkpt>
      <trkpt lat="42.71637" lon="2.12882">
        <ele>988.3</ele>
        <time>2023-08-15T17:28:01Z</time>
      </trkpt>
      <trkpt lat="42.71633" lon="2.12917">
        <ele>989.2</ele>
        <time>2023-08-15T17:28:05Z</time>
      </trkpt>
      <trkpt lat="42.71632" lon="2.12953">
        <ele>990.8</ele>
        <time>2023-08-15T17:28:09Z</time>
      </trkpt>
      <trkpt lat="42.71628" lon="2.1299">
        <ele>992.7</ele>
        <time>2023-08-15T17:28:13Z</time>
      </trkpt>
      <trkpt lat="42.7162" lon="2.13017">
        <ele>993.2</ele>
        <time>2023-08-15T17:28:16Z</time>
      </trkpt>
      <trkpt lat="42.71608" lon="2.13045">
        <ele>993.2</ele>
        <time>2023-08-15T17:28:20Z</time>
      </trkpt>
      <trkpt lat="42.71594" lon="2.13073">
        <ele>994.2</ele>
        <time>2023-08-15T17:28:24Z</time>
      </trkpt>
      <trkpt lat="42.71583" lon="2.13096">
        <ele>994.8</ele>
        <time>2023-08-15T17:28:27Z</time>
      </trkpt>
      <trkpt lat="42.71569" lon="2.13128">
        <ele>996.7</ele>
        <time>2023-08-15T17:28:31Z</time>
      </trkpt>
      <trkpt lat="42.71555" lon="2.1316">
        <ele>997.5</ele>
        <time>2023-08-15T17:28:35Z</time>
      </trkpt>
      <trkpt lat="42.71548" lon="2.13184">
        <ele>998.8</ele>
        <time>2023-08-15T17:28:38Z</time>
      </trkpt>
      <trkpt lat="42.71546" lon="2.13221">
        <ele>1001.2</ele>
        <time>2023-08-15T17:28:42Z</time>
      </trkpt>
      <trkpt lat="42.71544" lon="2.13257">
        <ele>1002</ele>
        <time>2023-08-15T17:28:46Z</time>
      </trkpt>
      <trkpt lat="42.71542" lon="2.13282">
        <ele>1002.2</ele>
        <time>2023-08-15T17:28:49Z</time>
      </trkpt>
      <trkpt lat="42.7154" lon="2.13308">
        <ele>1002.3</ele>
        <time>2023-08-15T17:28:52Z</time>
      </trkpt>
      <trkpt lat="42.71533" lon="2.13342">
        <ele>1004.9</ele>
        <time>2023-08-15T17:28:56Z</time>
      </trkpt>
      <trkpt lat="42.71524" lon="2.13375">
        <ele>1006.7</ele>
        <time>2023-08-15T17:29:00Z</time>
      </trkpt>
      <trkpt lat="42.71515" lon="2.13399">
        <ele>1007</ele>
        <time>2023-08-15T17:29:03Z</time>
      </trkpt>
      <trkpt lat="42.71502" lon="2.13429">
        <ele>1008.5</ele>
        <time>2023-08-15T17:29:07Z</time>
      </trkpt>
      <trkpt lat="42.71498" lon="2.13465">
        <ele>1010.7</ele>
        <time>2023-08-15T17:29:11Z</time>
      </trkpt>
      <trkpt lat="42.71486" lon="2.13488">
        <ele>1011.8</ele>
        <time>2023-08-15T17:29:14Z</time>
      </trkpt>
      <trkpt lat="42.71464" lon="2.1351">
        <ele>1012.5</ele>
        <time>2023-08-15T17:29:18Z</time>
      </trkpt>
      <trkpt lat="42.71458" lon="2.13533">
        <ele>1012.7</ele>
        <time>2023-08-15T17:29:21Z</time>
      </trkpt>
      <trkpt lat="42.71452" lon="2.13566">
        <ele>1015.2</ele>
        <time>2023-08-15T17:29:25Z</time>
      </trkpt>
      <trkpt lat="42.71439" lon="2.13584">
        <ele>1016.3</ele>
        <time>2023-08-15T17:29:28Z</time>
      </trkpt>
      <trkpt lat="42.71427" lon="2.13602">
        <ele>1017.3</ele>
        <time>2023-08-15T17:29:31Z</time>
      </trkpt>
      <trkpt lat="42.71411" lon="2.1363">
        <ele>1018.2</ele>
        <time>2023-08-15T17:29:35Z</time>
      </trkpt>
      <trkpt lat="42.71393" lon="2.1366">
        <ele>1019.8</ele>
        <time>2023-08-15T17:29:39Z</time>
      </trkpt>
      <trkpt lat="42.7138" lon="2.13682">
        <ele>1020.1</ele>
        <time>2023-08-15T17:29:42Z</time>
      </trkpt>
      <trkpt lat="42.71376" lon="2.13716">
        <ele>1020.9</ele>
        <time>2023-08-15T17:29:46Z</time>
      </trkpt>
      <trkpt lat="42.71382" lon="2.13741">
        <ele>1020.4</ele>
        <time>2023-08-15T17:29:49Z</time>
      </trkpt>
      <trkpt lat="42.71381" lon="2.13776">
        <ele>1022.3</ele>
        <time>2023-08-15T17:29:53Z</time>
      </trkpt>
      <trkpt lat="42.7137" lon="2.13811">
        <ele>1024.5</ele>
        <time>2023-08-15T17:29:57Z</time>
      </trkpt>
      <trkpt lat="42.71358" lon="2.13843">
        <ele>1025.4</ele>
        <time>2023-08-15T17:30:01Z</time>
      </trkpt>
      <trkpt lat="42.71345" lon="2.13864">
        <ele>1026.7</ele>
        <time>2023-08-15T17:30:04Z</time>
      </trkpt>
      <trkpt lat="42.71324" lon="2.13889">
        <ele>1029.3</ele>
        <time>2023-08-15T17:30:08Z</time>
      </trkpt>
      <trkpt lat="42.71303" lon="2.1391">
        <ele>1030.4</ele>
        <time>2023-08-15T17:30:12Z</time>
      </trkpt>
      <trkpt lat="42.71283" lon="2.13934">
        <ele>1030.5</ele>
        <time>2023-08-15T17:30:16Z</time>
      </trkpt>
      <trkpt lat="42.71271" lon="2.13955">
        <ele>1031.2</ele>
        <time>2023-08-15T17:30:19Z</time>
      </trkpt>
      <trkpt lat="42.71259" lon="2.13989">
        <ele>1033.7</ele>
        <time>2023-08-15T17:30:23Z</time>
      </trkpt>
      <trkpt lat="42.71251" lon="2.14013">
        <ele>1035.4</ele>
        <time>2023-08-15T17:30:26Z</time>
      </trkpt>
      <trkpt lat="42.71239" lon="2.14045">
        <ele>1035.8</ele>
        <time>2023-08-15T17:30:30Z</time>
      </trkpt>
      <trkpt lat="42.71226" lon="2.14074">
        <ele>1037.8</ele>
        <time>2023-08-15T17:30:34Z</time>
      </trkpt>
      <trkpt lat="42.71206" lon="2.14097">
        <ele>1039.5</ele>
        <time>2023-08-15T17:30:38Z</time>
      </trkpt>
      <trkpt lat="42.71185" lon="2.14102">
        <ele>1040.1</ele>
        <time>2023-08-15T17:30:41Z</time>
      </trkpt>
      <trkpt lat="42.71162" lon="2.14102">
        <ele>1040.5</ele>
        <time>2023-08-15T17:30:44Z</time>
      </trkpt>
      <trkpt lat="42.71142" lon="2.141">
        <ele>1040.4</ele>
        <time>2023-08-15T17:30:47Z</time>
      </trkpt>
      <trkpt lat="42.71117" lon="2.141">
        <ele>1042.9</ele>
        <time>2023-08-15T17:30:51Z</time>
      </trkpt>
      <trkpt lat="42.71098" lon="2.14105">
        <ele>1043.9</ele>
        <time>2023-08-15T17:30:54Z</time>
      </trkpt>
      <trkpt lat="42.71074" lon="2.14114">
        <ele>1044.7</ele>
        <time>2023-08-15T17:30:58Z</time>
      </trkpt>
      <trkpt lat="42.71056" lon="2.14124">
        <ele>1045.8</ele>
        <time>2023-08-15T17:31:01Z</time>
      </trkpt>
      <trkpt lat="42.71038" lon="2.14151">
        <ele>1047.8</ele>
        <time>2023-08-15T17:31:05Z</time>
      </trkpt>
      <trkpt lat="42.71024" lon="2.14171">
        <ele>1049.1</ele>
        <time>2023-08-15T17:31:08Z</time>
      </trkpt>
      <trkpt lat="42.71006" lon="2.14172">
        <ele>1048.5</ele>
        <time>2023-08-15T17:31:11Z</time>
      </trkpt>
      <trkpt lat="42.70988" lon="2.14154">
        <ele>1047.9</ele>
        <time>2023-08-15T17:31:15Z</time>
      </trkpt>
      <trkpt lat="42.70971" lon="2.14141">
        <ele>1050</ele>
        <time>2023-08-15T17:31:18Z</time>
      </trkpt>
      <trkpt lat="42.70952" lon="2.14135">
        <ele>1051.1</ele>
        <time>2023-08-15T17:31:21Z</time>
      </trkpt>
      <trkpt lat="42.70927" lon="2.14139">
        <ele>1053.3</ele>
        <time>2023-08-15T17:31:25Z</time>
      </trkpt>
      <trkpt lat="42.70913" lon="2.14145">
        <ele>1053.2</ele>
        <time>2023-08-15T17:31:28Z</time>
      </trkpt>
      <trkpt lat="42.709" lon="2.14153">
        <ele>1054.5</ele>
        <time>2023-08-15T17:31:32Z</time>
      </trkpt>
      <trkpt lat="42.70887" lon="2.14165">
        <ele>1055.7</ele>
        <time>2023-08-15T17:31:35Z</time>
      </trkpt>
      <trkpt lat="42.70871" lon="2.14183">
        <ele>1056.6</ele>
        <time>2023-08-15T17:31:39Z</time>
      </trkpt>
      <trkpt lat="42.70851" lon="2.14192">
        <ele>1056.5</ele>
        <time>2023-08-15T17:31:43Z</time>
      </trkpt>
      <trkpt lat="42.70836" lon="2.14187">
        <ele>1057.4</ele>
        <time>2023-08-15T17:31:46Z</time>
      </trkpt>
      <trkpt lat="42.70817" lon="2.14178">
        <ele>1058.6</ele>
        <time>2023-08-15T17:31:50Z</time>
      </trkpt>
      <trkpt lat="42.70804" lon="2.14171">
        <ele>1059.6</ele>
        <time>2023-08-15T17:31:53Z</time>
      </trkpt>
      <trkpt lat="42.70789" lon="2.14159">
        <ele>1060.6</ele>
        <time>2023-08-15T17:31:57Z</time>
      </trkpt>
      <trkpt lat="42.70773" lon="2.14147">
        <ele>1061.7</ele>
        <time>2023-08-15T17:32:01Z</time>
      </trkpt>
      <trkpt lat="42.70759" lon="2.14139">
        <ele>1063.1</ele>
        <time>2023-08-15T17:32:04Z</time>
      </trkpt>
      <trkpt lat="42.7074" lon="2.1413">
        <ele>1062.8</ele>
        <time>2023-08-15T17:32:08Z</time>
      </trkpt>
      <trkpt lat="42.70721" lon="2.14126">
        <ele>1063.6</ele>
        <time>2023-08-15T17:32:12Z</time>
      </trkpt>
      <trkpt lat="42.70707" lon="2.14125">
        <ele>1064</ele>
        <time>2023-08-15T17:32:15Z</time>
      </trkpt>
      <trkpt lat="42.7069" lon="2.14123">
        <ele>1065.7</ele>
        <time>2023-08-15T17:32:19Z</time>
      </trkpt>
      <trkpt lat="42.70677" lon="2.14123">
        <ele>1066.8</ele>
        <time>2023-08-15T17:32:22Z</time>
      </trkpt>
      <trkpt lat="42.70659" lon="2.1412">
        <ele>1068.2</ele>
        <time>2023-08-15T17:32:26Z</time>
      </trkpt>
      <trkpt lat="42.70645" lon="2.14116">
        <ele>1068.2</ele>
        <time>2023-08-15T17:32:29Z</time>
      </trkpt>
      <trkpt lat="42.70626" lon="2.14108">
        <ele>1070.1</ele>
        <time>2023-08-15T17:32:33Z</time>
      </trkpt>
      <trkpt lat="42.70606" lon="2.1411">
        <ele>1072</ele>
        <time>2023-08-15T17:32:37Z</time>
      </trkpt>
      <trkpt lat="42.70596" lon="2.14135">
        <ele>1072.8</ele>
        <time>2023-08-15T17:32:41Z</time>
      </trkpt>
      <trkpt lat="42.70605" lon="2.14161">
        <ele>1071.2</ele>
        <time>2023-08-15T17:32:45Z</time>
      </trkpt>
      <trkpt lat="42.70622" lon="2.1417">
        <ele>1073.3</ele>
        <time>2023-08-15T17:32:48Z</time>
      </trkpt>
      <trkpt lat="42.70647" lon="2.14159">
        <ele>1074.3</ele>
        <time>2023-08-15T17:32:52Z</time>
      </trkpt>
      <trkpt lat="42.70662" lon="2.1415">
        <ele>1075.1</ele>
        <time>2023-08-15T17:32:55Z</time>
      </trkpt>
      <trkpt lat="42.70682" lon="2.14146">
        <ele>1075.9</ele>
        <time>2023-08-15T17:32:59Z</time>
      </trkpt>
      <trkpt lat="42.70696" lon="2.1415">
        <ele>1077.7</ele>
        <time>2023-08-15T17:33:02Z</time>
      </trkpt>
      <trkpt lat="42.70709" lon="2.14156">
        <ele>1079.3</ele>
        <time>2023-08-15T17:33:05Z</time>
      </trkpt>
      <trkpt lat="42.70724" lon="2.14161">
        <ele>1080.3</ele>
        <time>2023-08-15T17:33:08Z</time>
      </trkpt>
      <trkpt lat="42.70742" lon="2.14172">
        <ele>1078.2</ele>
        <time>2023-08-15T17:33:12Z</time>
      </trkpt>
      <trkpt lat="42.70756" lon="2.1418">
        <ele>1080.1</ele>
        <time>2023-08-15T17:33:16Z</time>
      </trkpt>
      <trkpt lat="42.70765" lon="2.14184">
        <ele>1080.6</ele>
        <time>2023-08-15T17:33:20Z</time>
      </trkpt>
      <trkpt lat="42.70775" lon="2.14191">
        <ele>1081.5</ele>
        <time>2023-08-15T17:33:23Z</time>
      </trkpt>
      <trkpt lat="42.70788" lon="2.14201">
        <ele>1081.3</ele>
        <time>2023-08-15T17:33:26Z</time>
      </trkpt>
      <trkpt lat="42.70798" lon="2.14209">
        <ele>1083.4</ele>
        <time>2023-08-15T17:33:29Z</time>
      </trkpt>
      <trkpt lat="42.70814" lon="2.14219">
        <ele>1085.4</ele>
        <time>2023-08-15T17:33:33Z</time>
      </trkpt>
      <trkpt lat="42.70828" lon="2.14228">
        <ele>1086.6</ele>
        <time>2023-08-15T17:33:36Z</time>
      </trkpt>
      <trkpt lat="42.70846" lon="2.14244">
        <ele>1087.7</ele>
        <time>2023-08-15T17:33:40Z</time>
      </trkpt>
      <trkpt lat="42.70861" lon="2.14262">
        <ele>1086.9</ele>
        <time>2023-08-15T17:33:44Z</time>
      </trkpt>
      <trkpt lat="42.70876" lon="2.14271">
        <ele>1087.4</ele>
        <time>2023-08-15T17:33:47Z</time>
      </trkpt>
      <trkpt lat="42.70895" lon="2.14285">
        <ele>1088.5</ele>
        <time>2023-08-15T17:33:51Z</time>
      </trkpt>
      <trkpt lat="42.70898" lon="2.14305">
        <ele>1089.3</ele>
        <time>2023-08-15T17:33:54Z</time>
      </trkpt>
      <trkpt lat="42.70889" lon="2.14324">
        <ele>1090.4</ele>
        <time>2023-08-15T17:33:57Z</time>
      </trkpt>
      <trkpt lat="42.70868" lon="2.14329">
        <ele>1092.3</ele>
        <time>2023-08-15T17:34:01Z</time>
      </trkpt>
      <trkpt lat="42.70856" lon="2.14313">
        <ele>1094.7</ele>
        <time>2023-08-15T17:34:04Z</time>
      </trkpt>
      <trkpt lat="42.70854" lon="2.14283">
        <ele>1096.3</ele>
        <time>2023-08-15T17:34:08Z</time>
      </trkpt>
      <trkpt lat="42.70842" lon="2.14258">
        <ele>1094.9</ele>
        <time>2023-08-15T17:34:12Z</time>
      </trkpt>
      <trkpt lat="42.7083" lon="2.14245">
        <ele>1095.4</ele>
        <time>2023-08-15T17:34:15Z</time>
      </trkpt>
      <trkpt lat="42.70811" lon="2.14236">
        <ele>1096.3</ele>
        <time>2023-08-15T17:34:19Z</time>
      </trkpt>
      <trkpt lat="42.70789" lon="2.14228">
        <ele>1097.6</ele>
        <time>2023-08-15T17:34:23Z</time>
      </trkpt>
      <trkpt lat="42.70773" lon="2.14221">
        <ele>1097.5</ele>
        <time>2023-08-15T17:34:26Z</time>
      </trkpt>
      <trkpt lat="42.70757" lon="2.14215">
        <ele>1099.2</ele>
        <time>2023-08-15T17:34:29Z</time>
      </trkpt>
      <trkpt lat="42.70741" lon="2.1421">
        <ele>1101.3</ele>
        <time>2023-08-15T17:34:32Z</time>
      </trkpt>
      <trkpt lat="42.70724" lon="2.14203">
        <ele>1101.9</ele>
        <time>2023-08-15T17:34:36Z</time>
      </trkpt>
      <trkpt lat="42.70706" lon="2.14197">
        <ele>1103.7</ele>
        <time>2023-08-15T17:34:40Z</time>
      </trkpt>
      <trkpt lat="42.70691" lon="2.14195">
        <ele>1103.2</ele>
        <time>2023-08-15T17:34:43Z</time>
      </trkpt>
      <trkpt lat="42.70673" lon="2.142">
        <ele>1104.6</ele>
        <time>2023-08-15T17:34:47Z</time>
      </trkpt>
      <trkpt lat="42.70655" lon="2.14209">
        <ele>1105</ele>
        <time>2023-08-15T17:34:51Z</time>
      </trkpt>
      <trkpt lat="42.70642" lon="2.14217">
        <ele>1106.1</ele>
        <time>2023-08-15T17:34:54Z</time>
      </trkpt>
      <trkpt lat="42.7063" lon="2.14225">
        <ele>1107.1</ele>
        <time>2023-08-15T17:34:57Z</time>
      </trkpt>
      <trkpt lat="42.70615" lon="2.14237">
        <ele>1108.9</ele>
        <time>2023-08-15T17:35:01Z</time>
      </trkpt>
      <trkpt lat="42.70603" lon="2.1425">
        <ele>1109.5</ele>
        <time>2023-08-15T17:35:04Z</time>
      </trkpt>
      <trkpt lat="42.7059" lon="2.14271">
        <ele>1111.7</ele>
        <time>2023-08-15T17:35:08Z</time>
      </trkpt>
      <trkpt lat="42.70582" lon="2.14286">
        <ele>1111.8</ele>
        <time>2023-08-15T17:35:12Z</time>
      </trkpt>
      <trkpt lat="42.70568" lon="2.14307">
        <ele>1112.2</ele>
        <time>2023-08-15T17:35:16Z</time>
      </trkpt>
      <trkpt lat="42.70558" lon="2.14322">
        <ele>1112.3</ele>
        <time>2023-08-15T17:35:19Z</time>
      </trkpt>
      <trkpt lat="42.70548" lon="2.14337">
        <ele>1113.5</ele>
        <time>2023-08-15T17:35:22Z</time>
      </trkpt>
      <trkpt lat="42.70537" lon="2.14355">
        <ele>1115.5</ele>
        <time>2023-08-15T17:35:26Z</time>
      </trkpt>
      <trkpt lat="42.70527" lon="2.14371">
        <ele>1115.6</ele>
        <time>2023-08-15T17:35:29Z</time>
      </trkpt>
      <trkpt lat="42.70516" lon="2.14387">
        <ele>1117.5</ele>
        <time>2023-08-15T17:35:33Z</time>
      </trkpt>
      <trkpt lat="42.70507" lon="2.14398">
        <ele>1118.9</ele>
        <time>2023-08-15T17:35:36Z</time>
      </trkpt>
      <trkpt lat="42.70493" lon="2.14414">
        <ele>1119.5</ele>
        <time>2023-08-15T17:35:40Z</time>
      </trkpt>
      <trkpt lat="42.70482" lon="2.14423">
        <ele>1119.9</ele>
        <time>2023-08-15T17:35:43Z</time>
      </trkpt>
      <trkpt lat="42.70466" lon="2.14432">
        <ele>1119.8</ele>
        <time>2023-08-15T17:35:47Z</time>
      </trkpt>
      <trkpt lat="42.70448" lon="2.14435">
        <ele>1121.5</ele>
        <time>2023-08-15T17:35:51Z</time>
      </trkpt>
      <trkpt lat="42.70432" lon="2.14418">
        <ele>1122.6</ele>
        <time>2023-08-15T17:35:55Z</time>
      </trkpt>
      <trkpt lat="42.70437" lon="2.1439">
        <ele>1123.1</ele>
        <time>2023-08-15T17:35:59Z</time>
      </trkpt>
      <trkpt lat="42.70448" lon="2.14374">
        <ele>1124.5</ele>
        <time>2023-08-15T17:36:02Z</time>
      </trkpt>
      <trkpt lat="42.70458" lon="2.14358">
        <ele>1125.8</ele>
        <time>2023-08-15T17:36:05Z</time>
      </trkpt>
      <trkpt lat="42.70462" lon="2.1434">
        <ele>1126.4</ele>
        <time>2023-08-15T17:36:09Z</time>
      </trkpt>
      <trkpt lat="42.70463" lon="2.14317">
        <ele>1126.8</ele>
        <time>2023-08-15T17:36:13Z</time>
      </trkpt>
      <trkpt lat="42.70465" lon="2.14296">
        <ele>1128.1</ele>
        <time>2023-08-15T17:36:16Z</time>
      </trkpt>
      <trkpt lat="42.70467" lon="2.14275">
        <ele>1128</ele>
        <time>2023-08-15T17:36:19Z</time>
      </trkpt>
      <trkpt lat="42.70462" lon="2.1426">
        <ele>1128.3</ele>
        <time>2023-08-15T17:36:22Z</time>
      </trkpt>
      <trkpt lat="42.7045" lon="2.1425">
        <ele>1129</ele>
        <time>2023-08-15T17:36:25Z</time>
      </trkpt>
      <trkpt lat="42.70432" lon="2.14249">
        <ele>1131</ele>
        <time>2023-08-15T17:36:29Z</time>
      </trkpt>
      <trkpt lat="42.7042" lon="2.14247">
        <ele>1131.5</ele>
        <time>2023-08-15T17:36:32Z</time>
      </trkpt>
      <trkpt lat="42.70401" lon="2.14246">
        <ele>1133.2</ele>
        <time>2023-08-15T17:36:36Z</time>
      </trkpt>
      <trkpt lat="42.70381" lon="2.1424">
        <ele>1133.5</ele>
        <time>2023-08-15T17:36:40Z</time>
      </trkpt>
      <trkpt lat="42.70364" lon="2.14233">
        <ele>1134.5</ele>
        <time>2023-08-15T17:36:44Z</time>
      </trkpt>
      <trkpt lat="42.70351" lon="2.14228">
        <ele>1134.6</ele>
        <time>2023-08-15T17:36:47Z</time>
      </trkpt>
      <trkpt lat="42.70337" lon="2.14224">
        <ele>1135.1</ele>
        <time>2023-08-15T17:36:50Z</time>
      </trkpt>
      <trkpt lat="42.70325" lon="2.1422">
        <ele>1136.2</ele>
        <time>2023-08-15T17:36:53Z</time>
      </trkpt>
      <trkpt lat="42.7031" lon="2.14212">
        <ele>1137.9</ele>
        <time>2023-08-15T17:36:57Z</time>
      </trkpt>
      <trkpt lat="42.70296" lon="2.14204">
        <ele>1138.4</ele>
        <time>2023-08-15T17:37:00Z</time>
      </trkpt>
      <trkpt lat="42.70282" lon="2.14188">
        <ele>1139.6</ele>
        <time>2023-08-15T17:37:04Z</time>
      </trkpt>
      <trkpt lat="42.70271" lon="2.14177">
        <ele>1141.3</ele>
        <time>2023-08-15T17:37:07Z</time>
      </trkpt>
      <trkpt lat="42.70252" lon="2.14169">
        <ele>1141.2</ele>
        <time>2023-08-15T17:37:11Z</time>
      </trkpt>
      <trkpt lat="42.70237" lon="2.14166">
        <ele>1141.6</ele>
        <time>2023-08-15T17:37:14Z</time>
      </trkpt>
      <trkpt lat="42.70222" lon="2.14166">
        <ele>1141.7</ele>
        <time>2023-08-15T17:37:17Z</time>
      </trkpt>
      <trkpt lat="42.70202" lon="2.14168">
        <ele>1142.8</ele>
        <time>2023-08-15T17:37:21Z</time>
      </trkpt>
      <trkpt lat="42.70181" lon="2.14169">
        <ele>1144.8</ele>
        <time>2023-08-15T17:37:25Z</time>
      </trkpt>
      <trkpt lat="42.70169" lon="2.14166">
        <ele>1145.6</ele>
        <time>2023-08-15T17:37:28Z</time>
      </trkpt>
      <trkpt lat="42.70156" lon="2.14159">
        <ele>1146.9</ele>
        <time>2023-08-15T17:37:31Z</time>
      </trkpt>
      <trkpt lat="42.70144" lon="2.1415">
        <ele>1147.6</ele>
        <time>2023-08-15T17:37:34Z</time>
      </trkpt>
      <trkpt lat="42.70128" lon="2.14142">
        <ele>1148.5</ele>
        <time>2023-08-15T17:37:38Z</time>
      </trkpt>
      <trkpt lat="42.70118" lon="2.14139">
        <ele>1148.9</ele>
        <time>2023-08-15T17:37:41Z</time>
      </trkpt>
      <trkpt lat="42.70102" lon="2.14136">
        <ele>1149.1</ele>
        <time>2023-08-15T17:37:45Z</time>
      </trkpt>
      <trkpt lat="42.70089" lon="2.14141">
        <ele>1149.6</ele>
        <time>2023-08-15T17:37:48Z</time>
      </trkpt>
      <trkpt lat="42.70076" lon="2.14152">
        <ele>1150.1</ele>
        <time>2023-08-15T17:37:51Z</time>
      </trkpt>
      <trkpt lat="42.70064" lon="2.1417">
        <ele>1151.8</ele>
        <time>2023-08-15T17:37:54Z</time>
      </trkpt>
      <trkpt lat="42.70055" lon="2.14187">
        <ele>1152.8</ele>
        <time>2023-08-15T17:37:57Z</time>
      </trkpt>
      <trkpt lat="42.70046" lon="2.1421">
        <ele>1154.6</ele>
        <time>2023-08-15T17:38:01Z</time>
      </trkpt>
      <trkpt lat="42.7004" lon="2.14225">
        <ele>1155.7</ele>
        <time>2023-08-15T17:38:04Z</time>
      </trkpt>
      <trkpt lat="42.70031" lon="2.14251">
        <ele>1156.4</ele>
        <time>2023-08-15T17:38:08Z</time>
      </trkpt>
      <trkpt lat="42.70022" lon="2.14267">
        <ele>1157.4</ele>
        <time>2023-08-15T17:38:11Z</time>
      </trkpt>
      <trkpt lat="42.70009" lon="2.1428">
        <ele>1157.1</ele>
        <time>2023-08-15T17:38:14Z</time>
      </trkpt>
      <trkpt lat="42.6999" lon="2.1429">
        <ele>1157.7</ele>
        <time>2023-08-15T17:38:18Z</time>
      </trkpt>
      <trkpt lat="42.69976" lon="2.14295">
        <ele>1159.5</ele>
        <time>2023-08-15T17:38:21Z</time>
      </trkpt>
      <trkpt lat="42.6996" lon="2.14301">
        <ele>1160.2</ele>
        <time>2023-08-15T17:38:25Z</time>
      </trkpt>
      <trkpt lat="42.69948" lon="2.14306">
        <ele>1161.5</ele>
        <time>2023-08-15T17:38:28Z</time>
      </trkpt>
      <trkpt lat="42.6993" lon="2.14302">
        <ele>1162.3</ele>
        <time>2023-08-15T17:38:32Z</time>
      </trkpt>
      <trkpt lat="42.69915" lon="2.14296">
        <ele>1163.3</ele>
        <time>2023-08-15T17:38:35Z</time>
      </trkpt>
      <trkpt lat="42.699" lon="2.14288">
        <ele>1163</ele>
        <time>2023-08-15T17:38:39Z</time>
      </trkpt>
      <trkpt lat="42.69885" lon="2.14282">
        <ele>1164.3</ele>
        <time>2023-08-15T17:38:42Z</time>
      </trkpt>
      <trkpt lat="42.69871" lon="2.14277">
        <ele>1164</ele>
        <time>2023-08-15T17:38:45Z</time>
      </trkpt>
      <trkpt lat="42.69858" lon="2.14272">
        <ele>1165.3</ele>
        <time>2023-08-15T17:38:48Z</time>
      </trkpt>
      <trkpt lat="42.69842" lon="2.14263">
        <ele>1166.1</ele>
        <time>2023-08-15T17:38:51Z</time>
      </trkpt>
      <trkpt lat="42.6983" lon="2.14257">
        <ele>1166.7</ele>
        <time>2023-08-15T17:38:55Z</time>
      </trkpt>
      <trkpt lat="42.69816" lon="2.14243">
        <ele>1168.1</ele>
        <time>2023-08-15T17:38:58Z</time>
      </trkpt>
      <trkpt lat="42.69803" lon="2.14233">
        <ele>1168.8</ele>
        <time>2023-08-15T17:39:01Z</time>
      </trkpt>
      <trkpt lat="42.69789" lon="2.14224">
        <ele>1170</ele>
        <time>2023-08-15T17:39:05Z</time>
      </trkpt>
      <trkpt lat="42.69775" lon="2.14215">
        <ele>1171.1</ele>
        <time>2023-08-15T17:39:08Z</time>
      </trkpt>
      <trkpt lat="42.6976" lon="2.14206">
        <ele>1171.3</ele>
        <time>2023-08-15T17:39:12Z</time>
      </trkpt>
      <trkpt lat="42.69746" lon="2.14205">
        <ele>1172</ele>
        <time>2023-08-15T17:39:15Z</time>
      </trkpt>
      <trkpt lat="42.69733" lon="2.14216">
        <ele>1173</ele>
        <time>2023-08-15T17:39:18Z</time>
      </trkpt>
      <trkpt lat="42.69728" lon="2.14235">
        <ele>1173.9</ele>
        <time>2023-08-15T17:39:21Z</time>
      </trkpt>
      <trkpt lat="42.69729" lon="2.14261">
        <ele>1175.4</ele>
        <time>2023-08-15T17:39:25Z</time>
      </trkpt>
      <trkpt lat="42.69726" lon="2.14285">
        <ele>1176.6</ele>
        <time>2023-08-15T17:39:29Z</time>
      </trkpt>
      <trkpt lat="42.6972" lon="2.14311">
        <ele>1177.8</ele>
        <time>2023-08-15T17:39:33Z</time>
      </trkpt>
      <trkpt lat="42.69715" lon="2.1433">
        <ele>1177.8</ele>
        <time>2023-08-15T17:39:36Z</time>
      </trkpt>
      <trkpt lat="42.6971" lon="2.14354">
        <ele>1178.6</ele>
        <time>2023-08-15T17:39:40Z</time>
      </trkpt>
      <trkpt lat="42.69706" lon="2.1437">
        <ele>1179.2</ele>
        <time>2023-08-15T17:39:43Z</time>
      </trkpt>
      <trkpt lat="42.69701" lon="2.14389">
        <ele>1180.5</ele>
        <time>2023-08-15T17:39:47Z</time>
      </trkpt>
      <trkpt lat="42.69696" lon="2.1441">
        <ele>1181.6</ele>
        <time>2023-08-15T17:39:51Z</time>
      </trkpt>
      <trkpt lat="42.69692" lon="2.14431">
        <ele>1182.8</ele>
        <time>2023-08-15T17:39:54Z</time>
      </trkpt>
      <trkpt lat="42.69692" lon="2.14452">
        <ele>1184.1</ele>
        <time>2023-08-15T17:39:58Z</time>
      </trkpt>
      <trkpt lat="42.69692" lon="2.14471">
        <ele>1185.6</ele>
        <time>2023-08-15T17:40:01Z</time>
      </trkpt>
      <trkpt lat="42.69691" lon="2.1449">
        <ele>1185.4</ele>
        <time>2023-08-15T17:40:05Z</time>
      </trkpt>
      <trkpt lat="42.69678" lon="2.14506">
        <ele>1186.1</ele>
        <time>2023-08-15T17:40:08Z</time>
      </trkpt>
      <trkpt lat="42.69661" lon="2.14499">
        <ele>1186.4</ele>
        <time>2023-08-15T17:40:12Z</time>
      </trkpt>
      <trkpt lat="42.6965" lon="2.14473">
        <ele>1188.2</ele>
        <time>2023-08-15T17:40:16Z</time>
      </trkpt>
      <trkpt lat="42.69646" lon="2.14449">
        <ele>1189.3</ele>
        <time>2023-08-15T17:40:20Z</time>
      </trkpt>
      <trkpt lat="42.69643" lon="2.14435">
        <ele>1191.2</ele>
        <time>2023-08-15T17:40:23Z</time>
      </trkpt>
      <trkpt lat="42.69637" lon="2.14413">
        <ele>1193.2</ele>
        <time>2023-08-15T17:40:27Z</time>
      </trkpt>
      <trkpt lat="42.69633" lon="2.14398">
        <ele>1192.4</ele>
        <time>2023-08-15T17:40:30Z</time>
      </trkpt>
      <trkpt lat="42.69628" lon="2.14385">
        <ele>1193.3</ele>
        <time>2023-08-15T17:40:33Z</time>
      </trkpt>
      <trkpt lat="42.69619" lon="2.14366">
        <ele>1193.9</ele>
        <time>2023-08-15T17:40:37Z</time>
      </trkpt>
      <trkpt lat="42.69609" lon="2.1435">
        <ele>1192.8</ele>
        <time>2023-08-15T17:40:40Z</time>
      </trkpt>
      <trkpt lat="42.69595" lon="2.14336">
        <ele>1194.5</ele>
        <time>2023-08-15T17:40:43Z</time>
      </trkpt>
      <trkpt lat="42.69581" lon="2.14326">
        <ele>1195.6</ele>
        <time>2023-08-15T17:40:47Z</time>
      </trkpt>
      <trkpt lat="42.69568" lon="2.14317">
        <ele>1196.4</ele>
        <time>2023-08-15T17:40:50Z</time>
      </trkpt>
      <trkpt lat="42.69554" lon="2.14308">
        <ele>1198</ele>
        <time>2023-08-15T17:40:54Z</time>
      </trkpt>
      <trkpt lat="42.69542" lon="2.143">
        <ele>1199.1</ele>
        <time>2023-08-15T17:40:57Z</time>
      </trkpt>
      <trkpt lat="42.69529" lon="2.1429">
        <ele>1198.8</ele>
        <time>2023-08-15T17:41:00Z</time>
      </trkpt>
      <trkpt lat="42.69515" lon="2.14278">
        <ele>1200.5</ele>
        <time>2023-08-15T17:41:03Z</time>
      </trkpt>
      <trkpt lat="42.69498" lon="2.14264">
        <ele>1200.8</ele>
        <time>2023-08-15T17:41:07Z</time>
      </trkpt>
      <trkpt lat="42.69479" lon="2.14253">
        <ele>1201.8</ele>
        <time>2023-08-15T17:41:11Z</time>
      </trkpt>
      <trkpt lat="42.69466" lon="2.14245">
        <ele>1202.5</ele>
        <time>2023-08-15T17:41:14Z</time>
      </trkpt>
      <trkpt lat="42.69454" lon="2.14242">
        <ele>1203.5</ele>
        <time>2023-08-15T17:41:17Z</time>
      </trkpt>
      <trkpt lat="42.6944" lon="2.14244">
        <ele>1205.9</ele>
        <time>2023-08-15T17:41:21Z</time>
      </trkpt>
      <trkpt lat="42.6942" lon="2.14249">
        <ele>1206.9</ele>
        <time>2023-08-15T17:41:25Z</time>
      </trkpt>
      <trkpt lat="42.69406" lon="2.14245">
        <ele>1206.4</ele>
        <time>2023-08-15T17:41:28Z</time>
      </trkpt>
      <trkpt lat="42.69395" lon="2.14229">
        <ele>1208.1</ele>
        <time>2023-08-15T17:41:32Z</time>
      </trkpt>
      <trkpt lat="42.69394" lon="2.14207">
        <ele>1208.7</ele>
        <time>2023-08-15T17:41:35Z</time>
      </trkpt>
      <trkpt lat="42.69396" lon="2.14187">
        <ele>1208.9</ele>
        <time>2023-08-15T17:41:39Z</time>
      </trkpt>
      <trkpt lat="42.69397" lon="2.14167">
        <ele>1211.3</ele>
        <time>2023-08-15T17:41:42Z</time>
      </trkpt>
      <trkpt lat="42.69399" lon="2.14146">
        <ele>1210.6</ele>
        <time>2023-08-15T17:41:45Z</time>
      </trkpt>
      <trkpt lat="42.69402" lon="2.14126">
        <ele>1212.6</ele>
        <time>2023-08-15T17:41:49Z</time>
      </trkpt>
      <trkpt lat="42.69407" lon="2.14108">
        <ele>1214</ele>
        <time>2023-08-15T17:41:52Z</time>
      </trkpt>
      <trkpt lat="42.69415" lon="2.14088">
        <ele>1214.2</ele>
        <time>2023-08-15T17:41:56Z</time>
      </trkpt>
      <trkpt lat="42.69423" lon="2.14068">
        <ele>1215.3</ele>
        <time>2023-08-15T17:41:59Z</time>
      </trkpt>
      <trkpt lat="42.69428" lon="2.14049">
        <ele>1215.4</ele>
        <time>2023-08-15T17:42:03Z</time>
      </trkpt>
      <trkpt lat="42.69428" lon="2.14029">
        <ele>1216.4</ele>
        <time>2023-08-15T17:42:06Z</time>
      </trkpt>
      <trkpt lat="42.69419" lon="2.14016">
        <ele>1217.3</ele>
        <time>2023-08-15T17:42:09Z</time>
      </trkpt>
      <trkpt lat="42.69403" lon="2.14013">
        <ele>1218.6</ele>
        <time>2023-08-15T17:42:12Z</time>
      </trkpt>
      <trkpt lat="42.69389" lon="2.14019">
        <ele>1218.3</ele>
        <time>2023-08-15T17:42:15Z</time>
      </trkpt>
      <trkpt lat="42.69377" lon="2.14025">
        <ele>1220.9</ele>
        <time>2023-08-15T17:42:18Z</time>
      </trkpt>
      <trkpt lat="42.69363" lon="2.14033">
        <ele>1221.1</ele>
        <time>2023-08-15T17:42:22Z</time>
      </trkpt>
      <trkpt lat="42.69354" lon="2.14045">
        <ele>1221.8</ele>
        <time>2023-08-15T17:42:25Z</time>
      </trkpt>
      <trkpt lat="42.69352" lon="2.14064">
        <ele>1222.4</ele>
        <time>2023-08-15T17:42:28Z</time>
      </trkpt>
      <trkpt lat="42.69351" lon="2.14082">
        <ele>1222.7</ele>
        <time>2023-08-15T17:42:31Z</time>
      </trkpt>
      <trkpt lat="42.69348" lon="2.14103">
        <ele>1223.6</ele>
        <time>2023-08-15T17:42:34Z</time>
      </trkpt>
      <trkpt lat="42.69339" lon="2.14127">
        <ele>1224.6</ele>
        <time>2023-08-15T17:42:38Z</time>
      </trkpt>
      <trkpt lat="42.69335" lon="2.1415">
        <ele>1226.2</ele>
        <time>2023-08-15T17:42:42Z</time>
      </trkpt>
      <trkpt lat="42.69333" lon="2.14172">
        <ele>1227.9</ele>
        <time>2023-08-15T17:42:46Z</time>
      </trkpt>
      <trkpt lat="42.69332" lon="2.14193">
        <ele>1228.8</ele>
        <time>2023-08-15T17:42:50Z</time>
      </trkpt>
      <trkpt lat="42.69329" lon="2.14221">
        <ele>1229.7</ele>
        <time>2023-08-15T17:42:54Z</time>
      </trkpt>
      <trkpt lat="42.69319" lon="2.14244">
        <ele>1229.3</ele>
        <time>2023-08-15T17:42:58Z</time>
      </trkpt>
      <trkpt lat="42.69304" lon="2.14254">
        <ele>1230.5</ele>
        <time>2023-08-15T17:43:01Z</time>
      </trkpt>
      <trkpt lat="42.69291" lon="2.1426">
        <ele>1231</ele>
        <time>2023-08-15T17:43:04Z</time>
      </trkpt>
      <trkpt lat="42.69279" lon="2.14271">
        <ele>1232.5</ele>
        <time>2023-08-15T17:43:08Z</time>
      </trkpt>
      <trkpt lat="42.69268" lon="2.1428">
        <ele>1233.7</ele>
        <time>2023-08-15T17:43:12Z</time>
      </trkpt>
      <trkpt lat="42.69256" lon="2.14289">
        <ele>1234.8</ele>
        <time>2023-08-15T17:43:15Z</time>
      </trkpt>
      <trkpt lat="42.69241" lon="2.14296">
        <ele>1235.4</ele>
        <time>2023-08-15T17:43:18Z</time>
      </trkpt>
      <trkpt lat="42.69225" lon="2.14299">
        <ele>1236.3</ele>
        <time>2023-08-15T17:43:21Z</time>
      </trkpt>
      <trkpt lat="42.6921" lon="2.14295">
        <ele>1237.3</ele>
        <time>2023-08-15T17:43:24Z</time>
      </trkpt>
      <trkpt lat="42.69197" lon="2.14284">
        <ele>1237.5</ele>
        <time>2023-08-15T17:43:27Z</time>
      </trkpt>
      <trkpt lat="42.69185" lon="2.14265">
        <ele>1237.4</ele>
        <time>2023-08-15T17:43:31Z</time>
      </trkpt>
      <trkpt lat="42.69177" lon="2.14248">
        <ele>1239.9</ele>
        <time>2023-08-15T17:43:35Z</time>
      </trkpt>
      <trkpt lat="42.6917" lon="2.14234">
        <ele>1239.8</ele>
        <time>2023-08-15T17:43:38Z</time>
      </trkpt>
      <trkpt lat="42.6916" lon="2.14225">
        <ele>1240.5</ele>
        <time>2023-08-15T17:43:41Z</time>
      </trkpt>
      <trkpt lat="42.69147" lon="2.14218">
        <ele>1241.5</ele>
        <time>2023-08-15T17:43:45Z</time>
      </trkpt>
      <trkpt lat="42.69132" lon="2.14211">
        <ele>1242.7</ele>
        <time>2023-08-15T17:43:48Z</time>
      </trkpt>
      <trkpt lat="42.69117" lon="2.14202">
        <ele>1243.1</ele>
        <time>2023-08-15T17:43:51Z</time>
      </trkpt>
      <trkpt lat="42.69104" lon="2.14191">
        <ele>1244.4</ele>
        <time>2023-08-15T17:43:54Z</time>
      </trkpt>
      <trkpt lat="42.69092" lon="2.14172">
        <ele>1244.3</ele>
        <time>2023-08-15T17:43:58Z</time>
      </trkpt>
      <trkpt lat="42.69088" lon="2.14152">
        <ele>1246.3</ele>
        <time>2023-08-15T17:44:02Z</time>
      </trkpt>
      <trkpt lat="42.69093" lon="2.14132">
        <ele>1247.6</ele>
        <time>2023-08-15T17:44:05Z</time>
      </trkpt>
      <trkpt lat="42.691" lon="2.14115">
        <ele>1249</ele>
        <time>2023-08-15T17:44:08Z</time>
      </trkpt>
      <trkpt lat="42.69107" lon="2.14094">
        <ele>1248.2</ele>
        <time>2023-08-15T17:44:11Z</time>
      </trkpt>
      <trkpt lat="42.6911" lon="2.14074">
        <ele>1249.6</ele>
        <time>2023-08-15T17:44:14Z</time>
      </trkpt>
      <trkpt lat="42.69107" lon="2.14049">
        <ele>1250.5</ele>
        <time>2023-08-15T17:44:18Z</time>
      </trkpt>
      <trkpt lat="42.69101" lon="2.14033">
        <ele>1251</ele>
        <time>2023-08-15T17:44:21Z</time>
      </trkpt>
      <trkpt lat="42.6909" lon="2.14017">
        <ele>1252.2</ele>
        <time>2023-08-15T17:44:25Z</time>
      </trkpt>
      <trkpt lat="42.69077" lon="2.14003">
        <ele>1253.2</ele>
        <time>2023-08-15T17:44:29Z</time>
      </trkpt>
      <trkpt lat="42.69064" lon="2.13991">
        <ele>1254.6</ele>
        <time>2023-08-15T17:44:32Z</time>
      </trkpt>
      <trkpt lat="42.6905" lon="2.13976">
        <ele>1255.7</ele>
        <time>2023-08-15T17:44:36Z</time>
      </trkpt>
      <trkpt lat="42.69035" lon="2.1396">
        <ele>1256.5</ele>
        <time>2023-08-15T17:44:40Z</time>
      </trkpt>
      <trkpt lat="42.69023" lon="2.13955">
        <ele>1257.9</ele>
        <time>2023-08-15T17:44:43Z</time>
      </trkpt>
      <trkpt lat="42.69007" lon="2.13957">
        <ele>1257.4</ele>
        <time>2023-08-15T17:44:46Z</time>
      </trkpt>
      <trkpt lat="42.6899" lon="2.13968">
        <ele>1258.4</ele>
        <time>2023-08-15T17:44:50Z</time>
      </trkpt>
      <trkpt lat="42.68973" lon="2.13981">
        <ele>1260.1</ele>
        <time>2023-08-15T17:44:54Z</time>
      </trkpt>
      <trkpt lat="42.68957" lon="2.1399">
        <ele>1262.3</ele>
        <time>2023-08-15T17:44:58Z</time>
      </trkpt>
      <trkpt lat="42.68944" lon="2.13996">
        <ele>1263.9</ele>
        <time>2023-08-15T17:45:01Z</time>
      </trkpt>
      <trkpt lat="42.6893" lon="2.14">
        <ele>1263.6</ele>
        <time>2023-08-15T17:45:04Z</time>
      </trkpt>
      <trkpt lat="42.6891" lon="2.14003">
        <ele>1264.2</ele>
        <time>2023-08-15T17:45:08Z</time>
      </trkpt>
      <trkpt lat="42.68891" lon="2.14004">
        <ele>1265.2</ele>
        <time>2023-08-15T17:45:12Z</time>
      </trkpt>
      <trkpt lat="42.68877" lon="2.14004">
        <ele>1265.4</ele>
        <time>2023-08-15T17:45:16Z</time>
      </trkpt>
      <trkpt lat="42.68859" lon="2.14001">
        <ele>1266.4</ele>
        <time>2023-08-15T17:45:20Z</time>
      </trkpt>
      <trkpt lat="42.68844" lon="2.13998">
        <ele>1269.1</ele>
        <time>2023-08-15T17:45:24Z</time>
      </trkpt>
      <trkpt lat="42.68827" lon="2.13993">
        <ele>1269.5</ele>
        <time>2023-08-15T17:45:27Z</time>
      </trkpt>
      <trkpt lat="42.68813" lon="2.13993">
        <ele>1270.9</ele>
        <time>2023-08-15T17:45:31Z</time>
      </trkpt>
      <trkpt lat="42.68796" lon="2.13997">
        <ele>1270.3</ele>
        <time>2023-08-15T17:45:35Z</time>
      </trkpt>
      <trkpt lat="42.68781" lon="2.14001">
        <ele>1270.9</ele>
        <time>2023-08-15T17:45:38Z</time>
      </trkpt>
      <trkpt lat="42.68766" lon="2.13994">
        <ele>1272.3</ele>
        <time>2023-08-15T17:45:42Z</time>
      </trkpt>
      <trkpt lat="42.6876" lon="2.13978">
        <ele>1272.5</ele>
        <time>2023-08-15T17:45:45Z</time>
      </trkpt>
      <trkpt lat="42.68765" lon="2.13962">
        <ele>1273.6</ele>
        <time>2023-08-15T17:45:48Z</time>
      </trkpt>
      <trkpt lat="42.68776" lon="2.1395">
        <ele>1275.2</ele>
        <time>2023-08-15T17:45:51Z</time>
      </trkpt>
      <trkpt lat="42.68786" lon="2.13942">
        <ele>1277</ele>
        <time>2023-08-15T17:45:54Z</time>
      </trkpt>
      <trkpt lat="42.68796" lon="2.13935">
        <ele>1278.1</ele>
        <time>2023-08-15T17:45:58Z</time>
      </trkpt>
      <trkpt lat="42.68809" lon="2.13925">
        <ele>1278.9</ele>
        <time>2023-08-15T17:46:01Z</time>
      </trkpt>
      <trkpt lat="42.68822" lon="2.13917">
        <ele>1277.8</ele>
        <time>2023-08-15T17:46:04Z</time>
      </trkpt>
      <trkpt lat="42.68836" lon="2.13907">
        <ele>1278.5</ele>
        <time>2023-08-15T17:46:08Z</time>
      </trkpt>
      <trkpt lat="42.6885" lon="2.13899">
        <ele>1278.9</ele>
        <time>2023-08-15T17:46:11Z</time>
      </trkpt>
      <trkpt lat="42.68864" lon="2.13891">
        <ele>1279.3</ele>
        <time>2023-08-15T17:46:14Z</time>
      </trkpt>
      <trkpt lat="42.68877" lon="2.13884">
        <ele>1280.7</ele>
        <time>2023-08-15T17:46:17Z</time>
      </trkpt>
      <trkpt lat="42.68891" lon="2.13876">
        <ele>1282.2</ele>
        <time>2023-08-15T17:46:21Z</time>
      </trkpt>
      <trkpt lat="42.68905" lon="2.13871">
        <ele>1284</ele>
        <time>2023-08-15T17:46:24Z</time>
      </trkpt>
      <trkpt lat="42.68919" lon="2.13864">
        <ele>1285.2</ele>
        <time>2023-08-15T17:46:27Z</time>
      </trkpt>
      <trkpt lat="42.68931" lon="2.13851">
        <ele>1285.8</ele>
        <time>2023-08-15T17:46:31Z</time>
      </trkpt>
      <trkpt lat="42.68937" lon="2.1383">
        <ele>1284.7</ele>
        <time>2023-08-15T17:46:34Z</time>
      </trkpt>
      <trkpt lat="42.68937" lon="2.1381">
        <ele>1286.3</ele>
        <time>2023-08-15T17:46:38Z</time>
      </trkpt>
      <trkpt lat="42.68931" lon="2.13791">
        <ele>1286.8</ele>
        <time>2023-08-15T17:46:41Z</time>
      </trkpt>
      <trkpt lat="42.68921" lon="2.13778">
        <ele>1287.1</ele>
        <time>2023-08-15T17:46:44Z</time>
      </trkpt>
      <trkpt lat="42.68907" lon="2.13773">
        <ele>1288.4</ele>
        <time>2023-08-15T17:46:48Z</time>
      </trkpt>
      <trkpt lat="42.68892" lon="2.13769">
        <ele>1290.3</ele>
        <time>2023-08-15T17:46:51Z</time>
      </trkpt>
      <trkpt lat="42.68878" lon="2.13751">
        <ele>1293</ele>
        <time>2023-08-15T17:46:55Z</time>
      </trkpt>
      <trkpt lat="42.68871" lon="2.13735">
        <ele>1292.7</ele>
        <time>2023-08-15T17:46:58Z</time>
      </trkpt>
      <trkpt lat="42.6886" lon="2.13723">
        <ele>1293.7</ele>
        <time>2023-08-15T17:47:02Z</time>
      </trkpt>
      <trkpt lat="42.68849" lon="2.13715">
        <ele>1293</ele>
        <time>2023-08-15T17:47:05Z</time>
      </trkpt>
      <trkpt lat="42.68832" lon="2.13706">
        <ele>1294</ele>
        <time>2023-08-15T17:47:09Z</time>
      </trkpt>
      <trkpt lat="42.68817" lon="2.13698">
        <ele>1294.2</ele>
        <time>2023-08-15T17:47:12Z</time>
      </trkpt>
      <trkpt lat="42.68804" lon="2.13693">
        <ele>1295.4</ele>
        <time>2023-08-15T17:47:15Z</time>
      </trkpt>
      <trkpt lat="42.6879" lon="2.13687">
        <ele>1297.4</ele>
        <time>2023-08-15T17:47:19Z</time>
      </trkpt>
      <trkpt lat="42.68776" lon="2.1368">
        <ele>1298</ele>
        <time>2023-08-15T17:47:22Z</time>
      </trkpt>
      <trkpt lat="42.68759" lon="2.1367">
        <ele>1299.4</ele>
        <time>2023-08-15T17:47:25Z</time>
      </trkpt>
      <trkpt lat="42.68748" lon="2.13659">
        <ele>1299.6</ele>
        <time>2023-08-15T17:47:29Z</time>
      </trkpt>
      <trkpt lat="42.68743" lon="2.13642">
        <ele>1299.9</ele>
        <time>2023-08-15T17:47:32Z</time>
      </trkpt>
      <trkpt lat="42.6874" lon="2.13626">
        <ele>1300.6</ele>
        <time>2023-08-15T17:47:35Z</time>
      </trkpt>
      <trkpt lat="42.68734" lon="2.13614">
        <ele>1301.4</ele>
        <time>2023-08-15T17:47:39Z</time>
      </trkpt>
      <trkpt lat="42.68726" lon="2.13601">
        <ele>1301.4</ele>
        <time>2023-08-15T17:47:42Z</time>
      </trkpt>
      <trkpt lat="42.68714" lon="2.13584">
        <ele>1304</ele>
        <time>2023-08-15T17:47:46Z</time>
      </trkpt>
      <trkpt lat="42.68701" lon="2.13568">
        <ele>1304.7</ele>
        <time>2023-08-15T17:47:49Z</time>
      </trkpt>
      <trkpt lat="42.68691" lon="2.1355">
        <ele>1306.3</ele>
        <time>2023-08-15T17:47:53Z</time>
      </trkpt>
      <trkpt lat="42.68683" lon="2.13536">
        <ele>1306.8</ele>
        <time>2023-08-15T17:47:56Z</time>
      </trkpt>
      <trkpt lat="42.68671" lon="2.1352">
        <ele>1307.2</ele>
        <time>2023-08-15T17:47:59Z</time>
      </trkpt>
      <trkpt lat="42.68654" lon="2.13506">
        <ele>1309</ele>
        <time>2023-08-15T17:48:03Z</time>
      </trkpt>
      <trkpt lat="42.68641" lon="2.13498">
        <ele>1309.1</ele>
        <time>2023-08-15T17:48:07Z</time>
      </trkpt>
      <trkpt lat="42.68627" lon="2.13495">
        <ele>1310.3</ele>
        <time>2023-08-15T17:48:10Z</time>
      </trkpt>
      <trkpt lat="42.68614" lon="2.1348">
        <ele>1311.1</ele>
        <time>2023-08-15T17:48:14Z</time>
      </trkpt>
      <trkpt lat="42.68603" lon="2.13461">
        <ele>1311.7</ele>
        <time>2023-08-15T17:48:18Z</time>
      </trkpt>
      <trkpt lat="42.6859" lon="2.13457">
        <ele>1313.2</ele>
        <time>2023-08-15T17:48:21Z</time>
      </trkpt>
      <trkpt lat="42.68575" lon="2.13468">
        <ele>1314</ele>
        <time>2023-08-15T17:48:24Z</time>
      </trkpt>
      <trkpt lat="42.68563" lon="2.13481">
        <ele>1314.6</ele>
        <time>2023-08-15T17:48:28Z</time>
      </trkpt>
      <trkpt lat="42.6855" lon="2.13487">
        <ele>1316.2</ele>
        <time>2023-08-15T17:48:31Z</time>
      </trkpt>
      <trkpt lat="42.68536" lon="2.13491">
        <ele>1316.7</ele>
        <time>2023-08-15T17:48:34Z</time>
      </trkpt>
      <trkpt lat="42.68521" lon="2.13497">
        <ele>1317.2</ele>
        <time>2023-08-15T17:48:38Z</time>
      </trkpt>
      <trkpt lat="42.68507" lon="2.13504">
        <ele>1318</ele>
        <time>2023-08-15T17:48:42Z</time>
      </trkpt>
      <trkpt lat="42.68493" lon="2.13511">
        <ele>1319</ele>
        <time>2023-08-15T17:48:45Z</time>
      </trkpt>
      <trkpt lat="42.68478" lon="2.13513">
        <ele>1319.8</ele>
        <time>2023-08-15T17:48:48Z</time>
      </trkpt>
      <trkpt lat="42.68463" lon="2.13517">
        <ele>1321.7</ele>
        <time>2023-08-15T17:48:52Z</time>
      </trkpt>
      <trkpt lat="42.68448" lon="2.13526">
        <ele>1323.1</ele>
        <time>2023-08-15T17:48:56Z</time>
      </trkpt>
      <trkpt lat="42.68434" lon="2.1353">
        <ele>1323.3</ele>
        <time>2023-08-15T17:48:59Z</time>
      </trkpt>
      <trkpt lat="42.6842" lon="2.13534">
        <ele>1323.8</ele>
        <time>2023-08-15T17:49:02Z</time>
      </trkpt>
      <trkpt lat="42.68408" lon="2.13557">
        <ele>1323.4</ele>
        <time>2023-08-15T17:49:06Z</time>
      </trkpt>
      <trkpt lat="42.68407" lon="2.13584">
        <ele>1325.4</ele>
        <time>2023-08-15T17:49:10Z</time>
      </trkpt>
      <trkpt lat="42.68407" lon="2.13604">
        <ele>1325.8</ele>
        <time>2023-08-15T17:49:13Z</time>
      </trkpt>
      <trkpt lat="42.68408" lon="2.13624">
        <ele>1326.8</ele>
        <time>2023-08-15T17:49:16Z</time>
      </trkpt>
      <trkpt lat="42.68409" lon="2.13649">
        <ele>1328.3</ele>
        <time>2023-08-15T17:49:20Z</time>
      </trkpt>
      <trkpt lat="42.68407" lon="2.13669">
        <ele>1329.4</ele>
        <time>2023-08-15T17:49:23Z</time>
      </trkpt>
      <trkpt lat="42.68398" lon="2.13687">
        <ele>1331.1</ele>
        <time>2023-08-15T17:49:27Z</time>
      </trkpt>
      <trkpt lat="42.68388" lon="2.13699">
        <ele>1330.9</ele>
        <time>2023-08-15T17:49:31Z</time>
      </trkpt>
      <trkpt lat="42.68372" lon="2.13714">
        <ele>1330.8</ele>
        <time>2023-08-15T17:49:34Z</time>
      </trkpt>
      <trkpt lat="42.68357" lon="2.13726">
        <ele>1331.9</ele>
        <time>2023-08-15T17:49:38Z</time>
      </trkpt>
      <trkpt lat="42.6834" lon="2.13733">
        <ele>1332.6</ele>
        <time>2023-08-15T17:49:41Z</time>
      </trkpt>
      <trkpt lat="42.68324" lon="2.13737">
        <ele>1333.5</ele>
        <time>2023-08-15T17:49:45Z</time>
      </trkpt>
      <trkpt lat="42.68307" lon="2.13737">
        <ele>1334.3</ele>
        <time>2023-08-15T17:49:49Z</time>
      </trkpt>
      <trkpt lat="42.68291" lon="2.13739">
        <ele>1335.8</ele>
        <time>2023-08-15T17:49:52Z</time>
      </trkpt>
      <trkpt lat="42.68277" lon="2.1374">
        <ele>1337.8</ele>
        <time>2023-08-15T17:49:55Z</time>
      </trkpt>
      <trkpt lat="42.68261" lon="2.13743">
        <ele>1337.4</ele>
        <time>2023-08-15T17:49:58Z</time>
      </trkpt>
      <trkpt lat="42.68247" lon="2.13746">
        <ele>1338.2</ele>
        <time>2023-08-15T17:50:02Z</time>
      </trkpt>
      <trkpt lat="42.68232" lon="2.13754">
        <ele>1338</ele>
        <time>2023-08-15T17:50:05Z</time>
      </trkpt>
      <trkpt lat="42.68219" lon="2.13765">
        <ele>1339.6</ele>
        <time>2023-08-15T17:50:08Z</time>
      </trkpt>
      <trkpt lat="42.68203" lon="2.13781">
        <ele>1340.2</ele>
        <time>2023-08-15T17:50:12Z</time>
      </trkpt>
      <trkpt lat="42.68189" lon="2.13791">
        <ele>1340.8</ele>
        <time>2023-08-15T17:50:15Z</time>
      </trkpt>
      <trkpt lat="42.68169" lon="2.13796">
        <ele>1342.7</ele>
        <time>2023-08-15T17:50:19Z</time>
      </trkpt>
      <trkpt lat="42.68155" lon="2.1379">
        <ele>1343.9</ele>
        <time>2023-08-15T17:50:22Z</time>
      </trkpt>
      <trkpt lat="42.68142" lon="2.13778">
        <ele>1344.3</ele>
        <time>2023-08-15T17:50:26Z</time>
      </trkpt>
      <trkpt lat="42.68131" lon="2.13769">
        <ele>1344.4</ele>
        <time>2023-08-15T17:50:30Z</time>
      </trkpt>
      <trkpt lat="42.68119" lon="2.13761">
        <ele>1345.3</ele>
        <time>2023-08-15T17:50:33Z</time>
      </trkpt>
      <trkpt lat="42.68103" lon="2.13761">
        <ele>1345.2</ele>
        <time>2023-08-15T17:50:36Z</time>
      </trkpt>
      <trkpt lat="42.6809" lon="2.13772">
        <ele>1346.8</ele>
        <time>2023-08-15T17:50:39Z</time>
      </trkpt>
      <trkpt lat="42.6808" lon="2.13793">
        <ele>1347.5</ele>
        <time>2023-08-15T17:50:43Z</time>
      </trkpt>
      <trkpt lat="42.68072" lon="2.13815">
        <ele>1348.1</ele>
        <time>2023-08-15T17:50:46Z</time>
      </trkpt>
      <trkpt lat="42.68062" lon="2.1384">
        <ele>1350.3</ele>
        <time>2023-08-15T17:50:50Z</time>
      </trkpt>
      <trkpt lat="42.68052" lon="2.13861">
        <ele>1351.5</ele>
        <time>2023-08-15T17:50:54Z</time>
      </trkpt>
      <trkpt lat="42.68039" lon="2.13878">
        <ele>1350.8</ele>
        <time>2023-08-15T17:50:58Z</time>
      </trkpt>
      <trkpt lat="42.68027" lon="2.13888">
        <ele>1351.5</ele>
        <time>2023-08-15T17:51:01Z</time>
      </trkpt>
      <trkpt lat="42.68015" lon="2.13895">
        <ele>1351.4</ele>
        <time>2023-08-15T17:51:04Z</time>
      </trkpt>
      <trkpt lat="42.68001" lon="2.13907">
        <ele>1352.8</ele>
        <time>2023-08-15T17:51:08Z</time>
      </trkpt>
      <trkpt lat="42.6799" lon="2.13919">
        <ele>1354.1</ele>
        <time>2023-08-15T17:51:11Z</time>
      </trkpt>
      <trkpt lat="42.67977" lon="2.1393">
        <ele>1354.3</ele>
        <time>2023-08-15T17:51:15Z</time>
      </trkpt>
      <trkpt lat="42.67963" lon="2.13939">
        <ele>1356.2</ele>
        <time>2023-08-15T17:51:18Z</time>
      </trkpt>
      <trkpt lat="42.67948" lon="2.13951">
        <ele>1357</ele>
        <time>2023-08-15T17:51:22Z</time>
      </trkpt>
      <trkpt lat="42.67937" lon="2.13957">
        <ele>1356.4</ele>
        <time>2023-08-15T17:51:25Z</time>
      </trkpt>
      <trkpt lat="42.67923" lon="2.13965">
        <ele>1357.4</ele>
        <time>2023-08-15T17:51:29Z</time>
      </trkpt>
      <trkpt lat="42.6791" lon="2.13972">
        <ele>1358.2</ele>
        <time>2023-08-15T17:51:32Z</time>
      </trkpt>
      <trkpt lat="42.67894" lon="2.1398">
        <ele>1359.2</ele>
        <time>2023-08-15T17:51:36Z</time>
      </trkpt>
      <trkpt lat="42.67881" lon="2.13984">
        <ele>1359.6</ele>
        <time>2023-08-15T17:51:39Z</time>
      </trkpt>
      <trkpt lat="42.67864" lon="2.13982">
        <ele>1360.8</ele>
        <time>2023-08-15T17:51:42Z</time>
      </trkpt>
      <trkpt lat="42.67852" lon="2.13976">
        <ele>1361.1</ele>
        <time>2023-08-15T17:51:46Z</time>
      </trkpt>
      <trkpt lat="42.67839" lon="2.13969">
        <ele>1362.9</ele>
        <time>2023-08-15T17:51:49Z</time>
      </trkpt>
      <trkpt lat="42.67821" lon="2.1396">
        <ele>1363.3</ele>
        <time>2023-08-15T17:51:53Z</time>
      </trkpt>
      <trkpt lat="42.67802" lon="2.13955">
        <ele>1363.9</ele>
        <time>2023-08-15T17:51:57Z</time>
      </trkpt>
      <trkpt lat="42.67785" lon="2.13956">
        <ele>1364.7</ele>
        <time>2023-08-15T17:52:01Z</time>
      </trkpt>
      <trkpt lat="42.67771" lon="2.13961">
        <ele>1365.7</ele>
        <time>2023-08-15T17:52:04Z</time>
      </trkpt>
      <trkpt lat="42.67758" lon="2.13964">
        <ele>1366.1</ele>
        <time>2023-08-15T17:52:07Z</time>
      </trkpt>
      <trkpt lat="42.67741" lon="2.13965">
        <ele>1367.5</ele>
        <time>2023-08-15T17:52:11Z</time>
      </trkpt>
      <trkpt lat="42.67729" lon="2.13966">
        <ele>1367.5</ele>
        <time>2023-08-15T17:52:14Z</time>
      </trkpt>
      <trkpt lat="42.67716" lon="2.13967">
        <ele>1369.4</ele>
        <time>2023-08-15T17:52:17Z</time>
      </trkpt>
      <trkpt lat="42.67701" lon="2.1397">
        <ele>1370.2</ele>
        <time>2023-08-15T17:52:20Z</time>
      </trkpt>
      <trkpt lat="42.67684" lon="2.13978">
        <ele>1371.8</ele>
        <time>2023-08-15T17:52:24Z</time>
      </trkpt>
      <trkpt lat="42.67672" lon="2.14">
        <ele>1371.6</ele>
        <time>2023-08-15T17:52:28Z</time>
      </trkpt>
      <trkpt lat="42.67672" lon="2.14025">
        <ele>1372.9</ele>
        <time>2023-08-15T17:52:32Z</time>
      </trkpt>
      <trkpt lat="42.67679" lon="2.14039">
        <ele>1373.3</ele>
        <time>2023-08-15T17:52:35Z</time>
      </trkpt>
      <trkpt lat="42.67689" lon="2.14059">
        <ele>1374.1</ele>
        <time>2023-08-15T17:52:39Z</time>
      </trkpt>
      <trkpt lat="42.67692" lon="2.14079">
        <ele>1374.4</ele>
        <time>2023-08-15T17:52:43Z</time>
      </trkpt>
      <trkpt lat="42.67685" lon="2.14095">
        <ele>1375.8</ele>
        <time>2023-08-15T17:52:46Z</time>
      </trkpt>
      <trkpt lat="42.67668" lon="2.14104">
        <ele>1376.6</ele>
        <time>2023-08-15T17:52:50Z</time>
      </trkpt>
      <trkpt lat="42.67651" lon="2.14094">
        <ele>1377.8</ele>
        <time>2023-08-15T17:52:53Z</time>
      </trkpt>
      <trkpt lat="42.67643" lon="2.14076">
        <ele>1377.5</ele>
        <time>2023-08-15T17:52:56Z</time>
      </trkpt>
      <trkpt lat="42.67633" lon="2.14055">
        <ele>1378</ele>
        <time>2023-08-15T17:53:00Z</time>
      </trkpt>
      <trkpt lat="42.67618" lon="2.14045">
        <ele>1380.3</ele>
        <time>2023-08-15T17:53:03Z</time>
      </trkpt>
      <trkpt lat="42.67603" lon="2.14046">
        <ele>1379.8</ele>
        <time>2023-08-15T17:53:06Z</time>
      </trkpt>
      <trkpt lat="42.6759" lon="2.14051">
        <ele>1380.3</ele>
        <time>2023-08-15T17:53:09Z</time>
      </trkpt>
      <trkpt lat="42.67576" lon="2.14056">
        <ele>1380.1</ele>
        <time>2023-08-15T17:53:12Z</time>
      </trkpt>
      <trkpt lat="42.67563" lon="2.14059">
        <ele>1382.3</ele>
        <time>2023-08-15T17:53:16Z</time>
      </trkpt>
      <trkpt lat="42.67548" lon="2.14061">
        <ele>1382.5</ele>
        <time>2023-08-15T17:53:19Z</time>
      </trkpt>
      <trkpt lat="42.67533" lon="2.14063">
        <ele>1384.1</ele>
        <time>2023-08-15T17:53:22Z</time>
      </trkpt>
      <trkpt lat="42.67518" lon="2.14062">
        <ele>1384.3</ele>
        <time>2023-08-15T17:53:25Z</time>
      </trkpt>
      <trkpt lat="42.67497" lon="2.14058">
        <ele>1384.5</ele>
        <time>2023-08-15T17:53:29Z</time>
      </trkpt>
      <trkpt lat="42.67478" lon="2.14056">
        <ele>1387.1</ele>
        <time>2023-08-15T17:53:33Z</time>
      </trkpt>
      <trkpt lat="42.67465" lon="2.14054">
        <ele>1387.7</ele>
        <time>2023-08-15T17:53:36Z</time>
      </trkpt>
      <trkpt lat="42.67447" lon="2.1405">
        <ele>1387.9</ele>
        <time>2023-08-15T17:53:40Z</time>
      </trkpt>
      <trkpt lat="42.67432" lon="2.14043">
        <ele>1388.8</ele>
        <time>2023-08-15T17:53:44Z</time>
      </trkpt>
      <trkpt lat="42.67426" lon="2.14027">
        <ele>1388.9</ele>
        <time>2023-08-15T17:53:48Z</time>
      </trkpt>
      <trkpt lat="42.6742" lon="2.14003">
        <ele>1390.2</ele>
        <time>2023-08-15T17:53:51Z</time>
      </trkpt>
      <trkpt lat="42.67414" lon="2.13983">
        <ele>1390.4</ele>
        <time>2023-08-15T17:53:54Z</time>
      </trkpt>
      <trkpt lat="42.67404" lon="2.13968">
        <ele>1391.9</ele>
        <time>2023-08-15T17:53:57Z</time>
      </trkpt>
      <trkpt lat="42.67387" lon="2.13958">
        <ele>1393.1</ele>
        <time>2023-08-15T17:54:01Z</time>
      </trkpt>
      <trkpt lat="42.67374" lon="2.13951">
        <ele>1393.3</ele>
        <time>2023-08-15T17:54:04Z</time>
      </trkpt>
      <trkpt lat="42.67355" lon="2.13948">
        <ele>1393.8</ele>
        <time>2023-08-15T17:54:08Z</time>
      </trkpt>
      <trkpt lat="42.6734" lon="2.13955">
        <ele>1395.8</ele>
        <time>2023-08-15T17:54:12Z</time>
      </trkpt>
      <trkpt lat="42.67329" lon="2.1397">
        <ele>1396.1</ele>
        <time>2023-08-15T17:54:15Z</time>
      </trkpt>
      <trkpt lat="42.67313" lon="2.13995">
        <ele>1396.6</ele>
        <time>2023-08-15T17:54:19Z</time>
      </trkpt>
      <trkpt lat="42.673" lon="2.14013">
        <ele>1396.6</ele>
        <time>2023-08-15T17:54:23Z</time>
      </trkpt>
      <trkpt lat="42.6729" lon="2.14025">
        <ele>1398</ele>
        <time>2023-08-15T17:54:27Z</time>
      </trkpt>
      <trkpt lat="42.67277" lon="2.14041">
        <ele>1399.4</ele>
        <time>2023-08-15T17:54:30Z</time>
      </trkpt>
      <trkpt lat="42.67266" lon="2.14053">
        <ele>1399.5</ele>
        <time>2023-08-15T17:54:33Z</time>
      </trkpt>
      <trkpt lat="42.67256" lon="2.14063">
        <ele>1399.5</ele>
        <time>2023-08-15T17:54:36Z</time>
      </trkpt>
      <trkpt lat="42.67241" lon="2.14064">
        <ele>1400.8</ele>
        <time>2023-08-15T17:54:39Z</time>
      </trkpt>
      <trkpt lat="42.67229" lon="2.14053">
        <ele>1401.1</ele>
        <time>2023-08-15T17:54:43Z</time>
      </trkpt>
      <trkpt lat="42.67218" lon="2.14033">
        <ele>1402.6</ele>
        <time>2023-08-15T17:54:47Z</time>
      </trkpt>
      <trkpt lat="42.67204" lon="2.14019">
        <ele>1402.8</ele>
        <time>2023-08-15T17:54:50Z</time>
      </trkpt>
      <trkpt lat="42.67191" lon="2.1401">
        <ele>1403.1</ele>
        <time>2023-08-15T17:54:54Z</time>
      </trkpt>
      <trkpt lat="42.67177" lon="2.14">
        <ele>1404.3</ele>
        <time>2023-08-15T17:54:57Z</time>
      </trkpt>
      <trkpt lat="42.67165" lon="2.13988">
        <ele>1405.2</ele>
        <time>2023-08-15T17:55:01Z</time>
      </trkpt>
      <trkpt lat="42.67151" lon="2.13978">
        <ele>1405.8</ele>
        <time>2023-08-15T17:55:04Z</time>
      </trkpt>
      <trkpt lat="42.6714" lon="2.13969">
        <ele>1405.4</ele>
        <time>2023-08-15T17:55:07Z</time>
      </trkpt>
      <trkpt lat="42.67127" lon="2.13967">
        <ele>1407.4</ele>
        <time>2023-08-15T17:55:10Z</time>
      </trkpt>
      <trkpt lat="42.67115" lon="2.13968">
        <ele>1407.8</ele>
        <time>2023-08-15T17:55:13Z</time>
      </trkpt>
      <trkpt lat="42.67102" lon="2.13956">
        <ele>1408.5</ele>
        <time>2023-08-15T17:55:16Z</time>
      </trkpt>
      <trkpt lat="42.67093" lon="2.13938">
        <ele>1408.6</ele>
        <time>2023-08-15T17:55:20Z</time>
      </trkpt>
      <trkpt lat="42.67079" lon="2.1392">
        <ele>1408.7</ele>
        <time>2023-08-15T17:55:23Z</time>
      </trkpt>
      <trkpt lat="42.67059" lon="2.13915">
        <ele>1409.5</ele>
        <time>2023-08-15T17:55:27Z</time>
      </trkpt>
      <trkpt lat="42.67048" lon="2.13923">
        <ele>1410.5</ele>
        <time>2023-08-15T17:55:30Z</time>
      </trkpt>
      <trkpt lat="42.67039" lon="2.13936">
        <ele>1411.2</ele>
        <time>2023-08-15T17:55:33Z</time>
      </trkpt>
      <trkpt lat="42.67031" lon="2.13949">
        <ele>1410.5</ele>
        <time>2023-08-15T17:55:37Z</time>
      </trkpt>
      <trkpt lat="42.67022" lon="2.13954">
        <ele>1412.5</ele>
        <time>2023-08-15T17:55:40Z</time>
      </trkpt>
      <trkpt lat="42.6701" lon="2.13954">
        <ele>1413.7</ele>
        <time>2023-08-15T17:55:43Z</time>
      </trkpt>
      <trkpt lat="42.66994" lon="2.13957">
        <ele>1413.3</ele>
        <time>2023-08-15T17:55:46Z</time>
      </trkpt>
      <trkpt lat="42.6698" lon="2.13966">
        <ele>1413.9</ele>
        <time>2023-08-15T17:55:49Z</time>
      </trkpt>
      <trkpt lat="42.66966" lon="2.13981">
        <ele>1414.4</ele>
        <time>2023-08-15T17:55:53Z</time>
      </trkpt>
      <trkpt lat="42.66952" lon="2.13992">
        <ele>1414.7</ele>
        <time>2023-08-15T17:55:56Z</time>
      </trkpt>
      <trkpt lat="42.66938" lon="2.13997">
        <ele>1416.1</ele>
        <time>2023-08-15T17:55:59Z</time>
      </trkpt>
      <trkpt lat="42.66925" lon="2.13998">
        <ele>1417.4</ele>
        <time>2023-08-15T17:56:02Z</time>
      </trkpt>
      <trkpt lat="42.66912" lon="2.13998">
        <ele>1417.2</ele>
        <time>2023-08-15T17:56:05Z</time>
      </trkpt>
      <trkpt lat="42.669" lon="2.13998">
        <ele>1418.8</ele>
        <time>2023-08-15T17:56:09Z</time>
      </trkpt>
      <trkpt lat="42.66887" lon="2.13999">
        <ele>1418.1</ele>
        <time>2023-08-15T17:56:12Z</time>
      </trkpt>
      <trkpt lat="42.66872" lon="2.14002">
        <ele>1418.7</ele>
        <time>2023-08-15T17:56:15Z</time>
      </trkpt>
      <trkpt lat="42.66858" lon="2.14005">
        <ele>1420</ele>
        <time>2023-08-15T17:56:18Z</time>
      </trkpt>
      <trkpt lat="42.66845" lon="2.14011">
        <ele>1419.9</ele>
        <time>2023-08-15T17:56:21Z</time>
      </trkpt>
      <trkpt lat="42.66832" lon="2.1402">
        <ele>1420.3</ele>
        <time>2023-08-15T17:56:25Z</time>
      </trkpt>
      <trkpt lat="42.66818" lon="2.14024">
        <ele>1421.6</ele>
        <time>2023-08-15T17:56:28Z</time>
      </trkpt>
      <trkpt lat="42.66804" lon="2.1401">
        <ele>1422.8</ele>
        <time>2023-08-15T17:56:31Z</time>
      </trkpt>
      <trkpt lat="42.668" lon="2.13981">
        <ele>1424.1</ele>
        <time>2023-08-15T17:56:35Z</time>
      </trkpt>
      <trkpt lat="42.66805" lon="2.1396">
        <ele>1424</ele>
        <time>2023-08-15T17:56:39Z</time>
      </trkpt>
      <trkpt lat="42.66811" lon="2.13937">
        <ele>1424.8</ele>
        <time>2023-08-15T17:56:43Z</time>
      </trkpt>
      <trkpt lat="42.6681" lon="2.13919">
        <ele>1424.3</ele>
        <time>2023-08-15T17:56:46Z</time>
      </trkpt>
      <trkpt lat="42.66807" lon="2.13898">
        <ele>1425.2</ele>
        <time>2023-08-15T17:56:49Z</time>
      </trkpt>
      <trkpt lat="42.66802" lon="2.13879">
        <ele>1425.5</ele>
        <time>2023-08-15T17:56:52Z</time>
      </trkpt>
      <trkpt lat="42.66787" lon="2.13857">
        <ele>1426.2</ele>
        <time>2023-08-15T17:56:56Z</time>
      </trkpt>
      <trkpt lat="42.66763" lon="2.13847">
        <ele>1426.8</ele>
        <time>2023-08-15T17:57:00Z</time>
      </trkpt>
      <trkpt lat="42.66736" lon="2.13835">
        <ele>1426.9</ele>
        <time>2023-08-15T17:57:04Z</time>
      </trkpt>
      <trkpt lat="42.66715" lon="2.13819">
        <ele>1427.1</ele>
        <time>2023-08-15T17:57:08Z</time>
      </trkpt>
      <trkpt lat="42.66703" lon="2.13804">
        <ele>1426.1</ele>
        <time>2023-08-15T17:57:11Z</time>
      </trkpt>
      <trkpt lat="42.66693" lon="2.13787">
        <ele>1424.7</ele>
        <time>2023-08-15T17:57:14Z</time>
      </trkpt>
      <trkpt lat="42.66675" lon="2.13768">
        <ele>1424.7</ele>
        <time>2023-08-15T17:57:18Z</time>
      </trkpt>
      <trkpt lat="42.66659" lon="2.13756">
        <ele>1424.5</ele>
        <time>2023-08-15T17:57:21Z</time>
      </trkpt>
      <trkpt lat="42.66637" lon="2.13742">
        <ele>1425.1</ele>
        <time>2023-08-15T17:57:25Z</time>
      </trkpt>
      <trkpt lat="42.66621" lon="2.13725">
        <ele>1425.9</ele>
        <time>2023-08-15T17:57:29Z</time>
      </trkpt>
      <trkpt lat="42.66607" lon="2.13702">
        <ele>1425.8</ele>
        <time>2023-08-15T17:57:33Z</time>
      </trkpt>
      <trkpt lat="42.66595" lon="2.13687">
        <ele>1426.6</ele>
        <time>2023-08-15T17:57:36Z</time>
      </trkpt>
      <trkpt lat="42.66575" lon="2.13672">
        <ele>1425.5</ele>
        <time>2023-08-15T17:57:40Z</time>
      </trkpt>
      <trkpt lat="42.66561" lon="2.13658">
        <ele>1424.5</ele>
        <time>2023-08-15T17:57:43Z</time>
      </trkpt>
      <trkpt lat="42.66548" lon="2.13632">
        <ele>1424.8</ele>
        <time>2023-08-15T17:57:47Z</time>
      </trkpt>
      <trkpt lat="42.66542" lon="2.13615">
        <ele>1424.9</ele>
        <time>2023-08-15T17:57:50Z</time>
      </trkpt>
      <trkpt lat="42.66536" lon="2.13598">
        <ele>1425.5</ele>
        <time>2023-08-15T17:57:53Z</time>
      </trkpt>
      <trkpt lat="42.66529" lon="2.13583">
        <ele>1426</ele>
        <time>2023-08-15T17:57:56Z</time>
      </trkpt>
      <trkpt lat="42.66515" lon="2.13566">
        <ele>1426.5</ele>
        <time>2023-08-15T17:58:00Z</time>
      </trkpt>
      <trkpt lat="42.66499" lon="2.13561">
        <ele>1426.6</ele>
        <time>2023-08-15T17:58:03Z</time>
      </trkpt>
      <trkpt lat="42.66484" lon="2.13563">
        <ele>1427.6</ele>
        <time>2023-08-15T17:58:06Z</time>
      </trkpt>
      <trkpt lat="42.66465" lon="2.13566">
        <ele>1426.1</ele>
        <time>2023-08-15T17:58:10Z</time>
      </trkpt>
      <trkpt lat="42.66449" lon="2.13561">
        <ele>1426.1</ele>
        <time>2023-08-15T17:58:14Z</time>
      </trkpt>
      <trkpt lat="42.66438" lon="2.13549">
        <ele>1426.1</ele>
        <time>2023-08-15T17:58:18Z</time>
      </trkpt>
      <trkpt lat="42.66436" lon="2.13521">
        <ele>1425.9</ele>
        <time>2023-08-15T17:58:22Z</time>
      </trkpt>
      <trkpt lat="42.66442" lon="2.13504">
        <ele>1426.2</ele>
        <time>2023-08-15T17:58:25Z</time>
      </trkpt>
      <trkpt lat="42.66449" lon="2.13482">
        <ele>1427.4</ele>
        <time>2023-08-15T17:58:28Z</time>
      </trkpt>
      <trkpt lat="42.66446" lon="2.13455">
        <ele>1427.1</ele>
        <time>2023-08-15T17:58:32Z</time>
      </trkpt>
      <trkpt lat="42.6644" lon="2.1344">
        <ele>1427.5</ele>
        <time>2023-08-15T17:58:35Z</time>
      </trkpt>
      <trkpt lat="42.66436" lon="2.13429">
        <ele>1426.2</ele>
        <time>2023-08-15T17:58:38Z</time>
      </trkpt>
      <trkpt lat="42.66429" lon="2.13416">
        <ele>1425.7</ele>
        <time>2023-08-15T17:58:42Z</time>
      </trkpt>
      <trkpt lat="42.66421" lon="2.134">
        <ele>1426</ele>
        <time>2023-08-15T17:58:45Z</time>
      </trkpt>
      <trkpt lat="42.66413" lon="2.13387">
        <ele>1426.2</ele>
        <time>2023-08-15T17:58:48Z</time>
      </trkpt>
      <trkpt lat="42.66408" lon="2.13375">
        <ele>1426</ele>
        <time>2023-08-15T17:58:51Z</time>
      </trkpt>
      <trkpt lat="42.66403" lon="2.13359">
        <ele>1426.8</ele>
        <time>2023-08-15T17:58:54Z</time>
      </trkpt>
      <trkpt lat="42.66397" lon="2.13337">
        <ele>1428.1</ele>
        <time>2023-08-15T17:58:58Z</time>
      </trkpt>
      <trkpt lat="42.66392" lon="2.13319">
        <ele>1427.2</ele>
        <time>2023-08-15T17:59:01Z</time>
      </trkpt>
      <trkpt lat="42.66387" lon="2.133">
        <ele>1428.1</ele>
        <time>2023-08-15T17:59:04Z</time>
      </trkpt>
      <trkpt lat="42.66381" lon="2.1328">
        <ele>1426.9</ele>
        <time>2023-08-15T17:59:08Z</time>
      </trkpt>
      <trkpt lat="42.66374" lon="2.13264">
        <ele>1426.5</ele>
        <time>2023-08-15T17:59:11Z</time>
      </trkpt>
      <trkpt lat="42.66366" lon="2.13245">
        <ele>1426.5</ele>
        <time>2023-08-15T17:59:15Z</time>
      </trkpt>
      <trkpt lat="42.66359" lon="2.13225">
        <ele>1426.3</ele>
        <time>2023-08-15T17:59:18Z</time>
      </trkpt>
      <trkpt lat="42.66353" lon="2.13207">
        <ele>1427.8</ele>
        <time>2023-08-15T17:59:21Z</time>
      </trkpt>
      <trkpt lat="42.66347" lon="2.13184">
        <ele>1428.9</ele>
        <time>2023-08-15T17:59:25Z</time>
      </trkpt>
      <trkpt lat="42.6634" lon="2.13167">
        <ele>1429.3</ele>
        <time>2023-08-15T17:59:28Z</time>
      </trkpt>
      <trkpt lat="42.66331" lon="2.13154">
        <ele>1428.4</ele>
        <time>2023-08-15T17:59:31Z</time>
      </trkpt>
      <trkpt lat="42.66321" lon="2.13142">
        <ele>1428.8</ele>
        <time>2023-08-15T17:59:34Z</time>
      </trkpt>
      <trkpt lat="42.66307" lon="2.13126">
        <ele>1429.3</ele>
        <time>2023-08-15T17:59:38Z</time>
      </trkpt>
      <trkpt lat="42.66296" lon="2.13117">
        <ele>1427.4</ele>
        <time>2023-08-15T17:59:41Z</time>
      </trkpt>
      <trkpt lat="42.66278" lon="2.13111">
        <ele>1428</ele>
        <time>2023-08-15T17:59:45Z</time>
      </trkpt>
      <trkpt lat="42.66259" lon="2.13106">
        <ele>1428.8</ele>
        <time>2023-08-15T17:59:49Z</time>
      </trkpt>
      <trkpt lat="42.66249" lon="2.13099">
        <ele>1430</ele>
        <time>2023-08-15T17:59:52Z</time>
      </trkpt>
      <trkpt lat="42.66235" lon="2.13082">
        <ele>1429.8</ele>
        <time>2023-08-15T17:59:56Z</time>
      </trkpt>
      <trkpt lat="42.66228" lon="2.13064">
        <ele>1430.7</ele>
        <time>2023-08-15T17:59:59Z</time>
      </trkpt>
      <trkpt lat="42.66227" lon="2.13043">
        <ele>1429</ele>
        <time>2023-08-15T18:00:02Z</time>
      </trkpt>
      <trkpt lat="42.66228" lon="2.13021">
        <ele>1429.2</ele>
        <time>2023-08-15T18:00:05Z</time>
      </trkpt>
      <trkpt lat="42.6623" lon="2.13001">
        <ele>1428.1</ele>
        <time>2023-08-15T18:00:08Z</time>
      </trkpt>
      <trkpt lat="42.66231" lon="2.12983">
        <ele>1427.6</ele>
        <time>2023-08-15T18:00:11Z</time>
      </trkpt>
      <trkpt lat="42.6623" lon="2.12958">
        <ele>1428.2</ele>
        <time>2023-08-15T18:00:15Z</time>
      </trkpt>
      <trkpt lat="42.66227" lon="2.12939">
        <ele>1427.6</ele>
        <time>2023-08-15T18:00:18Z</time>
      </trkpt>
      <trkpt lat="42.66218" lon="2.12919">
        <ele>1429.8</ele>
        <time>2023-08-15T18:00:22Z</time>
      </trkpt>
      <trkpt lat="42.66206" lon="2.12901">
        <ele>1430.4</ele>
        <time>2023-08-15T18:00:26Z</time>
      </trkpt>
      <trkpt lat="42.66201" lon="2.12887">
        <ele>1429.5</ele>
        <time>2023-08-15T18:00:29Z</time>
      </trkpt>
      <trkpt lat="42.66196" lon="2.12865">
        <ele>1429.6</ele>
        <time>2023-08-15T18:00:33Z</time>
      </trkpt>
      <trkpt lat="42.66193" lon="2.12845">
        <ele>1429.8</ele>
        <time>2023-08-15T18:00:36Z</time>
      </trkpt>
      <trkpt lat="42.66187" lon="2.12823">
        <ele>1428.2</ele>
        <time>2023-08-15T18:00:39Z</time>
      </trkpt>
      <trkpt lat="42.66181" lon="2.12805">
        <ele>1429.3</ele>
        <time>2023-08-15T18:00:42Z</time>
      </trkpt>
      <trkpt lat="42.66173" lon="2.12781">
        <ele>1429.2</ele>
        <time>2023-08-15T18:00:46Z</time>
      </trkpt>
      <trkpt lat="42.66167" lon="2.12761">
        <ele>1430.2</ele>
        <time>2023-08-15T18:00:49Z</time>
      </trkpt>
      <trkpt lat="42.66159" lon="2.12737">
        <ele>1430.4</ele>
        <time>2023-08-15T18:00:53Z</time>
      </trkpt>
      <trkpt lat="42.6615" lon="2.12714">
        <ele>1430.7</ele>
        <time>2023-08-15T18:00:57Z</time>
      </trkpt>
      <trkpt lat="42.6614" lon="2.12708">
        <ele>1429.6</ele>
        <time>2023-08-15T18:01:00Z</time>
      </trkpt>
      <trkpt lat="42.66122" lon="2.12707">
        <ele>1430.2</ele>
        <time>2023-08-15T18:01:04Z</time>
      </trkpt>
      <trkpt lat="42.66107" lon="2.1271">
        <ele>1431.2</ele>
        <time>2023-08-15T18:01:07Z</time>
      </trkpt>
      <trkpt lat="42.66087" lon="2.1271">
        <ele>1429.9</ele>
        <time>2023-08-15T18:01:11Z</time>
      </trkpt>
      <trkpt lat="42.66067" lon="2.12706">
        <ele>1431.1</ele>
        <time>2023-08-15T18:01:15Z</time>
      </trkpt>
      <trkpt lat="42.66048" lon="2.12696">
        <ele>1431.2</ele>
        <time>2023-08-15T18:01:19Z</time>
      </trkpt>
      <trkpt lat="42.66036" lon="2.12683">
        <ele>1431.7</ele>
        <time>2023-08-15T18:01:23Z</time>
      </trkpt>
      <trkpt lat="42.66026" lon="2.12669">
        <ele>1431.2</ele>
        <time>2023-08-15T18:01:27Z</time>
      </trkpt>
      <trkpt lat="42.66016" lon="2.12654">
        <ele>1430.8</ele>
        <time>2023-08-15T18:01:30Z</time>
      </trkpt>
      <trkpt lat="42.66006" lon="2.12639">
        <ele>1430.7</ele>
        <time>2023-08-15T18:01:34Z</time>
      </trkpt>
      <trkpt lat="42.65997" lon="2.12626">
        <ele>1432</ele>
        <time>2023-08-15T18:01:37Z</time>
      </trkpt>
      <trkpt lat="42.65987" lon="2.12614">
        <ele>1432</ele>
        <time>2023-08-15T18:01:41Z</time>
      </trkpt>
      <trkpt lat="42.65977" lon="2.12599">
        <ele>1432.8</ele>
        <time>2023-08-15T18:01:44Z</time>
      </trkpt>
      <trkpt lat="42.65968" lon="2.12584">
        <ele>1433.1</ele>
        <time>2023-08-15T18:01:48Z</time>
      </trkpt>
      <trkpt lat="42.65959" lon="2.1257">
        <ele>1433.7</ele>
        <time>2023-08-15T18:01:51Z</time>
      </trkpt>
      <trkpt lat="42.65949" lon="2.12555">
        <ele>1434.1</ele>
        <time>2023-08-15T18:01:54Z</time>
      </trkpt>
      <trkpt lat="42.65939" lon="2.12541">
        <ele>1433.5</ele>
        <time>2023-08-15T18:01:57Z</time>
      </trkpt>
      <trkpt lat="42.65928" lon="2.12528">
        <ele>1433.6</ele>
        <time>2023-08-15T18:02:00Z</time>
      </trkpt>
      <trkpt lat="42.65915" lon="2.12515">
        <ele>1434.9</ele>
        <time>2023-08-15T18:02:03Z</time>
      </trkpt>
      <trkpt lat="42.65902" lon="2.12502">
        <ele>1435.2</ele>
        <time>2023-08-15T18:02:06Z</time>
      </trkpt>
      <trkpt lat="42.65891" lon="2.12492">
        <ele>1435.8</ele>
        <time>2023-08-15T18:02:09Z</time>
      </trkpt>
      <trkpt lat="42.65879" lon="2.12483">
        <ele>1436.5</ele>
        <time>2023-08-15T18:02:12Z</time>
      </trkpt>
      <trkpt lat="42.65865" lon="2.12474">
        <ele>1436.7</ele>
        <time>2023-08-15T18:02:16Z</time>
      </trkpt>
      <trkpt lat="42.65853" lon="2.12469">
        <ele>1436.6</ele>
        <time>2023-08-15T18:02:19Z</time>
      </trkpt>
      <trkpt lat="42.65837" lon="2.12466">
        <ele>1437</ele>
        <time>2023-08-15T18:02:23Z</time>
      </trkpt>
      <trkpt lat="42.65824" lon="2.12465">
        <ele>1437.7</ele>
        <time>2023-08-15T18:02:26Z</time>
      </trkpt>
      <trkpt lat="42.65813" lon="2.12466">
        <ele>1436.8</ele>
        <time>2023-08-15T18:02:29Z</time>
      </trkpt>
      <trkpt lat="42.65796" lon="2.12466">
        <ele>1438.2</ele>
        <time>2023-08-15T18:02:33Z</time>
      </trkpt>
      <trkpt lat="42.6578" lon="2.12465">
        <ele>1438.6</ele>
        <time>2023-08-15T18:02:37Z</time>
      </trkpt>
      <trkpt lat="42.65765" lon="2.12462">
        <ele>1438.9</ele>
        <time>2023-08-15T18:02:41Z</time>
      </trkpt>
      <trkpt lat="42.65753" lon="2.12459">
        <ele>1438.8</ele>
        <time>2023-08-15T18:02:44Z</time>
      </trkpt>
      <trkpt lat="42.65741" lon="2.12456">
        <ele>1439.9</ele>
        <time>2023-08-15T18:02:47Z</time>
      </trkpt>
      <trkpt lat="42.65727" lon="2.12453">
        <ele>1440.4</ele>
        <time>2023-08-15T18:02:51Z</time>
      </trkpt>
      <trkpt lat="42.65714" lon="2.12451">
        <ele>1440.1</ele>
        <time>2023-08-15T18:02:54Z</time>
      </trkpt>
      <trkpt lat="42.65698" lon="2.12449">
        <ele>1439.7</ele>
        <time>2023-08-15T18:02:57Z</time>
      </trkpt>
      <trkpt lat="42.65682" lon="2.12446">
        <ele>1440.6</ele>
        <time>2023-08-15T18:03:01Z</time>
      </trkpt>
      <trkpt lat="42.65667" lon="2.12447">
        <ele>1440.8</ele>
        <time>2023-08-15T18:03:04Z</time>
      </trkpt>
      <trkpt lat="42.65651" lon="2.12446">
        <ele>1441.4</ele>
        <time>2023-08-15T18:03:08Z</time>
      </trkpt>
      <trkpt lat="42.6564" lon="2.12446">
        <ele>1441.7</ele>
        <time>2023-08-15T18:03:11Z</time>
      </trkpt>
      <trkpt lat="42.65628" lon="2.12445">
        <ele>1441.5</ele>
        <time>2023-08-15T18:03:14Z</time>
      </trkpt>
      <trkpt lat="42.65616" lon="2.12441">
        <ele>1441.9</ele>
        <time>2023-08-15T18:03:17Z</time>
      </trkpt>
      <trkpt lat="42.65604" lon="2.12433">
        <ele>1442.8</ele>
        <time>2023-08-15T18:03:21Z</time>
      </trkpt>
      <trkpt lat="42.65595" lon="2.12426">
        <ele>1442.6</ele>
        <time>2023-08-15T18:03:25Z</time>
      </trkpt>
      <trkpt lat="42.65587" lon="2.12416">
        <ele>1442.6</ele>
        <time>2023-08-15T18:03:28Z</time>
      </trkpt>
      <trkpt lat="42.65579" lon="2.12408">
        <ele>1444.2</ele>
        <time>2023-08-15T18:03:31Z</time>
      </trkpt>
      <trkpt lat="42.6557" lon="2.124">
        <ele>1445</ele>
        <time>2023-08-15T18:03:34Z</time>
      </trkpt>
      <trkpt lat="42.6556" lon="2.12394">
        <ele>1445.8</ele>
        <time>2023-08-15T18:03:37Z</time>
      </trkpt>
      <trkpt lat="42.65549" lon="2.12392">
        <ele>1446.5</ele>
        <time>2023-08-15T18:03:40Z</time>
      </trkpt>
      <trkpt lat="42.65536" lon="2.12392">
        <ele>1446.3</ele>
        <time>2023-08-15T18:03:44Z</time>
      </trkpt>
      <trkpt lat="42.65524" lon="2.12393">
        <ele>1447.1</ele>
        <time>2023-08-15T18:03:47Z</time>
      </trkpt>
      <trkpt lat="42.65511" lon="2.12394">
        <ele>1448</ele>
        <time>2023-08-15T18:03:50Z</time>
      </trkpt>
      <trkpt lat="42.65499" lon="2.12395">
        <ele>1448.5</ele>
        <time>2023-08-15T18:03:53Z</time>
      </trkpt>
      <trkpt lat="42.65484" lon="2.12395">
        <ele>1448.8</ele>
        <time>2023-08-15T18:03:57Z</time>
      </trkpt>
      <trkpt lat="42.65471" lon="2.12393">
        <ele>1449.5</ele>
        <time>2023-08-15T18:04:00Z</time>
      </trkpt>
      <trkpt lat="42.65458" lon="2.12393">
        <ele>1450.9</ele>
        <time>2023-08-15T18:04:03Z</time>
      </trkpt>
      <trkpt lat="42.65443" lon="2.12393">
        <ele>1451.9</ele>
        <time>2023-08-15T18:04:06Z</time>
      </trkpt>
      <trkpt lat="42.6543" lon="2.12391">
        <ele>1452.7</ele>
        <time>2023-08-15T18:04:10Z</time>
      </trkpt>
      <trkpt lat="42.65415" lon="2.12388">
        <ele>1453.7</ele>
        <time>2023-08-15T18:04:13Z</time>
      </trkpt>
      <trkpt lat="42.654" lon="2.12382">
        <ele>1454.3</ele>
        <time>2023-08-15T18:04:17Z</time>
      </trkpt>
      <trkpt lat="42.65388" lon="2.12371">
        <ele>1454.9</ele>
        <time>2023-08-15T18:04:20Z</time>
      </trkpt>
      <trkpt lat="42.65376" lon="2.12359">
        <ele>1456.4</ele>
        <time>2023-08-15T18:04:24Z</time>
      </trkpt>
      <trkpt lat="42.65366" lon="2.12349">
        <ele>1456.9</ele>
        <time>2023-08-15T18:04:27Z</time>
      </trkpt>
      <trkpt lat="42.65354" lon="2.12336">
        <ele>1457.1</ele>
        <time>2023-08-15T18:04:31Z</time>
      </trkpt>
      <trkpt lat="42.65343" lon="2.12325">
        <ele>1457.9</ele>
        <time>2023-08-15T18:04:34Z</time>
      </trkpt>
      <trkpt lat="42.65333" lon="2.12316">
        <ele>1459.1</ele>
        <time>2023-08-15T18:04:37Z</time>
      </trkpt>
      <trkpt lat="42.65322" lon="2.12307">
        <ele>1460</ele>
        <time>2023-08-15T18:04:40Z</time>
      </trkpt>
      <trkpt lat="42.6531" lon="2.123">
        <ele>1460.5</ele>
        <time>2023-08-15T18:04:44Z</time>
      </trkpt>
      <trkpt lat="42.65294" lon="2.12297">
        <ele>1461.3</ele>
        <time>2023-08-15T18:04:47Z</time>
      </trkpt>
      <trkpt lat="42.65279" lon="2.12298">
        <ele>1462.1</ele>
        <time>2023-08-15T18:04:50Z</time>
      </trkpt>
      <trkpt lat="42.65267" lon="2.12301">
        <ele>1462.8</ele>
        <time>2023-08-15T18:04:54Z</time>
      </trkpt>
      <trkpt lat="42.65253" lon="2.12308">
        <ele>1463.2</ele>
        <time>2023-08-15T18:04:57Z</time>
      </trkpt>
      <trkpt lat="42.65241" lon="2.12316">
        <ele>1464</ele>
        <time>2023-08-15T18:05:00Z</time>
      </trkpt>
      <trkpt lat="42.65228" lon="2.12324">
        <ele>1464.5</ele>
        <time>2023-08-15T18:05:03Z</time>
      </trkpt>
      <trkpt lat="42.65211" lon="2.12333">
        <ele>1465.7</ele>
        <time>2023-08-15T18:05:07Z</time>
      </trkpt>
      <trkpt lat="42.65193" lon="2.12337">
        <ele>1466.6</ele>
        <time>2023-08-15T18:05:11Z</time>
      </trkpt>
      <trkpt lat="42.65179" lon="2.12331">
        <ele>1467.2</ele>
        <time>2023-08-15T18:05:14Z</time>
      </trkpt>
      <trkpt lat="42.65168" lon="2.12323">
        <ele>1468.4</ele>
        <time>2023-08-15T18:05:17Z</time>
      </trkpt>
      <trkpt lat="42.65156" lon="2.12313">
        <ele>1469.7</ele>
        <time>2023-08-15T18:05:21Z</time>
      </trkpt>
      <trkpt lat="42.65146" lon="2.12304">
        <ele>1470.3</ele>
        <time>2023-08-15T18:05:24Z</time>
      </trkpt>
      <trkpt lat="42.65132" lon="2.12294">
        <ele>1470.8</ele>
        <time>2023-08-15T18:05:27Z</time>
      </trkpt>
      <trkpt lat="42.65117" lon="2.12281">
        <ele>1471</ele>
        <time>2023-08-15T18:05:31Z</time>
      </trkpt>
      <trkpt lat="42.65102" lon="2.12268">
        <ele>1472</ele>
        <time>2023-08-15T18:05:35Z</time>
      </trkpt>
      <trkpt lat="42.65087" lon="2.12256">
        <ele>1473.3</ele>
        <time>2023-08-15T18:05:39Z</time>
      </trkpt>
      <trkpt lat="42.65073" lon="2.1224">
        <ele>1473.8</ele>
        <time>2023-08-15T18:05:43Z</time>
      </trkpt>
      <trkpt lat="42.65064" lon="2.12226">
        <ele>1474.7</ele>
        <time>2023-08-15T18:05:46Z</time>
      </trkpt>
      <trkpt lat="42.65056" lon="2.12208">
        <ele>1475.6</ele>
        <time>2023-08-15T18:05:50Z</time>
      </trkpt>
      <trkpt lat="42.65049" lon="2.12188">
        <ele>1476.3</ele>
        <time>2023-08-15T18:05:53Z</time>
      </trkpt>
      <trkpt lat="42.65043" lon="2.12169">
        <ele>1477.4</ele>
        <time>2023-08-15T18:05:56Z</time>
      </trkpt>
      <trkpt lat="42.65038" lon="2.12155">
        <ele>1477.4</ele>
        <time>2023-08-15T18:05:59Z</time>
      </trkpt>
      <trkpt lat="42.65032" lon="2.12131">
        <ele>1478.6</ele>
        <time>2023-08-15T18:06:03Z</time>
      </trkpt>
      <trkpt lat="42.65027" lon="2.12113">
        <ele>1478.6</ele>
        <time>2023-08-15T18:06:06Z</time>
      </trkpt>
      <trkpt lat="42.65026" lon="2.12094">
        <ele>1479.5</ele>
        <time>2023-08-15T18:06:09Z</time>
      </trkpt>
      <trkpt lat="42.65026" lon="2.12078">
        <ele>1479.9</ele>
        <time>2023-08-15T18:06:12Z</time>
      </trkpt>
      <trkpt lat="42.65025" lon="2.12056">
        <ele>1480.7</ele>
        <time>2023-08-15T18:06:16Z</time>
      </trkpt>
      <trkpt lat="42.65025" lon="2.1204">
        <ele>1481.8</ele>
        <time>2023-08-15T18:06:19Z</time>
      </trkpt>
      <trkpt lat="42.65023" lon="2.1202">
        <ele>1482.4</ele>
        <time>2023-08-15T18:06:23Z</time>
      </trkpt>
      <trkpt lat="42.65021" lon="2.12003">
        <ele>1483.4</ele>
        <time>2023-08-15T18:06:26Z</time>
      </trkpt>
      <trkpt lat="42.65017" lon="2.11987">
        <ele>1484.8</ele>
        <time>2023-08-15T18:06:29Z</time>
      </trkpt>
      <trkpt lat="42.6501" lon="2.11971">
        <ele>1485.3</ele>
        <time>2023-08-15T18:06:32Z</time>
      </trkpt>
      <trkpt lat="42.65001" lon="2.11956">
        <ele>1485</ele>
        <time>2023-08-15T18:06:36Z</time>
      </trkpt>
      <trkpt lat="42.6499" lon="2.11941">
        <ele>1485.9</ele>
        <time>2023-08-15T18:06:39Z</time>
      </trkpt>
      <trkpt lat="42.64977" lon="2.1192">
        <ele>1486.5</ele>
        <time>2023-08-15T18:06:43Z</time>
      </trkpt>
      <trkpt lat="42.64967" lon="2.11906">
        <ele>1487.7</ele>
        <time>2023-08-15T18:06:46Z</time>
      </trkpt>
      <trkpt lat="42.64958" lon="2.11891">
        <ele>1488.5</ele>
        <time>2023-08-15T18:06:49Z</time>
      </trkpt>
      <trkpt lat="42.64945" lon="2.11871">
        <ele>1489.1</ele>
        <time>2023-08-15T18:06:53Z</time>
      </trkpt>
      <trkpt lat="42.64935" lon="2.11857">
        <ele>1490.6</ele>
        <time>2023-08-15T18:06:56Z</time>
      </trkpt>
      <trkpt lat="42.64927" lon="2.11843">
        <ele>1490.7</ele>
        <time>2023-08-15T18:06:59Z</time>
      </trkpt>
      <trkpt lat="42.64915" lon="2.11825">
        <ele>1490.5</ele>
        <time>2023-08-15T18:07:03Z</time>
      </trkpt>
      <trkpt lat="42.64903" lon="2.11807">
        <ele>1491.4</ele>
        <time>2023-08-15T18:07:07Z</time>
      </trkpt>
      <trkpt lat="42.64891" lon="2.11787">
        <ele>1491.4</ele>
        <time>2023-08-15T18:07:11Z</time>
      </trkpt>
      <trkpt lat="42.64882" lon="2.11774">
        <ele>1494.2</ele>
        <time>2023-08-15T18:07:14Z</time>
      </trkpt>
      <trkpt lat="42.64873" lon="2.11761">
        <ele>1493.4</ele>
        <time>2023-08-15T18:07:17Z</time>
      </trkpt>
      <trkpt lat="42.64865" lon="2.11748">
        <ele>1494.9</ele>
        <time>2023-08-15T18:07:20Z</time>
      </trkpt>
      <trkpt lat="42.64854" lon="2.1173">
        <ele>1494.3</ele>
        <time>2023-08-15T18:07:24Z</time>
      </trkpt>
      <trkpt lat="42.64847" lon="2.11718">
        <ele>1495.3</ele>
        <time>2023-08-15T18:07:27Z</time>
      </trkpt>
      <trkpt lat="42.64833" lon="2.117">
        <ele>1495.7</ele>
        <time>2023-08-15T18:07:31Z</time>
      </trkpt>
      <trkpt lat="42.64824" lon="2.1169">
        <ele>1496</ele>
        <time>2023-08-15T18:07:34Z</time>
      </trkpt>
      <trkpt lat="42.64812" lon="2.11678">
        <ele>1495.9</ele>
        <time>2023-08-15T18:07:38Z</time>
      </trkpt>
      <trkpt lat="42.64801" lon="2.11668">
        <ele>1496.8</ele>
        <time>2023-08-15T18:07:41Z</time>
      </trkpt>
      <trkpt lat="42.6479" lon="2.11656">
        <ele>1498.2</ele>
        <time>2023-08-15T18:07:44Z</time>
      </trkpt>
      <trkpt lat="42.64776" lon="2.11641">
        <ele>1499.3</ele>
        <time>2023-08-15T18:07:48Z</time>
      </trkpt>
      <trkpt lat="42.64762" lon="2.11627">
        <ele>1498.9</ele>
        <time>2023-08-15T18:07:52Z</time>
      </trkpt>
      <trkpt lat="42.64751" lon="2.11615">
        <ele>1499.6</ele>
        <time>2023-08-15T18:07:55Z</time>
      </trkpt>
      <trkpt lat="42.6474" lon="2.11604">
        <ele>1501.1</ele>
        <time>2023-08-15T18:07:58Z</time>
      </trkpt>
      <trkpt lat="42.64729" lon="2.11592">
        <ele>1501.2</ele>
        <time>2023-08-15T18:08:02Z</time>
      </trkpt>
      <trkpt lat="42.64719" lon="2.11581">
        <ele>1500.8</ele>
        <time>2023-08-15T18:08:05Z</time>
      </trkpt>
      <trkpt lat="42.64708" lon="2.11569">
        <ele>1501.2</ele>
        <time>2023-08-15T18:08:08Z</time>
      </trkpt>
      <trkpt lat="42.64696" lon="2.11559">
        <ele>1502.6</ele>
        <time>2023-08-15T18:08:11Z</time>
      </trkpt>
      <trkpt lat="42.64684" lon="2.11546">
        <ele>1503.5</ele>
        <time>2023-08-15T18:08:15Z</time>
      </trkpt>
      <trkpt lat="42.64673" lon="2.11536">
        <ele>1504.5</ele>
        <time>2023-08-15T18:08:18Z</time>
      </trkpt>
      <trkpt lat="42.64663" lon="2.11523">
        <ele>1503.8</ele>
        <time>2023-08-15T18:08:21Z</time>
      </trkpt>
      <trkpt lat="42.64651" lon="2.1151">
        <ele>1504.3</ele>
        <time>2023-08-15T18:08:24Z</time>
      </trkpt>
      <trkpt lat="42.6464" lon="2.11497">
        <ele>1505.7</ele>
        <time>2023-08-15T18:08:27Z</time>
      </trkpt>
      <trkpt lat="42.64624" lon="2.11484">
        <ele>1506</ele>
        <time>2023-08-15T18:08:31Z</time>
      </trkpt>
      <trkpt lat="42.64612" lon="2.11472">
        <ele>1506.4</ele>
        <time>2023-08-15T18:08:34Z</time>
      </trkpt>
      <trkpt lat="42.64596" lon="2.11455">
        <ele>1506.8</ele>
        <time>2023-08-15T18:08:38Z</time>
      </trkpt>
      <trkpt lat="42.64586" lon="2.11445">
        <ele>1507.4</ele>
        <time>2023-08-15T18:08:41Z</time>
      </trkpt>
      <trkpt lat="42.64573" lon="2.11432">
        <ele>1507.8</ele>
        <time>2023-08-15T18:08:45Z</time>
      </trkpt>
      <trkpt lat="42.64568" lon="2.11425">
        <ele>1508.3</ele>
        <time>2023-08-15T18:08:48Z</time>
      </trkpt>
      <trkpt lat="42.64555" lon="2.11415">
        <ele>1508.2</ele>
        <time>2023-08-15T18:08:52Z</time>
      </trkpt>
      <trkpt lat="42.64545" lon="2.11405">
        <ele>1509</ele>
        <time>2023-08-15T18:08:55Z</time>
      </trkpt>
      <trkpt lat="42.64534" lon="2.11394">
        <ele>1509</ele>
        <time>2023-08-15T18:08:59Z</time>
      </trkpt>
      <trkpt lat="42.64524" lon="2.11385">
        <ele>1509.6</ele>
        <time>2023-08-15T18:09:02Z</time>
      </trkpt>
      <trkpt lat="42.64514" lon="2.11374">
        <ele>1509.7</ele>
        <time>2023-08-15T18:09:06Z</time>
      </trkpt>
      <trkpt lat="42.64502" lon="2.11362">
        <ele>1509.5</ele>
        <time>2023-08-15T18:09:10Z</time>
      </trkpt>
      <trkpt lat="42.64493" lon="2.11353">
        <ele>1509.9</ele>
        <time>2023-08-15T18:09:14Z</time>
      </trkpt>
      <trkpt lat="42.64486" lon="2.11346">
        <ele>1510</ele>
        <time>2023-08-15T18:09:17Z</time>
      </trkpt>
      <trkpt lat="42.64476" lon="2.11333">
        <ele>1509.6</ele>
        <time>2023-08-15T18:09:21Z</time>
      </trkpt>
      <trkpt lat="42.64466" lon="2.11311">
        <ele>1509.4</ele>
        <time>2023-08-15T18:09:25Z</time>
      </trkpt>
      <trkpt lat="42.64459" lon="2.11283">
        <ele>1509</ele>
        <time>2023-08-15T18:09:29Z</time>
      </trkpt>
      <trkpt lat="42.64455" lon="2.11264">
        <ele>1507.8</ele>
        <time>2023-08-15T18:09:32Z</time>
      </trkpt>
      <trkpt lat="42.6445" lon="2.11241">
        <ele>1505.8</ele>
        <time>2023-08-15T18:09:36Z</time>
      </trkpt>
      <trkpt lat="42.64446" lon="2.11221">
        <ele>1505.5</ele>
        <time>2023-08-15T18:09:39Z</time>
      </trkpt>
      <trkpt lat="42.6444" lon="2.11198">
        <ele>1504.5</ele>
        <time>2023-08-15T18:09:43Z</time>
      </trkpt>
      <trkpt lat="42.64433" lon="2.1118">
        <ele>1504.1</ele>
        <time>2023-08-15T18:09:46Z</time>
      </trkpt>
      <trkpt lat="42.64422" lon="2.11158">
        <ele>1504.4</ele>
        <time>2023-08-15T18:09:50Z</time>
      </trkpt>
      <trkpt lat="42.64406" lon="2.11141">
        <ele>1502.8</ele>
        <time>2023-08-15T18:09:54Z</time>
      </trkpt>
      <trkpt lat="42.64392" lon="2.11133">
        <ele>1502.5</ele>
        <time>2023-08-15T18:09:57Z</time>
      </trkpt>
      <trkpt lat="42.64379" lon="2.11127">
        <ele>1501.6</ele>
        <time>2023-08-15T18:10:00Z</time>
      </trkpt>
      <trkpt lat="42.64366" lon="2.11123">
        <ele>1500.2</ele>
        <time>2023-08-15T18:10:04Z</time>
      </trkpt>
      <trkpt lat="42.64366" lon="2.11123">
        <ele>1500.8</ele>
        <time>2023-08-15T18:12:31Z</time>
      </trkpt>
      <trkpt lat="42.64362" lon="2.11124">
        <ele>1500.4</ele>
        <time>2023-08-15T18:12:34Z</time>
      </trkpt>
      <trkpt lat="42.64353" lon="2.11127">
        <ele>1500</ele>
        <time>2023-08-15T18:12:37Z</time>
      </trkpt>
      <trkpt lat="42.64339" lon="2.11134">
        <ele>1500.2</ele>
        <time>2023-08-15T18:12:41Z</time>
      </trkpt>
      <trkpt lat="42.64324" lon="2.11142">
        <ele>1499.2</ele>
        <time>2023-08-15T18:12:45Z</time>
      </trkpt>
      <trkpt lat="42.6431" lon="2.1115">
        <ele>1498.4</ele>
        <time>2023-08-15T18:12:48Z</time>
      </trkpt>
      <trkpt lat="42.64298" lon="2.11159">
        <ele>1497.7</ele>
        <time>2023-08-15T18:12:51Z</time>
      </trkpt>
      <trkpt lat="42.64279" lon="2.11173">
        <ele>1496.6</ele>
        <time>2023-08-15T18:12:55Z</time>
      </trkpt>
      <trkpt lat="42.64265" lon="2.11184">
        <ele>1495.2</ele>
        <time>2023-08-15T18:12:58Z</time>
      </trkpt>
      <trkpt lat="42.64252" lon="2.11197">
        <ele>1494.4</ele>
        <time>2023-08-15T18:13:01Z</time>
      </trkpt>
      <trkpt lat="42.64236" lon="2.11217">
        <ele>1493.6</ele>
        <time>2023-08-15T18:13:05Z</time>
      </trkpt>
      <trkpt lat="42.64225" lon="2.11235">
        <ele>1492.3</ele>
        <time>2023-08-15T18:13:08Z</time>
      </trkpt>
      <trkpt lat="42.64213" lon="2.11253">
        <ele>1492</ele>
        <time>2023-08-15T18:13:11Z</time>
      </trkpt>
      <trkpt lat="42.64195" lon="2.11281">
        <ele>1490.8</ele>
        <time>2023-08-15T18:13:15Z</time>
      </trkpt>
      <trkpt lat="42.64182" lon="2.11302">
        <ele>1490.2</ele>
        <time>2023-08-15T18:13:18Z</time>
      </trkpt>
      <trkpt lat="42.64164" lon="2.11327">
        <ele>1490.3</ele>
        <time>2023-08-15T18:13:22Z</time>
      </trkpt>
      <trkpt lat="42.6415" lon="2.11347">
        <ele>1489.5</ele>
        <time>2023-08-15T18:13:26Z</time>
      </trkpt>
      <trkpt lat="42.64137" lon="2.11366">
        <ele>1489.5</ele>
        <time>2023-08-15T18:13:30Z</time>
      </trkpt>
      <trkpt lat="42.64125" lon="2.11381">
        <ele>1490.6</ele>
        <time>2023-08-15T18:13:34Z</time>
      </trkpt>
      <trkpt lat="42.64112" lon="2.11395">
        <ele>1491.1</ele>
        <time>2023-08-15T18:13:38Z</time>
      </trkpt>
      <trkpt lat="42.64098" lon="2.11407">
        <ele>1492.2</ele>
        <time>2023-08-15T18:13:42Z</time>
      </trkpt>
      <trkpt lat="42.64085" lon="2.11419">
        <ele>1493.1</ele>
        <time>2023-08-15T18:13:46Z</time>
      </trkpt>
      <trkpt lat="42.64072" lon="2.11431">
        <ele>1493.9</ele>
        <time>2023-08-15T18:13:50Z</time>
      </trkpt>
      <trkpt lat="42.64058" lon="2.11444">
        <ele>1494.3</ele>
        <time>2023-08-15T18:13:54Z</time>
      </trkpt>
      <trkpt lat="42.64045" lon="2.11457">
        <ele>1494.8</ele>
        <time>2023-08-15T18:13:58Z</time>
      </trkpt>
      <trkpt lat="42.64029" lon="2.1147">
        <ele>1495.9</ele>
        <time>2023-08-15T18:14:02Z</time>
      </trkpt>
      <trkpt lat="42.64018" lon="2.11479">
        <ele>1496.9</ele>
        <time>2023-08-15T18:14:05Z</time>
      </trkpt>
      <trkpt lat="42.64007" lon="2.11489">
        <ele>1497.7</ele>
        <time>2023-08-15T18:14:08Z</time>
      </trkpt>
      <trkpt lat="42.63989" lon="2.11505">
        <ele>1498.1</ele>
        <time>2023-08-15T18:14:12Z</time>
      </trkpt>
      <trkpt lat="42.63972" lon="2.1152">
        <ele>1498.5</ele>
        <time>2023-08-15T18:14:16Z</time>
      </trkpt>
      <trkpt lat="42.63955" lon="2.11535">
        <ele>1499.6</ele>
        <time>2023-08-15T18:14:20Z</time>
      </trkpt>
      <trkpt lat="42.63943" lon="2.11546">
        <ele>1499.8</ele>
        <time>2023-08-15T18:14:23Z</time>
      </trkpt>
      <trkpt lat="42.6393" lon="2.11559">
        <ele>1499.8</ele>
        <time>2023-08-15T18:14:27Z</time>
      </trkpt>
      <trkpt lat="42.63917" lon="2.1157">
        <ele>1500.7</ele>
        <time>2023-08-15T18:14:31Z</time>
      </trkpt>
      <trkpt lat="42.63904" lon="2.11584">
        <ele>1501.4</ele>
        <time>2023-08-15T18:14:34Z</time>
      </trkpt>
      <trkpt lat="42.63891" lon="2.11597">
        <ele>1501.8</ele>
        <time>2023-08-15T18:14:38Z</time>
      </trkpt>
      <trkpt lat="42.6388" lon="2.11609">
        <ele>1501.9</ele>
        <time>2023-08-15T18:14:41Z</time>
      </trkpt>
      <trkpt lat="42.63869" lon="2.11618">
        <ele>1502.6</ele>
        <time>2023-08-15T18:14:44Z</time>
      </trkpt>
      <trkpt lat="42.63857" lon="2.11628">
        <ele>1503.7</ele>
        <time>2023-08-15T18:14:47Z</time>
      </trkpt>
      <trkpt lat="42.63844" lon="2.11639">
        <ele>1504</ele>
        <time>2023-08-15T18:14:50Z</time>
      </trkpt>
      <trkpt lat="42.63833" lon="2.1165">
        <ele>1504.1</ele>
        <time>2023-08-15T18:14:53Z</time>
      </trkpt>
      <trkpt lat="42.63822" lon="2.1166">
        <ele>1504.1</ele>
        <time>2023-08-15T18:14:57Z</time>
      </trkpt>
      <trkpt lat="42.63811" lon="2.1167">
        <ele>1504.9</ele>
        <time>2023-08-15T18:15:00Z</time>
      </trkpt>
      <trkpt lat="42.63799" lon="2.11681">
        <ele>1505.9</ele>
        <time>2023-08-15T18:15:03Z</time>
      </trkpt>
      <trkpt lat="42.63788" lon="2.1169">
        <ele>1506.3</ele>
        <time>2023-08-15T18:15:06Z</time>
      </trkpt>
      <trkpt lat="42.63777" lon="2.11699">
        <ele>1506.3</ele>
        <time>2023-08-15T18:15:09Z</time>
      </trkpt>
      <trkpt lat="42.63762" lon="2.1171">
        <ele>1507</ele>
        <time>2023-08-15T18:15:13Z</time>
      </trkpt>
      <trkpt lat="42.63744" lon="2.1172">
        <ele>1508.1</ele>
        <time>2023-08-15T18:15:17Z</time>
      </trkpt>
      <trkpt lat="42.63725" lon="2.11721">
        <ele>1508.3</ele>
        <time>2023-08-15T18:15:21Z</time>
      </trkpt>
      <trkpt lat="42.63709" lon="2.1172">
        <ele>1507.7</ele>
        <time>2023-08-15T18:15:25Z</time>
      </trkpt>
      <trkpt lat="42.63688" lon="2.11717">
        <ele>1508.2</ele>
        <time>2023-08-15T18:15:29Z</time>
      </trkpt>
      <trkpt lat="42.63667" lon="2.11712">
        <ele>1508.7</ele>
        <time>2023-08-15T18:15:33Z</time>
      </trkpt>
      <trkpt lat="42.63649" lon="2.1171">
        <ele>1509.3</ele>
        <time>2023-08-15T18:15:37Z</time>
      </trkpt>
      <trkpt lat="42.63633" lon="2.11712">
        <ele>1509.5</ele>
        <time>2023-08-15T18:15:41Z</time>
      </trkpt>
      <trkpt lat="42.63618" lon="2.11713">
        <ele>1510.3</ele>
        <time>2023-08-15T18:15:45Z</time>
      </trkpt>
      <trkpt lat="42.63605" lon="2.11713">
        <ele>1510.4</ele>
        <time>2023-08-15T18:15:48Z</time>
      </trkpt>
      <trkpt lat="42.63591" lon="2.11714">
        <ele>1510.8</ele>
        <time>2023-08-15T18:15:51Z</time>
      </trkpt>
      <trkpt lat="42.63577" lon="2.11714">
        <ele>1510.2</ele>
        <time>2023-08-15T18:15:54Z</time>
      </trkpt>
      <trkpt lat="42.63563" lon="2.11713">
        <ele>1510.8</ele>
        <time>2023-08-15T18:15:57Z</time>
      </trkpt>
      <trkpt lat="42.6355" lon="2.11712">
        <ele>1511.6</ele>
        <time>2023-08-15T18:16:00Z</time>
      </trkpt>
      <trkpt lat="42.63534" lon="2.11712">
        <ele>1511.9</ele>
        <time>2023-08-15T18:16:04Z</time>
      </trkpt>
      <trkpt lat="42.63521" lon="2.11711">
        <ele>1512.3</ele>
        <time>2023-08-15T18:16:07Z</time>
      </trkpt>
      <trkpt lat="42.63503" lon="2.1171">
        <ele>1512.5</ele>
        <time>2023-08-15T18:16:11Z</time>
      </trkpt>
      <trkpt lat="42.63483" lon="2.11707">
        <ele>1512.8</ele>
        <time>2023-08-15T18:16:15Z</time>
      </trkpt>
      <trkpt lat="42.63468" lon="2.11706">
        <ele>1512.8</ele>
        <time>2023-08-15T18:16:18Z</time>
      </trkpt>
      <trkpt lat="42.63453" lon="2.11705">
        <ele>1512.9</ele>
        <time>2023-08-15T18:16:22Z</time>
      </trkpt>
      <trkpt lat="42.63437" lon="2.11703">
        <ele>1512.8</ele>
        <time>2023-08-15T18:16:25Z</time>
      </trkpt>
      <trkpt lat="42.63416" lon="2.11703">
        <ele>1513.9</ele>
        <time>2023-08-15T18:16:29Z</time>
      </trkpt>
      <trkpt lat="42.63401" lon="2.11702">
        <ele>1514</ele>
        <time>2023-08-15T18:16:32Z</time>
      </trkpt>
      <trkpt lat="42.63383" lon="2.11702">
        <ele>1514.2</ele>
        <time>2023-08-15T18:16:36Z</time>
      </trkpt>
      <trkpt lat="42.63368" lon="2.11701">
        <ele>1514.7</ele>
        <time>2023-08-15T18:16:40Z</time>
      </trkpt>
      <trkpt lat="42.63358" lon="2.11699">
        <ele>1515.3</ele>
        <time>2023-08-15T18:16:43Z</time>
      </trkpt>
      <trkpt lat="42.63341" lon="2.11699">
        <ele>1515.5</ele>
        <time>2023-08-15T18:16:47Z</time>
      </trkpt>
      <trkpt lat="42.63328" lon="2.117">
        <ele>1515.5</ele>
        <time>2023-08-15T18:16:50Z</time>
      </trkpt>
      <trkpt lat="42.63313" lon="2.117">
        <ele>1515.5</ele>
        <time>2023-08-15T18:16:54Z</time>
      </trkpt>
      <trkpt lat="42.63299" lon="2.11701">
        <ele>1516.4</ele>
        <time>2023-08-15T18:16:57Z</time>
      </trkpt>
      <trkpt lat="42.63283" lon="2.117">
        <ele>1517</ele>
        <time>2023-08-15T18:17:00Z</time>
      </trkpt>
      <trkpt lat="42.63264" lon="2.11695">
        <ele>1517.4</ele>
        <time>2023-08-15T18:17:04Z</time>
      </trkpt>
      <trkpt lat="42.63246" lon="2.11687">
        <ele>1517.8</ele>
        <time>2023-08-15T18:17:08Z</time>
      </trkpt>
      <trkpt lat="42.6323" lon="2.11677">
        <ele>1518.9</ele>
        <time>2023-08-15T18:17:12Z</time>
      </trkpt>
      <trkpt lat="42.63218" lon="2.1167">
        <ele>1519.5</ele>
        <time>2023-08-15T18:17:15Z</time>
      </trkpt>
      <trkpt lat="42.63205" lon="2.11661">
        <ele>1519</ele>
        <time>2023-08-15T18:17:18Z</time>
      </trkpt>
      <trkpt lat="42.63189" lon="2.1165">
        <ele>1519.2</ele>
        <time>2023-08-15T18:17:22Z</time>
      </trkpt>
      <trkpt lat="42.63172" lon="2.11639">
        <ele>1520.6</ele>
        <time>2023-08-15T18:17:26Z</time>
      </trkpt>
      <trkpt lat="42.63154" lon="2.11627">
        <ele>1520.5</ele>
        <time>2023-08-15T18:17:30Z</time>
      </trkpt>
      <trkpt lat="42.63136" lon="2.11616">
        <ele>1521.1</ele>
        <time>2023-08-15T18:17:34Z</time>
      </trkpt>
      <trkpt lat="42.63118" lon="2.11605">
        <ele>1521.3</ele>
        <time>2023-08-15T18:17:38Z</time>
      </trkpt>
      <trkpt lat="42.63105" lon="2.11597">
        <ele>1521.9</ele>
        <time>2023-08-15T18:17:41Z</time>
      </trkpt>
      <trkpt lat="42.63093" lon="2.11589">
        <ele>1522.5</ele>
        <time>2023-08-15T18:17:44Z</time>
      </trkpt>
      <trkpt lat="42.6308" lon="2.11579">
        <ele>1521.9</ele>
        <time>2023-08-15T18:17:48Z</time>
      </trkpt>
      <trkpt lat="42.63069" lon="2.11573">
        <ele>1522</ele>
        <time>2023-08-15T18:17:51Z</time>
      </trkpt>
      <trkpt lat="42.63053" lon="2.11563">
        <ele>1522.9</ele>
        <time>2023-08-15T18:17:54Z</time>
      </trkpt>
      <trkpt lat="42.6304" lon="2.11556">
        <ele>1523.2</ele>
        <time>2023-08-15T18:17:57Z</time>
      </trkpt>
      <trkpt lat="42.63027" lon="2.11548">
        <ele>1523.5</ele>
        <time>2023-08-15T18:18:01Z</time>
      </trkpt>
      <trkpt lat="42.63016" lon="2.1154">
        <ele>1524</ele>
        <time>2023-08-15T18:18:04Z</time>
      </trkpt>
      <trkpt lat="42.63001" lon="2.1153">
        <ele>1524.4</ele>
        <time>2023-08-15T18:18:08Z</time>
      </trkpt>
      <trkpt lat="42.62988" lon="2.11523">
        <ele>1524.8</ele>
        <time>2023-08-15T18:18:11Z</time>
      </trkpt>
      <trkpt lat="42.62976" lon="2.11516">
        <ele>1525.1</ele>
        <time>2023-08-15T18:18:14Z</time>
      </trkpt>
      <trkpt lat="42.62965" lon="2.11508">
        <ele>1524.9</ele>
        <time>2023-08-15T18:18:17Z</time>
      </trkpt>
      <trkpt lat="42.62952" lon="2.11499">
        <ele>1525.5</ele>
        <time>2023-08-15T18:18:21Z</time>
      </trkpt>
      <trkpt lat="42.62937" lon="2.1149">
        <ele>1526.3</ele>
        <time>2023-08-15T18:18:25Z</time>
      </trkpt>
      <trkpt lat="42.62925" lon="2.11483">
        <ele>1526.5</ele>
        <time>2023-08-15T18:18:28Z</time>
      </trkpt>
      <trkpt lat="42.62911" lon="2.11474">
        <ele>1526.9</ele>
        <time>2023-08-15T18:18:32Z</time>
      </trkpt>
      <trkpt lat="42.62899" lon="2.11469">
        <ele>1527.3</ele>
        <time>2023-08-15T18:18:35Z</time>
      </trkpt>
      <trkpt lat="42.62888" lon="2.11463">
        <ele>1527.3</ele>
        <time>2023-08-15T18:18:38Z</time>
      </trkpt>
      <trkpt lat="42.6287" lon="2.11454">
        <ele>1527.8</ele>
        <time>2023-08-15T18:18:42Z</time>
      </trkpt>
      <trkpt lat="42.62857" lon="2.11446">
        <ele>1527.4</ele>
        <time>2023-08-15T18:18:45Z</time>
      </trkpt>
      <trkpt lat="42.62839" lon="2.11436">
        <ele>1527.2</ele>
        <time>2023-08-15T18:18:49Z</time>
      </trkpt>
      <trkpt lat="42.62825" lon="2.11429">
        <ele>1527.6</ele>
        <time>2023-08-15T18:18:52Z</time>
      </trkpt>
      <trkpt lat="42.62812" lon="2.11422">
        <ele>1527.7</ele>
        <time>2023-08-15T18:18:55Z</time>
      </trkpt>
      <trkpt lat="42.62793" lon="2.11411">
        <ele>1527.9</ele>
        <time>2023-08-15T18:18:59Z</time>
      </trkpt>
      <trkpt lat="42.62775" lon="2.11401">
        <ele>1528.7</ele>
        <time>2023-08-15T18:19:03Z</time>
      </trkpt>
      <trkpt lat="42.62762" lon="2.11393">
        <ele>1528.6</ele>
        <time>2023-08-15T18:19:06Z</time>
      </trkpt>
      <trkpt lat="42.62749" lon="2.11387">
        <ele>1529</ele>
        <time>2023-08-15T18:19:09Z</time>
      </trkpt>
      <trkpt lat="42.62734" lon="2.11378">
        <ele>1529.3</ele>
        <time>2023-08-15T18:19:13Z</time>
      </trkpt>
      <trkpt lat="42.62715" lon="2.11367">
        <ele>1528.8</ele>
        <time>2023-08-15T18:19:17Z</time>
      </trkpt>
      <trkpt lat="42.62703" lon="2.11359">
        <ele>1529.2</ele>
        <time>2023-08-15T18:19:20Z</time>
      </trkpt>
      <trkpt lat="42.62689" lon="2.11352">
        <ele>1529.7</ele>
        <time>2023-08-15T18:19:24Z</time>
      </trkpt>
      <trkpt lat="42.62675" lon="2.11346">
        <ele>1529.8</ele>
        <time>2023-08-15T18:19:27Z</time>
      </trkpt>
      <trkpt lat="42.62663" lon="2.11341">
        <ele>1530.5</ele>
        <time>2023-08-15T18:19:30Z</time>
      </trkpt>
      <trkpt lat="42.6265" lon="2.11334">
        <ele>1530.6</ele>
        <time>2023-08-15T18:19:33Z</time>
      </trkpt>
      <trkpt lat="42.62632" lon="2.11324">
        <ele>1530.9</ele>
        <time>2023-08-15T18:19:37Z</time>
      </trkpt>
      <trkpt lat="42.62613" lon="2.11314">
        <ele>1531.2</ele>
        <time>2023-08-15T18:19:41Z</time>
      </trkpt>
      <trkpt lat="42.62594" lon="2.11302">
        <ele>1530.7</ele>
        <time>2023-08-15T18:19:45Z</time>
      </trkpt>
      <trkpt lat="42.6258" lon="2.11291">
        <ele>1530.9</ele>
        <time>2023-08-15T18:19:48Z</time>
      </trkpt>
      <trkpt lat="42.6256" lon="2.11278">
        <ele>1531.4</ele>
        <time>2023-08-15T18:19:52Z</time>
      </trkpt>
      <trkpt lat="42.62546" lon="2.11269">
        <ele>1531.5</ele>
        <time>2023-08-15T18:19:55Z</time>
      </trkpt>
      <trkpt lat="42.62527" lon="2.11257">
        <ele>1531.9</ele>
        <time>2023-08-15T18:19:59Z</time>
      </trkpt>
      <trkpt lat="42.62512" lon="2.11248">
        <ele>1533.5</ele>
        <time>2023-08-15T18:20:02Z</time>
      </trkpt>
      <trkpt lat="42.62494" lon="2.11235">
        <ele>1532.4</ele>
        <time>2023-08-15T18:20:06Z</time>
      </trkpt>
      <trkpt lat="42.6248" lon="2.11226">
        <ele>1532.6</ele>
        <time>2023-08-15T18:20:09Z</time>
      </trkpt>
      <trkpt lat="42.62466" lon="2.11216">
        <ele>1532.6</ele>
        <time>2023-08-15T18:20:12Z</time>
      </trkpt>
      <trkpt lat="42.62446" lon="2.11203">
        <ele>1532.7</ele>
        <time>2023-08-15T18:20:16Z</time>
      </trkpt>
      <trkpt lat="42.62432" lon="2.11194">
        <ele>1532.8</ele>
        <time>2023-08-15T18:20:19Z</time>
      </trkpt>
      <trkpt lat="42.62417" lon="2.11185">
        <ele>1532.7</ele>
        <time>2023-08-15T18:20:22Z</time>
      </trkpt>
      <trkpt lat="42.62402" lon="2.11177">
        <ele>1533</ele>
        <time>2023-08-15T18:20:25Z</time>
      </trkpt>
      <trkpt lat="42.62388" lon="2.11167">
        <ele>1533.2</ele>
        <time>2023-08-15T18:20:28Z</time>
      </trkpt>
      <trkpt lat="42.62374" lon="2.1116">
        <ele>1533.4</ele>
        <time>2023-08-15T18:20:31Z</time>
      </trkpt>
      <trkpt lat="42.62354" lon="2.11152">
        <ele>1533.6</ele>
        <time>2023-08-15T18:20:35Z</time>
      </trkpt>
      <trkpt lat="42.62339" lon="2.11146">
        <ele>1533.8</ele>
        <time>2023-08-15T18:20:38Z</time>
      </trkpt>
      <trkpt lat="42.62319" lon="2.11138">
        <ele>1534</ele>
        <time>2023-08-15T18:20:42Z</time>
      </trkpt>
      <trkpt lat="42.62301" lon="2.1113">
        <ele>1534.5</ele>
        <time>2023-08-15T18:20:46Z</time>
      </trkpt>
      <trkpt lat="42.62288" lon="2.11125">
        <ele>1534.6</ele>
        <time>2023-08-15T18:20:49Z</time>
      </trkpt>
      <trkpt lat="42.62275" lon="2.11119">
        <ele>1534.5</ele>
        <time>2023-08-15T18:20:52Z</time>
      </trkpt>
      <trkpt lat="42.62257" lon="2.11112">
        <ele>1534.9</ele>
        <time>2023-08-15T18:20:56Z</time>
      </trkpt>
      <trkpt lat="42.62247" lon="2.11107">
        <ele>1535.2</ele>
        <time>2023-08-15T18:20:59Z</time>
      </trkpt>
      <trkpt lat="42.62234" lon="2.11101">
        <ele>1535.4</ele>
        <time>2023-08-15T18:21:02Z</time>
      </trkpt>
      <trkpt lat="42.62221" lon="2.11098">
        <ele>1535.9</ele>
        <time>2023-08-15T18:21:06Z</time>
      </trkpt>
      <trkpt lat="42.62202" lon="2.11089">
        <ele>1536.1</ele>
        <time>2023-08-15T18:21:10Z</time>
      </trkpt>
      <trkpt lat="42.62186" lon="2.11082">
        <ele>1536.7</ele>
        <time>2023-08-15T18:21:13Z</time>
      </trkpt>
      <trkpt lat="42.62168" lon="2.11075">
        <ele>1536.9</ele>
        <time>2023-08-15T18:21:17Z</time>
      </trkpt>
      <trkpt lat="42.62151" lon="2.11066">
        <ele>1537</ele>
        <time>2023-08-15T18:21:21Z</time>
      </trkpt>
      <trkpt lat="42.62134" lon="2.11058">
        <ele>1537.5</ele>
        <time>2023-08-15T18:21:25Z</time>
      </trkpt>
      <trkpt lat="42.6212" lon="2.11051">
        <ele>1537.8</ele>
        <time>2023-08-15T18:21:28Z</time>
      </trkpt>
      <trkpt lat="42.62102" lon="2.11041">
        <ele>1538.2</ele>
        <time>2023-08-15T18:21:32Z</time>
      </trkpt>
      <trkpt lat="42.62085" lon="2.11029">
        <ele>1538.8</ele>
        <time>2023-08-15T18:21:36Z</time>
      </trkpt>
      <trkpt lat="42.6207" lon="2.11014">
        <ele>1538.9</ele>
        <time>2023-08-15T18:21:40Z</time>
      </trkpt>
      <trkpt lat="42.62057" lon="2.11">
        <ele>1539.4</ele>
        <time>2023-08-15T18:21:44Z</time>
      </trkpt>
      <trkpt lat="42.62042" lon="2.10982">
        <ele>1539.7</ele>
        <time>2023-08-15T18:21:48Z</time>
      </trkpt>
      <trkpt lat="42.6203" lon="2.1097">
        <ele>1539.7</ele>
        <time>2023-08-15T18:21:51Z</time>
      </trkpt>
      <trkpt lat="42.62013" lon="2.10954">
        <ele>1539.9</ele>
        <time>2023-08-15T18:21:55Z</time>
      </trkpt>
      <trkpt lat="42.61998" lon="2.10937">
        <ele>1540.3</ele>
        <time>2023-08-15T18:21:59Z</time>
      </trkpt>
      <trkpt lat="42.61986" lon="2.10924">
        <ele>1540.7</ele>
        <time>2023-08-15T18:22:02Z</time>
      </trkpt>
      <trkpt lat="42.61971" lon="2.10909">
        <ele>1540.9</ele>
        <time>2023-08-15T18:22:06Z</time>
      </trkpt>
      <trkpt lat="42.61959" lon="2.10897">
        <ele>1541</ele>
        <time>2023-08-15T18:22:09Z</time>
      </trkpt>
      <trkpt lat="42.61943" lon="2.10881">
        <ele>1541</ele>
        <time>2023-08-15T18:22:13Z</time>
      </trkpt>
      <trkpt lat="42.61927" lon="2.10864">
        <ele>1541.7</ele>
        <time>2023-08-15T18:22:17Z</time>
      </trkpt>
      <trkpt lat="42.61911" lon="2.10849">
        <ele>1541.2</ele>
        <time>2023-08-15T18:22:21Z</time>
      </trkpt>
      <trkpt lat="42.61896" lon="2.10833">
        <ele>1541.3</ele>
        <time>2023-08-15T18:22:25Z</time>
      </trkpt>
      <trkpt lat="42.61882" lon="2.10817">
        <ele>1541.8</ele>
        <time>2023-08-15T18:22:29Z</time>
      </trkpt>
      <trkpt lat="42.61869" lon="2.10801">
        <ele>1542</ele>
        <time>2023-08-15T18:22:33Z</time>
      </trkpt>
      <trkpt lat="42.61853" lon="2.10786">
        <ele>1542.5</ele>
        <time>2023-08-15T18:22:37Z</time>
      </trkpt>
      <trkpt lat="42.61842" lon="2.10775">
        <ele>1542.7</ele>
        <time>2023-08-15T18:22:40Z</time>
      </trkpt>
      <trkpt lat="42.61827" lon="2.1076">
        <ele>1542.8</ele>
        <time>2023-08-15T18:22:44Z</time>
      </trkpt>
      <trkpt lat="42.61813" lon="2.10744">
        <ele>1542.5</ele>
        <time>2023-08-15T18:22:48Z</time>
      </trkpt>
      <trkpt lat="42.61798" lon="2.10728">
        <ele>1542.9</ele>
        <time>2023-08-15T18:22:52Z</time>
      </trkpt>
      <trkpt lat="42.61787" lon="2.10717">
        <ele>1542.9</ele>
        <time>2023-08-15T18:22:55Z</time>
      </trkpt>
      <trkpt lat="42.61772" lon="2.10701">
        <ele>1543.1</ele>
        <time>2023-08-15T18:22:59Z</time>
      </trkpt>
      <trkpt lat="42.61758" lon="2.10686">
        <ele>1543.7</ele>
        <time>2023-08-15T18:23:03Z</time>
      </trkpt>
      <trkpt lat="42.61744" lon="2.10675">
        <ele>1544</ele>
        <time>2023-08-15T18:23:07Z</time>
      </trkpt>
      <trkpt lat="42.61733" lon="2.10664">
        <ele>1544.1</ele>
        <time>2023-08-15T18:23:10Z</time>
      </trkpt>
      <trkpt lat="42.61722" lon="2.10654">
        <ele>1544.8</ele>
        <time>2023-08-15T18:23:13Z</time>
      </trkpt>
      <trkpt lat="42.6171" lon="2.10645">
        <ele>1544.5</ele>
        <time>2023-08-15T18:23:16Z</time>
      </trkpt>
      <trkpt lat="42.61695" lon="2.10632">
        <ele>1545.4</ele>
        <time>2023-08-15T18:23:20Z</time>
      </trkpt>
      <trkpt lat="42.61679" lon="2.10621">
        <ele>1546</ele>
        <time>2023-08-15T18:23:24Z</time>
      </trkpt>
      <trkpt lat="42.61668" lon="2.10611">
        <ele>1546.4</ele>
        <time>2023-08-15T18:23:27Z</time>
      </trkpt>
      <trkpt lat="42.61657" lon="2.10603">
        <ele>1547.4</ele>
        <time>2023-08-15T18:23:30Z</time>
      </trkpt>
      <trkpt lat="42.61645" lon="2.10593">
        <ele>1548.2</ele>
        <time>2023-08-15T18:23:33Z</time>
      </trkpt>
      <trkpt lat="42.61631" lon="2.10581">
        <ele>1548.9</ele>
        <time>2023-08-15T18:23:37Z</time>
      </trkpt>
      <trkpt lat="42.61617" lon="2.1057">
        <ele>1549.9</ele>
        <time>2023-08-15T18:23:41Z</time>
      </trkpt>
      <trkpt lat="42.61603" lon="2.10559">
        <ele>1549.8</ele>
        <time>2023-08-15T18:23:45Z</time>
      </trkpt>
      <trkpt lat="42.61594" lon="2.10551">
        <ele>1550.7</ele>
        <time>2023-08-15T18:23:48Z</time>
      </trkpt>
      <trkpt lat="42.6158" lon="2.10538">
        <ele>1551.2</ele>
        <time>2023-08-15T18:23:52Z</time>
      </trkpt>
      <trkpt lat="42.61566" lon="2.10527">
        <ele>1552</ele>
        <time>2023-08-15T18:23:56Z</time>
      </trkpt>
      <trkpt lat="42.61555" lon="2.10519">
        <ele>1552.5</ele>
        <time>2023-08-15T18:23:59Z</time>
      </trkpt>
      <trkpt lat="42.6154" lon="2.10504">
        <ele>1552.6</ele>
        <time>2023-08-15T18:24:02Z</time>
      </trkpt>
      <trkpt lat="42.61522" lon="2.10485">
        <ele>1553.2</ele>
        <time>2023-08-15T18:24:06Z</time>
      </trkpt>
      <trkpt lat="42.61505" lon="2.10462">
        <ele>1553.4</ele>
        <time>2023-08-15T18:24:10Z</time>
      </trkpt>
      <trkpt lat="42.61494" lon="2.10446">
        <ele>1553.1</ele>
        <time>2023-08-15T18:24:13Z</time>
      </trkpt>
      <trkpt lat="42.61485" lon="2.1043">
        <ele>1553.1</ele>
        <time>2023-08-15T18:24:16Z</time>
      </trkpt>
      <trkpt lat="42.61476" lon="2.10417">
        <ele>1553.5</ele>
        <time>2023-08-15T18:24:19Z</time>
      </trkpt>
      <trkpt lat="42.61465" lon="2.104">
        <ele>1554.3</ele>
        <time>2023-08-15T18:24:23Z</time>
      </trkpt>
      <trkpt lat="42.61458" lon="2.10382">
        <ele>1554.9</ele>
        <time>2023-08-15T18:24:26Z</time>
      </trkpt>
      <trkpt lat="42.61452" lon="2.10365">
        <ele>1555.6</ele>
        <time>2023-08-15T18:24:30Z</time>
      </trkpt>
      <trkpt lat="42.61447" lon="2.10347">
        <ele>1556.1</ele>
        <time>2023-08-15T18:24:34Z</time>
      </trkpt>
      <trkpt lat="42.61443" lon="2.10333">
        <ele>1556.9</ele>
        <time>2023-08-15T18:24:37Z</time>
      </trkpt>
      <trkpt lat="42.61439" lon="2.10321">
        <ele>1557.5</ele>
        <time>2023-08-15T18:24:41Z</time>
      </trkpt>
      <trkpt lat="42.61435" lon="2.10308">
        <ele>1558</ele>
        <time>2023-08-15T18:24:44Z</time>
      </trkpt>
      <trkpt lat="42.61431" lon="2.10295">
        <ele>1558.5</ele>
        <time>2023-08-15T18:24:47Z</time>
      </trkpt>
      <trkpt lat="42.61425" lon="2.10282">
        <ele>1559.1</ele>
        <time>2023-08-15T18:24:50Z</time>
      </trkpt>
      <trkpt lat="42.61411" lon="2.10275">
        <ele>1559.6</ele>
        <time>2023-08-15T18:24:54Z</time>
      </trkpt>
      <trkpt lat="42.61393" lon="2.10272">
        <ele>1560.2</ele>
        <time>2023-08-15T18:24:58Z</time>
      </trkpt>
      <trkpt lat="42.61378" lon="2.10275">
        <ele>1559.8</ele>
        <time>2023-08-15T18:25:02Z</time>
      </trkpt>
      <trkpt lat="42.61367" lon="2.10277">
        <ele>1562.2</ele>
        <time>2023-08-15T18:25:05Z</time>
      </trkpt>
      <trkpt lat="42.61355" lon="2.10278">
        <ele>1560.6</ele>
        <time>2023-08-15T18:25:09Z</time>
      </trkpt>
      <trkpt lat="42.61344" lon="2.10279">
        <ele>1560.2</ele>
        <time>2023-08-15T18:25:12Z</time>
      </trkpt>
      <trkpt lat="42.6133" lon="2.10291">
        <ele>1560.3</ele>
        <time>2023-08-15T18:25:16Z</time>
      </trkpt>
      <trkpt lat="42.61324" lon="2.10309">
        <ele>1560.5</ele>
        <time>2023-08-15T18:25:20Z</time>
      </trkpt>
      <trkpt lat="42.61323" lon="2.10324">
        <ele>1561.1</ele>
        <time>2023-08-15T18:25:23Z</time>
      </trkpt>
      <trkpt lat="42.61321" lon="2.1034">
        <ele>1561.7</ele>
        <time>2023-08-15T18:25:26Z</time>
      </trkpt>
      <trkpt lat="42.6132" lon="2.10355">
        <ele>1562.1</ele>
        <time>2023-08-15T18:25:29Z</time>
      </trkpt>
      <trkpt lat="42.61319" lon="2.10369">
        <ele>1562.3</ele>
        <time>2023-08-15T18:25:32Z</time>
      </trkpt>
      <trkpt lat="42.61317" lon="2.10383">
        <ele>1563.4</ele>
        <time>2023-08-15T18:25:36Z</time>
      </trkpt>
      <trkpt lat="42.61313" lon="2.10403">
        <ele>1564.1</ele>
        <time>2023-08-15T18:25:40Z</time>
      </trkpt>
      <trkpt lat="42.61309" lon="2.10426">
        <ele>1564.3</ele>
        <time>2023-08-15T18:25:44Z</time>
      </trkpt>
      <trkpt lat="42.61306" lon="2.1044">
        <ele>1565</ele>
        <time>2023-08-15T18:25:47Z</time>
      </trkpt>
      <trkpt lat="42.61302" lon="2.10458">
        <ele>1565.4</ele>
        <time>2023-08-15T18:25:50Z</time>
      </trkpt>
      <trkpt lat="42.61296" lon="2.10479">
        <ele>1566.6</ele>
        <time>2023-08-15T18:25:54Z</time>
      </trkpt>
      <trkpt lat="42.61289" lon="2.10496">
        <ele>1567.2</ele>
        <time>2023-08-15T18:25:57Z</time>
      </trkpt>
      <trkpt lat="42.61282" lon="2.1051">
        <ele>1567.7</ele>
        <time>2023-08-15T18:26:00Z</time>
      </trkpt>
      <trkpt lat="42.61272" lon="2.10525">
        <ele>1568.6</ele>
        <time>2023-08-15T18:26:04Z</time>
      </trkpt>
      <trkpt lat="42.61262" lon="2.10535">
        <ele>1569.6</ele>
        <time>2023-08-15T18:26:07Z</time>
      </trkpt>
      <trkpt lat="42.61252" lon="2.10542">
        <ele>1570.1</ele>
        <time>2023-08-15T18:26:10Z</time>
      </trkpt>
      <trkpt lat="42.61237" lon="2.10548">
        <ele>1570.4</ele>
        <time>2023-08-15T18:26:13Z</time>
      </trkpt>
      <trkpt lat="42.61224" lon="2.10552">
        <ele>1571.3</ele>
        <time>2023-08-15T18:26:17Z</time>
      </trkpt>
      <trkpt lat="42.61207" lon="2.10546">
        <ele>1572.3</ele>
        <time>2023-08-15T18:26:21Z</time>
      </trkpt>
      <trkpt lat="42.61195" lon="2.10534">
        <ele>1573.3</ele>
        <time>2023-08-15T18:26:24Z</time>
      </trkpt>
      <trkpt lat="42.61187" lon="2.10523">
        <ele>1574.2</ele>
        <time>2023-08-15T18:26:28Z</time>
      </trkpt>
      <trkpt lat="42.61181" lon="2.10511">
        <ele>1574.9</ele>
        <time>2023-08-15T18:26:31Z</time>
      </trkpt>
      <trkpt lat="42.61178" lon="2.10496">
        <ele>1576.2</ele>
        <time>2023-08-15T18:26:34Z</time>
      </trkpt>
      <trkpt lat="42.61175" lon="2.10476">
        <ele>1576.9</ele>
        <time>2023-08-15T18:26:38Z</time>
      </trkpt>
      <trkpt lat="42.61173" lon="2.10459">
        <ele>1577.1</ele>
        <time>2023-08-15T18:26:41Z</time>
      </trkpt>
      <trkpt lat="42.6117" lon="2.10438">
        <ele>1578.2</ele>
        <time>2023-08-15T18:26:45Z</time>
      </trkpt>
      <trkpt lat="42.61167" lon="2.10419">
        <ele>1579.7</ele>
        <time>2023-08-15T18:26:48Z</time>
      </trkpt>
      <trkpt lat="42.61164" lon="2.10403">
        <ele>1580.6</ele>
        <time>2023-08-15T18:26:52Z</time>
      </trkpt>
      <trkpt lat="42.61161" lon="2.1039">
        <ele>1581.6</ele>
        <time>2023-08-15T18:26:55Z</time>
      </trkpt>
      <trkpt lat="42.61157" lon="2.10375">
        <ele>1582.6</ele>
        <time>2023-08-15T18:26:58Z</time>
      </trkpt>
      <trkpt lat="42.61145" lon="2.10362">
        <ele>1583</ele>
        <time>2023-08-15T18:27:02Z</time>
      </trkpt>
      <trkpt lat="42.61129" lon="2.10369">
        <ele>1583.9</ele>
        <time>2023-08-15T18:27:05Z</time>
      </trkpt>
      <trkpt lat="42.61116" lon="2.10385">
        <ele>1583.9</ele>
        <time>2023-08-15T18:27:08Z</time>
      </trkpt>
      <trkpt lat="42.61099" lon="2.10409">
        <ele>1583.5</ele>
        <time>2023-08-15T18:27:12Z</time>
      </trkpt>
      <trkpt lat="42.61082" lon="2.10434">
        <ele>1583.4</ele>
        <time>2023-08-15T18:27:16Z</time>
      </trkpt>
      <trkpt lat="42.61069" lon="2.10452">
        <ele>1583.9</ele>
        <time>2023-08-15T18:27:19Z</time>
      </trkpt>
      <trkpt lat="42.61052" lon="2.10478">
        <ele>1582.9</ele>
        <time>2023-08-15T18:27:23Z</time>
      </trkpt>
      <trkpt lat="42.61036" lon="2.10505">
        <ele>1582.6</ele>
        <time>2023-08-15T18:27:27Z</time>
      </trkpt>
      <trkpt lat="42.61021" lon="2.10529">
        <ele>1583</ele>
        <time>2023-08-15T18:27:31Z</time>
      </trkpt>
      <trkpt lat="42.6101" lon="2.10547">
        <ele>1582.5</ele>
        <time>2023-08-15T18:27:34Z</time>
      </trkpt>
      <trkpt lat="42.60998" lon="2.10562">
        <ele>1582.4</ele>
        <time>2023-08-15T18:27:37Z</time>
      </trkpt>
      <trkpt lat="42.60985" lon="2.10576">
        <ele>1582.2</ele>
        <time>2023-08-15T18:27:40Z</time>
      </trkpt>
      <trkpt lat="42.60972" lon="2.10589">
        <ele>1582.2</ele>
        <time>2023-08-15T18:27:43Z</time>
      </trkpt>
      <trkpt lat="42.60956" lon="2.10608">
        <ele>1584.3</ele>
        <time>2023-08-15T18:27:47Z</time>
      </trkpt>
      <trkpt lat="42.60942" lon="2.10629">
        <ele>1582.5</ele>
        <time>2023-08-15T18:27:51Z</time>
      </trkpt>
      <trkpt lat="42.60929" lon="2.10644">
        <ele>1582.2</ele>
        <time>2023-08-15T18:27:54Z</time>
      </trkpt>
      <trkpt lat="42.60911" lon="2.10664">
        <ele>1581.7</ele>
        <time>2023-08-15T18:27:58Z</time>
      </trkpt>
      <trkpt lat="42.60893" lon="2.10684">
        <ele>1580.9</ele>
        <time>2023-08-15T18:28:02Z</time>
      </trkpt>
      <trkpt lat="42.6088" lon="2.10697">
        <ele>1580.3</ele>
        <time>2023-08-15T18:28:05Z</time>
      </trkpt>
      <trkpt lat="42.60863" lon="2.10714">
        <ele>1579.3</ele>
        <time>2023-08-15T18:28:09Z</time>
      </trkpt>
      <trkpt lat="42.60855" lon="2.10728">
        <ele>1579</ele>
        <time>2023-08-15T18:28:12Z</time>
      </trkpt>
      <trkpt lat="42.6084" lon="2.10738">
        <ele>1579</ele>
        <time>2023-08-15T18:28:16Z</time>
      </trkpt>
      <trkpt lat="42.60828" lon="2.10743">
        <ele>1579.3</ele>
        <time>2023-08-15T18:28:19Z</time>
      </trkpt>
      <trkpt lat="42.60815" lon="2.10749">
        <ele>1579.4</ele>
        <time>2023-08-15T18:28:23Z</time>
      </trkpt>
      <trkpt lat="42.60803" lon="2.10755">
        <ele>1579.5</ele>
        <time>2023-08-15T18:28:26Z</time>
      </trkpt>
      <trkpt lat="42.60784" lon="2.10764">
        <ele>1579.7</ele>
        <time>2023-08-15T18:28:30Z</time>
      </trkpt>
      <trkpt lat="42.60764" lon="2.10773">
        <ele>1579.6</ele>
        <time>2023-08-15T18:28:34Z</time>
      </trkpt>
      <trkpt lat="42.60745" lon="2.10783">
        <ele>1579.7</ele>
        <time>2023-08-15T18:28:38Z</time>
      </trkpt>
      <trkpt lat="42.60727" lon="2.10791">
        <ele>1580</ele>
        <time>2023-08-15T18:28:42Z</time>
      </trkpt>
      <trkpt lat="42.60711" lon="2.108">
        <ele>1580.4</ele>
        <time>2023-08-15T18:28:46Z</time>
      </trkpt>
      <trkpt lat="42.60694" lon="2.10808">
        <ele>1580.7</ele>
        <time>2023-08-15T18:28:50Z</time>
      </trkpt>
      <trkpt lat="42.60681" lon="2.10815">
        <ele>1583</ele>
        <time>2023-08-15T18:28:54Z</time>
      </trkpt>
      <trkpt lat="42.60668" lon="2.1082">
        <ele>1583.4</ele>
        <time>2023-08-15T18:28:57Z</time>
      </trkpt>
      <trkpt lat="42.60657" lon="2.10827">
        <ele>1582.5</ele>
        <time>2023-08-15T18:29:00Z</time>
      </trkpt>
      <trkpt lat="42.60644" lon="2.10834">
        <ele>1582.1</ele>
        <time>2023-08-15T18:29:04Z</time>
      </trkpt>
      <trkpt lat="42.60634" lon="2.10839">
        <ele>1582.2</ele>
        <time>2023-08-15T18:29:07Z</time>
      </trkpt>
      <trkpt lat="42.60621" lon="2.10846">
        <ele>1582.6</ele>
        <time>2023-08-15T18:29:11Z</time>
      </trkpt>
      <trkpt lat="42.60611" lon="2.1085">
        <ele>1583.2</ele>
        <time>2023-08-15T18:29:14Z</time>
      </trkpt>
      <trkpt lat="42.60602" lon="2.10854">
        <ele>1583.8</ele>
        <time>2023-08-15T18:29:17Z</time>
      </trkpt>
      <trkpt lat="42.60593" lon="2.10858">
        <ele>1583.9</ele>
        <time>2023-08-15T18:29:20Z</time>
      </trkpt>
      <trkpt lat="42.6058" lon="2.10865">
        <ele>1584.8</ele>
        <time>2023-08-15T18:29:24Z</time>
      </trkpt>
      <trkpt lat="42.60567" lon="2.1087">
        <ele>1585.5</ele>
        <time>2023-08-15T18:29:28Z</time>
      </trkpt>
      <trkpt lat="42.60555" lon="2.10876">
        <ele>1585.7</ele>
        <time>2023-08-15T18:29:31Z</time>
      </trkpt>
      <trkpt lat="42.60544" lon="2.10881">
        <ele>1586</ele>
        <time>2023-08-15T18:29:34Z</time>
      </trkpt>
      <trkpt lat="42.6053" lon="2.10886">
        <ele>1586.6</ele>
        <time>2023-08-15T18:29:38Z</time>
      </trkpt>
      <trkpt lat="42.60517" lon="2.10892">
        <ele>1587.3</ele>
        <time>2023-08-15T18:29:42Z</time>
      </trkpt>
      <trkpt lat="42.60503" lon="2.10898">
        <ele>1588</ele>
        <time>2023-08-15T18:29:46Z</time>
      </trkpt>
      <trkpt lat="42.60489" lon="2.10904">
        <ele>1588.2</ele>
        <time>2023-08-15T18:29:49Z</time>
      </trkpt>
      <trkpt lat="42.60475" lon="2.10911">
        <ele>1588.7</ele>
        <time>2023-08-15T18:29:52Z</time>
      </trkpt>
      <trkpt lat="42.60457" lon="2.10919">
        <ele>1588.9</ele>
        <time>2023-08-15T18:29:56Z</time>
      </trkpt>
      <trkpt lat="42.60438" lon="2.10928">
        <ele>1589</ele>
        <time>2023-08-15T18:30:00Z</time>
      </trkpt>
      <trkpt lat="42.6042" lon="2.10936">
        <ele>1588.9</ele>
        <time>2023-08-15T18:30:04Z</time>
      </trkpt>
      <trkpt lat="42.604" lon="2.10944">
        <ele>1589.2</ele>
        <time>2023-08-15T18:30:08Z</time>
      </trkpt>
      <trkpt lat="42.60387" lon="2.10951">
        <ele>1589.3</ele>
        <time>2023-08-15T18:30:11Z</time>
      </trkpt>
      <trkpt lat="42.6037" lon="2.1096">
        <ele>1589.9</ele>
        <time>2023-08-15T18:30:15Z</time>
      </trkpt>
      <trkpt lat="42.60356" lon="2.10967">
        <ele>1589.7</ele>
        <time>2023-08-15T18:30:18Z</time>
      </trkpt>
      <trkpt lat="42.60336" lon="2.10976">
        <ele>1590.2</ele>
        <time>2023-08-15T18:30:22Z</time>
      </trkpt>
      <trkpt lat="42.60321" lon="2.10983">
        <ele>1590.2</ele>
        <time>2023-08-15T18:30:25Z</time>
      </trkpt>
      <trkpt lat="42.60305" lon="2.1099">
        <ele>1590</ele>
        <time>2023-08-15T18:30:28Z</time>
      </trkpt>
      <trkpt lat="42.60284" lon="2.10999">
        <ele>1589.6</ele>
        <time>2023-08-15T18:30:32Z</time>
      </trkpt>
      <trkpt lat="42.60263" lon="2.11007">
        <ele>1589.4</ele>
        <time>2023-08-15T18:30:36Z</time>
      </trkpt>
      <trkpt lat="42.60249" lon="2.11013">
        <ele>1590.8</ele>
        <time>2023-08-15T18:30:39Z</time>
      </trkpt>
      <trkpt lat="42.60235" lon="2.11019">
        <ele>1589.6</ele>
        <time>2023-08-15T18:30:42Z</time>
      </trkpt>
      <trkpt lat="42.60213" lon="2.11029">
        <ele>1589.5</ele>
        <time>2023-08-15T18:30:46Z</time>
      </trkpt>
      <trkpt lat="42.60198" lon="2.11037">
        <ele>1589.4</ele>
        <time>2023-08-15T18:30:49Z</time>
      </trkpt>
      <trkpt lat="42.60178" lon="2.11048">
        <ele>1589.4</ele>
        <time>2023-08-15T18:30:53Z</time>
      </trkpt>
      <trkpt lat="42.60164" lon="2.11055">
        <ele>1589.4</ele>
        <time>2023-08-15T18:30:56Z</time>
      </trkpt>
      <trkpt lat="42.6015" lon="2.11062">
        <ele>1589.1</ele>
        <time>2023-08-15T18:30:59Z</time>
      </trkpt>
      <trkpt lat="42.6013" lon="2.11069">
        <ele>1588.7</ele>
        <time>2023-08-15T18:31:03Z</time>
      </trkpt>
      <trkpt lat="42.60117" lon="2.11075">
        <ele>1588.7</ele>
        <time>2023-08-15T18:31:06Z</time>
      </trkpt>
      <trkpt lat="42.60098" lon="2.11082">
        <ele>1588.7</ele>
        <time>2023-08-15T18:31:10Z</time>
      </trkpt>
      <trkpt lat="42.60084" lon="2.11087">
        <ele>1588.8</ele>
        <time>2023-08-15T18:31:13Z</time>
      </trkpt>
      <trkpt lat="42.6007" lon="2.11093">
        <ele>1588.7</ele>
        <time>2023-08-15T18:31:16Z</time>
      </trkpt>
      <trkpt lat="42.60055" lon="2.111">
        <ele>1588.8</ele>
        <time>2023-08-15T18:31:19Z</time>
      </trkpt>
      <trkpt lat="42.60035" lon="2.11111">
        <ele>1588.9</ele>
        <time>2023-08-15T18:31:23Z</time>
      </trkpt>
      <trkpt lat="42.60021" lon="2.11118">
        <ele>1588.6</ele>
        <time>2023-08-15T18:31:26Z</time>
      </trkpt>
      <trkpt lat="42.6" lon="2.11126">
        <ele>1587.8</ele>
        <time>2023-08-15T18:31:30Z</time>
      </trkpt>
      <trkpt lat="42.59985" lon="2.11131">
        <ele>1587.5</ele>
        <time>2023-08-15T18:31:33Z</time>
      </trkpt>
      <trkpt lat="42.5997" lon="2.11136">
        <ele>1587.4</ele>
        <time>2023-08-15T18:31:36Z</time>
      </trkpt>
      <trkpt lat="42.59949" lon="2.11143">
        <ele>1587.5</ele>
        <time>2023-08-15T18:31:40Z</time>
      </trkpt>
      <trkpt lat="42.59934" lon="2.11148">
        <ele>1587.1</ele>
        <time>2023-08-15T18:31:43Z</time>
      </trkpt>
      <trkpt lat="42.59916" lon="2.11151">
        <ele>1587</ele>
        <time>2023-08-15T18:31:47Z</time>
      </trkpt>
      <trkpt lat="42.59901" lon="2.11154">
        <ele>1587.1</ele>
        <time>2023-08-15T18:31:50Z</time>
      </trkpt>
      <trkpt lat="42.59881" lon="2.11158">
        <ele>1586.9</ele>
        <time>2023-08-15T18:31:54Z</time>
      </trkpt>
      <trkpt lat="42.59866" lon="2.11163">
        <ele>1586.7</ele>
        <time>2023-08-15T18:31:57Z</time>
      </trkpt>
      <trkpt lat="42.5985" lon="2.11167">
        <ele>1586.5</ele>
        <time>2023-08-15T18:32:00Z</time>
      </trkpt>
      <trkpt lat="42.5983" lon="2.11171">
        <ele>1586.2</ele>
        <time>2023-08-15T18:32:04Z</time>
      </trkpt>
      <trkpt lat="42.5981" lon="2.11176">
        <ele>1586.5</ele>
        <time>2023-08-15T18:32:08Z</time>
      </trkpt>
      <trkpt lat="42.59789" lon="2.11179">
        <ele>1586.2</ele>
        <time>2023-08-15T18:32:12Z</time>
      </trkpt>
      <trkpt lat="42.59769" lon="2.11181">
        <ele>1586</ele>
        <time>2023-08-15T18:32:16Z</time>
      </trkpt>
      <trkpt lat="42.59749" lon="2.11184">
        <ele>1586.1</ele>
        <time>2023-08-15T18:32:20Z</time>
      </trkpt>
      <trkpt lat="42.5973" lon="2.11186">
        <ele>1585.4</ele>
        <time>2023-08-15T18:32:24Z</time>
      </trkpt>
      <trkpt lat="42.59716" lon="2.11187">
        <ele>1585.3</ele>
        <time>2023-08-15T18:32:27Z</time>
      </trkpt>
      <trkpt lat="42.597" lon="2.1119">
        <ele>1585.5</ele>
        <time>2023-08-15T18:32:30Z</time>
      </trkpt>
      <trkpt lat="42.59681" lon="2.11194">
        <ele>1585</ele>
        <time>2023-08-15T18:32:34Z</time>
      </trkpt>
      <trkpt lat="42.59667" lon="2.11196">
        <ele>1585.2</ele>
        <time>2023-08-15T18:32:37Z</time>
      </trkpt>
      <trkpt lat="42.59647" lon="2.11198">
        <ele>1584.9</ele>
        <time>2023-08-15T18:32:41Z</time>
      </trkpt>
      <trkpt lat="42.59627" lon="2.11202">
        <ele>1584.7</ele>
        <time>2023-08-15T18:32:45Z</time>
      </trkpt>
      <trkpt lat="42.5961" lon="2.11205">
        <ele>1584.7</ele>
        <time>2023-08-15T18:32:48Z</time>
      </trkpt>
      <trkpt lat="42.59584" lon="2.1121">
        <ele>1583.6</ele>
        <time>2023-08-15T18:32:52Z</time>
      </trkpt>
      <trkpt lat="42.59562" lon="2.11215">
        <ele>1582.4</ele>
        <time>2023-08-15T18:32:55Z</time>
      </trkpt>
      <trkpt lat="42.59533" lon="2.11219">
        <ele>1580.8</ele>
        <time>2023-08-15T18:32:59Z</time>
      </trkpt>
      <trkpt lat="42.59507" lon="2.11225">
        <ele>1581</ele>
        <time>2023-08-15T18:33:03Z</time>
      </trkpt>
      <trkpt lat="42.59492" lon="2.11227">
        <ele>1581.8</ele>
        <time>2023-08-15T18:33:06Z</time>
      </trkpt>
      <trkpt lat="42.59476" lon="2.1123">
        <ele>1582.7</ele>
        <time>2023-08-15T18:33:10Z</time>
      </trkpt>
      <trkpt lat="42.59466" lon="2.11232">
        <ele>1583.3</ele>
        <time>2023-08-15T18:33:13Z</time>
      </trkpt>
      <trkpt lat="42.59455" lon="2.11233">
        <ele>1584.2</ele>
        <time>2023-08-15T18:33:17Z</time>
      </trkpt>
      <trkpt lat="42.59441" lon="2.11235">
        <ele>1584.8</ele>
        <time>2023-08-15T18:33:21Z</time>
      </trkpt>
      <trkpt lat="42.59431" lon="2.11236">
        <ele>1584.8</ele>
        <time>2023-08-15T18:33:24Z</time>
      </trkpt>
      <trkpt lat="42.5942" lon="2.11238">
        <ele>1585</ele>
        <time>2023-08-15T18:33:27Z</time>
      </trkpt>
      <trkpt lat="42.59401" lon="2.1124">
        <ele>1585</ele>
        <time>2023-08-15T18:33:31Z</time>
      </trkpt>
      <trkpt lat="42.59383" lon="2.11243">
        <ele>1585.1</ele>
        <time>2023-08-15T18:33:35Z</time>
      </trkpt>
      <trkpt lat="42.59367" lon="2.11246">
        <ele>1586.8</ele>
        <time>2023-08-15T18:33:39Z</time>
      </trkpt>
      <trkpt lat="42.59354" lon="2.11248">
        <ele>1585.6</ele>
        <time>2023-08-15T18:33:42Z</time>
      </trkpt>
      <trkpt lat="42.5934" lon="2.1125">
        <ele>1585.6</ele>
        <time>2023-08-15T18:33:45Z</time>
      </trkpt>
      <trkpt lat="42.59319" lon="2.11253">
        <ele>1585.6</ele>
        <time>2023-08-15T18:33:49Z</time>
      </trkpt>
      <trkpt lat="42.59299" lon="2.11255">
        <ele>1585.2</ele>
        <time>2023-08-15T18:33:53Z</time>
      </trkpt>
      <trkpt lat="42.59283" lon="2.11258">
        <ele>1584.9</ele>
        <time>2023-08-15T18:33:56Z</time>
      </trkpt>
      <trkpt lat="42.59266" lon="2.11261">
        <ele>1585.1</ele>
        <time>2023-08-15T18:33:59Z</time>
      </trkpt>
      <trkpt lat="42.59249" lon="2.11263">
        <ele>1585.2</ele>
        <time>2023-08-15T18:34:02Z</time>
      </trkpt>
      <trkpt lat="42.59226" lon="2.11267">
        <ele>1585.6</ele>
        <time>2023-08-15T18:34:06Z</time>
      </trkpt>
      <trkpt lat="42.59208" lon="2.1127">
        <ele>1585.6</ele>
        <time>2023-08-15T18:34:09Z</time>
      </trkpt>
      <trkpt lat="42.59185" lon="2.11274">
        <ele>1585.5</ele>
        <time>2023-08-15T18:34:13Z</time>
      </trkpt>
      <trkpt lat="42.59166" lon="2.11276">
        <ele>1585.3</ele>
        <time>2023-08-15T18:34:16Z</time>
      </trkpt>
      <trkpt lat="42.59142" lon="2.1128">
        <ele>1585.4</ele>
        <time>2023-08-15T18:34:20Z</time>
      </trkpt>
      <trkpt lat="42.59123" lon="2.11283">
        <ele>1585.3</ele>
        <time>2023-08-15T18:34:23Z</time>
      </trkpt>
      <trkpt lat="42.59098" lon="2.11286">
        <ele>1585</ele>
        <time>2023-08-15T18:34:27Z</time>
      </trkpt>
      <trkpt lat="42.59076" lon="2.11291">
        <ele>1585.3</ele>
        <time>2023-08-15T18:34:31Z</time>
      </trkpt>
      <trkpt lat="42.5906" lon="2.11293">
        <ele>1585.4</ele>
        <time>2023-08-15T18:34:34Z</time>
      </trkpt>
      <trkpt lat="42.5904" lon="2.11296">
        <ele>1586</ele>
        <time>2023-08-15T18:34:38Z</time>
      </trkpt>
      <trkpt lat="42.59019" lon="2.11299">
        <ele>1585.1</ele>
        <time>2023-08-15T18:34:42Z</time>
      </trkpt>
      <trkpt lat="42.59003" lon="2.11302">
        <ele>1585</ele>
        <time>2023-08-15T18:34:45Z</time>
      </trkpt>
      <trkpt lat="42.58988" lon="2.11304">
        <ele>1584.9</ele>
        <time>2023-08-15T18:34:48Z</time>
      </trkpt>
      <trkpt lat="42.58966" lon="2.11308">
        <ele>1584.4</ele>
        <time>2023-08-15T18:34:52Z</time>
      </trkpt>
      <trkpt lat="42.5895" lon="2.11311">
        <ele>1584.4</ele>
        <time>2023-08-15T18:34:55Z</time>
      </trkpt>
      <trkpt lat="42.58935" lon="2.11313">
        <ele>1583.6</ele>
        <time>2023-08-15T18:34:58Z</time>
      </trkpt>
      <trkpt lat="42.58921" lon="2.11315">
        <ele>1583.6</ele>
        <time>2023-08-15T18:35:01Z</time>
      </trkpt>
      <trkpt lat="42.58901" lon="2.11318">
        <ele>1583.3</ele>
        <time>2023-08-15T18:35:05Z</time>
      </trkpt>
      <trkpt lat="42.58886" lon="2.1132">
        <ele>1583.1</ele>
        <time>2023-08-15T18:35:08Z</time>
      </trkpt>
      <trkpt lat="42.58865" lon="2.11324">
        <ele>1582.7</ele>
        <time>2023-08-15T18:35:12Z</time>
      </trkpt>
      <trkpt lat="42.58848" lon="2.11327">
        <ele>1582.1</ele>
        <time>2023-08-15T18:35:15Z</time>
      </trkpt>
      <trkpt lat="42.58823" lon="2.11332">
        <ele>1581.5</ele>
        <time>2023-08-15T18:35:19Z</time>
      </trkpt>
      <trkpt lat="42.58803" lon="2.11335">
        <ele>1580.4</ele>
        <time>2023-08-15T18:35:22Z</time>
      </trkpt>
      <trkpt lat="42.58773" lon="2.1134">
        <ele>1579</ele>
        <time>2023-08-15T18:35:26Z</time>
      </trkpt>
      <trkpt lat="42.5874" lon="2.11346">
        <ele>1577.4</ele>
        <time>2023-08-15T18:35:30Z</time>
      </trkpt>
      <trkpt lat="42.58708" lon="2.11351">
        <ele>1576.9</ele>
        <time>2023-08-15T18:35:34Z</time>
      </trkpt>
      <trkpt lat="42.58684" lon="2.11356">
        <ele>1576.3</ele>
        <time>2023-08-15T18:35:38Z</time>
      </trkpt>
      <trkpt lat="42.58671" lon="2.11361">
        <ele>1576.2</ele>
        <time>2023-08-15T18:35:41Z</time>
      </trkpt>
      <trkpt lat="42.58658" lon="2.11368">
        <ele>1576.6</ele>
        <time>2023-08-15T18:35:45Z</time>
      </trkpt>
      <trkpt lat="42.58651" lon="2.11362">
        <ele>1576.7</ele>
        <time>2023-08-15T18:35:49Z</time>
      </trkpt>
      <trkpt lat="42.5865" lon="2.11352">
        <ele>1576.9</ele>
        <time>2023-08-15T18:35:52Z</time>
      </trkpt>
      <trkpt lat="42.58654" lon="2.11338">
        <ele>1577.6</ele>
        <time>2023-08-15T18:35:56Z</time>
      </trkpt>
      <trkpt lat="42.58661" lon="2.11324">
        <ele>1578.2</ele>
        <time>2023-08-15T18:36:00Z</time>
      </trkpt>
      <trkpt lat="42.58669" lon="2.11309">
        <ele>1579.3</ele>
        <time>2023-08-15T18:36:04Z</time>
      </trkpt>
      <trkpt lat="42.58674" lon="2.11298">
        <ele>1580</ele>
        <time>2023-08-15T18:36:07Z</time>
      </trkpt>
      <trkpt lat="42.58678" lon="2.1128">
        <ele>1581</ele>
        <time>2023-08-15T18:36:11Z</time>
      </trkpt>
      <trkpt lat="42.5868" lon="2.11266">
        <ele>1581.9</ele>
        <time>2023-08-15T18:36:14Z</time>
      </trkpt>
      <trkpt lat="42.58683" lon="2.11246">
        <ele>1581.9</ele>
        <time>2023-08-15T18:36:18Z</time>
      </trkpt>
      <trkpt lat="42.58686" lon="2.11218">
        <ele>1582.2</ele>
        <time>2023-08-15T18:36:22Z</time>
      </trkpt>
      <trkpt lat="42.58687" lon="2.11195">
        <ele>1583.4</ele>
        <time>2023-08-15T18:36:25Z</time>
      </trkpt>
      <trkpt lat="42.58689" lon="2.11169">
        <ele>1583.9</ele>
        <time>2023-08-15T18:36:29Z</time>
      </trkpt>
      <trkpt lat="42.5869" lon="2.11144">
        <ele>1584.1</ele>
        <time>2023-08-15T18:36:33Z</time>
      </trkpt>
      <trkpt lat="42.58691" lon="2.11121">
        <ele>1585</ele>
        <time>2023-08-15T18:36:37Z</time>
      </trkpt>
      <trkpt lat="42.58692" lon="2.11103">
        <ele>1585.4</ele>
        <time>2023-08-15T18:36:40Z</time>
      </trkpt>
      <trkpt lat="42.58694" lon="2.11081">
        <ele>1586</ele>
        <time>2023-08-15T18:36:44Z</time>
      </trkpt>
      <trkpt lat="42.58694" lon="2.11061">
        <ele>1586.1</ele>
        <time>2023-08-15T18:36:47Z</time>
      </trkpt>
      <trkpt lat="42.58696" lon="2.1104">
        <ele>1586.7</ele>
        <time>2023-08-15T18:36:50Z</time>
      </trkpt>
      <trkpt lat="42.58697" lon="2.11019">
        <ele>1586.8</ele>
        <time>2023-08-15T18:36:54Z</time>
      </trkpt>
      <trkpt lat="42.58698" lon="2.10994">
        <ele>1587.1</ele>
        <time>2023-08-15T18:36:57Z</time>
      </trkpt>
      <trkpt lat="42.587" lon="2.10968">
        <ele>1589.8</ele>
        <time>2023-08-15T18:37:01Z</time>
      </trkpt>
      <trkpt lat="42.58701" lon="2.10947">
        <ele>1588.8</ele>
        <time>2023-08-15T18:37:05Z</time>
      </trkpt>
      <trkpt lat="42.58702" lon="2.10918">
        <ele>1589.3</ele>
        <time>2023-08-15T18:37:09Z</time>
      </trkpt>
      <trkpt lat="42.58703" lon="2.10897">
        <ele>1590.1</ele>
        <time>2023-08-15T18:37:12Z</time>
      </trkpt>
      <trkpt lat="42.58703" lon="2.10871">
        <ele>1589.8</ele>
        <time>2023-08-15T18:37:16Z</time>
      </trkpt>
      <trkpt lat="42.58704" lon="2.10852">
        <ele>1590.7</ele>
        <time>2023-08-15T18:37:19Z</time>
      </trkpt>
      <trkpt lat="42.58705" lon="2.10829">
        <ele>1591.1</ele>
        <time>2023-08-15T18:37:23Z</time>
      </trkpt>
      <trkpt lat="42.58708" lon="2.10807">
        <ele>1591.4</ele>
        <time>2023-08-15T18:37:26Z</time>
      </trkpt>
      <trkpt lat="42.58709" lon="2.10792">
        <ele>1592.3</ele>
        <time>2023-08-15T18:37:29Z</time>
      </trkpt>
      <trkpt lat="42.5871" lon="2.10776">
        <ele>1592.7</ele>
        <time>2023-08-15T18:37:33Z</time>
      </trkpt>
      <trkpt lat="42.5871" lon="2.10758">
        <ele>1593.2</ele>
        <time>2023-08-15T18:37:36Z</time>
      </trkpt>
      <trkpt lat="42.58711" lon="2.10736">
        <ele>1594.9</ele>
        <time>2023-08-15T18:37:40Z</time>
      </trkpt>
      <trkpt lat="42.58712" lon="2.10717">
        <ele>1594.8</ele>
        <time>2023-08-15T18:37:43Z</time>
      </trkpt>
      <trkpt lat="42.58712" lon="2.10689">
        <ele>1594.6</ele>
        <time>2023-08-15T18:37:47Z</time>
      </trkpt>
      <trkpt lat="42.58709" lon="2.10661">
        <ele>1595.2</ele>
        <time>2023-08-15T18:37:51Z</time>
      </trkpt>
      <trkpt lat="42.58703" lon="2.10632">
        <ele>1596</ele>
        <time>2023-08-15T18:37:55Z</time>
      </trkpt>
      <trkpt lat="42.58697" lon="2.10606">
        <ele>1596.8</ele>
        <time>2023-08-15T18:37:59Z</time>
      </trkpt>
      <trkpt lat="42.58694" lon="2.10586">
        <ele>1597.5</ele>
        <time>2023-08-15T18:38:02Z</time>
      </trkpt>
      <trkpt lat="42.58691" lon="2.10561">
        <ele>1598.1</ele>
        <time>2023-08-15T18:38:06Z</time>
      </trkpt>
      <trkpt lat="42.58688" lon="2.10539">
        <ele>1598.8</ele>
        <time>2023-08-15T18:38:09Z</time>
      </trkpt>
      <trkpt lat="42.58683" lon="2.10513">
        <ele>1599.5</ele>
        <time>2023-08-15T18:38:13Z</time>
      </trkpt>
      <trkpt lat="42.58677" lon="2.10485">
        <ele>1599.2</ele>
        <time>2023-08-15T18:38:17Z</time>
      </trkpt>
      <trkpt lat="42.58672" lon="2.10463">
        <ele>1599.9</ele>
        <time>2023-08-15T18:38:21Z</time>
      </trkpt>
      <trkpt lat="42.58667" lon="2.1044">
        <ele>1600.8</ele>
        <time>2023-08-15T18:38:25Z</time>
      </trkpt>
      <trkpt lat="42.58665" lon="2.10428">
        <ele>1600.9</ele>
        <time>2023-08-15T18:38:29Z</time>
      </trkpt>
      <trkpt lat="42.58659" lon="2.10424">
        <ele>1601.5</ele>
        <time>2023-08-15T18:38:32Z</time>
      </trkpt>
      <trkpt lat="42.58654" lon="2.10428">
        <ele>1601.4</ele>
        <time>2023-08-15T18:38:35Z</time>
      </trkpt>
      <trkpt lat="42.5865" lon="2.1043">
        <ele>1601.5</ele>
        <time>2023-08-15T18:38:38Z</time>
      </trkpt>
      <trkpt lat="42.58645" lon="2.10432">
        <ele>1601.5</ele>
        <time>2023-08-15T18:38:41Z</time>
      </trkpt>
      <trkpt lat="42.58628" lon="2.10438">
        <ele>1600.9</ele>
        <time>2023-08-15T18:38:45Z</time>
      </trkpt>
      <trkpt lat="42.58607" lon="2.10445">
        <ele>1600.3</ele>
        <time>2023-08-15T18:38:49Z</time>
      </trkpt>
      <trkpt lat="42.58592" lon="2.10449">
        <ele>1599.5</ele>
        <time>2023-08-15T18:38:52Z</time>
      </trkpt>
      <trkpt lat="42.58575" lon="2.10453">
        <ele>1599.5</ele>
        <time>2023-08-15T18:38:55Z</time>
      </trkpt>
      <trkpt lat="42.5855" lon="2.10459">
        <ele>1599.2</ele>
        <time>2023-08-15T18:38:59Z</time>
      </trkpt>
      <trkpt lat="42.58526" lon="2.10464">
        <ele>1598.9</ele>
        <time>2023-08-15T18:39:03Z</time>
      </trkpt>
      <trkpt lat="42.58509" lon="2.10467">
        <ele>1598.9</ele>
        <time>2023-08-15T18:39:06Z</time>
      </trkpt>
      <trkpt lat="42.58488" lon="2.10472">
        <ele>1598.7</ele>
        <time>2023-08-15T18:39:10Z</time>
      </trkpt>
      <trkpt lat="42.58472" lon="2.10475">
        <ele>1598.7</ele>
        <time>2023-08-15T18:39:13Z</time>
      </trkpt>
      <trkpt lat="42.58456" lon="2.1048">
        <ele>1597.7</ele>
        <time>2023-08-15T18:39:16Z</time>
      </trkpt>
      <trkpt lat="42.58441" lon="2.10485">
        <ele>1597.6</ele>
        <time>2023-08-15T18:39:19Z</time>
      </trkpt>
      <trkpt lat="42.58421" lon="2.10494">
        <ele>1597.4</ele>
        <time>2023-08-15T18:39:23Z</time>
      </trkpt>
      <trkpt lat="42.58401" lon="2.10502">
        <ele>1597.5</ele>
        <time>2023-08-15T18:39:27Z</time>
      </trkpt>
      <trkpt lat="42.58381" lon="2.10511">
        <ele>1597.3</ele>
        <time>2023-08-15T18:39:31Z</time>
      </trkpt>
      <trkpt lat="42.58367" lon="2.10516">
        <ele>1597.1</ele>
        <time>2023-08-15T18:39:34Z</time>
      </trkpt>
      <trkpt lat="42.58348" lon="2.10524">
        <ele>1597</ele>
        <time>2023-08-15T18:39:38Z</time>
      </trkpt>
      <trkpt lat="42.58329" lon="2.10533">
        <ele>1596.5</ele>
        <time>2023-08-15T18:39:42Z</time>
      </trkpt>
      <trkpt lat="42.58308" lon="2.10541">
        <ele>1595.4</ele>
        <time>2023-08-15T18:39:46Z</time>
      </trkpt>
      <trkpt lat="42.58293" lon="2.10547">
        <ele>1595</ele>
        <time>2023-08-15T18:39:49Z</time>
      </trkpt>
      <trkpt lat="42.58278" lon="2.10553">
        <ele>1594.5</ele>
        <time>2023-08-15T18:39:52Z</time>
      </trkpt>
      <trkpt lat="42.58261" lon="2.1056">
        <ele>1594.4</ele>
        <time>2023-08-15T18:39:56Z</time>
      </trkpt>
      <trkpt lat="42.58245" lon="2.10568">
        <ele>1595.5</ele>
        <time>2023-08-15T18:40:00Z</time>
      </trkpt>
      <trkpt lat="42.58231" lon="2.10574">
        <ele>1595.5</ele>
        <time>2023-08-15T18:40:04Z</time>
      </trkpt>
      <trkpt lat="42.58219" lon="2.1058">
        <ele>1595.5</ele>
        <time>2023-08-15T18:40:08Z</time>
      </trkpt>
      <trkpt lat="42.58212" lon="2.10584">
        <ele>1595.5</ele>
        <time>2023-08-15T18:40:11Z</time>
      </trkpt>
      <trkpt lat="42.58206" lon="2.10589">
        <ele>1595.5</ele>
        <time>2023-08-15T18:40:14Z</time>
      </trkpt>
      <trkpt lat="42.58203" lon="2.10596">
        <ele>1593.8</ele>
        <time>2023-08-15T18:40:18Z</time>
      </trkpt>
      <trkpt lat="42.58205" lon="2.10604">
        <ele>1595.5</ele>
        <time>2023-08-15T18:40:21Z</time>
      </trkpt>
      <trkpt lat="42.58208" lon="2.10608">
        <ele>1594.8</ele>
        <time>2023-08-15T18:40:24Z</time>
      </trkpt>
      <trkpt lat="42.58211" lon="2.10612">
        <ele>1594.8</ele>
        <time>2023-08-15T18:40:28Z</time>
      </trkpt>
      <trkpt lat="42.58214" lon="2.10616">
        <ele>1595.5</ele>
        <time>2023-08-15T18:40:31Z</time>
      </trkpt>
      <trkpt lat="42.58217" lon="2.10621">
        <ele>1595.5</ele>
        <time>2023-08-15T18:40:34Z</time>
      </trkpt>
      <trkpt lat="42.5822" lon="2.10627">
        <ele>1595.5</ele>
        <time>2023-08-15T18:40:38Z</time>
      </trkpt>
      <trkpt lat="42.58223" lon="2.10632">
        <ele>1595.5</ele>
        <time>2023-08-15T18:40:42Z</time>
      </trkpt>
      <trkpt lat="42.58226" lon="2.10639">
        <ele>1595.5</ele>
        <time>2023-08-15T18:40:46Z</time>
      </trkpt>
      <trkpt lat="42.58228" lon="2.10648">
        <ele>1594.8</ele>
        <time>2023-08-15T18:40:50Z</time>
      </trkpt>
    </trkseg>
  </trk>
</gpx>